<?xml version='1.0' encoding='UTF-8'?><gpx version="1.1" creator="JPX - https://github.com/jenetics/jpx" xmlns="http://www.topografix.com/GPX/1/1"><trk><trkseg><trkpt lat="39.93011" lon="8.695255"><ele>15.999999999999998</ele><time>2026-05-01T07:28:26.572Z</time></trkpt><trkpt lat="39.930125" lon="8.695395"><ele>16.0</ele><time>2026-05-01T07:28:28.573Z</time></trkpt><trkpt lat="39.9300967" lon="8.6954767"><ele>16.0</ele><time>2026-05-01T07:28:29.569Z</time></trkpt><trkpt lat="39.9300583" lon="8.6955617"><ele>16.0</ele><time>2026-05-01T07:28:30.572Z</time></trkpt><trkpt lat="39.9300367" lon="8.6956483"><ele>15.999999999999998</ele><time>2026-05-01T07:28:31.572Z</time></trkpt><trkpt lat="39.9300317" lon="8.695745"><ele>16.0</ele><time>2026-05-01T07:28:32.572Z</time></trkpt><trkpt lat="39.9300517" lon="8.6958367"><ele>16.0</ele><time>2026-05-01T07:28:33.571Z</time></trkpt><trkpt lat="39.93008" lon="8.6959367"><ele>16.0</ele><time>2026-05-01T07:28:34.573Z</time></trkpt><trkpt lat="39.9301083" lon="8.6960583"><ele>16.0</ele><time>2026-05-01T07:28:35.568Z</time></trkpt><trkpt lat="39.93013" lon="8.6961833"><ele>16.0</ele><time>2026-05-01T07:28:36.573Z</time></trkpt><trkpt lat="39.93014" lon="8.6963167"><ele>16.0</ele><time>2026-05-01T07:28:37.571Z</time></trkpt><trkpt lat="39.9301383" lon="8.6964633"><ele>16.0</ele><time>2026-05-01T07:28:38.572Z</time></trkpt><trkpt lat="39.9301317" lon="8.6966217"><ele>16.0</ele><time>2026-05-01T07:28:39.571Z</time></trkpt><trkpt lat="39.9301167" lon="8.69679"><ele>16.0</ele><time>2026-05-01T07:28:40.572Z</time></trkpt><trkpt lat="39.9301083" lon="8.6969683"><ele>16.0</ele><time>2026-05-01T07:28:41.573Z</time></trkpt><trkpt lat="39.9300983" lon="8.6971517"><ele>16.333333333333332</ele><time>2026-05-01T07:28:42.575Z</time></trkpt><trkpt lat="39.9300917" lon="8.697345"><ele>16.666666666666668</ele><time>2026-05-01T07:28:43.572Z</time></trkpt><trkpt lat="39.930085" lon="8.6975483"><ele>17.0</ele><time>2026-05-01T07:28:44.573Z</time></trkpt><trkpt lat="39.9300817" lon="8.6977583"><ele>17.0</ele><time>2026-05-01T07:28:45.574Z</time></trkpt><trkpt lat="39.9300767" lon="8.6979733"><ele>17.0</ele><time>2026-05-01T07:28:46.571Z</time></trkpt><trkpt lat="39.9300717" lon="8.6982033"><ele>17.0</ele><time>2026-05-01T07:28:47.57Z</time></trkpt><trkpt lat="39.9300633" lon="8.6984367"><ele>16.666666666666668</ele><time>2026-05-01T07:28:48.571Z</time></trkpt><trkpt lat="39.9300567" lon="8.6986717"><ele>16.333333333333332</ele><time>2026-05-01T07:28:49.574Z</time></trkpt><trkpt lat="39.93005" lon="8.698915"><ele>16.0</ele><time>2026-05-01T07:28:50.575Z</time></trkpt><trkpt lat="39.9300417" lon="8.6991617"><ele>16.0</ele><time>2026-05-01T07:28:51.572Z</time></trkpt><trkpt lat="39.9300367" lon="8.6994117"><ele>16.0</ele><time>2026-05-01T07:28:52.571Z</time></trkpt><trkpt lat="39.93003" lon="8.6996617"><ele>16.0</ele><time>2026-05-01T07:28:53.572Z</time></trkpt><trkpt lat="39.93002" lon="8.6999183"><ele>16.333333333333332</ele><time>2026-05-01T07:28:54.574Z</time></trkpt><trkpt lat="39.93001" lon="8.70017"><ele>16.666666666666668</ele><time>2026-05-01T07:28:55.57Z</time></trkpt><trkpt lat="39.9300017" lon="8.70042"><ele>17.0</ele><time>2026-05-01T07:28:56.574Z</time></trkpt><trkpt lat="39.9299933" lon="8.70067"><ele>16.666666666666668</ele><time>2026-05-01T07:28:57.573Z</time></trkpt><trkpt lat="39.9299867" lon="8.70092"><ele>16.333333333333332</ele><time>2026-05-01T07:28:58.57Z</time></trkpt><trkpt lat="39.9299833" lon="8.70117"><ele>16.0</ele><time>2026-05-01T07:28:59.572Z</time></trkpt><trkpt lat="39.92998" lon="8.70142"><ele>16.0</ele><time>2026-05-01T07:29:00.569Z</time></trkpt><trkpt lat="39.929975" lon="8.7016667"><ele>16.0</ele><time>2026-05-01T07:29:01.569Z</time></trkpt><trkpt lat="39.92997" lon="8.7019117"><ele>16.0</ele><time>2026-05-01T07:29:02.578Z</time></trkpt><trkpt lat="39.9299683" lon="8.7021583"><ele>16.333333333333332</ele><time>2026-05-01T07:29:03.574Z</time></trkpt><trkpt lat="39.9299617" lon="8.7024067"><ele>16.666666666666668</ele><time>2026-05-01T07:29:04.57Z</time></trkpt><trkpt lat="39.9299517" lon="8.7026533"><ele>17.0</ele><time>2026-05-01T07:29:05.569Z</time></trkpt><trkpt lat="39.9299383" lon="8.7028933"><ele>17.333333333333336</ele><time>2026-05-01T07:29:06.574Z</time></trkpt><trkpt lat="39.9299183" lon="8.7031283"><ele>17.666666666666668</ele><time>2026-05-01T07:29:07.574Z</time></trkpt><trkpt lat="39.9298983" lon="8.703365"><ele>18.0</ele><time>2026-05-01T07:29:08.574Z</time></trkpt><trkpt lat="39.9298733" lon="8.7036033"><ele>18.333333333333332</ele><time>2026-05-01T07:29:09.575Z</time></trkpt><trkpt lat="39.9298467" lon="8.70384"><ele>18.666666666666664</ele><time>2026-05-01T07:29:10.572Z</time></trkpt><trkpt lat="39.92982" lon="8.70408"><ele>19.0</ele><time>2026-05-01T07:29:11.573Z</time></trkpt><trkpt lat="39.92979" lon="8.7043183"><ele>18.666666666666664</ele><time>2026-05-01T07:29:12.574Z</time></trkpt><trkpt lat="39.9297567" lon="8.7045567"><ele>18.333333333333332</ele><time>2026-05-01T07:29:13.572Z</time></trkpt><trkpt lat="39.9297217" lon="8.7047983"><ele>18.0</ele><time>2026-05-01T07:29:14.573Z</time></trkpt><trkpt lat="39.9296883" lon="8.7050267"><ele>18.333333333333332</ele><time>2026-05-01T07:29:15.57Z</time></trkpt><trkpt lat="39.9296517" lon="8.7052667"><ele>18.666666666666664</ele><time>2026-05-01T07:29:16.571Z</time></trkpt><trkpt lat="39.9296133" lon="8.7055117"><ele>19.0</ele><time>2026-05-01T07:29:17.572Z</time></trkpt><trkpt lat="39.929575" lon="8.7057583"><ele>19.0</ele><time>2026-05-01T07:29:18.574Z</time></trkpt><trkpt lat="39.929535" lon="8.706005"><ele>19.0</ele><time>2026-05-01T07:29:19.572Z</time></trkpt><trkpt lat="39.929495" lon="8.7062517"><ele>19.0</ele><time>2026-05-01T07:29:20.575Z</time></trkpt><trkpt lat="39.929455" lon="8.7064983"><ele>19.0</ele><time>2026-05-01T07:29:21.575Z</time></trkpt><trkpt lat="39.9294133" lon="8.7067433"><ele>19.0</ele><time>2026-05-01T07:29:22.572Z</time></trkpt><trkpt lat="39.92937" lon="8.7069933"><ele>19.0</ele><time>2026-05-01T07:29:23.57Z</time></trkpt><trkpt lat="39.9293233" lon="8.707245"><ele>18.666666666666664</ele><time>2026-05-01T07:29:24.573Z</time></trkpt><trkpt lat="39.9292783" lon="8.7075"><ele>18.333333333333332</ele><time>2026-05-01T07:29:25.568Z</time></trkpt><trkpt lat="39.929235" lon="8.7077517"><ele>18.0</ele><time>2026-05-01T07:29:26.571Z</time></trkpt><trkpt lat="39.92919" lon="8.7080033"><ele>18.0</ele><time>2026-05-01T07:29:27.576Z</time></trkpt><trkpt lat="39.9291467" lon="8.7082533"><ele>18.0</ele><time>2026-05-01T07:29:28.569Z</time></trkpt><trkpt lat="39.9291017" lon="8.708505"><ele>18.0</ele><time>2026-05-01T07:29:29.575Z</time></trkpt><trkpt lat="39.92906" lon="8.7087583"><ele>18.333333333333332</ele><time>2026-05-01T07:29:30.573Z</time></trkpt><trkpt lat="39.9290167" lon="8.70901"><ele>18.666666666666664</ele><time>2026-05-01T07:29:31.574Z</time></trkpt><trkpt lat="39.9289733" lon="8.709265"><ele>19.0</ele><time>2026-05-01T07:29:32.571Z</time></trkpt><trkpt lat="39.9289317" lon="8.70952"><ele>19.666666666666664</ele><time>2026-05-01T07:29:33.573Z</time></trkpt><trkpt lat="39.9288867" lon="8.7097733"><ele>20.333333333333332</ele><time>2026-05-01T07:29:34.576Z</time></trkpt><trkpt lat="39.9288433" lon="8.7100283"><ele>21.0</ele><time>2026-05-01T07:29:35.574Z</time></trkpt><trkpt lat="39.9288" lon="8.7102833"><ele>21.333333333333332</ele><time>2026-05-01T07:29:36.574Z</time></trkpt><trkpt lat="39.9287583" lon="8.71054"><ele>21.666666666666664</ele><time>2026-05-01T07:29:37.572Z</time></trkpt><trkpt lat="39.9287183" lon="8.7107967"><ele>22.0</ele><time>2026-05-01T07:29:38.572Z</time></trkpt><trkpt lat="39.9286783" lon="8.71105"><ele>21.666666666666664</ele><time>2026-05-01T07:29:39.571Z</time></trkpt><trkpt lat="39.9286383" lon="8.7113083"><ele>21.333333333333332</ele><time>2026-05-01T07:29:40.574Z</time></trkpt><trkpt lat="39.9286" lon="8.7115667"><ele>21.0</ele><time>2026-05-01T07:29:41.57Z</time></trkpt><trkpt lat="39.9285567" lon="8.711825"><ele>20.666666666666668</ele><time>2026-05-01T07:29:42.573Z</time></trkpt><trkpt lat="39.92851" lon="8.712085"><ele>20.333333333333336</ele><time>2026-05-01T07:29:43.574Z</time></trkpt><trkpt lat="39.9284667" lon="8.7123433"><ele>20.0</ele><time>2026-05-01T07:29:44.574Z</time></trkpt><trkpt lat="39.9284217" lon="8.7126017"><ele>20.0</ele><time>2026-05-01T07:29:45.576Z</time></trkpt><trkpt lat="39.92838" lon="8.71286"><ele>20.0</ele><time>2026-05-01T07:29:46.568Z</time></trkpt><trkpt lat="39.9283383" lon="8.71312"><ele>20.0</ele><time>2026-05-01T07:29:47.572Z</time></trkpt><trkpt lat="39.9282967" lon="8.7133833"><ele>19.333333333333336</ele><time>2026-05-01T07:29:48.572Z</time></trkpt><trkpt lat="39.9282567" lon="8.7136467"><ele>18.666666666666668</ele><time>2026-05-01T07:29:49.575Z</time></trkpt><trkpt lat="39.928215" lon="8.7139083"><ele>18.0</ele><time>2026-05-01T07:29:50.573Z</time></trkpt><trkpt lat="39.9281733" lon="8.7141733"><ele>18.333333333333332</ele><time>2026-05-01T07:29:51.57Z</time></trkpt><trkpt lat="39.9281317" lon="8.714435"><ele>18.666666666666664</ele><time>2026-05-01T07:29:52.57Z</time></trkpt><trkpt lat="39.92809" lon="8.7146983"><ele>19.0</ele><time>2026-05-01T07:29:53.571Z</time></trkpt><trkpt lat="39.9280483" lon="8.7149633"><ele>19.0</ele><time>2026-05-01T07:29:54.57Z</time></trkpt><trkpt lat="39.9280067" lon="8.7152267"><ele>19.0</ele><time>2026-05-01T07:29:55.57Z</time></trkpt><trkpt lat="39.9279617" lon="8.7154933"><ele>19.0</ele><time>2026-05-01T07:29:56.571Z</time></trkpt><trkpt lat="39.92792" lon="8.71575"><ele>19.0</ele><time>2026-05-01T07:29:57.574Z</time></trkpt><trkpt lat="39.927875" lon="8.7160033"><ele>19.0</ele><time>2026-05-01T07:29:58.573Z</time></trkpt><trkpt lat="39.9278283" lon="8.716255"><ele>19.0</ele><time>2026-05-01T07:29:59.574Z</time></trkpt><trkpt lat="39.927785" lon="8.716505"><ele>19.0</ele><time>2026-05-01T07:30:00.575Z</time></trkpt><trkpt lat="39.9277417" lon="8.7167533"><ele>19.0</ele><time>2026-05-01T07:30:01.575Z</time></trkpt><trkpt lat="39.9276983" lon="8.7170017"><ele>19.0</ele><time>2026-05-01T07:30:02.572Z</time></trkpt><trkpt lat="39.927655" lon="8.7172517"><ele>19.333333333333332</ele><time>2026-05-01T07:30:03.577Z</time></trkpt><trkpt lat="39.9276117" lon="8.717505"><ele>19.666666666666668</ele><time>2026-05-01T07:30:04.572Z</time></trkpt><trkpt lat="39.927565" lon="8.71776"><ele>20.0</ele><time>2026-05-01T07:30:05.574Z</time></trkpt><trkpt lat="39.9275183" lon="8.7180133"><ele>20.333333333333336</ele><time>2026-05-01T07:30:06.576Z</time></trkpt><trkpt lat="39.927475" lon="8.7182667"><ele>20.666666666666668</ele><time>2026-05-01T07:30:07.569Z</time></trkpt><trkpt lat="39.92743" lon="8.71852"><ele>21.0</ele><time>2026-05-01T07:30:08.58Z</time></trkpt><trkpt lat="39.9273883" lon="8.7187733"><ele>21.333333333333332</ele><time>2026-05-01T07:30:09.575Z</time></trkpt><trkpt lat="39.92735" lon="8.719025"><ele>21.666666666666664</ele><time>2026-05-01T07:30:10.57Z</time></trkpt><trkpt lat="39.9273083" lon="8.719275"><ele>22.0</ele><time>2026-05-01T07:30:11.57Z</time></trkpt><trkpt lat="39.92727" lon="8.7195233"><ele>22.333333333333332</ele><time>2026-05-01T07:30:12.575Z</time></trkpt><trkpt lat="39.9272333" lon="8.7197733"><ele>22.666666666666668</ele><time>2026-05-01T07:30:13.576Z</time></trkpt><trkpt lat="39.9271983" lon="8.7200267"><ele>23.0</ele><time>2026-05-01T07:30:14.578Z</time></trkpt><trkpt lat="39.92716" lon="8.7202783"><ele>23.0</ele><time>2026-05-01T07:30:15.574Z</time></trkpt><trkpt lat="39.92712" lon="8.7205317"><ele>23.0</ele><time>2026-05-01T07:30:16.574Z</time></trkpt><trkpt lat="39.9270783" lon="8.7207867"><ele>23.0</ele><time>2026-05-01T07:30:17.572Z</time></trkpt><trkpt lat="39.927035" lon="8.7210417"><ele>23.333333333333336</ele><time>2026-05-01T07:30:18.574Z</time></trkpt><trkpt lat="39.9269933" lon="8.7212983"><ele>23.666666666666668</ele><time>2026-05-01T07:30:19.572Z</time></trkpt><trkpt lat="39.9269517" lon="8.7215567"><ele>24.0</ele><time>2026-05-01T07:30:20.579Z</time></trkpt><trkpt lat="39.9269083" lon="8.7218133"><ele>23.333333333333332</ele><time>2026-05-01T07:30:21.572Z</time></trkpt><trkpt lat="39.9268683" lon="8.7220683"><ele>22.666666666666664</ele><time>2026-05-01T07:30:22.57Z</time></trkpt><trkpt lat="39.9268283" lon="8.7223267"><ele>22.0</ele><time>2026-05-01T07:30:23.573Z</time></trkpt><trkpt lat="39.926785" lon="8.7225867"><ele>22.333333333333332</ele><time>2026-05-01T07:30:24.573Z</time></trkpt><trkpt lat="39.9267433" lon="8.722845"><ele>22.666666666666668</ele><time>2026-05-01T07:30:25.568Z</time></trkpt><trkpt lat="39.9267017" lon="8.7231033"><ele>23.0</ele><time>2026-05-01T07:30:26.574Z</time></trkpt><trkpt lat="39.9266617" lon="8.723365"><ele>23.333333333333336</ele><time>2026-05-01T07:30:27.573Z</time></trkpt><trkpt lat="39.9266217" lon="8.723625"><ele>23.666666666666668</ele><time>2026-05-01T07:30:28.573Z</time></trkpt><trkpt lat="39.9265833" lon="8.72389"><ele>24.0</ele><time>2026-05-01T07:30:29.573Z</time></trkpt><trkpt lat="39.9265417" lon="8.7241567"><ele>24.333333333333336</ele><time>2026-05-01T07:30:30.573Z</time></trkpt><trkpt lat="39.9265" lon="8.724425"><ele>24.666666666666668</ele><time>2026-05-01T07:30:31.576Z</time></trkpt><trkpt lat="39.9264583" lon="8.7246917"><ele>25.0</ele><time>2026-05-01T07:30:32.573Z</time></trkpt><trkpt lat="39.9264133" lon="8.7249567"><ele>25.0</ele><time>2026-05-01T07:30:33.568Z</time></trkpt><trkpt lat="39.9263733" lon="8.7252217"><ele>25.0</ele><time>2026-05-01T07:30:34.571Z</time></trkpt><trkpt lat="39.9263283" lon="8.725485"><ele>25.0</ele><time>2026-05-01T07:30:35.57Z</time></trkpt><trkpt lat="39.9262833" lon="8.7257467"><ele>25.0</ele><time>2026-05-01T07:30:36.573Z</time></trkpt><trkpt lat="39.92624" lon="8.7260117"><ele>25.0</ele><time>2026-05-01T07:30:37.571Z</time></trkpt><trkpt lat="39.9261983" lon="8.7262767"><ele>25.0</ele><time>2026-05-01T07:30:38.58Z</time></trkpt><trkpt lat="39.92616" lon="8.7265417"><ele>25.0</ele><time>2026-05-01T07:30:39.57Z</time></trkpt><trkpt lat="39.9261167" lon="8.7268083"><ele>25.0</ele><time>2026-05-01T07:30:40.57Z</time></trkpt><trkpt lat="39.92608" lon="8.7270767"><ele>25.0</ele><time>2026-05-01T07:30:41.571Z</time></trkpt><trkpt lat="39.92604" lon="8.7273433"><ele>25.0</ele><time>2026-05-01T07:30:42.573Z</time></trkpt><trkpt lat="39.926" lon="8.7276083"><ele>25.0</ele><time>2026-05-01T07:30:43.573Z</time></trkpt><trkpt lat="39.9259583" lon="8.7278683"><ele>25.0</ele><time>2026-05-01T07:30:44.586Z</time></trkpt><trkpt lat="39.925915" lon="8.7281233"><ele>25.0</ele><time>2026-05-01T07:30:45.572Z</time></trkpt><trkpt lat="39.9258733" lon="8.7283767"><ele>25.0</ele><time>2026-05-01T07:30:46.573Z</time></trkpt><trkpt lat="39.9258317" lon="8.7286283"><ele>25.0</ele><time>2026-05-01T07:30:47.573Z</time></trkpt><trkpt lat="39.9257917" lon="8.72888"><ele>25.0</ele><time>2026-05-01T07:30:48.568Z</time></trkpt><trkpt lat="39.9257517" lon="8.7291317"><ele>25.0</ele><time>2026-05-01T07:30:49.569Z</time></trkpt><trkpt lat="39.9257133" lon="8.7293833"><ele>25.0</ele><time>2026-05-01T07:30:50.582Z</time></trkpt><trkpt lat="39.9256717" lon="8.7296333"><ele>25.0</ele><time>2026-05-01T07:30:51.567Z</time></trkpt><trkpt lat="39.92563" lon="8.7298833"><ele>25.0</ele><time>2026-05-01T07:30:52.569Z</time></trkpt><trkpt lat="39.92559" lon="8.7301317"><ele>25.0</ele><time>2026-05-01T07:30:53.572Z</time></trkpt><trkpt lat="39.9255483" lon="8.7303817"><ele>25.0</ele><time>2026-05-01T07:30:54.573Z</time></trkpt><trkpt lat="39.9255067" lon="8.730635"><ele>25.0</ele><time>2026-05-01T07:30:55.572Z</time></trkpt><trkpt lat="39.9254633" lon="8.7308883"><ele>25.0</ele><time>2026-05-01T07:30:56.57Z</time></trkpt><trkpt lat="39.9254217" lon="8.731145"><ele>25.0</ele><time>2026-05-01T07:30:57.569Z</time></trkpt><trkpt lat="39.92538" lon="8.7314017"><ele>25.0</ele><time>2026-05-01T07:30:58.573Z</time></trkpt><trkpt lat="39.9253383" lon="8.7316567"><ele>25.0</ele><time>2026-05-01T07:30:59.569Z</time></trkpt><trkpt lat="39.9252967" lon="8.7319117"><ele>25.333333333333336</ele><time>2026-05-01T07:31:00.57Z</time></trkpt><trkpt lat="39.925255" lon="8.7321683"><ele>25.666666666666664</ele><time>2026-05-01T07:31:01.571Z</time></trkpt><trkpt lat="39.9252133" lon="8.73243"><ele>26.0</ele><time>2026-05-01T07:31:02.574Z</time></trkpt><trkpt lat="39.92517" lon="8.7326933"><ele>25.666666666666664</ele><time>2026-05-01T07:31:03.574Z</time></trkpt><trkpt lat="39.9251267" lon="8.7329583"><ele>25.333333333333336</ele><time>2026-05-01T07:31:04.572Z</time></trkpt><trkpt lat="39.925085" lon="8.733225"><ele>25.0</ele><time>2026-05-01T07:31:05.57Z</time></trkpt><trkpt lat="39.9250417" lon="8.7334933"><ele>25.333333333333336</ele><time>2026-05-01T07:31:06.572Z</time></trkpt><trkpt lat="39.924995" lon="8.7337583"><ele>25.666666666666664</ele><time>2026-05-01T07:31:07.569Z</time></trkpt><trkpt lat="39.9249517" lon="8.7340267"><ele>26.0</ele><time>2026-05-01T07:31:08.581Z</time></trkpt><trkpt lat="39.9249083" lon="8.7342967"><ele>25.666666666666664</ele><time>2026-05-01T07:31:09.568Z</time></trkpt><trkpt lat="39.9248667" lon="8.7345683"><ele>25.333333333333336</ele><time>2026-05-01T07:31:10.571Z</time></trkpt><trkpt lat="39.9248267" lon="8.7348417"><ele>25.0</ele><time>2026-05-01T07:31:11.576Z</time></trkpt><trkpt lat="39.924785" lon="8.735115"><ele>24.666666666666668</ele><time>2026-05-01T07:31:12.57Z</time></trkpt><trkpt lat="39.9247417" lon="8.7353917"><ele>24.333333333333336</ele><time>2026-05-01T07:31:13.572Z</time></trkpt><trkpt lat="39.9247017" lon="8.7356667"><ele>24.0</ele><time>2026-05-01T07:31:14.581Z</time></trkpt><trkpt lat="39.92466" lon="8.735945"><ele>24.333333333333336</ele><time>2026-05-01T07:31:15.575Z</time></trkpt><trkpt lat="39.924615" lon="8.7362233"><ele>24.666666666666668</ele><time>2026-05-01T07:31:16.571Z</time></trkpt><trkpt lat="39.9245683" lon="8.7365"><ele>25.0</ele><time>2026-05-01T07:31:17.572Z</time></trkpt><trkpt lat="39.924525" lon="8.7367783"><ele>24.666666666666668</ele><time>2026-05-01T07:31:18.57Z</time></trkpt><trkpt lat="39.92448" lon="8.7370583"><ele>24.333333333333336</ele><time>2026-05-01T07:31:19.57Z</time></trkpt><trkpt lat="39.9244367" lon="8.7373367"><ele>24.0</ele><time>2026-05-01T07:31:20.582Z</time></trkpt><trkpt lat="39.9243917" lon="8.737615"><ele>24.0</ele><time>2026-05-01T07:31:21.573Z</time></trkpt><trkpt lat="39.924345" lon="8.7378933"><ele>24.0</ele><time>2026-05-01T07:31:22.572Z</time></trkpt><trkpt lat="39.9243" lon="8.73817"><ele>24.0</ele><time>2026-05-01T07:31:23.574Z</time></trkpt><trkpt lat="39.924255" lon="8.7384467"><ele>25.0</ele><time>2026-05-01T07:31:24.575Z</time></trkpt><trkpt lat="39.9242133" lon="8.738725"><ele>26.0</ele><time>2026-05-01T07:31:25.572Z</time></trkpt><trkpt lat="39.92417" lon="8.7390017"><ele>27.0</ele><time>2026-05-01T07:31:26.571Z</time></trkpt><trkpt lat="39.9241233" lon="8.7392767"><ele>27.0</ele><time>2026-05-01T07:31:27.573Z</time></trkpt><trkpt lat="39.9240783" lon="8.739555"><ele>27.0</ele><time>2026-05-01T07:31:28.571Z</time></trkpt><trkpt lat="39.924035" lon="8.7398333"><ele>27.0</ele><time>2026-05-01T07:31:29.571Z</time></trkpt><trkpt lat="39.92399" lon="8.74011"><ele>27.0</ele><time>2026-05-01T07:31:30.573Z</time></trkpt><trkpt lat="39.9239467" lon="8.7403883"><ele>27.0</ele><time>2026-05-01T07:31:31.571Z</time></trkpt><trkpt lat="39.923905" lon="8.7406633"><ele>27.0</ele><time>2026-05-01T07:31:32.57Z</time></trkpt><trkpt lat="39.9238617" lon="8.7409383"><ele>27.0</ele><time>2026-05-01T07:31:33.573Z</time></trkpt><trkpt lat="39.9238217" lon="8.7412133"><ele>27.0</ele><time>2026-05-01T07:31:34.57Z</time></trkpt><trkpt lat="39.92378" lon="8.741485"><ele>27.0</ele><time>2026-05-01T07:31:35.572Z</time></trkpt><trkpt lat="39.9237417" lon="8.741755"><ele>26.333333333333336</ele><time>2026-05-01T07:31:36.573Z</time></trkpt><trkpt lat="39.9237033" lon="8.7420233"><ele>25.666666666666668</ele><time>2026-05-01T07:31:37.573Z</time></trkpt><trkpt lat="39.9236667" lon="8.7422917"><ele>25.0</ele><time>2026-05-01T07:31:38.584Z</time></trkpt><trkpt lat="39.9236267" lon="8.74256"><ele>25.666666666666668</ele><time>2026-05-01T07:31:39.568Z</time></trkpt><trkpt lat="39.923585" lon="8.7428283"><ele>26.333333333333336</ele><time>2026-05-01T07:31:40.573Z</time></trkpt><trkpt lat="39.9235433" lon="8.7431"><ele>27.0</ele><time>2026-05-01T07:31:41.572Z</time></trkpt><trkpt lat="39.9234983" lon="8.7433667"><ele>27.0</ele><time>2026-05-01T07:31:42.572Z</time></trkpt><trkpt lat="39.9234533" lon="8.743635"><ele>27.0</ele><time>2026-05-01T07:31:43.571Z</time></trkpt><trkpt lat="39.9234067" lon="8.7439017"><ele>27.0</ele><time>2026-05-01T07:31:44.582Z</time></trkpt><trkpt lat="39.92336" lon="8.7441733"><ele>28.0</ele><time>2026-05-01T07:31:45.571Z</time></trkpt><trkpt lat="39.9233117" lon="8.7444433"><ele>29.0</ele><time>2026-05-01T07:31:46.572Z</time></trkpt><trkpt lat="39.923265" lon="8.7447133"><ele>30.0</ele><time>2026-05-01T07:31:47.573Z</time></trkpt><trkpt lat="39.9232167" lon="8.744985"><ele>29.666666666666664</ele><time>2026-05-01T07:31:48.575Z</time></trkpt><trkpt lat="39.92317" lon="8.745255"><ele>29.333333333333332</ele><time>2026-05-01T07:31:49.571Z</time></trkpt><trkpt lat="39.923125" lon="8.7455283"><ele>29.0</ele><time>2026-05-01T07:31:50.583Z</time></trkpt><trkpt lat="39.92308" lon="8.7458"><ele>29.333333333333332</ele><time>2026-05-01T07:31:51.574Z</time></trkpt><trkpt lat="39.9230333" lon="8.7460683"><ele>29.666666666666664</ele><time>2026-05-01T07:31:52.568Z</time></trkpt><trkpt lat="39.9229867" lon="8.7463367"><ele>30.0</ele><time>2026-05-01T07:31:53.573Z</time></trkpt><trkpt lat="39.9229433" lon="8.7466067"><ele>30.0</ele><time>2026-05-01T07:31:54.574Z</time></trkpt><trkpt lat="39.9228983" lon="8.746875"><ele>30.0</ele><time>2026-05-01T07:31:55.569Z</time></trkpt><trkpt lat="39.9228517" lon="8.747145"><ele>30.0</ele><time>2026-05-01T07:31:56.57Z</time></trkpt><trkpt lat="39.922805" lon="8.7474133"><ele>30.0</ele><time>2026-05-01T07:31:57.574Z</time></trkpt><trkpt lat="39.92276" lon="8.7476817"><ele>30.0</ele><time>2026-05-01T07:31:58.572Z</time></trkpt><trkpt lat="39.9227133" lon="8.7479433"><ele>30.0</ele><time>2026-05-01T07:31:59.573Z</time></trkpt><trkpt lat="39.9226717" lon="8.748195"><ele>30.0</ele><time>2026-05-01T07:32:00.574Z</time></trkpt><trkpt lat="39.92263" lon="8.7484333"><ele>30.0</ele><time>2026-05-01T07:32:01.572Z</time></trkpt><trkpt lat="39.9225917" lon="8.748665"><ele>30.0</ele><time>2026-05-01T07:32:02.573Z</time></trkpt><trkpt lat="39.9225567" lon="8.7488883"><ele>30.333333333333336</ele><time>2026-05-01T07:32:03.57Z</time></trkpt><trkpt lat="39.9225217" lon="8.749105"><ele>30.666666666666668</ele><time>2026-05-01T07:32:04.569Z</time></trkpt><trkpt lat="39.9224867" lon="8.7493117"><ele>31.0</ele><time>2026-05-01T07:32:05.568Z</time></trkpt><trkpt lat="39.922455" lon="8.7495117"><ele>31.0</ele><time>2026-05-01T07:32:06.573Z</time></trkpt><trkpt lat="39.9224233" lon="8.7496983"><ele>31.0</ele><time>2026-05-01T07:32:07.569Z</time></trkpt><trkpt lat="39.92239" lon="8.7498783"><ele>31.0</ele><time>2026-05-01T07:32:08.581Z</time></trkpt><trkpt lat="39.9223533" lon="8.7500467"><ele>31.0</ele><time>2026-05-01T07:32:09.57Z</time></trkpt><trkpt lat="39.922315" lon="8.7502017"><ele>30.8</ele><time>2026-05-01T07:32:10.572Z</time></trkpt><trkpt lat="39.9222767" lon="8.75034"><ele>30.6</ele><time>2026-05-01T07:32:11.573Z</time></trkpt><trkpt lat="39.9222217" lon="8.7504617"><ele>30.4</ele><time>2026-05-01T07:32:12.576Z</time></trkpt><trkpt lat="39.9221567" lon="8.7505767"><ele>30.2</ele><time>2026-05-01T07:32:13.572Z</time></trkpt><trkpt lat="39.922085" lon="8.7506783"><ele>30.0</ele><time>2026-05-01T07:32:14.581Z</time></trkpt><trkpt lat="39.9220167" lon="8.75078"><ele>30.0</ele><time>2026-05-01T07:32:15.572Z</time></trkpt><trkpt lat="39.9219633" lon="8.7508917"><ele>30.0</ele><time>2026-05-01T07:32:16.571Z</time></trkpt><trkpt lat="39.9219233" lon="8.7510017"><ele>30.0</ele><time>2026-05-01T07:32:17.571Z</time></trkpt><trkpt lat="39.9219533" lon="8.7511317"><ele>30.0</ele><time>2026-05-01T07:32:18.571Z</time></trkpt><trkpt lat="39.9219967" lon="8.75125"><ele>30.0</ele><time>2026-05-01T07:32:19.574Z</time></trkpt><trkpt lat="39.922055" lon="8.7513533"><ele>29.75</ele><time>2026-05-01T07:32:20.585Z</time></trkpt><trkpt lat="39.9221317" lon="8.7514033"><ele>29.5</ele><time>2026-05-01T07:32:21.571Z</time></trkpt><trkpt lat="39.9222183" lon="8.7514117"><ele>29.25</ele><time>2026-05-01T07:32:22.572Z</time></trkpt><trkpt lat="39.922375" lon="8.7513383"><ele>29.0</ele><time>2026-05-01T07:32:23.572Z</time></trkpt><trkpt lat="39.9225333" lon="8.75127"><ele>29.0</ele><time>2026-05-01T07:32:24.581Z</time></trkpt><trkpt lat="39.9226967" lon="8.7512283"><ele>29.0</ele><time>2026-05-01T07:32:25.573Z</time></trkpt><trkpt lat="39.92288" lon="8.7512117"><ele>29.0</ele><time>2026-05-01T07:32:26.637Z</time></trkpt><trkpt lat="39.92308" lon="8.751225"><ele>29.0</ele><time>2026-05-01T07:32:27.568Z</time></trkpt><trkpt lat="39.9232867" lon="8.751275"><ele>29.0</ele><time>2026-05-01T07:32:28.566Z</time></trkpt><trkpt lat="39.9234933" lon="8.75133"><ele>29.0</ele><time>2026-05-01T07:32:29.571Z</time></trkpt><trkpt lat="39.9237033" lon="8.7513817"><ele>29.333333333333332</ele><time>2026-05-01T07:32:30.571Z</time></trkpt><trkpt lat="39.9239033" lon="8.751445"><ele>29.666666666666664</ele><time>2026-05-01T07:32:31.572Z</time></trkpt><trkpt lat="39.9241017" lon="8.7515333"><ele>30.0</ele><time>2026-05-01T07:32:32.57Z</time></trkpt><trkpt lat="39.9243017" lon="8.7516417"><ele>30.333333333333336</ele><time>2026-05-01T07:32:33.572Z</time></trkpt><trkpt lat="39.92449" lon="8.7517683"><ele>30.666666666666668</ele><time>2026-05-01T07:32:34.574Z</time></trkpt><trkpt lat="39.9246667" lon="8.7519133"><ele>31.0</ele><time>2026-05-01T07:32:35.572Z</time></trkpt><trkpt lat="39.9248233" lon="8.752085"><ele>32.5</ele><time>2026-05-01T07:32:36.569Z</time></trkpt><trkpt lat="39.9249767" lon="8.7522583"><ele>34.0</ele><time>2026-05-01T07:32:37.572Z</time></trkpt><trkpt lat="39.9252633" lon="8.7526167"><ele>36.333333333333336</ele><time>2026-05-01T07:32:39.574Z</time></trkpt><trkpt lat="39.9253833" lon="8.7528017"><ele>38.666666666666664</ele><time>2026-05-01T07:32:40.572Z</time></trkpt><trkpt lat="39.925465" lon="8.7530667"><ele>41.0</ele><time>2026-05-01T07:32:41.573Z</time></trkpt><trkpt lat="39.9255183" lon="8.75331"><ele>41.33333333333333</ele><time>2026-05-01T07:32:42.574Z</time></trkpt><trkpt lat="39.925565" lon="8.7535583"><ele>41.666666666666664</ele><time>2026-05-01T07:32:43.57Z</time></trkpt><trkpt lat="39.92561" lon="8.7538283"><ele>42.0</ele><time>2026-05-01T07:32:44.581Z</time></trkpt><trkpt lat="39.9256533" lon="8.7540967"><ele>42.0</ele><time>2026-05-01T07:32:45.57Z</time></trkpt><trkpt lat="39.9256933" lon="8.7543617"><ele>42.0</ele><time>2026-05-01T07:32:46.571Z</time></trkpt><trkpt lat="39.925725" lon="8.75464"><ele>42.0</ele><time>2026-05-01T07:32:47.571Z</time></trkpt><trkpt lat="39.9257667" lon="8.7549533"><ele>42.0</ele><time>2026-05-01T07:32:48.573Z</time></trkpt><trkpt lat="39.9258283" lon="8.75522"><ele>42.0</ele><time>2026-05-01T07:32:49.573Z</time></trkpt><trkpt lat="39.9259033" lon="8.7554767"><ele>42.0</ele><time>2026-05-01T07:32:50.585Z</time></trkpt><trkpt lat="39.9259883" lon="8.75572"><ele>42.333333333333336</ele><time>2026-05-01T07:32:51.571Z</time></trkpt><trkpt lat="39.926085" lon="8.755955"><ele>42.66666666666667</ele><time>2026-05-01T07:32:52.573Z</time></trkpt><trkpt lat="39.9261883" lon="8.7561833"><ele>43.0</ele><time>2026-05-01T07:32:53.573Z</time></trkpt><trkpt lat="39.926305" lon="8.7564033"><ele>43.0</ele><time>2026-05-01T07:32:54.575Z</time></trkpt><trkpt lat="39.9264217" lon="8.7566183"><ele>43.0</ele><time>2026-05-01T07:32:55.575Z</time></trkpt><trkpt lat="39.9265533" lon="8.756815"><ele>43.0</ele><time>2026-05-01T07:32:56.569Z</time></trkpt><trkpt lat="39.92669" lon="8.7570033"><ele>42.66666666666667</ele><time>2026-05-01T07:32:57.571Z</time></trkpt><trkpt lat="39.926835" lon="8.75718"><ele>42.333333333333336</ele><time>2026-05-01T07:32:58.567Z</time></trkpt><trkpt lat="39.9269883" lon="8.7573417"><ele>42.0</ele><time>2026-05-01T07:32:59.574Z</time></trkpt><trkpt lat="39.92715" lon="8.757485"><ele>42.0</ele><time>2026-05-01T07:33:00.572Z</time></trkpt><trkpt lat="39.92732" lon="8.7576167"><ele>42.0</ele><time>2026-05-01T07:33:01.569Z</time></trkpt><trkpt lat="39.9274933" lon="8.75773"><ele>42.0</ele><time>2026-05-01T07:33:02.573Z</time></trkpt><trkpt lat="39.927675" lon="8.75782"><ele>43.666666666666664</ele><time>2026-05-01T07:33:03.574Z</time></trkpt><trkpt lat="39.9278667" lon="8.7578983"><ele>45.33333333333333</ele><time>2026-05-01T07:33:04.573Z</time></trkpt><trkpt lat="39.92806" lon="8.757975"><ele>47.0</ele><time>2026-05-01T07:33:05.573Z</time></trkpt><trkpt lat="39.9282517" lon="8.7580433"><ele>48.33333333333333</ele><time>2026-05-01T07:33:06.568Z</time></trkpt><trkpt lat="39.9284467" lon="8.7581133"><ele>49.666666666666664</ele><time>2026-05-01T07:33:07.569Z</time></trkpt><trkpt lat="39.9286417" lon="8.7581867"><ele>51.0</ele><time>2026-05-01T07:33:08.58Z</time></trkpt><trkpt lat="39.9288483" lon="8.75824"><ele>51.0</ele><time>2026-05-01T07:33:09.574Z</time></trkpt><trkpt lat="39.9290567" lon="8.7583117"><ele>51.0</ele><time>2026-05-01T07:33:10.572Z</time></trkpt><trkpt lat="39.929255" lon="8.7583867"><ele>51.0</ele><time>2026-05-01T07:33:11.576Z</time></trkpt><trkpt lat="39.9294533" lon="8.7584617"><ele>50.66666666666667</ele><time>2026-05-01T07:33:12.574Z</time></trkpt><trkpt lat="39.929645" lon="8.75854"><ele>50.333333333333336</ele><time>2026-05-01T07:33:13.571Z</time></trkpt><trkpt lat="39.9298417" lon="8.75862"><ele>50.0</ele><time>2026-05-01T07:33:14.584Z</time></trkpt><trkpt lat="39.9300267" lon="8.7587"><ele>50.333333333333336</ele><time>2026-05-01T07:33:15.57Z</time></trkpt><trkpt lat="39.9302217" lon="8.75878"><ele>50.66666666666667</ele><time>2026-05-01T07:33:16.57Z</time></trkpt><trkpt lat="39.9304217" lon="8.75886"><ele>51.0</ele><time>2026-05-01T07:33:17.573Z</time></trkpt><trkpt lat="39.9306233" lon="8.7589583"><ele>51.0</ele><time>2026-05-01T07:33:18.57Z</time></trkpt><trkpt lat="39.9308133" lon="8.7590467"><ele>51.0</ele><time>2026-05-01T07:33:19.572Z</time></trkpt><trkpt lat="39.9310083" lon="8.7591333"><ele>51.0</ele><time>2026-05-01T07:33:20.588Z</time></trkpt><trkpt lat="39.9311983" lon="8.7592067"><ele>51.0</ele><time>2026-05-01T07:33:21.571Z</time></trkpt><trkpt lat="39.9313933" lon="8.7592917"><ele>51.0</ele><time>2026-05-01T07:33:22.569Z</time></trkpt><trkpt lat="39.93159" lon="8.7593883"><ele>51.0</ele><time>2026-05-01T07:33:23.571Z</time></trkpt><trkpt lat="39.9317783" lon="8.7594833"><ele>51.66666666666667</ele><time>2026-05-01T07:33:24.57Z</time></trkpt><trkpt lat="39.9319633" lon="8.7595833"><ele>52.333333333333336</ele><time>2026-05-01T07:33:25.57Z</time></trkpt><trkpt lat="39.93215" lon="8.7597017"><ele>53.0</ele><time>2026-05-01T07:33:26.567Z</time></trkpt><trkpt lat="39.9323317" lon="8.759815"><ele>53.0</ele><time>2026-05-01T07:33:27.571Z</time></trkpt><trkpt lat="39.9325067" lon="8.7599367"><ele>53.0</ele><time>2026-05-01T07:33:28.573Z</time></trkpt><trkpt lat="39.9326867" lon="8.76005"><ele>53.0</ele><time>2026-05-01T07:33:29.572Z</time></trkpt><trkpt lat="39.93286" lon="8.760185"><ele>55.0</ele><time>2026-05-01T07:33:30.571Z</time></trkpt><trkpt lat="39.93303" lon="8.7603217"><ele>57.0</ele><time>2026-05-01T07:33:31.571Z</time></trkpt><trkpt lat="39.9332017" lon="8.760465"><ele>59.0</ele><time>2026-05-01T07:33:32.572Z</time></trkpt><trkpt lat="39.9333683" lon="8.7606117"><ele>58.333333333333336</ele><time>2026-05-01T07:33:33.575Z</time></trkpt><trkpt lat="39.93354" lon="8.7607583"><ele>57.66666666666667</ele><time>2026-05-01T07:33:34.571Z</time></trkpt><trkpt lat="39.9337017" lon="8.76091"><ele>57.0</ele><time>2026-05-01T07:33:35.573Z</time></trkpt><trkpt lat="39.9338567" lon="8.7610617"><ele>57.33333333333333</ele><time>2026-05-01T07:33:36.572Z</time></trkpt><trkpt lat="39.934015" lon="8.76122"><ele>57.666666666666664</ele><time>2026-05-01T07:33:37.571Z</time></trkpt><trkpt lat="39.93417" lon="8.7613817"><ele>58.0</ele><time>2026-05-01T07:33:38.581Z</time></trkpt><trkpt lat="39.9343233" lon="8.7615517"><ele>58.0</ele><time>2026-05-01T07:33:39.575Z</time></trkpt><trkpt lat="39.93447" lon="8.7617233"><ele>58.0</ele><time>2026-05-01T07:33:40.573Z</time></trkpt><trkpt lat="39.9346067" lon="8.7619067"><ele>58.0</ele><time>2026-05-01T07:33:41.569Z</time></trkpt><trkpt lat="39.9347483" lon="8.762095"><ele>59.0</ele><time>2026-05-01T07:33:42.572Z</time></trkpt><trkpt lat="39.934895" lon="8.76228"><ele>60.0</ele><time>2026-05-01T07:33:43.573Z</time></trkpt><trkpt lat="39.93503" lon="8.7624717"><ele>61.0</ele><time>2026-05-01T07:33:44.584Z</time></trkpt><trkpt lat="39.9351567" lon="8.76266"><ele>62.0</ele><time>2026-05-01T07:33:45.574Z</time></trkpt><trkpt lat="39.9352967" lon="8.762885"><ele>63.0</ele><time>2026-05-01T07:33:46.574Z</time></trkpt><trkpt lat="39.9354133" lon="8.7630717"><ele>64.0</ele><time>2026-05-01T07:33:47.574Z</time></trkpt><trkpt lat="39.935535" lon="8.763265"><ele>64.0</ele><time>2026-05-01T07:33:48.573Z</time></trkpt><trkpt lat="39.9356567" lon="8.7634633"><ele>64.0</ele><time>2026-05-01T07:33:49.572Z</time></trkpt><trkpt lat="39.935775" lon="8.76368"><ele>64.0</ele><time>2026-05-01T07:33:50.587Z</time></trkpt><trkpt lat="39.93589" lon="8.763895"><ele>65.33333333333333</ele><time>2026-05-01T07:33:51.575Z</time></trkpt><trkpt lat="39.935995" lon="8.7640933"><ele>66.66666666666667</ele><time>2026-05-01T07:33:52.572Z</time></trkpt><trkpt lat="39.9360983" lon="8.7642983"><ele>68.0</ele><time>2026-05-01T07:33:53.568Z</time></trkpt><trkpt lat="39.9361967" lon="8.76451"><ele>68.0</ele><time>2026-05-01T07:33:54.569Z</time></trkpt><trkpt lat="39.936295" lon="8.7647233"><ele>68.0</ele><time>2026-05-01T07:33:55.577Z</time></trkpt><trkpt lat="39.9363883" lon="8.7649367"><ele>68.0</ele><time>2026-05-01T07:33:56.572Z</time></trkpt><trkpt lat="39.9364867" lon="8.7651433"><ele>68.66666666666667</ele><time>2026-05-01T07:33:57.572Z</time></trkpt><trkpt lat="39.9365783" lon="8.7653567"><ele>69.33333333333333</ele><time>2026-05-01T07:33:58.572Z</time></trkpt><trkpt lat="39.9366767" lon="8.7655817"><ele>70.0</ele><time>2026-05-01T07:33:59.571Z</time></trkpt><trkpt lat="39.9367733" lon="8.7658083"><ele>71.66666666666666</ele><time>2026-05-01T07:34:00.571Z</time></trkpt><trkpt lat="39.9368633" lon="8.7660433"><ele>73.33333333333333</ele><time>2026-05-01T07:34:01.569Z</time></trkpt><trkpt lat="39.9369467" lon="8.7662717"><ele>75.0</ele><time>2026-05-01T07:34:02.575Z</time></trkpt><trkpt lat="39.9370433" lon="8.7664933"><ele>75.0</ele><time>2026-05-01T07:34:03.569Z</time></trkpt><trkpt lat="39.9371417" lon="8.76672"><ele>75.0</ele><time>2026-05-01T07:34:04.57Z</time></trkpt><trkpt lat="39.9372383" lon="8.7669517"><ele>75.0</ele><time>2026-05-01T07:34:05.574Z</time></trkpt><trkpt lat="39.937335" lon="8.7671867"><ele>76.66666666666667</ele><time>2026-05-01T07:34:06.573Z</time></trkpt><trkpt lat="39.9374283" lon="8.76742"><ele>78.33333333333334</ele><time>2026-05-01T07:34:07.574Z</time></trkpt><trkpt lat="39.9375383" lon="8.767645"><ele>80.0</ele><time>2026-05-01T07:34:08.586Z</time></trkpt><trkpt lat="39.93765" lon="8.767865"><ele>81.66666666666667</ele><time>2026-05-01T07:34:09.574Z</time></trkpt><trkpt lat="39.9377567" lon="8.7680833"><ele>83.33333333333333</ele><time>2026-05-01T07:34:10.572Z</time></trkpt><trkpt lat="39.9378617" lon="8.7683117"><ele>85.0</ele><time>2026-05-01T07:34:11.572Z</time></trkpt><trkpt lat="39.93798" lon="8.768525"><ele>86.33333333333333</ele><time>2026-05-01T07:34:12.57Z</time></trkpt><trkpt lat="39.9380983" lon="8.76874"><ele>87.66666666666667</ele><time>2026-05-01T07:34:13.574Z</time></trkpt><trkpt lat="39.9382217" lon="8.7689483"><ele>89.0</ele><time>2026-05-01T07:34:14.582Z</time></trkpt><trkpt lat="39.9383533" lon="8.7691433"><ele>88.66666666666667</ele><time>2026-05-01T07:34:15.572Z</time></trkpt><trkpt lat="39.9384933" lon="8.76933"><ele>88.33333333333333</ele><time>2026-05-01T07:34:16.575Z</time></trkpt><trkpt lat="39.938635" lon="8.769515"><ele>88.0</ele><time>2026-05-01T07:34:17.574Z</time></trkpt><trkpt lat="39.9387933" lon="8.7696917"><ele>88.0</ele><time>2026-05-01T07:34:18.568Z</time></trkpt><trkpt lat="39.9389583" lon="8.76985"><ele>88.0</ele><time>2026-05-01T07:34:19.575Z</time></trkpt><trkpt lat="39.9391233" lon="8.7700117"><ele>88.0</ele><time>2026-05-01T07:34:20.586Z</time></trkpt><trkpt lat="39.93929" lon="8.770175"><ele>90.0</ele><time>2026-05-01T07:34:21.571Z</time></trkpt><trkpt lat="39.9394583" lon="8.7703167"><ele>92.0</ele><time>2026-05-01T07:34:22.57Z</time></trkpt><trkpt lat="39.93963" lon="8.7704517"><ele>94.0</ele><time>2026-05-01T07:34:23.574Z</time></trkpt><trkpt lat="39.9398217" lon="8.7705933"><ele>94.0</ele><time>2026-05-01T07:34:24.572Z</time></trkpt><trkpt lat="39.940005" lon="8.7707083"><ele>94.0</ele><time>2026-05-01T07:34:25.575Z</time></trkpt><trkpt lat="39.9401983" lon="8.7708383"><ele>94.0</ele><time>2026-05-01T07:34:26.572Z</time></trkpt><trkpt lat="39.9403967" lon="8.7709767"><ele>94.66666666666666</ele><time>2026-05-01T07:34:27.574Z</time></trkpt><trkpt lat="39.9405933" lon="8.7711117"><ele>95.33333333333333</ele><time>2026-05-01T07:34:28.574Z</time></trkpt><trkpt lat="39.9407917" lon="8.77125"><ele>96.0</ele><time>2026-05-01T07:34:29.569Z</time></trkpt><trkpt lat="39.940995" lon="8.7713967"><ele>96.0</ele><time>2026-05-01T07:34:30.571Z</time></trkpt><trkpt lat="39.9411683" lon="8.77156"><ele>96.0</ele><time>2026-05-01T07:34:31.572Z</time></trkpt><trkpt lat="39.9413333" lon="8.7717417"><ele>96.0</ele><time>2026-05-01T07:34:32.569Z</time></trkpt><trkpt lat="39.94149" lon="8.7719333"><ele>96.0</ele><time>2026-05-01T07:34:33.57Z</time></trkpt><trkpt lat="39.9416467" lon="8.7721283"><ele>96.0</ele><time>2026-05-01T07:34:34.572Z</time></trkpt><trkpt lat="39.9417867" lon="8.772335"><ele>96.0</ele><time>2026-05-01T07:34:35.571Z</time></trkpt><trkpt lat="39.94192" lon="8.7725467"><ele>96.66666666666666</ele><time>2026-05-01T07:34:36.568Z</time></trkpt><trkpt lat="39.9420433" lon="8.77277"><ele>97.33333333333333</ele><time>2026-05-01T07:34:37.57Z</time></trkpt><trkpt lat="39.9421617" lon="8.7730117"><ele>98.0</ele><time>2026-05-01T07:34:38.591Z</time></trkpt><trkpt lat="39.9422767" lon="8.7732583"><ele>98.5</ele><time>2026-05-01T07:34:39.569Z</time></trkpt><trkpt lat="39.9423683" lon="8.7735283"><ele>99.0</ele><time>2026-05-01T07:34:40.571Z</time></trkpt><trkpt lat="39.9424533" lon="8.77381"><ele>98.5</ele><time>2026-05-01T07:34:41.575Z</time></trkpt><trkpt lat="39.9425533" lon="8.7740833"><ele>98.0</ele><time>2026-05-01T07:34:42.573Z</time></trkpt><trkpt lat="39.9426467" lon="8.774345"><ele>98.33333333333333</ele><time>2026-05-01T07:34:43.57Z</time></trkpt><trkpt lat="39.942725" lon="8.7745983"><ele>98.66666666666666</ele><time>2026-05-01T07:34:44.591Z</time></trkpt><trkpt lat="39.9428017" lon="8.77484"><ele>99.0</ele><time>2026-05-01T07:34:45.57Z</time></trkpt><trkpt lat="39.9428783" lon="8.77506"><ele>99.33333333333334</ele><time>2026-05-01T07:34:46.57Z</time></trkpt><trkpt lat="39.942955" lon="8.7752833"><ele>99.66666666666667</ele><time>2026-05-01T07:34:47.574Z</time></trkpt><trkpt lat="39.943035" lon="8.775485"><ele>100.0</ele><time>2026-05-01T07:34:48.572Z</time></trkpt><trkpt lat="39.9431333" lon="8.7756883"><ele>100.0</ele><time>2026-05-01T07:34:49.573Z</time></trkpt><trkpt lat="39.94324" lon="8.7758933"><ele>100.0</ele><time>2026-05-01T07:34:50.597Z</time></trkpt><trkpt lat="39.94337" lon="8.7760767"><ele>100.0</ele><time>2026-05-01T07:34:51.568Z</time></trkpt><trkpt lat="39.9434917" lon="8.77627"><ele>100.33333333333334</ele><time>2026-05-01T07:34:52.573Z</time></trkpt><trkpt lat="39.943645" lon="8.7764367"><ele>100.66666666666666</ele><time>2026-05-01T07:34:53.574Z</time></trkpt><trkpt lat="39.9437933" lon="8.7766083"><ele>101.0</ele><time>2026-05-01T07:34:54.569Z</time></trkpt><trkpt lat="39.9439467" lon="8.7767817"><ele>101.33333333333333</ele><time>2026-05-01T07:34:55.569Z</time></trkpt><trkpt lat="39.944095" lon="8.7769517"><ele>101.66666666666666</ele><time>2026-05-01T07:34:56.636Z</time></trkpt><trkpt lat="39.9442467" lon="8.777115"><ele>102.0</ele><time>2026-05-01T07:34:57.57Z</time></trkpt><trkpt lat="39.9444067" lon="8.7772767"><ele>102.0</ele><time>2026-05-01T07:34:58.569Z</time></trkpt><trkpt lat="39.94456" lon="8.7774517"><ele>102.0</ele><time>2026-05-01T07:34:59.57Z</time></trkpt><trkpt lat="39.9447217" lon="8.7776333"><ele>102.0</ele><time>2026-05-01T07:35:00.573Z</time></trkpt><trkpt lat="39.94486" lon="8.777825"><ele>102.0</ele><time>2026-05-01T07:35:01.574Z</time></trkpt><trkpt lat="39.945005" lon="8.77802"><ele>102.0</ele><time>2026-05-01T07:35:02.568Z</time></trkpt><trkpt lat="39.945125" lon="8.7782383"><ele>102.0</ele><time>2026-05-01T07:35:03.573Z</time></trkpt><trkpt lat="39.9452417" lon="8.7784433"><ele>102.66666666666666</ele><time>2026-05-01T07:35:04.572Z</time></trkpt><trkpt lat="39.9453433" lon="8.7786467"><ele>103.33333333333333</ele><time>2026-05-01T07:35:05.57Z</time></trkpt><trkpt lat="39.9454267" lon="8.778855"><ele>104.0</ele><time>2026-05-01T07:35:06.569Z</time></trkpt><trkpt lat="39.9455167" lon="8.779065"><ele>104.0</ele><time>2026-05-01T07:35:07.574Z</time></trkpt><trkpt lat="39.9455933" lon="8.7792583"><ele>104.0</ele><time>2026-05-01T07:35:08.596Z</time></trkpt><trkpt lat="39.9456667" lon="8.7794767"><ele>104.0</ele><time>2026-05-01T07:35:09.573Z</time></trkpt><trkpt lat="39.9457317" lon="8.77967"><ele>105.66666666666666</ele><time>2026-05-01T07:35:10.574Z</time></trkpt><trkpt lat="39.94579" lon="8.77986"><ele>107.33333333333334</ele><time>2026-05-01T07:35:11.568Z</time></trkpt><trkpt lat="39.94584" lon="8.78004"><ele>109.0</ele><time>2026-05-01T07:35:12.571Z</time></trkpt><trkpt lat="39.9459033" lon="8.780225"><ele>110.0</ele><time>2026-05-01T07:35:13.573Z</time></trkpt><trkpt lat="39.94595" lon="8.7803933"><ele>111.0</ele><time>2026-05-01T07:35:14.593Z</time></trkpt><trkpt lat="39.946" lon="8.7805567"><ele>112.0</ele><time>2026-05-01T07:35:15.57Z</time></trkpt><trkpt lat="39.9460583" lon="8.7807033"><ele>113.0</ele><time>2026-05-01T07:35:16.572Z</time></trkpt><trkpt lat="39.9461333" lon="8.7808483"><ele>113.0</ele><time>2026-05-01T07:35:17.573Z</time></trkpt><trkpt lat="39.9462033" lon="8.7810033"><ele>113.0</ele><time>2026-05-01T07:35:18.573Z</time></trkpt><trkpt lat="39.94629" lon="8.7811467"><ele>113.0</ele><time>2026-05-01T07:35:19.572Z</time></trkpt><trkpt lat="39.9463833" lon="8.7813"><ele>113.0</ele><time>2026-05-01T07:35:20.596Z</time></trkpt><trkpt lat="39.9464783" lon="8.7814617"><ele>113.75</ele><time>2026-05-01T07:35:21.569Z</time></trkpt><trkpt lat="39.9465917" lon="8.7815817"><ele>114.5</ele><time>2026-05-01T07:35:22.571Z</time></trkpt><trkpt lat="39.946705" lon="8.7817067"><ele>115.25</ele><time>2026-05-01T07:35:23.573Z</time></trkpt><trkpt lat="39.9468183" lon="8.78184"><ele>116.0</ele><time>2026-05-01T07:35:24.571Z</time></trkpt><trkpt lat="39.9469283" lon="8.7819617"><ele>119.66666666666666</ele><time>2026-05-01T07:35:25.571Z</time></trkpt><trkpt lat="39.9470617" lon="8.7820767"><ele>123.33333333333334</ele><time>2026-05-01T07:35:26.641Z</time></trkpt><trkpt lat="39.9472067" lon="8.7821717"><ele>127.0</ele><time>2026-05-01T07:35:27.571Z</time></trkpt><trkpt lat="39.9473467" lon="8.7822683"><ele>127.0</ele><time>2026-05-01T07:35:28.573Z</time></trkpt><trkpt lat="39.9475083" lon="8.78235"><ele>127.0</ele><time>2026-05-01T07:35:29.575Z</time></trkpt><trkpt lat="39.94766" lon="8.782435"><ele>127.0</ele><time>2026-05-01T07:35:30.571Z</time></trkpt><trkpt lat="39.9478183" lon="8.782515"><ele>125.33333333333334</ele><time>2026-05-01T07:35:31.569Z</time></trkpt><trkpt lat="39.9479567" lon="8.7825917"><ele>123.66666666666666</ele><time>2026-05-01T07:35:32.572Z</time></trkpt><trkpt lat="39.948105" lon="8.7826667"><ele>122.0</ele><time>2026-05-01T07:35:33.573Z</time></trkpt><trkpt lat="39.9482417" lon="8.782745"><ele>122.33333333333333</ele><time>2026-05-01T07:35:34.574Z</time></trkpt><trkpt lat="39.948385" lon="8.7828383"><ele>122.66666666666666</ele><time>2026-05-01T07:35:35.568Z</time></trkpt><trkpt lat="39.9485233" lon="8.7829317"><ele>123.0</ele><time>2026-05-01T07:35:36.572Z</time></trkpt><trkpt lat="39.9486583" lon="8.7830283"><ele>123.0</ele><time>2026-05-01T07:35:37.573Z</time></trkpt><trkpt lat="39.9487883" lon="8.78314"><ele>123.0</ele><time>2026-05-01T07:35:38.596Z</time></trkpt><trkpt lat="39.9489217" lon="8.78325"><ele>123.0</ele><time>2026-05-01T07:35:39.571Z</time></trkpt><trkpt lat="39.949025" lon="8.783375"><ele>123.0</ele><time>2026-05-01T07:35:40.573Z</time></trkpt><trkpt lat="39.9491517" lon="8.7835067"><ele>123.0</ele><time>2026-05-01T07:35:41.571Z</time></trkpt><trkpt lat="39.949275" lon="8.7836517"><ele>123.0</ele><time>2026-05-01T07:35:42.573Z</time></trkpt><trkpt lat="39.9494017" lon="8.783795"><ele>124.33333333333334</ele><time>2026-05-01T07:35:43.571Z</time></trkpt><trkpt lat="39.9495267" lon="8.783945"><ele>125.66666666666667</ele><time>2026-05-01T07:35:44.595Z</time></trkpt><trkpt lat="39.9496533" lon="8.7840983"><ele>127.0</ele><time>2026-05-01T07:35:45.573Z</time></trkpt><trkpt lat="39.9497717" lon="8.7842533"><ele>129.0</ele><time>2026-05-01T07:35:46.57Z</time></trkpt><trkpt lat="39.9499" lon="8.7844133"><ele>131.0</ele><time>2026-05-01T07:35:47.568Z</time></trkpt><trkpt lat="39.9500367" lon="8.784585"><ele>133.0</ele><time>2026-05-01T07:35:48.574Z</time></trkpt><trkpt lat="39.9501733" lon="8.7847667"><ele>133.0</ele><time>2026-05-01T07:35:49.573Z</time></trkpt><trkpt lat="39.9502883" lon="8.7849883"><ele>133.0</ele><time>2026-05-01T07:35:50.597Z</time></trkpt><trkpt lat="39.950405" lon="8.7852117"><ele>133.0</ele><time>2026-05-01T07:35:51.568Z</time></trkpt><trkpt lat="39.9505217" lon="8.7854217"><ele>133.33333333333334</ele><time>2026-05-01T07:35:52.569Z</time></trkpt><trkpt lat="39.9506467" lon="8.7856483"><ele>133.66666666666666</ele><time>2026-05-01T07:35:53.573Z</time></trkpt><trkpt lat="39.9507767" lon="8.78588"><ele>134.0</ele><time>2026-05-01T07:35:54.57Z</time></trkpt><trkpt lat="39.950905" lon="8.7861017"><ele>134.0</ele><time>2026-05-01T07:35:55.573Z</time></trkpt><trkpt lat="39.95105" lon="8.786305"><ele>134.0</ele><time>2026-05-01T07:35:56.573Z</time></trkpt><trkpt lat="39.9511733" lon="8.7865167"><ele>134.0</ele><time>2026-05-01T07:35:57.573Z</time></trkpt><trkpt lat="39.95131" lon="8.78672"><ele>135.66666666666666</ele><time>2026-05-01T07:35:58.573Z</time></trkpt><trkpt lat="39.951435" lon="8.786935"><ele>137.33333333333334</ele><time>2026-05-01T07:35:59.57Z</time></trkpt><trkpt lat="39.951555" lon="8.787155"><ele>139.0</ele><time>2026-05-01T07:36:00.57Z</time></trkpt><trkpt lat="39.9516683" lon="8.787355"><ele>140.66666666666669</ele><time>2026-05-01T07:36:01.57Z</time></trkpt><trkpt lat="39.95177" lon="8.7875767"><ele>142.33333333333334</ele><time>2026-05-01T07:36:02.572Z</time></trkpt><trkpt lat="39.9518617" lon="8.78782"><ele>144.0</ele><time>2026-05-01T07:36:03.568Z</time></trkpt><trkpt lat="39.9519417" lon="8.7880517"><ele>144.0</ele><time>2026-05-01T07:36:04.573Z</time></trkpt><trkpt lat="39.952025" lon="8.7882867"><ele>144.0</ele><time>2026-05-01T07:36:05.572Z</time></trkpt><trkpt lat="39.95211" lon="8.7885183"><ele>144.0</ele><time>2026-05-01T07:36:06.573Z</time></trkpt><trkpt lat="39.952205" lon="8.7887433"><ele>146.33333333333334</ele><time>2026-05-01T07:36:07.569Z</time></trkpt><trkpt lat="39.9522933" lon="8.7889667"><ele>148.66666666666669</ele><time>2026-05-01T07:36:08.595Z</time></trkpt><trkpt lat="39.952395" lon="8.789185"><ele>151.0</ele><time>2026-05-01T07:36:09.575Z</time></trkpt><trkpt lat="39.9524883" lon="8.7894067"><ele>150.0</ele><time>2026-05-01T07:36:10.573Z</time></trkpt><trkpt lat="39.9525683" lon="8.7896433"><ele>149.0</ele><time>2026-05-01T07:36:11.571Z</time></trkpt><trkpt lat="39.9526517" lon="8.7898733"><ele>148.0</ele><time>2026-05-01T07:36:12.576Z</time></trkpt><trkpt lat="39.952755" lon="8.79009"><ele>151.0</ele><time>2026-05-01T07:36:13.572Z</time></trkpt><trkpt lat="39.952835" lon="8.79033"><ele>154.0</ele><time>2026-05-01T07:36:14.595Z</time></trkpt><trkpt lat="39.9529383" lon="8.7905517"><ele>157.0</ele><time>2026-05-01T07:36:15.567Z</time></trkpt><trkpt lat="39.9530383" lon="8.79078"><ele>156.33333333333334</ele><time>2026-05-01T07:36:16.569Z</time></trkpt><trkpt lat="39.953145" lon="8.7910117"><ele>155.66666666666666</ele><time>2026-05-01T07:36:17.574Z</time></trkpt><trkpt lat="39.953255" lon="8.791215"><ele>155.0</ele><time>2026-05-01T07:36:18.568Z</time></trkpt><trkpt lat="39.9533767" lon="8.7914283"><ele>155.0</ele><time>2026-05-01T07:36:19.574Z</time></trkpt><trkpt lat="39.9535217" lon="8.7916117"><ele>155.0</ele><time>2026-05-01T07:36:20.598Z</time></trkpt><trkpt lat="39.95367" lon="8.79181"><ele>155.0</ele><time>2026-05-01T07:36:21.57Z</time></trkpt><trkpt lat="39.95382" lon="8.7919817"><ele>159.0</ele><time>2026-05-01T07:36:22.575Z</time></trkpt><trkpt lat="39.9539733" lon="8.7921533"><ele>163.0</ele><time>2026-05-01T07:36:23.574Z</time></trkpt><trkpt lat="39.9541217" lon="8.7923367"><ele>167.0</ele><time>2026-05-01T07:36:24.57Z</time></trkpt><trkpt lat="39.954275" lon="8.79251"><ele>170.66666666666666</ele><time>2026-05-01T07:36:25.573Z</time></trkpt><trkpt lat="39.95442" lon="8.792695"><ele>174.33333333333334</ele><time>2026-05-01T07:36:26.569Z</time></trkpt><trkpt lat="39.95457" lon="8.7928667"><ele>178.0</ele><time>2026-05-01T07:36:27.568Z</time></trkpt><trkpt lat="39.954725" lon="8.7930333"><ele>178.0</ele><time>2026-05-01T07:36:28.568Z</time></trkpt><trkpt lat="39.9548583" lon="8.793215"><ele>178.0</ele><time>2026-05-01T07:36:29.572Z</time></trkpt><trkpt lat="39.9549967" lon="8.79341"><ele>178.0</ele><time>2026-05-01T07:36:30.572Z</time></trkpt><trkpt lat="39.9551183" lon="8.79362"><ele>179.0</ele><time>2026-05-01T07:36:31.568Z</time></trkpt><trkpt lat="39.9552317" lon="8.7938183"><ele>180.0</ele><time>2026-05-01T07:36:32.574Z</time></trkpt><trkpt lat="39.955345" lon="8.7940283"><ele>181.0</ele><time>2026-05-01T07:36:33.572Z</time></trkpt><trkpt lat="39.9554367" lon="8.79427"><ele>183.66666666666669</ele><time>2026-05-01T07:36:34.574Z</time></trkpt><trkpt lat="39.9555267" lon="8.7944967"><ele>186.33333333333334</ele><time>2026-05-01T07:36:35.569Z</time></trkpt><trkpt lat="39.95561" lon="8.79473"><ele>189.0</ele><time>2026-05-01T07:36:36.573Z</time></trkpt><trkpt lat="39.9556817" lon="8.7949767"><ele>189.33333333333334</ele><time>2026-05-01T07:36:37.574Z</time></trkpt><trkpt lat="39.9557467" lon="8.79523"><ele>189.66666666666669</ele><time>2026-05-01T07:36:38.592Z</time></trkpt><trkpt lat="39.9558233" lon="8.795475"><ele>190.0</ele><time>2026-05-01T07:36:39.571Z</time></trkpt><trkpt lat="39.9559133" lon="8.7957167"><ele>190.0</ele><time>2026-05-01T07:36:40.574Z</time></trkpt><trkpt lat="39.9560083" lon="8.7959583"><ele>190.0</ele><time>2026-05-01T07:36:41.573Z</time></trkpt><trkpt lat="39.9561" lon="8.7962033"><ele>190.0</ele><time>2026-05-01T07:36:42.57Z</time></trkpt><trkpt lat="39.9562033" lon="8.7964417"><ele>192.33333333333334</ele><time>2026-05-01T07:36:43.572Z</time></trkpt><trkpt lat="39.9563083" lon="8.796675"><ele>194.66666666666669</ele><time>2026-05-01T07:36:44.596Z</time></trkpt><trkpt lat="39.9564083" lon="8.7969183"><ele>197.0</ele><time>2026-05-01T07:36:45.573Z</time></trkpt><trkpt lat="39.9565367" lon="8.797125"><ele>201.33333333333334</ele><time>2026-05-01T07:36:46.574Z</time></trkpt><trkpt lat="39.956655" lon="8.7973467"><ele>205.66666666666669</ele><time>2026-05-01T07:36:47.575Z</time></trkpt><trkpt lat="39.956775" lon="8.7975733"><ele>210.0</ele><time>2026-05-01T07:36:48.568Z</time></trkpt><trkpt lat="39.9568917" lon="8.7977933"><ele>223.66666666666669</ele><time>2026-05-01T07:36:49.571Z</time></trkpt><trkpt lat="39.9570117" lon="8.7980117"><ele>237.33333333333334</ele><time>2026-05-01T07:36:50.594Z</time></trkpt><trkpt lat="39.9571383" lon="8.7982333"><ele>251.0</ele><time>2026-05-01T07:36:51.572Z</time></trkpt><trkpt lat="39.9572583" lon="8.7984633"><ele>249.66666666666669</ele><time>2026-05-01T07:36:52.565Z</time></trkpt><trkpt lat="39.957375" lon="8.7986883"><ele>248.33333333333331</ele><time>2026-05-01T07:36:53.567Z</time></trkpt><trkpt lat="39.9574867" lon="8.798925"><ele>247.0</ele><time>2026-05-01T07:36:54.571Z</time></trkpt><trkpt lat="39.9575967" lon="8.7991667"><ele>250.0</ele><time>2026-05-01T07:36:55.568Z</time></trkpt><trkpt lat="39.957705" lon="8.799405"><ele>253.0</ele><time>2026-05-01T07:36:56.567Z</time></trkpt><trkpt lat="39.9612933" lon="8.8013083"><ele>228.66666666666666</ele><time>2026-05-01T07:37:11.572Z</time></trkpt><trkpt lat="39.9614583" lon="8.8014767"><ele>204.33333333333331</ele><time>2026-05-01T07:37:12.567Z</time></trkpt><trkpt lat="39.9615917" lon="8.8016683"><ele>180.0</ele><time>2026-05-01T07:37:13.571Z</time></trkpt><trkpt lat="39.9617117" lon="8.8018517"><ele>179.66666666666666</ele><time>2026-05-01T07:37:14.597Z</time></trkpt><trkpt lat="39.961825" lon="8.802045"><ele>179.33333333333331</ele><time>2026-05-01T07:37:15.571Z</time></trkpt><trkpt lat="39.9619317" lon="8.80226"><ele>179.0</ele><time>2026-05-01T07:37:16.573Z</time></trkpt><trkpt lat="39.9620283" lon="8.8024717"><ele>176.33333333333331</ele><time>2026-05-01T07:37:17.568Z</time></trkpt><trkpt lat="39.9621233" lon="8.8026983"><ele>173.66666666666666</ele><time>2026-05-01T07:37:18.573Z</time></trkpt><trkpt lat="39.9622117" lon="8.8029317"><ele>171.0</ele><time>2026-05-01T07:37:19.573Z</time></trkpt><trkpt lat="39.9623117" lon="8.803175"><ele>171.0</ele><time>2026-05-01T07:37:20.595Z</time></trkpt><trkpt lat="39.9624" lon="8.8034217"><ele>171.0</ele><time>2026-05-01T07:37:21.571Z</time></trkpt><trkpt lat="39.9624783" lon="8.8036733"><ele>171.0</ele><time>2026-05-01T07:37:22.572Z</time></trkpt><trkpt lat="39.96255" lon="8.8039283"><ele>170.66666666666666</ele><time>2026-05-01T07:37:23.569Z</time></trkpt><trkpt lat="39.962615" lon="8.804185"><ele>170.33333333333331</ele><time>2026-05-01T07:37:24.573Z</time></trkpt><trkpt lat="39.9626767" lon="8.8044433"><ele>170.0</ele><time>2026-05-01T07:37:25.573Z</time></trkpt><trkpt lat="39.9627383" lon="8.8046967"><ele>170.0</ele><time>2026-05-01T07:37:26.634Z</time></trkpt><trkpt lat="39.9627967" lon="8.8049433"><ele>170.0</ele><time>2026-05-01T07:37:27.575Z</time></trkpt><trkpt lat="39.9628533" lon="8.80518"><ele>170.0</ele><time>2026-05-01T07:37:28.569Z</time></trkpt><trkpt lat="39.9629067" lon="8.80541"><ele>165.66666666666666</ele><time>2026-05-01T07:37:29.573Z</time></trkpt><trkpt lat="39.9629583" lon="8.8056333"><ele>161.33333333333334</ele><time>2026-05-01T07:37:30.57Z</time></trkpt><trkpt lat="39.9630067" lon="8.8058517"><ele>157.0</ele><time>2026-05-01T07:37:31.571Z</time></trkpt><trkpt lat="39.9630517" lon="8.80607"><ele>156.33333333333334</ele><time>2026-05-01T07:37:32.569Z</time></trkpt><trkpt lat="39.9631" lon="8.8062833"><ele>155.66666666666666</ele><time>2026-05-01T07:37:33.575Z</time></trkpt><trkpt lat="39.9631567" lon="8.80649"><ele>155.0</ele><time>2026-05-01T07:37:34.574Z</time></trkpt><trkpt lat="39.9632117" lon="8.8066967"><ele>153.33333333333331</ele><time>2026-05-01T07:37:35.574Z</time></trkpt><trkpt lat="39.9632667" lon="8.806905"><ele>151.66666666666666</ele><time>2026-05-01T07:37:36.573Z</time></trkpt><trkpt lat="39.9633283" lon="8.8071117"><ele>150.0</ele><time>2026-05-01T07:37:37.573Z</time></trkpt><trkpt lat="39.963395" lon="8.80732"><ele>150.0</ele><time>2026-05-01T07:37:38.597Z</time></trkpt><trkpt lat="39.9634717" lon="8.80753"><ele>150.0</ele><time>2026-05-01T07:37:39.572Z</time></trkpt><trkpt lat="39.9635517" lon="8.8077433"><ele>150.0</ele><time>2026-05-01T07:37:40.572Z</time></trkpt><trkpt lat="39.963635" lon="8.8079717"><ele>150.0</ele><time>2026-05-01T07:37:41.57Z</time></trkpt><trkpt lat="39.9637317" lon="8.8081867"><ele>150.0</ele><time>2026-05-01T07:37:42.57Z</time></trkpt><trkpt lat="39.9638267" lon="8.8083933"><ele>150.0</ele><time>2026-05-01T07:37:43.572Z</time></trkpt><trkpt lat="39.9639283" lon="8.8086083"><ele>145.66666666666666</ele><time>2026-05-01T07:37:44.596Z</time></trkpt><trkpt lat="39.9640367" lon="8.80882"><ele>141.33333333333331</ele><time>2026-05-01T07:37:45.572Z</time></trkpt><trkpt lat="39.96414" lon="8.80904"><ele>137.0</ele><time>2026-05-01T07:37:46.571Z</time></trkpt><trkpt lat="39.9642433" lon="8.8092667"><ele>136.0</ele><time>2026-05-01T07:37:47.569Z</time></trkpt><trkpt lat="39.9643433" lon="8.8094883"><ele>135.0</ele><time>2026-05-01T07:37:48.573Z</time></trkpt><trkpt lat="39.9644533" lon="8.809695"><ele>134.0</ele><time>2026-05-01T07:37:49.573Z</time></trkpt><trkpt lat="39.9645533" lon="8.8099083"><ele>134.0</ele><time>2026-05-01T07:37:50.596Z</time></trkpt><trkpt lat="39.9646567" lon="8.81011"><ele>134.0</ele><time>2026-05-01T07:37:51.572Z</time></trkpt><trkpt lat="39.964755" lon="8.8103183"><ele>134.0</ele><time>2026-05-01T07:37:52.568Z</time></trkpt><trkpt lat="39.9648567" lon="8.8105217"><ele>134.66666666666666</ele><time>2026-05-01T07:37:53.573Z</time></trkpt><trkpt lat="39.964955" lon="8.8107333"><ele>135.33333333333334</ele><time>2026-05-01T07:37:54.568Z</time></trkpt><trkpt lat="39.96505" lon="8.8109483"><ele>136.0</ele><time>2026-05-01T07:37:55.57Z</time></trkpt><trkpt lat="39.9651433" lon="8.8111467"><ele>130.0</ele><time>2026-05-01T07:37:56.573Z</time></trkpt><trkpt lat="39.965245" lon="8.8113517"><ele>124.0</ele><time>2026-05-01T07:37:57.572Z</time></trkpt><trkpt lat="39.9653483" lon="8.8115617"><ele>118.0</ele><time>2026-05-01T07:37:58.573Z</time></trkpt><trkpt lat="39.96545" lon="8.8117767"><ele>115.0</ele><time>2026-05-01T07:37:59.574Z</time></trkpt><trkpt lat="39.9655517" lon="8.8119817"><ele>112.0</ele><time>2026-05-01T07:38:00.571Z</time></trkpt><trkpt lat="39.96565" lon="8.8122"><ele>109.0</ele><time>2026-05-01T07:38:01.573Z</time></trkpt><trkpt lat="39.96574" lon="8.8124333"><ele>107.33333333333334</ele><time>2026-05-01T07:38:02.575Z</time></trkpt><trkpt lat="39.9658233" lon="8.8126767"><ele>105.66666666666666</ele><time>2026-05-01T07:38:03.572Z</time></trkpt><trkpt lat="39.9659033" lon="8.8129167"><ele>104.0</ele><time>2026-05-01T07:38:04.57Z</time></trkpt><trkpt lat="39.9659733" lon="8.8131483"><ele>104.0</ele><time>2026-05-01T07:38:05.572Z</time></trkpt><trkpt lat="39.9660283" lon="8.8133917"><ele>104.0</ele><time>2026-05-01T07:38:06.57Z</time></trkpt><trkpt lat="39.9660733" lon="8.81364"><ele>104.0</ele><time>2026-05-01T07:38:07.575Z</time></trkpt><trkpt lat="39.9661417" lon="8.8139067"><ele>106.33333333333333</ele><time>2026-05-01T07:38:08.593Z</time></trkpt><trkpt lat="39.96616" lon="8.814175"><ele>108.66666666666666</ele><time>2026-05-01T07:38:09.57Z</time></trkpt><trkpt lat="39.9661567" lon="8.8144467"><ele>111.0</ele><time>2026-05-01T07:38:10.569Z</time></trkpt><trkpt lat="39.9661433" lon="8.8147183"><ele>114.0</ele><time>2026-05-01T07:38:11.569Z</time></trkpt><trkpt lat="39.96613" lon="8.8149867"><ele>117.0</ele><time>2026-05-01T07:38:12.573Z</time></trkpt><trkpt lat="39.96609" lon="8.8152667"><ele>120.0</ele><time>2026-05-01T07:38:13.573Z</time></trkpt><trkpt lat="39.9660267" lon="8.815565"><ele>121.33333333333334</ele><time>2026-05-01T07:38:14.594Z</time></trkpt><trkpt lat="39.9659417" lon="8.815845"><ele>122.66666666666667</ele><time>2026-05-01T07:38:15.575Z</time></trkpt><trkpt lat="39.9658667" lon="8.81611"><ele>124.0</ele><time>2026-05-01T07:38:16.571Z</time></trkpt><trkpt lat="39.9657933" lon="8.816365"><ele>122.66666666666667</ele><time>2026-05-01T07:38:17.569Z</time></trkpt><trkpt lat="39.96571" lon="8.8166233"><ele>121.33333333333334</ele><time>2026-05-01T07:38:18.572Z</time></trkpt><trkpt lat="39.9656183" lon="8.816875"><ele>120.0</ele><time>2026-05-01T07:38:19.575Z</time></trkpt><trkpt lat="39.9655183" lon="8.8171167"><ele>120.0</ele><time>2026-05-01T07:38:20.597Z</time></trkpt><trkpt lat="39.965435" lon="8.8173633"><ele>120.0</ele><time>2026-05-01T07:38:21.573Z</time></trkpt><trkpt lat="39.96534" lon="8.81761"><ele>120.0</ele><time>2026-05-01T07:38:22.573Z</time></trkpt><trkpt lat="39.965255" lon="8.8178533"><ele>122.0</ele><time>2026-05-01T07:38:23.572Z</time></trkpt><trkpt lat="39.9651683" lon="8.81809"><ele>124.0</ele><time>2026-05-01T07:38:24.575Z</time></trkpt><trkpt lat="39.96508" lon="8.8183367"><ele>126.0</ele><time>2026-05-01T07:38:25.572Z</time></trkpt><trkpt lat="39.9649967" lon="8.818585"><ele>126.0</ele><time>2026-05-01T07:38:26.573Z</time></trkpt><trkpt lat="39.9649117" lon="8.8188367"><ele>126.0</ele><time>2026-05-01T07:38:27.574Z</time></trkpt><trkpt lat="39.96483" lon="8.819095"><ele>126.0</ele><time>2026-05-01T07:38:28.57Z</time></trkpt><trkpt lat="39.9647417" lon="8.819355"><ele>128.0</ele><time>2026-05-01T07:38:29.571Z</time></trkpt><trkpt lat="39.9646583" lon="8.81962"><ele>130.0</ele><time>2026-05-01T07:38:30.574Z</time></trkpt><trkpt lat="39.9645767" lon="8.8198817"><ele>132.0</ele><time>2026-05-01T07:38:31.572Z</time></trkpt><trkpt lat="39.9645" lon="8.8201533"><ele>135.0</ele><time>2026-05-01T07:38:32.572Z</time></trkpt><trkpt lat="39.9644283" lon="8.8204283"><ele>138.0</ele><time>2026-05-01T07:38:33.572Z</time></trkpt><trkpt lat="39.964365" lon="8.8207017"><ele>141.0</ele><time>2026-05-01T07:38:34.574Z</time></trkpt><trkpt lat="39.9643133" lon="8.8209883"><ele>143.0</ele><time>2026-05-01T07:38:35.569Z</time></trkpt><trkpt lat="39.9642517" lon="8.8212783"><ele>145.0</ele><time>2026-05-01T07:38:36.573Z</time></trkpt><trkpt lat="39.9642" lon="8.8215633"><ele>144.5</ele><time>2026-05-01T07:38:37.571Z</time></trkpt><trkpt lat="39.9641467" lon="8.8218517"><ele>144.0</ele><time>2026-05-01T07:38:38.594Z</time></trkpt><trkpt lat="39.9640867" lon="8.8221333"><ele>144.0</ele><time>2026-05-01T07:38:39.571Z</time></trkpt><trkpt lat="39.964025" lon="8.8224183"><ele>144.0</ele><time>2026-05-01T07:38:40.569Z</time></trkpt><trkpt lat="39.9639683" lon="8.8226983"><ele>144.0</ele><time>2026-05-01T07:38:41.572Z</time></trkpt><trkpt lat="39.963915" lon="8.82298"><ele>147.0</ele><time>2026-05-01T07:38:42.571Z</time></trkpt><trkpt lat="39.9638667" lon="8.8232533"><ele>150.0</ele><time>2026-05-01T07:38:43.573Z</time></trkpt><trkpt lat="39.96383" lon="8.8235267"><ele>153.0</ele><time>2026-05-01T07:38:44.596Z</time></trkpt><trkpt lat="39.9637883" lon="8.8237933"><ele>154.0</ele><time>2026-05-01T07:38:45.572Z</time></trkpt><trkpt lat="39.9637417" lon="8.824055"><ele>155.0</ele><time>2026-05-01T07:38:46.571Z</time></trkpt><trkpt lat="39.9636883" lon="8.8243317"><ele>156.0</ele><time>2026-05-01T07:38:47.569Z</time></trkpt><trkpt lat="39.9636383" lon="8.8246067"><ele>153.66666666666666</ele><time>2026-05-01T07:38:48.573Z</time></trkpt><trkpt lat="39.9635867" lon="8.8248733"><ele>151.33333333333331</ele><time>2026-05-01T07:38:49.576Z</time></trkpt><trkpt lat="39.9635233" lon="8.8251367"><ele>149.0</ele><time>2026-05-01T07:38:50.593Z</time></trkpt><trkpt lat="39.9634583" lon="8.8253967"><ele>149.0</ele><time>2026-05-01T07:38:51.57Z</time></trkpt><trkpt lat="39.9633867" lon="8.8256533"><ele>149.0</ele><time>2026-05-01T07:38:52.573Z</time></trkpt><trkpt lat="39.9633117" lon="8.825915"><ele>149.0</ele><time>2026-05-01T07:38:53.573Z</time></trkpt><trkpt lat="39.9632317" lon="8.8261567"><ele>149.0</ele><time>2026-05-01T07:38:54.569Z</time></trkpt><trkpt lat="39.96315" lon="8.8264033"><ele>149.0</ele><time>2026-05-01T07:38:55.572Z</time></trkpt><trkpt lat="39.963075" lon="8.82665"><ele>149.0</ele><time>2026-05-01T07:38:56.574Z</time></trkpt><trkpt lat="39.9629933" lon="8.82689"><ele>144.0</ele><time>2026-05-01T07:38:57.573Z</time></trkpt><trkpt lat="39.9629" lon="8.8271333"><ele>139.0</ele><time>2026-05-01T07:38:58.574Z</time></trkpt><trkpt lat="39.9628033" lon="8.8273867"><ele>134.0</ele><time>2026-05-01T07:38:59.572Z</time></trkpt><trkpt lat="39.9626983" lon="8.827625"><ele>137.66666666666666</ele><time>2026-05-01T07:39:00.572Z</time></trkpt><trkpt lat="39.9625883" lon="8.8278683"><ele>141.33333333333334</ele><time>2026-05-01T07:39:01.57Z</time></trkpt><trkpt lat="39.962475" lon="8.8280967"><ele>145.0</ele><time>2026-05-01T07:39:02.571Z</time></trkpt><trkpt lat="39.9623533" lon="8.8283217"><ele>155.66666666666669</ele><time>2026-05-01T07:39:03.57Z</time></trkpt><trkpt lat="39.96222" lon="8.8285433"><ele>166.33333333333334</ele><time>2026-05-01T07:39:04.567Z</time></trkpt><trkpt lat="39.96208" lon="8.82876"><ele>177.0</ele><time>2026-05-01T07:39:05.571Z</time></trkpt><trkpt lat="39.9619333" lon="8.8289783"><ele>177.0</ele><time>2026-05-01T07:39:06.573Z</time></trkpt><trkpt lat="39.9617817" lon="8.8291883"><ele>177.0</ele><time>2026-05-01T07:39:07.571Z</time></trkpt><trkpt lat="39.961635" lon="8.8294083"><ele>177.0</ele><time>2026-05-01T07:39:08.601Z</time></trkpt><trkpt lat="39.9614883" lon="8.8296167"><ele>182.66666666666669</ele><time>2026-05-01T07:39:09.573Z</time></trkpt><trkpt lat="39.961335" lon="8.8298383"><ele>188.33333333333334</ele><time>2026-05-01T07:39:10.572Z</time></trkpt><trkpt lat="39.9611883" lon="8.830045"><ele>194.0</ele><time>2026-05-01T07:39:11.568Z</time></trkpt><trkpt lat="39.9610417" lon="8.830245"><ele>194.0</ele><time>2026-05-01T07:39:12.576Z</time></trkpt><trkpt lat="39.9608883" lon="8.8304483"><ele>194.0</ele><time>2026-05-01T07:39:13.57Z</time></trkpt><trkpt lat="39.9607367" lon="8.8306367"><ele>194.0</ele><time>2026-05-01T07:39:14.6Z</time></trkpt><trkpt lat="39.96059" lon="8.8308233"><ele>200.0</ele><time>2026-05-01T07:39:15.569Z</time></trkpt><trkpt lat="39.9604567" lon="8.831015"><ele>206.0</ele><time>2026-05-01T07:39:16.572Z</time></trkpt><trkpt lat="39.960345" lon="8.8312233"><ele>212.0</ele><time>2026-05-01T07:39:17.574Z</time></trkpt><trkpt lat="39.9602567" lon="8.83145"><ele>212.0</ele><time>2026-05-01T07:39:18.571Z</time></trkpt><trkpt lat="39.9601917" lon="8.8316817"><ele>212.0</ele><time>2026-05-01T07:39:19.573Z</time></trkpt><trkpt lat="39.9601483" lon="8.8319167"><ele>212.0</ele><time>2026-05-01T07:39:20.607Z</time></trkpt><trkpt lat="39.9601333" lon="8.8321417"><ele>212.33333333333334</ele><time>2026-05-01T07:39:21.575Z</time></trkpt><trkpt lat="39.9601133" lon="8.8323417"><ele>212.66666666666669</ele><time>2026-05-01T07:39:22.575Z</time></trkpt><trkpt lat="39.9600967" lon="8.8325433"><ele>213.0</ele><time>2026-05-01T07:39:23.569Z</time></trkpt><trkpt lat="39.9601033" lon="8.832745"><ele>213.0</ele><time>2026-05-01T07:39:24.568Z</time></trkpt><trkpt lat="39.9601067" lon="8.8329467"><ele>213.0</ele><time>2026-05-01T07:39:25.569Z</time></trkpt><trkpt lat="39.960115" lon="8.833145"><ele>213.0</ele><time>2026-05-01T07:39:26.574Z</time></trkpt><trkpt lat="39.960115" lon="8.8333233"><ele>213.0</ele><time>2026-05-01T07:39:27.57Z</time></trkpt><trkpt lat="39.9601133" lon="8.833485"><ele>212.60000000000002</ele><time>2026-05-01T07:39:28.571Z</time></trkpt><trkpt lat="39.9601167" lon="8.8336383"><ele>212.20000000000002</ele><time>2026-05-01T07:39:29.572Z</time></trkpt><trkpt lat="39.9601183" lon="8.83377"><ele>211.8</ele><time>2026-05-01T07:39:30.57Z</time></trkpt><trkpt lat="39.9601333" lon="8.8339017"><ele>211.4</ele><time>2026-05-01T07:39:31.572Z</time></trkpt><trkpt lat="39.96014" lon="8.8340117"><ele>211.0</ele><time>2026-05-01T07:39:32.573Z</time></trkpt><trkpt lat="39.9601483" lon="8.8341083"><ele>210.99999999999997</ele><time>2026-05-01T07:39:33.568Z</time></trkpt><trkpt lat="39.96017" lon="8.8342433"><ele>211.0</ele><time>2026-05-01T07:39:35.568Z</time></trkpt><trkpt lat="39.960155" lon="8.8343583"><ele>211.0</ele><time>2026-05-01T07:39:37.568Z</time></trkpt><trkpt lat="39.9600917" lon="8.8343833"><ele>211.0</ele><time>2026-05-01T07:39:41.571Z</time></trkpt><trkpt lat="39.96001" lon="8.8342733"><ele>210.99999999999997</ele><time>2026-05-01T07:39:43.57Z</time></trkpt><trkpt lat="39.959955" lon="8.83423"><ele>211.0</ele><time>2026-05-01T07:39:44.599Z</time></trkpt><trkpt lat="39.959835" lon="8.8342183"><ele>208.60000000000002</ele><time>2026-05-01T07:39:46.571Z</time></trkpt><trkpt lat="39.9597717" lon="8.83426"><ele>206.2</ele><time>2026-05-01T07:39:47.57Z</time></trkpt><trkpt lat="39.9597083" lon="8.8343233"><ele>203.8</ele><time>2026-05-01T07:39:48.571Z</time></trkpt><trkpt lat="39.9596433" lon="8.834405"><ele>201.39999999999998</ele><time>2026-05-01T07:39:49.572Z</time></trkpt><trkpt lat="39.95958" lon="8.8345017"><ele>199.0</ele><time>2026-05-01T07:39:50.598Z</time></trkpt><trkpt lat="39.9595083" lon="8.83462"><ele>197.25</ele><time>2026-05-01T07:39:51.573Z</time></trkpt><trkpt lat="39.959435" lon="8.834735"><ele>195.5</ele><time>2026-05-01T07:39:52.569Z</time></trkpt><trkpt lat="39.9593567" lon="8.834875"><ele>193.75</ele><time>2026-05-01T07:39:53.573Z</time></trkpt><trkpt lat="39.9592717" lon="8.83501"><ele>192.0</ele><time>2026-05-01T07:39:54.572Z</time></trkpt><trkpt lat="39.959205" lon="8.8351433"><ele>192.8</ele><time>2026-05-01T07:39:55.568Z</time></trkpt><trkpt lat="39.959135" lon="8.8352683"><ele>193.6</ele><time>2026-05-01T07:39:56.634Z</time></trkpt><trkpt lat="39.9590683" lon="8.8353867"><ele>194.4</ele><time>2026-05-01T07:39:57.568Z</time></trkpt><trkpt lat="39.9589933" lon="8.835475"><ele>195.20000000000002</ele><time>2026-05-01T07:39:58.57Z</time></trkpt><trkpt lat="39.9589133" lon="8.8355183"><ele>196.0</ele><time>2026-05-01T07:39:59.574Z</time></trkpt><trkpt lat="39.9587817" lon="8.83552"><ele>196.0</ele><time>2026-05-01T07:40:01.569Z</time></trkpt><trkpt lat="39.9587" lon="8.8354217"><ele>196.0</ele><time>2026-05-01T07:40:02.572Z</time></trkpt><trkpt lat="39.9586117" lon="8.8353367"><ele>196.0</ele><time>2026-05-01T07:40:03.573Z</time></trkpt><trkpt lat="39.9585083" lon="8.835155"><ele>196.0</ele><time>2026-05-01T07:40:04.575Z</time></trkpt><trkpt lat="39.9584233" lon="8.834965"><ele>200.33333333333331</ele><time>2026-05-01T07:40:05.572Z</time></trkpt><trkpt lat="39.9583417" lon="8.8348"><ele>204.66666666666669</ele><time>2026-05-01T07:40:06.572Z</time></trkpt><trkpt lat="39.9582633" lon="8.83463"><ele>209.0</ele><time>2026-05-01T07:40:07.567Z</time></trkpt><trkpt lat="39.9581917" lon="8.834445"><ele>215.0</ele><time>2026-05-01T07:40:08.599Z</time></trkpt><trkpt lat="39.9581467" lon="8.8342117"><ele>221.0</ele><time>2026-05-01T07:40:09.57Z</time></trkpt><trkpt lat="39.9580983" lon="8.8340017"><ele>227.0</ele><time>2026-05-01T07:40:10.572Z</time></trkpt><trkpt lat="39.958065" lon="8.8338067"><ele>227.0</ele><time>2026-05-01T07:40:11.572Z</time></trkpt><trkpt lat="39.9580217" lon="8.8336467"><ele>227.0</ele><time>2026-05-01T07:40:12.571Z</time></trkpt><trkpt lat="39.9579667" lon="8.8334933"><ele>227.0</ele><time>2026-05-01T07:40:13.571Z</time></trkpt><trkpt lat="39.9579017" lon="8.8333433"><ele>227.0</ele><time>2026-05-01T07:40:14.596Z</time></trkpt><trkpt lat="39.95783" lon="8.8332"><ele>227.0</ele><time>2026-05-01T07:40:15.569Z</time></trkpt><trkpt lat="39.9577567" lon="8.8330633"><ele>227.0</ele><time>2026-05-01T07:40:16.568Z</time></trkpt><trkpt lat="39.957685" lon="8.8329367"><ele>227.0</ele><time>2026-05-01T07:40:17.568Z</time></trkpt><trkpt lat="39.9576317" lon="8.83281"><ele>227.0</ele><time>2026-05-01T07:40:18.57Z</time></trkpt><trkpt lat="39.9575967" lon="8.83268"><ele>226.6</ele><time>2026-05-01T07:40:19.572Z</time></trkpt><trkpt lat="39.9575783" lon="8.8325433"><ele>226.2</ele><time>2026-05-01T07:40:20.601Z</time></trkpt><trkpt lat="39.95758" lon="8.832405"><ele>225.8</ele><time>2026-05-01T07:40:21.568Z</time></trkpt><trkpt lat="39.95762" lon="8.8322617"><ele>225.4</ele><time>2026-05-01T07:40:22.568Z</time></trkpt><trkpt lat="39.9576433" lon="8.8321267"><ele>225.0</ele><time>2026-05-01T07:40:23.571Z</time></trkpt><trkpt lat="39.9576167" lon="8.8320267"><ele>225.0</ele><time>2026-05-01T07:40:24.573Z</time></trkpt><trkpt lat="39.9575667" lon="8.8319283"><ele>225.0</ele><time>2026-05-01T07:40:25.572Z</time></trkpt><trkpt lat="39.957485" lon="8.83184"><ele>225.0</ele><time>2026-05-01T07:40:26.636Z</time></trkpt><trkpt lat="39.9573933" lon="8.8317467"><ele>225.0</ele><time>2026-05-01T07:40:27.573Z</time></trkpt><trkpt lat="39.9572967" lon="8.8316433"><ele>225.0</ele><time>2026-05-01T07:40:28.573Z</time></trkpt><trkpt lat="39.9572" lon="8.8315383"><ele>229.6</ele><time>2026-05-01T07:40:29.57Z</time></trkpt><trkpt lat="39.957115" lon="8.831435"><ele>234.2</ele><time>2026-05-01T07:40:30.573Z</time></trkpt><trkpt lat="39.95702" lon="8.831345"><ele>238.8</ele><time>2026-05-01T07:40:31.57Z</time></trkpt><trkpt lat="39.9569283" lon="8.8312583"><ele>243.4</ele><time>2026-05-01T07:40:32.613Z</time></trkpt><trkpt lat="39.956855" lon="8.8311867"><ele>248.0</ele><time>2026-05-01T07:40:33.566Z</time></trkpt><trkpt lat="39.956785" lon="8.8311317"><ele>248.00000000000003</ele><time>2026-05-01T07:40:34.571Z</time></trkpt><trkpt lat="39.956735" lon="8.8310717"><ele>248.0</ele><time>2026-05-01T07:40:35.57Z</time></trkpt><trkpt lat="39.9566883" lon="8.8309283"><ele>248.0</ele><time>2026-05-01T07:40:37.567Z</time></trkpt><trkpt lat="39.9567" lon="8.8308283"><ele>248.0</ele><time>2026-05-01T07:40:38.602Z</time></trkpt><trkpt lat="39.9567317" lon="8.8307267"><ele>248.00000000000003</ele><time>2026-05-01T07:40:39.573Z</time></trkpt><trkpt lat="39.9567767" lon="8.8306333"><ele>248.0</ele><time>2026-05-01T07:40:40.573Z</time></trkpt><trkpt lat="39.9568417" lon="8.8305567"><ele>248.16666666666669</ele><time>2026-05-01T07:40:41.567Z</time></trkpt><trkpt lat="39.956895" lon="8.8304917"><ele>248.33333333333334</ele><time>2026-05-01T07:40:42.57Z</time></trkpt><trkpt lat="39.9569283" lon="8.83042"><ele>248.5</ele><time>2026-05-01T07:40:43.574Z</time></trkpt><trkpt lat="39.9569417" lon="8.8303017"><ele>248.66666666666669</ele><time>2026-05-01T07:40:45.571Z</time></trkpt><trkpt lat="39.9568383" lon="8.8302617"><ele>248.83333333333334</ele><time>2026-05-01T07:40:47.57Z</time></trkpt><trkpt lat="39.956765" lon="8.8302967"><ele>249.0</ele><time>2026-05-01T07:40:48.574Z</time></trkpt><trkpt lat="39.956695" lon="8.8303517"><ele>256.0</ele><time>2026-05-01T07:40:49.571Z</time></trkpt><trkpt lat="39.95662" lon="8.8304233"><ele>263.0</ele><time>2026-05-01T07:40:50.6Z</time></trkpt><trkpt lat="39.95654" lon="8.83054"><ele>270.0</ele><time>2026-05-01T07:40:51.573Z</time></trkpt><trkpt lat="39.9564567" lon="8.8306567"><ele>277.0</ele><time>2026-05-01T07:40:52.569Z</time></trkpt><trkpt lat="39.9563617" lon="8.830755"><ele>277.0</ele><time>2026-05-01T07:40:53.566Z</time></trkpt><trkpt lat="39.9562717" lon="8.830865"><ele>277.0</ele><time>2026-05-01T07:40:54.574Z</time></trkpt><trkpt lat="39.9561883" lon="8.8309767"><ele>277.0</ele><time>2026-05-01T07:40:55.574Z</time></trkpt><trkpt lat="39.956115" lon="8.831085"><ele>277.0</ele><time>2026-05-01T07:40:56.572Z</time></trkpt><trkpt lat="39.9560533" lon="8.8312"><ele>277.0</ele><time>2026-05-01T07:40:57.57Z</time></trkpt><trkpt lat="39.9560083" lon="8.8313233"><ele>277.0</ele><time>2026-05-01T07:40:58.569Z</time></trkpt><trkpt lat="39.9560117" lon="8.83147"><ele>277.0</ele><time>2026-05-01T07:40:59.572Z</time></trkpt><trkpt lat="39.956015" lon="8.83161"><ele>277.0</ele><time>2026-05-01T07:41:00.568Z</time></trkpt><trkpt lat="39.9560283" lon="8.83175"><ele>277.0</ele><time>2026-05-01T07:41:01.572Z</time></trkpt><trkpt lat="39.956055" lon="8.8318833"><ele>276.8</ele><time>2026-05-01T07:41:02.592Z</time></trkpt><trkpt lat="39.9560783" lon="8.8320117"><ele>276.6</ele><time>2026-05-01T07:41:03.57Z</time></trkpt><trkpt lat="39.9560983" lon="8.832125"><ele>276.40000000000003</ele><time>2026-05-01T07:41:04.57Z</time></trkpt><trkpt lat="39.956115" lon="8.8322217"><ele>276.2</ele><time>2026-05-01T07:41:05.574Z</time></trkpt><trkpt lat="39.9560967" lon="8.83233"><ele>276.0</ele><time>2026-05-01T07:41:07.573Z</time></trkpt><trkpt lat="39.9559967" lon="8.832295"><ele>276.0</ele><time>2026-05-01T07:41:09.568Z</time></trkpt><trkpt lat="39.9559417" lon="8.832245"><ele>276.0</ele><time>2026-05-01T07:41:10.569Z</time></trkpt><trkpt lat="39.9558817" lon="8.83216"><ele>276.0</ele><time>2026-05-01T07:41:11.571Z</time></trkpt><trkpt lat="39.9558233" lon="8.8320033"><ele>276.0</ele><time>2026-05-01T07:41:12.574Z</time></trkpt><trkpt lat="39.9557817" lon="8.8318117"><ele>276.0</ele><time>2026-05-01T07:41:13.572Z</time></trkpt><trkpt lat="39.955725" lon="8.8316683"><ele>283.75</ele><time>2026-05-01T07:41:14.606Z</time></trkpt><trkpt lat="39.9556767" lon="8.831525"><ele>291.5</ele><time>2026-05-01T07:41:15.568Z</time></trkpt><trkpt lat="39.9556283" lon="8.8314017"><ele>299.25</ele><time>2026-05-01T07:41:16.572Z</time></trkpt><trkpt lat="39.95561" lon="8.831245"><ele>307.0</ele><time>2026-05-01T07:41:17.573Z</time></trkpt><trkpt lat="39.9556067" lon="8.8310917"><ele>307.4</ele><time>2026-05-01T07:41:18.572Z</time></trkpt><trkpt lat="39.95562" lon="8.83094"><ele>307.79999999999995</ele><time>2026-05-01T07:41:19.575Z</time></trkpt><trkpt lat="39.9556483" lon="8.8307817"><ele>308.2</ele><time>2026-05-01T07:41:20.605Z</time></trkpt><trkpt lat="39.9556783" lon="8.8306717"><ele>308.59999999999997</ele><time>2026-05-01T07:41:21.571Z</time></trkpt><trkpt lat="39.9556967" lon="8.8305717"><ele>309.0</ele><time>2026-05-01T07:41:22.571Z</time></trkpt><trkpt lat="39.955705" lon="8.830485"><ele>309.0</ele><time>2026-05-01T07:41:23.566Z</time></trkpt><trkpt lat="39.9556967" lon="8.8303567"><ele>309.0</ele><time>2026-05-01T07:41:25.573Z</time></trkpt><trkpt lat="39.9556283" lon="8.8304467"><ele>309.0</ele><time>2026-05-01T07:41:27.574Z</time></trkpt><trkpt lat="39.9556083" lon="8.8305367"><ele>309.0</ele><time>2026-05-01T07:41:28.569Z</time></trkpt><trkpt lat="39.955575" lon="8.8306667"><ele>309.0</ele><time>2026-05-01T07:41:29.569Z</time></trkpt><trkpt lat="39.9555217" lon="8.83082"><ele>308.5</ele><time>2026-05-01T07:41:30.573Z</time></trkpt><trkpt lat="39.9554733" lon="8.83102"><ele>308.0</ele><time>2026-05-01T07:41:31.572Z</time></trkpt><trkpt lat="39.9554083" lon="8.8312033"><ele>307.5</ele><time>2026-05-01T07:41:32.571Z</time></trkpt><trkpt lat="39.955355" lon="8.83136"><ele>307.0</ele><time>2026-05-01T07:41:33.575Z</time></trkpt><trkpt lat="39.9553383" lon="8.8315283"><ele>307.0</ele><time>2026-05-01T07:41:34.572Z</time></trkpt><trkpt lat="39.9553267" lon="8.83167"><ele>307.0</ele><time>2026-05-01T07:41:35.569Z</time></trkpt><trkpt lat="39.9553117" lon="8.83175"><ele>307.0</ele><time>2026-05-01T07:41:36.566Z</time></trkpt><trkpt lat="39.95525" lon="8.8318317"><ele>307.0</ele><time>2026-05-01T07:41:38.605Z</time></trkpt><trkpt lat="39.9552183" lon="8.8317417"><ele>307.0</ele><time>2026-05-01T07:41:39.57Z</time></trkpt><trkpt lat="39.95518" lon="8.8315783"><ele>307.0</ele><time>2026-05-01T07:41:41.573Z</time></trkpt><trkpt lat="39.9551833" lon="8.8314483"><ele>307.0</ele><time>2026-05-01T07:41:42.568Z</time></trkpt><trkpt lat="39.9551783" lon="8.83126"><ele>307.0</ele><time>2026-05-01T07:41:43.569Z</time></trkpt><trkpt lat="39.955215" lon="8.83107"><ele>307.0</ele><time>2026-05-01T07:41:44.606Z</time></trkpt><trkpt lat="39.95526" lon="8.83091"><ele>307.3333333333333</ele><time>2026-05-01T07:41:45.573Z</time></trkpt><trkpt lat="39.9552867" lon="8.830785"><ele>307.66666666666663</ele><time>2026-05-01T07:41:46.567Z</time></trkpt><trkpt lat="39.9553033" lon="8.8306833"><ele>308.0</ele><time>2026-05-01T07:41:47.569Z</time></trkpt><trkpt lat="39.955315" lon="8.8305967"><ele>308.3333333333333</ele><time>2026-05-01T07:41:48.572Z</time></trkpt><trkpt lat="39.9552283" lon="8.8306883"><ele>308.6666666666667</ele><time>2026-05-01T07:41:51.572Z</time></trkpt><trkpt lat="39.9551983" lon="8.8307883"><ele>309.0</ele><time>2026-05-01T07:41:52.571Z</time></trkpt><trkpt lat="39.9551517" lon="8.8308983"><ele>308.59999999999997</ele><time>2026-05-01T07:41:53.57Z</time></trkpt><trkpt lat="39.955095" lon="8.8310117"><ele>308.2</ele><time>2026-05-01T07:41:54.573Z</time></trkpt><trkpt lat="39.95502" lon="8.8311183"><ele>307.79999999999995</ele><time>2026-05-01T07:41:55.573Z</time></trkpt><trkpt lat="39.9549417" lon="8.831215"><ele>307.4</ele><time>2026-05-01T07:41:56.634Z</time></trkpt><trkpt lat="39.95485" lon="8.8312883"><ele>307.0</ele><time>2026-05-01T07:41:57.573Z</time></trkpt><trkpt lat="39.9547517" lon="8.831345"><ele>312.75</ele><time>2026-05-01T07:41:58.573Z</time></trkpt><trkpt lat="39.95461" lon="8.8312967"><ele>318.5</ele><time>2026-05-01T07:41:59.572Z</time></trkpt><trkpt lat="39.954505" lon="8.831275"><ele>324.25</ele><time>2026-05-01T07:42:00.569Z</time></trkpt><trkpt lat="39.9543983" lon="8.8312667"><ele>330.0</ele><time>2026-05-01T07:42:01.569Z</time></trkpt><trkpt lat="39.9542983" lon="8.8312833"><ele>330.0</ele><time>2026-05-01T07:42:02.635Z</time></trkpt><trkpt lat="39.9542067" lon="8.831335"><ele>330.0</ele><time>2026-05-01T07:42:03.569Z</time></trkpt><trkpt lat="39.9541217" lon="8.8314117"><ele>330.0</ele><time>2026-05-01T07:42:04.57Z</time></trkpt><trkpt lat="39.9540367" lon="8.8315067"><ele>330.0</ele><time>2026-05-01T07:42:05.57Z</time></trkpt><trkpt lat="39.953945" lon="8.83161"><ele>330.0</ele><time>2026-05-01T07:42:06.575Z</time></trkpt><trkpt lat="39.9538483" lon="8.831725"><ele>330.75</ele><time>2026-05-01T07:42:07.57Z</time></trkpt><trkpt lat="39.953745" lon="8.83185"><ele>331.5</ele><time>2026-05-01T07:42:08.605Z</time></trkpt><trkpt lat="39.9536333" lon="8.8319733"><ele>332.25</ele><time>2026-05-01T07:42:09.575Z</time></trkpt><trkpt lat="39.9535133" lon="8.832105"><ele>333.0</ele><time>2026-05-01T07:42:10.573Z</time></trkpt><trkpt lat="39.953395" lon="8.832235"><ele>339.5</ele><time>2026-05-01T07:42:11.57Z</time></trkpt><trkpt lat="39.953285" lon="8.8323617"><ele>346.0</ele><time>2026-05-01T07:42:12.568Z</time></trkpt><trkpt lat="39.9531833" lon="8.8324817"><ele>352.5</ele><time>2026-05-01T07:42:13.574Z</time></trkpt><trkpt lat="39.9530983" lon="8.8325883"><ele>359.0</ele><time>2026-05-01T07:42:14.607Z</time></trkpt><trkpt lat="39.9530183" lon="8.8326883"><ele>359.0</ele><time>2026-05-01T07:42:15.568Z</time></trkpt><trkpt lat="39.9529333" lon="8.8327817"><ele>359.0</ele><time>2026-05-01T07:42:16.568Z</time></trkpt><trkpt lat="39.9528617" lon="8.8328683"><ele>359.0</ele><time>2026-05-01T07:42:17.569Z</time></trkpt><trkpt lat="39.9528" lon="8.83295"><ele>359.0</ele><time>2026-05-01T07:42:18.574Z</time></trkpt><trkpt lat="39.9527417" lon="8.8330117"><ele>359.0</ele><time>2026-05-01T07:42:19.571Z</time></trkpt><trkpt lat="39.9526333" lon="8.8330717"><ele>359.6</ele><time>2026-05-01T07:42:21.57Z</time></trkpt><trkpt lat="39.9525183" lon="8.8330467"><ele>360.2</ele><time>2026-05-01T07:42:23.571Z</time></trkpt><trkpt lat="39.95246" lon="8.8330067"><ele>360.8</ele><time>2026-05-01T07:42:24.573Z</time></trkpt><trkpt lat="39.9523917" lon="8.8329267"><ele>361.40000000000003</ele><time>2026-05-01T07:42:25.572Z</time></trkpt><trkpt lat="39.9523183" lon="8.8328267"><ele>362.0</ele><time>2026-05-01T07:42:26.637Z</time></trkpt><trkpt lat="39.9522317" lon="8.832685"><ele>364.20000000000005</ele><time>2026-05-01T07:42:27.567Z</time></trkpt><trkpt lat="39.95215" lon="8.83255"><ele>366.4</ele><time>2026-05-01T07:42:28.575Z</time></trkpt><trkpt lat="39.9520767" lon="8.832445"><ele>368.6</ele><time>2026-05-01T07:42:29.573Z</time></trkpt><trkpt lat="39.9520117" lon="8.8323667"><ele>370.79999999999995</ele><time>2026-05-01T07:42:30.572Z</time></trkpt><trkpt lat="39.951955" lon="8.832315"><ele>373.0</ele><time>2026-05-01T07:42:31.573Z</time></trkpt><trkpt lat="39.9518733" lon="8.8322917"><ele>373.0</ele><time>2026-05-01T07:42:32.611Z</time></trkpt><trkpt lat="39.9517883" lon="8.8322917"><ele>373.0</ele><time>2026-05-01T07:42:33.572Z</time></trkpt><trkpt lat="39.951695" lon="8.83231"><ele>373.0</ele><time>2026-05-01T07:42:34.568Z</time></trkpt><trkpt lat="39.9515867" lon="8.8323483"><ele>373.0</ele><time>2026-05-01T07:42:35.572Z</time></trkpt><trkpt lat="39.95148" lon="8.8323733"><ele>373.0</ele><time>2026-05-01T07:42:36.572Z</time></trkpt><trkpt lat="39.9513683" lon="8.83238"><ele>371.75</ele><time>2026-05-01T07:42:37.571Z</time></trkpt><trkpt lat="39.9512533" lon="8.8323767"><ele>370.5</ele><time>2026-05-01T07:42:38.608Z</time></trkpt><trkpt lat="39.95113" lon="8.8323617"><ele>369.25</ele><time>2026-05-01T07:42:39.569Z</time></trkpt><trkpt lat="39.9509967" lon="8.8323417"><ele>368.0</ele><time>2026-05-01T07:42:40.57Z</time></trkpt><trkpt lat="39.9508633" lon="8.8323117"><ele>367.5</ele><time>2026-05-01T07:42:41.573Z</time></trkpt><trkpt lat="39.9507283" lon="8.8322733"><ele>367.0</ele><time>2026-05-01T07:42:42.569Z</time></trkpt><trkpt lat="39.950585" lon="8.8322533"><ele>366.5</ele><time>2026-05-01T07:42:43.573Z</time></trkpt><trkpt lat="39.9504533" lon="8.8322183"><ele>366.0</ele><time>2026-05-01T07:42:44.606Z</time></trkpt><trkpt lat="39.95033" lon="8.8321917"><ele>366.0</ele><time>2026-05-01T07:42:45.568Z</time></trkpt><trkpt lat="39.9501983" lon="8.8321933"><ele>366.0</ele><time>2026-05-01T07:42:46.571Z</time></trkpt><trkpt lat="39.95008" lon="8.8321917"><ele>366.0</ele><time>2026-05-01T07:42:47.569Z</time></trkpt><trkpt lat="39.949955" lon="8.8321933"><ele>366.0</ele><time>2026-05-01T07:42:48.571Z</time></trkpt><trkpt lat="39.9498233" lon="8.8322183"><ele>365.75</ele><time>2026-05-01T07:42:49.57Z</time></trkpt><trkpt lat="39.9496933" lon="8.8322583"><ele>365.5</ele><time>2026-05-01T07:42:50.606Z</time></trkpt><trkpt lat="39.9495767" lon="8.8322917"><ele>365.25</ele><time>2026-05-01T07:42:51.571Z</time></trkpt><trkpt lat="39.9494517" lon="8.8323333"><ele>365.0</ele><time>2026-05-01T07:42:52.569Z</time></trkpt><trkpt lat="39.94933" lon="8.8323867"><ele>367.6</ele><time>2026-05-01T07:42:53.569Z</time></trkpt><trkpt lat="39.9492033" lon="8.83243"><ele>370.2</ele><time>2026-05-01T07:42:54.571Z</time></trkpt><trkpt lat="39.94909" lon="8.8324717"><ele>372.79999999999995</ele><time>2026-05-01T07:42:55.568Z</time></trkpt><trkpt lat="39.949" lon="8.8325017"><ele>375.4</ele><time>2026-05-01T07:42:56.57Z</time></trkpt><trkpt lat="39.94893" lon="8.8325217"><ele>378.0</ele><time>2026-05-01T07:42:57.572Z</time></trkpt><trkpt lat="39.94883" lon="8.8325667"><ele>378.0</ele><time>2026-05-01T07:42:58.572Z</time></trkpt><trkpt lat="39.9487467" lon="8.8325783"><ele>378.0</ele><time>2026-05-01T07:42:59.568Z</time></trkpt><trkpt lat="39.9486583" lon="8.8325583"><ele>378.0</ele><time>2026-05-01T07:43:00.571Z</time></trkpt><trkpt lat="39.94856" lon="8.8325167"><ele>378.0</ele><time>2026-05-01T07:43:01.572Z</time></trkpt><trkpt lat="39.9484533" lon="8.8324467"><ele>378.0</ele><time>2026-05-01T07:43:02.609Z</time></trkpt><trkpt lat="39.9483667" lon="8.8323383"><ele>376.4</ele><time>2026-05-01T07:43:03.572Z</time></trkpt><trkpt lat="39.9483" lon="8.832265"><ele>374.79999999999995</ele><time>2026-05-01T07:43:04.572Z</time></trkpt><trkpt lat="39.9482417" lon="8.832165"><ele>373.2</ele><time>2026-05-01T07:43:05.572Z</time></trkpt><trkpt lat="39.94815" lon="8.83209"><ele>371.6</ele><time>2026-05-01T07:43:06.573Z</time></trkpt><trkpt lat="39.9480467" lon="8.8320233"><ele>370.0</ele><time>2026-05-01T07:43:07.571Z</time></trkpt><trkpt lat="39.94794" lon="8.8319783"><ele>370.0</ele><time>2026-05-01T07:43:08.606Z</time></trkpt><trkpt lat="39.9478217" lon="8.8319267"><ele>370.0</ele><time>2026-05-01T07:43:09.573Z</time></trkpt><trkpt lat="39.9477033" lon="8.8318717"><ele>370.0</ele><time>2026-05-01T07:43:10.568Z</time></trkpt><trkpt lat="39.9475933" lon="8.8318117"><ele>370.0</ele><time>2026-05-01T07:43:11.569Z</time></trkpt><trkpt lat="39.94747" lon="8.831775"><ele>373.0</ele><time>2026-05-01T07:43:12.571Z</time></trkpt><trkpt lat="39.9473483" lon="8.8317517"><ele>376.0</ele><time>2026-05-01T07:43:13.568Z</time></trkpt><trkpt lat="39.9472333" lon="8.8317317"><ele>379.0</ele><time>2026-05-01T07:43:14.608Z</time></trkpt><trkpt lat="39.947125" lon="8.8317167"><ele>382.0</ele><time>2026-05-01T07:43:15.574Z</time></trkpt><trkpt lat="39.947025" lon="8.8316967"><ele>385.0</ele><time>2026-05-01T07:43:16.576Z</time></trkpt><trkpt lat="39.946945" lon="8.8316633"><ele>385.0</ele><time>2026-05-01T07:43:17.571Z</time></trkpt><trkpt lat="39.946875" lon="8.83162"><ele>385.0</ele><time>2026-05-01T07:43:18.57Z</time></trkpt><trkpt lat="39.94682" lon="8.831535"><ele>385.0</ele><time>2026-05-01T07:43:19.575Z</time></trkpt><trkpt lat="39.9467683" lon="8.83144"><ele>385.0</ele><time>2026-05-01T07:43:20.609Z</time></trkpt><trkpt lat="39.9467217" lon="8.83133"><ele>385.0</ele><time>2026-05-01T07:43:21.566Z</time></trkpt><trkpt lat="39.9466817" lon="8.8312067"><ele>384.8</ele><time>2026-05-01T07:43:22.567Z</time></trkpt><trkpt lat="39.946665" lon="8.8310667"><ele>384.6</ele><time>2026-05-01T07:43:23.568Z</time></trkpt><trkpt lat="39.9466267" lon="8.8309567"><ele>384.4</ele><time>2026-05-01T07:43:24.573Z</time></trkpt><trkpt lat="39.9465467" lon="8.8308717"><ele>384.2</ele><time>2026-05-01T07:43:25.571Z</time></trkpt><trkpt lat="39.946455" lon="8.8307933"><ele>384.0</ele><time>2026-05-01T07:43:26.596Z</time></trkpt><trkpt lat="39.9463617" lon="8.830725"><ele>384.0</ele><time>2026-05-01T07:43:27.572Z</time></trkpt><trkpt lat="39.9462633" lon="8.830705"><ele>384.0</ele><time>2026-05-01T07:43:28.569Z</time></trkpt><trkpt lat="39.94617" lon="8.83069"><ele>384.0</ele><time>2026-05-01T07:43:29.573Z</time></trkpt><trkpt lat="39.946065" lon="8.8306917"><ele>384.0</ele><time>2026-05-01T07:43:30.573Z</time></trkpt><trkpt lat="39.9459567" lon="8.8306933"><ele>384.0</ele><time>2026-05-01T07:43:31.572Z</time></trkpt><trkpt lat="39.945865" lon="8.8307033"><ele>384.0</ele><time>2026-05-01T07:43:32.594Z</time></trkpt><trkpt lat="39.94576" lon="8.8307133"><ele>384.0</ele><time>2026-05-01T07:43:33.569Z</time></trkpt><trkpt lat="39.94565" lon="8.83073"><ele>384.0</ele><time>2026-05-01T07:43:34.572Z</time></trkpt><trkpt lat="39.9455333" lon="8.8307583"><ele>384.0</ele><time>2026-05-01T07:43:35.571Z</time></trkpt><trkpt lat="39.9454017" lon="8.8307983"><ele>384.0</ele><time>2026-05-01T07:43:36.571Z</time></trkpt><trkpt lat="39.9452683" lon="8.8308417"><ele>384.0</ele><time>2026-05-01T07:43:37.572Z</time></trkpt><trkpt lat="39.94513" lon="8.8308867"><ele>384.0</ele><time>2026-05-01T07:43:38.608Z</time></trkpt><trkpt lat="39.944985" lon="8.8309317"><ele>384.0</ele><time>2026-05-01T07:43:39.571Z</time></trkpt><trkpt lat="39.9448367" lon="8.8309717"><ele>383.6666666666667</ele><time>2026-05-01T07:43:40.571Z</time></trkpt><trkpt lat="39.94468" lon="8.8310067"><ele>383.33333333333337</ele><time>2026-05-01T07:43:41.572Z</time></trkpt><trkpt lat="39.944515" lon="8.8310417"><ele>383.0</ele><time>2026-05-01T07:43:42.57Z</time></trkpt><trkpt lat="39.9443733" lon="8.83113"><ele>383.0</ele><time>2026-05-01T07:43:43.567Z</time></trkpt><trkpt lat="39.944215" lon="8.8311983"><ele>383.0</ele><time>2026-05-01T07:43:44.608Z</time></trkpt><trkpt lat="39.9440517" lon="8.8312483"><ele>383.0</ele><time>2026-05-01T07:43:45.572Z</time></trkpt><trkpt lat="39.943885" lon="8.8313017"><ele>389.33333333333337</ele><time>2026-05-01T07:43:46.569Z</time></trkpt><trkpt lat="39.94372" lon="8.8313317"><ele>395.6666666666667</ele><time>2026-05-01T07:43:47.569Z</time></trkpt><trkpt lat="39.94357" lon="8.8313733"><ele>402.0</ele><time>2026-05-01T07:43:48.574Z</time></trkpt><trkpt lat="39.943425" lon="8.8313883"><ele>406.5</ele><time>2026-05-01T07:43:49.568Z</time></trkpt><trkpt lat="39.9432983" lon="8.8314183"><ele>411.0</ele><time>2026-05-01T07:43:50.611Z</time></trkpt><trkpt lat="39.9431633" lon="8.8314283"><ele>415.5</ele><time>2026-05-01T07:43:51.573Z</time></trkpt><trkpt lat="39.9430483" lon="8.8314617"><ele>420.0</ele><time>2026-05-01T07:43:52.568Z</time></trkpt><trkpt lat="39.9429283" lon="8.8315"><ele>420.0</ele><time>2026-05-01T07:43:53.572Z</time></trkpt><trkpt lat="39.94279" lon="8.8315467"><ele>420.0</ele><time>2026-05-01T07:43:54.572Z</time></trkpt><trkpt lat="39.9426633" lon="8.8315967"><ele>420.0</ele><time>2026-05-01T07:43:55.573Z</time></trkpt><trkpt lat="39.942565" lon="8.8316533"><ele>420.0</ele><time>2026-05-01T07:43:56.585Z</time></trkpt><trkpt lat="39.9424733" lon="8.8316683"><ele>423.3333333333333</ele><time>2026-05-01T07:43:57.568Z</time></trkpt><trkpt lat="39.9423767" lon="8.8316867"><ele>426.66666666666663</ele><time>2026-05-01T07:43:58.569Z</time></trkpt><trkpt lat="39.9423" lon="8.8317"><ele>430.0</ele><time>2026-05-01T07:43:59.569Z</time></trkpt><trkpt lat="39.9422217" lon="8.8317017"><ele>433.3333333333333</ele><time>2026-05-01T07:44:00.57Z</time></trkpt><trkpt lat="39.9421633" lon="8.831625"><ele>436.66666666666663</ele><time>2026-05-01T07:44:02.587Z</time></trkpt><trkpt lat="39.942195" lon="8.8314967"><ele>440.0</ele><time>2026-05-01T07:44:04.571Z</time></trkpt><trkpt lat="39.9422517" lon="8.8314183"><ele>440.0</ele><time>2026-05-01T07:44:05.572Z</time></trkpt><trkpt lat="39.942315" lon="8.8313167"><ele>440.0</ele><time>2026-05-01T07:44:06.571Z</time></trkpt><trkpt lat="39.9423783" lon="8.831195"><ele>440.0</ele><time>2026-05-01T07:44:07.573Z</time></trkpt><trkpt lat="39.9424567" lon="8.831035"><ele>440.0</ele><time>2026-05-01T07:44:08.612Z</time></trkpt><trkpt lat="39.942525" lon="8.830865"><ele>438.5</ele><time>2026-05-01T07:44:09.574Z</time></trkpt><trkpt lat="39.9425733" lon="8.8306967"><ele>437.0</ele><time>2026-05-01T07:44:10.569Z</time></trkpt><trkpt lat="39.9426217" lon="8.8305183"><ele>435.5</ele><time>2026-05-01T07:44:11.575Z</time></trkpt><trkpt lat="39.9426467" lon="8.8303367"><ele>434.0</ele><time>2026-05-01T07:44:12.569Z</time></trkpt><trkpt lat="39.9426383" lon="8.8301817"><ele>435.0</ele><time>2026-05-01T07:44:13.572Z</time></trkpt><trkpt lat="39.942615" lon="8.830025"><ele>436.0</ele><time>2026-05-01T07:44:14.612Z</time></trkpt><trkpt lat="39.9425583" lon="8.82988"><ele>437.0</ele><time>2026-05-01T07:44:15.572Z</time></trkpt><trkpt lat="39.94247" lon="8.8297383"><ele>438.0</ele><time>2026-05-01T07:44:16.57Z</time></trkpt><trkpt lat="39.9423733" lon="8.8296033"><ele>444.75</ele><time>2026-05-01T07:44:17.568Z</time></trkpt><trkpt lat="39.94227" lon="8.829465"><ele>451.5</ele><time>2026-05-01T07:44:18.568Z</time></trkpt><trkpt lat="39.94219" lon="8.8293233"><ele>458.25</ele><time>2026-05-01T07:44:19.57Z</time></trkpt><trkpt lat="39.9421217" lon="8.8291633"><ele>465.0</ele><time>2026-05-01T07:44:20.613Z</time></trkpt><trkpt lat="39.9420617" lon="8.8290083"><ele>465.0</ele><time>2026-05-01T07:44:21.569Z</time></trkpt><trkpt lat="39.9420233" lon="8.828845"><ele>465.0</ele><time>2026-05-01T07:44:22.573Z</time></trkpt><trkpt lat="39.9420117" lon="8.828675"><ele>465.0</ele><time>2026-05-01T07:44:23.571Z</time></trkpt><trkpt lat="39.9420017" lon="8.828515"><ele>465.0</ele><time>2026-05-01T07:44:24.568Z</time></trkpt><trkpt lat="39.942005" lon="8.8283467"><ele>467.0</ele><time>2026-05-01T07:44:25.576Z</time></trkpt><trkpt lat="39.9420267" lon="8.82817"><ele>469.0</ele><time>2026-05-01T07:44:26.589Z</time></trkpt><trkpt lat="39.9420083" lon="8.8280167"><ele>471.0</ele><time>2026-05-01T07:44:27.569Z</time></trkpt><trkpt lat="39.941995" lon="8.82785"><ele>473.0</ele><time>2026-05-01T07:44:28.57Z</time></trkpt><trkpt lat="39.941995" lon="8.827705"><ele>475.75</ele><time>2026-05-01T07:44:29.569Z</time></trkpt><trkpt lat="39.941995" lon="8.82757"><ele>478.5</ele><time>2026-05-01T07:44:30.569Z</time></trkpt><trkpt lat="39.9420483" lon="8.8274217"><ele>481.25</ele><time>2026-05-01T07:44:31.569Z</time></trkpt><trkpt lat="39.9421033" lon="8.8272767"><ele>484.0</ele><time>2026-05-01T07:44:32.57Z</time></trkpt><trkpt lat="39.9421383" lon="8.8271417"><ele>484.0</ele><time>2026-05-01T07:44:33.572Z</time></trkpt><trkpt lat="39.942165" lon="8.826985"><ele>484.0</ele><time>2026-05-01T07:44:34.571Z</time></trkpt><trkpt lat="39.9421683" lon="8.826815"><ele>484.0</ele><time>2026-05-01T07:44:35.569Z</time></trkpt><trkpt lat="39.9421633" lon="8.8266517"><ele>484.0</ele><time>2026-05-01T07:44:36.573Z</time></trkpt><trkpt lat="39.9421367" lon="8.8265017"><ele>486.25</ele><time>2026-05-01T07:44:37.572Z</time></trkpt><trkpt lat="39.94211" lon="8.82634"><ele>488.5</ele><time>2026-05-01T07:44:38.613Z</time></trkpt><trkpt lat="39.9420583" lon="8.8261817"><ele>490.75</ele><time>2026-05-01T07:44:39.567Z</time></trkpt><trkpt lat="39.9419933" lon="8.8260233"><ele>493.0</ele><time>2026-05-01T07:44:40.572Z</time></trkpt><trkpt lat="39.941925" lon="8.82586"><ele>493.25</ele><time>2026-05-01T07:44:41.57Z</time></trkpt><trkpt lat="39.9418583" lon="8.8256967"><ele>493.5</ele><time>2026-05-01T07:44:42.572Z</time></trkpt><trkpt lat="39.941795" lon="8.825535"><ele>493.75</ele><time>2026-05-01T07:44:43.567Z</time></trkpt><trkpt lat="39.9417433" lon="8.8253633"><ele>494.0</ele><time>2026-05-01T07:44:44.611Z</time></trkpt><trkpt lat="39.9416917" lon="8.8251917"><ele>502.5</ele><time>2026-05-01T07:44:45.566Z</time></trkpt><trkpt lat="39.9416667" lon="8.82501"><ele>511.0</ele><time>2026-05-01T07:44:46.569Z</time></trkpt><trkpt lat="39.9416533" lon="8.8248133"><ele>519.5</ele><time>2026-05-01T07:44:47.573Z</time></trkpt><trkpt lat="39.9416467" lon="8.8246233"><ele>528.0</ele><time>2026-05-01T07:44:48.572Z</time></trkpt><trkpt lat="39.941645" lon="8.8244483"><ele>530.6</ele><time>2026-05-01T07:44:49.572Z</time></trkpt><trkpt lat="39.94165" lon="8.824285"><ele>533.1999999999999</ele><time>2026-05-01T07:44:50.614Z</time></trkpt><trkpt lat="39.9416667" lon="8.824135"><ele>535.8</ele><time>2026-05-01T07:44:51.568Z</time></trkpt><trkpt lat="39.941685" lon="8.82402"><ele>538.4</ele><time>2026-05-01T07:44:52.569Z</time></trkpt><trkpt lat="39.9417183" lon="8.823945"><ele>541.0</ele><time>2026-05-01T07:44:53.572Z</time></trkpt><trkpt lat="39.94177" lon="8.8238333"><ele>541.0</ele><time>2026-05-01T07:44:55.568Z</time></trkpt><trkpt lat="39.941695" lon="8.823765"><ele>541.0</ele><time>2026-05-01T07:44:58.569Z</time></trkpt><trkpt lat="39.941595" lon="8.8238333"><ele>541.0</ele><time>2026-05-01T07:45:00.57Z</time></trkpt><trkpt lat="39.9414767" lon="8.82393"><ele>541.0</ele><time>2026-05-01T07:45:01.57Z</time></trkpt><trkpt lat="39.9413717" lon="8.8240017"><ele>541.0</ele><time>2026-05-01T07:45:02.572Z</time></trkpt><trkpt lat="39.9412467" lon="8.8240833"><ele>541.0</ele><time>2026-05-01T07:45:03.571Z</time></trkpt><trkpt lat="39.9411183" lon="8.8241567"><ele>541.0</ele><time>2026-05-01T07:45:04.572Z</time></trkpt><trkpt lat="39.9409967" lon="8.824205"><ele>541.0</ele><time>2026-05-01T07:45:05.572Z</time></trkpt><trkpt lat="39.9408767" lon="8.8242517"><ele>541.75</ele><time>2026-05-01T07:45:06.567Z</time></trkpt><trkpt lat="39.94076" lon="8.82427"><ele>542.5</ele><time>2026-05-01T07:45:07.569Z</time></trkpt><trkpt lat="39.9406517" lon="8.8242983"><ele>543.25</ele><time>2026-05-01T07:45:08.608Z</time></trkpt><trkpt lat="39.9405417" lon="8.8243583"><ele>544.0</ele><time>2026-05-01T07:45:09.572Z</time></trkpt><trkpt lat="39.9404317" lon="8.8244467"><ele>544.0</ele><time>2026-05-01T07:45:10.571Z</time></trkpt><trkpt lat="39.9403333" lon="8.8245583"><ele>544.0</ele><time>2026-05-01T07:45:11.571Z</time></trkpt><trkpt lat="39.940235" lon="8.8246733"><ele>544.0</ele><time>2026-05-01T07:45:12.572Z</time></trkpt><trkpt lat="39.940135" lon="8.8247967"><ele>544.0</ele><time>2026-05-01T07:45:13.574Z</time></trkpt><trkpt lat="39.9400167" lon="8.82495"><ele>545.6666666666667</ele><time>2026-05-01T07:45:14.612Z</time></trkpt><trkpt lat="39.9399167" lon="8.8251033"><ele>547.3333333333334</ele><time>2026-05-01T07:45:15.571Z</time></trkpt><trkpt lat="39.9398083" lon="8.825255"><ele>549.0</ele><time>2026-05-01T07:45:16.575Z</time></trkpt><trkpt lat="39.9397067" lon="8.8253967"><ele>549.0</ele><time>2026-05-01T07:45:17.572Z</time></trkpt><trkpt lat="39.9395983" lon="8.825505"><ele>549.0</ele><time>2026-05-01T07:45:18.567Z</time></trkpt><trkpt lat="39.93948" lon="8.8256117"><ele>549.0</ele><time>2026-05-01T07:45:19.573Z</time></trkpt><trkpt lat="39.93938" lon="8.82565"><ele>549.0</ele><time>2026-05-01T07:45:20.614Z</time></trkpt><trkpt lat="39.9392917" lon="8.82567"><ele>553.0</ele><time>2026-05-01T07:45:21.57Z</time></trkpt><trkpt lat="39.93918" lon="8.8256617"><ele>557.0</ele><time>2026-05-01T07:45:22.57Z</time></trkpt><trkpt lat="39.9390783" lon="8.8256417"><ele>561.0</ele><time>2026-05-01T07:45:23.571Z</time></trkpt><trkpt lat="39.93895" lon="8.8255983"><ele>565.0</ele><time>2026-05-01T07:45:24.572Z</time></trkpt><trkpt lat="39.9388617" lon="8.8254517"><ele>565.0</ele><time>2026-05-01T07:45:25.57Z</time></trkpt><trkpt lat="39.938765" lon="8.82533"><ele>565.0</ele><time>2026-05-01T07:45:26.568Z</time></trkpt><trkpt lat="39.9386767" lon="8.8252183"><ele>565.0</ele><time>2026-05-01T07:45:27.574Z</time></trkpt><trkpt lat="39.9385783" lon="8.8251317"><ele>565.0</ele><time>2026-05-01T07:45:28.571Z</time></trkpt><trkpt lat="39.938465" lon="8.8250583"><ele>569.75</ele><time>2026-05-01T07:45:29.574Z</time></trkpt><trkpt lat="39.938345" lon="8.8250083"><ele>574.5</ele><time>2026-05-01T07:45:30.571Z</time></trkpt><trkpt lat="39.9382217" lon="8.8249633"><ele>579.25</ele><time>2026-05-01T07:45:31.573Z</time></trkpt><trkpt lat="39.9381017" lon="8.8249167"><ele>584.0</ele><time>2026-05-01T07:45:32.611Z</time></trkpt><trkpt lat="39.9379817" lon="8.8248533"><ele>584.0</ele><time>2026-05-01T07:45:33.569Z</time></trkpt><trkpt lat="39.937865" lon="8.824775"><ele>584.0</ele><time>2026-05-01T07:45:34.572Z</time></trkpt><trkpt lat="39.937745" lon="8.8247067"><ele>584.0</ele><time>2026-05-01T07:45:35.568Z</time></trkpt><trkpt lat="39.9376233" lon="8.8246433"><ele>584.0</ele><time>2026-05-01T07:45:36.573Z</time></trkpt><trkpt lat="39.9374933" lon="8.8245733"><ele>581.75</ele><time>2026-05-01T07:45:37.571Z</time></trkpt><trkpt lat="39.9373683" lon="8.8245233"><ele>579.5</ele><time>2026-05-01T07:45:38.609Z</time></trkpt><trkpt lat="39.9372433" lon="8.82447"><ele>577.25</ele><time>2026-05-01T07:45:39.569Z</time></trkpt><trkpt lat="39.9371167" lon="8.8244183"><ele>575.0</ele><time>2026-05-01T07:45:40.571Z</time></trkpt><trkpt lat="39.9369867" lon="8.8243633"><ele>581.75</ele><time>2026-05-01T07:45:41.569Z</time></trkpt><trkpt lat="39.9368517" lon="8.8242983"><ele>588.5</ele><time>2026-05-01T07:45:42.573Z</time></trkpt><trkpt lat="39.93672" lon="8.8242317"><ele>595.25</ele><time>2026-05-01T07:45:43.572Z</time></trkpt><trkpt lat="39.9365983" lon="8.8241767"><ele>602.0</ele><time>2026-05-01T07:45:44.615Z</time></trkpt><trkpt lat="39.9364783" lon="8.8241383"><ele>602.0</ele><time>2026-05-01T07:45:45.572Z</time></trkpt><trkpt lat="39.936355" lon="8.82412"><ele>602.0</ele><time>2026-05-01T07:45:46.567Z</time></trkpt><trkpt lat="39.9362233" lon="8.8241083"><ele>602.0</ele><time>2026-05-01T07:45:47.571Z</time></trkpt><trkpt lat="39.9360933" lon="8.8240967"><ele>602.0</ele><time>2026-05-01T07:45:48.573Z</time></trkpt><trkpt lat="39.93597" lon="8.824065"><ele>602.25</ele><time>2026-05-01T07:45:49.57Z</time></trkpt><trkpt lat="39.9358467" lon="8.8240633"><ele>602.5</ele><time>2026-05-01T07:45:50.613Z</time></trkpt><trkpt lat="39.9357233" lon="8.824065"><ele>602.75</ele><time>2026-05-01T07:45:51.57Z</time></trkpt><trkpt lat="39.9356" lon="8.8240717"><ele>603.0</ele><time>2026-05-01T07:45:52.57Z</time></trkpt><trkpt lat="39.9354867" lon="8.8240567"><ele>603.0</ele><time>2026-05-01T07:45:53.569Z</time></trkpt><trkpt lat="39.9353717" lon="8.8240617"><ele>603.0</ele><time>2026-05-01T07:45:54.573Z</time></trkpt><trkpt lat="39.9352667" lon="8.8240433"><ele>603.0</ele><time>2026-05-01T07:45:55.573Z</time></trkpt><trkpt lat="39.93515" lon="8.8239933"><ele>603.0</ele><time>2026-05-01T07:45:56.594Z</time></trkpt><trkpt lat="39.93502" lon="8.823925"><ele>602.5</ele><time>2026-05-01T07:45:57.572Z</time></trkpt><trkpt lat="39.934885" lon="8.8238517"><ele>602.0</ele><time>2026-05-01T07:45:58.57Z</time></trkpt><trkpt lat="39.934745" lon="8.8237783"><ele>601.5</ele><time>2026-05-01T07:45:59.573Z</time></trkpt><trkpt lat="39.9346367" lon="8.8236933"><ele>601.0</ele><time>2026-05-01T07:46:00.567Z</time></trkpt><trkpt lat="39.9345333" lon="8.8236183"><ele>601.0</ele><time>2026-05-01T07:46:01.573Z</time></trkpt><trkpt lat="39.9344217" lon="8.8235533"><ele>601.0</ele><time>2026-05-01T07:46:02.588Z</time></trkpt><trkpt lat="39.9343183" lon="8.823505"><ele>601.0</ele><time>2026-05-01T07:46:03.569Z</time></trkpt><trkpt lat="39.9342267" lon="8.8234683"><ele>601.0</ele><time>2026-05-01T07:46:04.569Z</time></trkpt><trkpt lat="39.9341467" lon="8.823445"><ele>601.0</ele><time>2026-05-01T07:46:05.573Z</time></trkpt><trkpt lat="39.9340733" lon="8.82344"><ele>600.1666666666667</ele><time>2026-05-01T07:46:06.572Z</time></trkpt><trkpt lat="39.9339933" lon="8.823435"><ele>599.3333333333334</ele><time>2026-05-01T07:46:07.57Z</time></trkpt><trkpt lat="39.9339333" lon="8.8234783"><ele>598.5</ele><time>2026-05-01T07:46:08.612Z</time></trkpt><trkpt lat="39.9338567" lon="8.8235167"><ele>597.6666666666666</ele><time>2026-05-01T07:46:09.574Z</time></trkpt><trkpt lat="39.9337917" lon="8.8235583"><ele>596.8333333333333</ele><time>2026-05-01T07:46:10.574Z</time></trkpt><trkpt lat="39.9337233" lon="8.823625"><ele>596.0</ele><time>2026-05-01T07:46:12.568Z</time></trkpt><trkpt lat="39.9336667" lon="8.8237217"><ele>596.0</ele><time>2026-05-01T07:46:14.617Z</time></trkpt><trkpt lat="39.933595" lon="8.8238067"><ele>596.0</ele><time>2026-05-01T07:46:16.571Z</time></trkpt><trkpt lat="39.9335567" lon="8.8239017"><ele>596.0</ele><time>2026-05-01T07:46:18.573Z</time></trkpt><trkpt lat="39.9335717" lon="8.8239867"><ele>596.0</ele><time>2026-05-01T07:46:20.611Z</time></trkpt><trkpt lat="39.9336317" lon="8.8240533"><ele>596.0</ele><time>2026-05-01T07:46:22.573Z</time></trkpt><trkpt lat="39.9337233" lon="8.8241233"><ele>596.0</ele><time>2026-05-01T07:46:24.573Z</time></trkpt><trkpt lat="39.9338117" lon="8.8242033"><ele>596.0</ele><time>2026-05-01T07:46:26.59Z</time></trkpt><trkpt lat="39.933885" lon="8.8243033"><ele>596.0</ele><time>2026-05-01T07:46:28.571Z</time></trkpt><trkpt lat="39.9339383" lon="8.8244033"><ele>596.0</ele><time>2026-05-01T07:46:30.571Z</time></trkpt><trkpt lat="39.9339483" lon="8.8245583"><ele>596.0</ele><time>2026-05-01T07:46:32.612Z</time></trkpt><trkpt lat="39.933915" lon="8.8247033"><ele>596.0</ele><time>2026-05-01T07:46:34.569Z</time></trkpt><trkpt lat="39.933895" lon="8.8247917"><ele>594.0</ele><time>2026-05-01T07:46:35.568Z</time></trkpt><trkpt lat="39.93387" lon="8.8249083"><ele>592.0</ele><time>2026-05-01T07:46:36.571Z</time></trkpt><trkpt lat="39.9338483" lon="8.825035"><ele>590.0</ele><time>2026-05-01T07:46:37.569Z</time></trkpt><trkpt lat="39.9338267" lon="8.8251417"><ele>588.0</ele><time>2026-05-01T07:46:38.611Z</time></trkpt><trkpt lat="39.9338033" lon="8.8252467"><ele>586.0</ele><time>2026-05-01T07:46:39.572Z</time></trkpt><trkpt lat="39.93377" lon="8.8253467"><ele>584.0</ele><time>2026-05-01T07:46:40.567Z</time></trkpt><trkpt lat="39.93373" lon="8.825445"><ele>580.6</ele><time>2026-05-01T07:46:41.573Z</time></trkpt><trkpt lat="39.933685" lon="8.82554"><ele>577.2</ele><time>2026-05-01T07:46:42.572Z</time></trkpt><trkpt lat="39.933635" lon="8.82564"><ele>573.8000000000001</ele><time>2026-05-01T07:46:43.571Z</time></trkpt><trkpt lat="39.9335817" lon="8.825755"><ele>570.4</ele><time>2026-05-01T07:46:44.613Z</time></trkpt><trkpt lat="39.93354" lon="8.8258617"><ele>567.0</ele><time>2026-05-01T07:46:45.571Z</time></trkpt><trkpt lat="39.9335067" lon="8.82597"><ele>564.5</ele><time>2026-05-01T07:46:46.568Z</time></trkpt><trkpt lat="39.93349" lon="8.826085"><ele>562.0</ele><time>2026-05-01T07:46:47.572Z</time></trkpt><trkpt lat="39.9334767" lon="8.8262017"><ele>559.5</ele><time>2026-05-01T07:46:48.57Z</time></trkpt><trkpt lat="39.9334817" lon="8.8263133"><ele>557.0</ele><time>2026-05-01T07:46:49.572Z</time></trkpt><trkpt lat="39.9334933" lon="8.8264183"><ele>554.5</ele><time>2026-05-01T07:46:50.615Z</time></trkpt><trkpt lat="39.9335083" lon="8.8265233"><ele>552.0</ele><time>2026-05-01T07:46:51.571Z</time></trkpt><trkpt lat="39.9335283" lon="8.8266283"><ele>552.0</ele><time>2026-05-01T07:46:52.567Z</time></trkpt><trkpt lat="39.9335517" lon="8.8267333"><ele>552.0</ele><time>2026-05-01T07:46:53.573Z</time></trkpt><trkpt lat="39.9335683" lon="8.8268433"><ele>552.0</ele><time>2026-05-01T07:46:54.574Z</time></trkpt><trkpt lat="39.9335817" lon="8.8269567"><ele>552.0</ele><time>2026-05-01T07:46:55.568Z</time></trkpt><trkpt lat="39.93359" lon="8.827075"><ele>552.0</ele><time>2026-05-01T07:46:56.597Z</time></trkpt><trkpt lat="39.93359" lon="8.8272"><ele>552.0</ele><time>2026-05-01T07:46:57.568Z</time></trkpt><trkpt lat="39.933585" lon="8.8273233"><ele>553.0</ele><time>2026-05-01T07:46:58.574Z</time></trkpt><trkpt lat="39.9335833" lon="8.8274767"><ele>554.0</ele><time>2026-05-01T07:46:59.573Z</time></trkpt><trkpt lat="39.9335933" lon="8.8276017"><ele>555.0</ele><time>2026-05-01T07:47:00.569Z</time></trkpt><trkpt lat="39.93362" lon="8.82771"><ele>556.0</ele><time>2026-05-01T07:47:01.571Z</time></trkpt><trkpt lat="39.93365" lon="8.8278117"><ele>557.0</ele><time>2026-05-01T07:47:02.593Z</time></trkpt><trkpt lat="39.9336783" lon="8.8279067"><ele>557.0</ele><time>2026-05-01T07:47:03.571Z</time></trkpt><trkpt lat="39.9337367" lon="8.8279917"><ele>557.0</ele><time>2026-05-01T07:47:04.571Z</time></trkpt><trkpt lat="39.9337833" lon="8.828095"><ele>557.0</ele><time>2026-05-01T07:47:05.577Z</time></trkpt><trkpt lat="39.9338267" lon="8.8281983"><ele>557.0</ele><time>2026-05-01T07:47:06.569Z</time></trkpt><trkpt lat="39.933865" lon="8.8283067"><ele>557.0</ele><time>2026-05-01T07:47:07.573Z</time></trkpt><trkpt lat="39.933895" lon="8.82842"><ele>559.0</ele><time>2026-05-01T07:47:08.618Z</time></trkpt><trkpt lat="39.93392" lon="8.8285367"><ele>561.0</ele><time>2026-05-01T07:47:09.57Z</time></trkpt><trkpt lat="39.9339383" lon="8.8286567"><ele>563.0</ele><time>2026-05-01T07:47:10.57Z</time></trkpt><trkpt lat="39.9339583" lon="8.828785"><ele>565.0</ele><time>2026-05-01T07:47:11.57Z</time></trkpt><trkpt lat="39.9339883" lon="8.8288983"><ele>567.0</ele><time>2026-05-01T07:47:12.568Z</time></trkpt><trkpt lat="39.9340117" lon="8.8289933"><ele>567.0</ele><time>2026-05-01T07:47:13.568Z</time></trkpt><trkpt lat="39.9340333" lon="8.8290733"><ele>567.0</ele><time>2026-05-01T07:47:14.613Z</time></trkpt><trkpt lat="39.9340567" lon="8.829205"><ele>567.0</ele><time>2026-05-01T07:47:16.572Z</time></trkpt><trkpt lat="39.9339683" lon="8.8292167"><ele>567.0</ele><time>2026-05-01T07:47:33.566Z</time></trkpt><trkpt lat="39.933855" lon="8.8291733"><ele>567.0</ele><time>2026-05-01T07:47:35.568Z</time></trkpt><trkpt lat="39.933785" lon="8.8291433"><ele>567.0</ele><time>2026-05-01T07:47:36.575Z</time></trkpt><trkpt lat="39.9337183" lon="8.8291183"><ele>567.0</ele><time>2026-05-01T07:47:37.57Z</time></trkpt><trkpt lat="39.9336467" lon="8.8290917"><ele>567.0</ele><time>2026-05-01T07:47:38.609Z</time></trkpt><trkpt lat="39.93357" lon="8.8290633"><ele>567.0</ele><time>2026-05-01T07:47:39.571Z</time></trkpt><trkpt lat="39.9334933" lon="8.8290317"><ele>567.0</ele><time>2026-05-01T07:47:40.573Z</time></trkpt><trkpt lat="39.9334117" lon="8.8289933"><ele>567.0</ele><time>2026-05-01T07:47:41.572Z</time></trkpt><trkpt lat="39.93333" lon="8.8289583"><ele>567.0</ele><time>2026-05-01T07:47:42.569Z</time></trkpt><trkpt lat="39.9332383" lon="8.82892"><ele>569.0</ele><time>2026-05-01T07:47:43.571Z</time></trkpt><trkpt lat="39.9331317" lon="8.8288717"><ele>571.0</ele><time>2026-05-01T07:47:44.612Z</time></trkpt><trkpt lat="39.933025" lon="8.828845"><ele>573.0</ele><time>2026-05-01T07:47:45.571Z</time></trkpt><trkpt lat="39.9329167" lon="8.82884"><ele>575.0</ele><time>2026-05-01T07:47:46.57Z</time></trkpt><trkpt lat="39.932815" lon="8.8288417"><ele>577.0</ele><time>2026-05-01T07:47:47.571Z</time></trkpt><trkpt lat="39.93272" lon="8.8288483"><ele>577.0</ele><time>2026-05-01T07:47:48.568Z</time></trkpt><trkpt lat="39.93263" lon="8.8288583"><ele>577.0</ele><time>2026-05-01T07:47:49.571Z</time></trkpt><trkpt lat="39.9325383" lon="8.8288683"><ele>577.0</ele><time>2026-05-01T07:47:50.611Z</time></trkpt><trkpt lat="39.9324483" lon="8.8288783"><ele>577.0</ele><time>2026-05-01T07:47:51.568Z</time></trkpt><trkpt lat="39.93236" lon="8.82889"><ele>577.0</ele><time>2026-05-01T07:47:52.568Z</time></trkpt><trkpt lat="39.9322783" lon="8.82891"><ele>577.0</ele><time>2026-05-01T07:47:53.571Z</time></trkpt><trkpt lat="39.932195" lon="8.8289383"><ele>578.1666666666667</ele><time>2026-05-01T07:47:54.571Z</time></trkpt><trkpt lat="39.93211" lon="8.828975"><ele>579.3333333333334</ele><time>2026-05-01T07:47:55.572Z</time></trkpt><trkpt lat="39.9320383" lon="8.829035"><ele>580.5</ele><time>2026-05-01T07:47:56.634Z</time></trkpt><trkpt lat="39.93197" lon="8.82911"><ele>581.6666666666666</ele><time>2026-05-01T07:47:57.568Z</time></trkpt><trkpt lat="39.9319117" lon="8.829195"><ele>582.8333333333333</ele><time>2026-05-01T07:47:58.573Z</time></trkpt><trkpt lat="39.93185" lon="8.829275"><ele>584.0</ele><time>2026-05-01T07:47:59.565Z</time></trkpt><trkpt lat="39.9317917" lon="8.8293517"><ele>584.0</ele><time>2026-05-01T07:48:00.569Z</time></trkpt><trkpt lat="39.9317267" lon="8.8294267"><ele>584.0</ele><time>2026-05-01T07:48:01.571Z</time></trkpt><trkpt lat="39.9316617" lon="8.8295"><ele>584.0</ele><time>2026-05-01T07:48:02.586Z</time></trkpt><trkpt lat="39.9315983" lon="8.8295733"><ele>584.0</ele><time>2026-05-01T07:48:03.569Z</time></trkpt><trkpt lat="39.9315317" lon="8.82967"><ele>584.0</ele><time>2026-05-01T07:48:04.569Z</time></trkpt><trkpt lat="39.9314833" lon="8.8297783"><ele>590.6</ele><time>2026-05-01T07:48:05.567Z</time></trkpt><trkpt lat="39.9314333" lon="8.8298917"><ele>597.2</ele><time>2026-05-01T07:48:06.572Z</time></trkpt><trkpt lat="39.9313783" lon="8.8300017"><ele>603.8000000000001</ele><time>2026-05-01T07:48:07.568Z</time></trkpt><trkpt lat="39.9313233" lon="8.83011"><ele>610.4</ele><time>2026-05-01T07:48:08.609Z</time></trkpt><trkpt lat="39.9312683" lon="8.8302267"><ele>617.0</ele><time>2026-05-01T07:48:09.567Z</time></trkpt><trkpt lat="39.9311917" lon="8.83033"><ele>617.25</ele><time>2026-05-01T07:48:10.57Z</time></trkpt><trkpt lat="39.9311067" lon="8.83046"><ele>617.5</ele><time>2026-05-01T07:48:11.572Z</time></trkpt><trkpt lat="39.9310233" lon="8.8305867"><ele>617.75</ele><time>2026-05-01T07:48:12.571Z</time></trkpt><trkpt lat="39.9309533" lon="8.8307317"><ele>618.0</ele><time>2026-05-01T07:48:13.57Z</time></trkpt><trkpt lat="39.9308833" lon="8.830885"><ele>626.0</ele><time>2026-05-01T07:48:14.617Z</time></trkpt><trkpt lat="39.930815" lon="8.83104"><ele>634.0</ele><time>2026-05-01T07:48:15.569Z</time></trkpt><trkpt lat="39.93075" lon="8.831185"><ele>642.0</ele><time>2026-05-01T07:48:16.571Z</time></trkpt><trkpt lat="39.9306833" lon="8.8313283"><ele>650.0</ele><time>2026-05-01T07:48:17.573Z</time></trkpt><trkpt lat="39.93061" lon="8.8314383"><ele>650.0</ele><time>2026-05-01T07:48:18.571Z</time></trkpt><trkpt lat="39.930555" lon="8.8315567"><ele>650.0</ele><time>2026-05-01T07:48:19.573Z</time></trkpt><trkpt lat="39.9304967" lon="8.8316767"><ele>650.0</ele><time>2026-05-01T07:48:20.613Z</time></trkpt><trkpt lat="39.93045" lon="8.83175"><ele>650.0</ele><time>2026-05-01T07:48:21.569Z</time></trkpt><trkpt lat="39.9303717" lon="8.8318383"><ele>650.0</ele><time>2026-05-01T07:48:22.571Z</time></trkpt><trkpt lat="39.9302867" lon="8.8319217"><ele>650.2</ele><time>2026-05-01T07:48:23.568Z</time></trkpt><trkpt lat="39.9302117" lon="8.8320067"><ele>650.4</ele><time>2026-05-01T07:48:24.571Z</time></trkpt><trkpt lat="39.9301183" lon="8.83208"><ele>650.5999999999999</ele><time>2026-05-01T07:48:25.57Z</time></trkpt><trkpt lat="39.9300367" lon="8.8321233"><ele>650.8</ele><time>2026-05-01T07:48:27.571Z</time></trkpt><trkpt lat="39.9299617" lon="8.8320317"><ele>651.0</ele><time>2026-05-01T07:48:39.572Z</time></trkpt><trkpt lat="39.92988" lon="8.8319367"><ele>651.0</ele><time>2026-05-01T07:48:41.566Z</time></trkpt><trkpt lat="39.92982" lon="8.8318833"><ele>651.0</ele><time>2026-05-01T07:48:42.572Z</time></trkpt><trkpt lat="39.92975" lon="8.8318233"><ele>651.0</ele><time>2026-05-01T07:48:43.571Z</time></trkpt><trkpt lat="39.9296683" lon="8.8317517"><ele>651.0</ele><time>2026-05-01T07:48:44.612Z</time></trkpt><trkpt lat="39.9295867" lon="8.831685"><ele>651.0</ele><time>2026-05-01T07:48:45.571Z</time></trkpt><trkpt lat="39.9295217" lon="8.831615"><ele>651.0</ele><time>2026-05-01T07:48:46.571Z</time></trkpt><trkpt lat="39.9294633" lon="8.8315483"><ele>652.4</ele><time>2026-05-01T07:48:47.568Z</time></trkpt><trkpt lat="39.9294183" lon="8.8314817"><ele>653.8</ele><time>2026-05-01T07:48:48.567Z</time></trkpt><trkpt lat="39.92939" lon="8.8314033"><ele>655.1999999999999</ele><time>2026-05-01T07:48:49.57Z</time></trkpt><trkpt lat="39.9293567" lon="8.8312467"><ele>656.5999999999999</ele><time>2026-05-01T07:48:51.571Z</time></trkpt><trkpt lat="39.92938" lon="8.831095"><ele>658.0</ele><time>2026-05-01T07:48:53.57Z</time></trkpt><trkpt lat="39.9294317" lon="8.8309583"><ele>658.8</ele><time>2026-05-01T07:48:55.571Z</time></trkpt><trkpt lat="39.9294383" lon="8.830875"><ele>659.5999999999999</ele><time>2026-05-01T07:48:56.566Z</time></trkpt><trkpt lat="39.9294833" lon="8.83078"><ele>660.4000000000001</ele><time>2026-05-01T07:48:58.57Z</time></trkpt><trkpt lat="39.9295267" lon="8.83068"><ele>661.2</ele><time>2026-05-01T07:49:00.57Z</time></trkpt><trkpt lat="39.929575" lon="8.8305533"><ele>662.0</ele><time>2026-05-01T07:49:02.613Z</time></trkpt><trkpt lat="39.92965" lon="8.830415"><ele>662.0</ele><time>2026-05-01T07:49:04.569Z</time></trkpt><trkpt lat="39.9297083" lon="8.8303283"><ele>662.0</ele><time>2026-05-01T07:49:05.567Z</time></trkpt><trkpt lat="39.9297833" lon="8.8302333"><ele>662.0</ele><time>2026-05-01T07:49:06.568Z</time></trkpt><trkpt lat="39.92986" lon="8.8301317"><ele>662.0</ele><time>2026-05-01T07:49:07.569Z</time></trkpt><trkpt lat="39.929945" lon="8.8300217"><ele>662.0</ele><time>2026-05-01T07:49:08.611Z</time></trkpt><trkpt lat="39.9300367" lon="8.8299067"><ele>658.25</ele><time>2026-05-01T07:49:09.568Z</time></trkpt><trkpt lat="39.930145" lon="8.82976"><ele>654.5</ele><time>2026-05-01T07:49:10.57Z</time></trkpt><trkpt lat="39.930245" lon="8.8296583"><ele>650.75</ele><time>2026-05-01T07:49:11.571Z</time></trkpt><trkpt lat="39.9303733" lon="8.8295517"><ele>647.0</ele><time>2026-05-01T07:49:12.569Z</time></trkpt><trkpt lat="39.93049" lon="8.8294567"><ele>647.0</ele><time>2026-05-01T07:49:13.567Z</time></trkpt><trkpt lat="39.9305933" lon="8.8293433"><ele>647.0</ele><time>2026-05-01T07:49:14.612Z</time></trkpt><trkpt lat="39.930675" lon="8.8292167"><ele>647.0</ele><time>2026-05-01T07:49:15.569Z</time></trkpt><trkpt lat="39.9307483" lon="8.8290717"><ele>647.0</ele><time>2026-05-01T07:49:16.567Z</time></trkpt><trkpt lat="39.930815" lon="8.8289317"><ele>647.8</ele><time>2026-05-01T07:49:17.571Z</time></trkpt><trkpt lat="39.9308667" lon="8.8287917"><ele>648.6</ele><time>2026-05-01T07:49:18.568Z</time></trkpt><trkpt lat="39.9309167" lon="8.8286767"><ele>649.4</ele><time>2026-05-01T07:49:19.569Z</time></trkpt><trkpt lat="39.93095" lon="8.8285567"><ele>650.1999999999999</ele><time>2026-05-01T07:49:20.611Z</time></trkpt><trkpt lat="39.93096" lon="8.8284317"><ele>651.0</ele><time>2026-05-01T07:49:21.571Z</time></trkpt><trkpt lat="39.9309617" lon="8.82827"><ele>651.5999999999999</ele><time>2026-05-01T07:49:22.574Z</time></trkpt><trkpt lat="39.9309383" lon="8.82811"><ele>652.2</ele><time>2026-05-01T07:49:23.573Z</time></trkpt><trkpt lat="39.9309133" lon="8.82796"><ele>652.8</ele><time>2026-05-01T07:49:24.573Z</time></trkpt><trkpt lat="39.9308817" lon="8.8278267"><ele>653.4000000000001</ele><time>2026-05-01T07:49:25.569Z</time></trkpt><trkpt lat="39.9308617" lon="8.8277017"><ele>654.0</ele><time>2026-05-01T07:49:26.572Z</time></trkpt><trkpt lat="39.9308467" lon="8.8275917"><ele>654.1666666666666</ele><time>2026-05-01T07:49:27.569Z</time></trkpt><trkpt lat="39.9308333" lon="8.8274917"><ele>654.3333333333334</ele><time>2026-05-01T07:49:28.572Z</time></trkpt><trkpt lat="39.9308083" lon="8.8274083"><ele>654.5</ele><time>2026-05-01T07:49:29.571Z</time></trkpt><trkpt lat="39.93074" lon="8.8273183"><ele>654.6666666666667</ele><time>2026-05-01T07:49:31.569Z</time></trkpt><trkpt lat="39.93066" lon="8.8273233"><ele>654.8333333333334</ele><time>2026-05-01T07:49:33.568Z</time></trkpt><trkpt lat="39.9305583" lon="8.8273883"><ele>655.0</ele><time>2026-05-01T07:49:35.567Z</time></trkpt><trkpt lat="39.93049" lon="8.8274483"><ele>655.0</ele><time>2026-05-01T07:49:36.569Z</time></trkpt><trkpt lat="39.9304183" lon="8.8275183"><ele>655.0</ele><time>2026-05-01T07:49:37.565Z</time></trkpt><trkpt lat="39.9303683" lon="8.8275733"><ele>655.0</ele><time>2026-05-01T07:49:38.612Z</time></trkpt><trkpt lat="39.93031" lon="8.8276367"><ele>655.0</ele><time>2026-05-01T07:49:39.572Z</time></trkpt><trkpt lat="39.930235" lon="8.8277183"><ele>655.0</ele><time>2026-05-01T07:49:41.568Z</time></trkpt><trkpt lat="39.93017" lon="8.82784"><ele>655.0</ele><time>2026-05-01T07:50:10.569Z</time></trkpt><trkpt lat="39.9301183" lon="8.8278917"><ele>653.2</ele><time>2026-05-01T07:50:12.57Z</time></trkpt><trkpt lat="39.930025" lon="8.8279783"><ele>651.4</ele><time>2026-05-01T07:50:14.608Z</time></trkpt><trkpt lat="39.929965" lon="8.828035"><ele>649.5999999999999</ele><time>2026-05-01T07:50:15.572Z</time></trkpt><trkpt lat="39.929895" lon="8.8281033"><ele>647.8</ele><time>2026-05-01T07:50:16.57Z</time></trkpt><trkpt lat="39.92982" lon="8.8281683"><ele>646.0</ele><time>2026-05-01T07:50:17.568Z</time></trkpt><trkpt lat="39.9297367" lon="8.82824"><ele>646.0</ele><time>2026-05-01T07:50:18.568Z</time></trkpt><trkpt lat="39.9296517" lon="8.82831"><ele>646.0</ele><time>2026-05-01T07:50:19.573Z</time></trkpt><trkpt lat="39.92957" lon="8.828395"><ele>646.0</ele><time>2026-05-01T07:50:20.608Z</time></trkpt><trkpt lat="39.929495" lon="8.8284583"><ele>646.0</ele><time>2026-05-01T07:50:21.572Z</time></trkpt><trkpt lat="39.9294183" lon="8.8284967"><ele>646.0</ele><time>2026-05-01T07:50:22.57Z</time></trkpt><trkpt lat="39.9293167" lon="8.8285517"><ele>646.8333333333334</ele><time>2026-05-01T07:50:23.568Z</time></trkpt><trkpt lat="39.92923" lon="8.8286017"><ele>647.6666666666667</ele><time>2026-05-01T07:50:24.571Z</time></trkpt><trkpt lat="39.929155" lon="8.8286383"><ele>648.5</ele><time>2026-05-01T07:50:25.572Z</time></trkpt><trkpt lat="39.9290867" lon="8.82865"><ele>649.3333333333334</ele><time>2026-05-01T07:50:26.637Z</time></trkpt><trkpt lat="39.9289817" lon="8.82868"><ele>650.1666666666666</ele><time>2026-05-01T07:50:28.572Z</time></trkpt><trkpt lat="39.9289033" lon="8.8287133"><ele>651.0</ele><time>2026-05-01T07:50:30.572Z</time></trkpt><trkpt lat="39.9288633" lon="8.828795"><ele>651.0</ele><time>2026-05-01T07:50:33.568Z</time></trkpt><trkpt lat="39.928955" lon="8.8287983"><ele>651.0</ele><time>2026-05-01T07:50:39.567Z</time></trkpt><trkpt lat="39.9290283" lon="8.8287217"><ele>651.0</ele><time>2026-05-01T07:50:40.571Z</time></trkpt><trkpt lat="39.9291067" lon="8.82867"><ele>651.0</ele><time>2026-05-01T07:50:41.568Z</time></trkpt><trkpt lat="39.9292183" lon="8.828605"><ele>651.0</ele><time>2026-05-01T07:50:42.572Z</time></trkpt><trkpt lat="39.9293317" lon="8.8285367"><ele>649.75</ele><time>2026-05-01T07:50:43.569Z</time></trkpt><trkpt lat="39.92945" lon="8.82846"><ele>648.5</ele><time>2026-05-01T07:50:44.605Z</time></trkpt><trkpt lat="39.929585" lon="8.8283383"><ele>647.25</ele><time>2026-05-01T07:50:45.568Z</time></trkpt><trkpt lat="39.9297117" lon="8.8282433"><ele>646.0</ele><time>2026-05-01T07:50:46.569Z</time></trkpt><trkpt lat="39.92985" lon="8.828125"><ele>646.0</ele><time>2026-05-01T07:50:47.568Z</time></trkpt><trkpt lat="39.930005" lon="8.827985"><ele>646.0</ele><time>2026-05-01T07:50:48.567Z</time></trkpt><trkpt lat="39.93013" lon="8.8278583"><ele>646.0</ele><time>2026-05-01T07:50:49.572Z</time></trkpt><trkpt lat="39.9302417" lon="8.8277367"><ele>647.8</ele><time>2026-05-01T07:50:50.608Z</time></trkpt><trkpt lat="39.930345" lon="8.8276317"><ele>649.5999999999999</ele><time>2026-05-01T07:50:51.568Z</time></trkpt><trkpt lat="39.9304367" lon="8.827535"><ele>651.4</ele><time>2026-05-01T07:50:52.571Z</time></trkpt><trkpt lat="39.9305217" lon="8.8274617"><ele>653.2</ele><time>2026-05-01T07:50:53.567Z</time></trkpt><trkpt lat="39.930595" lon="8.8274017"><ele>655.0</ele><time>2026-05-01T07:50:54.568Z</time></trkpt><trkpt lat="39.930665" lon="8.8273617"><ele>655.0</ele><time>2026-05-01T07:50:55.568Z</time></trkpt><trkpt lat="39.9307433" lon="8.827475"><ele>655.0</ele><time>2026-05-01T07:50:57.573Z</time></trkpt><trkpt lat="39.930785" lon="8.82756"><ele>655.0</ele><time>2026-05-01T07:50:58.568Z</time></trkpt><trkpt lat="39.93084" lon="8.8276517"><ele>655.0</ele><time>2026-05-01T07:50:59.568Z</time></trkpt><trkpt lat="39.9308833" lon="8.82784"><ele>655.0</ele><time>2026-05-01T07:51:00.569Z</time></trkpt><trkpt lat="39.9309283" lon="8.8280033"><ele>651.25</ele><time>2026-05-01T07:51:01.57Z</time></trkpt><trkpt lat="39.9309717" lon="8.828185"><ele>647.5</ele><time>2026-05-01T07:51:02.61Z</time></trkpt><trkpt lat="39.9309817" lon="8.828355"><ele>643.75</ele><time>2026-05-01T07:51:03.574Z</time></trkpt><trkpt lat="39.9309717" lon="8.8285133"><ele>640.0</ele><time>2026-05-01T07:51:04.571Z</time></trkpt><trkpt lat="39.9309333" lon="8.82869"><ele>643.6666666666667</ele><time>2026-05-01T07:51:05.573Z</time></trkpt><trkpt lat="39.9308717" lon="8.82888"><ele>647.3333333333334</ele><time>2026-05-01T07:51:06.57Z</time></trkpt><trkpt lat="39.93079" lon="8.8290717"><ele>651.0</ele><time>2026-05-01T07:51:07.569Z</time></trkpt><trkpt lat="39.930705" lon="8.8292433"><ele>649.6666666666666</ele><time>2026-05-01T07:51:08.602Z</time></trkpt><trkpt lat="39.93061" lon="8.8293983"><ele>648.3333333333333</ele><time>2026-05-01T07:51:09.569Z</time></trkpt><trkpt lat="39.930505" lon="8.8295417"><ele>647.0</ele><time>2026-05-01T07:51:10.571Z</time></trkpt><trkpt lat="39.930395" lon="8.829675"><ele>647.0</ele><time>2026-05-01T07:51:11.569Z</time></trkpt><trkpt lat="39.9302867" lon="8.82981"><ele>647.0</ele><time>2026-05-01T07:51:12.572Z</time></trkpt><trkpt lat="39.9301833" lon="8.8299317"><ele>647.0</ele><time>2026-05-01T07:51:13.572Z</time></trkpt><trkpt lat="39.9300917" lon="8.8300433"><ele>647.0</ele><time>2026-05-01T07:51:14.601Z</time></trkpt><trkpt lat="39.9299983" lon="8.8301417"><ele>649.5</ele><time>2026-05-01T07:51:15.571Z</time></trkpt><trkpt lat="39.9299233" lon="8.83023"><ele>652.0</ele><time>2026-05-01T07:51:16.571Z</time></trkpt><trkpt lat="39.9298533" lon="8.8303233"><ele>654.5</ele><time>2026-05-01T07:51:17.571Z</time></trkpt><trkpt lat="39.92981" lon="8.8304083"><ele>657.0</ele><time>2026-05-01T07:51:18.572Z</time></trkpt><trkpt lat="39.9297783" lon="8.8304817"><ele>659.5</ele><time>2026-05-01T07:51:19.567Z</time></trkpt><trkpt lat="39.9297467" lon="8.8305633"><ele>662.0</ele><time>2026-05-01T07:51:20.605Z</time></trkpt><trkpt lat="39.92974" lon="8.830665"><ele>662.0</ele><time>2026-05-01T07:51:23.572Z</time></trkpt><trkpt lat="39.9298117" lon="8.8306883"><ele>662.0</ele><time>2026-05-01T07:51:26.636Z</time></trkpt><trkpt lat="39.9298967" lon="8.8306517"><ele>662.0</ele><time>2026-05-01T07:51:39.57Z</time></trkpt><trkpt lat="39.9298117" lon="8.830675"><ele>662.0</ele><time>2026-05-01T07:53:11.566Z</time></trkpt><trkpt lat="39.92974" lon="8.8306517"><ele>662.0</ele><time>2026-05-01T07:54:06.569Z</time></trkpt><trkpt lat="39.929685" lon="8.83061"><ele>662.0</ele><time>2026-05-01T07:54:09.565Z</time></trkpt><trkpt lat="39.9297017" lon="8.8305083"><ele>662.0</ele><time>2026-05-01T07:54:11.567Z</time></trkpt><trkpt lat="39.9297567" lon="8.8303817"><ele>662.0</ele><time>2026-05-01T07:54:13.569Z</time></trkpt><trkpt lat="39.9297967" lon="8.830305"><ele>662.0</ele><time>2026-05-01T07:54:14.615Z</time></trkpt><trkpt lat="39.9298533" lon="8.8302183"><ele>662.0</ele><time>2026-05-01T07:54:15.564Z</time></trkpt><trkpt lat="39.9299167" lon="8.83014"><ele>662.0</ele><time>2026-05-01T07:54:16.567Z</time></trkpt><trkpt lat="39.9299867" lon="8.83006"><ele>661.6666666666666</ele><time>2026-05-01T07:54:17.569Z</time></trkpt><trkpt lat="39.9300517" lon="8.829985"><ele>661.3333333333333</ele><time>2026-05-01T07:54:18.572Z</time></trkpt><trkpt lat="39.9301133" lon="8.8299067"><ele>661.0</ele><time>2026-05-01T07:54:19.568Z</time></trkpt><trkpt lat="39.930175" lon="8.8298333"><ele>660.6666666666666</ele><time>2026-05-01T07:54:20.618Z</time></trkpt><trkpt lat="39.9302417" lon="8.8297617"><ele>660.3333333333334</ele><time>2026-05-01T07:54:21.566Z</time></trkpt><trkpt lat="39.930315" lon="8.82968"><ele>660.0</ele><time>2026-05-01T07:54:22.57Z</time></trkpt><trkpt lat="39.9304217" lon="8.8295867"><ele>658.2</ele><time>2026-05-01T07:54:23.565Z</time></trkpt><trkpt lat="39.9305133" lon="8.8295083"><ele>656.4</ele><time>2026-05-01T07:54:24.569Z</time></trkpt><trkpt lat="39.9306017" lon="8.82941"><ele>654.5999999999999</ele><time>2026-05-01T07:54:25.569Z</time></trkpt><trkpt lat="39.93066" lon="8.8293183"><ele>652.8</ele><time>2026-05-01T07:54:26.636Z</time></trkpt><trkpt lat="39.9307217" lon="8.8292117"><ele>651.0</ele><time>2026-05-01T07:54:27.57Z</time></trkpt><trkpt lat="39.93077" lon="8.8290917"><ele>651.0</ele><time>2026-05-01T07:54:28.569Z</time></trkpt><trkpt lat="39.9308233" lon="8.8289517"><ele>651.0</ele><time>2026-05-01T07:54:29.566Z</time></trkpt><trkpt lat="39.9308717" lon="8.8288233"><ele>651.0</ele><time>2026-05-01T07:54:30.565Z</time></trkpt><trkpt lat="39.930915" lon="8.8287017"><ele>651.0</ele><time>2026-05-01T07:54:31.568Z</time></trkpt><trkpt lat="39.9309533" lon="8.82859"><ele>651.0</ele><time>2026-05-01T07:54:32.638Z</time></trkpt><trkpt lat="39.9309767" lon="8.8284633"><ele>649.1666666666666</ele><time>2026-05-01T07:54:33.565Z</time></trkpt><trkpt lat="39.9309883" lon="8.8283417"><ele>647.3333333333334</ele><time>2026-05-01T07:54:34.567Z</time></trkpt><trkpt lat="39.93099" lon="8.82822"><ele>645.5</ele><time>2026-05-01T07:54:35.567Z</time></trkpt><trkpt lat="39.930985" lon="8.8281083"><ele>643.6666666666667</ele><time>2026-05-01T07:54:36.57Z</time></trkpt><trkpt lat="39.9309733" lon="8.8280017"><ele>641.8333333333334</ele><time>2026-05-01T07:54:37.57Z</time></trkpt><trkpt lat="39.930955" lon="8.8279083"><ele>640.0</ele><time>2026-05-01T07:54:38.618Z</time></trkpt><trkpt lat="39.9309333" lon="8.8278267"><ele>640.0</ele><time>2026-05-01T07:54:39.569Z</time></trkpt><trkpt lat="39.9308983" lon="8.8276833"><ele>640.0</ele><time>2026-05-01T07:54:41.569Z</time></trkpt><trkpt lat="39.930885" lon="8.827545"><ele>640.0</ele><time>2026-05-01T07:54:43.572Z</time></trkpt><trkpt lat="39.93083" lon="8.8274233"><ele>640.0</ele><time>2026-05-01T07:54:45.566Z</time></trkpt><trkpt lat="39.9307633" lon="8.8273567"><ele>640.0</ele><time>2026-05-01T07:54:47.572Z</time></trkpt><trkpt lat="39.9306617" lon="8.82739"><ele>642.3333333333334</ele><time>2026-05-01T07:54:49.576Z</time></trkpt><trkpt lat="39.9305883" lon="8.82745"><ele>644.6666666666667</ele><time>2026-05-01T07:54:50.616Z</time></trkpt><trkpt lat="39.9305183" lon="8.827515"><ele>647.0</ele><time>2026-05-01T07:54:51.566Z</time></trkpt><trkpt lat="39.9304417" lon="8.8275833"><ele>649.3333333333334</ele><time>2026-05-01T07:54:52.571Z</time></trkpt><trkpt lat="39.9303717" lon="8.8276467"><ele>651.6666666666666</ele><time>2026-05-01T07:54:53.572Z</time></trkpt><trkpt lat="39.9303" lon="8.8277117"><ele>654.0</ele><time>2026-05-01T07:54:54.569Z</time></trkpt><trkpt lat="39.9302217" lon="8.8277783"><ele>654.0</ele><time>2026-05-01T07:54:55.565Z</time></trkpt><trkpt lat="39.9301383" lon="8.827845"><ele>654.0</ele><time>2026-05-01T07:54:56.638Z</time></trkpt><trkpt lat="39.9300467" lon="8.827915"><ele>654.0</ele><time>2026-05-01T07:54:57.568Z</time></trkpt><trkpt lat="39.9299417" lon="8.82801"><ele>654.0</ele><time>2026-05-01T07:54:58.565Z</time></trkpt><trkpt lat="39.9298317" lon="8.8281117"><ele>652.4000000000001</ele><time>2026-05-01T07:54:59.574Z</time></trkpt><trkpt lat="39.9297483" lon="8.8281817"><ele>650.8</ele><time>2026-05-01T07:55:00.57Z</time></trkpt><trkpt lat="39.92965" lon="8.8282533"><ele>649.2</ele><time>2026-05-01T07:55:01.57Z</time></trkpt><trkpt lat="39.9295617" lon="8.8283183"><ele>647.5999999999999</ele><time>2026-05-01T07:55:02.626Z</time></trkpt><trkpt lat="39.929475" lon="8.82837"><ele>646.0</ele><time>2026-05-01T07:55:03.565Z</time></trkpt><trkpt lat="39.929385" lon="8.8284283"><ele>647.0</ele><time>2026-05-01T07:55:04.566Z</time></trkpt><trkpt lat="39.9292967" lon="8.8284883"><ele>648.0</ele><time>2026-05-01T07:55:05.57Z</time></trkpt><trkpt lat="39.9291833" lon="8.828545"><ele>649.0</ele><time>2026-05-01T07:55:06.574Z</time></trkpt><trkpt lat="39.9290767" lon="8.8286017"><ele>650.0</ele><time>2026-05-01T07:55:07.568Z</time></trkpt><trkpt lat="39.928995" lon="8.8286567"><ele>651.0</ele><time>2026-05-01T07:55:08.615Z</time></trkpt><trkpt lat="39.9289033" lon="8.8287383"><ele>648.5999999999999</ele><time>2026-05-01T07:55:09.571Z</time></trkpt><trkpt lat="39.92881" lon="8.8288283"><ele>646.1999999999999</ele><time>2026-05-01T07:55:10.57Z</time></trkpt><trkpt lat="39.928735" lon="8.8289283"><ele>643.8</ele><time>2026-05-01T07:55:11.57Z</time></trkpt><trkpt lat="39.9286867" lon="8.8290367"><ele>641.4</ele><time>2026-05-01T07:55:12.568Z</time></trkpt><trkpt lat="39.928635" lon="8.8291433"><ele>639.0</ele><time>2026-05-01T07:55:13.569Z</time></trkpt><trkpt lat="39.9285867" lon="8.8292333"><ele>637.6</ele><time>2026-05-01T07:55:14.615Z</time></trkpt><trkpt lat="39.92852" lon="8.82933"><ele>636.2</ele><time>2026-05-01T07:55:15.567Z</time></trkpt><trkpt lat="39.9284583" lon="8.8294067"><ele>634.8000000000001</ele><time>2026-05-01T07:55:16.57Z</time></trkpt><trkpt lat="39.928395" lon="8.829475"><ele>633.4</ele><time>2026-05-01T07:55:17.57Z</time></trkpt><trkpt lat="39.9283067" lon="8.8295467"><ele>632.0</ele><time>2026-05-01T07:55:18.568Z</time></trkpt><trkpt lat="39.92823" lon="8.82961"><ele>632.0</ele><time>2026-05-01T07:55:19.569Z</time></trkpt><trkpt lat="39.928155" lon="8.8296633"><ele>632.0</ele><time>2026-05-01T07:55:20.615Z</time></trkpt><trkpt lat="39.9280933" lon="8.8297117"><ele>632.0</ele><time>2026-05-01T07:55:21.57Z</time></trkpt><trkpt lat="39.9280317" lon="8.8297683"><ele>632.0</ele><time>2026-05-01T07:55:22.566Z</time></trkpt><trkpt lat="39.92797" lon="8.8298483"><ele>632.0</ele><time>2026-05-01T07:55:23.571Z</time></trkpt><trkpt lat="39.9279167" lon="8.8299233"><ele>632.0</ele><time>2026-05-01T07:55:24.571Z</time></trkpt><trkpt lat="39.9278617" lon="8.83"><ele>632.0</ele><time>2026-05-01T07:55:25.569Z</time></trkpt><trkpt lat="39.927805" lon="8.8300833"><ele>632.0</ele><time>2026-05-01T07:55:26.6Z</time></trkpt><trkpt lat="39.92775" lon="8.830175"><ele>632.0</ele><time>2026-05-01T07:55:27.573Z</time></trkpt><trkpt lat="39.9277033" lon="8.8302733"><ele>632.0</ele><time>2026-05-01T07:55:28.569Z</time></trkpt><trkpt lat="39.9276583" lon="8.830385"><ele>632.0</ele><time>2026-05-01T07:55:29.569Z</time></trkpt><trkpt lat="39.9276267" lon="8.8305033"><ele>632.6</ele><time>2026-05-01T07:55:30.57Z</time></trkpt><trkpt lat="39.9275967" lon="8.8306317"><ele>633.2</ele><time>2026-05-01T07:55:31.568Z</time></trkpt><trkpt lat="39.92755" lon="8.83075"><ele>633.8</ele><time>2026-05-01T07:55:32.62Z</time></trkpt><trkpt lat="39.9275267" lon="8.8308767"><ele>634.4</ele><time>2026-05-01T07:55:33.57Z</time></trkpt><trkpt lat="39.9274867" lon="8.8310117"><ele>635.0</ele><time>2026-05-01T07:55:34.57Z</time></trkpt><trkpt lat="39.9274267" lon="8.8311133"><ele>628.5</ele><time>2026-05-01T07:55:35.568Z</time></trkpt><trkpt lat="39.92734" lon="8.8312333"><ele>622.0</ele><time>2026-05-01T07:55:36.567Z</time></trkpt><trkpt lat="39.9272383" lon="8.8313667"><ele>615.5</ele><time>2026-05-01T07:55:37.565Z</time></trkpt><trkpt lat="39.92713" lon="8.8314983"><ele>609.0</ele><time>2026-05-01T07:55:38.614Z</time></trkpt><trkpt lat="39.92702" lon="8.8316367"><ele>609.0</ele><time>2026-05-01T07:55:39.567Z</time></trkpt><trkpt lat="39.9269" lon="8.8317933"><ele>609.0</ele><time>2026-05-01T07:55:40.57Z</time></trkpt><trkpt lat="39.9267783" lon="8.8319583"><ele>609.0</ele><time>2026-05-01T07:55:41.568Z</time></trkpt><trkpt lat="39.9266433" lon="8.8321183"><ele>605.0</ele><time>2026-05-01T07:55:42.566Z</time></trkpt><trkpt lat="39.926495" lon="8.8322933"><ele>601.0</ele><time>2026-05-01T07:55:43.569Z</time></trkpt><trkpt lat="39.92634" lon="8.8324583"><ele>597.0</ele><time>2026-05-01T07:55:44.618Z</time></trkpt><trkpt lat="39.92619" lon="8.8326267"><ele>596.3333333333334</ele><time>2026-05-01T07:55:45.571Z</time></trkpt><trkpt lat="39.9260517" lon="8.832785"><ele>595.6666666666667</ele><time>2026-05-01T07:55:46.569Z</time></trkpt><trkpt lat="39.9259033" lon="8.832955"><ele>595.0</ele><time>2026-05-01T07:55:47.571Z</time></trkpt><trkpt lat="39.9257667" lon="8.8331"><ele>595.0</ele><time>2026-05-01T07:55:48.57Z</time></trkpt><trkpt lat="39.92564" lon="8.833265"><ele>595.0</ele><time>2026-05-01T07:55:49.565Z</time></trkpt><trkpt lat="39.9255117" lon="8.833425"><ele>595.0</ele><time>2026-05-01T07:55:50.615Z</time></trkpt><trkpt lat="39.9254083" lon="8.8335983"><ele>596.6666666666667</ele><time>2026-05-01T07:55:51.57Z</time></trkpt><trkpt lat="39.925315" lon="8.83376"><ele>598.3333333333334</ele><time>2026-05-01T07:55:52.566Z</time></trkpt><trkpt lat="39.9251983" lon="8.8339267"><ele>600.0</ele><time>2026-05-01T07:55:53.572Z</time></trkpt><trkpt lat="39.9250617" lon="8.834105"><ele>600.0</ele><time>2026-05-01T07:55:54.569Z</time></trkpt><trkpt lat="39.9249217" lon="8.8342833"><ele>600.0</ele><time>2026-05-01T07:55:55.567Z</time></trkpt><trkpt lat="39.9247933" lon="8.83447"><ele>600.0</ele><time>2026-05-01T07:55:56.624Z</time></trkpt><trkpt lat="39.9246717" lon="8.8346483"><ele>601.0</ele><time>2026-05-01T07:55:57.569Z</time></trkpt><trkpt lat="39.9245767" lon="8.8348217"><ele>602.0</ele><time>2026-05-01T07:55:58.568Z</time></trkpt><trkpt lat="39.9244917" lon="8.8349867"><ele>603.0</ele><time>2026-05-01T07:55:59.572Z</time></trkpt><trkpt lat="39.9244" lon="8.8351567"><ele>603.0</ele><time>2026-05-01T07:56:00.565Z</time></trkpt><trkpt lat="39.92432" lon="8.8353217"><ele>603.0</ele><time>2026-05-01T07:56:01.565Z</time></trkpt><trkpt lat="39.9242817" lon="8.83547"><ele>603.0</ele><time>2026-05-01T07:56:02.62Z</time></trkpt><trkpt lat="39.92422" lon="8.8355967"><ele>603.0</ele><time>2026-05-01T07:56:03.566Z</time></trkpt><trkpt lat="39.92415" lon="8.8357483"><ele>604.0</ele><time>2026-05-01T07:56:04.569Z</time></trkpt><trkpt lat="39.924075" lon="8.8358833"><ele>605.0</ele><time>2026-05-01T07:56:05.566Z</time></trkpt><trkpt lat="39.9239933" lon="8.83602"><ele>606.0</ele><time>2026-05-01T07:56:06.569Z</time></trkpt><trkpt lat="39.923915" lon="8.8361383"><ele>607.0</ele><time>2026-05-01T07:56:07.571Z</time></trkpt><trkpt lat="39.923835" lon="8.8362483"><ele>607.0</ele><time>2026-05-01T07:56:08.614Z</time></trkpt><trkpt lat="39.92376" lon="8.83636"><ele>607.0</ele><time>2026-05-01T07:56:09.57Z</time></trkpt><trkpt lat="39.923675" lon="8.83646"><ele>607.0</ele><time>2026-05-01T07:56:10.572Z</time></trkpt><trkpt lat="39.923595" lon="8.83655"><ele>607.0</ele><time>2026-05-01T07:56:11.568Z</time></trkpt><trkpt lat="39.9235267" lon="8.8366433"><ele>607.0</ele><time>2026-05-01T07:56:12.57Z</time></trkpt><trkpt lat="39.9234617" lon="8.8367317"><ele>605.1666666666667</ele><time>2026-05-01T07:56:13.568Z</time></trkpt><trkpt lat="39.9234183" lon="8.8368183"><ele>603.3333333333334</ele><time>2026-05-01T07:56:14.618Z</time></trkpt><trkpt lat="39.923375" lon="8.8369083"><ele>601.5</ele><time>2026-05-01T07:56:15.575Z</time></trkpt><trkpt lat="39.9233117" lon="8.8370033"><ele>599.6666666666666</ele><time>2026-05-01T07:56:16.568Z</time></trkpt><trkpt lat="39.9232567" lon="8.8371017"><ele>597.8333333333333</ele><time>2026-05-01T07:56:17.568Z</time></trkpt><trkpt lat="39.9231883" lon="8.8371883"><ele>596.0</ele><time>2026-05-01T07:56:18.565Z</time></trkpt><trkpt lat="39.923125" lon="8.8372717"><ele>596.0</ele><time>2026-05-01T07:56:19.567Z</time></trkpt><trkpt lat="39.92306" lon="8.8373483"><ele>596.0</ele><time>2026-05-01T07:56:20.617Z</time></trkpt><trkpt lat="39.9229883" lon="8.8374167"><ele>596.0</ele><time>2026-05-01T07:56:21.57Z</time></trkpt><trkpt lat="39.9229333" lon="8.8374917"><ele>596.0</ele><time>2026-05-01T07:56:22.568Z</time></trkpt><trkpt lat="39.9228817" lon="8.8375783"><ele>596.0</ele><time>2026-05-01T07:56:23.569Z</time></trkpt><trkpt lat="39.922825" lon="8.83766"><ele>596.0</ele><time>2026-05-01T07:56:24.566Z</time></trkpt><trkpt lat="39.92276" lon="8.8377333"><ele>594.1666666666666</ele><time>2026-05-01T07:56:25.571Z</time></trkpt><trkpt lat="39.9226933" lon="8.837805"><ele>592.3333333333333</ele><time>2026-05-01T07:56:26.593Z</time></trkpt><trkpt lat="39.922625" lon="8.8378717"><ele>590.5</ele><time>2026-05-01T07:56:27.567Z</time></trkpt><trkpt lat="39.922555" lon="8.8379367"><ele>588.6666666666666</ele><time>2026-05-01T07:56:28.569Z</time></trkpt><trkpt lat="39.92249" lon="8.8380033"><ele>586.8333333333334</ele><time>2026-05-01T07:56:29.572Z</time></trkpt><trkpt lat="39.922425" lon="8.838075"><ele>585.0</ele><time>2026-05-01T07:56:30.573Z</time></trkpt><trkpt lat="39.9223583" lon="8.8381417"><ele>585.0</ele><time>2026-05-01T07:56:31.571Z</time></trkpt><trkpt lat="39.9222983" lon="8.83821"><ele>585.0</ele><time>2026-05-01T07:56:32.622Z</time></trkpt><trkpt lat="39.92223" lon="8.8382733"><ele>585.0</ele><time>2026-05-01T07:56:33.57Z</time></trkpt><trkpt lat="39.9221567" lon="8.8383367"><ele>585.0</ele><time>2026-05-01T07:56:34.572Z</time></trkpt><trkpt lat="39.9220733" lon="8.8384017"><ele>585.0</ele><time>2026-05-01T07:56:35.57Z</time></trkpt><trkpt lat="39.9219833" lon="8.8384317"><ele>585.0</ele><time>2026-05-01T07:56:36.565Z</time></trkpt><trkpt lat="39.9218667" lon="8.8384567"><ele>582.75</ele><time>2026-05-01T07:56:37.567Z</time></trkpt><trkpt lat="39.92177" lon="8.83849"><ele>580.5</ele><time>2026-05-01T07:56:38.619Z</time></trkpt><trkpt lat="39.9216633" lon="8.8385133"><ele>578.25</ele><time>2026-05-01T07:56:39.568Z</time></trkpt><trkpt lat="39.9215417" lon="8.8385167"><ele>576.0</ele><time>2026-05-01T07:56:40.566Z</time></trkpt><trkpt lat="39.9214067" lon="8.8385067"><ele>573.75</ele><time>2026-05-01T07:56:41.568Z</time></trkpt><trkpt lat="39.9213033" lon="8.83851"><ele>571.5</ele><time>2026-05-01T07:56:42.571Z</time></trkpt><trkpt lat="39.9211833" lon="8.83853"><ele>569.25</ele><time>2026-05-01T07:56:43.571Z</time></trkpt><trkpt lat="39.9210667" lon="8.8385583"><ele>567.0</ele><time>2026-05-01T07:56:44.617Z</time></trkpt><trkpt lat="39.9209633" lon="8.8386033"><ele>565.0</ele><time>2026-05-01T07:56:45.565Z</time></trkpt><trkpt lat="39.9208517" lon="8.8386467"><ele>563.0</ele><time>2026-05-01T07:56:46.572Z</time></trkpt><trkpt lat="39.9207433" lon="8.8387183"><ele>561.0</ele><time>2026-05-01T07:56:47.565Z</time></trkpt><trkpt lat="39.9206417" lon="8.838785"><ele>559.0</ele><time>2026-05-01T07:56:48.573Z</time></trkpt><trkpt lat="39.92055" lon="8.838855"><ele>559.0</ele><time>2026-05-01T07:56:49.569Z</time></trkpt><trkpt lat="39.9204667" lon="8.8389367"><ele>559.0</ele><time>2026-05-01T07:56:50.619Z</time></trkpt><trkpt lat="39.9203667" lon="8.8390333"><ele>559.0</ele><time>2026-05-01T07:56:51.568Z</time></trkpt><trkpt lat="39.9202667" lon="8.8391133"><ele>559.0</ele><time>2026-05-01T07:56:52.571Z</time></trkpt><trkpt lat="39.92018" lon="8.8391633"><ele>559.0</ele><time>2026-05-01T07:56:53.568Z</time></trkpt><trkpt lat="39.920095" lon="8.8392083"><ele>559.2</ele><time>2026-05-01T07:56:54.57Z</time></trkpt><trkpt lat="39.9200033" lon="8.8392567"><ele>559.4</ele><time>2026-05-01T07:56:55.567Z</time></trkpt><trkpt lat="39.919915" lon="8.839295"><ele>559.6</ele><time>2026-05-01T07:56:56.595Z</time></trkpt><trkpt lat="39.91982" lon="8.839315"><ele>559.8</ele><time>2026-05-01T07:56:57.567Z</time></trkpt><trkpt lat="39.9197317" lon="8.8393283"><ele>560.0</ele><time>2026-05-01T07:56:58.569Z</time></trkpt><trkpt lat="39.9196317" lon="8.839335"><ele>560.0</ele><time>2026-05-01T07:56:59.572Z</time></trkpt><trkpt lat="39.919525" lon="8.839335"><ele>560.0</ele><time>2026-05-01T07:57:00.567Z</time></trkpt><trkpt lat="39.9194167" lon="8.8393117"><ele>560.0</ele><time>2026-05-01T07:57:01.567Z</time></trkpt><trkpt lat="39.9193033" lon="8.8392883"><ele>560.0</ele><time>2026-05-01T07:57:02.567Z</time></trkpt><trkpt lat="39.9192" lon="8.8392717"><ele>560.0</ele><time>2026-05-01T07:57:03.567Z</time></trkpt><trkpt lat="39.919095" lon="8.83926"><ele>558.0</ele><time>2026-05-01T07:57:04.568Z</time></trkpt><trkpt lat="39.9190067" lon="8.8392333"><ele>556.0</ele><time>2026-05-01T07:57:05.57Z</time></trkpt><trkpt lat="39.9189017" lon="8.8392317"><ele>554.0</ele><time>2026-05-01T07:57:06.571Z</time></trkpt><trkpt lat="39.918795" lon="8.839255"><ele>552.0</ele><time>2026-05-01T07:57:07.566Z</time></trkpt><trkpt lat="39.91869" lon="8.8392883"><ele>550.0</ele><time>2026-05-01T07:57:08.617Z</time></trkpt><trkpt lat="39.91858" lon="8.839325"><ele>547.8</ele><time>2026-05-01T07:57:09.567Z</time></trkpt><trkpt lat="39.9184883" lon="8.8393667"><ele>545.6</ele><time>2026-05-01T07:57:10.567Z</time></trkpt><trkpt lat="39.9183983" lon="8.8394217"><ele>543.4</ele><time>2026-05-01T07:57:11.566Z</time></trkpt><trkpt lat="39.9182983" lon="8.8394983"><ele>541.2</ele><time>2026-05-01T07:57:12.57Z</time></trkpt><trkpt lat="39.918195" lon="8.8395717"><ele>539.0</ele><time>2026-05-01T07:57:13.569Z</time></trkpt><trkpt lat="39.91809" lon="8.8396533"><ele>536.75</ele><time>2026-05-01T07:57:14.615Z</time></trkpt><trkpt lat="39.9179683" lon="8.8397483"><ele>534.5</ele><time>2026-05-01T07:57:15.569Z</time></trkpt><trkpt lat="39.9178433" lon="8.839855"><ele>532.25</ele><time>2026-05-01T07:57:16.571Z</time></trkpt><trkpt lat="39.917725" lon="8.83998"><ele>530.0</ele><time>2026-05-01T07:57:17.566Z</time></trkpt><trkpt lat="39.9176017" lon="8.8400833"><ele>528.5</ele><time>2026-05-01T07:57:18.569Z</time></trkpt><trkpt lat="39.9174833" lon="8.84019"><ele>527.0</ele><time>2026-05-01T07:57:19.571Z</time></trkpt><trkpt lat="39.9173767" lon="8.840295"><ele>525.5</ele><time>2026-05-01T07:57:20.619Z</time></trkpt><trkpt lat="39.9172717" lon="8.8404067"><ele>524.0</ele><time>2026-05-01T07:57:21.571Z</time></trkpt><trkpt lat="39.9171667" lon="8.84048"><ele>524.0</ele><time>2026-05-01T07:57:22.568Z</time></trkpt><trkpt lat="39.9170617" lon="8.8405417"><ele>524.0</ele><time>2026-05-01T07:57:23.569Z</time></trkpt><trkpt lat="39.9169683" lon="8.84057"><ele>524.0</ele><time>2026-05-01T07:57:24.571Z</time></trkpt><trkpt lat="39.9168717" lon="8.840595"><ele>524.0</ele><time>2026-05-01T07:57:25.571Z</time></trkpt><trkpt lat="39.9167733" lon="8.84062"><ele>524.0</ele><time>2026-05-01T07:57:26.636Z</time></trkpt><trkpt lat="39.9166633" lon="8.840645"><ele>523.4</ele><time>2026-05-01T07:57:27.568Z</time></trkpt><trkpt lat="39.9165533" lon="8.840685"><ele>522.8</ele><time>2026-05-01T07:57:28.569Z</time></trkpt><trkpt lat="39.916455" lon="8.8407167"><ele>522.2</ele><time>2026-05-01T07:57:29.571Z</time></trkpt><trkpt lat="39.9163583" lon="8.84078"><ele>521.6</ele><time>2026-05-01T07:57:30.574Z</time></trkpt><trkpt lat="39.91626" lon="8.840815"><ele>521.0</ele><time>2026-05-01T07:57:31.566Z</time></trkpt><trkpt lat="39.916165" lon="8.8408367"><ele>521.0</ele><time>2026-05-01T07:57:32.57Z</time></trkpt><trkpt lat="39.9160717" lon="8.8408767"><ele>521.0</ele><time>2026-05-01T07:57:33.571Z</time></trkpt><trkpt lat="39.91597" lon="8.8409383"><ele>521.0</ele><time>2026-05-01T07:57:34.566Z</time></trkpt><trkpt lat="39.9158717" lon="8.8409983"><ele>521.0</ele><time>2026-05-01T07:57:35.569Z</time></trkpt><trkpt lat="39.9157883" lon="8.84105"><ele>521.0</ele><time>2026-05-01T07:57:36.572Z</time></trkpt><trkpt lat="39.91569" lon="8.84111"><ele>517.2</ele><time>2026-05-01T07:57:37.57Z</time></trkpt><trkpt lat="39.9156033" lon="8.84117"><ele>513.4000000000001</ele><time>2026-05-01T07:57:38.615Z</time></trkpt><trkpt lat="39.915525" lon="8.8412433"><ele>509.6</ele><time>2026-05-01T07:57:39.567Z</time></trkpt><trkpt lat="39.9154533" lon="8.8413267"><ele>505.8</ele><time>2026-05-01T07:57:40.567Z</time></trkpt><trkpt lat="39.91539" lon="8.8414217"><ele>502.0</ele><time>2026-05-01T07:57:41.566Z</time></trkpt><trkpt lat="39.915345" lon="8.84154"><ele>502.0</ele><time>2026-05-01T07:57:42.567Z</time></trkpt><trkpt lat="39.915295" lon="8.841685"><ele>502.0</ele><time>2026-05-01T07:57:43.571Z</time></trkpt><trkpt lat="39.9152767" lon="8.8418983"><ele>502.0</ele><time>2026-05-01T07:57:44.618Z</time></trkpt><trkpt lat="39.9152633" lon="8.8420583"><ele>502.0</ele><time>2026-05-01T07:57:45.571Z</time></trkpt><trkpt lat="39.9152717" lon="8.8422233"><ele>500.50000000000006</ele><time>2026-05-01T07:57:46.569Z</time></trkpt><trkpt lat="39.9152383" lon="8.8423533"><ele>499.0</ele><time>2026-05-01T07:57:47.569Z</time></trkpt><trkpt lat="39.9152133" lon="8.84243"><ele>497.5</ele><time>2026-05-01T07:57:48.568Z</time></trkpt><trkpt lat="39.915175" lon="8.842525"><ele>496.0</ele><time>2026-05-01T07:57:49.564Z</time></trkpt><trkpt lat="39.9151333" lon="8.842625"><ele>494.50000000000006</ele><time>2026-05-01T07:57:50.615Z</time></trkpt><trkpt lat="39.9150767" lon="8.8427033"><ele>493.0</ele><time>2026-05-01T07:57:51.571Z</time></trkpt><trkpt lat="39.915005" lon="8.8427567"><ele>492.33333333333337</ele><time>2026-05-01T07:57:52.568Z</time></trkpt><trkpt lat="39.91494" lon="8.8428267"><ele>491.6666666666667</ele><time>2026-05-01T07:57:53.568Z</time></trkpt><trkpt lat="39.9148633" lon="8.8428783"><ele>491.0</ele><time>2026-05-01T07:57:54.564Z</time></trkpt><trkpt lat="39.91479" lon="8.842925"><ele>490.33333333333337</ele><time>2026-05-01T07:57:55.567Z</time></trkpt><trkpt lat="39.9147183" lon="8.842965"><ele>489.6666666666667</ele><time>2026-05-01T07:57:56.589Z</time></trkpt><trkpt lat="39.91463" lon="8.8430033"><ele>489.0</ele><time>2026-05-01T07:57:57.568Z</time></trkpt><trkpt lat="39.914525" lon="8.843015"><ele>489.0</ele><time>2026-05-01T07:57:58.57Z</time></trkpt><trkpt lat="39.91441" lon="8.843015"><ele>489.0</ele><time>2026-05-01T07:57:59.57Z</time></trkpt><trkpt lat="39.9142833" lon="8.8429817"><ele>489.0</ele><time>2026-05-01T07:58:00.567Z</time></trkpt><trkpt lat="39.9141617" lon="8.842955"><ele>489.0</ele><time>2026-05-01T07:58:01.569Z</time></trkpt><trkpt lat="39.9140467" lon="8.84294"><ele>487.6</ele><time>2026-05-01T07:58:02.623Z</time></trkpt><trkpt lat="39.913935" lon="8.842925"><ele>486.2</ele><time>2026-05-01T07:58:03.57Z</time></trkpt><trkpt lat="39.9138233" lon="8.8429033"><ele>484.80000000000007</ele><time>2026-05-01T07:58:04.568Z</time></trkpt><trkpt lat="39.91372" lon="8.8428733"><ele>483.40000000000003</ele><time>2026-05-01T07:58:05.567Z</time></trkpt><trkpt lat="39.91362" lon="8.8428433"><ele>482.0</ele><time>2026-05-01T07:58:06.57Z</time></trkpt><trkpt lat="39.9135267" lon="8.8428017"><ele>481.99999999999994</ele><time>2026-05-01T07:58:07.567Z</time></trkpt><trkpt lat="39.91344" lon="8.8427633"><ele>482.0</ele><time>2026-05-01T07:58:08.614Z</time></trkpt><trkpt lat="39.9133633" lon="8.84272"><ele>482.0</ele><time>2026-05-01T07:58:09.572Z</time></trkpt><trkpt lat="39.9132817" lon="8.8426783"><ele>482.0</ele><time>2026-05-01T07:58:10.571Z</time></trkpt><trkpt lat="39.9132" lon="8.8426333"><ele>481.99999999999994</ele><time>2026-05-01T07:58:11.567Z</time></trkpt><trkpt lat="39.9131167" lon="8.8425817"><ele>482.0</ele><time>2026-05-01T07:58:12.57Z</time></trkpt><trkpt lat="39.913035" lon="8.842525"><ele>483.8</ele><time>2026-05-01T07:58:13.569Z</time></trkpt><trkpt lat="39.91295" lon="8.84249"><ele>485.6</ele><time>2026-05-01T07:58:14.618Z</time></trkpt><trkpt lat="39.9128817" lon="8.8424633"><ele>487.40000000000003</ele><time>2026-05-01T07:58:15.567Z</time></trkpt><trkpt lat="39.9128017" lon="8.8424467"><ele>489.20000000000005</ele><time>2026-05-01T07:58:16.571Z</time></trkpt><trkpt lat="39.912655" lon="8.8424833"><ele>491.0</ele><time>2026-05-01T07:58:18.569Z</time></trkpt><trkpt lat="39.9125633" lon="8.8425217"><ele>491.0</ele><time>2026-05-01T07:58:19.571Z</time></trkpt><trkpt lat="39.9124633" lon="8.8425433"><ele>491.0</ele><time>2026-05-01T07:58:20.619Z</time></trkpt><trkpt lat="39.9123633" lon="8.8425583"><ele>491.0</ele><time>2026-05-01T07:58:21.567Z</time></trkpt><trkpt lat="39.912285" lon="8.84259"><ele>491.0</ele><time>2026-05-01T07:58:22.568Z</time></trkpt><trkpt lat="39.9121417" lon="8.842615"><ele>491.0</ele><time>2026-05-01T07:58:23.567Z</time></trkpt><trkpt lat="39.9120133" lon="8.8426217"><ele>491.0</ele><time>2026-05-01T07:58:24.571Z</time></trkpt><trkpt lat="39.9118767" lon="8.8426183"><ele>491.0</ele><time>2026-05-01T07:58:25.57Z</time></trkpt><trkpt lat="39.9117417" lon="8.8426167"><ele>491.0</ele><time>2026-05-01T07:58:26.597Z</time></trkpt><trkpt lat="39.9116317" lon="8.8426133"><ele>491.0</ele><time>2026-05-01T07:58:27.567Z</time></trkpt><trkpt lat="39.911525" lon="8.8426067"><ele>489.8333333333333</ele><time>2026-05-01T07:58:28.566Z</time></trkpt><trkpt lat="39.9114417" lon="8.8426067"><ele>488.66666666666663</ele><time>2026-05-01T07:58:29.571Z</time></trkpt><trkpt lat="39.9113583" lon="8.8426"><ele>487.5</ele><time>2026-05-01T07:58:30.568Z</time></trkpt><trkpt lat="39.9112867" lon="8.8425917"><ele>486.33333333333337</ele><time>2026-05-01T07:58:31.568Z</time></trkpt><trkpt lat="39.91119" lon="8.8425683"><ele>485.1666666666667</ele><time>2026-05-01T07:58:33.57Z</time></trkpt><trkpt lat="39.911115" lon="8.842545"><ele>484.0</ele><time>2026-05-01T07:58:35.567Z</time></trkpt><trkpt lat="39.911035" lon="8.8425067"><ele>484.00000000000006</ele><time>2026-05-01T07:58:39.57Z</time></trkpt><trkpt lat="39.91095" lon="8.842485"><ele>484.0</ele><time>2026-05-01T07:58:41.571Z</time></trkpt><trkpt lat="39.9108683" lon="8.84247"><ele>484.0</ele><time>2026-05-01T07:58:43.57Z</time></trkpt><trkpt lat="39.9108033" lon="8.84243"><ele>484.0</ele><time>2026-05-01T07:58:45.565Z</time></trkpt><trkpt lat="39.9107583" lon="8.842365"><ele>484.00000000000006</ele><time>2026-05-01T07:58:47.572Z</time></trkpt><trkpt lat="39.9107283" lon="8.8422783"><ele>484.0</ele><time>2026-05-01T07:58:49.571Z</time></trkpt><trkpt lat="39.9108117" lon="8.8422467"><ele>483.4</ele><time>2026-05-01T07:59:38.571Z</time></trkpt><trkpt lat="39.9108617" lon="8.84219"><ele>482.79999999999995</ele><time>2026-05-01T08:04:40.566Z</time></trkpt><trkpt lat="39.9108717" lon="8.8422783"><ele>482.20000000000005</ele><time>2026-05-01T08:04:43.564Z</time></trkpt><trkpt lat="39.9107683" lon="8.8423383"><ele>481.6</ele><time>2026-05-01T08:05:13.564Z</time></trkpt><trkpt lat="39.9106833" lon="8.842335"><ele>481.0</ele><time>2026-05-01T08:05:15.563Z</time></trkpt><trkpt lat="39.9105533" lon="8.8423383"><ele>481.0</ele><time>2026-05-01T08:05:17.564Z</time></trkpt><trkpt lat="39.910475" lon="8.84234"><ele>481.0</ele><time>2026-05-01T08:05:18.568Z</time></trkpt><trkpt lat="39.91039" lon="8.84235"><ele>481.0</ele><time>2026-05-01T08:05:19.564Z</time></trkpt><trkpt lat="39.9102983" lon="8.8423617"><ele>481.0</ele><time>2026-05-01T08:05:20.592Z</time></trkpt><trkpt lat="39.9102067" lon="8.8423817"><ele>481.0</ele><time>2026-05-01T08:05:21.564Z</time></trkpt><trkpt lat="39.91009" lon="8.8424183"><ele>480.5</ele><time>2026-05-01T08:05:22.565Z</time></trkpt><trkpt lat="39.909935" lon="8.842485"><ele>480.0</ele><time>2026-05-01T08:05:23.571Z</time></trkpt><trkpt lat="39.90981" lon="8.842535"><ele>479.5</ele><time>2026-05-01T08:05:24.569Z</time></trkpt><trkpt lat="39.9097067" lon="8.8425683"><ele>479.0</ele><time>2026-05-01T08:05:25.564Z</time></trkpt><trkpt lat="39.9096067" lon="8.8426333"><ele>477.2</ele><time>2026-05-01T08:05:26.634Z</time></trkpt><trkpt lat="39.9095117" lon="8.8427"><ele>475.4</ele><time>2026-05-01T08:05:27.57Z</time></trkpt><trkpt lat="39.9094267" lon="8.8427433"><ele>473.6</ele><time>2026-05-01T08:05:28.566Z</time></trkpt><trkpt lat="39.909335" lon="8.842785"><ele>471.8</ele><time>2026-05-01T08:05:29.569Z</time></trkpt><trkpt lat="39.9092433" lon="8.8428017"><ele>470.0</ele><time>2026-05-01T08:05:30.564Z</time></trkpt><trkpt lat="39.9091567" lon="8.8428167"><ele>470.0</ele><time>2026-05-01T08:05:31.571Z</time></trkpt><trkpt lat="39.9090683" lon="8.8428267"><ele>470.0</ele><time>2026-05-01T08:05:32.622Z</time></trkpt><trkpt lat="39.90895" lon="8.8428083"><ele>470.0</ele><time>2026-05-01T08:05:33.564Z</time></trkpt><trkpt lat="39.9088317" lon="8.8427883"><ele>470.0</ele><time>2026-05-01T08:05:34.567Z</time></trkpt><trkpt lat="39.9087033" lon="8.842765"><ele>470.0</ele><time>2026-05-01T08:05:35.569Z</time></trkpt><trkpt lat="39.9085617" lon="8.84275"><ele>470.0</ele><time>2026-05-01T08:05:36.567Z</time></trkpt><trkpt lat="39.908435" lon="8.84273"><ele>470.0</ele><time>2026-05-01T08:05:37.565Z</time></trkpt><trkpt lat="39.9082933" lon="8.8427483"><ele>470.0</ele><time>2026-05-01T08:05:38.593Z</time></trkpt><trkpt lat="39.90818" lon="8.8427217"><ele>468.2</ele><time>2026-05-01T08:05:39.568Z</time></trkpt><trkpt lat="39.90808" lon="8.8427183"><ele>466.4</ele><time>2026-05-01T08:05:40.565Z</time></trkpt><trkpt lat="39.9079767" lon="8.8427017"><ele>464.6</ele><time>2026-05-01T08:05:41.57Z</time></trkpt><trkpt lat="39.907885" lon="8.8427133"><ele>462.8</ele><time>2026-05-01T08:05:42.57Z</time></trkpt><trkpt lat="39.9077717" lon="8.8427417"><ele>461.0</ele><time>2026-05-01T08:05:43.571Z</time></trkpt><trkpt lat="39.9076517" lon="8.84278"><ele>459.0</ele><time>2026-05-01T08:05:44.591Z</time></trkpt><trkpt lat="39.9075233" lon="8.8428317"><ele>457.0</ele><time>2026-05-01T08:05:45.564Z</time></trkpt><trkpt lat="39.9074067" lon="8.8428817"><ele>455.0</ele><time>2026-05-01T08:05:46.567Z</time></trkpt><trkpt lat="39.9072817" lon="8.8429267"><ele>453.0</ele><time>2026-05-01T08:05:47.566Z</time></trkpt><trkpt lat="39.9071617" lon="8.843"><ele>453.0</ele><time>2026-05-01T08:05:48.566Z</time></trkpt><trkpt lat="39.907045" lon="8.843075"><ele>453.0</ele><time>2026-05-01T08:05:49.565Z</time></trkpt><trkpt lat="39.90692" lon="8.8431233"><ele>453.0</ele><time>2026-05-01T08:05:50.593Z</time></trkpt><trkpt lat="39.90679" lon="8.8431683"><ele>453.0</ele><time>2026-05-01T08:05:51.567Z</time></trkpt><trkpt lat="39.9066517" lon="8.843205"><ele>451.66666666666663</ele><time>2026-05-01T08:05:52.569Z</time></trkpt><trkpt lat="39.9065117" lon="8.84327"><ele>450.3333333333333</ele><time>2026-05-01T08:05:53.57Z</time></trkpt><trkpt lat="39.9063667" lon="8.8433117"><ele>449.0</ele><time>2026-05-01T08:05:54.569Z</time></trkpt><trkpt lat="39.906205" lon="8.8433867"><ele>449.0</ele><time>2026-05-01T08:05:55.568Z</time></trkpt><trkpt lat="39.906055" lon="8.843445"><ele>449.0</ele><time>2026-05-01T08:05:56.633Z</time></trkpt><trkpt lat="39.905905" lon="8.8435633"><ele>449.0</ele><time>2026-05-01T08:05:57.566Z</time></trkpt><trkpt lat="39.90572" lon="8.84363"><ele>448.3333333333333</ele><time>2026-05-01T08:05:58.565Z</time></trkpt><trkpt lat="39.9055317" lon="8.8436917"><ele>447.66666666666663</ele><time>2026-05-01T08:05:59.568Z</time></trkpt><trkpt lat="39.9053667" lon="8.8437433"><ele>447.0</ele><time>2026-05-01T08:06:00.566Z</time></trkpt><trkpt lat="39.9052117" lon="8.8437833"><ele>449.33333333333337</ele><time>2026-05-01T08:06:01.569Z</time></trkpt><trkpt lat="39.9050617" lon="8.8438183"><ele>451.6666666666667</ele><time>2026-05-01T08:06:02.622Z</time></trkpt><trkpt lat="39.9049083" lon="8.8438433"><ele>454.0</ele><time>2026-05-01T08:06:03.566Z</time></trkpt><trkpt lat="39.90476" lon="8.843855"><ele>454.0</ele><time>2026-05-01T08:06:04.57Z</time></trkpt><trkpt lat="39.904615" lon="8.8438583"><ele>454.0</ele><time>2026-05-01T08:06:05.569Z</time></trkpt><trkpt lat="39.90446" lon="8.843845"><ele>454.0</ele><time>2026-05-01T08:06:06.567Z</time></trkpt><trkpt lat="39.9042933" lon="8.843825"><ele>455.75</ele><time>2026-05-01T08:06:07.565Z</time></trkpt><trkpt lat="39.9041517" lon="8.843785"><ele>457.5</ele><time>2026-05-01T08:06:08.592Z</time></trkpt><trkpt lat="39.9040167" lon="8.8437267"><ele>459.25</ele><time>2026-05-01T08:06:09.569Z</time></trkpt><trkpt lat="39.9038983" lon="8.84363"><ele>461.0</ele><time>2026-05-01T08:06:10.564Z</time></trkpt><trkpt lat="39.90378" lon="8.843545"><ele>460.75</ele><time>2026-05-01T08:06:11.565Z</time></trkpt><trkpt lat="39.9036733" lon="8.84344"><ele>460.5</ele><time>2026-05-01T08:06:12.57Z</time></trkpt><trkpt lat="39.9035767" lon="8.84333"><ele>460.25</ele><time>2026-05-01T08:06:13.568Z</time></trkpt><trkpt lat="39.9034833" lon="8.8432033"><ele>460.0</ele><time>2026-05-01T08:06:14.593Z</time></trkpt><trkpt lat="39.9034367" lon="8.8431017"><ele>460.4</ele><time>2026-05-01T08:06:15.567Z</time></trkpt><trkpt lat="39.9033383" lon="8.8430417"><ele>460.8</ele><time>2026-05-01T08:06:16.567Z</time></trkpt><trkpt lat="39.90324" lon="8.8429933"><ele>461.20000000000005</ele><time>2026-05-01T08:06:17.569Z</time></trkpt><trkpt lat="39.9031417" lon="8.8429683"><ele>461.6</ele><time>2026-05-01T08:06:18.565Z</time></trkpt><trkpt lat="39.903035" lon="8.8429183"><ele>462.0</ele><time>2026-05-01T08:06:19.564Z</time></trkpt><trkpt lat="39.9029317" lon="8.8428817"><ele>462.0</ele><time>2026-05-01T08:06:20.591Z</time></trkpt><trkpt lat="39.9028233" lon="8.8428667"><ele>462.00000000000006</ele><time>2026-05-01T08:06:21.562Z</time></trkpt><trkpt lat="39.9027333" lon="8.8428383"><ele>462.00000000000006</ele><time>2026-05-01T08:06:22.564Z</time></trkpt><trkpt lat="39.90262" lon="8.8428083"><ele>462.0</ele><time>2026-05-01T08:06:23.567Z</time></trkpt><trkpt lat="39.90253" lon="8.8427683"><ele>462.0</ele><time>2026-05-01T08:06:24.565Z</time></trkpt><trkpt lat="39.9024283" lon="8.8427283"><ele>462.6</ele><time>2026-05-01T08:06:25.563Z</time></trkpt><trkpt lat="39.9023317" lon="8.8426967"><ele>463.20000000000005</ele><time>2026-05-01T08:06:26.634Z</time></trkpt><trkpt lat="39.9022417" lon="8.8426567"><ele>463.8</ele><time>2026-05-01T08:06:27.567Z</time></trkpt><trkpt lat="39.9021583" lon="8.8426267"><ele>464.4</ele><time>2026-05-01T08:06:28.564Z</time></trkpt><trkpt lat="39.90207" lon="8.8425933"><ele>465.0</ele><time>2026-05-01T08:06:29.568Z</time></trkpt><trkpt lat="39.90199" lon="8.8425733"><ele>465.0</ele><time>2026-05-01T08:06:30.564Z</time></trkpt><trkpt lat="39.9018983" lon="8.8425817"><ele>465.0</ele><time>2026-05-01T08:06:31.568Z</time></trkpt><trkpt lat="39.9018217" lon="8.8426083"><ele>465.0</ele><time>2026-05-01T08:06:32.568Z</time></trkpt><trkpt lat="39.9017433" lon="8.8426317"><ele>465.0</ele><time>2026-05-01T08:06:33.564Z</time></trkpt><trkpt lat="39.901655" lon="8.8426633"><ele>465.0</ele><time>2026-05-01T08:06:34.567Z</time></trkpt><trkpt lat="39.9015567" lon="8.842735"><ele>462.6</ele><time>2026-05-01T08:06:35.569Z</time></trkpt><trkpt lat="39.90148" lon="8.8428033"><ele>460.2</ele><time>2026-05-01T08:06:36.57Z</time></trkpt><trkpt lat="39.9014033" lon="8.8428917"><ele>457.79999999999995</ele><time>2026-05-01T08:06:37.564Z</time></trkpt><trkpt lat="39.901345" lon="8.8429917"><ele>455.4</ele><time>2026-05-01T08:06:38.592Z</time></trkpt><trkpt lat="39.90127" lon="8.843075"><ele>453.0</ele><time>2026-05-01T08:06:39.569Z</time></trkpt><trkpt lat="39.90121" lon="8.843185"><ele>453.0</ele><time>2026-05-01T08:06:40.566Z</time></trkpt><trkpt lat="39.901155" lon="8.8433367"><ele>453.0</ele><time>2026-05-01T08:06:41.564Z</time></trkpt><trkpt lat="39.90109" lon="8.84349"><ele>453.0</ele><time>2026-05-01T08:06:42.562Z</time></trkpt><trkpt lat="39.90104" lon="8.8436333"><ele>453.0</ele><time>2026-05-01T08:06:43.568Z</time></trkpt><trkpt lat="39.9009817" lon="8.8437817"><ele>452.0</ele><time>2026-05-01T08:06:44.592Z</time></trkpt><trkpt lat="39.9009217" lon="8.84392"><ele>451.0</ele><time>2026-05-01T08:06:45.568Z</time></trkpt><trkpt lat="39.9008617" lon="8.8440617"><ele>450.0</ele><time>2026-05-01T08:06:46.565Z</time></trkpt><trkpt lat="39.9008117" lon="8.8441983"><ele>449.0</ele><time>2026-05-01T08:06:47.565Z</time></trkpt><trkpt lat="39.900765" lon="8.84436"><ele>448.0</ele><time>2026-05-01T08:06:48.563Z</time></trkpt><trkpt lat="39.9007033" lon="8.8444917"><ele>447.0</ele><time>2026-05-01T08:06:49.564Z</time></trkpt><trkpt lat="39.9006567" lon="8.844605"><ele>446.0</ele><time>2026-05-01T08:06:50.594Z</time></trkpt><trkpt lat="39.9005833" lon="8.8446883"><ele>445.0</ele><time>2026-05-01T08:06:51.568Z</time></trkpt><trkpt lat="39.9005367" lon="8.84481"><ele>444.0</ele><time>2026-05-01T08:06:52.566Z</time></trkpt><trkpt lat="39.900495" lon="8.8449317"><ele>444.0</ele><time>2026-05-01T08:06:53.571Z</time></trkpt><trkpt lat="39.9004633" lon="8.8450367"><ele>444.0</ele><time>2026-05-01T08:06:54.564Z</time></trkpt><trkpt lat="39.9004333" lon="8.845155"><ele>444.0</ele><time>2026-05-01T08:06:55.567Z</time></trkpt><trkpt lat="39.900405" lon="8.8452683"><ele>444.0</ele><time>2026-05-01T08:06:56.635Z</time></trkpt><trkpt lat="39.900395" lon="8.845415"><ele>444.0</ele><time>2026-05-01T08:06:57.563Z</time></trkpt><trkpt lat="39.9003733" lon="8.845555"><ele>442.6666666666667</ele><time>2026-05-01T08:06:58.566Z</time></trkpt><trkpt lat="39.9003483" lon="8.8456833"><ele>441.33333333333337</ele><time>2026-05-01T08:06:59.565Z</time></trkpt><trkpt lat="39.9003333" lon="8.84579"><ele>440.0</ele><time>2026-05-01T08:07:00.568Z</time></trkpt><trkpt lat="39.9003233" lon="8.8458983"><ele>438.6666666666667</ele><time>2026-05-01T08:07:01.567Z</time></trkpt><trkpt lat="39.9003167" lon="8.846005"><ele>437.33333333333337</ele><time>2026-05-01T08:07:02.632Z</time></trkpt><trkpt lat="39.9003133" lon="8.8461167"><ele>436.0</ele><time>2026-05-01T08:07:03.569Z</time></trkpt><trkpt lat="39.900305" lon="8.8462317"><ele>433.6</ele><time>2026-05-01T08:07:04.568Z</time></trkpt><trkpt lat="39.90029" lon="8.8463467"><ele>431.20000000000005</ele><time>2026-05-01T08:07:05.569Z</time></trkpt><trkpt lat="39.90028" lon="8.84647"><ele>428.79999999999995</ele><time>2026-05-01T08:07:06.567Z</time></trkpt><trkpt lat="39.900265" lon="8.8465967"><ele>426.4</ele><time>2026-05-01T08:07:07.566Z</time></trkpt><trkpt lat="39.900245" lon="8.8467383"><ele>424.0</ele><time>2026-05-01T08:07:08.592Z</time></trkpt><trkpt lat="39.90023" lon="8.8468783"><ele>421.2</ele><time>2026-05-01T08:07:09.569Z</time></trkpt><trkpt lat="39.9002217" lon="8.84702"><ele>418.4</ele><time>2026-05-01T08:07:10.567Z</time></trkpt><trkpt lat="39.90021" lon="8.8471317"><ele>415.6</ele><time>2026-05-01T08:07:11.569Z</time></trkpt><trkpt lat="39.9002067" lon="8.8472983"><ele>412.8</ele><time>2026-05-01T08:07:12.567Z</time></trkpt><trkpt lat="39.9002467" lon="8.847445"><ele>410.0</ele><time>2026-05-01T08:07:13.563Z</time></trkpt><trkpt lat="39.90028" lon="8.8476"><ele>407.75</ele><time>2026-05-01T08:07:14.587Z</time></trkpt><trkpt lat="39.9003333" lon="8.847755"><ele>405.5</ele><time>2026-05-01T08:07:15.565Z</time></trkpt><trkpt lat="39.9003767" lon="8.8479183"><ele>403.25</ele><time>2026-05-01T08:07:16.565Z</time></trkpt><trkpt lat="39.9004267" lon="8.84807"><ele>401.0</ele><time>2026-05-01T08:07:17.568Z</time></trkpt><trkpt lat="39.9004633" lon="8.8482317"><ele>401.0</ele><time>2026-05-01T08:07:18.564Z</time></trkpt><trkpt lat="39.9004683" lon="8.8483767"><ele>401.0</ele><time>2026-05-01T08:07:19.564Z</time></trkpt><trkpt lat="39.9004967" lon="8.848525"><ele>401.0</ele><time>2026-05-01T08:07:20.592Z</time></trkpt><trkpt lat="39.9005367" lon="8.84867"><ele>401.0</ele><time>2026-05-01T08:07:21.569Z</time></trkpt><trkpt lat="39.9005633" lon="8.84882"><ele>400.5</ele><time>2026-05-01T08:07:22.568Z</time></trkpt><trkpt lat="39.9005867" lon="8.8489817"><ele>400.0</ele><time>2026-05-01T08:07:23.569Z</time></trkpt><trkpt lat="39.90061" lon="8.8491183"><ele>399.5</ele><time>2026-05-01T08:07:24.564Z</time></trkpt><trkpt lat="39.900635" lon="8.8492633"><ele>399.0</ele><time>2026-05-01T08:07:25.568Z</time></trkpt><trkpt lat="39.900645" lon="8.849415"><ele>397.75</ele><time>2026-05-01T08:07:26.632Z</time></trkpt><trkpt lat="39.9006433" lon="8.8495817"><ele>396.5</ele><time>2026-05-01T08:07:27.565Z</time></trkpt><trkpt lat="39.9006383" lon="8.8497383"><ele>395.25</ele><time>2026-05-01T08:07:28.569Z</time></trkpt><trkpt lat="39.9006183" lon="8.849905"><ele>394.0</ele><time>2026-05-01T08:07:29.566Z</time></trkpt><trkpt lat="39.9006" lon="8.850075"><ele>393.75</ele><time>2026-05-01T08:07:30.57Z</time></trkpt><trkpt lat="39.90058" lon="8.8502483"><ele>393.5</ele><time>2026-05-01T08:07:31.57Z</time></trkpt><trkpt lat="39.9005617" lon="8.850425"><ele>393.25</ele><time>2026-05-01T08:07:32.623Z</time></trkpt><trkpt lat="39.900545" lon="8.8505967"><ele>393.0</ele><time>2026-05-01T08:07:33.565Z</time></trkpt><trkpt lat="39.9005267" lon="8.8507617"><ele>393.0</ele><time>2026-05-01T08:07:34.57Z</time></trkpt><trkpt lat="39.900505" lon="8.8509233"><ele>393.0</ele><time>2026-05-01T08:07:35.566Z</time></trkpt><trkpt lat="39.900475" lon="8.8510817"><ele>393.0</ele><time>2026-05-01T08:07:36.565Z</time></trkpt><trkpt lat="39.90044" lon="8.8512317"><ele>393.0</ele><time>2026-05-01T08:07:37.568Z</time></trkpt><trkpt lat="39.900395" lon="8.8513783"><ele>393.79999999999995</ele><time>2026-05-01T08:07:38.591Z</time></trkpt><trkpt lat="39.900345" lon="8.851525"><ele>394.6</ele><time>2026-05-01T08:07:39.568Z</time></trkpt><trkpt lat="39.9002817" lon="8.851655"><ele>395.4</ele><time>2026-05-01T08:07:40.569Z</time></trkpt><trkpt lat="39.90022" lon="8.8517633"><ele>396.20000000000005</ele><time>2026-05-01T08:07:41.567Z</time></trkpt><trkpt lat="39.90016" lon="8.8518683"><ele>397.0</ele><time>2026-05-01T08:07:42.565Z</time></trkpt><trkpt lat="39.900095" lon="8.8519517"><ele>397.20000000000005</ele><time>2026-05-01T08:07:43.57Z</time></trkpt><trkpt lat="39.9000033" lon="8.8519667"><ele>397.4</ele><time>2026-05-01T08:07:44.593Z</time></trkpt><trkpt lat="39.899885" lon="8.8519617"><ele>397.6</ele><time>2026-05-01T08:07:45.567Z</time></trkpt><trkpt lat="39.899775" lon="8.8519667"><ele>397.79999999999995</ele><time>2026-05-01T08:07:46.564Z</time></trkpt><trkpt lat="39.8996833" lon="8.8519983"><ele>398.0</ele><time>2026-05-01T08:07:47.569Z</time></trkpt><trkpt lat="39.899595" lon="8.8520417"><ele>398.0</ele><time>2026-05-01T08:07:48.563Z</time></trkpt><trkpt lat="39.8994983" lon="8.8520733"><ele>398.0</ele><time>2026-05-01T08:07:49.564Z</time></trkpt><trkpt lat="39.8994" lon="8.852095"><ele>398.0</ele><time>2026-05-01T08:07:50.592Z</time></trkpt><trkpt lat="39.8993033" lon="8.8521167"><ele>398.0</ele><time>2026-05-01T08:07:51.569Z</time></trkpt><trkpt lat="39.8991983" lon="8.8521183"><ele>398.0</ele><time>2026-05-01T08:07:52.569Z</time></trkpt><trkpt lat="39.8990817" lon="8.852115"><ele>399.79999999999995</ele><time>2026-05-01T08:07:53.566Z</time></trkpt><trkpt lat="39.8989683" lon="8.8521167"><ele>401.6</ele><time>2026-05-01T08:07:54.568Z</time></trkpt><trkpt lat="39.89885" lon="8.85214"><ele>403.4</ele><time>2026-05-01T08:07:55.566Z</time></trkpt><trkpt lat="39.8987433" lon="8.8521733"><ele>405.20000000000005</ele><time>2026-05-01T08:07:56.599Z</time></trkpt><trkpt lat="39.89865" lon="8.852215"><ele>407.0</ele><time>2026-05-01T08:07:57.568Z</time></trkpt><trkpt lat="39.89856" lon="8.8522633"><ele>407.0</ele><time>2026-05-01T08:07:58.563Z</time></trkpt><trkpt lat="39.8984667" lon="8.852335"><ele>407.0</ele><time>2026-05-01T08:07:59.569Z</time></trkpt><trkpt lat="39.8983817" lon="8.8524233"><ele>407.0</ele><time>2026-05-01T08:08:00.566Z</time></trkpt><trkpt lat="39.8982967" lon="8.852525"><ele>407.0</ele><time>2026-05-01T08:08:01.563Z</time></trkpt><trkpt lat="39.8982167" lon="8.8526367"><ele>411.25</ele><time>2026-05-01T08:08:02.619Z</time></trkpt><trkpt lat="39.89814" lon="8.8527567"><ele>415.5</ele><time>2026-05-01T08:08:03.569Z</time></trkpt><trkpt lat="39.89807" lon="8.8528783"><ele>419.75</ele><time>2026-05-01T08:08:04.567Z</time></trkpt><trkpt lat="39.8980083" lon="8.8530083"><ele>424.0</ele><time>2026-05-01T08:08:05.566Z</time></trkpt><trkpt lat="39.8979533" lon="8.8531367"><ele>424.0</ele><time>2026-05-01T08:08:06.564Z</time></trkpt><trkpt lat="39.8978967" lon="8.85326"><ele>424.0</ele><time>2026-05-01T08:08:07.566Z</time></trkpt><trkpt lat="39.8978367" lon="8.8533733"><ele>424.0</ele><time>2026-05-01T08:08:08.586Z</time></trkpt><trkpt lat="39.89777" lon="8.85348"><ele>424.0</ele><time>2026-05-01T08:08:09.571Z</time></trkpt><trkpt lat="39.8977017" lon="8.8535783"><ele>424.0</ele><time>2026-05-01T08:08:10.565Z</time></trkpt><trkpt lat="39.8976283" lon="8.8536767"><ele>427.79999999999995</ele><time>2026-05-01T08:08:11.569Z</time></trkpt><trkpt lat="39.89756" lon="8.8537733"><ele>431.59999999999997</ele><time>2026-05-01T08:08:12.565Z</time></trkpt><trkpt lat="39.8975017" lon="8.8538767"><ele>435.4</ele><time>2026-05-01T08:08:13.564Z</time></trkpt><trkpt lat="39.8974533" lon="8.8539783"><ele>439.2</ele><time>2026-05-01T08:08:14.591Z</time></trkpt><trkpt lat="39.897415" lon="8.8540733"><ele>443.0</ele><time>2026-05-01T08:08:15.566Z</time></trkpt><trkpt lat="39.89737" lon="8.8541617"><ele>442.99999999999994</ele><time>2026-05-01T08:08:16.566Z</time></trkpt><trkpt lat="39.8973233" lon="8.854235"><ele>443.0</ele><time>2026-05-01T08:08:17.564Z</time></trkpt><trkpt lat="39.89727" lon="8.8542967"><ele>443.0</ele><time>2026-05-01T08:08:18.566Z</time></trkpt><trkpt lat="39.8972117" lon="8.8543467"><ele>443.0</ele><time>2026-05-01T08:08:19.565Z</time></trkpt><trkpt lat="39.89715" lon="8.854385"><ele>442.99999999999994</ele><time>2026-05-01T08:08:20.588Z</time></trkpt><trkpt lat="39.897065" lon="8.8543933"><ele>443.0</ele><time>2026-05-01T08:08:21.568Z</time></trkpt><trkpt lat="39.89697" lon="8.8543917"><ele>442.4</ele><time>2026-05-01T08:08:22.562Z</time></trkpt><trkpt lat="39.896875" lon="8.8543917"><ele>441.79999999999995</ele><time>2026-05-01T08:08:23.564Z</time></trkpt><trkpt lat="39.89678" lon="8.8544017"><ele>441.2</ele><time>2026-05-01T08:08:24.569Z</time></trkpt><trkpt lat="39.8966933" lon="8.8544267"><ele>440.6</ele><time>2026-05-01T08:08:25.568Z</time></trkpt><trkpt lat="39.896605" lon="8.8544683"><ele>440.0</ele><time>2026-05-01T08:08:26.622Z</time></trkpt><trkpt lat="39.8965183" lon="8.8545167"><ele>440.0</ele><time>2026-05-01T08:08:27.567Z</time></trkpt><trkpt lat="39.8964367" lon="8.8545733"><ele>440.0</ele><time>2026-05-01T08:08:28.566Z</time></trkpt><trkpt lat="39.8963617" lon="8.8546467"><ele>440.0</ele><time>2026-05-01T08:08:29.569Z</time></trkpt><trkpt lat="39.89629" lon="8.8547317"><ele>440.0</ele><time>2026-05-01T08:08:30.562Z</time></trkpt><trkpt lat="39.8962167" lon="8.85483"><ele>440.0</ele><time>2026-05-01T08:08:31.569Z</time></trkpt><trkpt lat="39.896145" lon="8.8549367"><ele>440.0</ele><time>2026-05-01T08:08:32.619Z</time></trkpt><trkpt lat="39.8960833" lon="8.85505"><ele>440.0</ele><time>2026-05-01T08:08:33.569Z</time></trkpt><trkpt lat="39.8960217" lon="8.8551583"><ele>440.0</ele><time>2026-05-01T08:08:34.563Z</time></trkpt><trkpt lat="39.8959617" lon="8.85528"><ele>440.0</ele><time>2026-05-01T08:08:35.567Z</time></trkpt><trkpt lat="39.8959183" lon="8.8553833"><ele>440.0</ele><time>2026-05-01T08:08:36.567Z</time></trkpt><trkpt lat="39.8958533" lon="8.855505"><ele>437.0</ele><time>2026-05-01T08:08:37.569Z</time></trkpt><trkpt lat="39.8957683" lon="8.8556217"><ele>434.0</ele><time>2026-05-01T08:08:38.592Z</time></trkpt><trkpt lat="39.89568" lon="8.85574"><ele>431.0</ele><time>2026-05-01T08:08:39.569Z</time></trkpt><trkpt lat="39.8955867" lon="8.8558683"><ele>428.0</ele><time>2026-05-01T08:08:40.568Z</time></trkpt><trkpt lat="39.8954933" lon="8.856005"><ele>424.0</ele><time>2026-05-01T08:08:41.569Z</time></trkpt><trkpt lat="39.8954" lon="8.856145"><ele>420.0</ele><time>2026-05-01T08:08:42.566Z</time></trkpt><trkpt lat="39.8952967" lon="8.8562967"><ele>416.0</ele><time>2026-05-01T08:08:43.568Z</time></trkpt><trkpt lat="39.8952033" lon="8.8564383"><ele>412.0</ele><time>2026-05-01T08:08:44.592Z</time></trkpt><trkpt lat="39.8951067" lon="8.8565983"><ele>414.0</ele><time>2026-05-01T08:08:45.57Z</time></trkpt><trkpt lat="39.8950133" lon="8.8567733"><ele>416.0</ele><time>2026-05-01T08:08:46.569Z</time></trkpt><trkpt lat="39.8949333" lon="8.8569617"><ele>418.0</ele><time>2026-05-01T08:08:47.568Z</time></trkpt><trkpt lat="39.8948717" lon="8.8571467"><ele>418.75</ele><time>2026-05-01T08:08:48.566Z</time></trkpt><trkpt lat="39.8948167" lon="8.8573233"><ele>419.5</ele><time>2026-05-01T08:08:49.565Z</time></trkpt><trkpt lat="39.89478" lon="8.8575"><ele>420.25</ele><time>2026-05-01T08:08:50.592Z</time></trkpt><trkpt lat="39.89475" lon="8.857675"><ele>421.0</ele><time>2026-05-01T08:08:51.57Z</time></trkpt><trkpt lat="39.89471" lon="8.85786"><ele>421.5</ele><time>2026-05-01T08:08:52.566Z</time></trkpt><trkpt lat="39.8946683" lon="8.858035"><ele>422.0</ele><time>2026-05-01T08:08:53.57Z</time></trkpt><trkpt lat="39.89463" lon="8.8581983"><ele>422.5</ele><time>2026-05-01T08:08:54.569Z</time></trkpt><trkpt lat="39.8945867" lon="8.858355"><ele>423.0</ele><time>2026-05-01T08:08:55.566Z</time></trkpt><trkpt lat="39.89454" lon="8.8585083"><ele>420.25</ele><time>2026-05-01T08:08:56.59Z</time></trkpt><trkpt lat="39.894495" lon="8.858685"><ele>417.5</ele><time>2026-05-01T08:08:57.566Z</time></trkpt><trkpt lat="39.8944617" lon="8.858825"><ele>414.75</ele><time>2026-05-01T08:08:58.564Z</time></trkpt><trkpt lat="39.894415" lon="8.8589767"><ele>412.0</ele><time>2026-05-01T08:08:59.567Z</time></trkpt><trkpt lat="39.8943667" lon="8.859105"><ele>412.0</ele><time>2026-05-01T08:09:00.566Z</time></trkpt><trkpt lat="39.894305" lon="8.8592283"><ele>412.0</ele><time>2026-05-01T08:09:01.564Z</time></trkpt><trkpt lat="39.8942367" lon="8.8593517"><ele>412.0</ele><time>2026-05-01T08:09:02.621Z</time></trkpt><trkpt lat="39.8941433" lon="8.859475"><ele>412.0</ele><time>2026-05-01T08:09:03.566Z</time></trkpt><trkpt lat="39.8940367" lon="8.8595917"><ele>410.75</ele><time>2026-05-01T08:09:04.564Z</time></trkpt><trkpt lat="39.8939317" lon="8.8597167"><ele>409.5</ele><time>2026-05-01T08:09:05.569Z</time></trkpt><trkpt lat="39.8938283" lon="8.8598517"><ele>408.25</ele><time>2026-05-01T08:09:06.566Z</time></trkpt><trkpt lat="39.893715" lon="8.8599883"><ele>407.0</ele><time>2026-05-01T08:09:07.564Z</time></trkpt><trkpt lat="39.89362" lon="8.8601317"><ele>405.66666666666663</ele><time>2026-05-01T08:09:08.595Z</time></trkpt><trkpt lat="39.8935" lon="8.8602833"><ele>404.33333333333337</ele><time>2026-05-01T08:09:09.564Z</time></trkpt><trkpt lat="39.89339" lon="8.8604483"><ele>403.0</ele><time>2026-05-01T08:09:10.569Z</time></trkpt><trkpt lat="39.8932867" lon="8.8606017"><ele>403.0</ele><time>2026-05-01T08:09:11.57Z</time></trkpt><trkpt lat="39.893195" lon="8.8607433"><ele>403.0</ele><time>2026-05-01T08:09:12.569Z</time></trkpt><trkpt lat="39.893115" lon="8.8608717"><ele>403.0</ele><time>2026-05-01T08:09:13.568Z</time></trkpt><trkpt lat="39.8930233" lon="8.860985"><ele>403.0</ele><time>2026-05-01T08:09:14.591Z</time></trkpt><trkpt lat="39.892945" lon="8.86107"><ele>403.2</ele><time>2026-05-01T08:09:15.568Z</time></trkpt><trkpt lat="39.8928467" lon="8.8611567"><ele>403.4</ele><time>2026-05-01T08:09:16.566Z</time></trkpt><trkpt lat="39.892765" lon="8.86127"><ele>403.59999999999997</ele><time>2026-05-01T08:09:17.569Z</time></trkpt><trkpt lat="39.8927067" lon="8.86135"><ele>403.79999999999995</ele><time>2026-05-01T08:09:18.565Z</time></trkpt><trkpt lat="39.8926367" lon="8.8614317"><ele>404.0</ele><time>2026-05-01T08:09:19.565Z</time></trkpt><trkpt lat="39.8925483" lon="8.86152"><ele>404.2</ele><time>2026-05-01T08:09:20.59Z</time></trkpt><trkpt lat="39.8924667" lon="8.86161"><ele>404.4</ele><time>2026-05-01T08:09:21.565Z</time></trkpt><trkpt lat="39.8923867" lon="8.8616967"><ele>404.6</ele><time>2026-05-01T08:09:22.563Z</time></trkpt><trkpt lat="39.8923083" lon="8.8617767"><ele>404.8</ele><time>2026-05-01T08:09:23.568Z</time></trkpt><trkpt lat="39.8922283" lon="8.86185"><ele>405.0</ele><time>2026-05-01T08:09:24.565Z</time></trkpt><trkpt lat="39.8921533" lon="8.8619167"><ele>404.8</ele><time>2026-05-01T08:09:25.57Z</time></trkpt><trkpt lat="39.8920883" lon="8.86197"><ele>404.6</ele><time>2026-05-01T08:09:26.59Z</time></trkpt><trkpt lat="39.8920233" lon="8.862"><ele>404.4</ele><time>2026-05-01T08:09:27.567Z</time></trkpt><trkpt lat="39.8919067" lon="8.86204"><ele>404.2</ele><time>2026-05-01T08:09:29.565Z</time></trkpt><trkpt lat="39.8917733" lon="8.8620117"><ele>404.0</ele><time>2026-05-01T08:09:31.566Z</time></trkpt><trkpt lat="39.8916867" lon="8.8619867"><ele>404.0</ele><time>2026-05-01T08:09:32.569Z</time></trkpt><trkpt lat="39.8915867" lon="8.86197"><ele>404.0</ele><time>2026-05-01T08:09:33.567Z</time></trkpt><trkpt lat="39.891485" lon="8.8619567"><ele>404.0</ele><time>2026-05-01T08:09:34.568Z</time></trkpt><trkpt lat="39.89138" lon="8.8619517"><ele>404.0</ele><time>2026-05-01T08:09:35.568Z</time></trkpt><trkpt lat="39.89128" lon="8.861945"><ele>404.0</ele><time>2026-05-01T08:09:36.564Z</time></trkpt><trkpt lat="39.8911767" lon="8.8619567"><ele>404.0</ele><time>2026-05-01T08:09:37.569Z</time></trkpt><trkpt lat="39.8910783" lon="8.8619683"><ele>404.0</ele><time>2026-05-01T08:09:38.586Z</time></trkpt><trkpt lat="39.8909867" lon="8.86199"><ele>404.0</ele><time>2026-05-01T08:09:39.569Z</time></trkpt><trkpt lat="39.8908967" lon="8.8620233"><ele>404.0</ele><time>2026-05-01T08:09:40.565Z</time></trkpt><trkpt lat="39.8908067" lon="8.8620717"><ele>404.0</ele><time>2026-05-01T08:09:41.567Z</time></trkpt><trkpt lat="39.8907183" lon="8.8621317"><ele>401.2</ele><time>2026-05-01T08:09:42.568Z</time></trkpt><trkpt lat="39.89063" lon="8.8622033"><ele>398.4</ele><time>2026-05-01T08:09:43.569Z</time></trkpt><trkpt lat="39.8905417" lon="8.8622817"><ele>395.6</ele><time>2026-05-01T08:09:44.589Z</time></trkpt><trkpt lat="39.8904517" lon="8.8623683"><ele>392.8</ele><time>2026-05-01T08:09:45.571Z</time></trkpt><trkpt lat="39.8903667" lon="8.862455"><ele>390.0</ele><time>2026-05-01T08:09:46.563Z</time></trkpt><trkpt lat="39.890285" lon="8.8625417"><ele>389.8333333333333</ele><time>2026-05-01T08:09:47.569Z</time></trkpt><trkpt lat="39.8902067" lon="8.8626333"><ele>389.66666666666663</ele><time>2026-05-01T08:09:48.568Z</time></trkpt><trkpt lat="39.8901467" lon="8.8627233"><ele>389.5</ele><time>2026-05-01T08:09:49.568Z</time></trkpt><trkpt lat="39.8900967" lon="8.8628117"><ele>389.3333333333333</ele><time>2026-05-01T08:09:50.591Z</time></trkpt><trkpt lat="39.890065" lon="8.8629083"><ele>389.16666666666663</ele><time>2026-05-01T08:09:51.562Z</time></trkpt><trkpt lat="39.8900267" lon="8.86301"><ele>389.0</ele><time>2026-05-01T08:09:52.563Z</time></trkpt><trkpt lat="39.8899817" lon="8.8631067"><ele>386.79999999999995</ele><time>2026-05-01T08:09:53.57Z</time></trkpt><trkpt lat="39.88993" lon="8.8632033"><ele>384.59999999999997</ele><time>2026-05-01T08:09:54.568Z</time></trkpt><trkpt lat="39.8898667" lon="8.8632983"><ele>382.4</ele><time>2026-05-01T08:09:55.565Z</time></trkpt><trkpt lat="39.8897867" lon="8.8633833"><ele>380.2</ele><time>2026-05-01T08:09:56.629Z</time></trkpt><trkpt lat="39.8897" lon="8.8634633"><ele>378.0</ele><time>2026-05-01T08:09:57.566Z</time></trkpt><trkpt lat="39.8896017" lon="8.8635433"><ele>377.75</ele><time>2026-05-01T08:09:58.565Z</time></trkpt><trkpt lat="39.8894967" lon="8.863625"><ele>377.5</ele><time>2026-05-01T08:09:59.569Z</time></trkpt><trkpt lat="39.8893733" lon="8.86371"><ele>377.25</ele><time>2026-05-01T08:10:00.567Z</time></trkpt><trkpt lat="39.88925" lon="8.8637667"><ele>377.0</ele><time>2026-05-01T08:10:01.569Z</time></trkpt><trkpt lat="39.8891333" lon="8.8638017"><ele>377.0</ele><time>2026-05-01T08:10:02.565Z</time></trkpt><trkpt lat="39.889015" lon="8.86383"><ele>377.0</ele><time>2026-05-01T08:10:03.569Z</time></trkpt><trkpt lat="39.8889" lon="8.86386"><ele>377.0</ele><time>2026-05-01T08:10:04.567Z</time></trkpt><trkpt lat="39.888795" lon="8.8639"><ele>377.0</ele><time>2026-05-01T08:10:05.563Z</time></trkpt><trkpt lat="39.8886883" lon="8.86396"><ele>377.0</ele><time>2026-05-01T08:10:06.563Z</time></trkpt><trkpt lat="39.8885867" lon="8.8640317"><ele>377.0</ele><time>2026-05-01T08:10:07.563Z</time></trkpt><trkpt lat="39.8884933" lon="8.86411"><ele>377.0</ele><time>2026-05-01T08:10:08.591Z</time></trkpt><trkpt lat="39.888405" lon="8.8641933"><ele>377.0</ele><time>2026-05-01T08:10:09.568Z</time></trkpt><trkpt lat="39.8883233" lon="8.8642683"><ele>377.0</ele><time>2026-05-01T08:10:10.564Z</time></trkpt><trkpt lat="39.8882467" lon="8.8643317"><ele>377.5</ele><time>2026-05-01T08:10:11.565Z</time></trkpt><trkpt lat="39.8881733" lon="8.8643917"><ele>378.0</ele><time>2026-05-01T08:10:12.568Z</time></trkpt><trkpt lat="39.88811" lon="8.864425"><ele>378.5</ele><time>2026-05-01T08:10:13.566Z</time></trkpt><trkpt lat="39.8880267" lon="8.8644367"><ele>379.0</ele><time>2026-05-01T08:10:15.567Z</time></trkpt><trkpt lat="39.88796" lon="8.86439"><ele>379.5</ele><time>2026-05-01T08:10:17.566Z</time></trkpt><trkpt lat="39.8878833" lon="8.864325"><ele>380.0</ele><time>2026-05-01T08:10:19.564Z</time></trkpt><trkpt lat="39.88778" lon="8.8642667"><ele>380.0</ele><time>2026-05-01T08:10:21.567Z</time></trkpt><trkpt lat="39.8877167" lon="8.86424"><ele>380.0</ele><time>2026-05-01T08:10:22.565Z</time></trkpt><trkpt lat="39.8876433" lon="8.8642167"><ele>380.0</ele><time>2026-05-01T08:10:23.569Z</time></trkpt><trkpt lat="39.887565" lon="8.8641917"><ele>380.0</ele><time>2026-05-01T08:10:24.566Z</time></trkpt><trkpt lat="39.88748" lon="8.8641667"><ele>380.0</ele><time>2026-05-01T08:10:25.569Z</time></trkpt><trkpt lat="39.8873883" lon="8.86413"><ele>380.0</ele><time>2026-05-01T08:10:26.59Z</time></trkpt><trkpt lat="39.8873" lon="8.8641083"><ele>379.0</ele><time>2026-05-01T08:10:27.565Z</time></trkpt><trkpt lat="39.8872083" lon="8.86409"><ele>378.0</ele><time>2026-05-01T08:10:28.564Z</time></trkpt><trkpt lat="39.88712" lon="8.8640783"><ele>377.0</ele><time>2026-05-01T08:10:29.568Z</time></trkpt><trkpt lat="39.88703" lon="8.864075"><ele>376.0</ele><time>2026-05-01T08:10:30.567Z</time></trkpt><trkpt lat="39.8869283" lon="8.86409"><ele>375.0</ele><time>2026-05-01T08:10:31.569Z</time></trkpt><trkpt lat="39.8868217" lon="8.8641033"><ele>373.0</ele><time>2026-05-01T08:10:32.621Z</time></trkpt><trkpt lat="39.8867217" lon="8.8641383"><ele>371.0</ele><time>2026-05-01T08:10:33.569Z</time></trkpt><trkpt lat="39.8866067" lon="8.8641617"><ele>369.0</ele><time>2026-05-01T08:10:34.567Z</time></trkpt><trkpt lat="39.88647" lon="8.86417"><ele>367.0</ele><time>2026-05-01T08:10:35.566Z</time></trkpt><trkpt lat="39.88632" lon="8.864195"><ele>367.0</ele><time>2026-05-01T08:10:36.568Z</time></trkpt><trkpt lat="39.8861817" lon="8.86423"><ele>367.0</ele><time>2026-05-01T08:10:37.568Z</time></trkpt><trkpt lat="39.88604" lon="8.86426"><ele>367.0</ele><time>2026-05-01T08:10:38.594Z</time></trkpt><trkpt lat="39.88589" lon="8.864305"><ele>367.0</ele><time>2026-05-01T08:10:39.569Z</time></trkpt><trkpt lat="39.8857367" lon="8.86435"><ele>368.25</ele><time>2026-05-01T08:10:40.57Z</time></trkpt><trkpt lat="39.8855867" lon="8.864385"><ele>369.5</ele><time>2026-05-01T08:10:41.569Z</time></trkpt><trkpt lat="39.885435" lon="8.8644133"><ele>370.75</ele><time>2026-05-01T08:10:42.566Z</time></trkpt><trkpt lat="39.8852983" lon="8.8644333"><ele>372.0</ele><time>2026-05-01T08:10:43.568Z</time></trkpt><trkpt lat="39.8851567" lon="8.864445"><ele>369.0</ele><time>2026-05-01T08:10:44.592Z</time></trkpt><trkpt lat="39.8850283" lon="8.8644417"><ele>366.0</ele><time>2026-05-01T08:10:45.562Z</time></trkpt><trkpt lat="39.8849033" lon="8.864425"><ele>363.0</ele><time>2026-05-01T08:10:46.567Z</time></trkpt><trkpt lat="39.8847933" lon="8.8643933"><ele>360.0</ele><time>2026-05-01T08:10:47.566Z</time></trkpt><trkpt lat="39.88469" lon="8.8643333"><ele>360.0</ele><time>2026-05-01T08:10:48.569Z</time></trkpt><trkpt lat="39.88459" lon="8.8642517"><ele>360.0</ele><time>2026-05-01T08:10:49.569Z</time></trkpt><trkpt lat="39.8844767" lon="8.8641533"><ele>360.0</ele><time>2026-05-01T08:10:50.588Z</time></trkpt><trkpt lat="39.8843567" lon="8.8640433"><ele>360.0</ele><time>2026-05-01T08:10:51.568Z</time></trkpt><trkpt lat="39.8842483" lon="8.8639133"><ele>360.0</ele><time>2026-05-01T08:10:52.563Z</time></trkpt><trkpt lat="39.884135" lon="8.8637767"><ele>360.0</ele><time>2026-05-01T08:10:53.565Z</time></trkpt><trkpt lat="39.8840517" lon="8.8636667"><ele>360.0</ele><time>2026-05-01T08:10:54.568Z</time></trkpt><trkpt lat="39.8839783" lon="8.8635383"><ele>360.0</ele><time>2026-05-01T08:10:55.564Z</time></trkpt><trkpt lat="39.8838683" lon="8.8634367"><ele>359.8333333333333</ele><time>2026-05-01T08:10:56.594Z</time></trkpt><trkpt lat="39.8837733" lon="8.8633667"><ele>359.6666666666667</ele><time>2026-05-01T08:10:57.569Z</time></trkpt><trkpt lat="39.8836983" lon="8.8632817"><ele>359.5</ele><time>2026-05-01T08:10:58.568Z</time></trkpt><trkpt lat="39.88362" lon="8.8632333"><ele>359.33333333333337</ele><time>2026-05-01T08:10:59.567Z</time></trkpt><trkpt lat="39.8835467" lon="8.86319"><ele>359.1666666666667</ele><time>2026-05-01T08:11:00.568Z</time></trkpt><trkpt lat="39.8834867" lon="8.86315"><ele>359.0</ele><time>2026-05-01T08:11:01.567Z</time></trkpt><trkpt lat="39.883435" lon="8.863095"><ele>358.83333333333337</ele><time>2026-05-01T08:11:02.594Z</time></trkpt><trkpt lat="39.8833467" lon="8.86298"><ele>358.6666666666667</ele><time>2026-05-01T08:11:04.566Z</time></trkpt><trkpt lat="39.8833167" lon="8.8629033"><ele>358.5</ele><time>2026-05-01T08:11:05.564Z</time></trkpt><trkpt lat="39.88331" lon="8.862815"><ele>358.3333333333333</ele><time>2026-05-01T08:11:06.566Z</time></trkpt><trkpt lat="39.8833067" lon="8.8627033"><ele>358.16666666666663</ele><time>2026-05-01T08:11:07.565Z</time></trkpt><trkpt lat="39.8833" lon="8.86259"><ele>358.0</ele><time>2026-05-01T08:11:08.593Z</time></trkpt><trkpt lat="39.8832883" lon="8.8624817"><ele>357.16666666666663</ele><time>2026-05-01T08:11:09.566Z</time></trkpt><trkpt lat="39.88328" lon="8.86237"><ele>356.3333333333333</ele><time>2026-05-01T08:11:10.568Z</time></trkpt><trkpt lat="39.8832617" lon="8.8622567"><ele>355.5</ele><time>2026-05-01T08:11:11.568Z</time></trkpt><trkpt lat="39.8832483" lon="8.8621367"><ele>354.6666666666667</ele><time>2026-05-01T08:11:12.565Z</time></trkpt><trkpt lat="39.8832417" lon="8.8620117"><ele>353.83333333333337</ele><time>2026-05-01T08:11:13.569Z</time></trkpt><trkpt lat="39.8832117" lon="8.8619083"><ele>353.0</ele><time>2026-05-01T08:11:14.588Z</time></trkpt><trkpt lat="39.8831867" lon="8.8618167"><ele>351.6666666666667</ele><time>2026-05-01T08:11:15.563Z</time></trkpt><trkpt lat="39.8831567" lon="8.8617367"><ele>350.33333333333337</ele><time>2026-05-01T08:11:16.569Z</time></trkpt><trkpt lat="39.8830633" lon="8.8616367"><ele>349.0</ele><time>2026-05-01T08:11:18.563Z</time></trkpt><trkpt lat="39.882995" lon="8.8616117"><ele>347.6666666666667</ele><time>2026-05-01T08:11:19.565Z</time></trkpt><trkpt lat="39.8829133" lon="8.8616017"><ele>346.3333333333333</ele><time>2026-05-01T08:11:20.588Z</time></trkpt><trkpt lat="39.8828167" lon="8.8616"><ele>345.0</ele><time>2026-05-01T08:11:21.564Z</time></trkpt><trkpt lat="39.8827233" lon="8.8615983"><ele>345.0</ele><time>2026-05-01T08:11:22.566Z</time></trkpt><trkpt lat="39.882625" lon="8.861605"><ele>345.0</ele><time>2026-05-01T08:11:23.568Z</time></trkpt><trkpt lat="39.8825217" lon="8.8616133"><ele>345.0</ele><time>2026-05-01T08:11:24.566Z</time></trkpt><trkpt lat="39.8824167" lon="8.8616083"><ele>345.0</ele><time>2026-05-01T08:11:25.565Z</time></trkpt><trkpt lat="39.8823167" lon="8.86159"><ele>345.0</ele><time>2026-05-01T08:11:26.62Z</time></trkpt><trkpt lat="39.8822167" lon="8.861565"><ele>345.1666666666667</ele><time>2026-05-01T08:11:27.563Z</time></trkpt><trkpt lat="39.882125" lon="8.8615417"><ele>345.3333333333333</ele><time>2026-05-01T08:11:28.564Z</time></trkpt><trkpt lat="39.8820417" lon="8.8615317"><ele>345.5</ele><time>2026-05-01T08:11:29.565Z</time></trkpt><trkpt lat="39.881965" lon="8.8615467"><ele>345.66666666666663</ele><time>2026-05-01T08:11:30.567Z</time></trkpt><trkpt lat="39.881895" lon="8.8615767"><ele>345.8333333333333</ele><time>2026-05-01T08:11:31.567Z</time></trkpt><trkpt lat="39.8818133" lon="8.86163"><ele>346.0</ele><time>2026-05-01T08:11:32.62Z</time></trkpt><trkpt lat="39.8817317" lon="8.8617"><ele>346.0</ele><time>2026-05-01T08:11:33.563Z</time></trkpt><trkpt lat="39.8816517" lon="8.86177"><ele>346.0</ele><time>2026-05-01T08:11:34.57Z</time></trkpt><trkpt lat="39.8815767" lon="8.8618283"><ele>346.0</ele><time>2026-05-01T08:11:35.568Z</time></trkpt><trkpt lat="39.8815033" lon="8.8618733"><ele>346.0</ele><time>2026-05-01T08:11:36.567Z</time></trkpt><trkpt lat="39.8814367" lon="8.8619017"><ele>346.0</ele><time>2026-05-01T08:11:37.566Z</time></trkpt><trkpt lat="39.8813667" lon="8.8619083"><ele>346.0</ele><time>2026-05-01T08:11:38.588Z</time></trkpt><trkpt lat="39.881295" lon="8.861895"><ele>346.0</ele><time>2026-05-01T08:11:39.567Z</time></trkpt><trkpt lat="39.8812283" lon="8.8618667"><ele>346.0</ele><time>2026-05-01T08:11:40.57Z</time></trkpt><trkpt lat="39.8811633" lon="8.8618183"><ele>346.0</ele><time>2026-05-01T08:11:41.564Z</time></trkpt><trkpt lat="39.881095" lon="8.861755"><ele>346.0</ele><time>2026-05-01T08:11:42.563Z</time></trkpt><trkpt lat="39.881025" lon="8.861685"><ele>346.0</ele><time>2026-05-01T08:11:43.566Z</time></trkpt><trkpt lat="39.8809517" lon="8.8616033"><ele>346.0</ele><time>2026-05-01T08:11:44.592Z</time></trkpt><trkpt lat="39.8808867" lon="8.861525"><ele>346.66666666666663</ele><time>2026-05-01T08:11:45.569Z</time></trkpt><trkpt lat="39.88082" lon="8.8614233"><ele>347.3333333333333</ele><time>2026-05-01T08:11:46.567Z</time></trkpt><trkpt lat="39.8807483" lon="8.861335"><ele>348.0</ele><time>2026-05-01T08:11:47.564Z</time></trkpt><trkpt lat="39.880695" lon="8.861275"><ele>348.6666666666667</ele><time>2026-05-01T08:11:48.569Z</time></trkpt><trkpt lat="39.8806233" lon="8.8612267"><ele>349.33333333333337</ele><time>2026-05-01T08:11:49.563Z</time></trkpt><trkpt lat="39.8805533" lon="8.8611967"><ele>350.0</ele><time>2026-05-01T08:11:50.587Z</time></trkpt><trkpt lat="39.8804733" lon="8.8611767"><ele>350.0</ele><time>2026-05-01T08:11:51.565Z</time></trkpt><trkpt lat="39.8803917" lon="8.8611683"><ele>350.0</ele><time>2026-05-01T08:11:52.564Z</time></trkpt><trkpt lat="39.8803017" lon="8.86117"><ele>350.0</ele><time>2026-05-01T08:11:53.568Z</time></trkpt><trkpt lat="39.8802017" lon="8.8611667"><ele>350.0</ele><time>2026-05-01T08:11:54.566Z</time></trkpt><trkpt lat="39.8801" lon="8.8611467"><ele>350.0</ele><time>2026-05-01T08:11:55.566Z</time></trkpt><trkpt lat="39.8799917" lon="8.86112"><ele>349.5</ele><time>2026-05-01T08:11:56.597Z</time></trkpt><trkpt lat="39.87988" lon="8.861085"><ele>349.0</ele><time>2026-05-01T08:11:57.564Z</time></trkpt><trkpt lat="39.8797517" lon="8.8610283"><ele>348.5</ele><time>2026-05-01T08:11:58.565Z</time></trkpt><trkpt lat="39.879645" lon="8.860995"><ele>348.0</ele><time>2026-05-01T08:11:59.568Z</time></trkpt><trkpt lat="39.87954" lon="8.8609633"><ele>348.0</ele><time>2026-05-01T08:12:00.565Z</time></trkpt><trkpt lat="39.8794333" lon="8.8609467"><ele>348.0</ele><time>2026-05-01T08:12:01.569Z</time></trkpt><trkpt lat="39.87933" lon="8.8609533"><ele>348.0</ele><time>2026-05-01T08:12:02.598Z</time></trkpt><trkpt lat="39.8792383" lon="8.86097"><ele>348.0</ele><time>2026-05-01T08:12:03.568Z</time></trkpt><trkpt lat="39.87915" lon="8.86101"><ele>348.0</ele><time>2026-05-01T08:12:04.563Z</time></trkpt><trkpt lat="39.8790683" lon="8.8610533"><ele>346.59999999999997</ele><time>2026-05-01T08:12:05.568Z</time></trkpt><trkpt lat="39.8789967" lon="8.8611233"><ele>345.2</ele><time>2026-05-01T08:12:06.567Z</time></trkpt><trkpt lat="39.878915" lon="8.861205"><ele>343.8</ele><time>2026-05-01T08:12:07.564Z</time></trkpt><trkpt lat="39.8788383" lon="8.8612767"><ele>342.4</ele><time>2026-05-01T08:12:08.592Z</time></trkpt><trkpt lat="39.8787617" lon="8.8613533"><ele>341.0</ele><time>2026-05-01T08:12:09.567Z</time></trkpt><trkpt lat="39.8786617" lon="8.8614133"><ele>341.0</ele><time>2026-05-01T08:12:10.569Z</time></trkpt><trkpt lat="39.878555" lon="8.861475"><ele>341.0</ele><time>2026-05-01T08:12:11.566Z</time></trkpt><trkpt lat="39.8784583" lon="8.8615133"><ele>341.0</ele><time>2026-05-01T08:12:12.567Z</time></trkpt><trkpt lat="39.87838" lon="8.8615467"><ele>341.0</ele><time>2026-05-01T08:12:13.563Z</time></trkpt><trkpt lat="39.8782817" lon="8.861555"><ele>341.0</ele><time>2026-05-01T08:12:14.586Z</time></trkpt><trkpt lat="39.8781967" lon="8.8615383"><ele>339.8</ele><time>2026-05-01T08:12:15.568Z</time></trkpt><trkpt lat="39.8781133" lon="8.8615033"><ele>338.6</ele><time>2026-05-01T08:12:16.567Z</time></trkpt><trkpt lat="39.8780183" lon="8.8614567"><ele>337.4</ele><time>2026-05-01T08:12:17.563Z</time></trkpt><trkpt lat="39.8779317" lon="8.8614133"><ele>336.2</ele><time>2026-05-01T08:12:18.566Z</time></trkpt><trkpt lat="39.8778417" lon="8.861375"><ele>335.0</ele><time>2026-05-01T08:12:19.563Z</time></trkpt><trkpt lat="39.87776" lon="8.8613183"><ele>335.0</ele><time>2026-05-01T08:12:20.586Z</time></trkpt><trkpt lat="39.87768" lon="8.8612667"><ele>335.0</ele><time>2026-05-01T08:12:21.563Z</time></trkpt><trkpt lat="39.8775933" lon="8.8612283"><ele>335.0</ele><time>2026-05-01T08:12:22.567Z</time></trkpt><trkpt lat="39.8775033" lon="8.8612083"><ele>335.0</ele><time>2026-05-01T08:12:23.566Z</time></trkpt><trkpt lat="39.8774067" lon="8.8611933"><ele>335.0</ele><time>2026-05-01T08:12:24.567Z</time></trkpt><trkpt lat="39.8773033" lon="8.86118"><ele>333.25</ele><time>2026-05-01T08:12:25.567Z</time></trkpt><trkpt lat="39.877195" lon="8.8611583"><ele>331.5</ele><time>2026-05-01T08:12:26.632Z</time></trkpt><trkpt lat="39.8770867" lon="8.861125"><ele>329.75</ele><time>2026-05-01T08:12:27.563Z</time></trkpt><trkpt lat="39.876975" lon="8.861075"><ele>328.0</ele><time>2026-05-01T08:12:28.566Z</time></trkpt><trkpt lat="39.8768683" lon="8.8610133"><ele>327.79999999999995</ele><time>2026-05-01T08:12:29.565Z</time></trkpt><trkpt lat="39.8767683" lon="8.860945"><ele>327.6</ele><time>2026-05-01T08:12:30.568Z</time></trkpt><trkpt lat="39.876675" lon="8.8608783"><ele>327.4</ele><time>2026-05-01T08:12:31.566Z</time></trkpt><trkpt lat="39.87659" lon="8.860805"><ele>327.20000000000005</ele><time>2026-05-01T08:12:32.595Z</time></trkpt><trkpt lat="39.8765133" lon="8.860705"><ele>327.0</ele><time>2026-05-01T08:12:33.567Z</time></trkpt><trkpt lat="39.87645" lon="8.8606583"><ele>327.0</ele><time>2026-05-01T08:12:34.564Z</time></trkpt><trkpt lat="39.8763867" lon="8.8606317"><ele>327.0</ele><time>2026-05-01T08:12:35.569Z</time></trkpt><trkpt lat="39.8763117" lon="8.8605983"><ele>327.0</ele><time>2026-05-01T08:12:37.564Z</time></trkpt><trkpt lat="39.87623" lon="8.860585"><ele>327.0</ele><time>2026-05-01T08:12:40.567Z</time></trkpt><trkpt lat="39.8761633" lon="8.8605867"><ele>327.0</ele><time>2026-05-01T08:12:43.562Z</time></trkpt><trkpt lat="39.8760883" lon="8.8606"><ele>327.0</ele><time>2026-05-01T08:12:47.566Z</time></trkpt><trkpt lat="39.8760067" lon="8.8606217"><ele>326.5</ele><time>2026-05-01T08:12:51.562Z</time></trkpt><trkpt lat="39.8759283" lon="8.8606517"><ele>326.0</ele><time>2026-05-01T08:12:55.568Z</time></trkpt><trkpt lat="39.8758517" lon="8.86067"><ele>325.5</ele><time>2026-05-01T08:12:59.566Z</time></trkpt><trkpt lat="39.8757833" lon="8.8606917"><ele>325.0</ele><time>2026-05-01T08:13:02.628Z</time></trkpt><trkpt lat="39.8756833" lon="8.8607367"><ele>324.5</ele><time>2026-05-01T08:13:23.567Z</time></trkpt><trkpt lat="39.8756167" lon="8.8607617"><ele>324.0</ele><time>2026-05-01T08:13:28.569Z</time></trkpt><trkpt lat="39.87555" lon="8.8607733"><ele>324.0</ele><time>2026-05-01T08:13:33.568Z</time></trkpt><trkpt lat="39.8754733" lon="8.86078"><ele>324.0</ele><time>2026-05-01T08:13:38.589Z</time></trkpt><trkpt lat="39.8753983" lon="8.86079"><ele>324.0</ele><time>2026-05-01T08:13:42.564Z</time></trkpt><trkpt lat="39.8753217" lon="8.8607983"><ele>324.0</ele><time>2026-05-01T08:13:45.564Z</time></trkpt><trkpt lat="39.87526" lon="8.8608333"><ele>324.0</ele><time>2026-05-01T08:13:48.567Z</time></trkpt><trkpt lat="39.8752" lon="8.860885"><ele>324.0</ele><time>2026-05-01T08:13:52.561Z</time></trkpt><trkpt lat="39.87515" lon="8.8609417"><ele>324.0</ele><time>2026-05-01T08:13:57.568Z</time></trkpt><trkpt lat="39.8750883" lon="8.8609967"><ele>322.8571428571429</ele><time>2026-05-01T08:14:02.625Z</time></trkpt><trkpt lat="39.8750433" lon="8.861055"><ele>321.7142857142857</ele><time>2026-05-01T08:14:08.59Z</time></trkpt><trkpt lat="39.8749917" lon="8.8611117"><ele>320.57142857142856</ele><time>2026-05-01T08:14:13.565Z</time></trkpt><trkpt lat="39.8749267" lon="8.8611717"><ele>319.42857142857144</ele><time>2026-05-01T08:14:18.565Z</time></trkpt><trkpt lat="39.8748633" lon="8.861235"><ele>318.2857142857143</ele><time>2026-05-01T08:14:23.563Z</time></trkpt><trkpt lat="39.8748133" lon="8.8612967"><ele>317.14285714285717</ele><time>2026-05-01T08:14:28.568Z</time></trkpt><trkpt lat="39.8747533" lon="8.8613417"><ele>316.0</ele><time>2026-05-01T08:14:33.565Z</time></trkpt><trkpt lat="39.8746883" lon="8.8615183"><ele>316.00000000000006</ele><time>2026-05-01T08:14:59.564Z</time></trkpt><trkpt lat="39.87464" lon="8.86161"><ele>316.0</ele><time>2026-05-01T08:15:03.562Z</time></trkpt><trkpt lat="39.8746283" lon="8.8616967"><ele>316.0</ele><time>2026-05-01T08:15:06.564Z</time></trkpt><trkpt lat="39.8746017" lon="8.8617717"><ele>316.0</ele><time>2026-05-01T08:15:10.568Z</time></trkpt><trkpt lat="39.8745717" lon="8.861845"><ele>316.0</ele><time>2026-05-01T08:15:14.591Z</time></trkpt><trkpt lat="39.8745467" lon="8.8619317"><ele>316.00000000000006</ele><time>2026-05-01T08:15:20.594Z</time></trkpt><trkpt lat="39.8745383" lon="8.862015"><ele>316.0</ele><time>2026-05-01T08:15:25.561Z</time></trkpt><trkpt lat="39.8745383" lon="8.8621033"><ele>315.16666666666663</ele><time>2026-05-01T08:15:31.563Z</time></trkpt><trkpt lat="39.87453" lon="8.8621867"><ele>314.3333333333333</ele><time>2026-05-01T08:15:35.569Z</time></trkpt><trkpt lat="39.87451" lon="8.8622767"><ele>313.5</ele><time>2026-05-01T08:15:40.562Z</time></trkpt><trkpt lat="39.8744467" lon="8.8624083"><ele>312.6666666666667</ele><time>2026-05-01T08:15:52.562Z</time></trkpt><trkpt lat="39.8743917" lon="8.8624633"><ele>311.83333333333337</ele><time>2026-05-01T08:15:58.569Z</time></trkpt><trkpt lat="39.8743317" lon="8.8625317"><ele>311.0</ele><time>2026-05-01T08:16:06.565Z</time></trkpt><trkpt lat="39.8742433" lon="8.8626333"><ele>308.8</ele><time>2026-05-01T08:18:05.57Z</time></trkpt><trkpt lat="39.8741433" lon="8.86262"><ele>306.6</ele><time>2026-05-01T08:18:16.568Z</time></trkpt><trkpt lat="39.8740583" lon="8.8626183"><ele>304.4</ele><time>2026-05-01T08:18:19.566Z</time></trkpt><trkpt lat="39.8739817" lon="8.8626217"><ele>302.2</ele><time>2026-05-01T08:18:21.564Z</time></trkpt><trkpt lat="39.87389" lon="8.8626217"><ele>300.0</ele><time>2026-05-01T08:18:23.564Z</time></trkpt><trkpt lat="39.8737867" lon="8.8626283"><ele>300.0</ele><time>2026-05-01T08:18:25.566Z</time></trkpt><trkpt lat="39.87367" lon="8.8626333"><ele>300.0</ele><time>2026-05-01T08:18:27.564Z</time></trkpt><trkpt lat="39.8735483" lon="8.8626333"><ele>300.0</ele><time>2026-05-01T08:18:29.567Z</time></trkpt><trkpt lat="39.8734383" lon="8.8626217"><ele>300.0</ele><time>2026-05-01T08:18:31.568Z</time></trkpt><trkpt lat="39.873345" lon="8.8626"><ele>300.0</ele><time>2026-05-01T08:18:33.564Z</time></trkpt><trkpt lat="39.8732767" lon="8.8625833"><ele>299.6666666666667</ele><time>2026-05-01T08:18:35.567Z</time></trkpt><trkpt lat="39.87319" lon="8.862555"><ele>299.3333333333333</ele><time>2026-05-01T08:18:38.597Z</time></trkpt><trkpt lat="39.8731283" lon="8.8625233"><ele>299.0</ele><time>2026-05-01T08:18:41.564Z</time></trkpt><trkpt lat="39.8730717" lon="8.86248"><ele>298.66666666666663</ele><time>2026-05-01T08:18:45.569Z</time></trkpt><trkpt lat="39.8729883" lon="8.86234"><ele>298.3333333333333</ele><time>2026-05-01T08:19:11.563Z</time></trkpt><trkpt lat="39.872975" lon="8.8622417"><ele>298.0</ele><time>2026-05-01T08:19:15.566Z</time></trkpt><trkpt lat="39.872955" lon="8.8621333"><ele>298.0</ele><time>2026-05-01T08:19:18.562Z</time></trkpt><trkpt lat="39.8729433" lon="8.8620417"><ele>298.0</ele><time>2026-05-01T08:19:20.596Z</time></trkpt><trkpt lat="39.872935" lon="8.8619183"><ele>298.0</ele><time>2026-05-01T08:19:22.563Z</time></trkpt><trkpt lat="39.872925" lon="8.8617583"><ele>298.0</ele><time>2026-05-01T08:19:24.563Z</time></trkpt><trkpt lat="39.8729267" lon="8.8616633"><ele>298.0</ele><time>2026-05-01T08:19:25.565Z</time></trkpt><trkpt lat="39.8729317" lon="8.861565"><ele>298.0</ele><time>2026-05-01T08:19:26.632Z</time></trkpt><trkpt lat="39.872945" lon="8.8614567"><ele>298.2</ele><time>2026-05-01T08:19:27.563Z</time></trkpt><trkpt lat="39.8729717" lon="8.8613383"><ele>298.4</ele><time>2026-05-01T08:19:28.564Z</time></trkpt><trkpt lat="39.8730083" lon="8.8612233"><ele>298.59999999999997</ele><time>2026-05-01T08:19:29.563Z</time></trkpt><trkpt lat="39.8730533" lon="8.8611133"><ele>298.8</ele><time>2026-05-01T08:19:30.567Z</time></trkpt><trkpt lat="39.8730933" lon="8.8610067"><ele>299.0</ele><time>2026-05-01T08:19:31.567Z</time></trkpt><trkpt lat="39.8731333" lon="8.8608967"><ele>297.6666666666667</ele><time>2026-05-01T08:19:32.632Z</time></trkpt><trkpt lat="39.8731667" lon="8.8607933"><ele>296.33333333333337</ele><time>2026-05-01T08:19:33.561Z</time></trkpt><trkpt lat="39.8731933" lon="8.8606917"><ele>295.0</ele><time>2026-05-01T08:19:34.563Z</time></trkpt><trkpt lat="39.8732083" lon="8.860585"><ele>293.6666666666667</ele><time>2026-05-01T08:19:35.568Z</time></trkpt><trkpt lat="39.8732133" lon="8.8604867"><ele>292.3333333333333</ele><time>2026-05-01T08:19:36.568Z</time></trkpt><trkpt lat="39.8731983" lon="8.8603983"><ele>291.0</ele><time>2026-05-01T08:19:37.562Z</time></trkpt><trkpt lat="39.8731067" lon="8.8602983"><ele>291.0</ele><time>2026-05-01T08:19:39.567Z</time></trkpt><trkpt lat="39.8729767" lon="8.8602767"><ele>291.0</ele><time>2026-05-01T08:19:41.565Z</time></trkpt><trkpt lat="39.8729017" lon="8.860285"><ele>291.0</ele><time>2026-05-01T08:19:42.569Z</time></trkpt><trkpt lat="39.8728167" lon="8.8602983"><ele>291.0</ele><time>2026-05-01T08:19:43.562Z</time></trkpt><trkpt lat="39.8727283" lon="8.8603133"><ele>291.0</ele><time>2026-05-01T08:19:44.595Z</time></trkpt><trkpt lat="39.8725967" lon="8.86037"><ele>288.25</ele><time>2026-05-01T08:19:45.565Z</time></trkpt><trkpt lat="39.87246" lon="8.86043"><ele>285.5</ele><time>2026-05-01T08:19:46.562Z</time></trkpt><trkpt lat="39.8723183" lon="8.8604917"><ele>282.75</ele><time>2026-05-01T08:19:47.568Z</time></trkpt><trkpt lat="39.8721967" lon="8.8605483"><ele>280.0</ele><time>2026-05-01T08:19:48.566Z</time></trkpt><trkpt lat="39.872095" lon="8.8605867"><ele>280.0</ele><time>2026-05-01T08:19:49.567Z</time></trkpt><trkpt lat="39.8719967" lon="8.8606283"><ele>280.0</ele><time>2026-05-01T08:19:50.591Z</time></trkpt><trkpt lat="39.8719067" lon="8.8606633"><ele>280.0</ele><time>2026-05-01T08:19:51.561Z</time></trkpt><trkpt lat="39.8718167" lon="8.8607"><ele>280.0</ele><time>2026-05-01T08:19:52.566Z</time></trkpt><trkpt lat="39.8717233" lon="8.8607367"><ele>280.0</ele><time>2026-05-01T08:19:53.566Z</time></trkpt><trkpt lat="39.8716283" lon="8.8607717"><ele>279.8</ele><time>2026-05-01T08:19:54.564Z</time></trkpt><trkpt lat="39.87153" lon="8.8608083"><ele>279.6</ele><time>2026-05-01T08:19:55.565Z</time></trkpt><trkpt lat="39.871435" lon="8.8608517"><ele>279.4</ele><time>2026-05-01T08:19:56.63Z</time></trkpt><trkpt lat="39.8713467" lon="8.8609083"><ele>279.2</ele><time>2026-05-01T08:19:57.563Z</time></trkpt><trkpt lat="39.8712617" lon="8.8609767"><ele>279.0</ele><time>2026-05-01T08:19:58.562Z</time></trkpt><trkpt lat="39.87118" lon="8.86106"><ele>279.0</ele><time>2026-05-01T08:19:59.566Z</time></trkpt><trkpt lat="39.8710983" lon="8.8611567"><ele>279.0</ele><time>2026-05-01T08:20:00.566Z</time></trkpt><trkpt lat="39.8710267" lon="8.8612583"><ele>279.0</ele><time>2026-05-01T08:20:01.564Z</time></trkpt><trkpt lat="39.8709567" lon="8.8613917"><ele>279.0</ele><time>2026-05-01T08:20:02.623Z</time></trkpt><trkpt lat="39.8709117" lon="8.8615233"><ele>275.25</ele><time>2026-05-01T08:20:03.562Z</time></trkpt><trkpt lat="39.8708733" lon="8.8616583"><ele>271.5</ele><time>2026-05-01T08:20:04.567Z</time></trkpt><trkpt lat="39.8708283" lon="8.8618033"><ele>267.75</ele><time>2026-05-01T08:20:05.562Z</time></trkpt><trkpt lat="39.8708083" lon="8.8619533"><ele>264.0</ele><time>2026-05-01T08:20:06.564Z</time></trkpt><trkpt lat="39.8707983" lon="8.8620967"><ele>263.0</ele><time>2026-05-01T08:20:07.567Z</time></trkpt><trkpt lat="39.8707967" lon="8.862245"><ele>262.0</ele><time>2026-05-01T08:20:08.595Z</time></trkpt><trkpt lat="39.8708267" lon="8.86239"><ele>261.0</ele><time>2026-05-01T08:20:09.563Z</time></trkpt><trkpt lat="39.8708533" lon="8.862535"><ele>260.0</ele><time>2026-05-01T08:20:10.568Z</time></trkpt><trkpt lat="39.870885" lon="8.86267"><ele>259.0</ele><time>2026-05-01T08:20:11.564Z</time></trkpt><trkpt lat="39.8709217" lon="8.862825"><ele>258.0</ele><time>2026-05-01T08:20:12.562Z</time></trkpt><trkpt lat="39.870965" lon="8.8629867"><ele>257.0</ele><time>2026-05-01T08:20:13.566Z</time></trkpt><trkpt lat="39.8709967" lon="8.8631533"><ele>256.0</ele><time>2026-05-01T08:20:14.591Z</time></trkpt><trkpt lat="39.8710233" lon="8.8633133"><ele>257.2</ele><time>2026-05-01T08:20:15.564Z</time></trkpt><trkpt lat="39.8710433" lon="8.8634667"><ele>258.40000000000003</ele><time>2026-05-01T08:20:16.571Z</time></trkpt><trkpt lat="39.8710533" lon="8.8636083"><ele>259.6</ele><time>2026-05-01T08:20:17.567Z</time></trkpt><trkpt lat="39.8710583" lon="8.8637383"><ele>260.8</ele><time>2026-05-01T08:20:18.565Z</time></trkpt><trkpt lat="39.8710483" lon="8.8638583"><ele>262.0</ele><time>2026-05-01T08:20:19.563Z</time></trkpt><trkpt lat="39.8710283" lon="8.863965"><ele>262.0</ele><time>2026-05-01T08:20:20.593Z</time></trkpt><trkpt lat="39.87101" lon="8.8640667"><ele>262.0</ele><time>2026-05-01T08:20:21.568Z</time></trkpt><trkpt lat="39.8709567" lon="8.8641167"><ele>262.0</ele><time>2026-05-01T08:20:22.565Z</time></trkpt><trkpt lat="39.870875" lon="8.8640833"><ele>262.0</ele><time>2026-05-01T08:20:23.566Z</time></trkpt><trkpt lat="39.8707983" lon="8.864015"><ele>262.0</ele><time>2026-05-01T08:20:24.566Z</time></trkpt><trkpt lat="39.87072" lon="8.8639417"><ele>262.0</ele><time>2026-05-01T08:20:25.561Z</time></trkpt><trkpt lat="39.870645" lon="8.8638567"><ele>260.5</ele><time>2026-05-01T08:20:26.594Z</time></trkpt><trkpt lat="39.8705783" lon="8.86372"><ele>259.0</ele><time>2026-05-01T08:20:27.566Z</time></trkpt><trkpt lat="39.870525" lon="8.8636017"><ele>257.5</ele><time>2026-05-01T08:20:28.565Z</time></trkpt><trkpt lat="39.8704583" lon="8.8634467"><ele>256.0</ele><time>2026-05-01T08:20:29.565Z</time></trkpt><trkpt lat="39.8703883" lon="8.8633283"><ele>256.0</ele><time>2026-05-01T08:20:30.563Z</time></trkpt><trkpt lat="39.8703017" lon="8.8632167"><ele>256.0</ele><time>2026-05-01T08:20:31.563Z</time></trkpt><trkpt lat="39.8702067" lon="8.86311"><ele>256.0</ele><time>2026-05-01T08:20:32.625Z</time></trkpt><trkpt lat="39.8701067" lon="8.8630167"><ele>256.0</ele><time>2026-05-01T08:20:33.566Z</time></trkpt><trkpt lat="39.8700233" lon="8.8629233"><ele>257.0</ele><time>2026-05-01T08:20:34.563Z</time></trkpt><trkpt lat="39.86995" lon="8.8628217"><ele>258.0</ele><time>2026-05-01T08:20:35.564Z</time></trkpt><trkpt lat="39.86989" lon="8.862705"><ele>259.0</ele><time>2026-05-01T08:20:36.567Z</time></trkpt><trkpt lat="39.8698233" lon="8.8625717"><ele>260.0</ele><time>2026-05-01T08:20:37.567Z</time></trkpt><trkpt lat="39.869765" lon="8.86244"><ele>260.0</ele><time>2026-05-01T08:20:38.594Z</time></trkpt><trkpt lat="39.8697133" lon="8.862295"><ele>260.0</ele><time>2026-05-01T08:20:39.567Z</time></trkpt><trkpt lat="39.8696567" lon="8.8621533"><ele>260.0</ele><time>2026-05-01T08:20:40.563Z</time></trkpt><trkpt lat="39.8695883" lon="8.8620083"><ele>260.0</ele><time>2026-05-01T08:20:41.561Z</time></trkpt><trkpt lat="39.8695117" lon="8.8618417"><ele>258.5</ele><time>2026-05-01T08:20:42.566Z</time></trkpt><trkpt lat="39.8694267" lon="8.86172"><ele>257.0</ele><time>2026-05-01T08:20:43.567Z</time></trkpt><trkpt lat="39.8693283" lon="8.8616117"><ele>255.5</ele><time>2026-05-01T08:20:44.595Z</time></trkpt><trkpt lat="39.8692183" lon="8.861515"><ele>254.0</ele><time>2026-05-01T08:20:45.563Z</time></trkpt><trkpt lat="39.8691" lon="8.8614333"><ele>258.5</ele><time>2026-05-01T08:20:46.567Z</time></trkpt><trkpt lat="39.8689683" lon="8.86133"><ele>263.0</ele><time>2026-05-01T08:20:47.564Z</time></trkpt><trkpt lat="39.868835" lon="8.8612833"><ele>267.5</ele><time>2026-05-01T08:20:48.566Z</time></trkpt><trkpt lat="39.8687033" lon="8.8612567"><ele>272.0</ele><time>2026-05-01T08:20:49.566Z</time></trkpt><trkpt lat="39.8685667" lon="8.86125"><ele>273.5</ele><time>2026-05-01T08:20:50.593Z</time></trkpt><trkpt lat="39.868435" lon="8.8612433"><ele>275.0</ele><time>2026-05-01T08:20:51.56Z</time></trkpt><trkpt lat="39.8683117" lon="8.86124"><ele>276.5</ele><time>2026-05-01T08:20:52.561Z</time></trkpt><trkpt lat="39.8681933" lon="8.861225"><ele>278.0</ele><time>2026-05-01T08:20:53.563Z</time></trkpt><trkpt lat="39.8680833" lon="8.8611883"><ele>278.0</ele><time>2026-05-01T08:20:54.566Z</time></trkpt><trkpt lat="39.8679717" lon="8.8611483"><ele>278.0</ele><time>2026-05-01T08:20:55.564Z</time></trkpt><trkpt lat="39.86787" lon="8.8611083"><ele>278.0</ele><time>2026-05-01T08:20:56.625Z</time></trkpt><trkpt lat="39.8677783" lon="8.8610533"><ele>278.0</ele><time>2026-05-01T08:20:57.567Z</time></trkpt><trkpt lat="39.86769" lon="8.8609933"><ele>278.0</ele><time>2026-05-01T08:20:58.564Z</time></trkpt><trkpt lat="39.8676417" lon="8.8608583"><ele>278.25</ele><time>2026-05-01T08:20:59.567Z</time></trkpt><trkpt lat="39.8675817" lon="8.8607517"><ele>278.5</ele><time>2026-05-01T08:21:00.563Z</time></trkpt><trkpt lat="39.867565" lon="8.8605833"><ele>278.75</ele><time>2026-05-01T08:21:01.563Z</time></trkpt><trkpt lat="39.8676017" lon="8.8603467"><ele>279.0</ele><time>2026-05-01T08:21:02.622Z</time></trkpt><trkpt lat="39.8675733" lon="8.8601733"><ele>278.75</ele><time>2026-05-01T08:21:03.567Z</time></trkpt><trkpt lat="39.8675333" lon="8.860015"><ele>278.5</ele><time>2026-05-01T08:21:04.567Z</time></trkpt><trkpt lat="39.8674833" lon="8.8598667"><ele>278.25</ele><time>2026-05-01T08:21:05.564Z</time></trkpt><trkpt lat="39.8674317" lon="8.8597033"><ele>278.0</ele><time>2026-05-01T08:21:06.563Z</time></trkpt><trkpt lat="39.8673767" lon="8.859555"><ele>278.0</ele><time>2026-05-01T08:21:07.563Z</time></trkpt><trkpt lat="39.8673133" lon="8.8594317"><ele>278.0</ele><time>2026-05-01T08:21:08.595Z</time></trkpt><trkpt lat="39.8672433" lon="8.8593183"><ele>278.0</ele><time>2026-05-01T08:21:09.566Z</time></trkpt><trkpt lat="39.867165" lon="8.8592067"><ele>278.0</ele><time>2026-05-01T08:21:10.567Z</time></trkpt><trkpt lat="39.867075" lon="8.8591017"><ele>278.6666666666667</ele><time>2026-05-01T08:21:11.575Z</time></trkpt><trkpt lat="39.8669583" lon="8.8589717"><ele>279.3333333333333</ele><time>2026-05-01T08:21:12.616Z</time></trkpt><trkpt lat="39.86683" lon="8.8588733"><ele>280.0</ele><time>2026-05-01T08:21:13.57Z</time></trkpt><trkpt lat="39.8667" lon="8.8587733"><ele>280.0</ele><time>2026-05-01T08:21:14.595Z</time></trkpt><trkpt lat="39.86659" lon="8.8587"><ele>280.0</ele><time>2026-05-01T08:21:15.568Z</time></trkpt><trkpt lat="39.8664833" lon="8.8586017"><ele>280.0</ele><time>2026-05-01T08:21:16.568Z</time></trkpt><trkpt lat="39.8663767" lon="8.8585083"><ele>280.0</ele><time>2026-05-01T08:21:17.569Z</time></trkpt><trkpt lat="39.866265" lon="8.8584283"><ele>280.8</ele><time>2026-05-01T08:21:18.565Z</time></trkpt><trkpt lat="39.8661533" lon="8.85836"><ele>281.6</ele><time>2026-05-01T08:21:19.57Z</time></trkpt><trkpt lat="39.866045" lon="8.8583033"><ele>282.4</ele><time>2026-05-01T08:21:20.599Z</time></trkpt><trkpt lat="39.8659417" lon="8.8582567"><ele>283.2</ele><time>2026-05-01T08:21:21.574Z</time></trkpt><trkpt lat="39.86585" lon="8.858225"><ele>284.0</ele><time>2026-05-01T08:21:22.568Z</time></trkpt><trkpt lat="39.8657683" lon="8.8582"><ele>284.0</ele><time>2026-05-01T08:21:23.567Z</time></trkpt><trkpt lat="39.8656833" lon="8.8581917"><ele>284.0</ele><time>2026-05-01T08:21:24.567Z</time></trkpt><trkpt lat="39.8655783" lon="8.8581767"><ele>284.0</ele><time>2026-05-01T08:21:26.598Z</time></trkpt><trkpt lat="39.8655" lon="8.85819"><ele>284.0</ele><time>2026-05-01T08:21:28.57Z</time></trkpt><trkpt lat="39.865425" lon="8.85825"><ele>284.0</ele><time>2026-05-01T08:21:30.567Z</time></trkpt><trkpt lat="39.865355" lon="8.858345"><ele>284.4</ele><time>2026-05-01T08:21:32.624Z</time></trkpt><trkpt lat="39.8652833" lon="8.8584517"><ele>284.79999999999995</ele><time>2026-05-01T08:21:34.565Z</time></trkpt><trkpt lat="39.8652267" lon="8.8585633"><ele>285.20000000000005</ele><time>2026-05-01T08:21:36.564Z</time></trkpt><trkpt lat="39.8651833" lon="8.858645"><ele>285.6</ele><time>2026-05-01T08:21:38.594Z</time></trkpt><trkpt lat="39.865105" lon="8.8586867"><ele>286.0</ele><time>2026-05-01T08:21:40.568Z</time></trkpt><trkpt lat="39.86498" lon="8.8587"><ele>286.8</ele><time>2026-05-01T08:21:42.567Z</time></trkpt><trkpt lat="39.8648933" lon="8.8586867"><ele>287.6</ele><time>2026-05-01T08:21:43.564Z</time></trkpt><trkpt lat="39.8648033" lon="8.8586783"><ele>288.4</ele><time>2026-05-01T08:21:44.591Z</time></trkpt><trkpt lat="39.8647067" lon="8.8586783"><ele>289.2</ele><time>2026-05-01T08:21:45.562Z</time></trkpt><trkpt lat="39.86461" lon="8.8586983"><ele>290.0</ele><time>2026-05-01T08:21:46.563Z</time></trkpt><trkpt lat="39.8645133" lon="8.8587133"><ele>290.0</ele><time>2026-05-01T08:21:47.564Z</time></trkpt><trkpt lat="39.8644133" lon="8.858745"><ele>290.0</ele><time>2026-05-01T08:21:48.567Z</time></trkpt><trkpt lat="39.864325" lon="8.8587917"><ele>290.0</ele><time>2026-05-01T08:21:49.561Z</time></trkpt><trkpt lat="39.8642083" lon="8.858865"><ele>290.0</ele><time>2026-05-01T08:21:50.594Z</time></trkpt><trkpt lat="39.86408" lon="8.8588917"><ele>289.0</ele><time>2026-05-01T08:21:51.563Z</time></trkpt><trkpt lat="39.864" lon="8.858925"><ele>288.0</ele><time>2026-05-01T08:21:52.565Z</time></trkpt><trkpt lat="39.8638717" lon="8.8589167"><ele>287.0</ele><time>2026-05-01T08:21:53.568Z</time></trkpt><trkpt lat="39.8637417" lon="8.8589583"><ele>286.0</ele><time>2026-05-01T08:21:54.566Z</time></trkpt><trkpt lat="39.8636367" lon="8.8589867"><ele>286.0</ele><time>2026-05-01T08:21:55.567Z</time></trkpt><trkpt lat="39.8635383" lon="8.8590133"><ele>286.0</ele><time>2026-05-01T08:21:56.594Z</time></trkpt><trkpt lat="39.863475" lon="8.8590567"><ele>286.0</ele><time>2026-05-01T08:21:57.563Z</time></trkpt><trkpt lat="39.8633983" lon="8.8590933"><ele>286.0</ele><time>2026-05-01T08:21:58.563Z</time></trkpt><trkpt lat="39.8633133" lon="8.8590967"><ele>286.0</ele><time>2026-05-01T08:21:59.564Z</time></trkpt><trkpt lat="39.8632333" lon="8.859095"><ele>286.0</ele><time>2026-05-01T08:22:00.567Z</time></trkpt><trkpt lat="39.863155" lon="8.859075"><ele>284.6</ele><time>2026-05-01T08:22:01.564Z</time></trkpt><trkpt lat="39.86308" lon="8.85903"><ele>283.20000000000005</ele><time>2026-05-01T08:22:02.566Z</time></trkpt><trkpt lat="39.8629917" lon="8.8589633"><ele>281.79999999999995</ele><time>2026-05-01T08:22:03.563Z</time></trkpt><trkpt lat="39.8629117" lon="8.8589"><ele>280.4</ele><time>2026-05-01T08:22:04.562Z</time></trkpt><trkpt lat="39.8628383" lon="8.85881"><ele>279.0</ele><time>2026-05-01T08:22:05.566Z</time></trkpt><trkpt lat="39.8627667" lon="8.8586917"><ele>279.0</ele><time>2026-05-01T08:22:06.567Z</time></trkpt><trkpt lat="39.86269" lon="8.8586"><ele>279.0</ele><time>2026-05-01T08:22:07.566Z</time></trkpt><trkpt lat="39.8626217" lon="8.8585233"><ele>279.0</ele><time>2026-05-01T08:22:08.595Z</time></trkpt><trkpt lat="39.86256" lon="8.85844"><ele>279.0</ele><time>2026-05-01T08:22:09.564Z</time></trkpt><trkpt lat="39.8625167" lon="8.8583467"><ele>279.0</ele><time>2026-05-01T08:22:10.565Z</time></trkpt><trkpt lat="39.8625083" lon="8.8582367"><ele>279.6666666666667</ele><time>2026-05-01T08:22:11.563Z</time></trkpt><trkpt lat="39.8625467" lon="8.8580717"><ele>280.33333333333337</ele><time>2026-05-01T08:22:12.564Z</time></trkpt><trkpt lat="39.8625983" lon="8.85788"><ele>281.0</ele><time>2026-05-01T08:22:13.567Z</time></trkpt><trkpt lat="39.8626817" lon="8.8576033"><ele>277.75</ele><time>2026-05-01T08:22:14.596Z</time></trkpt><trkpt lat="39.8627267" lon="8.857425"><ele>274.5</ele><time>2026-05-01T08:22:15.562Z</time></trkpt><trkpt lat="39.8627483" lon="8.8572517"><ele>271.25</ele><time>2026-05-01T08:22:16.565Z</time></trkpt><trkpt lat="39.8627717" lon="8.8570717"><ele>268.0</ele><time>2026-05-01T08:22:17.561Z</time></trkpt><trkpt lat="39.8627983" lon="8.8568917"><ele>267.0</ele><time>2026-05-01T08:22:18.569Z</time></trkpt><trkpt lat="39.8628117" lon="8.8567183"><ele>266.0</ele><time>2026-05-01T08:22:19.564Z</time></trkpt><trkpt lat="39.8628183" lon="8.8565533"><ele>265.0</ele><time>2026-05-01T08:22:20.593Z</time></trkpt><trkpt lat="39.8628333" lon="8.8563967"><ele>264.0</ele><time>2026-05-01T08:22:21.565Z</time></trkpt><trkpt lat="39.862855" lon="8.8562433"><ele>264.0</ele><time>2026-05-01T08:22:22.567Z</time></trkpt><trkpt lat="39.8628917" lon="8.856095"><ele>264.0</ele><time>2026-05-01T08:22:23.563Z</time></trkpt><trkpt lat="39.862935" lon="8.8559417"><ele>264.0</ele><time>2026-05-01T08:22:24.561Z</time></trkpt><trkpt lat="39.863025" lon="8.8557833"><ele>264.0</ele><time>2026-05-01T08:22:25.564Z</time></trkpt><trkpt lat="39.8631283" lon="8.8556333"><ele>265.0</ele><time>2026-05-01T08:22:26.628Z</time></trkpt><trkpt lat="39.8631933" lon="8.85549"><ele>266.0</ele><time>2026-05-01T08:22:27.565Z</time></trkpt><trkpt lat="39.86325" lon="8.8553483"><ele>267.0</ele><time>2026-05-01T08:22:28.566Z</time></trkpt><trkpt lat="39.86329" lon="8.8552133"><ele>268.0</ele><time>2026-05-01T08:22:29.566Z</time></trkpt><trkpt lat="39.8633267" lon="8.8550833"><ele>269.5</ele><time>2026-05-01T08:22:30.564Z</time></trkpt><trkpt lat="39.8633533" lon="8.8549467"><ele>271.0</ele><time>2026-05-01T08:22:31.561Z</time></trkpt><trkpt lat="39.8633683" lon="8.8548117"><ele>272.5</ele><time>2026-05-01T08:22:32.567Z</time></trkpt><trkpt lat="39.8633483" lon="8.8546717"><ele>274.0</ele><time>2026-05-01T08:22:33.569Z</time></trkpt><trkpt lat="39.8633" lon="8.8545133"><ele>274.0</ele><time>2026-05-01T08:22:34.568Z</time></trkpt><trkpt lat="39.8632433" lon="8.8543583"><ele>274.0</ele><time>2026-05-01T08:22:35.562Z</time></trkpt><trkpt lat="39.8631733" lon="8.8542017"><ele>274.0</ele><time>2026-05-01T08:22:36.565Z</time></trkpt><trkpt lat="39.8630883" lon="8.8540533"><ele>274.0</ele><time>2026-05-01T08:22:37.566Z</time></trkpt><trkpt lat="39.8629483" lon="8.8539833"><ele>275.3333333333333</ele><time>2026-05-01T08:22:38.593Z</time></trkpt><trkpt lat="39.8628317" lon="8.8538517"><ele>276.6666666666667</ele><time>2026-05-01T08:22:39.566Z</time></trkpt><trkpt lat="39.8626983" lon="8.8537517"><ele>278.0</ele><time>2026-05-01T08:22:40.564Z</time></trkpt><trkpt lat="39.8624917" lon="8.8536933"><ele>278.0</ele><time>2026-05-01T08:22:41.563Z</time></trkpt><trkpt lat="39.862305" lon="8.85363"><ele>278.0</ele><time>2026-05-01T08:22:42.565Z</time></trkpt><trkpt lat="39.8621" lon="8.85357"><ele>278.0</ele><time>2026-05-01T08:22:43.565Z</time></trkpt><trkpt lat="39.8619183" lon="8.8535033"><ele>277.0</ele><time>2026-05-01T08:22:44.596Z</time></trkpt><trkpt lat="39.861725" lon="8.8534417"><ele>276.0</ele><time>2026-05-01T08:22:45.566Z</time></trkpt><trkpt lat="39.8615317" lon="8.85337"><ele>275.0</ele><time>2026-05-01T08:22:46.566Z</time></trkpt><trkpt lat="39.8613367" lon="8.8532833"><ele>275.0</ele><time>2026-05-01T08:22:47.563Z</time></trkpt><trkpt lat="39.86114" lon="8.85319"><ele>275.0</ele><time>2026-05-01T08:22:48.565Z</time></trkpt><trkpt lat="39.8609183" lon="8.8531083"><ele>275.0</ele><time>2026-05-01T08:22:49.566Z</time></trkpt><trkpt lat="39.8606933" lon="8.8530283"><ele>278.0</ele><time>2026-05-01T08:22:50.592Z</time></trkpt><trkpt lat="39.8604683" lon="8.852965"><ele>281.0</ele><time>2026-05-01T08:22:51.564Z</time></trkpt><trkpt lat="39.8602717" lon="8.8528883"><ele>284.0</ele><time>2026-05-01T08:22:52.565Z</time></trkpt><trkpt lat="39.860095" lon="8.8527983"><ele>284.33333333333337</ele><time>2026-05-01T08:22:53.564Z</time></trkpt><trkpt lat="39.859915" lon="8.8527417"><ele>284.6666666666667</ele><time>2026-05-01T08:22:54.561Z</time></trkpt><trkpt lat="39.85976" lon="8.8526683"><ele>285.0</ele><time>2026-05-01T08:22:55.566Z</time></trkpt><trkpt lat="39.8595967" lon="8.8526067"><ele>285.0</ele><time>2026-05-01T08:22:56.597Z</time></trkpt><trkpt lat="39.8594217" lon="8.8525767"><ele>285.0</ele><time>2026-05-01T08:22:57.563Z</time></trkpt><trkpt lat="39.8592367" lon="8.8525617"><ele>285.0</ele><time>2026-05-01T08:22:58.563Z</time></trkpt><trkpt lat="39.85905" lon="8.8525467"><ele>284.0</ele><time>2026-05-01T08:22:59.569Z</time></trkpt><trkpt lat="39.8588617" lon="8.8525367"><ele>283.0</ele><time>2026-05-01T08:23:00.567Z</time></trkpt><trkpt lat="39.858685" lon="8.85253"><ele>282.0</ele><time>2026-05-01T08:23:01.564Z</time></trkpt><trkpt lat="39.8585067" lon="8.85252"><ele>280.6666666666667</ele><time>2026-05-01T08:23:02.624Z</time></trkpt><trkpt lat="39.8583317" lon="8.8525083"><ele>279.33333333333337</ele><time>2026-05-01T08:23:03.563Z</time></trkpt><trkpt lat="39.8581383" lon="8.8524717"><ele>278.0</ele><time>2026-05-01T08:23:04.567Z</time></trkpt><trkpt lat="39.8579583" lon="8.8524167"><ele>278.0</ele><time>2026-05-01T08:23:05.568Z</time></trkpt><trkpt lat="39.857785" lon="8.852385"><ele>278.0</ele><time>2026-05-01T08:23:06.565Z</time></trkpt><trkpt lat="39.857665" lon="8.8523283"><ele>278.0</ele><time>2026-05-01T08:23:07.563Z</time></trkpt><trkpt lat="39.8575467" lon="8.8522683"><ele>278.0</ele><time>2026-05-01T08:23:08.591Z</time></trkpt><trkpt lat="39.8574233" lon="8.8522183"><ele>279.0</ele><time>2026-05-01T08:23:09.562Z</time></trkpt><trkpt lat="39.85731" lon="8.8521117"><ele>280.0</ele><time>2026-05-01T08:23:10.564Z</time></trkpt><trkpt lat="39.857205" lon="8.8520133"><ele>281.0</ele><time>2026-05-01T08:23:11.57Z</time></trkpt><trkpt lat="39.8570983" lon="8.8519217"><ele>282.0</ele><time>2026-05-01T08:23:12.564Z</time></trkpt><trkpt lat="39.8570017" lon="8.8518083"><ele>277.6666666666667</ele><time>2026-05-01T08:23:13.564Z</time></trkpt><trkpt lat="39.8569417" lon="8.8516333"><ele>273.33333333333337</ele><time>2026-05-01T08:23:14.592Z</time></trkpt><trkpt lat="39.85694" lon="8.85143"><ele>269.0</ele><time>2026-05-01T08:23:15.567Z</time></trkpt><trkpt lat="39.8569367" lon="8.85122"><ele>269.0</ele><time>2026-05-01T08:23:16.565Z</time></trkpt><trkpt lat="39.8569417" lon="8.8509833"><ele>269.0</ele><time>2026-05-01T08:23:17.566Z</time></trkpt><trkpt lat="39.8569283" lon="8.8507517"><ele>269.0</ele><time>2026-05-01T08:23:18.563Z</time></trkpt><trkpt lat="39.8569083" lon="8.8505117"><ele>267.0</ele><time>2026-05-01T08:23:19.566Z</time></trkpt><trkpt lat="39.85688" lon="8.85027"><ele>265.0</ele><time>2026-05-01T08:23:20.592Z</time></trkpt><trkpt lat="39.8568583" lon="8.8500317"><ele>263.0</ele><time>2026-05-01T08:23:21.561Z</time></trkpt><trkpt lat="39.8568417" lon="8.8498033"><ele>261.33333333333337</ele><time>2026-05-01T08:23:22.565Z</time></trkpt><trkpt lat="39.85682" lon="8.8495917"><ele>259.6666666666667</ele><time>2026-05-01T08:23:23.567Z</time></trkpt><trkpt lat="39.8567967" lon="8.8493983"><ele>258.0</ele><time>2026-05-01T08:23:24.562Z</time></trkpt><trkpt lat="39.85675" lon="8.84921"><ele>258.0</ele><time>2026-05-01T08:23:25.565Z</time></trkpt><trkpt lat="39.8566833" lon="8.8490367"><ele>258.0</ele><time>2026-05-01T08:23:26.596Z</time></trkpt><trkpt lat="39.85661" lon="8.848865"><ele>258.0</ele><time>2026-05-01T08:23:27.562Z</time></trkpt><trkpt lat="39.8565267" lon="8.8487083"><ele>258.0</ele><time>2026-05-01T08:23:28.567Z</time></trkpt><trkpt lat="39.8564267" lon="8.8485933"><ele>258.0</ele><time>2026-05-01T08:23:29.565Z</time></trkpt><trkpt lat="39.856335" lon="8.8484867"><ele>258.0</ele><time>2026-05-01T08:23:30.565Z</time></trkpt><trkpt lat="39.85623" lon="8.84841"><ele>258.0</ele><time>2026-05-01T08:23:31.567Z</time></trkpt><trkpt lat="39.8561283" lon="8.8483417"><ele>258.0</ele><time>2026-05-01T08:23:32.595Z</time></trkpt><trkpt lat="39.8559233" lon="8.8483883"><ele>260.0</ele><time>2026-05-01T08:23:33.564Z</time></trkpt><trkpt lat="39.8557233" lon="8.84842"><ele>262.0</ele><time>2026-05-01T08:23:34.563Z</time></trkpt><trkpt lat="39.8555067" lon="8.84847"><ele>264.0</ele><time>2026-05-01T08:23:35.566Z</time></trkpt><trkpt lat="39.8552933" lon="8.8485267"><ele>262.6666666666667</ele><time>2026-05-01T08:23:36.568Z</time></trkpt><trkpt lat="39.855095" lon="8.8485783"><ele>261.33333333333337</ele><time>2026-05-01T08:23:37.567Z</time></trkpt><trkpt lat="39.8549133" lon="8.848635"><ele>260.0</ele><time>2026-05-01T08:23:38.595Z</time></trkpt><trkpt lat="39.85473" lon="8.8487017"><ele>260.0</ele><time>2026-05-01T08:23:39.561Z</time></trkpt><trkpt lat="39.85457" lon="8.84877"><ele>260.0</ele><time>2026-05-01T08:23:40.562Z</time></trkpt><trkpt lat="39.854415" lon="8.8488367"><ele>260.0</ele><time>2026-05-01T08:23:41.563Z</time></trkpt><trkpt lat="39.8542767" lon="8.8489233"><ele>258.25</ele><time>2026-05-01T08:23:42.56Z</time></trkpt><trkpt lat="39.8541517" lon="8.849005"><ele>256.5</ele><time>2026-05-01T08:23:43.563Z</time></trkpt><trkpt lat="39.8540317" lon="8.8490833"><ele>254.75</ele><time>2026-05-01T08:23:44.591Z</time></trkpt><trkpt lat="39.8539167" lon="8.84914"><ele>253.0</ele><time>2026-05-01T08:23:45.566Z</time></trkpt><trkpt lat="39.8537983" lon="8.84918"><ele>253.0</ele><time>2026-05-01T08:23:46.565Z</time></trkpt><trkpt lat="39.8536767" lon="8.8492083"><ele>253.0</ele><time>2026-05-01T08:23:47.565Z</time></trkpt><trkpt lat="39.8535583" lon="8.8492383"><ele>253.0</ele><time>2026-05-01T08:23:48.563Z</time></trkpt><trkpt lat="39.8534517" lon="8.849255"><ele>253.0</ele><time>2026-05-01T08:23:49.563Z</time></trkpt><trkpt lat="39.8533533" lon="8.8492633"><ele>254.0</ele><time>2026-05-01T08:23:50.597Z</time></trkpt><trkpt lat="39.8532567" lon="8.8492717"><ele>255.0</ele><time>2026-05-01T08:23:51.563Z</time></trkpt><trkpt lat="39.8531583" lon="8.8492517"><ele>256.0</ele><time>2026-05-01T08:23:52.561Z</time></trkpt><trkpt lat="39.853065" lon="8.84925"><ele>257.0</ele><time>2026-05-01T08:23:53.561Z</time></trkpt><trkpt lat="39.852985" lon="8.8491783"><ele>258.0</ele><time>2026-05-01T08:23:54.565Z</time></trkpt><trkpt lat="39.8529333" lon="8.8490933"><ele>258.0</ele><time>2026-05-01T08:23:55.565Z</time></trkpt><trkpt lat="39.8528483" lon="8.8490333"><ele>258.0</ele><time>2026-05-01T08:23:57.565Z</time></trkpt><trkpt lat="39.852755" lon="8.8489683"><ele>258.0</ele><time>2026-05-01T08:23:59.561Z</time></trkpt><trkpt lat="39.85276" lon="8.848795"><ele>258.0</ele><time>2026-05-01T08:24:01.563Z</time></trkpt><trkpt lat="39.85269" lon="8.8486683"><ele>260.2</ele><time>2026-05-01T08:24:03.562Z</time></trkpt><trkpt lat="39.8526217" lon="8.8486217"><ele>262.4</ele><time>2026-05-01T08:24:04.564Z</time></trkpt><trkpt lat="39.8525567" lon="8.84857"><ele>264.59999999999997</ele><time>2026-05-01T08:24:05.559Z</time></trkpt><trkpt lat="39.8524667" lon="8.848525"><ele>266.8</ele><time>2026-05-01T08:24:06.566Z</time></trkpt><trkpt lat="39.8523533" lon="8.8484917"><ele>269.0</ele><time>2026-05-01T08:24:07.559Z</time></trkpt><trkpt lat="39.8522367" lon="8.848465"><ele>266.0</ele><time>2026-05-01T08:24:08.591Z</time></trkpt><trkpt lat="39.8521117" lon="8.8484467"><ele>263.0</ele><time>2026-05-01T08:24:09.563Z</time></trkpt><trkpt lat="39.85199" lon="8.84844"><ele>260.0</ele><time>2026-05-01T08:24:10.565Z</time></trkpt><trkpt lat="39.8518633" lon="8.84844"><ele>257.0</ele><time>2026-05-01T08:24:11.567Z</time></trkpt><trkpt lat="39.8517417" lon="8.8484417"><ele>257.0</ele><time>2026-05-01T08:24:12.56Z</time></trkpt><trkpt lat="39.85162" lon="8.8484433"><ele>257.0</ele><time>2026-05-01T08:24:13.563Z</time></trkpt><trkpt lat="39.8515017" lon="8.84845"><ele>257.0</ele><time>2026-05-01T08:24:14.596Z</time></trkpt><trkpt lat="39.8513883" lon="8.8484517"><ele>257.0</ele><time>2026-05-01T08:24:15.563Z</time></trkpt><trkpt lat="39.8512767" lon="8.8484533"><ele>257.0</ele><time>2026-05-01T08:24:16.564Z</time></trkpt><trkpt lat="39.8511667" lon="8.848455"><ele>257.0</ele><time>2026-05-01T08:24:17.566Z</time></trkpt><trkpt lat="39.85105" lon="8.84846"><ele>257.0</ele><time>2026-05-01T08:24:18.563Z</time></trkpt><trkpt lat="39.850935" lon="8.8484633"><ele>257.0</ele><time>2026-05-01T08:24:19.566Z</time></trkpt><trkpt lat="39.8508133" lon="8.848465"><ele>257.5</ele><time>2026-05-01T08:24:20.591Z</time></trkpt><trkpt lat="39.8506867" lon="8.8484583"><ele>258.0</ele><time>2026-05-01T08:24:21.561Z</time></trkpt><trkpt lat="39.8505517" lon="8.8484467"><ele>258.5</ele><time>2026-05-01T08:24:22.566Z</time></trkpt><trkpt lat="39.8504117" lon="8.8484267"><ele>259.0</ele><time>2026-05-01T08:24:23.566Z</time></trkpt><trkpt lat="39.850265" lon="8.8483933"><ele>260.66666666666663</ele><time>2026-05-01T08:24:24.561Z</time></trkpt><trkpt lat="39.8501217" lon="8.8483433"><ele>262.3333333333333</ele><time>2026-05-01T08:24:25.565Z</time></trkpt><trkpt lat="39.8499683" lon="8.848255"><ele>264.0</ele><time>2026-05-01T08:24:26.596Z</time></trkpt><trkpt lat="39.8498117" lon="8.848135"><ele>264.0</ele><time>2026-05-01T08:24:27.562Z</time></trkpt><trkpt lat="39.8496633" lon="8.8480183"><ele>264.0</ele><time>2026-05-01T08:24:28.567Z</time></trkpt><trkpt lat="39.84951" lon="8.8478967"><ele>264.0</ele><time>2026-05-01T08:24:29.565Z</time></trkpt><trkpt lat="39.84935" lon="8.8477883"><ele>263.6666666666667</ele><time>2026-05-01T08:24:30.563Z</time></trkpt><trkpt lat="39.8491883" lon="8.8476933"><ele>263.33333333333337</ele><time>2026-05-01T08:24:31.567Z</time></trkpt><trkpt lat="39.849005" lon="8.8476117"><ele>263.0</ele><time>2026-05-01T08:24:32.591Z</time></trkpt><trkpt lat="39.848815" lon="8.8475433"><ele>263.0</ele><time>2026-05-01T08:24:33.561Z</time></trkpt><trkpt lat="39.8486167" lon="8.8474883"><ele>263.0</ele><time>2026-05-01T08:24:34.566Z</time></trkpt><trkpt lat="39.8484083" lon="8.8474283"><ele>263.0</ele><time>2026-05-01T08:24:35.563Z</time></trkpt><trkpt lat="39.8481983" lon="8.847375"><ele>265.33333333333337</ele><time>2026-05-01T08:24:36.565Z</time></trkpt><trkpt lat="39.8479833" lon="8.8473167"><ele>267.6666666666667</ele><time>2026-05-01T08:24:37.563Z</time></trkpt><trkpt lat="39.8477667" lon="8.8472633"><ele>270.0</ele><time>2026-05-01T08:24:38.594Z</time></trkpt><trkpt lat="39.8475517" lon="8.8472117"><ele>271.3333333333333</ele><time>2026-05-01T08:24:39.566Z</time></trkpt><trkpt lat="39.8473383" lon="8.8471633"><ele>272.66666666666663</ele><time>2026-05-01T08:24:40.565Z</time></trkpt><trkpt lat="39.8471233" lon="8.8471117"><ele>274.0</ele><time>2026-05-01T08:24:41.566Z</time></trkpt><trkpt lat="39.84691" lon="8.84706"><ele>275.0</ele><time>2026-05-01T08:24:42.568Z</time></trkpt><trkpt lat="39.8467" lon="8.8470017"><ele>276.0</ele><time>2026-05-01T08:24:43.565Z</time></trkpt><trkpt lat="39.84649" lon="8.8469317"><ele>277.0</ele><time>2026-05-01T08:24:44.595Z</time></trkpt><trkpt lat="39.8462833" lon="8.8468417"><ele>278.0</ele><time>2026-05-01T08:24:45.564Z</time></trkpt><trkpt lat="39.8460767" lon="8.84673"><ele>279.0</ele><time>2026-05-01T08:24:46.563Z</time></trkpt><trkpt lat="39.84587" lon="8.846615"><ele>280.0</ele><time>2026-05-01T08:24:47.566Z</time></trkpt><trkpt lat="39.8456667" lon="8.846485"><ele>280.0</ele><time>2026-05-01T08:24:48.565Z</time></trkpt><trkpt lat="39.8454717" lon="8.8463467"><ele>280.0</ele><time>2026-05-01T08:24:49.561Z</time></trkpt><trkpt lat="39.845295" lon="8.84619"><ele>280.0</ele><time>2026-05-01T08:24:50.59Z</time></trkpt><trkpt lat="39.8451533" lon="8.8460083"><ele>281.66666666666663</ele><time>2026-05-01T08:24:51.562Z</time></trkpt><trkpt lat="39.8449783" lon="8.8458567"><ele>283.3333333333333</ele><time>2026-05-01T08:24:52.562Z</time></trkpt><trkpt lat="39.8447883" lon="8.8457383"><ele>285.0</ele><time>2026-05-01T08:24:53.565Z</time></trkpt><trkpt lat="39.8445883" lon="8.8456517"><ele>285.0</ele><time>2026-05-01T08:24:54.564Z</time></trkpt><trkpt lat="39.8443817" lon="8.8455617"><ele>285.0</ele><time>2026-05-01T08:24:55.565Z</time></trkpt><trkpt lat="39.844175" lon="8.8454917"><ele>285.0</ele><time>2026-05-01T08:24:56.625Z</time></trkpt><trkpt lat="39.843965" lon="8.8454633"><ele>287.0</ele><time>2026-05-01T08:24:57.563Z</time></trkpt><trkpt lat="39.843745" lon="8.8454533"><ele>289.0</ele><time>2026-05-01T08:24:58.562Z</time></trkpt><trkpt lat="39.8435167" lon="8.8454533"><ele>291.0</ele><time>2026-05-01T08:24:59.563Z</time></trkpt><trkpt lat="39.84329" lon="8.845455"><ele>294.0</ele><time>2026-05-01T08:25:00.565Z</time></trkpt><trkpt lat="39.84306" lon="8.8454567"><ele>297.0</ele><time>2026-05-01T08:25:01.565Z</time></trkpt><trkpt lat="39.8428283" lon="8.8454617"><ele>297.6666666666667</ele><time>2026-05-01T08:25:02.616Z</time></trkpt><trkpt lat="39.842605" lon="8.84547"><ele>298.33333333333337</ele><time>2026-05-01T08:25:03.566Z</time></trkpt><trkpt lat="39.8423817" lon="8.8454833"><ele>299.0</ele><time>2026-05-01T08:25:04.564Z</time></trkpt><trkpt lat="39.842185" lon="8.8454967"><ele>299.0</ele><time>2026-05-01T08:25:05.565Z</time></trkpt><trkpt lat="39.8419983" lon="8.8455017"><ele>299.0</ele><time>2026-05-01T08:25:06.56Z</time></trkpt><trkpt lat="39.8417967" lon="8.8455267"><ele>299.0</ele><time>2026-05-01T08:25:07.564Z</time></trkpt><trkpt lat="39.8416133" lon="8.8455567"><ele>299.6666666666667</ele><time>2026-05-01T08:25:08.593Z</time></trkpt><trkpt lat="39.8414383" lon="8.8456233"><ele>300.3333333333333</ele><time>2026-05-01T08:25:09.561Z</time></trkpt><trkpt lat="39.8412633" lon="8.8456783"><ele>301.0</ele><time>2026-05-01T08:25:10.567Z</time></trkpt><trkpt lat="39.841075" lon="8.84575"><ele>301.3333333333333</ele><time>2026-05-01T08:25:11.564Z</time></trkpt><trkpt lat="39.84089" lon="8.8458383"><ele>301.6666666666667</ele><time>2026-05-01T08:25:12.565Z</time></trkpt><trkpt lat="39.840705" lon="8.8459133"><ele>302.0</ele><time>2026-05-01T08:25:13.564Z</time></trkpt><trkpt lat="39.84049" lon="8.8460033"><ele>305.5</ele><time>2026-05-01T08:25:14.592Z</time></trkpt><trkpt lat="39.840265" lon="8.8461"><ele>309.0</ele><time>2026-05-01T08:25:15.562Z</time></trkpt><trkpt lat="39.8400567" lon="8.84619"><ele>309.0</ele><time>2026-05-01T08:25:16.565Z</time></trkpt><trkpt lat="39.8398517" lon="8.8462733"><ele>309.0</ele><time>2026-05-01T08:25:17.562Z</time></trkpt><trkpt lat="39.8396483" lon="8.8463517"><ele>309.0</ele><time>2026-05-01T08:25:18.566Z</time></trkpt><trkpt lat="39.8394467" lon="8.8464317"><ele>309.0</ele><time>2026-05-01T08:25:19.562Z</time></trkpt><trkpt lat="39.8392433" lon="8.8465167"><ele>309.0</ele><time>2026-05-01T08:25:20.594Z</time></trkpt><trkpt lat="39.839035" lon="8.8465733"><ele>309.0</ele><time>2026-05-01T08:25:21.561Z</time></trkpt><trkpt lat="39.83882" lon="8.8466083"><ele>309.0</ele><time>2026-05-01T08:25:22.566Z</time></trkpt><trkpt lat="39.8386083" lon="8.8466033"><ele>309.0</ele><time>2026-05-01T08:25:23.566Z</time></trkpt><trkpt lat="39.838385" lon="8.846575"><ele>309.0</ele><time>2026-05-01T08:25:24.565Z</time></trkpt><trkpt lat="39.8381833" lon="8.8465067"><ele>313.0</ele><time>2026-05-01T08:25:25.565Z</time></trkpt><trkpt lat="39.8379767" lon="8.846385"><ele>317.0</ele><time>2026-05-01T08:25:26.63Z</time></trkpt><trkpt lat="39.8377683" lon="8.8462417"><ele>318.0</ele><time>2026-05-01T08:25:27.561Z</time></trkpt><trkpt lat="39.837555" lon="8.8460633"><ele>319.0</ele><time>2026-05-01T08:25:28.56Z</time></trkpt><trkpt lat="39.83736" lon="8.8458833"><ele>319.0</ele><time>2026-05-01T08:25:29.563Z</time></trkpt><trkpt lat="39.83718" lon="8.8457033"><ele>319.0</ele><time>2026-05-01T08:25:30.574Z</time></trkpt><trkpt lat="39.837005" lon="8.8455233"><ele>319.0</ele><time>2026-05-01T08:25:31.568Z</time></trkpt><trkpt lat="39.8368283" lon="8.8453383"><ele>319.0</ele><time>2026-05-01T08:25:32.625Z</time></trkpt><trkpt lat="39.83667" lon="8.84512"><ele>319.0</ele><time>2026-05-01T08:25:33.567Z</time></trkpt><trkpt lat="39.8364983" lon="8.8449183"><ele>319.0</ele><time>2026-05-01T08:25:34.569Z</time></trkpt><trkpt lat="39.8363083" lon="8.8447283"><ele>319.0</ele><time>2026-05-01T08:25:35.566Z</time></trkpt><trkpt lat="39.83612" lon="8.8445367"><ele>319.0</ele><time>2026-05-01T08:25:36.565Z</time></trkpt><trkpt lat="39.83593" lon="8.8443633"><ele>320.0</ele><time>2026-05-01T08:25:37.562Z</time></trkpt><trkpt lat="39.835735" lon="8.844185"><ele>321.0</ele><time>2026-05-01T08:25:38.599Z</time></trkpt><trkpt lat="39.835535" lon="8.84402"><ele>321.0</ele><time>2026-05-01T08:25:39.562Z</time></trkpt><trkpt lat="39.83533" lon="8.8438683"><ele>321.0</ele><time>2026-05-01T08:25:40.562Z</time></trkpt><trkpt lat="39.8351317" lon="8.8437267"><ele>320.0</ele><time>2026-05-01T08:25:41.565Z</time></trkpt><trkpt lat="39.8349217" lon="8.8435717"><ele>319.0</ele><time>2026-05-01T08:25:42.563Z</time></trkpt><trkpt lat="39.834715" lon="8.8434133"><ele>319.0</ele><time>2026-05-01T08:25:43.567Z</time></trkpt><trkpt lat="39.834505" lon="8.84326"><ele>319.0</ele><time>2026-05-01T08:25:44.592Z</time></trkpt><trkpt lat="39.8342983" lon="8.8431117"><ele>319.0</ele><time>2026-05-01T08:25:45.567Z</time></trkpt><trkpt lat="39.8340933" lon="8.8429617"><ele>319.0</ele><time>2026-05-01T08:25:46.561Z</time></trkpt><trkpt lat="39.8338917" lon="8.842815"><ele>319.0</ele><time>2026-05-01T08:25:47.568Z</time></trkpt><trkpt lat="39.8336883" lon="8.84267"><ele>319.0</ele><time>2026-05-01T08:25:48.56Z</time></trkpt><trkpt lat="39.83349" lon="8.842535"><ele>322.0</ele><time>2026-05-01T08:25:49.562Z</time></trkpt><trkpt lat="39.8332933" lon="8.8423867"><ele>325.0</ele><time>2026-05-01T08:25:50.59Z</time></trkpt><trkpt lat="39.8331" lon="8.8422417"><ele>325.0</ele><time>2026-05-01T08:25:51.561Z</time></trkpt><trkpt lat="39.832905" lon="8.8421017"><ele>325.0</ele><time>2026-05-01T08:25:52.562Z</time></trkpt><trkpt lat="39.832715" lon="8.841965"><ele>325.0</ele><time>2026-05-01T08:25:53.566Z</time></trkpt><trkpt lat="39.83252" lon="8.841815"><ele>327.5</ele><time>2026-05-01T08:25:54.56Z</time></trkpt><trkpt lat="39.8323233" lon="8.8416733"><ele>330.0</ele><time>2026-05-01T08:25:55.563Z</time></trkpt><trkpt lat="39.8321283" lon="8.8415217"><ele>330.0</ele><time>2026-05-01T08:25:56.592Z</time></trkpt><trkpt lat="39.8319417" lon="8.841385"><ele>330.0</ele><time>2026-05-01T08:25:57.564Z</time></trkpt><trkpt lat="39.8317567" lon="8.841245"><ele>330.0</ele><time>2026-05-01T08:25:58.565Z</time></trkpt><trkpt lat="39.8315617" lon="8.8411033"><ele>330.0</ele><time>2026-05-01T08:25:59.566Z</time></trkpt><trkpt lat="39.8313633" lon="8.8409667"><ele>330.0</ele><time>2026-05-01T08:26:00.563Z</time></trkpt><trkpt lat="39.8311817" lon="8.8408333"><ele>330.0</ele><time>2026-05-01T08:26:01.568Z</time></trkpt><trkpt lat="39.83098" lon="8.840725"><ele>329.3333333333333</ele><time>2026-05-01T08:26:02.62Z</time></trkpt><trkpt lat="39.83078" lon="8.8406617"><ele>328.66666666666663</ele><time>2026-05-01T08:26:03.562Z</time></trkpt><trkpt lat="39.8305717" lon="8.8406583"><ele>328.0</ele><time>2026-05-01T08:26:04.563Z</time></trkpt><trkpt lat="39.8303733" lon="8.8406667"><ele>328.0</ele><time>2026-05-01T08:26:05.562Z</time></trkpt><trkpt lat="39.8301667" lon="8.84071"><ele>328.0</ele><time>2026-05-01T08:26:06.563Z</time></trkpt><trkpt lat="39.8299467" lon="8.8407733"><ele>328.0</ele><time>2026-05-01T08:26:07.561Z</time></trkpt><trkpt lat="39.8297533" lon="8.8407733"><ele>327.0</ele><time>2026-05-01T08:26:08.594Z</time></trkpt><trkpt lat="39.82952" lon="8.8407617"><ele>326.0</ele><time>2026-05-01T08:26:09.566Z</time></trkpt><trkpt lat="39.8292967" lon="8.84071"><ele>325.0</ele><time>2026-05-01T08:26:10.56Z</time></trkpt><trkpt lat="39.8290483" lon="8.8406267"><ele>324.0</ele><time>2026-05-01T08:26:11.56Z</time></trkpt><trkpt lat="39.8288217" lon="8.8405583"><ele>324.0</ele><time>2026-05-01T08:26:12.563Z</time></trkpt><trkpt lat="39.8286117" lon="8.8404783"><ele>324.0</ele><time>2026-05-01T08:26:13.563Z</time></trkpt><trkpt lat="39.8283917" lon="8.8404"><ele>324.0</ele><time>2026-05-01T08:26:14.595Z</time></trkpt><trkpt lat="39.8281833" lon="8.8403267"><ele>322.3333333333333</ele><time>2026-05-01T08:26:15.561Z</time></trkpt><trkpt lat="39.8279833" lon="8.8402583"><ele>320.66666666666663</ele><time>2026-05-01T08:26:16.561Z</time></trkpt><trkpt lat="39.8277817" lon="8.840195"><ele>319.0</ele><time>2026-05-01T08:26:17.561Z</time></trkpt><trkpt lat="39.8275983" lon="8.8401383"><ele>319.3333333333333</ele><time>2026-05-01T08:26:18.566Z</time></trkpt><trkpt lat="39.82742" lon="8.84009"><ele>319.6666666666667</ele><time>2026-05-01T08:26:19.566Z</time></trkpt><trkpt lat="39.82724" lon="8.8401033"><ele>320.0</ele><time>2026-05-01T08:26:20.595Z</time></trkpt><trkpt lat="39.8270633" lon="8.8401583"><ele>318.0</ele><time>2026-05-01T08:26:21.565Z</time></trkpt><trkpt lat="39.8269067" lon="8.8402383"><ele>316.0</ele><time>2026-05-01T08:26:22.565Z</time></trkpt><trkpt lat="39.8267483" lon="8.84038"><ele>314.0</ele><time>2026-05-01T08:26:23.561Z</time></trkpt><trkpt lat="39.8266083" lon="8.840555"><ele>314.0</ele><time>2026-05-01T08:26:24.564Z</time></trkpt><trkpt lat="39.82644" lon="8.840795"><ele>314.0</ele><time>2026-05-01T08:26:25.564Z</time></trkpt><trkpt lat="39.826285" lon="8.841015"><ele>310.5</ele><time>2026-05-01T08:26:26.631Z</time></trkpt><trkpt lat="39.8261283" lon="8.84124"><ele>307.0</ele><time>2026-05-01T08:26:27.563Z</time></trkpt><trkpt lat="39.825985" lon="8.8414583"><ele>308.3333333333333</ele><time>2026-05-01T08:26:28.561Z</time></trkpt><trkpt lat="39.8258383" lon="8.8416833"><ele>309.6666666666667</ele><time>2026-05-01T08:26:29.564Z</time></trkpt><trkpt lat="39.8257" lon="8.8418967"><ele>311.0</ele><time>2026-05-01T08:26:30.566Z</time></trkpt><trkpt lat="39.82558" lon="8.8420967"><ele>308.0</ele><time>2026-05-01T08:26:31.565Z</time></trkpt><trkpt lat="39.8254667" lon="8.8422967"><ele>305.0</ele><time>2026-05-01T08:26:32.617Z</time></trkpt><trkpt lat="39.8253567" lon="8.8424983"><ele>302.0</ele><time>2026-05-01T08:26:33.565Z</time></trkpt><trkpt lat="39.8252367" lon="8.8427117"><ele>300.6666666666667</ele><time>2026-05-01T08:26:34.567Z</time></trkpt><trkpt lat="39.8251283" lon="8.8428917"><ele>299.3333333333333</ele><time>2026-05-01T08:26:35.561Z</time></trkpt><trkpt lat="39.8250217" lon="8.8430817"><ele>298.0</ele><time>2026-05-01T08:26:36.566Z</time></trkpt><trkpt lat="39.824925" lon="8.8433033"><ele>296.0</ele><time>2026-05-01T08:26:37.564Z</time></trkpt><trkpt lat="39.8248467" lon="8.84351"><ele>294.0</ele><time>2026-05-01T08:26:38.594Z</time></trkpt><trkpt lat="39.8247783" lon="8.8437233"><ele>292.0</ele><time>2026-05-01T08:26:39.562Z</time></trkpt><trkpt lat="39.8247067" lon="8.84396"><ele>292.0</ele><time>2026-05-01T08:26:40.565Z</time></trkpt><trkpt lat="39.8246383" lon="8.8442017"><ele>292.0</ele><time>2026-05-01T08:26:41.561Z</time></trkpt><trkpt lat="39.8245567" lon="8.844415"><ele>292.0</ele><time>2026-05-01T08:26:42.563Z</time></trkpt><trkpt lat="39.824455" lon="8.844635"><ele>292.66666666666663</ele><time>2026-05-01T08:26:43.562Z</time></trkpt><trkpt lat="39.824355" lon="8.8448867"><ele>293.3333333333333</ele><time>2026-05-01T08:26:44.592Z</time></trkpt><trkpt lat="39.8242767" lon="8.8451267"><ele>294.0</ele><time>2026-05-01T08:26:45.568Z</time></trkpt><trkpt lat="39.8241883" lon="8.8453567"><ele>291.6666666666667</ele><time>2026-05-01T08:26:46.565Z</time></trkpt><trkpt lat="39.82406" lon="8.845585"><ele>289.33333333333337</ele><time>2026-05-01T08:26:47.561Z</time></trkpt><trkpt lat="39.8239517" lon="8.8458267"><ele>287.0</ele><time>2026-05-01T08:26:48.562Z</time></trkpt><trkpt lat="39.82384" lon="8.84603"><ele>285.33333333333337</ele><time>2026-05-01T08:26:49.566Z</time></trkpt><trkpt lat="39.8237067" lon="8.846225"><ele>283.6666666666667</ele><time>2026-05-01T08:26:50.597Z</time></trkpt><trkpt lat="39.8235717" lon="8.8464317"><ele>282.0</ele><time>2026-05-01T08:26:51.561Z</time></trkpt><trkpt lat="39.8234267" lon="8.8466267"><ele>280.0</ele><time>2026-05-01T08:26:52.561Z</time></trkpt><trkpt lat="39.8232783" lon="8.8468117"><ele>278.0</ele><time>2026-05-01T08:26:53.567Z</time></trkpt><trkpt lat="39.8231333" lon="8.847"><ele>276.0</ele><time>2026-05-01T08:26:54.567Z</time></trkpt><trkpt lat="39.8229833" lon="8.84718"><ele>276.0</ele><time>2026-05-01T08:26:55.564Z</time></trkpt><trkpt lat="39.8228333" lon="8.8473433"><ele>276.0</ele><time>2026-05-01T08:26:56.632Z</time></trkpt><trkpt lat="39.82269" lon="8.8475"><ele>276.0</ele><time>2026-05-01T08:26:57.567Z</time></trkpt><trkpt lat="39.8225517" lon="8.847645"><ele>274.6666666666667</ele><time>2026-05-01T08:26:58.562Z</time></trkpt><trkpt lat="39.8224083" lon="8.8477767"><ele>273.33333333333337</ele><time>2026-05-01T08:26:59.563Z</time></trkpt><trkpt lat="39.822275" lon="8.84785"><ele>272.0</ele><time>2026-05-01T08:27:00.563Z</time></trkpt><trkpt lat="39.82213" lon="8.8479483"><ele>272.0</ele><time>2026-05-01T08:27:01.564Z</time></trkpt><trkpt lat="39.8219617" lon="8.8479917"><ele>272.0</ele><time>2026-05-01T08:27:02.618Z</time></trkpt><trkpt lat="39.821775" lon="8.8480617"><ele>272.0</ele><time>2026-05-01T08:27:03.561Z</time></trkpt><trkpt lat="39.8215883" lon="8.8481283"><ele>271.6666666666667</ele><time>2026-05-01T08:27:04.563Z</time></trkpt><trkpt lat="39.8213883" lon="8.8481867"><ele>271.3333333333333</ele><time>2026-05-01T08:27:05.564Z</time></trkpt><trkpt lat="39.821185" lon="8.8482383"><ele>271.0</ele><time>2026-05-01T08:27:06.565Z</time></trkpt><trkpt lat="39.820985" lon="8.8483017"><ele>270.0</ele><time>2026-05-01T08:27:07.563Z</time></trkpt><trkpt lat="39.8207783" lon="8.8483567"><ele>269.0</ele><time>2026-05-01T08:27:08.597Z</time></trkpt><trkpt lat="39.8205733" lon="8.8484133"><ele>268.0</ele><time>2026-05-01T08:27:09.567Z</time></trkpt><trkpt lat="39.820365" lon="8.8484717"><ele>266.0</ele><time>2026-05-01T08:27:10.565Z</time></trkpt><trkpt lat="39.82016" lon="8.8485333"><ele>264.0</ele><time>2026-05-01T08:27:11.566Z</time></trkpt><trkpt lat="39.8199483" lon="8.848595"><ele>262.0</ele><time>2026-05-01T08:27:12.566Z</time></trkpt><trkpt lat="39.81974" lon="8.84866"><ele>261.66666666666663</ele><time>2026-05-01T08:27:13.563Z</time></trkpt><trkpt lat="39.8195317" lon="8.8487217"><ele>261.3333333333333</ele><time>2026-05-01T08:27:14.592Z</time></trkpt><trkpt lat="39.8193217" lon="8.84878"><ele>261.0</ele><time>2026-05-01T08:27:15.565Z</time></trkpt><trkpt lat="39.819115" lon="8.8488333"><ele>260.6666666666667</ele><time>2026-05-01T08:27:16.562Z</time></trkpt><trkpt lat="39.8189117" lon="8.8488933"><ele>260.33333333333337</ele><time>2026-05-01T08:27:17.566Z</time></trkpt><trkpt lat="39.81871" lon="8.848955"><ele>260.0</ele><time>2026-05-01T08:27:18.566Z</time></trkpt><trkpt lat="39.8185083" lon="8.8490167"><ele>259.6666666666667</ele><time>2026-05-01T08:27:19.564Z</time></trkpt><trkpt lat="39.8183083" lon="8.84908"><ele>259.3333333333333</ele><time>2026-05-01T08:27:20.592Z</time></trkpt><trkpt lat="39.818105" lon="8.849145"><ele>259.0</ele><time>2026-05-01T08:27:21.567Z</time></trkpt><trkpt lat="39.8179033" lon="8.849205"><ele>259.0</ele><time>2026-05-01T08:27:22.56Z</time></trkpt><trkpt lat="39.8177017" lon="8.84926"><ele>259.0</ele><time>2026-05-01T08:27:23.561Z</time></trkpt><trkpt lat="39.8175033" lon="8.8493183"><ele>259.0</ele><time>2026-05-01T08:27:24.563Z</time></trkpt><trkpt lat="39.8172983" lon="8.8493817"><ele>259.0</ele><time>2026-05-01T08:27:25.56Z</time></trkpt><trkpt lat="39.8170933" lon="8.849445"><ele>259.0</ele><time>2026-05-01T08:27:26.631Z</time></trkpt><trkpt lat="39.81689" lon="8.8495133"><ele>259.0</ele><time>2026-05-01T08:27:27.562Z</time></trkpt><trkpt lat="39.8166883" lon="8.849585"><ele>258.66666666666663</ele><time>2026-05-01T08:27:28.565Z</time></trkpt><trkpt lat="39.816485" lon="8.8496533"><ele>258.3333333333333</ele><time>2026-05-01T08:27:29.562Z</time></trkpt><trkpt lat="39.8162833" lon="8.8497167"><ele>258.0</ele><time>2026-05-01T08:27:30.567Z</time></trkpt><trkpt lat="39.816085" lon="8.8497783"><ele>257.6666666666667</ele><time>2026-05-01T08:27:31.565Z</time></trkpt><trkpt lat="39.8158833" lon="8.8498317"><ele>257.33333333333337</ele><time>2026-05-01T08:27:32.618Z</time></trkpt><trkpt lat="39.81568" lon="8.8498717"><ele>257.0</ele><time>2026-05-01T08:27:33.564Z</time></trkpt><trkpt lat="39.8154817" lon="8.8498767"><ele>257.0</ele><time>2026-05-01T08:27:34.563Z</time></trkpt><trkpt lat="39.815275" lon="8.8498867"><ele>257.0</ele><time>2026-05-01T08:27:35.565Z</time></trkpt><trkpt lat="39.8150583" lon="8.8498733"><ele>257.0</ele><time>2026-05-01T08:27:36.564Z</time></trkpt><trkpt lat="39.8148383" lon="8.8498717"><ele>257.0</ele><time>2026-05-01T08:27:37.565Z</time></trkpt><trkpt lat="39.8146167" lon="8.8498717"><ele>257.0</ele><time>2026-05-01T08:27:38.594Z</time></trkpt><trkpt lat="39.8144017" lon="8.8498667"><ele>257.0</ele><time>2026-05-01T08:27:39.561Z</time></trkpt><trkpt lat="39.8141883" lon="8.84987"><ele>257.0</ele><time>2026-05-01T08:27:40.562Z</time></trkpt><trkpt lat="39.8139583" lon="8.8498683"><ele>257.0</ele><time>2026-05-01T08:27:41.562Z</time></trkpt><trkpt lat="39.8137467" lon="8.849855"><ele>257.0</ele><time>2026-05-01T08:27:42.564Z</time></trkpt><trkpt lat="39.8135433" lon="8.8498583"><ele>255.66666666666669</ele><time>2026-05-01T08:27:43.566Z</time></trkpt><trkpt lat="39.8133433" lon="8.8498383"><ele>254.33333333333331</ele><time>2026-05-01T08:27:44.597Z</time></trkpt><trkpt lat="39.8131383" lon="8.8498167"><ele>253.0</ele><time>2026-05-01T08:27:45.562Z</time></trkpt><trkpt lat="39.8129383" lon="8.8497983"><ele>253.0</ele><time>2026-05-01T08:27:46.566Z</time></trkpt><trkpt lat="39.8127467" lon="8.8497867"><ele>253.0</ele><time>2026-05-01T08:27:47.565Z</time></trkpt><trkpt lat="39.8125733" lon="8.8497983"><ele>253.0</ele><time>2026-05-01T08:27:48.561Z</time></trkpt><trkpt lat="39.8123967" lon="8.849795"><ele>252.66666666666666</ele><time>2026-05-01T08:27:49.566Z</time></trkpt><trkpt lat="39.8122317" lon="8.8497933"><ele>252.33333333333331</ele><time>2026-05-01T08:27:50.591Z</time></trkpt><trkpt lat="39.81208" lon="8.849775"><ele>252.0</ele><time>2026-05-01T08:27:51.564Z</time></trkpt><trkpt lat="39.81192" lon="8.8497917"><ele>253.66666666666669</ele><time>2026-05-01T08:27:52.56Z</time></trkpt><trkpt lat="39.8117667" lon="8.8498433"><ele>255.33333333333334</ele><time>2026-05-01T08:27:53.562Z</time></trkpt><trkpt lat="39.811625" lon="8.8499233"><ele>257.0</ele><time>2026-05-01T08:27:54.566Z</time></trkpt><trkpt lat="39.81148" lon="8.8500017"><ele>257.0</ele><time>2026-05-01T08:27:55.563Z</time></trkpt><trkpt lat="39.8113317" lon="8.850085"><ele>257.0</ele><time>2026-05-01T08:27:56.629Z</time></trkpt><trkpt lat="39.81119" lon="8.8502017"><ele>257.0</ele><time>2026-05-01T08:27:57.561Z</time></trkpt><trkpt lat="39.8110567" lon="8.85034"><ele>258.0</ele><time>2026-05-01T08:27:58.566Z</time></trkpt><trkpt lat="39.8109333" lon="8.850475"><ele>259.0</ele><time>2026-05-01T08:27:59.564Z</time></trkpt><trkpt lat="39.810825" lon="8.8506283"><ele>260.0</ele><time>2026-05-01T08:28:00.564Z</time></trkpt><trkpt lat="39.8107167" lon="8.850775"><ele>260.0</ele><time>2026-05-01T08:28:01.563Z</time></trkpt><trkpt lat="39.8106083" lon="8.850915"><ele>260.0</ele><time>2026-05-01T08:28:02.617Z</time></trkpt><trkpt lat="39.810505" lon="8.8510433"><ele>260.0</ele><time>2026-05-01T08:28:03.561Z</time></trkpt><trkpt lat="39.8103967" lon="8.851145"><ele>260.0</ele><time>2026-05-01T08:28:04.561Z</time></trkpt><trkpt lat="39.810285" lon="8.8512367"><ele>259.5</ele><time>2026-05-01T08:28:05.564Z</time></trkpt><trkpt lat="39.8101667" lon="8.8513033"><ele>259.0</ele><time>2026-05-01T08:28:06.564Z</time></trkpt><trkpt lat="39.8100267" lon="8.8513283"><ele>258.5</ele><time>2026-05-01T08:28:07.563Z</time></trkpt><trkpt lat="39.8098883" lon="8.851315"><ele>258.0</ele><time>2026-05-01T08:28:08.594Z</time></trkpt><trkpt lat="39.80976" lon="8.8512833"><ele>258.0</ele><time>2026-05-01T08:28:09.564Z</time></trkpt><trkpt lat="39.80965" lon="8.8512433"><ele>258.0</ele><time>2026-05-01T08:28:10.562Z</time></trkpt><trkpt lat="39.8095567" lon="8.8512067"><ele>258.0</ele><time>2026-05-01T08:28:11.566Z</time></trkpt><trkpt lat="39.8094533" lon="8.8512067"><ele>258.0</ele><time>2026-05-01T08:28:12.568Z</time></trkpt><trkpt lat="39.8093567" lon="8.8512133"><ele>258.0</ele><time>2026-05-01T08:28:13.564Z</time></trkpt><trkpt lat="39.809265" lon="8.8512333"><ele>259.0</ele><time>2026-05-01T08:28:14.592Z</time></trkpt><trkpt lat="39.8091717" lon="8.8512567"><ele>260.0</ele><time>2026-05-01T08:28:15.561Z</time></trkpt><trkpt lat="39.8090767" lon="8.8512833"><ele>261.0</ele><time>2026-05-01T08:28:16.562Z</time></trkpt><trkpt lat="39.8089833" lon="8.8513067"><ele>262.0</ele><time>2026-05-01T08:28:17.563Z</time></trkpt><trkpt lat="39.80889" lon="8.851335"><ele>263.0</ele><time>2026-05-01T08:28:18.561Z</time></trkpt><trkpt lat="39.808795" lon="8.8513567"><ele>263.0</ele><time>2026-05-01T08:28:19.564Z</time></trkpt><trkpt lat="39.8087083" lon="8.8513767"><ele>263.0</ele><time>2026-05-01T08:28:20.59Z</time></trkpt><trkpt lat="39.80864" lon="8.8514133"><ele>263.0</ele><time>2026-05-01T08:28:21.565Z</time></trkpt><trkpt lat="39.8085567" lon="8.8514517"><ele>263.0</ele><time>2026-05-01T08:28:22.561Z</time></trkpt><trkpt lat="39.80848" lon="8.8514783"><ele>263.0</ele><time>2026-05-01T08:28:23.565Z</time></trkpt><trkpt lat="39.808405" lon="8.8515117"><ele>263.0</ele><time>2026-05-01T08:28:24.566Z</time></trkpt><trkpt lat="39.80833" lon="8.851555"><ele>263.5</ele><time>2026-05-01T08:28:25.564Z</time></trkpt><trkpt lat="39.8082567" lon="8.8516017"><ele>264.0</ele><time>2026-05-01T08:28:26.596Z</time></trkpt><trkpt lat="39.8081917" lon="8.8516667"><ele>264.5</ele><time>2026-05-01T08:28:27.566Z</time></trkpt><trkpt lat="39.8081433" lon="8.851735"><ele>265.0</ele><time>2026-05-01T08:28:28.564Z</time></trkpt><trkpt lat="39.8080883" lon="8.8518167"><ele>265.5</ele><time>2026-05-01T08:28:29.568Z</time></trkpt><trkpt lat="39.8080417" lon="8.8519083"><ele>266.0</ele><time>2026-05-01T08:28:30.565Z</time></trkpt><trkpt lat="39.808" lon="8.8520167"><ele>266.0</ele><time>2026-05-01T08:28:31.561Z</time></trkpt><trkpt lat="39.8079733" lon="8.8521333"><ele>266.0</ele><time>2026-05-01T08:28:32.619Z</time></trkpt><trkpt lat="39.807965" lon="8.8522717"><ele>266.0</ele><time>2026-05-01T08:28:33.565Z</time></trkpt><trkpt lat="39.8079517" lon="8.8524067"><ele>266.0</ele><time>2026-05-01T08:28:34.562Z</time></trkpt><trkpt lat="39.8079267" lon="8.8525267"><ele>266.0</ele><time>2026-05-01T08:28:35.565Z</time></trkpt><trkpt lat="39.8079017" lon="8.8526383"><ele>265.0</ele><time>2026-05-01T08:28:36.567Z</time></trkpt><trkpt lat="39.8078683" lon="8.8527417"><ele>264.0</ele><time>2026-05-01T08:28:37.566Z</time></trkpt><trkpt lat="39.8078383" lon="8.8528283"><ele>263.0</ele><time>2026-05-01T08:28:38.597Z</time></trkpt><trkpt lat="39.807775" lon="8.8529067"><ele>262.0</ele><time>2026-05-01T08:28:39.565Z</time></trkpt><trkpt lat="39.807705" lon="8.8529833"><ele>261.0</ele><time>2026-05-01T08:28:40.565Z</time></trkpt><trkpt lat="39.8076333" lon="8.8530633"><ele>260.0</ele><time>2026-05-01T08:28:41.567Z</time></trkpt><trkpt lat="39.807555" lon="8.8531167"><ele>260.0</ele><time>2026-05-01T08:28:42.563Z</time></trkpt><trkpt lat="39.80745" lon="8.853125"><ele>260.0</ele><time>2026-05-01T08:28:43.565Z</time></trkpt><trkpt lat="39.8073317" lon="8.8530917"><ele>260.0</ele><time>2026-05-01T08:28:44.595Z</time></trkpt><trkpt lat="39.8072117" lon="8.85305"><ele>260.0</ele><time>2026-05-01T08:28:45.567Z</time></trkpt><trkpt lat="39.8070817" lon="8.8529783"><ele>260.0</ele><time>2026-05-01T08:28:46.565Z</time></trkpt><trkpt lat="39.806985" lon="8.8528833"><ele>260.0</ele><time>2026-05-01T08:28:47.567Z</time></trkpt><trkpt lat="39.8068917" lon="8.8528117"><ele>260.0</ele><time>2026-05-01T08:28:48.56Z</time></trkpt><trkpt lat="39.8068017" lon="8.8527667"><ele>260.0</ele><time>2026-05-01T08:28:49.562Z</time></trkpt><trkpt lat="39.8067083" lon="8.8527317"><ele>260.0</ele><time>2026-05-01T08:28:50.595Z</time></trkpt><trkpt lat="39.806605" lon="8.8527067"><ele>260.2</ele><time>2026-05-01T08:28:51.561Z</time></trkpt><trkpt lat="39.8064983" lon="8.8526967"><ele>260.4</ele><time>2026-05-01T08:28:52.566Z</time></trkpt><trkpt lat="39.8063883" lon="8.8526917"><ele>260.6</ele><time>2026-05-01T08:28:53.565Z</time></trkpt><trkpt lat="39.8062817" lon="8.8526983"><ele>260.8</ele><time>2026-05-01T08:28:54.564Z</time></trkpt><trkpt lat="39.806185" lon="8.8526983"><ele>261.0</ele><time>2026-05-01T08:28:55.565Z</time></trkpt><trkpt lat="39.8060683" lon="8.8527017"><ele>261.0</ele><time>2026-05-01T08:28:56.632Z</time></trkpt><trkpt lat="39.805945" lon="8.8527283"><ele>261.0</ele><time>2026-05-01T08:28:57.566Z</time></trkpt><trkpt lat="39.8057983" lon="8.8527317"><ele>261.0</ele><time>2026-05-01T08:28:58.564Z</time></trkpt><trkpt lat="39.8056583" lon="8.852765"><ele>261.0</ele><time>2026-05-01T08:28:59.566Z</time></trkpt><trkpt lat="39.8055167" lon="8.8528017"><ele>261.0</ele><time>2026-05-01T08:29:00.565Z</time></trkpt><trkpt lat="39.80537" lon="8.8528433"><ele>261.0</ele><time>2026-05-01T08:29:01.566Z</time></trkpt><trkpt lat="39.8052117" lon="8.8528683"><ele>261.0</ele><time>2026-05-01T08:29:02.616Z</time></trkpt><trkpt lat="39.8050517" lon="8.85289"><ele>261.75</ele><time>2026-05-01T08:29:03.564Z</time></trkpt><trkpt lat="39.8049083" lon="8.8529217"><ele>262.5</ele><time>2026-05-01T08:29:04.564Z</time></trkpt><trkpt lat="39.8047567" lon="8.8529683"><ele>263.25</ele><time>2026-05-01T08:29:05.563Z</time></trkpt><trkpt lat="39.8046167" lon="8.8530117"><ele>264.0</ele><time>2026-05-01T08:29:06.564Z</time></trkpt><trkpt lat="39.804515" lon="8.8530267"><ele>264.0</ele><time>2026-05-01T08:29:07.565Z</time></trkpt><trkpt lat="39.8044" lon="8.85304"><ele>264.0</ele><time>2026-05-01T08:29:08.594Z</time></trkpt><trkpt lat="39.8042767" lon="8.8530567"><ele>264.0</ele><time>2026-05-01T08:29:09.565Z</time></trkpt><trkpt lat="39.8041483" lon="8.8530817"><ele>264.0</ele><time>2026-05-01T08:29:10.564Z</time></trkpt><trkpt lat="39.80403" lon="8.8531083"><ele>263.59999999999997</ele><time>2026-05-01T08:29:11.565Z</time></trkpt><trkpt lat="39.803905" lon="8.8531317"><ele>263.2</ele><time>2026-05-01T08:29:12.565Z</time></trkpt><trkpt lat="39.8037867" lon="8.8531533"><ele>262.79999999999995</ele><time>2026-05-01T08:29:13.566Z</time></trkpt><trkpt lat="39.80369" lon="8.85317"><ele>262.4</ele><time>2026-05-01T08:29:14.593Z</time></trkpt><trkpt lat="39.8036" lon="8.853195"><ele>262.0</ele><time>2026-05-01T08:29:15.564Z</time></trkpt><trkpt lat="39.80352" lon="8.8532067"><ele>261.3333333333333</ele><time>2026-05-01T08:29:16.565Z</time></trkpt><trkpt lat="39.80345" lon="8.8532217"><ele>260.66666666666663</ele><time>2026-05-01T08:29:17.564Z</time></trkpt><trkpt lat="39.80335" lon="8.853245"><ele>260.0</ele><time>2026-05-01T08:29:19.565Z</time></trkpt><trkpt lat="39.803285" lon="8.8533017"><ele>259.3333333333333</ele><time>2026-05-01T08:29:21.565Z</time></trkpt><trkpt lat="39.8031917" lon="8.85332"><ele>258.6666666666667</ele><time>2026-05-01T08:29:35.56Z</time></trkpt><trkpt lat="39.8031267" lon="8.85333"><ele>258.0</ele><time>2026-05-01T08:29:36.568Z</time></trkpt><trkpt lat="39.8030567" lon="8.8533433"><ele>258.0</ele><time>2026-05-01T08:29:37.565Z</time></trkpt><trkpt lat="39.8029633" lon="8.8533617"><ele>258.0</ele><time>2026-05-01T08:29:38.594Z</time></trkpt><trkpt lat="39.80287" lon="8.8533833"><ele>258.0</ele><time>2026-05-01T08:29:39.564Z</time></trkpt><trkpt lat="39.802755" lon="8.8534"><ele>258.0</ele><time>2026-05-01T08:29:40.565Z</time></trkpt><trkpt lat="39.8026233" lon="8.853425"><ele>258.0</ele><time>2026-05-01T08:29:41.568Z</time></trkpt><trkpt lat="39.802495" lon="8.8534433"><ele>256.5</ele><time>2026-05-01T08:29:42.564Z</time></trkpt><trkpt lat="39.8023633" lon="8.8534683"><ele>255.0</ele><time>2026-05-01T08:29:43.566Z</time></trkpt><trkpt lat="39.8022383" lon="8.8535067"><ele>253.5</ele><time>2026-05-01T08:29:44.593Z</time></trkpt><trkpt lat="39.8021233" lon="8.853525"><ele>252.0</ele><time>2026-05-01T08:29:45.562Z</time></trkpt><trkpt lat="39.802" lon="8.8535517"><ele>252.0</ele><time>2026-05-01T08:29:46.563Z</time></trkpt><trkpt lat="39.8018667" lon="8.8535717"><ele>252.0</ele><time>2026-05-01T08:29:47.567Z</time></trkpt><trkpt lat="39.801745" lon="8.853635"><ele>252.0</ele><time>2026-05-01T08:29:48.561Z</time></trkpt><trkpt lat="39.8016083" lon="8.853655"><ele>252.0</ele><time>2026-05-01T08:29:49.565Z</time></trkpt><trkpt lat="39.8014883" lon="8.85368"><ele>251.39999999999998</ele><time>2026-05-01T08:29:50.595Z</time></trkpt><trkpt lat="39.801385" lon="8.8536933"><ele>250.79999999999998</ele><time>2026-05-01T08:29:51.561Z</time></trkpt><trkpt lat="39.8012783" lon="8.85371"><ele>250.2</ele><time>2026-05-01T08:29:52.56Z</time></trkpt><trkpt lat="39.80119" lon="8.8537317"><ele>249.6</ele><time>2026-05-01T08:29:53.565Z</time></trkpt><trkpt lat="39.80109" lon="8.8537533"><ele>249.0</ele><time>2026-05-01T08:29:54.564Z</time></trkpt><trkpt lat="39.800985" lon="8.8537283"><ele>248.25</ele><time>2026-05-01T08:29:55.564Z</time></trkpt><trkpt lat="39.80087" lon="8.85366"><ele>247.5</ele><time>2026-05-01T08:29:56.631Z</time></trkpt><trkpt lat="39.8007833" lon="8.853555"><ele>246.75</ele><time>2026-05-01T08:29:57.561Z</time></trkpt><trkpt lat="39.8006967" lon="8.85341"><ele>246.0</ele><time>2026-05-01T08:29:58.563Z</time></trkpt><trkpt lat="39.8005933" lon="8.85328"><ele>246.0</ele><time>2026-05-01T08:29:59.562Z</time></trkpt><trkpt lat="39.8004833" lon="8.8531367"><ele>246.0</ele><time>2026-05-01T08:30:00.561Z</time></trkpt><trkpt lat="39.8003917" lon="8.8529517"><ele>246.0</ele><time>2026-05-01T08:30:01.565Z</time></trkpt><trkpt lat="39.8002833" lon="8.8527683"><ele>246.0</ele><time>2026-05-01T08:30:02.617Z</time></trkpt><trkpt lat="39.8001783" lon="8.8525767"><ele>246.0</ele><time>2026-05-01T08:30:03.561Z</time></trkpt><trkpt lat="39.8000717" lon="8.8523833"><ele>246.0</ele><time>2026-05-01T08:30:04.558Z</time></trkpt><trkpt lat="39.7999733" lon="8.8521683"><ele>246.0</ele><time>2026-05-01T08:30:05.56Z</time></trkpt><trkpt lat="39.799865" lon="8.851965"><ele>246.0</ele><time>2026-05-01T08:30:06.565Z</time></trkpt><trkpt lat="39.7997517" lon="8.851785"><ele>246.0</ele><time>2026-05-01T08:30:07.565Z</time></trkpt><trkpt lat="39.7996367" lon="8.8515817"><ele>246.33333333333331</ele><time>2026-05-01T08:30:08.592Z</time></trkpt><trkpt lat="39.799525" lon="8.8513883"><ele>246.66666666666666</ele><time>2026-05-01T08:30:09.56Z</time></trkpt><trkpt lat="39.79941" lon="8.8511783"><ele>247.0</ele><time>2026-05-01T08:30:10.565Z</time></trkpt><trkpt lat="39.7992933" lon="8.8509733"><ele>247.66666666666666</ele><time>2026-05-01T08:30:11.562Z</time></trkpt><trkpt lat="39.7991833" lon="8.8507583"><ele>248.33333333333331</ele><time>2026-05-01T08:30:12.564Z</time></trkpt><trkpt lat="39.7990717" lon="8.8505433"><ele>249.0</ele><time>2026-05-01T08:30:13.563Z</time></trkpt><trkpt lat="39.7989567" lon="8.8503467"><ele>249.0</ele><time>2026-05-01T08:30:14.595Z</time></trkpt><trkpt lat="39.798825" lon="8.850155"><ele>249.0</ele><time>2026-05-01T08:30:15.564Z</time></trkpt><trkpt lat="39.7987017" lon="8.849945"><ele>249.0</ele><time>2026-05-01T08:30:16.562Z</time></trkpt><trkpt lat="39.79858" lon="8.8497517"><ele>248.66666666666669</ele><time>2026-05-01T08:30:17.565Z</time></trkpt><trkpt lat="39.7984667" lon="8.849545"><ele>248.33333333333334</ele><time>2026-05-01T08:30:18.561Z</time></trkpt><trkpt lat="39.79835" lon="8.8493317"><ele>248.0</ele><time>2026-05-01T08:30:19.56Z</time></trkpt><trkpt lat="39.79824" lon="8.8491233"><ele>248.0</ele><time>2026-05-01T08:30:20.59Z</time></trkpt><trkpt lat="39.7981233" lon="8.8489183"><ele>248.0</ele><time>2026-05-01T08:30:21.563Z</time></trkpt><trkpt lat="39.7980167" lon="8.84873"><ele>248.0</ele><time>2026-05-01T08:30:22.559Z</time></trkpt><trkpt lat="39.7978867" lon="8.8485333"><ele>248.0</ele><time>2026-05-01T08:30:23.565Z</time></trkpt><trkpt lat="39.7977567" lon="8.8483567"><ele>248.0</ele><time>2026-05-01T08:30:24.564Z</time></trkpt><trkpt lat="39.7976433" lon="8.84821"><ele>248.0</ele><time>2026-05-01T08:30:25.566Z</time></trkpt><trkpt lat="39.7974883" lon="8.84808"><ele>247.0</ele><time>2026-05-01T08:30:26.631Z</time></trkpt><trkpt lat="39.7973267" lon="8.84794"><ele>246.0</ele><time>2026-05-01T08:30:27.564Z</time></trkpt><trkpt lat="39.7971567" lon="8.8478217"><ele>245.0</ele><time>2026-05-01T08:30:28.558Z</time></trkpt><trkpt lat="39.7969683" lon="8.8477083"><ele>243.66666666666669</ele><time>2026-05-01T08:30:29.567Z</time></trkpt><trkpt lat="39.7967883" lon="8.84759"><ele>242.33333333333331</ele><time>2026-05-01T08:30:30.561Z</time></trkpt><trkpt lat="39.796615" lon="8.8474683"><ele>241.0</ele><time>2026-05-01T08:30:31.567Z</time></trkpt><trkpt lat="39.7964467" lon="8.8473533"><ele>241.0</ele><time>2026-05-01T08:30:32.614Z</time></trkpt><trkpt lat="39.7962867" lon="8.84725"><ele>241.0</ele><time>2026-05-01T08:30:33.56Z</time></trkpt><trkpt lat="39.7961367" lon="8.847145"><ele>241.0</ele><time>2026-05-01T08:30:34.564Z</time></trkpt><trkpt lat="39.795995" lon="8.84705"><ele>241.0</ele><time>2026-05-01T08:30:35.561Z</time></trkpt><trkpt lat="39.7958617" lon="8.84695"><ele>241.0</ele><time>2026-05-01T08:30:36.561Z</time></trkpt><trkpt lat="39.79575" lon="8.8468617"><ele>241.0</ele><time>2026-05-01T08:30:37.565Z</time></trkpt><trkpt lat="39.7956467" lon="8.8467867"><ele>241.0</ele><time>2026-05-01T08:30:38.595Z</time></trkpt><trkpt lat="39.7955533" lon="8.8467183"><ele>241.0</ele><time>2026-05-01T08:30:39.569Z</time></trkpt><trkpt lat="39.7954667" lon="8.8466667"><ele>241.00000000000003</ele><time>2026-05-01T08:30:40.564Z</time></trkpt><trkpt lat="39.7953917" lon="8.8466217"><ele>241.00000000000003</ele><time>2026-05-01T08:30:41.559Z</time></trkpt><trkpt lat="39.7952967" lon="8.8465683"><ele>241.0</ele><time>2026-05-01T08:30:43.565Z</time></trkpt><trkpt lat="39.79524" lon="8.8466433"><ele>241.0</ele><time>2026-05-01T08:30:45.559Z</time></trkpt><trkpt lat="39.79523" lon="8.846815"><ele>241.0</ele><time>2026-05-01T08:30:47.563Z</time></trkpt><trkpt lat="39.7952417" lon="8.84695"><ele>241.0</ele><time>2026-05-01T08:30:48.565Z</time></trkpt><trkpt lat="39.795255" lon="8.8471067"><ele>241.0</ele><time>2026-05-01T08:30:49.566Z</time></trkpt><trkpt lat="39.795295" lon="8.8473133"><ele>241.0</ele><time>2026-05-01T08:30:50.59Z</time></trkpt><trkpt lat="39.7952883" lon="8.84752"><ele>242.5</ele><time>2026-05-01T08:30:51.566Z</time></trkpt><trkpt lat="39.7952533" lon="8.8476967"><ele>244.0</ele><time>2026-05-01T08:30:52.566Z</time></trkpt><trkpt lat="39.7952117" lon="8.8478467"><ele>245.5</ele><time>2026-05-01T08:30:53.567Z</time></trkpt><trkpt lat="39.7951483" lon="8.8480267"><ele>247.0</ele><time>2026-05-01T08:30:54.559Z</time></trkpt><trkpt lat="39.795075" lon="8.848175"><ele>247.25</ele><time>2026-05-01T08:30:55.564Z</time></trkpt><trkpt lat="39.794995" lon="8.8483367"><ele>247.5</ele><time>2026-05-01T08:30:56.63Z</time></trkpt><trkpt lat="39.7949083" lon="8.848475"><ele>247.75</ele><time>2026-05-01T08:30:57.564Z</time></trkpt><trkpt lat="39.7948017" lon="8.8485883"><ele>248.0</ele><time>2026-05-01T08:30:58.558Z</time></trkpt><trkpt lat="39.7946967" lon="8.848705"><ele>248.33333333333334</ele><time>2026-05-01T08:30:59.562Z</time></trkpt><trkpt lat="39.79458" lon="8.8488183"><ele>248.66666666666669</ele><time>2026-05-01T08:31:00.568Z</time></trkpt><trkpt lat="39.7944517" lon="8.8489167"><ele>249.0</ele><time>2026-05-01T08:31:01.564Z</time></trkpt><trkpt lat="39.7943133" lon="8.8490167"><ele>249.0</ele><time>2026-05-01T08:31:02.618Z</time></trkpt><trkpt lat="39.7941933" lon="8.8490983"><ele>248.99999999999997</ele><time>2026-05-01T08:31:03.558Z</time></trkpt><trkpt lat="39.7940783" lon="8.8491683"><ele>248.99999999999997</ele><time>2026-05-01T08:31:04.564Z</time></trkpt><trkpt lat="39.7940033" lon="8.8492383"><ele>249.0</ele><time>2026-05-01T08:31:05.562Z</time></trkpt><trkpt lat="39.7939483" lon="8.849305"><ele>249.0</ele><time>2026-05-01T08:31:06.566Z</time></trkpt><trkpt lat="39.793905" lon="8.8494133"><ele>248.5</ele><time>2026-05-01T08:31:07.564Z</time></trkpt><trkpt lat="39.79386" lon="8.84956"><ele>248.0</ele><time>2026-05-01T08:31:08.594Z</time></trkpt><trkpt lat="39.79385" lon="8.84972"><ele>247.5</ele><time>2026-05-01T08:31:09.565Z</time></trkpt><trkpt lat="39.7938267" lon="8.8498817"><ele>247.0</ele><time>2026-05-01T08:31:10.565Z</time></trkpt><trkpt lat="39.7937933" lon="8.8500717"><ele>245.5</ele><time>2026-05-01T08:31:11.563Z</time></trkpt><trkpt lat="39.79378" lon="8.8502533"><ele>244.0</ele><time>2026-05-01T08:31:12.565Z</time></trkpt><trkpt lat="39.793775" lon="8.85044"><ele>242.5</ele><time>2026-05-01T08:31:13.564Z</time></trkpt><trkpt lat="39.7937517" lon="8.8506083"><ele>241.0</ele><time>2026-05-01T08:31:14.591Z</time></trkpt><trkpt lat="39.7937233" lon="8.85077"><ele>241.0</ele><time>2026-05-01T08:31:15.56Z</time></trkpt><trkpt lat="39.7936817" lon="8.8509183"><ele>241.0</ele><time>2026-05-01T08:31:16.561Z</time></trkpt><trkpt lat="39.7936283" lon="8.8510583"><ele>241.0</ele><time>2026-05-01T08:31:17.565Z</time></trkpt><trkpt lat="39.7935683" lon="8.8511883"><ele>241.0</ele><time>2026-05-01T08:31:18.565Z</time></trkpt><trkpt lat="39.7934967" lon="8.851325"><ele>240.5</ele><time>2026-05-01T08:31:19.563Z</time></trkpt><trkpt lat="39.7934167" lon="8.8514483"><ele>240.0</ele><time>2026-05-01T08:31:20.596Z</time></trkpt><trkpt lat="39.7933333" lon="8.851565"><ele>239.5</ele><time>2026-05-01T08:31:21.566Z</time></trkpt><trkpt lat="39.7932467" lon="8.8516667"><ele>239.0</ele><time>2026-05-01T08:31:22.563Z</time></trkpt><trkpt lat="39.7931617" lon="8.8517667"><ele>237.79999999999998</ele><time>2026-05-01T08:31:23.563Z</time></trkpt><trkpt lat="39.7930783" lon="8.8518567"><ele>236.59999999999997</ele><time>2026-05-01T08:31:24.565Z</time></trkpt><trkpt lat="39.7930133" lon="8.8519467"><ele>235.4</ele><time>2026-05-01T08:31:25.566Z</time></trkpt><trkpt lat="39.79296" lon="8.8520333"><ele>234.2</ele><time>2026-05-01T08:31:26.63Z</time></trkpt><trkpt lat="39.7929283" lon="8.8521267"><ele>233.0</ele><time>2026-05-01T08:31:27.56Z</time></trkpt><trkpt lat="39.7929" lon="8.85224"><ele>233.0</ele><time>2026-05-01T08:31:28.565Z</time></trkpt><trkpt lat="39.7928833" lon="8.85237"><ele>233.0</ele><time>2026-05-01T08:31:29.564Z</time></trkpt><trkpt lat="39.7928767" lon="8.8525267"><ele>233.0</ele><time>2026-05-01T08:31:30.561Z</time></trkpt><trkpt lat="39.7928567" lon="8.8526833"><ele>233.0</ele><time>2026-05-01T08:31:31.562Z</time></trkpt><trkpt lat="39.79283" lon="8.85284"><ele>232.0</ele><time>2026-05-01T08:31:32.602Z</time></trkpt><trkpt lat="39.792805" lon="8.8529883"><ele>231.0</ele><time>2026-05-01T08:31:33.563Z</time></trkpt><trkpt lat="39.7927867" lon="8.8531367"><ele>230.0</ele><time>2026-05-01T08:31:34.566Z</time></trkpt><trkpt lat="39.7927733" lon="8.8532833"><ele>229.0</ele><time>2026-05-01T08:31:35.563Z</time></trkpt><trkpt lat="39.79276" lon="8.8534317"><ele>228.0</ele><time>2026-05-01T08:31:36.563Z</time></trkpt><trkpt lat="39.7927467" lon="8.85358"><ele>226.99999999999997</ele><time>2026-05-01T08:31:37.562Z</time></trkpt><trkpt lat="39.79276" lon="8.8537183"><ele>225.99999999999997</ele><time>2026-05-01T08:31:38.598Z</time></trkpt><trkpt lat="39.7927383" lon="8.853835"><ele>225.0</ele><time>2026-05-01T08:31:39.56Z</time></trkpt><trkpt lat="39.7927267" lon="8.8539783"><ele>224.0</ele><time>2026-05-01T08:31:40.561Z</time></trkpt><trkpt lat="39.7926933" lon="8.854105"><ele>223.79999999999998</ele><time>2026-05-01T08:31:41.564Z</time></trkpt><trkpt lat="39.7926467" lon="8.8542133"><ele>223.59999999999997</ele><time>2026-05-01T08:31:42.564Z</time></trkpt><trkpt lat="39.7926" lon="8.85433"><ele>223.4</ele><time>2026-05-01T08:31:43.561Z</time></trkpt><trkpt lat="39.7924983" lon="8.8544033"><ele>223.2</ele><time>2026-05-01T08:31:44.595Z</time></trkpt><trkpt lat="39.7923917" lon="8.8544767"><ele>223.0</ele><time>2026-05-01T08:31:45.563Z</time></trkpt><trkpt lat="39.79232" lon="8.8545683"><ele>221.8</ele><time>2026-05-01T08:31:46.565Z</time></trkpt><trkpt lat="39.79223" lon="8.8546583"><ele>220.60000000000002</ele><time>2026-05-01T08:31:47.564Z</time></trkpt><trkpt lat="39.7921117" lon="8.854725"><ele>219.39999999999998</ele><time>2026-05-01T08:31:48.563Z</time></trkpt><trkpt lat="39.792035" lon="8.854805"><ele>218.2</ele><time>2026-05-01T08:31:49.56Z</time></trkpt><trkpt lat="39.7919567" lon="8.854885"><ele>217.0</ele><time>2026-05-01T08:31:50.59Z</time></trkpt><trkpt lat="39.79188" lon="8.8549633"><ele>216.83333333333331</ele><time>2026-05-01T08:31:51.561Z</time></trkpt><trkpt lat="39.7918033" lon="8.8550333"><ele>216.66666666666666</ele><time>2026-05-01T08:31:52.567Z</time></trkpt><trkpt lat="39.7917217" lon="8.85507"><ele>216.5</ele><time>2026-05-01T08:31:53.56Z</time></trkpt><trkpt lat="39.7916483" lon="8.8551117"><ele>216.33333333333331</ele><time>2026-05-01T08:31:54.565Z</time></trkpt><trkpt lat="39.79158" lon="8.8551483"><ele>216.16666666666666</ele><time>2026-05-01T08:31:55.565Z</time></trkpt><trkpt lat="39.7915133" lon="8.8551833"><ele>216.0</ele><time>2026-05-01T08:31:56.63Z</time></trkpt><trkpt lat="39.7914417" lon="8.8552167"><ele>215.4</ele><time>2026-05-01T08:31:57.56Z</time></trkpt><trkpt lat="39.7913283" lon="8.8552267"><ele>214.8</ele><time>2026-05-01T08:31:58.561Z</time></trkpt><trkpt lat="39.7912383" lon="8.855245"><ele>214.20000000000002</ele><time>2026-05-01T08:31:59.565Z</time></trkpt><trkpt lat="39.79114" lon="8.8552467"><ele>213.60000000000002</ele><time>2026-05-01T08:32:00.567Z</time></trkpt><trkpt lat="39.791025" lon="8.8552267"><ele>213.0</ele><time>2026-05-01T08:32:01.563Z</time></trkpt><trkpt lat="39.7909033" lon="8.855185"><ele>212.5</ele><time>2026-05-01T08:32:02.631Z</time></trkpt><trkpt lat="39.7907983" lon="8.8551567"><ele>212.0</ele><time>2026-05-01T08:32:03.566Z</time></trkpt><trkpt lat="39.7907117" lon="8.8551417"><ele>211.5</ele><time>2026-05-01T08:32:04.562Z</time></trkpt><trkpt lat="39.7906383" lon="8.85512"><ele>211.0</ele><time>2026-05-01T08:32:05.563Z</time></trkpt><trkpt lat="39.790575" lon="8.855105"><ele>210.5</ele><time>2026-05-01T08:32:06.566Z</time></trkpt><trkpt lat="39.7904667" lon="8.8551117"><ele>210.0</ele><time>2026-05-01T08:32:08.59Z</time></trkpt><trkpt lat="39.7903433" lon="8.8551817"><ele>210.0</ele><time>2026-05-01T08:32:10.564Z</time></trkpt><trkpt lat="39.7902783" lon="8.8552383"><ele>210.0</ele><time>2026-05-01T08:32:11.562Z</time></trkpt><trkpt lat="39.7902133" lon="8.8553"><ele>210.0</ele><time>2026-05-01T08:32:12.565Z</time></trkpt><trkpt lat="39.790155" lon="8.8553617"><ele>210.0</ele><time>2026-05-01T08:32:13.565Z</time></trkpt><trkpt lat="39.7900983" lon="8.8554383"><ele>210.0</ele><time>2026-05-01T08:32:14.593Z</time></trkpt><trkpt lat="39.7900433" lon="8.855505"><ele>210.0</ele><time>2026-05-01T08:32:15.558Z</time></trkpt><trkpt lat="39.78999" lon="8.8555733"><ele>209.66666666666666</ele><time>2026-05-01T08:32:16.567Z</time></trkpt><trkpt lat="39.7899383" lon="8.8556417"><ele>209.33333333333331</ele><time>2026-05-01T08:32:17.563Z</time></trkpt><trkpt lat="39.7898817" lon="8.85571"><ele>209.0</ele><time>2026-05-01T08:32:18.564Z</time></trkpt><trkpt lat="39.789825" lon="8.8557967"><ele>208.66666666666666</ele><time>2026-05-01T08:32:19.564Z</time></trkpt><trkpt lat="39.789775" lon="8.8558883"><ele>208.33333333333331</ele><time>2026-05-01T08:32:20.589Z</time></trkpt><trkpt lat="39.7897267" lon="8.8559817"><ele>208.0</ele><time>2026-05-01T08:32:21.561Z</time></trkpt><trkpt lat="39.7896767" lon="8.85608"><ele>208.0</ele><time>2026-05-01T08:32:22.563Z</time></trkpt><trkpt lat="39.7896267" lon="8.8561767"><ele>208.0</ele><time>2026-05-01T08:32:23.565Z</time></trkpt><trkpt lat="39.7895733" lon="8.8562667"><ele>208.0</ele><time>2026-05-01T08:32:24.563Z</time></trkpt><trkpt lat="39.789515" lon="8.8563567"><ele>208.0</ele><time>2026-05-01T08:32:25.565Z</time></trkpt><trkpt lat="39.7894483" lon="8.8564533"><ele>208.0</ele><time>2026-05-01T08:32:26.627Z</time></trkpt><trkpt lat="39.78939" lon="8.8565983"><ele>208.0</ele><time>2026-05-01T08:32:27.562Z</time></trkpt><trkpt lat="39.78934" lon="8.85673"><ele>208.0</ele><time>2026-05-01T08:32:28.567Z</time></trkpt><trkpt lat="39.78925" lon="8.856835"><ele>208.0</ele><time>2026-05-01T08:32:29.559Z</time></trkpt><trkpt lat="39.78917" lon="8.8568833"><ele>208.0</ele><time>2026-05-01T08:32:30.559Z</time></trkpt><trkpt lat="39.789085" lon="8.8569083"><ele>208.0</ele><time>2026-05-01T08:32:31.564Z</time></trkpt><trkpt lat="39.78899" lon="8.8568933"><ele>207.2</ele><time>2026-05-01T08:32:32.617Z</time></trkpt><trkpt lat="39.7889" lon="8.856875"><ele>206.4</ele><time>2026-05-01T08:32:33.561Z</time></trkpt><trkpt lat="39.78882" lon="8.8568633"><ele>205.6</ele><time>2026-05-01T08:32:34.56Z</time></trkpt><trkpt lat="39.7887533" lon="8.85687"><ele>204.79999999999998</ele><time>2026-05-01T08:32:35.566Z</time></trkpt><trkpt lat="39.7886317" lon="8.85692"><ele>204.0</ele><time>2026-05-01T08:32:37.564Z</time></trkpt><trkpt lat="39.7885283" lon="8.8570133"><ele>203.85714285714286</ele><time>2026-05-01T08:32:39.56Z</time></trkpt><trkpt lat="39.7884833" lon="8.8570833"><ele>203.71428571428572</ele><time>2026-05-01T08:32:40.564Z</time></trkpt><trkpt lat="39.7884417" lon="8.857155"><ele>203.57142857142856</ele><time>2026-05-01T08:32:41.565Z</time></trkpt><trkpt lat="39.7884" lon="8.857225"><ele>203.42857142857144</ele><time>2026-05-01T08:32:42.561Z</time></trkpt><trkpt lat="39.78836" lon="8.8573067"><ele>203.28571428571428</ele><time>2026-05-01T08:32:43.562Z</time></trkpt><trkpt lat="39.7883217" lon="8.8573883"><ele>203.14285714285714</ele><time>2026-05-01T08:32:44.592Z</time></trkpt><trkpt lat="39.7882917" lon="8.857485"><ele>203.0</ele><time>2026-05-01T08:32:45.565Z</time></trkpt><trkpt lat="39.7882717" lon="8.8575817"><ele>202.57142857142858</ele><time>2026-05-01T08:32:46.564Z</time></trkpt><trkpt lat="39.788265" lon="8.857675"><ele>202.14285714285714</ele><time>2026-05-01T08:32:47.564Z</time></trkpt><trkpt lat="39.7882717" lon="8.857765"><ele>201.71428571428572</ele><time>2026-05-01T08:32:48.565Z</time></trkpt><trkpt lat="39.7882883" lon="8.857855"><ele>201.28571428571428</ele><time>2026-05-01T08:32:49.567Z</time></trkpt><trkpt lat="39.78832" lon="8.8579367"><ele>200.85714285714286</ele><time>2026-05-01T08:32:50.593Z</time></trkpt><trkpt lat="39.7883433" lon="8.8580233"><ele>200.42857142857144</ele><time>2026-05-01T08:32:51.56Z</time></trkpt><trkpt lat="39.788355" lon="8.8581183"><ele>200.0</ele><time>2026-05-01T08:32:52.564Z</time></trkpt><trkpt lat="39.788365" lon="8.8582167"><ele>200.0</ele><time>2026-05-01T08:32:53.564Z</time></trkpt><trkpt lat="39.7883567" lon="8.8583317"><ele>200.0</ele><time>2026-05-01T08:32:54.561Z</time></trkpt><trkpt lat="39.788335" lon="8.85845"><ele>200.0</ele><time>2026-05-01T08:32:55.566Z</time></trkpt><trkpt lat="39.7883017" lon="8.8585817"><ele>200.0</ele><time>2026-05-01T08:32:56.594Z</time></trkpt><trkpt lat="39.78824" lon="8.858755"><ele>200.0</ele><time>2026-05-01T08:32:57.567Z</time></trkpt><trkpt lat="39.7881783" lon="8.85891"><ele>201.0</ele><time>2026-05-01T08:32:58.565Z</time></trkpt><trkpt lat="39.7880933" lon="8.8590133"><ele>202.0</ele><time>2026-05-01T08:32:59.564Z</time></trkpt><trkpt lat="39.7880083" lon="8.85911"><ele>203.0</ele><time>2026-05-01T08:33:00.564Z</time></trkpt><trkpt lat="39.7879217" lon="8.8592067"><ele>204.0</ele><time>2026-05-01T08:33:01.567Z</time></trkpt><trkpt lat="39.7878367" lon="8.8593217"><ele>204.25</ele><time>2026-05-01T08:33:02.614Z</time></trkpt><trkpt lat="39.7877633" lon="8.8594733"><ele>204.5</ele><time>2026-05-01T08:33:03.563Z</time></trkpt><trkpt lat="39.787695" lon="8.8596283"><ele>204.75</ele><time>2026-05-01T08:33:04.561Z</time></trkpt><trkpt lat="39.7876317" lon="8.8597817"><ele>205.0</ele><time>2026-05-01T08:33:05.561Z</time></trkpt><trkpt lat="39.7875683" lon="8.8599267"><ele>205.0</ele><time>2026-05-01T08:33:06.565Z</time></trkpt><trkpt lat="39.7875317" lon="8.860045"><ele>205.0</ele><time>2026-05-01T08:33:07.566Z</time></trkpt><trkpt lat="39.78748" lon="8.8601833"><ele>205.0</ele><time>2026-05-01T08:33:08.594Z</time></trkpt><trkpt lat="39.7874467" lon="8.8603333"><ele>205.0</ele><time>2026-05-01T08:33:09.566Z</time></trkpt><trkpt lat="39.7874267" lon="8.86052"><ele>206.0</ele><time>2026-05-01T08:33:10.565Z</time></trkpt><trkpt lat="39.78741" lon="8.8606883"><ele>207.0</ele><time>2026-05-01T08:33:11.565Z</time></trkpt><trkpt lat="39.78736" lon="8.8608167"><ele>208.0</ele><time>2026-05-01T08:33:12.563Z</time></trkpt><trkpt lat="39.7873283" lon="8.8609583"><ele>209.0</ele><time>2026-05-01T08:33:13.566Z</time></trkpt><trkpt lat="39.7872933" lon="8.8610933"><ele>209.50000000000003</ele><time>2026-05-01T08:33:14.589Z</time></trkpt><trkpt lat="39.787255" lon="8.8612083"><ele>210.0</ele><time>2026-05-01T08:33:15.561Z</time></trkpt><trkpt lat="39.787225" lon="8.861295"><ele>210.5</ele><time>2026-05-01T08:33:16.563Z</time></trkpt><trkpt lat="39.7871883" lon="8.8614067"><ele>211.0</ele><time>2026-05-01T08:33:18.564Z</time></trkpt><trkpt lat="39.7871267" lon="8.8615317"><ele>211.50000000000003</ele><time>2026-05-01T08:33:20.592Z</time></trkpt><trkpt lat="39.7870917" lon="8.8616017"><ele>212.0</ele><time>2026-05-01T08:33:21.564Z</time></trkpt><trkpt lat="39.787055" lon="8.861675"><ele>211.66666666666669</ele><time>2026-05-01T08:33:22.562Z</time></trkpt><trkpt lat="39.786985" lon="8.861815"><ele>211.33333333333334</ele><time>2026-05-01T08:33:24.565Z</time></trkpt><trkpt lat="39.78694" lon="8.8618867"><ele>211.0</ele><time>2026-05-01T08:33:25.563Z</time></trkpt><trkpt lat="39.7868833" lon="8.86196"><ele>210.66666666666669</ele><time>2026-05-01T08:33:26.619Z</time></trkpt><trkpt lat="39.78682" lon="8.8620333"><ele>210.33333333333334</ele><time>2026-05-01T08:33:27.563Z</time></trkpt><trkpt lat="39.7867567" lon="8.8620917"><ele>210.0</ele><time>2026-05-01T08:33:28.56Z</time></trkpt><trkpt lat="39.78669" lon="8.8621417"><ele>209.6</ele><time>2026-05-01T08:33:29.565Z</time></trkpt><trkpt lat="39.7866167" lon="8.8621867"><ele>209.2</ele><time>2026-05-01T08:33:30.564Z</time></trkpt><trkpt lat="39.786535" lon="8.8622117"><ele>208.8</ele><time>2026-05-01T08:33:31.564Z</time></trkpt><trkpt lat="39.7864517" lon="8.862225"><ele>208.4</ele><time>2026-05-01T08:33:32.615Z</time></trkpt><trkpt lat="39.7863367" lon="8.8621983"><ele>208.0</ele><time>2026-05-01T08:33:33.563Z</time></trkpt><trkpt lat="39.7862417" lon="8.8622"><ele>208.0</ele><time>2026-05-01T08:33:34.564Z</time></trkpt><trkpt lat="39.7861417" lon="8.862205"><ele>208.0</ele><time>2026-05-01T08:33:35.562Z</time></trkpt><trkpt lat="39.7860533" lon="8.8622033"><ele>208.0</ele><time>2026-05-01T08:33:36.559Z</time></trkpt><trkpt lat="39.785955" lon="8.86222"><ele>208.0</ele><time>2026-05-01T08:33:37.564Z</time></trkpt><trkpt lat="39.7858583" lon="8.8622517"><ele>208.0</ele><time>2026-05-01T08:33:38.591Z</time></trkpt><trkpt lat="39.78576" lon="8.8622967"><ele>207.5</ele><time>2026-05-01T08:33:39.562Z</time></trkpt><trkpt lat="39.7856583" lon="8.862355"><ele>207.0</ele><time>2026-05-01T08:33:40.565Z</time></trkpt><trkpt lat="39.7855517" lon="8.862425"><ele>206.5</ele><time>2026-05-01T08:33:41.565Z</time></trkpt><trkpt lat="39.7854433" lon="8.8624983"><ele>206.0</ele><time>2026-05-01T08:33:42.564Z</time></trkpt><trkpt lat="39.78533" lon="8.86258"><ele>205.5</ele><time>2026-05-01T08:33:43.559Z</time></trkpt><trkpt lat="39.7852167" lon="8.862675"><ele>205.0</ele><time>2026-05-01T08:33:44.592Z</time></trkpt><trkpt lat="39.7851017" lon="8.8627783"><ele>204.5</ele><time>2026-05-01T08:33:45.565Z</time></trkpt><trkpt lat="39.7849917" lon="8.8628867"><ele>204.0</ele><time>2026-05-01T08:33:46.564Z</time></trkpt><trkpt lat="39.7848683" lon="8.8629983"><ele>204.0</ele><time>2026-05-01T08:33:47.564Z</time></trkpt><trkpt lat="39.784735" lon="8.863115"><ele>204.0</ele><time>2026-05-01T08:33:48.563Z</time></trkpt><trkpt lat="39.7846083" lon="8.8632183"><ele>204.0</ele><time>2026-05-01T08:33:49.563Z</time></trkpt><trkpt lat="39.78449" lon="8.863315"><ele>204.0</ele><time>2026-05-01T08:33:50.59Z</time></trkpt><trkpt lat="39.7843683" lon="8.8634067"><ele>204.0</ele><time>2026-05-01T08:33:51.562Z</time></trkpt><trkpt lat="39.78426" lon="8.8634817"><ele>204.0</ele><time>2026-05-01T08:33:52.561Z</time></trkpt><trkpt lat="39.7841567" lon="8.863555"><ele>204.0</ele><time>2026-05-01T08:33:53.563Z</time></trkpt><trkpt lat="39.7840633" lon="8.8636167"><ele>203.83333333333334</ele><time>2026-05-01T08:33:54.566Z</time></trkpt><trkpt lat="39.7839583" lon="8.8636717"><ele>203.66666666666669</ele><time>2026-05-01T08:33:55.561Z</time></trkpt><trkpt lat="39.78388" lon="8.863695"><ele>203.5</ele><time>2026-05-01T08:33:56.59Z</time></trkpt><trkpt lat="39.783795" lon="8.8637567"><ele>203.33333333333334</ele><time>2026-05-01T08:33:58.563Z</time></trkpt><trkpt lat="39.78378" lon="8.8638483"><ele>203.16666666666669</ele><time>2026-05-01T08:34:00.564Z</time></trkpt><trkpt lat="39.7838317" lon="8.8639017"><ele>203.0</ele><time>2026-05-01T08:34:01.566Z</time></trkpt><trkpt lat="39.783895" lon="8.8639483"><ele>203.0</ele><time>2026-05-01T08:34:02.617Z</time></trkpt><trkpt lat="39.7839883" lon="8.86399"><ele>203.0</ele><time>2026-05-01T08:34:03.561Z</time></trkpt><trkpt lat="39.7840883" lon="8.86403"><ele>203.0</ele><time>2026-05-01T08:34:04.563Z</time></trkpt><trkpt lat="39.7841933" lon="8.86407"><ele>203.0</ele><time>2026-05-01T08:34:05.562Z</time></trkpt><trkpt lat="39.7843083" lon="8.8641133"><ele>203.0</ele><time>2026-05-01T08:34:06.564Z</time></trkpt><trkpt lat="39.7844133" lon="8.8641667"><ele>202.5</ele><time>2026-05-01T08:34:07.564Z</time></trkpt><trkpt lat="39.7845183" lon="8.8642183"><ele>202.0</ele><time>2026-05-01T08:34:08.596Z</time></trkpt><trkpt lat="39.7846217" lon="8.86426"><ele>201.5</ele><time>2026-05-01T08:34:09.563Z</time></trkpt><trkpt lat="39.7847267" lon="8.8642883"><ele>201.0</ele><time>2026-05-01T08:34:10.559Z</time></trkpt><trkpt lat="39.7848583" lon="8.86429"><ele>201.0</ele><time>2026-05-01T08:34:11.566Z</time></trkpt><trkpt lat="39.7849967" lon="8.8642667"><ele>201.0</ele><time>2026-05-01T08:34:12.564Z</time></trkpt><trkpt lat="39.7851267" lon="8.8642417"><ele>201.0</ele><time>2026-05-01T08:34:13.562Z</time></trkpt><trkpt lat="39.7852533" lon="8.864235"><ele>201.0</ele><time>2026-05-01T08:34:14.588Z</time></trkpt><trkpt lat="39.7853533" lon="8.8642417"><ele>201.16666666666666</ele><time>2026-05-01T08:34:15.565Z</time></trkpt><trkpt lat="39.7854517" lon="8.8642683"><ele>201.33333333333331</ele><time>2026-05-01T08:34:16.564Z</time></trkpt><trkpt lat="39.7855233" lon="8.864295"><ele>201.5</ele><time>2026-05-01T08:34:17.56Z</time></trkpt><trkpt lat="39.78559" lon="8.86433"><ele>201.66666666666666</ele><time>2026-05-01T08:34:18.561Z</time></trkpt><trkpt lat="39.7856333" lon="8.86439"><ele>201.83333333333331</ele><time>2026-05-01T08:34:19.562Z</time></trkpt><trkpt lat="39.785635" lon="8.8644967"><ele>202.0</ele><time>2026-05-01T08:34:21.561Z</time></trkpt><trkpt lat="39.78558" lon="8.8645867"><ele>201.99999999999997</ele><time>2026-05-01T08:34:22.563Z</time></trkpt><trkpt lat="39.7855417" lon="8.86467"><ele>202.0</ele><time>2026-05-01T08:34:23.565Z</time></trkpt><trkpt lat="39.7854967" lon="8.8647567"><ele>202.0</ele><time>2026-05-01T08:34:24.563Z</time></trkpt><trkpt lat="39.7854417" lon="8.8648483"><ele>202.0</ele><time>2026-05-01T08:34:25.564Z</time></trkpt><trkpt lat="39.7853967" lon="8.8649317"><ele>201.99999999999997</ele><time>2026-05-01T08:34:26.585Z</time></trkpt><trkpt lat="39.7853417" lon="8.865015"><ele>202.0</ele><time>2026-05-01T08:34:27.565Z</time></trkpt><trkpt lat="39.7852883" lon="8.865095"><ele>200.6</ele><time>2026-05-01T08:34:28.566Z</time></trkpt><trkpt lat="39.7852367" lon="8.8651817"><ele>199.2</ele><time>2026-05-01T08:34:29.566Z</time></trkpt><trkpt lat="39.7851867" lon="8.8652733"><ele>197.8</ele><time>2026-05-01T08:34:30.562Z</time></trkpt><trkpt lat="39.7851383" lon="8.8653733"><ele>196.4</ele><time>2026-05-01T08:34:31.563Z</time></trkpt><trkpt lat="39.7850867" lon="8.86548"><ele>195.0</ele><time>2026-05-01T08:34:32.56Z</time></trkpt><trkpt lat="39.7850433" lon="8.8655917"><ele>194.25</ele><time>2026-05-01T08:34:33.559Z</time></trkpt><trkpt lat="39.7850033" lon="8.86572"><ele>193.5</ele><time>2026-05-01T08:34:34.566Z</time></trkpt><trkpt lat="39.7849817" lon="8.86587"><ele>192.75</ele><time>2026-05-01T08:34:35.565Z</time></trkpt><trkpt lat="39.7849667" lon="8.8660233"><ele>192.0</ele><time>2026-05-01T08:34:36.562Z</time></trkpt><trkpt lat="39.7849467" lon="8.8661767"><ele>191.6</ele><time>2026-05-01T08:34:37.567Z</time></trkpt><trkpt lat="39.78493" lon="8.866325"><ele>191.2</ele><time>2026-05-01T08:34:38.596Z</time></trkpt><trkpt lat="39.784905" lon="8.86646"><ele>190.8</ele><time>2026-05-01T08:34:39.561Z</time></trkpt><trkpt lat="39.7848733" lon="8.8665883"><ele>190.4</ele><time>2026-05-01T08:34:40.56Z</time></trkpt><trkpt lat="39.7848317" lon="8.8667133"><ele>190.0</ele><time>2026-05-01T08:34:41.564Z</time></trkpt><trkpt lat="39.784775" lon="8.8668383"><ele>192.5</ele><time>2026-05-01T08:34:42.565Z</time></trkpt><trkpt lat="39.7847083" lon="8.8669583"><ele>195.0</ele><time>2026-05-01T08:34:43.566Z</time></trkpt><trkpt lat="39.78461" lon="8.8670833"><ele>197.5</ele><time>2026-05-01T08:34:44.594Z</time></trkpt><trkpt lat="39.7844967" lon="8.8671933"><ele>200.0</ele><time>2026-05-01T08:34:45.566Z</time></trkpt><trkpt lat="39.7843917" lon="8.8673283"><ele>199.25</ele><time>2026-05-01T08:34:46.564Z</time></trkpt><trkpt lat="39.7843067" lon="8.8674583"><ele>198.5</ele><time>2026-05-01T08:34:47.566Z</time></trkpt><trkpt lat="39.78423" lon="8.8675817"><ele>197.75</ele><time>2026-05-01T08:34:48.563Z</time></trkpt><trkpt lat="39.7841583" lon="8.8676933"><ele>197.0</ele><time>2026-05-01T08:34:49.566Z</time></trkpt><trkpt lat="39.7840883" lon="8.8678083"><ele>197.0</ele><time>2026-05-01T08:34:50.589Z</time></trkpt><trkpt lat="39.784005" lon="8.8679"><ele>197.0</ele><time>2026-05-01T08:34:51.563Z</time></trkpt><trkpt lat="39.7839417" lon="8.8680167"><ele>197.0</ele><time>2026-05-01T08:34:52.559Z</time></trkpt><trkpt lat="39.7838533" lon="8.868115"><ele>197.0</ele><time>2026-05-01T08:34:53.569Z</time></trkpt><trkpt lat="39.7837683" lon="8.8682217"><ele>197.0</ele><time>2026-05-01T08:34:54.56Z</time></trkpt><trkpt lat="39.7836833" lon="8.8683033"><ele>197.0</ele><time>2026-05-01T08:34:55.561Z</time></trkpt><trkpt lat="39.7836033" lon="8.8684233"><ele>197.0</ele><time>2026-05-01T08:34:56.627Z</time></trkpt><trkpt lat="39.783505" lon="8.8685183"><ele>197.0</ele><time>2026-05-01T08:34:57.565Z</time></trkpt><trkpt lat="39.7834233" lon="8.8686383"><ele>195.0</ele><time>2026-05-01T08:34:58.563Z</time></trkpt><trkpt lat="39.7833183" lon="8.8687617"><ele>193.0</ele><time>2026-05-01T08:34:59.561Z</time></trkpt><trkpt lat="39.7832183" lon="8.8688767"><ele>191.0</ele><time>2026-05-01T08:35:00.564Z</time></trkpt><trkpt lat="39.78312" lon="8.8689833"><ele>189.0</ele><time>2026-05-01T08:35:01.563Z</time></trkpt><trkpt lat="39.7830183" lon="8.8690917"><ele>189.0</ele><time>2026-05-01T08:35:02.56Z</time></trkpt><trkpt lat="39.7829167" lon="8.8691933"><ele>189.0</ele><time>2026-05-01T08:35:03.563Z</time></trkpt><trkpt lat="39.78281" lon="8.8692867"><ele>189.0</ele><time>2026-05-01T08:35:04.563Z</time></trkpt><trkpt lat="39.7827017" lon="8.86938"><ele>189.0</ele><time>2026-05-01T08:35:05.559Z</time></trkpt><trkpt lat="39.78259" lon="8.8694667"><ele>190.5</ele><time>2026-05-01T08:35:06.565Z</time></trkpt><trkpt lat="39.7824717" lon="8.8695483"><ele>192.0</ele><time>2026-05-01T08:35:07.566Z</time></trkpt><trkpt lat="39.78235" lon="8.8696367"><ele>193.5</ele><time>2026-05-01T08:35:08.591Z</time></trkpt><trkpt lat="39.782235" lon="8.8697183"><ele>195.0</ele><time>2026-05-01T08:35:09.558Z</time></trkpt><trkpt lat="39.78212" lon="8.869805"><ele>195.0</ele><time>2026-05-01T08:35:10.564Z</time></trkpt><trkpt lat="39.78201" lon="8.8699067"><ele>195.0</ele><time>2026-05-01T08:35:11.563Z</time></trkpt><trkpt lat="39.7819017" lon="8.870015"><ele>195.0</ele><time>2026-05-01T08:35:12.564Z</time></trkpt><trkpt lat="39.7818033" lon="8.870115"><ele>195.0</ele><time>2026-05-01T08:35:13.562Z</time></trkpt><trkpt lat="39.7817083" lon="8.8701967"><ele>194.4</ele><time>2026-05-01T08:35:14.596Z</time></trkpt><trkpt lat="39.7816083" lon="8.87027"><ele>193.8</ele><time>2026-05-01T08:35:15.563Z</time></trkpt><trkpt lat="39.7815067" lon="8.8703383"><ele>193.2</ele><time>2026-05-01T08:35:16.56Z</time></trkpt><trkpt lat="39.7814117" lon="8.8704067"><ele>192.6</ele><time>2026-05-01T08:35:17.564Z</time></trkpt><trkpt lat="39.78133" lon="8.87047"><ele>192.0</ele><time>2026-05-01T08:35:18.566Z</time></trkpt><trkpt lat="39.7812467" lon="8.8705517"><ele>192.0</ele><time>2026-05-01T08:35:19.565Z</time></trkpt><trkpt lat="39.78116" lon="8.8706583"><ele>192.0</ele><time>2026-05-01T08:35:20.593Z</time></trkpt><trkpt lat="39.7810783" lon="8.8707717"><ele>192.0</ele><time>2026-05-01T08:35:21.56Z</time></trkpt><trkpt lat="39.7809917" lon="8.870895"><ele>192.0</ele><time>2026-05-01T08:35:22.563Z</time></trkpt><trkpt lat="39.7809033" lon="8.871025"><ele>191.25</ele><time>2026-05-01T08:35:23.563Z</time></trkpt><trkpt lat="39.7808233" lon="8.8711633"><ele>190.5</ele><time>2026-05-01T08:35:24.563Z</time></trkpt><trkpt lat="39.7807367" lon="8.8712867"><ele>189.75</ele><time>2026-05-01T08:35:25.564Z</time></trkpt><trkpt lat="39.7806367" lon="8.87143"><ele>189.0</ele><time>2026-05-01T08:35:26.615Z</time></trkpt><trkpt lat="39.78054" lon="8.871555"><ele>189.0</ele><time>2026-05-01T08:35:27.561Z</time></trkpt><trkpt lat="39.7804467" lon="8.8716683"><ele>189.0</ele><time>2026-05-01T08:35:28.561Z</time></trkpt><trkpt lat="39.7803433" lon="8.87177"><ele>189.0</ele><time>2026-05-01T08:35:29.565Z</time></trkpt><trkpt lat="39.7802433" lon="8.8718567"><ele>189.0</ele><time>2026-05-01T08:35:30.564Z</time></trkpt><trkpt lat="39.7801417" lon="8.87193"><ele>188.79999999999998</ele><time>2026-05-01T08:35:31.563Z</time></trkpt><trkpt lat="39.7800467" lon="8.872005"><ele>188.6</ele><time>2026-05-01T08:35:32.617Z</time></trkpt><trkpt lat="39.779945" lon="8.8720617"><ele>188.4</ele><time>2026-05-01T08:35:33.565Z</time></trkpt><trkpt lat="39.779845" lon="8.87211"><ele>188.2</ele><time>2026-05-01T08:35:34.561Z</time></trkpt><trkpt lat="39.7797367" lon="8.8721183"><ele>188.0</ele><time>2026-05-01T08:35:35.56Z</time></trkpt><trkpt lat="39.7796417" lon="8.872125"><ele>188.0</ele><time>2026-05-01T08:35:36.559Z</time></trkpt><trkpt lat="39.7795617" lon="8.8721317"><ele>188.0</ele><time>2026-05-01T08:35:37.566Z</time></trkpt><trkpt lat="39.7794733" lon="8.87213"><ele>188.0</ele><time>2026-05-01T08:35:38.593Z</time></trkpt><trkpt lat="39.7793783" lon="8.8721617"><ele>188.0</ele><time>2026-05-01T08:35:40.56Z</time></trkpt><trkpt lat="39.779305" lon="8.872145"><ele>188.0</ele><time>2026-05-01T08:35:42.562Z</time></trkpt><trkpt lat="39.779265" lon="8.87208"><ele>188.0</ele><time>2026-05-01T08:35:46.563Z</time></trkpt><trkpt lat="39.7792" lon="8.8720717"><ele>188.33333333333331</ele><time>2026-05-01T08:35:54.564Z</time></trkpt><trkpt lat="39.7791083" lon="8.8720267"><ele>188.66666666666666</ele><time>2026-05-01T08:35:57.563Z</time></trkpt><trkpt lat="39.7790033" lon="8.871975"><ele>189.0</ele><time>2026-05-01T08:35:59.562Z</time></trkpt><trkpt lat="39.7789417" lon="8.8719367"><ele>189.33333333333334</ele><time>2026-05-01T08:36:00.559Z</time></trkpt><trkpt lat="39.7788783" lon="8.871905"><ele>189.66666666666669</ele><time>2026-05-01T08:36:01.562Z</time></trkpt><trkpt lat="39.7788117" lon="8.8718883"><ele>190.0</ele><time>2026-05-01T08:36:02.585Z</time></trkpt><trkpt lat="39.778735" lon="8.8718833"><ele>190.0</ele><time>2026-05-01T08:36:03.564Z</time></trkpt><trkpt lat="39.7786583" lon="8.8718967"><ele>190.0</ele><time>2026-05-01T08:36:04.562Z</time></trkpt><trkpt lat="39.7785817" lon="8.871935"><ele>190.0</ele><time>2026-05-01T08:36:05.562Z</time></trkpt><trkpt lat="39.7784683" lon="8.8720417"><ele>190.0</ele><time>2026-05-01T08:36:07.562Z</time></trkpt><trkpt lat="39.7784" lon="8.8721283"><ele>190.0</ele><time>2026-05-01T08:36:08.59Z</time></trkpt><trkpt lat="39.778335" lon="8.8722267"><ele>191.25</ele><time>2026-05-01T08:36:09.561Z</time></trkpt><trkpt lat="39.7782583" lon="8.8723383"><ele>192.5</ele><time>2026-05-01T08:36:10.565Z</time></trkpt><trkpt lat="39.7781833" lon="8.8724567"><ele>193.75</ele><time>2026-05-01T08:36:11.562Z</time></trkpt><trkpt lat="39.77811" lon="8.8725833"><ele>195.0</ele><time>2026-05-01T08:36:12.563Z</time></trkpt><trkpt lat="39.778025" lon="8.872695"><ele>195.25</ele><time>2026-05-01T08:36:13.564Z</time></trkpt><trkpt lat="39.7779367" lon="8.8728383"><ele>195.5</ele><time>2026-05-01T08:36:14.591Z</time></trkpt><trkpt lat="39.777845" lon="8.8729717"><ele>195.75</ele><time>2026-05-01T08:36:15.562Z</time></trkpt><trkpt lat="39.77776" lon="8.8731"><ele>196.0</ele><time>2026-05-01T08:36:16.563Z</time></trkpt><trkpt lat="39.7776783" lon="8.87322"><ele>196.0</ele><time>2026-05-01T08:36:17.56Z</time></trkpt><trkpt lat="39.7776067" lon="8.873305"><ele>196.0</ele><time>2026-05-01T08:36:18.558Z</time></trkpt><trkpt lat="39.7775283" lon="8.8733817"><ele>196.0</ele><time>2026-05-01T08:36:19.563Z</time></trkpt><trkpt lat="39.777445" lon="8.8733967"><ele>196.0</ele><time>2026-05-01T08:36:20.594Z</time></trkpt><trkpt lat="39.7773233" lon="8.8734083"><ele>196.0</ele><time>2026-05-01T08:36:21.563Z</time></trkpt><trkpt lat="39.7772167" lon="8.8733917"><ele>196.0</ele><time>2026-05-01T08:36:22.564Z</time></trkpt><trkpt lat="39.77708" lon="8.873385"><ele>196.0</ele><time>2026-05-01T08:36:23.562Z</time></trkpt><trkpt lat="39.776995" lon="8.8733983"><ele>196.0</ele><time>2026-05-01T08:36:24.564Z</time></trkpt><trkpt lat="39.7769067" lon="8.8734133"><ele>196.0</ele><time>2026-05-01T08:36:25.563Z</time></trkpt><trkpt lat="39.7768117" lon="8.8734483"><ele>196.0</ele><time>2026-05-01T08:36:26.615Z</time></trkpt><trkpt lat="39.7767233" lon="8.8735217"><ele>198.75</ele><time>2026-05-01T08:36:27.564Z</time></trkpt><trkpt lat="39.7766133" lon="8.8735667"><ele>201.5</ele><time>2026-05-01T08:36:28.563Z</time></trkpt><trkpt lat="39.7765183" lon="8.8735883"><ele>204.25</ele><time>2026-05-01T08:36:29.564Z</time></trkpt><trkpt lat="39.7764033" lon="8.8735783"><ele>207.0</ele><time>2026-05-01T08:36:30.564Z</time></trkpt><trkpt lat="39.77628" lon="8.8735867"><ele>207.0</ele><time>2026-05-01T08:36:31.565Z</time></trkpt><trkpt lat="39.7761617" lon="8.8735783"><ele>207.0</ele><time>2026-05-01T08:36:32.615Z</time></trkpt><trkpt lat="39.7760117" lon="8.8735733"><ele>207.0</ele><time>2026-05-01T08:36:33.559Z</time></trkpt><trkpt lat="39.7758733" lon="8.873515"><ele>207.0</ele><time>2026-05-01T08:36:34.56Z</time></trkpt><trkpt lat="39.7757483" lon="8.873475"><ele>205.0</ele><time>2026-05-01T08:36:35.558Z</time></trkpt><trkpt lat="39.7756233" lon="8.8734383"><ele>203.0</ele><time>2026-05-01T08:36:36.561Z</time></trkpt><trkpt lat="39.77551" lon="8.8734067"><ele>201.0</ele><time>2026-05-01T08:36:37.564Z</time></trkpt><trkpt lat="39.77539" lon="8.8733817"><ele>199.0</ele><time>2026-05-01T08:36:38.593Z</time></trkpt><trkpt lat="39.7752433" lon="8.8733517"><ele>200.25</ele><time>2026-05-01T08:36:39.564Z</time></trkpt><trkpt lat="39.7751217" lon="8.8733467"><ele>201.5</ele><time>2026-05-01T08:36:40.561Z</time></trkpt><trkpt lat="39.7750017" lon="8.8733333"><ele>202.75</ele><time>2026-05-01T08:36:41.565Z</time></trkpt><trkpt lat="39.77489" lon="8.8733133"><ele>204.0</ele><time>2026-05-01T08:36:42.564Z</time></trkpt><trkpt lat="39.7747867" lon="8.87328"><ele>204.0</ele><time>2026-05-01T08:36:43.564Z</time></trkpt><trkpt lat="39.7746817" lon="8.8732417"><ele>204.0</ele><time>2026-05-01T08:36:44.588Z</time></trkpt><trkpt lat="39.7745883" lon="8.8732017"><ele>204.0</ele><time>2026-05-01T08:36:45.566Z</time></trkpt><trkpt lat="39.7744883" lon="8.87317"><ele>204.0</ele><time>2026-05-01T08:36:46.564Z</time></trkpt><trkpt lat="39.77441" lon="8.8731567"><ele>204.0</ele><time>2026-05-01T08:36:47.564Z</time></trkpt><trkpt lat="39.774345" lon="8.8731683"><ele>204.66666666666666</ele><time>2026-05-01T08:36:48.565Z</time></trkpt><trkpt lat="39.774275" lon="8.873185"><ele>205.33333333333331</ele><time>2026-05-01T08:36:49.561Z</time></trkpt><trkpt lat="39.7741967" lon="8.8732117"><ele>206.0</ele><time>2026-05-01T08:36:50.593Z</time></trkpt><trkpt lat="39.7741217" lon="8.8732483"><ele>206.66666666666666</ele><time>2026-05-01T08:36:51.563Z</time></trkpt><trkpt lat="39.774055" lon="8.873285"><ele>207.33333333333331</ele><time>2026-05-01T08:36:52.565Z</time></trkpt><trkpt lat="39.77399" lon="8.8733283"><ele>208.0</ele><time>2026-05-01T08:36:53.565Z</time></trkpt><trkpt lat="39.7739133" lon="8.8733717"><ele>208.0</ele><time>2026-05-01T08:36:54.558Z</time></trkpt><trkpt lat="39.773835" lon="8.8734067"><ele>208.0</ele><time>2026-05-01T08:36:55.565Z</time></trkpt><trkpt lat="39.7737617" lon="8.8734533"><ele>208.0</ele><time>2026-05-01T08:36:56.592Z</time></trkpt><trkpt lat="39.7736617" lon="8.8735117"><ele>208.0</ele><time>2026-05-01T08:36:57.559Z</time></trkpt><trkpt lat="39.7735667" lon="8.8735783"><ele>208.0</ele><time>2026-05-01T08:36:58.56Z</time></trkpt><trkpt lat="39.7734667" lon="8.873655"><ele>207.75</ele><time>2026-05-01T08:36:59.563Z</time></trkpt><trkpt lat="39.773365" lon="8.873725"><ele>207.5</ele><time>2026-05-01T08:37:00.561Z</time></trkpt><trkpt lat="39.7732683" lon="8.87383"><ele>207.25</ele><time>2026-05-01T08:37:01.56Z</time></trkpt><trkpt lat="39.77316" lon="8.873935"><ele>207.0</ele><time>2026-05-01T08:37:02.593Z</time></trkpt><trkpt lat="39.77304" lon="8.8740667"><ele>207.0</ele><time>2026-05-01T08:37:03.56Z</time></trkpt><trkpt lat="39.772925" lon="8.874195"><ele>207.0</ele><time>2026-05-01T08:37:04.561Z</time></trkpt><trkpt lat="39.7728133" lon="8.8743167"><ele>207.0</ele><time>2026-05-01T08:37:05.564Z</time></trkpt><trkpt lat="39.7727067" lon="8.87444"><ele>207.0</ele><time>2026-05-01T08:37:06.563Z</time></trkpt><trkpt lat="39.7725983" lon="8.8745617"><ele>206.5</ele><time>2026-05-01T08:37:07.561Z</time></trkpt><trkpt lat="39.7724967" lon="8.8746867"><ele>206.0</ele><time>2026-05-01T08:37:08.591Z</time></trkpt><trkpt lat="39.7723917" lon="8.8748"><ele>205.5</ele><time>2026-05-01T08:37:09.558Z</time></trkpt><trkpt lat="39.772285" lon="8.8749"><ele>205.0</ele><time>2026-05-01T08:37:10.563Z</time></trkpt><trkpt lat="39.7721817" lon="8.8749817"><ele>205.0</ele><time>2026-05-01T08:37:11.563Z</time></trkpt><trkpt lat="39.7720767" lon="8.8750333"><ele>205.0</ele><time>2026-05-01T08:37:12.562Z</time></trkpt><trkpt lat="39.7719683" lon="8.87509"><ele>205.0</ele><time>2026-05-01T08:37:13.562Z</time></trkpt><trkpt lat="39.7718467" lon="8.8751483"><ele>205.0</ele><time>2026-05-01T08:37:14.595Z</time></trkpt><trkpt lat="39.7717283" lon="8.8752033"><ele>205.25</ele><time>2026-05-01T08:37:15.562Z</time></trkpt><trkpt lat="39.77162" lon="8.8752717"><ele>205.5</ele><time>2026-05-01T08:37:16.561Z</time></trkpt><trkpt lat="39.7715017" lon="8.8753267"><ele>205.75</ele><time>2026-05-01T08:37:17.562Z</time></trkpt><trkpt lat="39.7713783" lon="8.875395"><ele>206.0</ele><time>2026-05-01T08:37:18.563Z</time></trkpt><trkpt lat="39.7712683" lon="8.87546"><ele>206.0</ele><time>2026-05-01T08:37:19.56Z</time></trkpt><trkpt lat="39.7711533" lon="8.8755417"><ele>206.0</ele><time>2026-05-01T08:37:20.59Z</time></trkpt><trkpt lat="39.7710333" lon="8.8756183"><ele>206.0</ele><time>2026-05-01T08:37:21.56Z</time></trkpt><trkpt lat="39.7709183" lon="8.8756833"><ele>206.0</ele><time>2026-05-01T08:37:22.561Z</time></trkpt><trkpt lat="39.7708067" lon="8.87573"><ele>206.20000000000002</ele><time>2026-05-01T08:37:23.563Z</time></trkpt><trkpt lat="39.7706917" lon="8.8757667"><ele>206.4</ele><time>2026-05-01T08:37:24.562Z</time></trkpt><trkpt lat="39.7705783" lon="8.8757867"><ele>206.6</ele><time>2026-05-01T08:37:25.564Z</time></trkpt><trkpt lat="39.770465" lon="8.8757783"><ele>206.8</ele><time>2026-05-01T08:37:26.63Z</time></trkpt><trkpt lat="39.7703667" lon="8.8758067"><ele>207.0</ele><time>2026-05-01T08:37:27.562Z</time></trkpt><trkpt lat="39.77027" lon="8.87585"><ele>207.39999999999998</ele><time>2026-05-01T08:37:28.566Z</time></trkpt><trkpt lat="39.770175" lon="8.8759083"><ele>207.79999999999998</ele><time>2026-05-01T08:37:29.561Z</time></trkpt><trkpt lat="39.770105" lon="8.8759667"><ele>208.2</ele><time>2026-05-01T08:37:30.557Z</time></trkpt><trkpt lat="39.7700133" lon="8.8760683"><ele>208.6</ele><time>2026-05-01T08:37:31.565Z</time></trkpt><trkpt lat="39.7699417" lon="8.8761883"><ele>209.0</ele><time>2026-05-01T08:37:32.613Z</time></trkpt><trkpt lat="39.7698533" lon="8.87631"><ele>210.39999999999998</ele><time>2026-05-01T08:37:33.561Z</time></trkpt><trkpt lat="39.7697517" lon="8.8764233"><ele>211.8</ele><time>2026-05-01T08:37:34.56Z</time></trkpt><trkpt lat="39.7696533" lon="8.87651"><ele>213.20000000000002</ele><time>2026-05-01T08:37:35.56Z</time></trkpt><trkpt lat="39.76957" lon="8.876565"><ele>214.60000000000002</ele><time>2026-05-01T08:37:36.56Z</time></trkpt><trkpt lat="39.7694917" lon="8.8766083"><ele>216.0</ele><time>2026-05-01T08:37:37.559Z</time></trkpt><trkpt lat="39.7694217" lon="8.8766367"><ele>216.0</ele><time>2026-05-01T08:37:38.59Z</time></trkpt><trkpt lat="39.7693167" lon="8.8767017"><ele>216.00000000000003</ele><time>2026-05-01T08:37:40.563Z</time></trkpt><trkpt lat="39.7692433" lon="8.8767717"><ele>216.00000000000003</ele><time>2026-05-01T08:37:42.56Z</time></trkpt><trkpt lat="39.7691717" lon="8.8768283"><ele>216.0</ele><time>2026-05-01T08:37:44.594Z</time></trkpt><trkpt lat="39.7690817" lon="8.8768867"><ele>216.0</ele><time>2026-05-01T08:37:46.56Z</time></trkpt><trkpt lat="39.7689667" lon="8.876945"><ele>217.33333333333334</ele><time>2026-05-01T08:37:48.564Z</time></trkpt><trkpt lat="39.7689017" lon="8.876985"><ele>218.66666666666669</ele><time>2026-05-01T08:37:49.563Z</time></trkpt><trkpt lat="39.76883" lon="8.8770333"><ele>220.0</ele><time>2026-05-01T08:37:50.59Z</time></trkpt><trkpt lat="39.76875" lon="8.877085"><ele>221.33333333333334</ele><time>2026-05-01T08:37:51.561Z</time></trkpt><trkpt lat="39.7686783" lon="8.8771583"><ele>222.66666666666669</ele><time>2026-05-01T08:37:52.564Z</time></trkpt><trkpt lat="39.7686017" lon="8.8772317"><ele>224.0</ele><time>2026-05-01T08:37:53.562Z</time></trkpt><trkpt lat="39.7684917" lon="8.8772917"><ele>224.0</ele><time>2026-05-01T08:37:54.564Z</time></trkpt><trkpt lat="39.7683867" lon="8.87735"><ele>224.0</ele><time>2026-05-01T08:37:55.56Z</time></trkpt><trkpt lat="39.76824" lon="8.8774017"><ele>224.0</ele><time>2026-05-01T08:37:56.631Z</time></trkpt><trkpt lat="39.7681133" lon="8.87744"><ele>224.0</ele><time>2026-05-01T08:37:57.561Z</time></trkpt><trkpt lat="39.768015" lon="8.8774783"><ele>224.0</ele><time>2026-05-01T08:37:58.567Z</time></trkpt><trkpt lat="39.7679117" lon="8.8774983"><ele>223.99999999999997</ele><time>2026-05-01T08:37:59.56Z</time></trkpt><trkpt lat="39.7678117" lon="8.877525"><ele>223.99999999999997</ele><time>2026-05-01T08:38:00.563Z</time></trkpt><trkpt lat="39.7677267" lon="8.8775467"><ele>224.0</ele><time>2026-05-01T08:38:01.565Z</time></trkpt><trkpt lat="39.7676383" lon="8.8775883"><ele>224.0</ele><time>2026-05-01T08:38:02.613Z</time></trkpt><trkpt lat="39.7675767" lon="8.87763"><ele>224.66666666666669</ele><time>2026-05-01T08:38:03.56Z</time></trkpt><trkpt lat="39.767515" lon="8.8776833"><ele>225.33333333333334</ele><time>2026-05-01T08:38:04.563Z</time></trkpt><trkpt lat="39.7674483" lon="8.87776"><ele>226.0</ele><time>2026-05-01T08:38:05.564Z</time></trkpt><trkpt lat="39.7674017" lon="8.87785"><ele>226.66666666666669</ele><time>2026-05-01T08:38:06.561Z</time></trkpt><trkpt lat="39.767355" lon="8.8779517"><ele>227.33333333333334</ele><time>2026-05-01T08:38:07.564Z</time></trkpt><trkpt lat="39.7673117" lon="8.878065"><ele>228.0</ele><time>2026-05-01T08:38:08.597Z</time></trkpt><trkpt lat="39.7672683" lon="8.8781833"><ele>228.0</ele><time>2026-05-01T08:38:09.559Z</time></trkpt><trkpt lat="39.7672167" lon="8.8783067"><ele>228.0</ele><time>2026-05-01T08:38:10.563Z</time></trkpt><trkpt lat="39.7671683" lon="8.8784433"><ele>228.0</ele><time>2026-05-01T08:38:11.557Z</time></trkpt><trkpt lat="39.7671267" lon="8.87858"><ele>228.0</ele><time>2026-05-01T08:38:12.559Z</time></trkpt><trkpt lat="39.7670883" lon="8.87871"><ele>228.0</ele><time>2026-05-01T08:38:13.563Z</time></trkpt><trkpt lat="39.7670583" lon="8.8788383"><ele>229.16666666666666</ele><time>2026-05-01T08:38:14.6Z</time></trkpt><trkpt lat="39.7670317" lon="8.87895"><ele>230.33333333333331</ele><time>2026-05-01T08:38:15.565Z</time></trkpt><trkpt lat="39.76701" lon="8.8790433"><ele>231.5</ele><time>2026-05-01T08:38:16.567Z</time></trkpt><trkpt lat="39.76697" lon="8.8791533"><ele>232.66666666666666</ele><time>2026-05-01T08:38:18.562Z</time></trkpt><trkpt lat="39.76695" lon="8.8792467"><ele>233.83333333333331</ele><time>2026-05-01T08:38:24.564Z</time></trkpt><trkpt lat="39.7669917" lon="8.8793267"><ele>235.0</ele><time>2026-05-01T08:38:26.589Z</time></trkpt><trkpt lat="39.767" lon="8.8794233"><ele>234.6</ele><time>2026-05-01T08:38:28.565Z</time></trkpt><trkpt lat="39.7669683" lon="8.8795433"><ele>234.2</ele><time>2026-05-01T08:38:30.563Z</time></trkpt><trkpt lat="39.7669117" lon="8.8796983"><ele>233.8</ele><time>2026-05-01T08:38:32.614Z</time></trkpt><trkpt lat="39.7668717" lon="8.8797833"><ele>233.4</ele><time>2026-05-01T08:38:33.559Z</time></trkpt><trkpt lat="39.766825" lon="8.8798667"><ele>233.0</ele><time>2026-05-01T08:38:34.561Z</time></trkpt><trkpt lat="39.766765" lon="8.8799483"><ele>233.00000000000003</ele><time>2026-05-01T08:38:35.559Z</time></trkpt><trkpt lat="39.7667017" lon="8.8800233"><ele>233.0</ele><time>2026-05-01T08:38:36.563Z</time></trkpt><trkpt lat="39.766635" lon="8.880085"><ele>233.0</ele><time>2026-05-01T08:38:37.564Z</time></trkpt><trkpt lat="39.76657" lon="8.8801417"><ele>233.0</ele><time>2026-05-01T08:38:38.6Z</time></trkpt><trkpt lat="39.766505" lon="8.880205"><ele>233.00000000000003</ele><time>2026-05-01T08:38:39.561Z</time></trkpt><trkpt lat="39.7664417" lon="8.8802833"><ele>233.0</ele><time>2026-05-01T08:38:40.563Z</time></trkpt><trkpt lat="39.7663883" lon="8.88037"><ele>233.0</ele><time>2026-05-01T08:38:41.564Z</time></trkpt><trkpt lat="39.7663483" lon="8.880465"><ele>233.0</ele><time>2026-05-01T08:38:42.563Z</time></trkpt><trkpt lat="39.766315" lon="8.880575"><ele>233.0</ele><time>2026-05-01T08:38:43.562Z</time></trkpt><trkpt lat="39.766285" lon="8.8806967"><ele>233.0</ele><time>2026-05-01T08:38:44.604Z</time></trkpt><trkpt lat="39.7662517" lon="8.8808267"><ele>233.0</ele><time>2026-05-01T08:38:45.558Z</time></trkpt><trkpt lat="39.7662133" lon="8.8809533"><ele>232.5</ele><time>2026-05-01T08:38:46.56Z</time></trkpt><trkpt lat="39.7661717" lon="8.881085"><ele>232.0</ele><time>2026-05-01T08:38:47.562Z</time></trkpt><trkpt lat="39.7661333" lon="8.8812417"><ele>231.5</ele><time>2026-05-01T08:38:48.559Z</time></trkpt><trkpt lat="39.7660967" lon="8.881405"><ele>231.0</ele><time>2026-05-01T08:38:49.564Z</time></trkpt><trkpt lat="39.7660467" lon="8.8815767"><ele>229.5</ele><time>2026-05-01T08:38:50.602Z</time></trkpt><trkpt lat="39.765995" lon="8.8817317"><ele>228.0</ele><time>2026-05-01T08:38:51.561Z</time></trkpt><trkpt lat="39.7659583" lon="8.8819217"><ele>226.5</ele><time>2026-05-01T08:38:52.564Z</time></trkpt><trkpt lat="39.7659167" lon="8.882065"><ele>225.0</ele><time>2026-05-01T08:38:53.565Z</time></trkpt><trkpt lat="39.7658667" lon="8.8821933"><ele>225.0</ele><time>2026-05-01T08:38:54.562Z</time></trkpt><trkpt lat="39.7658083" lon="8.8823233"><ele>225.0</ele><time>2026-05-01T08:38:55.567Z</time></trkpt><trkpt lat="39.76576" lon="8.88244"><ele>225.0</ele><time>2026-05-01T08:38:56.63Z</time></trkpt><trkpt lat="39.7657233" lon="8.8825567"><ele>225.0</ele><time>2026-05-01T08:38:57.559Z</time></trkpt><trkpt lat="39.7656733" lon="8.8826833"><ele>225.0</ele><time>2026-05-01T08:38:58.566Z</time></trkpt><trkpt lat="39.76564" lon="8.8827917"><ele>225.0</ele><time>2026-05-01T08:38:59.566Z</time></trkpt><trkpt lat="39.7656083" lon="8.8829017"><ele>225.0</ele><time>2026-05-01T08:39:00.564Z</time></trkpt><trkpt lat="39.7655717" lon="8.8830733"><ele>225.0</ele><time>2026-05-01T08:39:02.617Z</time></trkpt><trkpt lat="39.76556" lon="8.8831833"><ele>225.0</ele><time>2026-05-01T08:39:03.56Z</time></trkpt><trkpt lat="39.7655483" lon="8.8833033"><ele>225.0</ele><time>2026-05-01T08:39:04.563Z</time></trkpt><trkpt lat="39.7655383" lon="8.88343"><ele>225.0</ele><time>2026-05-01T08:39:05.561Z</time></trkpt><trkpt lat="39.7655217" lon="8.8835617"><ele>225.0</ele><time>2026-05-01T08:39:06.558Z</time></trkpt><trkpt lat="39.765505" lon="8.8837083"><ele>225.0</ele><time>2026-05-01T08:39:07.56Z</time></trkpt><trkpt lat="39.7654833" lon="8.8838417"><ele>225.0</ele><time>2026-05-01T08:39:08.595Z</time></trkpt><trkpt lat="39.7654617" lon="8.8839767"><ele>225.0</ele><time>2026-05-01T08:39:09.559Z</time></trkpt><trkpt lat="39.7654533" lon="8.8841017"><ele>225.0</ele><time>2026-05-01T08:39:10.564Z</time></trkpt><trkpt lat="39.765465" lon="8.8842333"><ele>225.0</ele><time>2026-05-01T08:39:11.56Z</time></trkpt><trkpt lat="39.7654483" lon="8.8843317"><ele>225.0</ele><time>2026-05-01T08:39:12.564Z</time></trkpt><trkpt lat="39.7654283" lon="8.884425"><ele>225.0</ele><time>2026-05-01T08:39:13.564Z</time></trkpt><trkpt lat="39.7653983" lon="8.8845167"><ele>225.0</ele><time>2026-05-01T08:39:14.595Z</time></trkpt><trkpt lat="39.7653467" lon="8.8846117"><ele>225.0</ele><time>2026-05-01T08:39:15.563Z</time></trkpt><trkpt lat="39.7652867" lon="8.8846983"><ele>225.25</ele><time>2026-05-01T08:39:16.56Z</time></trkpt><trkpt lat="39.7652083" lon="8.8847867"><ele>225.5</ele><time>2026-05-01T08:39:17.56Z</time></trkpt><trkpt lat="39.765105" lon="8.8848917"><ele>225.75</ele><time>2026-05-01T08:39:18.56Z</time></trkpt><trkpt lat="39.7649983" lon="8.88501"><ele>226.0</ele><time>2026-05-01T08:39:19.563Z</time></trkpt><trkpt lat="39.7648867" lon="8.88512"><ele>224.75</ele><time>2026-05-01T08:39:20.596Z</time></trkpt><trkpt lat="39.7647683" lon="8.8852433"><ele>223.5</ele><time>2026-05-01T08:39:21.56Z</time></trkpt><trkpt lat="39.7646617" lon="8.8853633"><ele>222.25</ele><time>2026-05-01T08:39:22.563Z</time></trkpt><trkpt lat="39.7645567" lon="8.8855"><ele>221.0</ele><time>2026-05-01T08:39:23.565Z</time></trkpt><trkpt lat="39.7644667" lon="8.8856333"><ele>221.0</ele><time>2026-05-01T08:39:24.564Z</time></trkpt><trkpt lat="39.7643783" lon="8.8857717"><ele>221.0</ele><time>2026-05-01T08:39:25.56Z</time></trkpt><trkpt lat="39.7642767" lon="8.8859033"><ele>221.0</ele><time>2026-05-01T08:39:26.627Z</time></trkpt><trkpt lat="39.7641717" lon="8.8860083"><ele>221.0</ele><time>2026-05-01T08:39:27.567Z</time></trkpt><trkpt lat="39.76408" lon="8.8861017"><ele>222.25</ele><time>2026-05-01T08:39:28.562Z</time></trkpt><trkpt lat="39.76399" lon="8.88618"><ele>223.5</ele><time>2026-05-01T08:39:29.561Z</time></trkpt><trkpt lat="39.7638783" lon="8.8862317"><ele>224.75</ele><time>2026-05-01T08:39:30.558Z</time></trkpt><trkpt lat="39.7637633" lon="8.8863067"><ele>226.0</ele><time>2026-05-01T08:39:31.563Z</time></trkpt><trkpt lat="39.7636567" lon="8.8863733"><ele>226.0</ele><time>2026-05-01T08:39:32.617Z</time></trkpt><trkpt lat="39.7635767" lon="8.8864033"><ele>226.00000000000003</ele><time>2026-05-01T08:39:33.562Z</time></trkpt><trkpt lat="39.76348" lon="8.886435"><ele>226.00000000000003</ele><time>2026-05-01T08:39:34.563Z</time></trkpt><trkpt lat="39.763385" lon="8.8865"><ele>226.0</ele><time>2026-05-01T08:39:35.561Z</time></trkpt><trkpt lat="39.7632817" lon="8.886545"><ele>226.0</ele><time>2026-05-01T08:39:36.565Z</time></trkpt><trkpt lat="39.76318" lon="8.8866317"><ele>226.25</ele><time>2026-05-01T08:39:37.562Z</time></trkpt><trkpt lat="39.76309" lon="8.8867417"><ele>226.5</ele><time>2026-05-01T08:39:38.599Z</time></trkpt><trkpt lat="39.762995" lon="8.886865"><ele>226.75</ele><time>2026-05-01T08:39:39.561Z</time></trkpt><trkpt lat="39.7629" lon="8.8869917"><ele>227.0</ele><time>2026-05-01T08:39:40.56Z</time></trkpt><trkpt lat="39.762805" lon="8.88714"><ele>225.33333333333334</ele><time>2026-05-01T08:39:41.564Z</time></trkpt><trkpt lat="39.762685" lon="8.8873017"><ele>223.66666666666669</ele><time>2026-05-01T08:39:42.564Z</time></trkpt><trkpt lat="39.76258" lon="8.887445"><ele>222.0</ele><time>2026-05-01T08:39:43.564Z</time></trkpt><trkpt lat="39.76249" lon="8.887575"><ele>222.75</ele><time>2026-05-01T08:39:44.6Z</time></trkpt><trkpt lat="39.7623833" lon="8.88772"><ele>223.5</ele><time>2026-05-01T08:39:45.562Z</time></trkpt><trkpt lat="39.762295" lon="8.887845"><ele>224.25</ele><time>2026-05-01T08:39:46.559Z</time></trkpt><trkpt lat="39.762205" lon="8.887975"><ele>225.0</ele><time>2026-05-01T08:39:47.563Z</time></trkpt><trkpt lat="39.762125" lon="8.888095"><ele>225.0</ele><time>2026-05-01T08:39:48.562Z</time></trkpt><trkpt lat="39.7620583" lon="8.8882117"><ele>225.0</ele><time>2026-05-01T08:39:49.56Z</time></trkpt><trkpt lat="39.76197" lon="8.8883267"><ele>225.0</ele><time>2026-05-01T08:39:50.6Z</time></trkpt><trkpt lat="39.7618483" lon="8.8884017"><ele>225.0</ele><time>2026-05-01T08:39:51.563Z</time></trkpt><trkpt lat="39.7617317" lon="8.88851"><ele>225.0</ele><time>2026-05-01T08:39:52.559Z</time></trkpt><trkpt lat="39.7616267" lon="8.888635"><ele>225.0</ele><time>2026-05-01T08:39:53.565Z</time></trkpt><trkpt lat="39.7615183" lon="8.88875"><ele>225.0</ele><time>2026-05-01T08:39:54.564Z</time></trkpt><trkpt lat="39.761395" lon="8.8888817"><ele>225.0</ele><time>2026-05-01T08:39:55.56Z</time></trkpt><trkpt lat="39.7612817" lon="8.889005"><ele>225.0</ele><time>2026-05-01T08:39:56.627Z</time></trkpt><trkpt lat="39.761195" lon="8.8891117"><ele>225.0</ele><time>2026-05-01T08:39:57.558Z</time></trkpt><trkpt lat="39.7611133" lon="8.8892267"><ele>225.0</ele><time>2026-05-01T08:39:58.565Z</time></trkpt><trkpt lat="39.7610333" lon="8.889335"><ele>225.0</ele><time>2026-05-01T08:39:59.562Z</time></trkpt><trkpt lat="39.7609617" lon="8.8894317"><ele>225.0</ele><time>2026-05-01T08:40:00.564Z</time></trkpt><trkpt lat="39.7608933" lon="8.8895433"><ele>225.0</ele><time>2026-05-01T08:40:01.565Z</time></trkpt><trkpt lat="39.760825" lon="8.8896583"><ele>225.0</ele><time>2026-05-01T08:40:02.617Z</time></trkpt><trkpt lat="39.7607533" lon="8.8897833"><ele>225.0</ele><time>2026-05-01T08:40:03.563Z</time></trkpt><trkpt lat="39.7607083" lon="8.8899033"><ele>225.0</ele><time>2026-05-01T08:40:04.564Z</time></trkpt><trkpt lat="39.76064" lon="8.8900217"><ele>225.2</ele><time>2026-05-01T08:40:05.563Z</time></trkpt><trkpt lat="39.7605883" lon="8.8901617"><ele>225.4</ele><time>2026-05-01T08:40:06.564Z</time></trkpt><trkpt lat="39.76054" lon="8.8902917"><ele>225.60000000000002</ele><time>2026-05-01T08:40:07.564Z</time></trkpt><trkpt lat="39.760495" lon="8.8904183"><ele>225.8</ele><time>2026-05-01T08:40:08.602Z</time></trkpt><trkpt lat="39.7604783" lon="8.8905267"><ele>226.0</ele><time>2026-05-01T08:40:09.564Z</time></trkpt><trkpt lat="39.760485" lon="8.890635"><ele>226.0</ele><time>2026-05-01T08:40:10.561Z</time></trkpt><trkpt lat="39.7604633" lon="8.8907783"><ele>226.0</ele><time>2026-05-01T08:40:11.563Z</time></trkpt><trkpt lat="39.76044" lon="8.8909317"><ele>226.0</ele><time>2026-05-01T08:40:12.563Z</time></trkpt><trkpt lat="39.76041" lon="8.8910767"><ele>226.0</ele><time>2026-05-01T08:40:13.56Z</time></trkpt><trkpt lat="39.7603817" lon="8.8912217"><ele>226.20000000000002</ele><time>2026-05-01T08:40:14.601Z</time></trkpt><trkpt lat="39.7603483" lon="8.891365"><ele>226.40000000000003</ele><time>2026-05-01T08:40:15.562Z</time></trkpt><trkpt lat="39.7603167" lon="8.8915"><ele>226.6</ele><time>2026-05-01T08:40:16.558Z</time></trkpt><trkpt lat="39.7602867" lon="8.89164"><ele>226.8</ele><time>2026-05-01T08:40:17.563Z</time></trkpt><trkpt lat="39.7602483" lon="8.8917783"><ele>227.0</ele><time>2026-05-01T08:40:18.56Z</time></trkpt><trkpt lat="39.760205" lon="8.8918883"><ele>226.16666666666669</ele><time>2026-05-01T08:40:19.562Z</time></trkpt><trkpt lat="39.7601483" lon="8.8919867"><ele>225.33333333333334</ele><time>2026-05-01T08:40:20.598Z</time></trkpt><trkpt lat="39.760095" lon="8.8920717"><ele>224.5</ele><time>2026-05-01T08:40:21.559Z</time></trkpt><trkpt lat="39.7600317" lon="8.8921667"><ele>223.66666666666669</ele><time>2026-05-01T08:40:22.562Z</time></trkpt><trkpt lat="39.7599833" lon="8.8922433"><ele>222.83333333333334</ele><time>2026-05-01T08:40:23.565Z</time></trkpt><trkpt lat="39.7599433" lon="8.892335"><ele>222.0</ele><time>2026-05-01T08:40:24.565Z</time></trkpt><trkpt lat="39.7599133" lon="8.8924467"><ele>222.0</ele><time>2026-05-01T08:40:25.561Z</time></trkpt><trkpt lat="39.7598733" lon="8.8925833"><ele>222.0</ele><time>2026-05-01T08:40:26.631Z</time></trkpt><trkpt lat="39.7598433" lon="8.8927383"><ele>222.0</ele><time>2026-05-01T08:40:27.56Z</time></trkpt><trkpt lat="39.75983" lon="8.8929"><ele>222.0</ele><time>2026-05-01T08:40:28.564Z</time></trkpt><trkpt lat="39.7598333" lon="8.8930433"><ele>222.66666666666666</ele><time>2026-05-01T08:40:29.561Z</time></trkpt><trkpt lat="39.7598183" lon="8.8931833"><ele>223.33333333333331</ele><time>2026-05-01T08:40:30.564Z</time></trkpt><trkpt lat="39.7598017" lon="8.8933267"><ele>224.0</ele><time>2026-05-01T08:40:31.56Z</time></trkpt><trkpt lat="39.759785" lon="8.8934167"><ele>224.66666666666666</ele><time>2026-05-01T08:40:32.623Z</time></trkpt><trkpt lat="39.7597417" lon="8.8934983"><ele>225.33333333333331</ele><time>2026-05-01T08:40:33.56Z</time></trkpt><trkpt lat="39.7596917" lon="8.89358"><ele>226.0</ele><time>2026-05-01T08:40:34.561Z</time></trkpt><trkpt lat="39.759635" lon="8.8936617"><ele>227.20000000000002</ele><time>2026-05-01T08:40:35.563Z</time></trkpt><trkpt lat="39.75957" lon="8.89373"><ele>228.40000000000003</ele><time>2026-05-01T08:40:36.561Z</time></trkpt><trkpt lat="39.7594983" lon="8.8938017"><ele>229.6</ele><time>2026-05-01T08:40:37.563Z</time></trkpt><trkpt lat="39.7594183" lon="8.8938717"><ele>230.8</ele><time>2026-05-01T08:40:38.597Z</time></trkpt><trkpt lat="39.7593433" lon="8.893925"><ele>232.0</ele><time>2026-05-01T08:40:39.562Z</time></trkpt><trkpt lat="39.759255" lon="8.8939917"><ele>232.6</ele><time>2026-05-01T08:40:40.562Z</time></trkpt><trkpt lat="39.759165" lon="8.89406"><ele>233.2</ele><time>2026-05-01T08:40:41.562Z</time></trkpt><trkpt lat="39.7590433" lon="8.8941"><ele>233.8</ele><time>2026-05-01T08:40:42.561Z</time></trkpt><trkpt lat="39.7589667" lon="8.8941267"><ele>234.4</ele><time>2026-05-01T08:40:43.563Z</time></trkpt><trkpt lat="39.7588833" lon="8.8941483"><ele>235.0</ele><time>2026-05-01T08:40:44.599Z</time></trkpt><trkpt lat="39.7587967" lon="8.8941567"><ele>234.99999999999997</ele><time>2026-05-01T08:40:45.567Z</time></trkpt><trkpt lat="39.75871" lon="8.8941617"><ele>235.0</ele><time>2026-05-01T08:40:46.567Z</time></trkpt><trkpt lat="39.75864" lon="8.8941683"><ele>235.0</ele><time>2026-05-01T08:40:47.563Z</time></trkpt><trkpt lat="39.758535" lon="8.8942233"><ele>235.0</ele><time>2026-05-01T08:40:49.561Z</time></trkpt><trkpt lat="39.758455" lon="8.8943217"><ele>234.99999999999997</ele><time>2026-05-01T08:40:51.564Z</time></trkpt><trkpt lat="39.75842" lon="8.8943933"><ele>235.0</ele><time>2026-05-01T08:40:52.564Z</time></trkpt><trkpt lat="39.7583817" lon="8.8944717"><ele>234.83333333333331</ele><time>2026-05-01T08:40:53.562Z</time></trkpt><trkpt lat="39.7583433" lon="8.8945517"><ele>234.66666666666666</ele><time>2026-05-01T08:40:54.565Z</time></trkpt><trkpt lat="39.758295" lon="8.89464"><ele>234.5</ele><time>2026-05-01T08:40:55.564Z</time></trkpt><trkpt lat="39.7582383" lon="8.8947333"><ele>234.33333333333331</ele><time>2026-05-01T08:40:56.593Z</time></trkpt><trkpt lat="39.7581817" lon="8.8948233"><ele>234.16666666666666</ele><time>2026-05-01T08:40:57.564Z</time></trkpt><trkpt lat="39.7581183" lon="8.89491"><ele>234.0</ele><time>2026-05-01T08:40:58.562Z</time></trkpt><trkpt lat="39.7580583" lon="8.8949833"><ele>234.0</ele><time>2026-05-01T08:40:59.565Z</time></trkpt><trkpt lat="39.7579933" lon="8.8950467"><ele>234.0</ele><time>2026-05-01T08:41:00.563Z</time></trkpt><trkpt lat="39.7579283" lon="8.895105"><ele>234.0</ele><time>2026-05-01T08:41:01.561Z</time></trkpt><trkpt lat="39.7578633" lon="8.8951617"><ele>234.0</ele><time>2026-05-01T08:41:02.622Z</time></trkpt><trkpt lat="39.757805" lon="8.89522"><ele>234.0</ele><time>2026-05-01T08:41:03.56Z</time></trkpt><trkpt lat="39.7577433" lon="8.8952817"><ele>234.0</ele><time>2026-05-01T08:41:04.564Z</time></trkpt><trkpt lat="39.75768" lon="8.8953383"><ele>235.16666666666666</ele><time>2026-05-01T08:41:05.562Z</time></trkpt><trkpt lat="39.7576083" lon="8.8953967"><ele>236.33333333333331</ele><time>2026-05-01T08:41:06.563Z</time></trkpt><trkpt lat="39.757535" lon="8.8954567"><ele>237.5</ele><time>2026-05-01T08:41:07.563Z</time></trkpt><trkpt lat="39.7574633" lon="8.8955233"><ele>238.66666666666666</ele><time>2026-05-01T08:41:08.596Z</time></trkpt><trkpt lat="39.7573933" lon="8.8955967"><ele>239.83333333333331</ele><time>2026-05-01T08:41:09.558Z</time></trkpt><trkpt lat="39.7573283" lon="8.895675"><ele>241.0</ele><time>2026-05-01T08:41:10.564Z</time></trkpt><trkpt lat="39.757275" lon="8.8957583"><ele>240.99999999999997</ele><time>2026-05-01T08:41:11.558Z</time></trkpt><trkpt lat="39.75723" lon="8.8958467"><ele>241.0</ele><time>2026-05-01T08:41:12.56Z</time></trkpt><trkpt lat="39.75718" lon="8.8959417"><ele>241.0</ele><time>2026-05-01T08:41:13.564Z</time></trkpt><trkpt lat="39.7571267" lon="8.8960367"><ele>241.0</ele><time>2026-05-01T08:41:14.596Z</time></trkpt><trkpt lat="39.7570733" lon="8.8961283"><ele>240.99999999999997</ele><time>2026-05-01T08:41:15.564Z</time></trkpt><trkpt lat="39.7570167" lon="8.89622"><ele>241.0</ele><time>2026-05-01T08:41:16.564Z</time></trkpt><trkpt lat="39.7569567" lon="8.89631"><ele>242.0</ele><time>2026-05-01T08:41:17.565Z</time></trkpt><trkpt lat="39.756895" lon="8.8964"><ele>243.00000000000003</ele><time>2026-05-01T08:41:18.564Z</time></trkpt><trkpt lat="39.75684" lon="8.89649"><ele>244.00000000000003</ele><time>2026-05-01T08:41:19.561Z</time></trkpt><trkpt lat="39.7567717" lon="8.8966067"><ele>245.0</ele><time>2026-05-01T08:41:20.598Z</time></trkpt><trkpt lat="39.7567117" lon="8.8967033"><ele>246.0</ele><time>2026-05-01T08:41:21.563Z</time></trkpt><trkpt lat="39.7566483" lon="8.8967967"><ele>247.16666666666666</ele><time>2026-05-01T08:41:22.562Z</time></trkpt><trkpt lat="39.7565917" lon="8.8968867"><ele>248.33333333333331</ele><time>2026-05-01T08:41:23.565Z</time></trkpt><trkpt lat="39.75655" lon="8.8969633"><ele>249.5</ele><time>2026-05-01T08:41:24.562Z</time></trkpt><trkpt lat="39.75649" lon="8.8970783"><ele>250.66666666666666</ele><time>2026-05-01T08:41:25.564Z</time></trkpt><trkpt lat="39.7564567" lon="8.8971783"><ele>251.83333333333331</ele><time>2026-05-01T08:41:26.63Z</time></trkpt><trkpt lat="39.756435" lon="8.8972867"><ele>253.0</ele><time>2026-05-01T08:41:27.565Z</time></trkpt><trkpt lat="39.75639" lon="8.8973867"><ele>252.99999999999997</ele><time>2026-05-01T08:41:28.564Z</time></trkpt><trkpt lat="39.75636" lon="8.8974883"><ele>253.0</ele><time>2026-05-01T08:41:29.56Z</time></trkpt><trkpt lat="39.7563267" lon="8.897575"><ele>253.0</ele><time>2026-05-01T08:41:30.56Z</time></trkpt><trkpt lat="39.75629" lon="8.8976517"><ele>253.0</ele><time>2026-05-01T08:41:31.561Z</time></trkpt><trkpt lat="39.75624" lon="8.8977217"><ele>252.99999999999997</ele><time>2026-05-01T08:41:32.625Z</time></trkpt><trkpt lat="39.75618" lon="8.8977867"><ele>253.0</ele><time>2026-05-01T08:41:33.56Z</time></trkpt><trkpt lat="39.7561167" lon="8.89786"><ele>253.49999999999997</ele><time>2026-05-01T08:41:34.563Z</time></trkpt><trkpt lat="39.756055" lon="8.89794"><ele>254.0</ele><time>2026-05-01T08:41:35.561Z</time></trkpt><trkpt lat="39.7559817" lon="8.8980383"><ele>254.5</ele><time>2026-05-01T08:41:36.565Z</time></trkpt><trkpt lat="39.75592" lon="8.8981283"><ele>255.0</ele><time>2026-05-01T08:41:37.561Z</time></trkpt><trkpt lat="39.7558667" lon="8.8981967"><ele>255.49999999999997</ele><time>2026-05-01T08:41:38.602Z</time></trkpt><trkpt lat="39.75582" lon="8.898295"><ele>256.0</ele><time>2026-05-01T08:41:39.561Z</time></trkpt><trkpt lat="39.7557683" lon="8.8983917"><ele>256.8333333333333</ele><time>2026-05-01T08:41:40.561Z</time></trkpt><trkpt lat="39.7557183" lon="8.8984783"><ele>257.66666666666663</ele><time>2026-05-01T08:41:41.562Z</time></trkpt><trkpt lat="39.7556717" lon="8.89857"><ele>258.5</ele><time>2026-05-01T08:41:42.563Z</time></trkpt><trkpt lat="39.7556283" lon="8.89866"><ele>259.3333333333333</ele><time>2026-05-01T08:41:43.563Z</time></trkpt><trkpt lat="39.7555867" lon="8.898745"><ele>260.1666666666667</ele><time>2026-05-01T08:41:44.596Z</time></trkpt><trkpt lat="39.755545" lon="8.8988283"><ele>261.0</ele><time>2026-05-01T08:41:45.56Z</time></trkpt><trkpt lat="39.7555117" lon="8.8989167"><ele>261.0</ele><time>2026-05-01T08:41:46.558Z</time></trkpt><trkpt lat="39.755485" lon="8.8990083"><ele>261.0</ele><time>2026-05-01T08:41:47.561Z</time></trkpt><trkpt lat="39.7554533" lon="8.8991"><ele>261.0</ele><time>2026-05-01T08:41:48.564Z</time></trkpt><trkpt lat="39.7554233" lon="8.8991867"><ele>261.0</ele><time>2026-05-01T08:41:49.562Z</time></trkpt><trkpt lat="39.7553883" lon="8.8993317"><ele>261.0</ele><time>2026-05-01T08:41:51.562Z</time></trkpt><trkpt lat="39.7553833" lon="8.89944"><ele>261.0</ele><time>2026-05-01T08:41:53.562Z</time></trkpt><trkpt lat="39.7554217" lon="8.8995367"><ele>261.3333333333333</ele><time>2026-05-01T08:41:55.562Z</time></trkpt><trkpt lat="39.7555017" lon="8.89967"><ele>261.6666666666667</ele><time>2026-05-01T08:41:57.559Z</time></trkpt><trkpt lat="39.7555583" lon="8.89974"><ele>262.0</ele><time>2026-05-01T08:41:58.563Z</time></trkpt><trkpt lat="39.7556217" lon="8.8998067"><ele>262.33333333333337</ele><time>2026-05-01T08:41:59.56Z</time></trkpt><trkpt lat="39.7556767" lon="8.8998717"><ele>262.6666666666667</ele><time>2026-05-01T08:42:00.563Z</time></trkpt><trkpt lat="39.7557217" lon="8.899935"><ele>263.0</ele><time>2026-05-01T08:42:01.561Z</time></trkpt><trkpt lat="39.75577" lon="8.9000667"><ele>263.6666666666667</ele><time>2026-05-01T08:42:03.565Z</time></trkpt><trkpt lat="39.755775" lon="8.9001583"><ele>264.33333333333337</ele><time>2026-05-01T08:42:04.562Z</time></trkpt><trkpt lat="39.7557733" lon="8.9002633"><ele>265.0</ele><time>2026-05-01T08:42:05.567Z</time></trkpt><trkpt lat="39.7557833" lon="8.900385"><ele>265.6666666666667</ele><time>2026-05-01T08:42:06.558Z</time></trkpt><trkpt lat="39.75581" lon="8.9005017"><ele>266.3333333333333</ele><time>2026-05-01T08:42:07.562Z</time></trkpt><trkpt lat="39.7558417" lon="8.9006133"><ele>267.0</ele><time>2026-05-01T08:42:08.597Z</time></trkpt><trkpt lat="39.755875" lon="8.9007167"><ele>267.0</ele><time>2026-05-01T08:42:09.561Z</time></trkpt><trkpt lat="39.755905" lon="8.9008133"><ele>267.0</ele><time>2026-05-01T08:42:10.56Z</time></trkpt><trkpt lat="39.7559233" lon="8.9009117"><ele>267.0</ele><time>2026-05-01T08:42:11.559Z</time></trkpt><trkpt lat="39.755925" lon="8.901015"><ele>267.0</ele><time>2026-05-01T08:42:12.559Z</time></trkpt><trkpt lat="39.7559117" lon="8.9011383"><ele>267.0</ele><time>2026-05-01T08:42:13.563Z</time></trkpt><trkpt lat="39.7558967" lon="8.9012783"><ele>267.0</ele><time>2026-05-01T08:42:14.599Z</time></trkpt><trkpt lat="39.7558833" lon="8.9014267"><ele>266.5</ele><time>2026-05-01T08:42:15.56Z</time></trkpt><trkpt lat="39.755885" lon="8.9015667"><ele>266.0</ele><time>2026-05-01T08:42:16.561Z</time></trkpt><trkpt lat="39.75587" lon="8.9017283"><ele>265.5</ele><time>2026-05-01T08:42:17.561Z</time></trkpt><trkpt lat="39.7558783" lon="8.901865"><ele>265.0</ele><time>2026-05-01T08:42:18.565Z</time></trkpt><trkpt lat="39.7559133" lon="8.90203"><ele>264.2</ele><time>2026-05-01T08:42:19.566Z</time></trkpt><trkpt lat="39.7559767" lon="8.9021717"><ele>263.4</ele><time>2026-05-01T08:42:20.593Z</time></trkpt><trkpt lat="39.7560167" lon="8.902315"><ele>262.6</ele><time>2026-05-01T08:42:21.563Z</time></trkpt><trkpt lat="39.756045" lon="8.9024583"><ele>261.8</ele><time>2026-05-01T08:42:22.56Z</time></trkpt><trkpt lat="39.7560767" lon="8.90257"><ele>261.0</ele><time>2026-05-01T08:42:23.561Z</time></trkpt><trkpt lat="39.7560933" lon="8.90266"><ele>263.3333333333333</ele><time>2026-05-01T08:42:24.562Z</time></trkpt><trkpt lat="39.756155" lon="8.90279"><ele>265.6666666666667</ele><time>2026-05-01T08:42:26.628Z</time></trkpt><trkpt lat="39.7562267" lon="8.9028383"><ele>268.0</ele><time>2026-05-01T08:42:28.558Z</time></trkpt><trkpt lat="39.7563283" lon="8.9028033"><ele>270.33333333333337</ele><time>2026-05-01T08:42:30.562Z</time></trkpt><trkpt lat="39.7563867" lon="8.9027683"><ele>272.6666666666667</ele><time>2026-05-01T08:42:31.563Z</time></trkpt><trkpt lat="39.756455" lon="8.9027183"><ele>275.0</ele><time>2026-05-01T08:42:32.617Z</time></trkpt><trkpt lat="39.7565267" lon="8.902655"><ele>275.4</ele><time>2026-05-01T08:42:33.565Z</time></trkpt><trkpt lat="39.7566167" lon="8.9025617"><ele>275.8</ele><time>2026-05-01T08:42:34.56Z</time></trkpt><trkpt lat="39.75671" lon="8.902475"><ele>276.2</ele><time>2026-05-01T08:42:35.559Z</time></trkpt><trkpt lat="39.756795" lon="8.902375"><ele>276.6</ele><time>2026-05-01T08:42:36.559Z</time></trkpt><trkpt lat="39.7568667" lon="8.9022767"><ele>277.0</ele><time>2026-05-01T08:42:37.563Z</time></trkpt><trkpt lat="39.7569217" lon="8.90219"><ele>278.5</ele><time>2026-05-01T08:42:38.599Z</time></trkpt><trkpt lat="39.7569667" lon="8.9021283"><ele>280.0</ele><time>2026-05-01T08:42:39.563Z</time></trkpt><trkpt lat="39.7570567" lon="8.9020733"><ele>281.5</ele><time>2026-05-01T08:42:41.559Z</time></trkpt><trkpt lat="39.7571117" lon="8.9021317"><ele>283.0</ele><time>2026-05-01T08:42:43.563Z</time></trkpt><trkpt lat="39.7571183" lon="8.9022183"><ele>284.5</ele><time>2026-05-01T08:42:44.598Z</time></trkpt><trkpt lat="39.7571283" lon="8.90231"><ele>286.0</ele><time>2026-05-01T08:42:45.563Z</time></trkpt><trkpt lat="39.7571433" lon="8.9024117"><ele>286.0</ele><time>2026-05-01T08:42:46.56Z</time></trkpt><trkpt lat="39.7571633" lon="8.9025167"><ele>286.0</ele><time>2026-05-01T08:42:47.564Z</time></trkpt><trkpt lat="39.75718" lon="8.9026317"><ele>286.0</ele><time>2026-05-01T08:42:48.564Z</time></trkpt><trkpt lat="39.7572083" lon="8.9027383"><ele>286.0</ele><time>2026-05-01T08:42:49.563Z</time></trkpt><trkpt lat="39.757235" lon="8.90285"><ele>286.0</ele><time>2026-05-01T08:42:50.599Z</time></trkpt><trkpt lat="39.75726" lon="8.9029617"><ele>286.0</ele><time>2026-05-01T08:42:51.56Z</time></trkpt><trkpt lat="39.7572783" lon="8.90308"><ele>286.66666666666663</ele><time>2026-05-01T08:42:52.562Z</time></trkpt><trkpt lat="39.757295" lon="8.9032"><ele>287.3333333333333</ele><time>2026-05-01T08:42:53.562Z</time></trkpt><trkpt lat="39.7573067" lon="8.9033167"><ele>288.0</ele><time>2026-05-01T08:42:54.563Z</time></trkpt><trkpt lat="39.757315" lon="8.9034217"><ele>288.6666666666667</ele><time>2026-05-01T08:42:55.56Z</time></trkpt><trkpt lat="39.757315" lon="8.9035133"><ele>289.33333333333337</ele><time>2026-05-01T08:42:56.627Z</time></trkpt><trkpt lat="39.7573083" lon="8.9036017"><ele>290.0</ele><time>2026-05-01T08:42:57.562Z</time></trkpt><trkpt lat="39.7572933" lon="8.9036867"><ele>290.6666666666667</ele><time>2026-05-01T08:42:58.561Z</time></trkpt><trkpt lat="39.7572717" lon="8.9037733"><ele>291.33333333333337</ele><time>2026-05-01T08:42:59.563Z</time></trkpt><trkpt lat="39.7572467" lon="8.9038683"><ele>292.0</ele><time>2026-05-01T08:43:00.563Z</time></trkpt><trkpt lat="39.757215" lon="8.90398"><ele>292.6666666666667</ele><time>2026-05-01T08:43:01.563Z</time></trkpt><trkpt lat="39.7571817" lon="8.9041033"><ele>293.3333333333333</ele><time>2026-05-01T08:43:02.618Z</time></trkpt><trkpt lat="39.7571417" lon="8.9042333"><ele>294.0</ele><time>2026-05-01T08:43:03.563Z</time></trkpt><trkpt lat="39.757105" lon="8.9043617"><ele>295.59999999999997</ele><time>2026-05-01T08:43:04.56Z</time></trkpt><trkpt lat="39.7570667" lon="8.9044883"><ele>297.2</ele><time>2026-05-01T08:43:05.557Z</time></trkpt><trkpt lat="39.7570283" lon="8.90461"><ele>298.79999999999995</ele><time>2026-05-01T08:43:06.563Z</time></trkpt><trkpt lat="39.7569967" lon="8.90472"><ele>300.4</ele><time>2026-05-01T08:43:07.564Z</time></trkpt><trkpt lat="39.7569633" lon="8.9048217"><ele>302.0</ele><time>2026-05-01T08:43:08.599Z</time></trkpt><trkpt lat="39.756925" lon="8.9049183"><ele>302.0</ele><time>2026-05-01T08:43:09.56Z</time></trkpt><trkpt lat="39.756875" lon="8.9050017"><ele>302.0</ele><time>2026-05-01T08:43:10.561Z</time></trkpt><trkpt lat="39.7568167" lon="8.90507"><ele>302.0</ele><time>2026-05-01T08:43:11.564Z</time></trkpt><trkpt lat="39.75675" lon="8.9051267"><ele>302.0</ele><time>2026-05-01T08:43:12.562Z</time></trkpt><trkpt lat="39.7566733" lon="8.9051767"><ele>302.0</ele><time>2026-05-01T08:43:13.563Z</time></trkpt><trkpt lat="39.7565867" lon="8.9052267"><ele>302.0</ele><time>2026-05-01T08:43:14.598Z</time></trkpt><trkpt lat="39.7564983" lon="8.905275"><ele>299.4</ele><time>2026-05-01T08:43:15.557Z</time></trkpt><trkpt lat="39.7564117" lon="8.9053267"><ele>296.79999999999995</ele><time>2026-05-01T08:43:16.565Z</time></trkpt><trkpt lat="39.7563267" lon="8.9053767"><ele>294.2</ele><time>2026-05-01T08:43:17.564Z</time></trkpt><trkpt lat="39.756245" lon="8.9054283"><ele>291.59999999999997</ele><time>2026-05-01T08:43:18.56Z</time></trkpt><trkpt lat="39.7561633" lon="8.9054767"><ele>289.0</ele><time>2026-05-01T08:43:19.558Z</time></trkpt><trkpt lat="39.7560817" lon="8.90552"><ele>286.7142857142857</ele><time>2026-05-01T08:43:20.602Z</time></trkpt><trkpt lat="39.7560017" lon="8.9055567"><ele>284.42857142857144</ele><time>2026-05-01T08:43:21.56Z</time></trkpt><trkpt lat="39.7559367" lon="8.9055983"><ele>282.1428571428571</ele><time>2026-05-01T08:43:22.559Z</time></trkpt><trkpt lat="39.75588" lon="8.9056483"><ele>279.8571428571429</ele><time>2026-05-01T08:43:23.562Z</time></trkpt><trkpt lat="39.7558333" lon="8.9057167"><ele>277.57142857142856</ele><time>2026-05-01T08:43:24.566Z</time></trkpt><trkpt lat="39.755785" lon="8.9057917"><ele>275.2857142857143</ele><time>2026-05-01T08:43:25.564Z</time></trkpt><trkpt lat="39.7557367" lon="8.90587"><ele>273.0</ele><time>2026-05-01T08:43:26.629Z</time></trkpt><trkpt lat="39.7556933" lon="8.9059483"><ele>273.0</ele><time>2026-05-01T08:43:27.562Z</time></trkpt><trkpt lat="39.7556517" lon="8.9060217"><ele>273.0</ele><time>2026-05-01T08:43:28.56Z</time></trkpt><trkpt lat="39.7556067" lon="8.9060883"><ele>273.0</ele><time>2026-05-01T08:43:29.56Z</time></trkpt><trkpt lat="39.75553" lon="8.9061917"><ele>273.0</ele><time>2026-05-01T08:43:31.559Z</time></trkpt><trkpt lat="39.7554467" lon="8.9062467"><ele>273.0</ele><time>2026-05-01T08:43:33.557Z</time></trkpt><trkpt lat="39.755365" lon="8.9062083"><ele>273.0</ele><time>2026-05-01T08:43:35.557Z</time></trkpt><trkpt lat="39.7553117" lon="8.9061383"><ele>273.0</ele><time>2026-05-01T08:43:37.558Z</time></trkpt><trkpt lat="39.7552267" lon="8.9059767"><ele>273.0</ele><time>2026-05-01T08:44:00.562Z</time></trkpt><trkpt lat="39.7552167" lon="8.9058667"><ele>273.0</ele><time>2026-05-01T08:44:02.59Z</time></trkpt><trkpt lat="39.7551783" lon="8.9057483"><ele>273.0</ele><time>2026-05-01T08:44:04.557Z</time></trkpt><trkpt lat="39.7551417" lon="8.9056183"><ele>273.0</ele><time>2026-05-01T08:44:06.562Z</time></trkpt><trkpt lat="39.75508" lon="8.9055167"><ele>269.4</ele><time>2026-05-01T08:44:08.605Z</time></trkpt><trkpt lat="39.7550067" lon="8.9054383"><ele>265.8</ele><time>2026-05-01T08:44:10.559Z</time></trkpt><trkpt lat="39.7549067" lon="8.905375"><ele>262.2</ele><time>2026-05-01T08:44:12.559Z</time></trkpt><trkpt lat="39.7548083" lon="8.9053117"><ele>258.6</ele><time>2026-05-01T08:44:14.596Z</time></trkpt><trkpt lat="39.7547283" lon="8.9052333"><ele>255.0</ele><time>2026-05-01T08:44:16.562Z</time></trkpt><trkpt lat="39.75467" lon="8.90514"><ele>254.66666666666666</ele><time>2026-05-01T08:44:18.562Z</time></trkpt><trkpt lat="39.75462" lon="8.90503"><ele>254.33333333333331</ele><time>2026-05-01T08:44:20.597Z</time></trkpt><trkpt lat="39.7545817" lon="8.9049233"><ele>254.0</ele><time>2026-05-01T08:44:22.561Z</time></trkpt><trkpt lat="39.7545567" lon="8.9048433"><ele>253.66666666666666</ele><time>2026-05-01T08:44:25.562Z</time></trkpt><trkpt lat="39.7544767" lon="8.9048767"><ele>253.33333333333331</ele><time>2026-05-01T08:44:28.56Z</time></trkpt><trkpt lat="39.7544217" lon="8.90492"><ele>253.0</ele><time>2026-05-01T08:44:30.565Z</time></trkpt><trkpt lat="39.7543567" lon="8.9050217"><ele>251.60000000000002</ele><time>2026-05-01T08:44:32.626Z</time></trkpt><trkpt lat="39.7543383" lon="8.9051383"><ele>250.20000000000002</ele><time>2026-05-01T08:44:34.563Z</time></trkpt><trkpt lat="39.754345" lon="8.905225"><ele>248.8</ele><time>2026-05-01T08:44:36.565Z</time></trkpt><trkpt lat="39.7542333" lon="8.9052183"><ele>247.4</ele><time>2026-05-01T08:44:41.557Z</time></trkpt><trkpt lat="39.754105" lon="8.9052017"><ele>246.0</ele><time>2026-05-01T08:44:43.56Z</time></trkpt><trkpt lat="39.7540383" lon="8.9051983"><ele>246.0</ele><time>2026-05-01T08:44:44.599Z</time></trkpt><trkpt lat="39.75396" lon="8.905185"><ele>246.00000000000003</ele><time>2026-05-01T08:44:45.559Z</time></trkpt><trkpt lat="39.7538833" lon="8.9051583"><ele>246.00000000000003</ele><time>2026-05-01T08:44:46.561Z</time></trkpt><trkpt lat="39.7538017" lon="8.905105"><ele>246.0</ele><time>2026-05-01T08:44:47.563Z</time></trkpt><trkpt lat="39.753705" lon="8.905045"><ele>246.0</ele><time>2026-05-01T08:44:48.565Z</time></trkpt><trkpt lat="39.7535867" lon="8.9049717"><ele>245.4</ele><time>2026-05-01T08:44:49.559Z</time></trkpt><trkpt lat="39.75349" lon="8.9048783"><ele>244.8</ele><time>2026-05-01T08:44:50.602Z</time></trkpt><trkpt lat="39.7533967" lon="8.9047983"><ele>244.20000000000002</ele><time>2026-05-01T08:44:51.562Z</time></trkpt><trkpt lat="39.7532967" lon="8.904725"><ele>243.60000000000002</ele><time>2026-05-01T08:44:52.56Z</time></trkpt><trkpt lat="39.75321" lon="8.9046633"><ele>243.0</ele><time>2026-05-01T08:44:53.565Z</time></trkpt><trkpt lat="39.753135" lon="8.9046183"><ele>243.0</ele><time>2026-05-01T08:44:54.56Z</time></trkpt><trkpt lat="39.753065" lon="8.90458"><ele>243.0</ele><time>2026-05-01T08:44:55.557Z</time></trkpt><trkpt lat="39.753005" lon="8.904545"><ele>243.0</ele><time>2026-05-01T08:44:56.628Z</time></trkpt><trkpt lat="39.75291" lon="8.9044967"><ele>243.0</ele><time>2026-05-01T08:44:58.561Z</time></trkpt><trkpt lat="39.7528267" lon="8.9045117"><ele>243.0</ele><time>2026-05-01T08:45:01.557Z</time></trkpt><trkpt lat="39.7527483" lon="8.9045983"><ele>243.0</ele><time>2026-05-01T08:45:03.56Z</time></trkpt><trkpt lat="39.7527" lon="8.9046833"><ele>241.75</ele><time>2026-05-01T08:45:04.562Z</time></trkpt><trkpt lat="39.7526417" lon="8.90479"><ele>240.5</ele><time>2026-05-01T08:45:05.561Z</time></trkpt><trkpt lat="39.7525817" lon="8.9049333"><ele>239.25</ele><time>2026-05-01T08:45:06.564Z</time></trkpt><trkpt lat="39.7525483" lon="8.9051217"><ele>238.0</ele><time>2026-05-01T08:45:07.563Z</time></trkpt><trkpt lat="39.7524833" lon="8.9053117"><ele>237.33333333333331</ele><time>2026-05-01T08:45:08.6Z</time></trkpt><trkpt lat="39.75246" lon="8.9055267"><ele>236.66666666666669</ele><time>2026-05-01T08:45:09.561Z</time></trkpt><trkpt lat="39.752455" lon="8.9057517"><ele>236.0</ele><time>2026-05-01T08:45:10.562Z</time></trkpt><trkpt lat="39.7524383" lon="8.9059617"><ele>236.0</ele><time>2026-05-01T08:45:11.563Z</time></trkpt><trkpt lat="39.75242" lon="8.9061583"><ele>236.0</ele><time>2026-05-01T08:45:12.56Z</time></trkpt><trkpt lat="39.752405" lon="8.9063433"><ele>236.0</ele><time>2026-05-01T08:45:13.563Z</time></trkpt><trkpt lat="39.75238" lon="8.90652"><ele>236.0</ele><time>2026-05-01T08:45:14.597Z</time></trkpt><trkpt lat="39.75236" lon="8.906705"><ele>236.5</ele><time>2026-05-01T08:45:15.564Z</time></trkpt><trkpt lat="39.752345" lon="8.9068667"><ele>237.0</ele><time>2026-05-01T08:45:16.561Z</time></trkpt><trkpt lat="39.752305" lon="8.9070317"><ele>237.5</ele><time>2026-05-01T08:45:17.56Z</time></trkpt><trkpt lat="39.752265" lon="8.9071717"><ele>238.0</ele><time>2026-05-01T08:45:18.561Z</time></trkpt><trkpt lat="39.7522417" lon="8.9073067"><ele>238.0</ele><time>2026-05-01T08:45:19.565Z</time></trkpt><trkpt lat="39.75223" lon="8.9074483"><ele>238.0</ele><time>2026-05-01T08:45:20.598Z</time></trkpt><trkpt lat="39.752225" lon="8.90759"><ele>238.0</ele><time>2026-05-01T08:45:21.56Z</time></trkpt><trkpt lat="39.7522267" lon="8.9077283"><ele>238.0</ele><time>2026-05-01T08:45:22.563Z</time></trkpt><trkpt lat="39.75226" lon="8.907855"><ele>238.0</ele><time>2026-05-01T08:45:23.563Z</time></trkpt><trkpt lat="39.7522717" lon="8.9080017"><ele>238.0</ele><time>2026-05-01T08:45:24.564Z</time></trkpt><trkpt lat="39.7522933" lon="8.90813"><ele>238.0</ele><time>2026-05-01T08:45:25.563Z</time></trkpt><trkpt lat="39.75233" lon="8.90828"><ele>238.0</ele><time>2026-05-01T08:45:26.592Z</time></trkpt><trkpt lat="39.7523567" lon="8.90844"><ele>238.0</ele><time>2026-05-01T08:45:27.557Z</time></trkpt><trkpt lat="39.75237" lon="8.9086317"><ele>238.0</ele><time>2026-05-01T08:45:28.557Z</time></trkpt><trkpt lat="39.7523817" lon="8.9088183"><ele>238.0</ele><time>2026-05-01T08:45:29.562Z</time></trkpt><trkpt lat="39.7524117" lon="8.9090033"><ele>238.0</ele><time>2026-05-01T08:45:30.563Z</time></trkpt><trkpt lat="39.752415" lon="8.9092267"><ele>239.0</ele><time>2026-05-01T08:45:31.561Z</time></trkpt><trkpt lat="39.75242" lon="8.9094567"><ele>240.0</ele><time>2026-05-01T08:45:32.622Z</time></trkpt><trkpt lat="39.75243" lon="8.9096567"><ele>241.0</ele><time>2026-05-01T08:45:33.559Z</time></trkpt><trkpt lat="39.7524433" lon="8.9098483"><ele>241.0</ele><time>2026-05-01T08:45:34.562Z</time></trkpt><trkpt lat="39.75242" lon="8.910055"><ele>241.0</ele><time>2026-05-01T08:45:35.564Z</time></trkpt><trkpt lat="39.7524117" lon="8.9102483"><ele>241.0</ele><time>2026-05-01T08:45:36.561Z</time></trkpt><trkpt lat="39.752375" lon="8.91045"><ele>241.66666666666666</ele><time>2026-05-01T08:45:37.559Z</time></trkpt><trkpt lat="39.7523217" lon="8.9106567"><ele>242.33333333333331</ele><time>2026-05-01T08:45:38.598Z</time></trkpt><trkpt lat="39.752265" lon="8.9108483"><ele>243.0</ele><time>2026-05-01T08:45:39.561Z</time></trkpt><trkpt lat="39.7521967" lon="8.9110283"><ele>243.66666666666669</ele><time>2026-05-01T08:45:40.56Z</time></trkpt><trkpt lat="39.7520917" lon="8.9112033"><ele>244.33333333333334</ele><time>2026-05-01T08:45:41.563Z</time></trkpt><trkpt lat="39.7519733" lon="8.9113733"><ele>245.0</ele><time>2026-05-01T08:45:42.56Z</time></trkpt><trkpt lat="39.7518367" lon="8.9115583"><ele>245.0</ele><time>2026-05-01T08:45:43.564Z</time></trkpt><trkpt lat="39.751705" lon="8.9117183"><ele>245.0</ele><time>2026-05-01T08:45:44.6Z</time></trkpt><trkpt lat="39.7515733" lon="8.9118717"><ele>245.0</ele><time>2026-05-01T08:45:45.561Z</time></trkpt><trkpt lat="39.75144" lon="8.9120183"><ele>245.33333333333334</ele><time>2026-05-01T08:45:46.565Z</time></trkpt><trkpt lat="39.7513117" lon="8.9121833"><ele>245.66666666666669</ele><time>2026-05-01T08:45:47.56Z</time></trkpt><trkpt lat="39.751185" lon="8.91235"><ele>246.0</ele><time>2026-05-01T08:45:48.563Z</time></trkpt><trkpt lat="39.7510583" lon="8.9125433"><ele>245.33333333333331</ele><time>2026-05-01T08:45:49.561Z</time></trkpt><trkpt lat="39.7509317" lon="8.9127267"><ele>244.66666666666666</ele><time>2026-05-01T08:45:50.598Z</time></trkpt><trkpt lat="39.7507983" lon="8.9128967"><ele>244.0</ele><time>2026-05-01T08:45:51.563Z</time></trkpt><trkpt lat="39.7506567" lon="8.9130833"><ele>244.0</ele><time>2026-05-01T08:45:52.561Z</time></trkpt><trkpt lat="39.750515" lon="8.913275"><ele>244.0</ele><time>2026-05-01T08:45:53.561Z</time></trkpt><trkpt lat="39.7503917" lon="8.9134383"><ele>244.0</ele><time>2026-05-01T08:45:54.563Z</time></trkpt><trkpt lat="39.7502533" lon="8.9136083"><ele>245.33333333333331</ele><time>2026-05-01T08:45:55.559Z</time></trkpt><trkpt lat="39.7501217" lon="8.91378"><ele>246.66666666666669</ele><time>2026-05-01T08:45:56.62Z</time></trkpt><trkpt lat="39.74997" lon="8.9139633"><ele>248.0</ele><time>2026-05-01T08:45:57.563Z</time></trkpt><trkpt lat="39.7498333" lon="8.914135"><ele>249.0</ele><time>2026-05-01T08:45:58.558Z</time></trkpt><trkpt lat="39.7497017" lon="8.9143"><ele>250.0</ele><time>2026-05-01T08:45:59.558Z</time></trkpt><trkpt lat="39.7495733" lon="8.9144467"><ele>251.0</ele><time>2026-05-01T08:46:00.564Z</time></trkpt><trkpt lat="39.74944" lon="8.91458"><ele>248.66666666666669</ele><time>2026-05-01T08:46:01.562Z</time></trkpt><trkpt lat="39.749285" lon="8.9146867"><ele>246.33333333333331</ele><time>2026-05-01T08:46:02.618Z</time></trkpt><trkpt lat="39.7491133" lon="8.9148167"><ele>244.0</ele><time>2026-05-01T08:46:03.559Z</time></trkpt><trkpt lat="39.748935" lon="8.914925"><ele>244.0</ele><time>2026-05-01T08:46:04.559Z</time></trkpt><trkpt lat="39.74876" lon="8.91503"><ele>244.0</ele><time>2026-05-01T08:46:05.561Z</time></trkpt><trkpt lat="39.74859" lon="8.9151417"><ele>244.0</ele><time>2026-05-01T08:46:06.561Z</time></trkpt><trkpt lat="39.7484267" lon="8.9152833"><ele>241.66666666666666</ele><time>2026-05-01T08:46:07.563Z</time></trkpt><trkpt lat="39.7482683" lon="8.9154317"><ele>239.33333333333331</ele><time>2026-05-01T08:46:08.596Z</time></trkpt><trkpt lat="39.7481067" lon="8.9155883"><ele>237.0</ele><time>2026-05-01T08:46:09.565Z</time></trkpt><trkpt lat="39.7479667" lon="8.91577"><ele>237.0</ele><time>2026-05-01T08:46:10.559Z</time></trkpt><trkpt lat="39.74783" lon="8.915955"><ele>237.0</ele><time>2026-05-01T08:46:11.561Z</time></trkpt><trkpt lat="39.747675" lon="8.91614"><ele>237.0</ele><time>2026-05-01T08:46:12.561Z</time></trkpt><trkpt lat="39.7475283" lon="8.9163533"><ele>235.66666666666669</ele><time>2026-05-01T08:46:13.563Z</time></trkpt><trkpt lat="39.7473817" lon="8.91657"><ele>234.33333333333334</ele><time>2026-05-01T08:46:14.604Z</time></trkpt><trkpt lat="39.7472417" lon="8.9167783"><ele>233.0</ele><time>2026-05-01T08:46:15.56Z</time></trkpt><trkpt lat="39.7470933" lon="8.9169867"><ele>233.0</ele><time>2026-05-01T08:46:16.56Z</time></trkpt><trkpt lat="39.7469483" lon="8.9172017"><ele>233.0</ele><time>2026-05-01T08:46:17.563Z</time></trkpt><trkpt lat="39.7467983" lon="8.917415"><ele>233.0</ele><time>2026-05-01T08:46:18.563Z</time></trkpt><trkpt lat="39.7466583" lon="8.9176217"><ele>232.66666666666669</ele><time>2026-05-01T08:46:19.563Z</time></trkpt><trkpt lat="39.7465183" lon="8.9178367"><ele>232.33333333333331</ele><time>2026-05-01T08:46:20.597Z</time></trkpt><trkpt lat="39.7463883" lon="8.9180517"><ele>232.0</ele><time>2026-05-01T08:46:21.56Z</time></trkpt><trkpt lat="39.7462567" lon="8.9182567"><ele>232.0</ele><time>2026-05-01T08:46:22.559Z</time></trkpt><trkpt lat="39.74613" lon="8.9184533"><ele>232.0</ele><time>2026-05-01T08:46:23.559Z</time></trkpt><trkpt lat="39.7460083" lon="8.91864"><ele>232.0</ele><time>2026-05-01T08:46:24.563Z</time></trkpt><trkpt lat="39.7458833" lon="8.9188067"><ele>232.0</ele><time>2026-05-01T08:46:25.561Z</time></trkpt><trkpt lat="39.7457717" lon="8.9189617"><ele>232.0</ele><time>2026-05-01T08:46:26.592Z</time></trkpt><trkpt lat="39.7456633" lon="8.9191217"><ele>232.0</ele><time>2026-05-01T08:46:27.563Z</time></trkpt><trkpt lat="39.745565" lon="8.9192717"><ele>233.25</ele><time>2026-05-01T08:46:28.56Z</time></trkpt><trkpt lat="39.7454733" lon="8.9194067"><ele>234.5</ele><time>2026-05-01T08:46:29.561Z</time></trkpt><trkpt lat="39.7453983" lon="8.9195317"><ele>235.75</ele><time>2026-05-01T08:46:30.564Z</time></trkpt><trkpt lat="39.7453333" lon="8.919645"><ele>237.0</ele><time>2026-05-01T08:46:31.559Z</time></trkpt><trkpt lat="39.7452767" lon="8.9197483"><ele>237.0</ele><time>2026-05-01T08:46:32.621Z</time></trkpt><trkpt lat="39.7452317" lon="8.9198317"><ele>237.0</ele><time>2026-05-01T08:46:33.565Z</time></trkpt><trkpt lat="39.7451917" lon="8.91991"><ele>237.0</ele><time>2026-05-01T08:46:34.564Z</time></trkpt><trkpt lat="39.7451533" lon="8.9200283"><ele>237.0</ele><time>2026-05-01T08:46:36.565Z</time></trkpt><trkpt lat="39.7451933" lon="8.92014"><ele>237.0</ele><time>2026-05-01T08:46:38.594Z</time></trkpt><trkpt lat="39.745295" lon="8.92024"><ele>237.83333333333334</ele><time>2026-05-01T08:46:40.56Z</time></trkpt><trkpt lat="39.7453617" lon="8.920275"><ele>238.66666666666669</ele><time>2026-05-01T08:46:41.562Z</time></trkpt><trkpt lat="39.7454233" lon="8.9203033"><ele>239.5</ele><time>2026-05-01T08:46:42.561Z</time></trkpt><trkpt lat="39.74549" lon="8.9203283"><ele>240.33333333333334</ele><time>2026-05-01T08:46:43.564Z</time></trkpt><trkpt lat="39.7455717" lon="8.9203517"><ele>241.16666666666669</ele><time>2026-05-01T08:46:44.601Z</time></trkpt><trkpt lat="39.7456617" lon="8.9203733"><ele>242.0</ele><time>2026-05-01T08:46:45.561Z</time></trkpt><trkpt lat="39.7457517" lon="8.9204083"><ele>242.0</ele><time>2026-05-01T08:46:46.563Z</time></trkpt><trkpt lat="39.745835" lon="8.920445"><ele>242.0</ele><time>2026-05-01T08:46:47.56Z</time></trkpt><trkpt lat="39.7459117" lon="8.9204833"><ele>242.0</ele><time>2026-05-01T08:46:48.564Z</time></trkpt><trkpt lat="39.7459767" lon="8.9205233"><ele>242.0</ele><time>2026-05-01T08:46:49.563Z</time></trkpt><trkpt lat="39.7460583" lon="8.9206233"><ele>242.0</ele><time>2026-05-01T08:46:51.56Z</time></trkpt><trkpt lat="39.7460933" lon="8.9207633"><ele>245.0</ele><time>2026-05-01T08:46:53.564Z</time></trkpt><trkpt lat="39.746095" lon="8.9208533"><ele>248.0</ele><time>2026-05-01T08:46:54.561Z</time></trkpt><trkpt lat="39.7460967" lon="8.9209583"><ele>251.0</ele><time>2026-05-01T08:46:55.561Z</time></trkpt><trkpt lat="39.7461017" lon="8.9210833"><ele>254.0</ele><time>2026-05-01T08:46:56.587Z</time></trkpt><trkpt lat="39.74611" lon="8.92122"><ele>257.0</ele><time>2026-05-01T08:46:57.559Z</time></trkpt><trkpt lat="39.7461233" lon="8.9213667"><ele>257.25</ele><time>2026-05-01T08:46:58.562Z</time></trkpt><trkpt lat="39.7461317" lon="8.9215167"><ele>257.5</ele><time>2026-05-01T08:46:59.563Z</time></trkpt><trkpt lat="39.746155" lon="8.92166"><ele>257.75</ele><time>2026-05-01T08:47:00.558Z</time></trkpt><trkpt lat="39.74617" lon="8.9218067"><ele>258.0</ele><time>2026-05-01T08:47:01.563Z</time></trkpt><trkpt lat="39.7461733" lon="8.921965"><ele>258.0</ele><time>2026-05-01T08:47:02.556Z</time></trkpt><trkpt lat="39.7461833" lon="8.9220983"><ele>258.0</ele><time>2026-05-01T08:47:03.559Z</time></trkpt><trkpt lat="39.7461917" lon="8.9222217"><ele>258.0</ele><time>2026-05-01T08:47:04.558Z</time></trkpt><trkpt lat="39.74618" lon="8.9223483"><ele>258.0</ele><time>2026-05-01T08:47:05.562Z</time></trkpt><trkpt lat="39.7461617" lon="8.92247"><ele>258.0</ele><time>2026-05-01T08:47:06.56Z</time></trkpt><trkpt lat="39.7461383" lon="8.9225917"><ele>257.0</ele><time>2026-05-01T08:47:07.563Z</time></trkpt><trkpt lat="39.746115" lon="8.92271"><ele>256.0</ele><time>2026-05-01T08:47:08.595Z</time></trkpt><trkpt lat="39.7461033" lon="8.922815"><ele>255.0</ele><time>2026-05-01T08:47:09.564Z</time></trkpt><trkpt lat="39.7461033" lon="8.9229133"><ele>254.0</ele><time>2026-05-01T08:47:10.564Z</time></trkpt><trkpt lat="39.7461167" lon="8.9230133"><ele>253.0</ele><time>2026-05-01T08:47:11.56Z</time></trkpt><trkpt lat="39.7461367" lon="8.9231083"><ele>252.0</ele><time>2026-05-01T08:47:12.561Z</time></trkpt><trkpt lat="39.746155" lon="8.923195"><ele>252.0</ele><time>2026-05-01T08:47:13.562Z</time></trkpt><trkpt lat="39.7461683" lon="8.9232783"><ele>252.0</ele><time>2026-05-01T08:47:14.595Z</time></trkpt><trkpt lat="39.7461733" lon="8.923415"><ele>252.0</ele><time>2026-05-01T08:47:16.558Z</time></trkpt><trkpt lat="39.7462083" lon="8.923525"><ele>252.0</ele><time>2026-05-01T08:47:18.56Z</time></trkpt><trkpt lat="39.7463017" lon="8.923605"><ele>252.0</ele><time>2026-05-01T08:47:20.6Z</time></trkpt><trkpt lat="39.7463683" lon="8.9236367"><ele>252.0</ele><time>2026-05-01T08:47:21.563Z</time></trkpt><trkpt lat="39.74643" lon="8.9236733"><ele>251.83333333333334</ele><time>2026-05-01T08:47:22.564Z</time></trkpt><trkpt lat="39.7464833" lon="8.9237183"><ele>251.66666666666669</ele><time>2026-05-01T08:47:23.565Z</time></trkpt><trkpt lat="39.746545" lon="8.92384"><ele>251.5</ele><time>2026-05-01T08:47:25.558Z</time></trkpt><trkpt lat="39.7465417" lon="8.9239367"><ele>251.33333333333334</ele><time>2026-05-01T08:47:26.629Z</time></trkpt><trkpt lat="39.7465383" lon="8.9240483"><ele>251.16666666666669</ele><time>2026-05-01T08:47:27.563Z</time></trkpt><trkpt lat="39.746525" lon="8.9241883"><ele>251.0</ele><time>2026-05-01T08:47:28.562Z</time></trkpt><trkpt lat="39.74651" lon="8.92435"><ele>251.0</ele><time>2026-05-01T08:47:29.564Z</time></trkpt><trkpt lat="39.7465" lon="8.9245117"><ele>251.0</ele><time>2026-05-01T08:47:30.563Z</time></trkpt><trkpt lat="39.7464767" lon="8.9246667"><ele>251.0</ele><time>2026-05-01T08:47:31.561Z</time></trkpt><trkpt lat="39.74645" lon="8.9248283"><ele>251.0</ele><time>2026-05-01T08:47:32.559Z</time></trkpt><trkpt lat="39.7464133" lon="8.9250083"><ele>251.25</ele><time>2026-05-01T08:47:33.563Z</time></trkpt><trkpt lat="39.7463567" lon="8.9251767"><ele>251.5</ele><time>2026-05-01T08:47:34.563Z</time></trkpt><trkpt lat="39.7463133" lon="8.92535"><ele>251.75</ele><time>2026-05-01T08:47:35.56Z</time></trkpt><trkpt lat="39.7462767" lon="8.92549"><ele>252.0</ele><time>2026-05-01T08:47:36.563Z</time></trkpt><trkpt lat="39.74624" lon="8.92563"><ele>252.0</ele><time>2026-05-01T08:47:37.559Z</time></trkpt><trkpt lat="39.74619" lon="8.9257583"><ele>252.0</ele><time>2026-05-01T08:47:38.597Z</time></trkpt><trkpt lat="39.74613" lon="8.92588"><ele>252.0</ele><time>2026-05-01T08:47:39.56Z</time></trkpt><trkpt lat="39.7460317" lon="8.92602"><ele>252.0</ele><time>2026-05-01T08:47:40.558Z</time></trkpt><trkpt lat="39.74594" lon="8.926155"><ele>252.5</ele><time>2026-05-01T08:47:41.562Z</time></trkpt><trkpt lat="39.7458533" lon="8.9262917"><ele>253.0</ele><time>2026-05-01T08:47:42.558Z</time></trkpt><trkpt lat="39.7457617" lon="8.9264317"><ele>253.5</ele><time>2026-05-01T08:47:43.56Z</time></trkpt><trkpt lat="39.74571" lon="8.9265833"><ele>254.0</ele><time>2026-05-01T08:47:44.593Z</time></trkpt><trkpt lat="39.7456517" lon="8.926735"><ele>254.0</ele><time>2026-05-01T08:47:45.559Z</time></trkpt><trkpt lat="39.7456117" lon="8.9269083"><ele>254.0</ele><time>2026-05-01T08:47:46.559Z</time></trkpt><trkpt lat="39.7455633" lon="8.9270733"><ele>254.0</ele><time>2026-05-01T08:47:47.559Z</time></trkpt><trkpt lat="39.745505" lon="8.9272417"><ele>254.0</ele><time>2026-05-01T08:47:48.563Z</time></trkpt><trkpt lat="39.7454417" lon="8.9274117"><ele>256.25</ele><time>2026-05-01T08:47:49.564Z</time></trkpt><trkpt lat="39.7453617" lon="8.9275733"><ele>258.5</ele><time>2026-05-01T08:47:50.6Z</time></trkpt><trkpt lat="39.7452433" lon="8.9276883"><ele>260.75</ele><time>2026-05-01T08:47:51.561Z</time></trkpt><trkpt lat="39.7451383" lon="8.9278183"><ele>263.0</ele><time>2026-05-01T08:47:52.56Z</time></trkpt><trkpt lat="39.7450467" lon="8.9279533"><ele>263.0</ele><time>2026-05-01T08:47:53.558Z</time></trkpt><trkpt lat="39.7449433" lon="8.928075"><ele>263.0</ele><time>2026-05-01T08:47:54.563Z</time></trkpt><trkpt lat="39.74483" lon="8.9281817"><ele>263.0</ele><time>2026-05-01T08:47:55.558Z</time></trkpt><trkpt lat="39.7447083" lon="8.9282967"><ele>263.0</ele><time>2026-05-01T08:47:56.621Z</time></trkpt><trkpt lat="39.7446117" lon="8.9284317"><ele>262.75</ele><time>2026-05-01T08:47:57.559Z</time></trkpt><trkpt lat="39.744555" lon="8.9285717"><ele>262.5</ele><time>2026-05-01T08:47:58.563Z</time></trkpt><trkpt lat="39.744495" lon="8.9287"><ele>262.25</ele><time>2026-05-01T08:47:59.563Z</time></trkpt><trkpt lat="39.74443" lon="8.9288283"><ele>262.0</ele><time>2026-05-01T08:48:00.564Z</time></trkpt><trkpt lat="39.7443583" lon="8.928925"><ele>262.0</ele><time>2026-05-01T08:48:01.562Z</time></trkpt><trkpt lat="39.744295" lon="8.928995"><ele>262.0</ele><time>2026-05-01T08:48:02.624Z</time></trkpt><trkpt lat="39.7442283" lon="8.9290417"><ele>262.0</ele><time>2026-05-01T08:48:03.564Z</time></trkpt><trkpt lat="39.744165" lon="8.92905"><ele>262.0</ele><time>2026-05-01T08:48:04.559Z</time></trkpt><trkpt lat="39.7440983" lon="8.9290167"><ele>262.0</ele><time>2026-05-01T08:48:05.562Z</time></trkpt><trkpt lat="39.7439883" lon="8.9289683"><ele>262.0</ele><time>2026-05-01T08:48:07.563Z</time></trkpt><trkpt lat="39.7439183" lon="8.9289033"><ele>262.0</ele><time>2026-05-01T08:48:08.593Z</time></trkpt><trkpt lat="39.7438583" lon="8.928865"><ele>262.0</ele><time>2026-05-01T08:48:09.557Z</time></trkpt><trkpt lat="39.7438133" lon="8.92878"><ele>262.0</ele><time>2026-05-01T08:48:11.559Z</time></trkpt><trkpt lat="39.74373" lon="8.9287283"><ele>262.0</ele><time>2026-05-01T08:48:17.557Z</time></trkpt><trkpt lat="39.7436417" lon="8.9287"><ele>262.0</ele><time>2026-05-01T08:48:19.561Z</time></trkpt><trkpt lat="39.7435783" lon="8.9286633"><ele>262.0</ele><time>2026-05-01T08:48:20.595Z</time></trkpt><trkpt lat="39.7434933" lon="8.9285883"><ele>260.4</ele><time>2026-05-01T08:48:21.557Z</time></trkpt><trkpt lat="39.7433933" lon="8.9284833"><ele>258.79999999999995</ele><time>2026-05-01T08:48:22.559Z</time></trkpt><trkpt lat="39.7433017" lon="8.92841"><ele>257.2</ele><time>2026-05-01T08:48:23.564Z</time></trkpt><trkpt lat="39.7432167" lon="8.9283467"><ele>255.6</ele><time>2026-05-01T08:48:24.561Z</time></trkpt><trkpt lat="39.7431367" lon="8.92829"><ele>254.0</ele><time>2026-05-01T08:48:25.562Z</time></trkpt><trkpt lat="39.7430617" lon="8.9282483"><ele>254.0</ele><time>2026-05-01T08:48:26.592Z</time></trkpt><trkpt lat="39.742995" lon="8.9282217"><ele>253.99999999999997</ele><time>2026-05-01T08:48:27.559Z</time></trkpt><trkpt lat="39.74289" lon="8.9282267"><ele>253.99999999999997</ele><time>2026-05-01T08:48:29.556Z</time></trkpt><trkpt lat="39.742825" lon="8.9283183"><ele>254.0</ele><time>2026-05-01T08:48:31.562Z</time></trkpt><trkpt lat="39.7428067" lon="8.92842"><ele>254.0</ele><time>2026-05-01T08:48:32.589Z</time></trkpt><trkpt lat="39.7427933" lon="8.9285533"><ele>254.0</ele><time>2026-05-01T08:48:33.565Z</time></trkpt><trkpt lat="39.7427883" lon="8.9286983"><ele>254.0</ele><time>2026-05-01T08:48:34.562Z</time></trkpt><trkpt lat="39.7427883" lon="8.928845"><ele>254.0</ele><time>2026-05-01T08:48:35.558Z</time></trkpt><trkpt lat="39.742785" lon="8.9289883"><ele>254.0</ele><time>2026-05-01T08:48:36.561Z</time></trkpt><trkpt lat="39.7427833" lon="8.92916"><ele>254.5</ele><time>2026-05-01T08:48:37.56Z</time></trkpt><trkpt lat="39.7427867" lon="8.9293133"><ele>255.0</ele><time>2026-05-01T08:48:38.598Z</time></trkpt><trkpt lat="39.742765" lon="8.9294533"><ele>255.5</ele><time>2026-05-01T08:48:39.558Z</time></trkpt><trkpt lat="39.7427083" lon="8.9295917"><ele>256.0</ele><time>2026-05-01T08:48:40.56Z</time></trkpt><trkpt lat="39.7426583" lon="8.9297317"><ele>256.0</ele><time>2026-05-01T08:48:41.563Z</time></trkpt><trkpt lat="39.7426267" lon="8.9298617"><ele>256.0</ele><time>2026-05-01T08:48:42.557Z</time></trkpt><trkpt lat="39.7425667" lon="8.9299767"><ele>256.0</ele><time>2026-05-01T08:48:43.561Z</time></trkpt><trkpt lat="39.7424883" lon="8.930085"><ele>256.0</ele><time>2026-05-01T08:48:44.592Z</time></trkpt><trkpt lat="39.7424117" lon="8.9301633"><ele>256.0</ele><time>2026-05-01T08:48:45.562Z</time></trkpt><trkpt lat="39.7423333" lon="8.930215"><ele>257.0</ele><time>2026-05-01T08:48:46.559Z</time></trkpt><trkpt lat="39.7422517" lon="8.9302433"><ele>258.0</ele><time>2026-05-01T08:48:47.561Z</time></trkpt><trkpt lat="39.7421767" lon="8.930275"><ele>259.0</ele><time>2026-05-01T08:48:48.556Z</time></trkpt><trkpt lat="39.7421017" lon="8.9303217"><ele>260.0</ele><time>2026-05-01T08:48:49.557Z</time></trkpt><trkpt lat="39.7420317" lon="8.930385"><ele>261.0</ele><time>2026-05-01T08:48:50.597Z</time></trkpt><trkpt lat="39.74197" lon="8.9304633"><ele>262.0</ele><time>2026-05-01T08:48:51.56Z</time></trkpt><trkpt lat="39.74191" lon="8.9305567"><ele>262.6</ele><time>2026-05-01T08:48:52.562Z</time></trkpt><trkpt lat="39.7418433" lon="8.9306667"><ele>263.2</ele><time>2026-05-01T08:48:53.558Z</time></trkpt><trkpt lat="39.7417733" lon="8.9307667"><ele>263.8</ele><time>2026-05-01T08:48:54.56Z</time></trkpt><trkpt lat="39.7417" lon="8.930845"><ele>264.4</ele><time>2026-05-01T08:48:55.562Z</time></trkpt><trkpt lat="39.7416517" lon="8.9309317"><ele>265.0</ele><time>2026-05-01T08:48:56.618Z</time></trkpt><trkpt lat="39.7415833" lon="8.9310317"><ele>266.2</ele><time>2026-05-01T08:48:57.56Z</time></trkpt><trkpt lat="39.741535" lon="8.9311467"><ele>267.4</ele><time>2026-05-01T08:48:58.558Z</time></trkpt><trkpt lat="39.7414933" lon="8.9312767"><ele>268.6</ele><time>2026-05-01T08:48:59.559Z</time></trkpt><trkpt lat="39.7414667" lon="8.931425"><ele>269.8</ele><time>2026-05-01T08:49:00.558Z</time></trkpt><trkpt lat="39.7414383" lon="8.9315733"><ele>271.0</ele><time>2026-05-01T08:49:01.561Z</time></trkpt><trkpt lat="39.7413967" lon="8.931725"><ele>274.5</ele><time>2026-05-01T08:49:02.62Z</time></trkpt><trkpt lat="39.741355" lon="8.9318467"><ele>278.0</ele><time>2026-05-01T08:49:03.558Z</time></trkpt><trkpt lat="39.7413317" lon="8.9320117"><ele>281.5</ele><time>2026-05-01T08:49:04.559Z</time></trkpt><trkpt lat="39.7413033" lon="8.9321467"><ele>285.0</ele><time>2026-05-01T08:49:05.56Z</time></trkpt><trkpt lat="39.7412933" lon="8.93229"><ele>285.0</ele><time>2026-05-01T08:49:06.562Z</time></trkpt><trkpt lat="39.741275" lon="8.9324367"><ele>285.0</ele><time>2026-05-01T08:49:07.559Z</time></trkpt><trkpt lat="39.7412583" lon="8.932605"><ele>285.0</ele><time>2026-05-01T08:49:08.596Z</time></trkpt><trkpt lat="39.74124" lon="8.9327717"><ele>285.0</ele><time>2026-05-01T08:49:09.558Z</time></trkpt><trkpt lat="39.74123" lon="8.9329483"><ele>288.5</ele><time>2026-05-01T08:49:10.561Z</time></trkpt><trkpt lat="39.74124" lon="8.9330967"><ele>292.0</ele><time>2026-05-01T08:49:11.558Z</time></trkpt><trkpt lat="39.74125" lon="8.933275"><ele>295.5</ele><time>2026-05-01T08:49:12.557Z</time></trkpt><trkpt lat="39.74126" lon="8.933455"><ele>299.0</ele><time>2026-05-01T08:49:13.561Z</time></trkpt><trkpt lat="39.74128" lon="8.9336217"><ele>301.75</ele><time>2026-05-01T08:49:14.595Z</time></trkpt><trkpt lat="39.7412733" lon="8.9337833"><ele>304.5</ele><time>2026-05-01T08:49:15.562Z</time></trkpt><trkpt lat="39.7412683" lon="8.9339367"><ele>307.25</ele><time>2026-05-01T08:49:16.562Z</time></trkpt><trkpt lat="39.7412583" lon="8.9341117"><ele>310.0</ele><time>2026-05-01T08:49:17.562Z</time></trkpt><trkpt lat="39.7412483" lon="8.9342733"><ele>312.5</ele><time>2026-05-01T08:49:18.565Z</time></trkpt><trkpt lat="39.741225" lon="8.93444"><ele>315.0</ele><time>2026-05-01T08:49:19.56Z</time></trkpt><trkpt lat="39.7412083" lon="8.934605"><ele>317.5</ele><time>2026-05-01T08:49:20.603Z</time></trkpt><trkpt lat="39.74116" lon="8.9348033"><ele>320.0</ele><time>2026-05-01T08:49:21.558Z</time></trkpt><trkpt lat="39.741125" lon="8.9349883"><ele>320.0</ele><time>2026-05-01T08:49:22.557Z</time></trkpt><trkpt lat="39.741095" lon="8.9351733"><ele>320.0</ele><time>2026-05-01T08:49:23.557Z</time></trkpt><trkpt lat="39.7410617" lon="8.9353583"><ele>320.0</ele><time>2026-05-01T08:49:24.562Z</time></trkpt><trkpt lat="39.7410283" lon="8.935535"><ele>320.0</ele><time>2026-05-01T08:49:25.562Z</time></trkpt><trkpt lat="39.740995" lon="8.9357167"><ele>323.25</ele><time>2026-05-01T08:49:26.588Z</time></trkpt><trkpt lat="39.7409933" lon="8.935895"><ele>326.5</ele><time>2026-05-01T08:49:27.558Z</time></trkpt><trkpt lat="39.74097" lon="8.9360767"><ele>329.75</ele><time>2026-05-01T08:49:28.561Z</time></trkpt><trkpt lat="39.7409617" lon="8.936245"><ele>333.0</ele><time>2026-05-01T08:49:29.562Z</time></trkpt><trkpt lat="39.740955" lon="8.9363983"><ele>333.0</ele><time>2026-05-01T08:49:30.562Z</time></trkpt><trkpt lat="39.740915" lon="8.9365167"><ele>333.0</ele><time>2026-05-01T08:49:31.561Z</time></trkpt><trkpt lat="39.740865" lon="8.9366333"><ele>333.0</ele><time>2026-05-01T08:49:32.62Z</time></trkpt><trkpt lat="39.7408017" lon="8.9367683"><ele>333.0</ele><time>2026-05-01T08:49:33.563Z</time></trkpt><trkpt lat="39.7407083" lon="8.9368833"><ele>336.0</ele><time>2026-05-01T08:49:34.556Z</time></trkpt><trkpt lat="39.7406033" lon="8.9369733"><ele>339.0</ele><time>2026-05-01T08:49:35.559Z</time></trkpt><trkpt lat="39.7404683" lon="8.9370433"><ele>342.0</ele><time>2026-05-01T08:49:36.56Z</time></trkpt><trkpt lat="39.740355" lon="8.9371267"><ele>345.0</ele><time>2026-05-01T08:49:37.558Z</time></trkpt><trkpt lat="39.74021" lon="8.9371933"><ele>345.0</ele><time>2026-05-01T08:49:38.599Z</time></trkpt><trkpt lat="39.740065" lon="8.9372483"><ele>345.0</ele><time>2026-05-01T08:49:39.561Z</time></trkpt><trkpt lat="39.7399083" lon="8.9373583"><ele>345.0</ele><time>2026-05-01T08:49:40.562Z</time></trkpt><trkpt lat="39.739765" lon="8.937445"><ele>345.0</ele><time>2026-05-01T08:49:41.565Z</time></trkpt><trkpt lat="39.7396233" lon="8.9375283"><ele>345.0</ele><time>2026-05-01T08:49:42.559Z</time></trkpt><trkpt lat="39.73951" lon="8.9376017"><ele>345.0</ele><time>2026-05-01T08:49:43.562Z</time></trkpt><trkpt lat="39.73941" lon="8.937665"><ele>345.0</ele><time>2026-05-01T08:49:44.603Z</time></trkpt><trkpt lat="39.7393317" lon="8.937745"><ele>346.75</ele><time>2026-05-01T08:49:45.559Z</time></trkpt><trkpt lat="39.73926" lon="8.9378517"><ele>348.5</ele><time>2026-05-01T08:49:46.559Z</time></trkpt><trkpt lat="39.7391917" lon="8.9379783"><ele>350.25</ele><time>2026-05-01T08:49:47.559Z</time></trkpt><trkpt lat="39.739135" lon="8.938135"><ele>352.0</ele><time>2026-05-01T08:49:48.561Z</time></trkpt><trkpt lat="39.73908" lon="8.9382967"><ele>354.75</ele><time>2026-05-01T08:49:49.557Z</time></trkpt><trkpt lat="39.7390133" lon="8.9384567"><ele>357.5</ele><time>2026-05-01T08:49:50.602Z</time></trkpt><trkpt lat="39.738945" lon="8.9386083"><ele>360.25</ele><time>2026-05-01T08:49:51.557Z</time></trkpt><trkpt lat="39.73887" lon="8.9387333"><ele>363.0</ele><time>2026-05-01T08:49:52.56Z</time></trkpt><trkpt lat="39.73879" lon="8.9388367"><ele>363.0</ele><time>2026-05-01T08:49:53.557Z</time></trkpt><trkpt lat="39.7387217" lon="8.93892"><ele>363.0</ele><time>2026-05-01T08:49:54.563Z</time></trkpt><trkpt lat="39.7386617" lon="8.9389933"><ele>363.0</ele><time>2026-05-01T08:49:55.562Z</time></trkpt><trkpt lat="39.7386217" lon="8.93906"><ele>363.0</ele><time>2026-05-01T08:49:56.624Z</time></trkpt><trkpt lat="39.7385683" lon="8.93915"><ele>363.0</ele><time>2026-05-01T08:50:02.617Z</time></trkpt><trkpt lat="39.7385067" lon="8.9392333"><ele>363.0</ele><time>2026-05-01T08:50:04.561Z</time></trkpt><trkpt lat="39.7384717" lon="8.9393533"><ele>361.0</ele><time>2026-05-01T08:50:06.558Z</time></trkpt><trkpt lat="39.7384733" lon="8.9394617"><ele>359.0</ele><time>2026-05-01T08:50:08.603Z</time></trkpt><trkpt lat="39.7385017" lon="8.9395517"><ele>357.0</ele><time>2026-05-01T08:50:11.561Z</time></trkpt><trkpt lat="39.7385717" lon="8.9396017"><ele>355.0</ele><time>2026-05-01T08:50:42.559Z</time></trkpt><trkpt lat="39.738655" lon="8.93961"><ele>353.0</ele><time>2026-05-01T08:50:44.6Z</time></trkpt><trkpt lat="39.73876" lon="8.9395967"><ele>351.0</ele><time>2026-05-01T08:50:46.558Z</time></trkpt><trkpt lat="39.738885" lon="8.9395883"><ele>351.00000000000006</ele><time>2026-05-01T08:50:48.561Z</time></trkpt><trkpt lat="39.7389533" lon="8.9396017"><ele>351.0</ele><time>2026-05-01T08:50:49.562Z</time></trkpt><trkpt lat="39.7390217" lon="8.939625"><ele>351.0</ele><time>2026-05-01T08:50:50.603Z</time></trkpt><trkpt lat="39.73909" lon="8.9396583"><ele>351.0</ele><time>2026-05-01T08:50:51.561Z</time></trkpt><trkpt lat="39.739155" lon="8.9396933"><ele>351.0</ele><time>2026-05-01T08:50:52.558Z</time></trkpt><trkpt lat="39.739215" lon="8.9397267"><ele>351.00000000000006</ele><time>2026-05-01T08:50:53.562Z</time></trkpt><trkpt lat="39.73928" lon="8.939755"><ele>351.0</ele><time>2026-05-01T08:50:54.561Z</time></trkpt><trkpt lat="39.739385" lon="8.9398083"><ele>353.3333333333333</ele><time>2026-05-01T08:50:56.584Z</time></trkpt><trkpt lat="39.7394883" lon="8.939855"><ele>355.6666666666667</ele><time>2026-05-01T08:50:58.562Z</time></trkpt><trkpt lat="39.739605" lon="8.9399067"><ele>358.0</ele><time>2026-05-01T08:51:00.562Z</time></trkpt><trkpt lat="39.73967" lon="8.939935"><ele>360.33333333333337</ele><time>2026-05-01T08:51:01.559Z</time></trkpt><trkpt lat="39.739735" lon="8.939965"><ele>362.6666666666667</ele><time>2026-05-01T08:51:02.623Z</time></trkpt><trkpt lat="39.7397983" lon="8.939995"><ele>365.0</ele><time>2026-05-01T08:51:03.562Z</time></trkpt><trkpt lat="39.739855" lon="8.9400333"><ele>364.42857142857144</ele><time>2026-05-01T08:51:04.563Z</time></trkpt><trkpt lat="39.7399083" lon="8.9400783"><ele>363.8571428571429</ele><time>2026-05-01T08:51:05.559Z</time></trkpt><trkpt lat="39.7399617" lon="8.94014"><ele>363.28571428571433</ele><time>2026-05-01T08:51:06.561Z</time></trkpt><trkpt lat="39.74001" lon="8.9402133"><ele>362.7142857142857</ele><time>2026-05-01T08:51:07.561Z</time></trkpt><trkpt lat="39.7400517" lon="8.940285"><ele>362.1428571428571</ele><time>2026-05-01T08:51:08.602Z</time></trkpt><trkpt lat="39.7400883" lon="8.9403717"><ele>361.5714285714286</ele><time>2026-05-01T08:51:09.56Z</time></trkpt><trkpt lat="39.7401133" lon="8.94046"><ele>361.0</ele><time>2026-05-01T08:51:10.561Z</time></trkpt><trkpt lat="39.740135" lon="8.94055"><ele>361.0</ele><time>2026-05-01T08:51:11.558Z</time></trkpt><trkpt lat="39.7401567" lon="8.94064"><ele>361.0</ele><time>2026-05-01T08:51:12.561Z</time></trkpt><trkpt lat="39.740175" lon="8.9407283"><ele>361.0</ele><time>2026-05-01T08:51:13.56Z</time></trkpt><trkpt lat="39.74021" lon="8.94088"><ele>361.0</ele><time>2026-05-01T08:51:15.561Z</time></trkpt><trkpt lat="39.7402283" lon="8.94102"><ele>361.0</ele><time>2026-05-01T08:51:17.561Z</time></trkpt><trkpt lat="39.7402183" lon="8.9411617"><ele>363.0</ele><time>2026-05-01T08:51:19.562Z</time></trkpt><trkpt lat="39.7402217" lon="8.941295"><ele>365.0</ele><time>2026-05-01T08:51:21.562Z</time></trkpt><trkpt lat="39.7402233" lon="8.9414317"><ele>367.0</ele><time>2026-05-01T08:51:23.56Z</time></trkpt><trkpt lat="39.7402267" lon="8.94154"><ele>369.0</ele><time>2026-05-01T08:51:25.556Z</time></trkpt><trkpt lat="39.7402267" lon="8.94164"><ele>371.0</ele><time>2026-05-01T08:51:27.562Z</time></trkpt><trkpt lat="39.7401933" lon="8.9417583"><ele>371.0</ele><time>2026-05-01T08:52:01.563Z</time></trkpt><trkpt lat="39.7401333" lon="8.9417867"><ele>371.0</ele><time>2026-05-01T08:52:03.562Z</time></trkpt><trkpt lat="39.7399917" lon="8.9417133"><ele>371.0</ele><time>2026-05-01T08:52:14.605Z</time></trkpt><trkpt lat="39.739935" lon="8.941585"><ele>371.0</ele><time>2026-05-01T08:52:16.56Z</time></trkpt><trkpt lat="39.7398967" lon="8.941505"><ele>371.0</ele><time>2026-05-01T08:52:17.561Z</time></trkpt><trkpt lat="39.739855" lon="8.941425"><ele>370.14285714285717</ele><time>2026-05-01T08:52:18.56Z</time></trkpt><trkpt lat="39.7398133" lon="8.9413417"><ele>369.2857142857143</ele><time>2026-05-01T08:52:19.559Z</time></trkpt><trkpt lat="39.7397733" lon="8.9412633"><ele>368.42857142857144</ele><time>2026-05-01T08:52:20.6Z</time></trkpt><trkpt lat="39.7397283" lon="8.9411933"><ele>367.57142857142856</ele><time>2026-05-01T08:52:21.557Z</time></trkpt><trkpt lat="39.73968" lon="8.94113"><ele>366.7142857142857</ele><time>2026-05-01T08:52:22.556Z</time></trkpt><trkpt lat="39.7396333" lon="8.9410617"><ele>365.8571428571429</ele><time>2026-05-01T08:52:23.561Z</time></trkpt><trkpt lat="39.7395783" lon="8.9409933"><ele>365.0</ele><time>2026-05-01T08:52:24.559Z</time></trkpt><trkpt lat="39.7395217" lon="8.9409283"><ele>364.2</ele><time>2026-05-01T08:52:25.562Z</time></trkpt><trkpt lat="39.7394667" lon="8.94087"><ele>363.4</ele><time>2026-05-01T08:52:26.628Z</time></trkpt><trkpt lat="39.7394133" lon="8.9408183"><ele>362.6</ele><time>2026-05-01T08:52:27.561Z</time></trkpt><trkpt lat="39.7393033" lon="8.940745"><ele>361.8</ele><time>2026-05-01T08:52:29.562Z</time></trkpt><trkpt lat="39.7392" lon="8.940725"><ele>361.0</ele><time>2026-05-01T08:52:31.562Z</time></trkpt><trkpt lat="39.73909" lon="8.9407433"><ele>361.20000000000005</ele><time>2026-05-01T08:52:33.562Z</time></trkpt><trkpt lat="39.738975" lon="8.9407783"><ele>361.40000000000003</ele><time>2026-05-01T08:52:35.562Z</time></trkpt><trkpt lat="39.7389133" lon="8.9408067"><ele>361.6</ele><time>2026-05-01T08:52:36.556Z</time></trkpt><trkpt lat="39.738815" lon="8.9408783"><ele>361.8</ele><time>2026-05-01T08:52:38.6Z</time></trkpt><trkpt lat="39.7387317" lon="8.9409917"><ele>362.0</ele><time>2026-05-01T08:52:40.558Z</time></trkpt><trkpt lat="39.7386933" lon="8.941065"><ele>362.0</ele><time>2026-05-01T08:52:41.561Z</time></trkpt><trkpt lat="39.7386517" lon="8.941145"><ele>362.0</ele><time>2026-05-01T08:52:42.555Z</time></trkpt><trkpt lat="39.7386083" lon="8.941225"><ele>362.0</ele><time>2026-05-01T08:52:43.561Z</time></trkpt><trkpt lat="39.7385633" lon="8.9413033"><ele>362.0</ele><time>2026-05-01T08:52:44.599Z</time></trkpt><trkpt lat="39.73852" lon="8.9413767"><ele>362.0</ele><time>2026-05-01T08:52:45.557Z</time></trkpt><trkpt lat="39.738475" lon="8.941445"><ele>362.0</ele><time>2026-05-01T08:52:46.562Z</time></trkpt><trkpt lat="39.73843" lon="8.941515"><ele>362.0</ele><time>2026-05-01T08:52:47.56Z</time></trkpt><trkpt lat="39.7383917" lon="8.94158"><ele>361.57142857142856</ele><time>2026-05-01T08:52:48.563Z</time></trkpt><trkpt lat="39.73835" lon="8.941645"><ele>361.1428571428571</ele><time>2026-05-01T08:52:49.561Z</time></trkpt><trkpt lat="39.738305" lon="8.941705"><ele>360.7142857142857</ele><time>2026-05-01T08:52:50.603Z</time></trkpt><trkpt lat="39.7382533" lon="8.9417667"><ele>360.2857142857143</ele><time>2026-05-01T08:52:51.557Z</time></trkpt><trkpt lat="39.738195" lon="8.9418283"><ele>359.8571428571429</ele><time>2026-05-01T08:52:52.562Z</time></trkpt><trkpt lat="39.7381333" lon="8.941895"><ele>359.42857142857144</ele><time>2026-05-01T08:52:53.559Z</time></trkpt><trkpt lat="39.73807" lon="8.9419683"><ele>359.0</ele><time>2026-05-01T08:52:54.561Z</time></trkpt><trkpt lat="39.7380083" lon="8.94205"><ele>359.0</ele><time>2026-05-01T08:52:55.56Z</time></trkpt><trkpt lat="39.73795" lon="8.94213"><ele>359.0</ele><time>2026-05-01T08:52:56.625Z</time></trkpt><trkpt lat="39.7378867" lon="8.942205"><ele>359.0</ele><time>2026-05-01T08:52:57.561Z</time></trkpt><trkpt lat="39.7378233" lon="8.9422783"><ele>359.0</ele><time>2026-05-01T08:52:58.561Z</time></trkpt><trkpt lat="39.73776" lon="8.9423483"><ele>359.0</ele><time>2026-05-01T08:52:59.559Z</time></trkpt><trkpt lat="39.737695" lon="8.942415"><ele>359.0</ele><time>2026-05-01T08:53:00.56Z</time></trkpt><trkpt lat="39.7376267" lon="8.9424767"><ele>360.1666666666667</ele><time>2026-05-01T08:53:01.563Z</time></trkpt><trkpt lat="39.7375583" lon="8.942525"><ele>361.33333333333337</ele><time>2026-05-01T08:53:02.623Z</time></trkpt><trkpt lat="39.7374867" lon="8.9425567"><ele>362.5</ele><time>2026-05-01T08:53:03.558Z</time></trkpt><trkpt lat="39.7374133" lon="8.9425767"><ele>363.6666666666667</ele><time>2026-05-01T08:53:04.558Z</time></trkpt><trkpt lat="39.7373417" lon="8.942585"><ele>364.8333333333333</ele><time>2026-05-01T08:53:05.561Z</time></trkpt><trkpt lat="39.7372683" lon="8.9425883"><ele>366.0</ele><time>2026-05-01T08:53:06.562Z</time></trkpt><trkpt lat="39.7371917" lon="8.9425883"><ele>366.0</ele><time>2026-05-01T08:53:07.558Z</time></trkpt><trkpt lat="39.7371233" lon="8.942585"><ele>366.0</ele><time>2026-05-01T08:53:08.598Z</time></trkpt><trkpt lat="39.737035" lon="8.94258"><ele>366.0</ele><time>2026-05-01T08:53:10.558Z</time></trkpt><trkpt lat="39.7369667" lon="8.9425733"><ele>366.0</ele><time>2026-05-01T08:53:24.562Z</time></trkpt><trkpt lat="39.7368967" lon="8.9425567"><ele>366.0</ele><time>2026-05-01T08:53:28.561Z</time></trkpt><trkpt lat="39.7368267" lon="8.942535"><ele>366.0</ele><time>2026-05-01T08:53:32.626Z</time></trkpt><trkpt lat="39.7367533" lon="8.9425333"><ele>366.0</ele><time>2026-05-01T08:53:36.562Z</time></trkpt><trkpt lat="39.7366867" lon="8.9425183"><ele>364.8</ele><time>2026-05-01T08:53:40.563Z</time></trkpt><trkpt lat="39.736615" lon="8.942515"><ele>363.6</ele><time>2026-05-01T08:53:43.561Z</time></trkpt><trkpt lat="39.7365167" lon="8.9425283"><ele>362.4</ele><time>2026-05-01T08:53:46.559Z</time></trkpt><trkpt lat="39.7364317" lon="8.942555"><ele>361.2</ele><time>2026-05-01T08:53:48.561Z</time></trkpt><trkpt lat="39.73634" lon="8.942585"><ele>360.0</ele><time>2026-05-01T08:53:50.598Z</time></trkpt><trkpt lat="39.736235" lon="8.942615"><ele>360.0</ele><time>2026-05-01T08:53:52.561Z</time></trkpt><trkpt lat="39.7361233" lon="8.9426417"><ele>360.0</ele><time>2026-05-01T08:53:54.562Z</time></trkpt><trkpt lat="39.7360117" lon="8.942645"><ele>360.0</ele><time>2026-05-01T08:53:56.624Z</time></trkpt><trkpt lat="39.7359017" lon="8.9426"><ele>360.0</ele><time>2026-05-01T08:53:58.558Z</time></trkpt><trkpt lat="39.7358483" lon="8.9425483"><ele>360.0</ele><time>2026-05-01T08:53:59.562Z</time></trkpt><trkpt lat="39.7358017" lon="8.94249"><ele>357.2857142857143</ele><time>2026-05-01T08:54:00.562Z</time></trkpt><trkpt lat="39.7357583" lon="8.9424217"><ele>354.5714285714286</ele><time>2026-05-01T08:54:01.561Z</time></trkpt><trkpt lat="39.7357117" lon="8.9423533"><ele>351.8571428571429</ele><time>2026-05-01T08:54:02.623Z</time></trkpt><trkpt lat="39.7356633" lon="8.9422867"><ele>349.1428571428571</ele><time>2026-05-01T08:54:03.558Z</time></trkpt><trkpt lat="39.7356083" lon="8.9422183"><ele>346.42857142857144</ele><time>2026-05-01T08:54:04.561Z</time></trkpt><trkpt lat="39.7355483" lon="8.9421517"><ele>343.7142857142857</ele><time>2026-05-01T08:54:05.562Z</time></trkpt><trkpt lat="39.7354817" lon="8.9420833"><ele>341.0</ele><time>2026-05-01T08:54:06.557Z</time></trkpt><trkpt lat="39.7354133" lon="8.9420117"><ele>341.0</ele><time>2026-05-01T08:54:07.562Z</time></trkpt><trkpt lat="39.7353433" lon="8.9419433"><ele>341.0</ele><time>2026-05-01T08:54:08.599Z</time></trkpt><trkpt lat="39.7352767" lon="8.9418767"><ele>341.0</ele><time>2026-05-01T08:54:09.56Z</time></trkpt><trkpt lat="39.735215" lon="8.9418033"><ele>341.0</ele><time>2026-05-01T08:54:10.561Z</time></trkpt><trkpt lat="39.7351567" lon="8.9417283"><ele>341.0</ele><time>2026-05-01T08:54:11.558Z</time></trkpt><trkpt lat="39.7351017" lon="8.9416533"><ele>341.0</ele><time>2026-05-01T08:54:12.56Z</time></trkpt><trkpt lat="39.7350483" lon="8.9415783"><ele>340.33333333333337</ele><time>2026-05-01T08:54:13.556Z</time></trkpt><trkpt lat="39.73499" lon="8.941505"><ele>339.6666666666667</ele><time>2026-05-01T08:54:14.601Z</time></trkpt><trkpt lat="39.7349283" lon="8.9414333"><ele>339.0</ele><time>2026-05-01T08:54:15.556Z</time></trkpt><trkpt lat="39.734865" lon="8.9413767"><ele>338.3333333333333</ele><time>2026-05-01T08:54:16.561Z</time></trkpt><trkpt lat="39.7348" lon="8.94133"><ele>337.66666666666663</ele><time>2026-05-01T08:54:17.557Z</time></trkpt><trkpt lat="39.7347317" lon="8.941295"><ele>337.0</ele><time>2026-05-01T08:54:18.557Z</time></trkpt><trkpt lat="39.7346583" lon="8.941275"><ele>337.00000000000006</ele><time>2026-05-01T08:54:19.562Z</time></trkpt><trkpt lat="39.7345817" lon="8.94126"><ele>337.0</ele><time>2026-05-01T08:54:20.597Z</time></trkpt><trkpt lat="39.7345033" lon="8.94125"><ele>337.0</ele><time>2026-05-01T08:54:21.559Z</time></trkpt><trkpt lat="39.734425" lon="8.9412383"><ele>337.0</ele><time>2026-05-01T08:54:22.56Z</time></trkpt><trkpt lat="39.73435" lon="8.9412283"><ele>337.0</ele><time>2026-05-01T08:54:23.562Z</time></trkpt><trkpt lat="39.7342817" lon="8.94122"><ele>337.00000000000006</ele><time>2026-05-01T08:54:24.56Z</time></trkpt><trkpt lat="39.7342183" lon="8.9412167"><ele>337.0</ele><time>2026-05-01T08:54:25.561Z</time></trkpt><trkpt lat="39.7341067" lon="8.9412383"><ele>336.8</ele><time>2026-05-01T08:54:27.561Z</time></trkpt><trkpt lat="39.73402" lon="8.941315"><ele>336.6</ele><time>2026-05-01T08:54:29.56Z</time></trkpt><trkpt lat="39.733955" lon="8.94145"><ele>336.40000000000003</ele><time>2026-05-01T08:54:31.556Z</time></trkpt><trkpt lat="39.7339317" lon="8.9415367"><ele>336.20000000000005</ele><time>2026-05-01T08:54:32.625Z</time></trkpt><trkpt lat="39.7339117" lon="8.94164"><ele>336.0</ele><time>2026-05-01T08:54:33.557Z</time></trkpt><trkpt lat="39.73389" lon="8.94175"><ele>338.0</ele><time>2026-05-01T08:54:34.556Z</time></trkpt><trkpt lat="39.733865" lon="8.94186"><ele>340.0</ele><time>2026-05-01T08:54:35.561Z</time></trkpt><trkpt lat="39.7338367" lon="8.9419733"><ele>342.0</ele><time>2026-05-01T08:54:36.56Z</time></trkpt><trkpt lat="39.7338083" lon="8.9420833"><ele>344.0</ele><time>2026-05-01T08:54:37.562Z</time></trkpt><trkpt lat="39.73378" lon="8.9421983"><ele>346.0</ele><time>2026-05-01T08:54:38.604Z</time></trkpt><trkpt lat="39.73375" lon="8.9423133"><ele>346.0</ele><time>2026-05-01T08:54:39.559Z</time></trkpt><trkpt lat="39.7337183" lon="8.94243"><ele>346.0</ele><time>2026-05-01T08:54:40.562Z</time></trkpt><trkpt lat="39.73369" lon="8.94255"><ele>346.0</ele><time>2026-05-01T08:54:41.558Z</time></trkpt><trkpt lat="39.73367" lon="8.942685"><ele>346.0</ele><time>2026-05-01T08:54:42.559Z</time></trkpt><trkpt lat="39.7336517" lon="8.942815"><ele>346.0</ele><time>2026-05-01T08:54:43.562Z</time></trkpt><trkpt lat="39.733625" lon="8.9429383"><ele>347.20000000000005</ele><time>2026-05-01T08:54:44.602Z</time></trkpt><trkpt lat="39.7335933" lon="8.9430683"><ele>348.40000000000003</ele><time>2026-05-01T08:54:45.555Z</time></trkpt><trkpt lat="39.7335533" lon="8.943175"><ele>349.6</ele><time>2026-05-01T08:54:46.562Z</time></trkpt><trkpt lat="39.7334983" lon="8.9432967"><ele>350.8</ele><time>2026-05-01T08:54:47.56Z</time></trkpt><trkpt lat="39.73346" lon="8.9433883"><ele>352.0</ele><time>2026-05-01T08:54:48.558Z</time></trkpt><trkpt lat="39.7333983" lon="8.9434933"><ele>352.0</ele><time>2026-05-01T08:54:49.558Z</time></trkpt><trkpt lat="39.7333283" lon="8.9435933"><ele>352.0</ele><time>2026-05-01T08:54:50.597Z</time></trkpt><trkpt lat="39.733265" lon="8.94369"><ele>352.0</ele><time>2026-05-01T08:54:51.561Z</time></trkpt><trkpt lat="39.7331933" lon="8.94376"><ele>352.0</ele><time>2026-05-01T08:54:52.563Z</time></trkpt><trkpt lat="39.7331233" lon="8.943845"><ele>352.0</ele><time>2026-05-01T08:54:53.558Z</time></trkpt><trkpt lat="39.73307" lon="8.9439417"><ele>352.0</ele><time>2026-05-01T08:54:54.563Z</time></trkpt><trkpt lat="39.733025" lon="8.9440683"><ele>352.0</ele><time>2026-05-01T08:54:55.555Z</time></trkpt><trkpt lat="39.73299" lon="8.9441967"><ele>352.0</ele><time>2026-05-01T08:54:56.626Z</time></trkpt><trkpt lat="39.7329617" lon="8.9443167"><ele>352.0</ele><time>2026-05-01T08:54:57.558Z</time></trkpt><trkpt lat="39.7329367" lon="8.94444"><ele>352.0</ele><time>2026-05-01T08:54:58.56Z</time></trkpt><trkpt lat="39.7329" lon="8.944555"><ele>352.6</ele><time>2026-05-01T08:54:59.559Z</time></trkpt><trkpt lat="39.7328617" lon="8.9446783"><ele>353.20000000000005</ele><time>2026-05-01T08:55:00.558Z</time></trkpt><trkpt lat="39.7328167" lon="8.94479"><ele>353.8</ele><time>2026-05-01T08:55:01.559Z</time></trkpt><trkpt lat="39.732755" lon="8.9449"><ele>354.4</ele><time>2026-05-01T08:55:02.626Z</time></trkpt><trkpt lat="39.7326933" lon="8.9450383"><ele>355.0</ele><time>2026-05-01T08:55:03.559Z</time></trkpt><trkpt lat="39.7326433" lon="8.9451633"><ele>355.0</ele><time>2026-05-01T08:55:04.56Z</time></trkpt><trkpt lat="39.732595" lon="8.9452867"><ele>355.0</ele><time>2026-05-01T08:55:05.562Z</time></trkpt><trkpt lat="39.7325433" lon="8.9454083"><ele>355.0</ele><time>2026-05-01T08:55:06.558Z</time></trkpt><trkpt lat="39.7325083" lon="8.9455317"><ele>355.0</ele><time>2026-05-01T08:55:07.562Z</time></trkpt><trkpt lat="39.732465" lon="8.9456367"><ele>355.0</ele><time>2026-05-01T08:55:08.61Z</time></trkpt><trkpt lat="39.7324183" lon="8.9457283"><ele>355.0</ele><time>2026-05-01T08:55:09.558Z</time></trkpt><trkpt lat="39.7323717" lon="8.94587"><ele>355.0</ele><time>2026-05-01T08:55:11.557Z</time></trkpt><trkpt lat="39.73234" lon="8.9460283"><ele>355.0</ele><time>2026-05-01T08:55:13.558Z</time></trkpt><trkpt lat="39.7323333" lon="8.946125"><ele>355.0</ele><time>2026-05-01T08:55:14.598Z</time></trkpt><trkpt lat="39.7323183" lon="8.9462283"><ele>355.0</ele><time>2026-05-01T08:55:15.555Z</time></trkpt><trkpt lat="39.7323017" lon="8.9463333"><ele>356.3333333333333</ele><time>2026-05-01T08:55:16.559Z</time></trkpt><trkpt lat="39.732285" lon="8.9464417"><ele>357.66666666666663</ele><time>2026-05-01T08:55:17.559Z</time></trkpt><trkpt lat="39.7322767" lon="8.9465517"><ele>359.0</ele><time>2026-05-01T08:55:18.559Z</time></trkpt><trkpt lat="39.732285" lon="8.9466633"><ele>360.3333333333333</ele><time>2026-05-01T08:55:19.559Z</time></trkpt><trkpt lat="39.7323033" lon="8.946775"><ele>361.6666666666667</ele><time>2026-05-01T08:55:20.603Z</time></trkpt><trkpt lat="39.7323233" lon="8.9468917"><ele>363.0</ele><time>2026-05-01T08:55:21.558Z</time></trkpt><trkpt lat="39.732345" lon="8.94701"><ele>362.59999999999997</ele><time>2026-05-01T08:55:22.556Z</time></trkpt><trkpt lat="39.7323783" lon="8.947145"><ele>362.2</ele><time>2026-05-01T08:55:23.556Z</time></trkpt><trkpt lat="39.732405" lon="8.9472633"><ele>361.8</ele><time>2026-05-01T08:55:24.561Z</time></trkpt><trkpt lat="39.7324283" lon="8.947385"><ele>361.4</ele><time>2026-05-01T08:55:25.557Z</time></trkpt><trkpt lat="39.7324467" lon="8.9475017"><ele>361.0</ele><time>2026-05-01T08:55:26.627Z</time></trkpt><trkpt lat="39.73248" lon="8.94761"><ele>361.0</ele><time>2026-05-01T08:55:27.561Z</time></trkpt><trkpt lat="39.7325133" lon="8.947715"><ele>361.0</ele><time>2026-05-01T08:55:28.557Z</time></trkpt><trkpt lat="39.73256" lon="8.9478117"><ele>361.0</ele><time>2026-05-01T08:55:29.562Z</time></trkpt><trkpt lat="39.7326233" lon="8.9479067"><ele>361.0</ele><time>2026-05-01T08:55:30.555Z</time></trkpt><trkpt lat="39.7327" lon="8.947995"><ele>361.0</ele><time>2026-05-01T08:55:31.56Z</time></trkpt><trkpt lat="39.73277" lon="8.948095"><ele>365.4</ele><time>2026-05-01T08:55:32.623Z</time></trkpt><trkpt lat="39.7328467" lon="8.94819"><ele>369.8</ele><time>2026-05-01T08:55:33.561Z</time></trkpt><trkpt lat="39.73292" lon="8.9482867"><ele>374.2</ele><time>2026-05-01T08:55:34.561Z</time></trkpt><trkpt lat="39.7329733" lon="8.948395"><ele>378.59999999999997</ele><time>2026-05-01T08:55:35.559Z</time></trkpt><trkpt lat="39.73304" lon="8.9485067"><ele>383.0</ele><time>2026-05-01T08:55:36.559Z</time></trkpt><trkpt lat="39.7331033" lon="8.9486267"><ele>383.0</ele><time>2026-05-01T08:55:37.557Z</time></trkpt><trkpt lat="39.7331633" lon="8.948745"><ele>383.0</ele><time>2026-05-01T08:55:38.602Z</time></trkpt><trkpt lat="39.73322" lon="8.9488567"><ele>383.0</ele><time>2026-05-01T08:55:39.559Z</time></trkpt><trkpt lat="39.733255" lon="8.9489667"><ele>383.0</ele><time>2026-05-01T08:55:40.56Z</time></trkpt><trkpt lat="39.7333133" lon="8.9490583"><ele>383.0</ele><time>2026-05-01T08:55:41.557Z</time></trkpt><trkpt lat="39.7333783" lon="8.9491183"><ele>383.0</ele><time>2026-05-01T08:55:42.56Z</time></trkpt><trkpt lat="39.7334367" lon="8.94916"><ele>383.0</ele><time>2026-05-01T08:55:43.558Z</time></trkpt><trkpt lat="39.7335" lon="8.949175"><ele>383.0</ele><time>2026-05-01T08:55:44.602Z</time></trkpt><trkpt lat="39.73356" lon="8.9491383"><ele>383.0</ele><time>2026-05-01T08:55:45.562Z</time></trkpt><trkpt lat="39.7336133" lon="8.9490917"><ele>383.0</ele><time>2026-05-01T08:55:46.559Z</time></trkpt><trkpt lat="39.7336783" lon="8.9489533"><ele>383.0</ele><time>2026-05-01T08:55:48.557Z</time></trkpt><trkpt lat="39.7336667" lon="8.9488417"><ele>386.2</ele><time>2026-05-01T08:55:49.56Z</time></trkpt><trkpt lat="39.733655" lon="8.9487433"><ele>389.4</ele><time>2026-05-01T08:55:50.601Z</time></trkpt><trkpt lat="39.7336333" lon="8.94862"><ele>392.59999999999997</ele><time>2026-05-01T08:55:51.56Z</time></trkpt><trkpt lat="39.733615" lon="8.948475"><ele>395.79999999999995</ele><time>2026-05-01T08:55:52.558Z</time></trkpt><trkpt lat="39.7336117" lon="8.9483417"><ele>399.0</ele><time>2026-05-01T08:55:53.555Z</time></trkpt><trkpt lat="39.7336183" lon="8.9482217"><ele>399.0</ele><time>2026-05-01T08:55:54.555Z</time></trkpt><trkpt lat="39.7336283" lon="8.9481083"><ele>399.0</ele><time>2026-05-01T08:55:55.563Z</time></trkpt><trkpt lat="39.7336333" lon="8.9479983"><ele>399.0</ele><time>2026-05-01T08:55:56.624Z</time></trkpt><trkpt lat="39.7336367" lon="8.9479017"><ele>399.0</ele><time>2026-05-01T08:55:57.557Z</time></trkpt><trkpt lat="39.7336517" lon="8.9477983"><ele>399.0</ele><time>2026-05-01T08:55:59.555Z</time></trkpt><trkpt lat="39.7336483" lon="8.947715"><ele>399.0</ele><time>2026-05-01T08:56:02.626Z</time></trkpt><trkpt lat="39.7335717" lon="8.9476417"><ele>399.0</ele><time>2026-05-01T09:00:36.558Z</time></trkpt><trkpt lat="39.7334933" lon="8.947575"><ele>399.0</ele><time>2026-05-01T09:01:33.558Z</time></trkpt><trkpt lat="39.7335733" lon="8.9475667"><ele>399.0</ele><time>2026-05-01T09:02:28.56Z</time></trkpt><trkpt lat="39.7336667" lon="8.9475833"><ele>399.0</ele><time>2026-05-01T09:02:30.563Z</time></trkpt><trkpt lat="39.7337583" lon="8.9476033"><ele>399.0</ele><time>2026-05-01T09:02:32.625Z</time></trkpt><trkpt lat="39.733855" lon="8.94765"><ele>399.0</ele><time>2026-05-01T09:02:34.561Z</time></trkpt><trkpt lat="39.7339717" lon="8.9477017"><ele>399.0</ele><time>2026-05-01T09:02:36.558Z</time></trkpt><trkpt lat="39.7340667" lon="8.94775"><ele>399.0</ele><time>2026-05-01T09:02:38.606Z</time></trkpt><trkpt lat="39.734175" lon="8.947805"><ele>399.0</ele><time>2026-05-01T09:02:40.557Z</time></trkpt><trkpt lat="39.734265" lon="8.9478617"><ele>399.0</ele><time>2026-05-01T09:02:42.56Z</time></trkpt><trkpt lat="39.7343533" lon="8.947925"><ele>400.79999999999995</ele><time>2026-05-01T09:02:44.605Z</time></trkpt><trkpt lat="39.73444" lon="8.9479833"><ele>402.59999999999997</ele><time>2026-05-01T09:02:46.56Z</time></trkpt><trkpt lat="39.734525" lon="8.9480383"><ele>404.4</ele><time>2026-05-01T09:02:48.558Z</time></trkpt><trkpt lat="39.7346133" lon="8.9480817"><ele>406.2</ele><time>2026-05-01T09:02:50.608Z</time></trkpt><trkpt lat="39.7346983" lon="8.948125"><ele>408.0</ele><time>2026-05-01T09:02:52.559Z</time></trkpt><trkpt lat="39.7347833" lon="8.9481633"><ele>408.0</ele><time>2026-05-01T09:02:54.559Z</time></trkpt><trkpt lat="39.7348667" lon="8.9482067"><ele>408.0</ele><time>2026-05-01T09:02:56.627Z</time></trkpt><trkpt lat="39.7349433" lon="8.9482433"><ele>408.0</ele><time>2026-05-01T09:02:58.558Z</time></trkpt><trkpt lat="39.7350233" lon="8.948275"><ele>408.0</ele><time>2026-05-01T09:03:00.557Z</time></trkpt><trkpt lat="39.7351033" lon="8.9483"><ele>408.0</ele><time>2026-05-01T09:03:02.624Z</time></trkpt><trkpt lat="39.7352017" lon="8.94833"><ele>408.0</ele><time>2026-05-01T09:03:04.559Z</time></trkpt><trkpt lat="39.73533" lon="8.9483733"><ele>414.4</ele><time>2026-05-01T09:03:06.557Z</time></trkpt><trkpt lat="39.7354067" lon="8.9483983"><ele>420.79999999999995</ele><time>2026-05-01T09:03:07.559Z</time></trkpt><trkpt lat="39.7354883" lon="8.9484233"><ele>427.2</ele><time>2026-05-01T09:03:08.606Z</time></trkpt><trkpt lat="39.73558" lon="8.9484467"><ele>433.6</ele><time>2026-05-01T09:03:09.56Z</time></trkpt><trkpt lat="39.7356817" lon="8.9484683"><ele>440.0</ele><time>2026-05-01T09:03:10.56Z</time></trkpt><trkpt lat="39.7358067" lon="8.9484883"><ele>440.0</ele><time>2026-05-01T09:03:11.558Z</time></trkpt><trkpt lat="39.735915" lon="8.9485033"><ele>440.0</ele><time>2026-05-01T09:03:12.557Z</time></trkpt><trkpt lat="39.7360233" lon="8.94851"><ele>440.0</ele><time>2026-05-01T09:03:13.557Z</time></trkpt><trkpt lat="39.7361383" lon="8.9485117"><ele>440.0</ele><time>2026-05-01T09:03:14.609Z</time></trkpt><trkpt lat="39.7362633" lon="8.9485083"><ele>443.75</ele><time>2026-05-01T09:03:15.561Z</time></trkpt><trkpt lat="39.7363983" lon="8.948485"><ele>447.5</ele><time>2026-05-01T09:03:16.559Z</time></trkpt><trkpt lat="39.7365433" lon="8.9484583"><ele>451.25</ele><time>2026-05-01T09:03:17.557Z</time></trkpt><trkpt lat="39.7366883" lon="8.948435"><ele>455.0</ele><time>2026-05-01T09:03:18.561Z</time></trkpt><trkpt lat="39.7368317" lon="8.9484083"><ele>450.66666666666663</ele><time>2026-05-01T09:03:19.557Z</time></trkpt><trkpt lat="39.7369833" lon="8.9483767"><ele>446.33333333333337</ele><time>2026-05-01T09:03:20.605Z</time></trkpt><trkpt lat="39.7371317" lon="8.9483467"><ele>442.0</ele><time>2026-05-01T09:03:21.558Z</time></trkpt><trkpt lat="39.73728" lon="8.9483083"><ele>442.0</ele><time>2026-05-01T09:03:22.558Z</time></trkpt><trkpt lat="39.7374317" lon="8.9482717"><ele>442.0</ele><time>2026-05-01T09:03:23.563Z</time></trkpt><trkpt lat="39.7375867" lon="8.9482017"><ele>442.0</ele><time>2026-05-01T09:03:24.559Z</time></trkpt><trkpt lat="39.7377233" lon="8.94816"><ele>446.5</ele><time>2026-05-01T09:03:25.56Z</time></trkpt><trkpt lat="39.7378583" lon="8.9481083"><ele>451.0</ele><time>2026-05-01T09:03:26.584Z</time></trkpt><trkpt lat="39.738005" lon="8.9480667"><ele>455.5</ele><time>2026-05-01T09:03:27.558Z</time></trkpt><trkpt lat="39.7381433" lon="8.9480383"><ele>460.0</ele><time>2026-05-01T09:03:28.559Z</time></trkpt><trkpt lat="39.738285" lon="8.9480083"><ele>460.0</ele><time>2026-05-01T09:03:29.559Z</time></trkpt><trkpt lat="39.7384317" lon="8.947985"><ele>460.0</ele><time>2026-05-01T09:03:30.558Z</time></trkpt><trkpt lat="39.73858" lon="8.947945"><ele>460.0</ele><time>2026-05-01T09:03:31.561Z</time></trkpt><trkpt lat="39.7387167" lon="8.947905"><ele>460.0</ele><time>2026-05-01T09:03:32.624Z</time></trkpt><trkpt lat="39.7388533" lon="8.9478517"><ele>467.33333333333337</ele><time>2026-05-01T09:03:33.559Z</time></trkpt><trkpt lat="39.7389983" lon="8.9477883"><ele>474.66666666666663</ele><time>2026-05-01T09:03:34.559Z</time></trkpt><trkpt lat="39.7391417" lon="8.947725"><ele>482.0</ele><time>2026-05-01T09:03:35.559Z</time></trkpt><trkpt lat="39.7392867" lon="8.9476683"><ele>485.75</ele><time>2026-05-01T09:03:36.559Z</time></trkpt><trkpt lat="39.7394283" lon="8.94762"><ele>489.5</ele><time>2026-05-01T09:03:37.559Z</time></trkpt><trkpt lat="39.7395733" lon="8.9475833"><ele>493.25</ele><time>2026-05-01T09:03:38.603Z</time></trkpt><trkpt lat="39.7397217" lon="8.9475583"><ele>497.0</ele><time>2026-05-01T09:03:39.56Z</time></trkpt><trkpt lat="39.7398717" lon="8.9475533"><ele>497.0</ele><time>2026-05-01T09:03:40.556Z</time></trkpt><trkpt lat="39.7400217" lon="8.9475717"><ele>497.0</ele><time>2026-05-01T09:03:41.561Z</time></trkpt><trkpt lat="39.7401683" lon="8.947595"><ele>497.0</ele><time>2026-05-01T09:03:42.559Z</time></trkpt><trkpt lat="39.74031" lon="8.947625"><ele>497.0</ele><time>2026-05-01T09:03:43.557Z</time></trkpt><trkpt lat="39.7404467" lon="8.94766"><ele>499.25</ele><time>2026-05-01T09:03:44.608Z</time></trkpt><trkpt lat="39.7405667" lon="8.947695"><ele>501.5</ele><time>2026-05-01T09:03:45.561Z</time></trkpt><trkpt lat="39.7406833" lon="8.9477217"><ele>503.75</ele><time>2026-05-01T09:03:46.558Z</time></trkpt><trkpt lat="39.7408" lon="8.9477283"><ele>506.0</ele><time>2026-05-01T09:03:47.555Z</time></trkpt><trkpt lat="39.740915" lon="8.9477217"><ele>506.0</ele><time>2026-05-01T09:03:48.56Z</time></trkpt><trkpt lat="39.7410283" lon="8.9476983"><ele>506.0</ele><time>2026-05-01T09:03:49.561Z</time></trkpt><trkpt lat="39.7411383" lon="8.947665"><ele>506.0</ele><time>2026-05-01T09:03:50.605Z</time></trkpt><trkpt lat="39.741245" lon="8.94762"><ele>506.0</ele><time>2026-05-01T09:03:51.559Z</time></trkpt><trkpt lat="39.7413417" lon="8.94756"><ele>506.0</ele><time>2026-05-01T09:03:52.557Z</time></trkpt><trkpt lat="39.7414333" lon="8.9474933"><ele>504.20000000000005</ele><time>2026-05-01T09:03:53.559Z</time></trkpt><trkpt lat="39.7415217" lon="8.9474317"><ele>502.40000000000003</ele><time>2026-05-01T09:03:54.56Z</time></trkpt><trkpt lat="39.7416133" lon="8.9473767"><ele>500.6</ele><time>2026-05-01T09:03:55.559Z</time></trkpt><trkpt lat="39.74171" lon="8.947335"><ele>498.8</ele><time>2026-05-01T09:03:56.625Z</time></trkpt><trkpt lat="39.74181" lon="8.9473033"><ele>497.0</ele><time>2026-05-01T09:03:57.561Z</time></trkpt><trkpt lat="39.7419133" lon="8.9472717"><ele>501.5</ele><time>2026-05-01T09:03:58.559Z</time></trkpt><trkpt lat="39.7420017" lon="8.94722"><ele>506.0</ele><time>2026-05-01T09:03:59.558Z</time></trkpt><trkpt lat="39.7420983" lon="8.947165"><ele>510.5</ele><time>2026-05-01T09:04:00.559Z</time></trkpt><trkpt lat="39.7422067" lon="8.94709"><ele>515.0</ele><time>2026-05-01T09:04:01.557Z</time></trkpt><trkpt lat="39.7423233" lon="8.9470033"><ele>515.0</ele><time>2026-05-01T09:04:02.623Z</time></trkpt><trkpt lat="39.7424433" lon="8.9469117"><ele>515.0</ele><time>2026-05-01T09:04:03.559Z</time></trkpt><trkpt lat="39.7425633" lon="8.94682"><ele>515.0</ele><time>2026-05-01T09:04:04.558Z</time></trkpt><trkpt lat="39.7426917" lon="8.9467433"><ele>515.0</ele><time>2026-05-01T09:04:05.559Z</time></trkpt><trkpt lat="39.742825" lon="8.94668"><ele>514.25</ele><time>2026-05-01T09:04:06.556Z</time></trkpt><trkpt lat="39.742965" lon="8.9466333"><ele>513.5</ele><time>2026-05-01T09:04:07.575Z</time></trkpt><trkpt lat="39.7431033" lon="8.9465883"><ele>512.75</ele><time>2026-05-01T09:04:08.608Z</time></trkpt><trkpt lat="39.7432417" lon="8.946545"><ele>512.0</ele><time>2026-05-01T09:04:09.56Z</time></trkpt><trkpt lat="39.7433617" lon="8.946495"><ele>512.0</ele><time>2026-05-01T09:04:10.56Z</time></trkpt><trkpt lat="39.7434817" lon="8.9464517"><ele>512.0</ele><time>2026-05-01T09:04:11.563Z</time></trkpt><trkpt lat="39.7435833" lon="8.9463917"><ele>512.0</ele><time>2026-05-01T09:04:12.561Z</time></trkpt><trkpt lat="39.7436817" lon="8.94633"><ele>512.0</ele><time>2026-05-01T09:04:13.561Z</time></trkpt><trkpt lat="39.7437667" lon="8.9462533"><ele>512.0</ele><time>2026-05-01T09:04:14.61Z</time></trkpt><trkpt lat="39.7438433" lon="8.9461683"><ele>516.5</ele><time>2026-05-01T09:04:15.561Z</time></trkpt><trkpt lat="39.74392" lon="8.9460733"><ele>521.0</ele><time>2026-05-01T09:04:16.557Z</time></trkpt><trkpt lat="39.7439817" lon="8.9459467"><ele>525.5</ele><time>2026-05-01T09:04:17.556Z</time></trkpt><trkpt lat="39.74403" lon="8.9458083"><ele>530.0</ele><time>2026-05-01T09:04:18.559Z</time></trkpt><trkpt lat="39.744055" lon="8.9456417"><ele>530.0</ele><time>2026-05-01T09:04:19.556Z</time></trkpt><trkpt lat="39.7440533" lon="8.945435"><ele>530.0</ele><time>2026-05-01T09:04:20.605Z</time></trkpt><trkpt lat="39.7440583" lon="8.9452333"><ele>530.0</ele><time>2026-05-01T09:04:21.558Z</time></trkpt><trkpt lat="39.74405" lon="8.9450233"><ele>530.0</ele><time>2026-05-01T09:04:22.556Z</time></trkpt><trkpt lat="39.7440417" lon="8.9448183"><ele>530.0</ele><time>2026-05-01T09:04:23.557Z</time></trkpt><trkpt lat="39.74401" lon="8.9446"><ele>530.0</ele><time>2026-05-01T09:04:24.556Z</time></trkpt><trkpt lat="39.7439983" lon="8.94441"><ele>530.0</ele><time>2026-05-01T09:04:25.558Z</time></trkpt><trkpt lat="39.7439833" lon="8.9442383"><ele>530.0</ele><time>2026-05-01T09:04:26.623Z</time></trkpt><trkpt lat="39.74397" lon="8.9440867"><ele>530.0</ele><time>2026-05-01T09:04:27.555Z</time></trkpt><trkpt lat="39.7439617" lon="8.9439433"><ele>530.0</ele><time>2026-05-01T09:04:28.556Z</time></trkpt><trkpt lat="39.7439683" lon="8.94384"><ele>530.0</ele><time>2026-05-01T09:04:29.557Z</time></trkpt><trkpt lat="39.74403" lon="8.9438883"><ele>530.0</ele><time>2026-05-01T09:04:31.556Z</time></trkpt><trkpt lat="39.744105" lon="8.9440167"><ele>530.0</ele><time>2026-05-01T09:04:33.554Z</time></trkpt><trkpt lat="39.74416" lon="8.9441233"><ele>530.0</ele><time>2026-05-01T09:04:34.558Z</time></trkpt><trkpt lat="39.7442333" lon="8.944235"><ele>530.0</ele><time>2026-05-01T09:04:35.558Z</time></trkpt><trkpt lat="39.74433" lon="8.944365"><ele>534.75</ele><time>2026-05-01T09:04:36.558Z</time></trkpt><trkpt lat="39.7444167" lon="8.9444567"><ele>539.5</ele><time>2026-05-01T09:04:37.556Z</time></trkpt><trkpt lat="39.74451" lon="8.9445333"><ele>544.25</ele><time>2026-05-01T09:04:38.606Z</time></trkpt><trkpt lat="39.7446117" lon="8.9445967"><ele>549.0</ele><time>2026-05-01T09:04:39.554Z</time></trkpt><trkpt lat="39.7447333" lon="8.9446883"><ele>549.0</ele><time>2026-05-01T09:04:40.559Z</time></trkpt><trkpt lat="39.744855" lon="8.9447633"><ele>549.0</ele><time>2026-05-01T09:04:41.555Z</time></trkpt><trkpt lat="39.7449633" lon="8.94486"><ele>549.0</ele><time>2026-05-01T09:04:42.555Z</time></trkpt><trkpt lat="39.745065" lon="8.9449467"><ele>549.0</ele><time>2026-05-01T09:04:43.558Z</time></trkpt><trkpt lat="39.7451517" lon="8.9450267"><ele>552.75</ele><time>2026-05-01T09:04:44.604Z</time></trkpt><trkpt lat="39.7452333" lon="8.9450933"><ele>556.5</ele><time>2026-05-01T09:04:45.558Z</time></trkpt><trkpt lat="39.7453483" lon="8.9451"><ele>560.25</ele><time>2026-05-01T09:04:47.561Z</time></trkpt><trkpt lat="39.7454317" lon="8.9450217"><ele>564.0</ele><time>2026-05-01T09:04:49.56Z</time></trkpt><trkpt lat="39.7454433" lon="8.9448383"><ele>564.2</ele><time>2026-05-01T09:04:51.559Z</time></trkpt><trkpt lat="39.745425" lon="8.9447183"><ele>564.4</ele><time>2026-05-01T09:04:52.556Z</time></trkpt><trkpt lat="39.7453867" lon="8.94458"><ele>564.6</ele><time>2026-05-01T09:04:53.556Z</time></trkpt><trkpt lat="39.7453567" lon="8.9444583"><ele>564.8</ele><time>2026-05-01T09:04:54.558Z</time></trkpt><trkpt lat="39.7453217" lon="8.9443367"><ele>565.0</ele><time>2026-05-01T09:04:55.557Z</time></trkpt><trkpt lat="39.745255" lon="8.9442033"><ele>564.0</ele><time>2026-05-01T09:04:56.624Z</time></trkpt><trkpt lat="39.7451967" lon="8.9440867"><ele>563.0</ele><time>2026-05-01T09:04:57.557Z</time></trkpt><trkpt lat="39.7451367" lon="8.94399"><ele>562.0</ele><time>2026-05-01T09:04:58.559Z</time></trkpt><trkpt lat="39.745075" lon="8.9439033"><ele>561.0</ele><time>2026-05-01T09:04:59.558Z</time></trkpt><trkpt lat="39.745025" lon="8.9438283"><ele>560.0</ele><time>2026-05-01T09:05:00.555Z</time></trkpt><trkpt lat="39.7449867" lon="8.943685"><ele>560.0</ele><time>2026-05-01T09:05:02.622Z</time></trkpt><trkpt lat="39.744985" lon="8.943535"><ele>560.0</ele><time>2026-05-01T09:05:04.558Z</time></trkpt><trkpt lat="39.74501" lon="8.94339"><ele>560.0</ele><time>2026-05-01T09:05:06.557Z</time></trkpt><trkpt lat="39.74507" lon="8.94327"><ele>560.0</ele><time>2026-05-01T09:05:08.602Z</time></trkpt><trkpt lat="39.7451067" lon="8.94318"><ele>560.0</ele><time>2026-05-01T09:05:10.558Z</time></trkpt><trkpt lat="39.7451483" lon="8.9431117"><ele>561.4</ele><time>2026-05-01T09:05:13.557Z</time></trkpt><trkpt lat="39.74509" lon="8.9430383"><ele>562.8</ele><time>2026-05-01T09:11:19.554Z</time></trkpt><trkpt lat="39.7449833" lon="8.94296"><ele>564.2</ele><time>2026-05-01T09:11:34.554Z</time></trkpt><trkpt lat="39.7448717" lon="8.942925"><ele>565.6</ele><time>2026-05-01T09:11:52.558Z</time></trkpt><trkpt lat="39.74479" lon="8.943005"><ele>567.0</ele><time>2026-05-01T09:12:20.598Z</time></trkpt><trkpt lat="39.744815" lon="8.9430933"><ele>567.0</ele><time>2026-05-01T09:13:01.558Z</time></trkpt><trkpt lat="39.7447383" lon="8.94315"><ele>567.0</ele><time>2026-05-01T09:13:21.559Z</time></trkpt><trkpt lat="39.7448067" lon="8.943205"><ele>567.0</ele><time>2026-05-01T09:13:35.56Z</time></trkpt><trkpt lat="39.7448417" lon="8.9432767"><ele>567.0</ele><time>2026-05-01T09:13:39.558Z</time></trkpt><trkpt lat="39.7448317" lon="8.9433717"><ele>567.0</ele><time>2026-05-01T09:13:42.558Z</time></trkpt><trkpt lat="39.7448183" lon="8.9434833"><ele>567.0</ele><time>2026-05-01T09:13:45.556Z</time></trkpt><trkpt lat="39.7448033" lon="8.94357"><ele>565.8333333333334</ele><time>2026-05-01T09:13:47.555Z</time></trkpt><trkpt lat="39.7447733" lon="8.9436517"><ele>564.6666666666666</ele><time>2026-05-01T09:13:49.556Z</time></trkpt><trkpt lat="39.74476" lon="8.9437383"><ele>563.5</ele><time>2026-05-01T09:13:51.557Z</time></trkpt><trkpt lat="39.7447817" lon="8.9438317"><ele>562.3333333333333</ele><time>2026-05-01T09:13:53.559Z</time></trkpt><trkpt lat="39.7448233" lon="8.943925"><ele>561.1666666666666</ele><time>2026-05-01T09:13:55.56Z</time></trkpt><trkpt lat="39.7448633" lon="8.9440283"><ele>560.0</ele><time>2026-05-01T09:13:57.562Z</time></trkpt><trkpt lat="39.7449067" lon="8.9441333"><ele>557.8</ele><time>2026-05-01T09:13:59.558Z</time></trkpt><trkpt lat="39.7449533" lon="8.9442383"><ele>555.6</ele><time>2026-05-01T09:14:01.56Z</time></trkpt><trkpt lat="39.7449983" lon="8.94435"><ele>553.4</ele><time>2026-05-01T09:14:03.561Z</time></trkpt><trkpt lat="39.7450483" lon="8.9444567"><ele>551.2</ele><time>2026-05-01T09:14:05.561Z</time></trkpt><trkpt lat="39.7451017" lon="8.94456"><ele>549.0</ele><time>2026-05-01T09:14:07.559Z</time></trkpt><trkpt lat="39.7451433" lon="8.944675"><ele>549.0</ele><time>2026-05-01T09:14:09.559Z</time></trkpt><trkpt lat="39.745195" lon="8.9447817"><ele>549.0</ele><time>2026-05-01T09:14:11.558Z</time></trkpt><trkpt lat="39.7452517" lon="8.9449067"><ele>549.0</ele><time>2026-05-01T09:14:13.558Z</time></trkpt><trkpt lat="39.7452733" lon="8.9450417"><ele>549.0</ele><time>2026-05-01T09:14:15.558Z</time></trkpt><trkpt lat="39.7452633" lon="8.945155"><ele>549.0</ele><time>2026-05-01T09:14:17.559Z</time></trkpt><trkpt lat="39.7452233" lon="8.9452417"><ele>549.0</ele><time>2026-05-01T09:14:19.557Z</time></trkpt><trkpt lat="39.745115" lon="8.9451867"><ele>549.0</ele><time>2026-05-01T09:14:21.559Z</time></trkpt><trkpt lat="39.7450467" lon="8.945095"><ele>549.0</ele><time>2026-05-01T09:14:22.558Z</time></trkpt><trkpt lat="39.7449633" lon="8.9450033"><ele>549.0</ele><time>2026-05-01T09:14:23.558Z</time></trkpt><trkpt lat="39.74488" lon="8.9449283"><ele>549.0</ele><time>2026-05-01T09:14:24.56Z</time></trkpt><trkpt lat="39.7447933" lon="8.9448617"><ele>549.0</ele><time>2026-05-01T09:14:25.555Z</time></trkpt><trkpt lat="39.7447" lon="8.9448167"><ele>549.0</ele><time>2026-05-01T09:14:26.62Z</time></trkpt><trkpt lat="39.7446033" lon="8.94478"><ele>549.0</ele><time>2026-05-01T09:14:27.556Z</time></trkpt><trkpt lat="39.7445067" lon="8.9447283"><ele>549.0</ele><time>2026-05-01T09:14:28.557Z</time></trkpt><trkpt lat="39.7444183" lon="8.944675"><ele>549.0</ele><time>2026-05-01T09:14:29.555Z</time></trkpt><trkpt lat="39.744335" lon="8.9446083"><ele>547.1666666666666</ele><time>2026-05-01T09:14:30.556Z</time></trkpt><trkpt lat="39.7442583" lon="8.9445317"><ele>545.3333333333334</ele><time>2026-05-01T09:14:31.557Z</time></trkpt><trkpt lat="39.744185" lon="8.9444433"><ele>543.5</ele><time>2026-05-01T09:14:32.617Z</time></trkpt><trkpt lat="39.7441267" lon="8.9443483"><ele>541.6666666666667</ele><time>2026-05-01T09:14:33.557Z</time></trkpt><trkpt lat="39.74408" lon="8.94426"><ele>539.8333333333334</ele><time>2026-05-01T09:14:34.555Z</time></trkpt><trkpt lat="39.7440417" lon="8.9441783"><ele>538.0</ele><time>2026-05-01T09:14:35.557Z</time></trkpt><trkpt lat="39.74401" lon="8.9441033"><ele>538.0</ele><time>2026-05-01T09:14:36.555Z</time></trkpt><trkpt lat="39.7439517" lon="8.9440033"><ele>538.0</ele><time>2026-05-01T09:14:38.599Z</time></trkpt><trkpt lat="39.7439033" lon="8.9440633"><ele>538.0</ele><time>2026-05-01T09:14:40.558Z</time></trkpt><trkpt lat="39.74389" lon="8.94416"><ele>538.0</ele><time>2026-05-01T09:14:41.557Z</time></trkpt><trkpt lat="39.74388" lon="8.944285"><ele>538.0</ele><time>2026-05-01T09:14:42.556Z</time></trkpt><trkpt lat="39.74387" lon="8.94444"><ele>536.0</ele><time>2026-05-01T09:14:43.556Z</time></trkpt><trkpt lat="39.7438633" lon="8.9445967"><ele>534.0</ele><time>2026-05-01T09:14:44.6Z</time></trkpt><trkpt lat="39.743855" lon="8.9447567"><ele>532.0</ele><time>2026-05-01T09:14:45.566Z</time></trkpt><trkpt lat="39.743845" lon="8.944915"><ele>530.0</ele><time>2026-05-01T09:14:46.556Z</time></trkpt><trkpt lat="39.7438283" lon="8.9450717"><ele>530.0</ele><time>2026-05-01T09:14:47.556Z</time></trkpt><trkpt lat="39.74381" lon="8.9452167"><ele>530.0</ele><time>2026-05-01T09:14:48.556Z</time></trkpt><trkpt lat="39.74379" lon="8.9453567"><ele>530.0</ele><time>2026-05-01T09:14:49.558Z</time></trkpt><trkpt lat="39.7437633" lon="8.9454883"><ele>530.0</ele><time>2026-05-01T09:14:50.601Z</time></trkpt><trkpt lat="39.74373" lon="8.9456117"><ele>530.0</ele><time>2026-05-01T09:14:51.558Z</time></trkpt><trkpt lat="39.74368" lon="8.9457267"><ele>530.0</ele><time>2026-05-01T09:14:52.553Z</time></trkpt><trkpt lat="39.7436333" lon="8.9458333"><ele>530.0</ele><time>2026-05-01T09:14:53.554Z</time></trkpt><trkpt lat="39.7435933" lon="8.94594"><ele>530.0</ele><time>2026-05-01T09:14:54.555Z</time></trkpt><trkpt lat="39.7435633" lon="8.9460483"><ele>530.0</ele><time>2026-05-01T09:14:55.555Z</time></trkpt><trkpt lat="39.7435367" lon="8.9461583"><ele>530.0</ele><time>2026-05-01T09:14:56.624Z</time></trkpt><trkpt lat="39.7435067" lon="8.9462667"><ele>527.0</ele><time>2026-05-01T09:14:57.555Z</time></trkpt><trkpt lat="39.7434733" lon="8.9463617"><ele>524.0</ele><time>2026-05-01T09:14:58.555Z</time></trkpt><trkpt lat="39.7434317" lon="8.9464517"><ele>521.0</ele><time>2026-05-01T09:14:59.555Z</time></trkpt><trkpt lat="39.743385" lon="8.9465267"><ele>518.0</ele><time>2026-05-01T09:15:00.554Z</time></trkpt><trkpt lat="39.743325" lon="8.9465867"><ele>515.0</ele><time>2026-05-01T09:15:01.556Z</time></trkpt><trkpt lat="39.743255" lon="8.9466383"><ele>512.0</ele><time>2026-05-01T09:15:02.614Z</time></trkpt><trkpt lat="39.7431683" lon="8.94667"><ele>512.0</ele><time>2026-05-01T09:15:03.559Z</time></trkpt><trkpt lat="39.7430667" lon="8.9466933"><ele>512.0</ele><time>2026-05-01T09:15:04.557Z</time></trkpt><trkpt lat="39.7429533" lon="8.9467167"><ele>512.0</ele><time>2026-05-01T09:15:05.558Z</time></trkpt><trkpt lat="39.742815" lon="8.9467033"><ele>512.0</ele><time>2026-05-01T09:15:06.554Z</time></trkpt><trkpt lat="39.742675" lon="8.9467"><ele>512.6</ele><time>2026-05-01T09:15:07.556Z</time></trkpt><trkpt lat="39.7425617" lon="8.94673"><ele>513.2</ele><time>2026-05-01T09:15:08.6Z</time></trkpt><trkpt lat="39.742465" lon="8.9467683"><ele>513.8</ele><time>2026-05-01T09:15:09.556Z</time></trkpt><trkpt lat="39.74235" lon="8.9468083"><ele>514.4</ele><time>2026-05-01T09:15:10.554Z</time></trkpt><trkpt lat="39.7422483" lon="8.9468717"><ele>515.0</ele><time>2026-05-01T09:15:11.556Z</time></trkpt><trkpt lat="39.7421517" lon="8.9469583"><ele>515.0</ele><time>2026-05-01T09:15:12.557Z</time></trkpt><trkpt lat="39.7420683" lon="8.9470283"><ele>515.0</ele><time>2026-05-01T09:15:13.556Z</time></trkpt><trkpt lat="39.7419917" lon="8.947105"><ele>515.0</ele><time>2026-05-01T09:15:14.596Z</time></trkpt><trkpt lat="39.7419217" lon="8.9471733"><ele>515.0</ele><time>2026-05-01T09:15:15.556Z</time></trkpt><trkpt lat="39.7418483" lon="8.94723"><ele>515.0</ele><time>2026-05-01T09:15:16.556Z</time></trkpt><trkpt lat="39.7417733" lon="8.9472767"><ele>510.5</ele><time>2026-05-01T09:15:17.555Z</time></trkpt><trkpt lat="39.74169" lon="8.9473083"><ele>506.0</ele><time>2026-05-01T09:15:18.559Z</time></trkpt><trkpt lat="39.7415867" lon="8.94732"><ele>501.5</ele><time>2026-05-01T09:15:19.557Z</time></trkpt><trkpt lat="39.74149" lon="8.94733"><ele>497.0</ele><time>2026-05-01T09:15:20.598Z</time></trkpt><trkpt lat="39.7412733" lon="8.9473433"><ele>497.0</ele><time>2026-05-01T09:15:22.556Z</time></trkpt><trkpt lat="39.74117" lon="8.9473833"><ele>497.0</ele><time>2026-05-01T09:15:23.555Z</time></trkpt><trkpt lat="39.7409517" lon="8.94756"><ele>497.0</ele><time>2026-05-01T09:15:25.556Z</time></trkpt><trkpt lat="39.7407617" lon="8.9477417"><ele>500.0</ele><time>2026-05-01T09:15:27.556Z</time></trkpt><trkpt lat="39.7405783" lon="8.9478367"><ele>503.0</ele><time>2026-05-01T09:15:29.553Z</time></trkpt><trkpt lat="39.7404817" lon="8.947845"><ele>506.0</ele><time>2026-05-01T09:15:30.556Z</time></trkpt><trkpt lat="39.7402683" lon="8.94776"><ele>503.0</ele><time>2026-05-01T09:15:32.617Z</time></trkpt><trkpt lat="39.7400517" lon="8.947655"><ele>500.0</ele><time>2026-05-01T09:15:34.557Z</time></trkpt><trkpt lat="39.7399383" lon="8.947635"><ele>497.0</ele><time>2026-05-01T09:15:35.556Z</time></trkpt><trkpt lat="39.7398283" lon="8.947625"><ele>497.0</ele><time>2026-05-01T09:15:36.554Z</time></trkpt><trkpt lat="39.739635" lon="8.9475933"><ele>497.0</ele><time>2026-05-01T09:15:38.597Z</time></trkpt><trkpt lat="39.7395433" lon="8.9475883"><ele>497.0</ele><time>2026-05-01T09:15:39.557Z</time></trkpt><trkpt lat="39.7394533" lon="8.9475867"><ele>497.0</ele><time>2026-05-01T09:15:40.556Z</time></trkpt><trkpt lat="39.739355" lon="8.9475933"><ele>492.0</ele><time>2026-05-01T09:15:41.557Z</time></trkpt><trkpt lat="39.7391467" lon="8.94766"><ele>487.0</ele><time>2026-05-01T09:15:43.558Z</time></trkpt><trkpt lat="39.7390333" lon="8.9476983"><ele>482.0</ele><time>2026-05-01T09:15:44.598Z</time></trkpt><trkpt lat="39.73892" lon="8.9477467"><ele>482.0</ele><time>2026-05-01T09:15:45.556Z</time></trkpt><trkpt lat="39.7386583" lon="8.9478683"><ele>482.0</ele><time>2026-05-01T09:15:47.557Z</time></trkpt><trkpt lat="39.73852" lon="8.947925"><ele>482.0</ele><time>2026-05-01T09:15:48.557Z</time></trkpt><trkpt lat="39.7382283" lon="8.94801"><ele>476.5</ele><time>2026-05-01T09:15:50.597Z</time></trkpt><trkpt lat="39.7381067" lon="8.948045"><ele>471.0</ele><time>2026-05-01T09:15:51.555Z</time></trkpt><trkpt lat="39.7379733" lon="8.94807"><ele>465.5</ele><time>2026-05-01T09:15:52.556Z</time></trkpt><trkpt lat="39.7378367" lon="8.94808"><ele>460.0</ele><time>2026-05-01T09:15:53.558Z</time></trkpt><trkpt lat="39.7375617" lon="8.9481617"><ele>454.0</ele><time>2026-05-01T09:15:55.555Z</time></trkpt><trkpt lat="39.7374283" lon="8.94822"><ele>448.0</ele><time>2026-05-01T09:15:56.58Z</time></trkpt><trkpt lat="39.7371583" lon="8.9482933"><ele>442.0</ele><time>2026-05-01T09:15:58.557Z</time></trkpt><trkpt lat="39.7370167" lon="8.9483217"><ele>442.0</ele><time>2026-05-01T09:15:59.555Z</time></trkpt><trkpt lat="39.7368933" lon="8.9483633"><ele>442.0</ele><time>2026-05-01T09:16:00.556Z</time></trkpt><trkpt lat="39.7367667" lon="8.9483917"><ele>442.0</ele><time>2026-05-01T09:16:01.556Z</time></trkpt><trkpt lat="39.73663" lon="8.9484017"><ele>442.0</ele><time>2026-05-01T09:16:02.614Z</time></trkpt><trkpt lat="39.7364883" lon="8.9484117"><ele>441.33333333333337</ele><time>2026-05-01T09:16:03.557Z</time></trkpt><trkpt lat="39.73624" lon="8.9484367"><ele>440.66666666666663</ele><time>2026-05-01T09:16:05.554Z</time></trkpt><trkpt lat="39.7361017" lon="8.9484583"><ele>440.0</ele><time>2026-05-01T09:16:06.555Z</time></trkpt><trkpt lat="39.7359667" lon="8.9484633"><ele>440.0</ele><time>2026-05-01T09:16:07.558Z</time></trkpt><trkpt lat="39.7358283" lon="8.948455"><ele>440.0</ele><time>2026-05-01T09:16:08.599Z</time></trkpt><trkpt lat="39.7355583" lon="8.9483817"><ele>440.0</ele><time>2026-05-01T09:16:10.554Z</time></trkpt><trkpt lat="39.7354083" lon="8.94834"><ele>434.5</ele><time>2026-05-01T09:16:11.554Z</time></trkpt><trkpt lat="39.7352667" lon="8.9482983"><ele>429.0</ele><time>2026-05-01T09:16:12.558Z</time></trkpt><trkpt lat="39.7351283" lon="8.94826"><ele>423.5</ele><time>2026-05-01T09:16:13.556Z</time></trkpt><trkpt lat="39.734995" lon="8.9482133"><ele>418.0</ele><time>2026-05-01T09:16:14.598Z</time></trkpt><trkpt lat="39.7348667" lon="8.9481633"><ele>415.5</ele><time>2026-05-01T09:16:15.555Z</time></trkpt><trkpt lat="39.7347417" lon="8.9481183"><ele>413.0</ele><time>2026-05-01T09:16:16.554Z</time></trkpt><trkpt lat="39.7346183" lon="8.9480683"><ele>410.5</ele><time>2026-05-01T09:16:17.557Z</time></trkpt><trkpt lat="39.7345033" lon="8.9480117"><ele>408.0</ele><time>2026-05-01T09:16:18.555Z</time></trkpt><trkpt lat="39.7343933" lon="8.9479383"><ele>405.75</ele><time>2026-05-01T09:16:19.557Z</time></trkpt><trkpt lat="39.73427" lon="8.94786"><ele>403.5</ele><time>2026-05-01T09:16:20.598Z</time></trkpt><trkpt lat="39.7341433" lon="8.9477767"><ele>401.25</ele><time>2026-05-01T09:16:21.554Z</time></trkpt><trkpt lat="39.7340383" lon="8.947715"><ele>399.0</ele><time>2026-05-01T09:16:22.557Z</time></trkpt><trkpt lat="39.7339383" lon="8.9476633"><ele>399.0</ele><time>2026-05-01T09:16:23.557Z</time></trkpt><trkpt lat="39.7338333" lon="8.9476283"><ele>399.0</ele><time>2026-05-01T09:16:24.553Z</time></trkpt><trkpt lat="39.7337067" lon="8.9475983"><ele>399.0</ele><time>2026-05-01T09:16:25.555Z</time></trkpt><trkpt lat="39.7336217" lon="8.9476217"><ele>399.0</ele><time>2026-05-01T09:16:26.622Z</time></trkpt><trkpt lat="39.7335417" lon="8.9476633"><ele>399.0</ele><time>2026-05-01T09:16:27.558Z</time></trkpt><trkpt lat="39.7333917" lon="8.9478617"><ele>395.0</ele><time>2026-05-01T09:16:29.559Z</time></trkpt><trkpt lat="39.73334" lon="8.948"><ele>391.0</ele><time>2026-05-01T09:16:30.557Z</time></trkpt><trkpt lat="39.7332933" lon="8.9483817"><ele>387.0</ele><time>2026-05-01T09:16:32.616Z</time></trkpt><trkpt lat="39.7333617" lon="8.94859"><ele>386.0</ele><time>2026-05-01T09:16:33.554Z</time></trkpt><trkpt lat="39.7334217" lon="8.94877"><ele>385.0</ele><time>2026-05-01T09:16:34.554Z</time></trkpt><trkpt lat="39.73344" lon="8.9489167"><ele>384.0</ele><time>2026-05-01T09:16:35.555Z</time></trkpt><trkpt lat="39.7334467" lon="8.9490367"><ele>383.0</ele><time>2026-05-01T09:16:36.553Z</time></trkpt><trkpt lat="39.7333733" lon="8.949135"><ele>383.0</ele><time>2026-05-01T09:16:38.597Z</time></trkpt><trkpt lat="39.7333083" lon="8.9491283"><ele>383.0</ele><time>2026-05-01T09:16:39.555Z</time></trkpt><trkpt lat="39.73324" lon="8.949095"><ele>383.0</ele><time>2026-05-01T09:16:40.556Z</time></trkpt><trkpt lat="39.73317" lon="8.94903"><ele>383.0</ele><time>2026-05-01T09:16:41.557Z</time></trkpt><trkpt lat="39.733115" lon="8.94896"><ele>383.0</ele><time>2026-05-01T09:16:42.558Z</time></trkpt><trkpt lat="39.733065" lon="8.948855"><ele>383.0</ele><time>2026-05-01T09:16:43.555Z</time></trkpt><trkpt lat="39.732985" lon="8.9486717"><ele>383.0</ele><time>2026-05-01T09:16:44.595Z</time></trkpt><trkpt lat="39.7329183" lon="8.9485283"><ele>383.0</ele><time>2026-05-01T09:16:45.557Z</time></trkpt><trkpt lat="39.7328333" lon="8.9483833"><ele>383.0</ele><time>2026-05-01T09:16:46.556Z</time></trkpt><trkpt lat="39.7327467" lon="8.94824"><ele>383.0</ele><time>2026-05-01T09:16:47.557Z</time></trkpt><trkpt lat="39.7326617" lon="8.9481"><ele>375.6666666666667</ele><time>2026-05-01T09:16:48.555Z</time></trkpt><trkpt lat="39.7325933" lon="8.94796"><ele>368.3333333333333</ele><time>2026-05-01T09:16:49.557Z</time></trkpt><trkpt lat="39.7325233" lon="8.9477267"><ele>361.0</ele><time>2026-05-01T09:16:50.598Z</time></trkpt><trkpt lat="39.7324617" lon="8.9475467"><ele>362.25</ele><time>2026-05-01T09:16:51.555Z</time></trkpt><trkpt lat="39.73242" lon="8.94734"><ele>363.5</ele><time>2026-05-01T09:16:52.556Z</time></trkpt><trkpt lat="39.73238" lon="8.9471617"><ele>364.75</ele><time>2026-05-01T09:16:53.552Z</time></trkpt><trkpt lat="39.7323417" lon="8.9469933"><ele>366.0</ele><time>2026-05-01T09:16:54.556Z</time></trkpt><trkpt lat="39.7323117" lon="8.9468333"><ele>365.4</ele><time>2026-05-01T09:16:55.557Z</time></trkpt><trkpt lat="39.73229" lon="8.9466833"><ele>364.8</ele><time>2026-05-01T09:16:56.622Z</time></trkpt><trkpt lat="39.732275" lon="8.946545"><ele>364.2</ele><time>2026-05-01T09:16:57.555Z</time></trkpt><trkpt lat="39.73227" lon="8.94641"><ele>363.59999999999997</ele><time>2026-05-01T09:16:58.555Z</time></trkpt><trkpt lat="39.7322767" lon="8.9462883"><ele>363.0</ele><time>2026-05-01T09:16:59.559Z</time></trkpt><trkpt lat="39.7323017" lon="8.94617"><ele>363.0</ele><time>2026-05-01T09:17:00.555Z</time></trkpt><trkpt lat="39.7323517" lon="8.9459733"><ele>363.0</ele><time>2026-05-01T09:17:02.623Z</time></trkpt><trkpt lat="39.73237" lon="8.94588"><ele>363.0</ele><time>2026-05-01T09:17:03.559Z</time></trkpt><trkpt lat="39.7323933" lon="8.9457917"><ele>363.0</ele><time>2026-05-01T09:17:04.558Z</time></trkpt><trkpt lat="39.732415" lon="8.9457083"><ele>363.0</ele><time>2026-05-01T09:17:05.558Z</time></trkpt><trkpt lat="39.7324467" lon="8.9456117"><ele>363.0</ele><time>2026-05-01T09:17:07.558Z</time></trkpt><trkpt lat="39.732455" lon="8.94572"><ele>363.0</ele><time>2026-05-01T09:17:30.56Z</time></trkpt><trkpt lat="39.7324183" lon="8.9458183"><ele>363.0</ele><time>2026-05-01T09:17:32.622Z</time></trkpt><trkpt lat="39.7323883" lon="8.9458933"><ele>363.0</ele><time>2026-05-01T09:19:46.555Z</time></trkpt><trkpt lat="39.7323117" lon="8.94594"><ele>363.0</ele><time>2026-05-01T09:19:48.558Z</time></trkpt><trkpt lat="39.7322467" lon="8.94597"><ele>363.0</ele><time>2026-05-01T09:19:49.559Z</time></trkpt><trkpt lat="39.73217" lon="8.946"><ele>363.0</ele><time>2026-05-01T09:19:50.609Z</time></trkpt><trkpt lat="39.7320817" lon="8.9460217"><ele>363.0</ele><time>2026-05-01T09:19:51.558Z</time></trkpt><trkpt lat="39.7319817" lon="8.94603"><ele>363.0</ele><time>2026-05-01T09:19:52.558Z</time></trkpt><trkpt lat="39.7318683" lon="8.9460533"><ele>363.0</ele><time>2026-05-01T09:19:53.556Z</time></trkpt><trkpt lat="39.73174" lon="8.9460367"><ele>363.0</ele><time>2026-05-01T09:19:54.557Z</time></trkpt><trkpt lat="39.7316033" lon="8.945995"><ele>358.0</ele><time>2026-05-01T09:19:55.559Z</time></trkpt><trkpt lat="39.7314733" lon="8.945945"><ele>353.0</ele><time>2026-05-01T09:19:56.621Z</time></trkpt><trkpt lat="39.7313583" lon="8.9459"><ele>348.0</ele><time>2026-05-01T09:19:57.558Z</time></trkpt><trkpt lat="39.7312483" lon="8.9458483"><ele>343.0</ele><time>2026-05-01T09:19:58.556Z</time></trkpt><trkpt lat="39.7311317" lon="8.9457833"><ele>341.2</ele><time>2026-05-01T09:19:59.553Z</time></trkpt><trkpt lat="39.7310317" lon="8.9456983"><ele>339.4</ele><time>2026-05-01T09:20:00.559Z</time></trkpt><trkpt lat="39.7309433" lon="8.9456033"><ele>337.59999999999997</ele><time>2026-05-01T09:20:01.561Z</time></trkpt><trkpt lat="39.7308783" lon="8.945495"><ele>335.79999999999995</ele><time>2026-05-01T09:20:02.615Z</time></trkpt><trkpt lat="39.7308267" lon="8.9453883"><ele>334.0</ele><time>2026-05-01T09:20:03.554Z</time></trkpt><trkpt lat="39.73078" lon="8.945245"><ele>334.0</ele><time>2026-05-01T09:20:04.563Z</time></trkpt><trkpt lat="39.7307767" lon="8.945115"><ele>334.0</ele><time>2026-05-01T09:20:05.555Z</time></trkpt><trkpt lat="39.7307917" lon="8.9449483"><ele>334.0</ele><time>2026-05-01T09:20:06.561Z</time></trkpt><trkpt lat="39.7307983" lon="8.9447817"><ele>334.0</ele><time>2026-05-01T09:20:07.559Z</time></trkpt><trkpt lat="39.73081" lon="8.9446117"><ele>332.0</ele><time>2026-05-01T09:20:08.607Z</time></trkpt><trkpt lat="39.730825" lon="8.9444583"><ele>330.0</ele><time>2026-05-01T09:20:09.558Z</time></trkpt><trkpt lat="39.73086" lon="8.9442917"><ele>328.0</ele><time>2026-05-01T09:20:10.556Z</time></trkpt><trkpt lat="39.7308983" lon="8.944145"><ele>326.0</ele><time>2026-05-01T09:20:11.557Z</time></trkpt><trkpt lat="39.7309233" lon="8.944"><ele>325.4</ele><time>2026-05-01T09:20:12.563Z</time></trkpt><trkpt lat="39.730935" lon="8.9438633"><ele>324.8</ele><time>2026-05-01T09:20:13.555Z</time></trkpt><trkpt lat="39.73096" lon="8.9437"><ele>324.2</ele><time>2026-05-01T09:20:14.605Z</time></trkpt><trkpt lat="39.730975" lon="8.943555"><ele>323.59999999999997</ele><time>2026-05-01T09:20:15.558Z</time></trkpt><trkpt lat="39.7309617" lon="8.9434283"><ele>323.0</ele><time>2026-05-01T09:20:16.559Z</time></trkpt><trkpt lat="39.7309733" lon="8.943315"><ele>322.33333333333337</ele><time>2026-05-01T09:20:17.556Z</time></trkpt><trkpt lat="39.7309917" lon="8.9432017"><ele>321.6666666666667</ele><time>2026-05-01T09:20:18.556Z</time></trkpt><trkpt lat="39.7310067" lon="8.9430933"><ele>321.0</ele><time>2026-05-01T09:20:19.554Z</time></trkpt><trkpt lat="39.7310233" lon="8.9429833"><ele>320.3333333333333</ele><time>2026-05-01T09:20:20.609Z</time></trkpt><trkpt lat="39.73103" lon="8.9428867"><ele>319.66666666666663</ele><time>2026-05-01T09:20:21.561Z</time></trkpt><trkpt lat="39.7310483" lon="8.9427783"><ele>319.0</ele><time>2026-05-01T09:20:22.554Z</time></trkpt><trkpt lat="39.7310567" lon="8.9426633"><ele>313.0</ele><time>2026-05-01T09:20:23.561Z</time></trkpt><trkpt lat="39.73108" lon="8.9425367"><ele>307.0</ele><time>2026-05-01T09:20:24.56Z</time></trkpt><trkpt lat="39.7310967" lon="8.9424183"><ele>301.0</ele><time>2026-05-01T09:20:25.563Z</time></trkpt><trkpt lat="39.7311083" lon="8.9423"><ele>295.0</ele><time>2026-05-01T09:20:26.624Z</time></trkpt><trkpt lat="39.7311117" lon="8.9421717"><ele>289.0</ele><time>2026-05-01T09:20:27.556Z</time></trkpt><trkpt lat="39.7311017" lon="8.942045"><ele>289.0</ele><time>2026-05-01T09:20:28.56Z</time></trkpt><trkpt lat="39.7311" lon="8.94192"><ele>289.0</ele><time>2026-05-01T09:20:29.556Z</time></trkpt><trkpt lat="39.73109" lon="8.9418117"><ele>289.0</ele><time>2026-05-01T09:20:30.555Z</time></trkpt><trkpt lat="39.7310817" lon="8.9417233"><ele>289.0</ele><time>2026-05-01T09:20:31.561Z</time></trkpt><trkpt lat="39.7311017" lon="8.9416017"><ele>289.0</ele><time>2026-05-01T09:20:33.555Z</time></trkpt><trkpt lat="39.7311983" lon="8.941625"><ele>289.0</ele><time>2026-05-01T09:20:35.555Z</time></trkpt><trkpt lat="39.731295" lon="8.9417467"><ele>289.0</ele><time>2026-05-01T09:20:37.564Z</time></trkpt><trkpt lat="39.7313417" lon="8.94184"><ele>289.0</ele><time>2026-05-01T09:20:38.602Z</time></trkpt><trkpt lat="39.731375" lon="8.9419567"><ele>289.0</ele><time>2026-05-01T09:20:39.559Z</time></trkpt><trkpt lat="39.7314133" lon="8.9420967"><ele>289.0</ele><time>2026-05-01T09:20:40.558Z</time></trkpt><trkpt lat="39.7314517" lon="8.94224"><ele>289.0</ele><time>2026-05-01T09:20:41.56Z</time></trkpt><trkpt lat="39.7314983" lon="8.9423817"><ele>289.0</ele><time>2026-05-01T09:20:42.558Z</time></trkpt><trkpt lat="39.73155" lon="8.9425167"><ele>289.0</ele><time>2026-05-01T09:20:43.554Z</time></trkpt><trkpt lat="39.7316033" lon="8.9426433"><ele>289.0</ele><time>2026-05-01T09:20:44.606Z</time></trkpt><trkpt lat="39.731655" lon="8.9427717"><ele>289.0</ele><time>2026-05-01T09:20:45.555Z</time></trkpt><trkpt lat="39.7317033" lon="8.9428967"><ele>289.0</ele><time>2026-05-01T09:20:46.556Z</time></trkpt><trkpt lat="39.7317583" lon="8.9430167"><ele>290.3333333333333</ele><time>2026-05-01T09:20:47.562Z</time></trkpt><trkpt lat="39.7318033" lon="8.943125"><ele>291.66666666666663</ele><time>2026-05-01T09:20:48.559Z</time></trkpt><trkpt lat="39.731845" lon="8.9432233"><ele>293.0</ele><time>2026-05-01T09:20:49.558Z</time></trkpt><trkpt lat="39.7318867" lon="8.9433017"><ele>294.3333333333333</ele><time>2026-05-01T09:20:50.603Z</time></trkpt><trkpt lat="39.731925" lon="8.9433683"><ele>295.6666666666667</ele><time>2026-05-01T09:20:51.556Z</time></trkpt><trkpt lat="39.7320133" lon="8.943425"><ele>297.0</ele><time>2026-05-01T09:20:53.556Z</time></trkpt><trkpt lat="39.7321033" lon="8.9433833"><ele>297.0</ele><time>2026-05-01T09:20:55.556Z</time></trkpt><trkpt lat="39.7321283" lon="8.9432933"><ele>297.0</ele><time>2026-05-01T09:20:57.56Z</time></trkpt><trkpt lat="39.7320633" lon="8.9431833"><ele>297.0</ele><time>2026-05-01T09:20:59.559Z</time></trkpt><trkpt lat="39.7320033" lon="8.9431067"><ele>297.0</ele><time>2026-05-01T09:21:00.555Z</time></trkpt><trkpt lat="39.731955" lon="8.9430217"><ele>297.0</ele><time>2026-05-01T09:21:01.557Z</time></trkpt><trkpt lat="39.73192" lon="8.9429383"><ele>297.0</ele><time>2026-05-01T09:21:02.616Z</time></trkpt><trkpt lat="39.731885" lon="8.9428283"><ele>297.0</ele><time>2026-05-01T09:21:03.553Z</time></trkpt><trkpt lat="39.73185" lon="8.9427083"><ele>297.0</ele><time>2026-05-01T09:21:04.559Z</time></trkpt><trkpt lat="39.73182" lon="8.94255"><ele>297.0</ele><time>2026-05-01T09:21:05.558Z</time></trkpt><trkpt lat="39.731795" lon="8.9424033"><ele>297.0</ele><time>2026-05-01T09:21:06.562Z</time></trkpt><trkpt lat="39.7317683" lon="8.9422517"><ele>295.0</ele><time>2026-05-01T09:21:07.555Z</time></trkpt><trkpt lat="39.7317483" lon="8.9421"><ele>293.0</ele><time>2026-05-01T09:21:08.604Z</time></trkpt><trkpt lat="39.7317317" lon="8.94196"><ele>291.0</ele><time>2026-05-01T09:21:09.56Z</time></trkpt><trkpt lat="39.73174" lon="8.9418133"><ele>289.0</ele><time>2026-05-01T09:21:10.555Z</time></trkpt><trkpt lat="39.7317433" lon="8.94167"><ele>285.4</ele><time>2026-05-01T09:21:11.557Z</time></trkpt><trkpt lat="39.7317567" lon="8.9415417"><ele>281.79999999999995</ele><time>2026-05-01T09:21:12.553Z</time></trkpt><trkpt lat="39.7317683" lon="8.9414133"><ele>278.20000000000005</ele><time>2026-05-01T09:21:13.559Z</time></trkpt><trkpt lat="39.73176" lon="8.9412833"><ele>274.6</ele><time>2026-05-01T09:21:14.607Z</time></trkpt><trkpt lat="39.7317683" lon="8.9411483"><ele>271.0</ele><time>2026-05-01T09:21:15.558Z</time></trkpt><trkpt lat="39.731765" lon="8.9410117"><ele>268.2</ele><time>2026-05-01T09:21:16.555Z</time></trkpt><trkpt lat="39.7317367" lon="8.940865"><ele>265.40000000000003</ele><time>2026-05-01T09:21:17.558Z</time></trkpt><trkpt lat="39.7317383" lon="8.940725"><ele>262.6</ele><time>2026-05-01T09:21:18.556Z</time></trkpt><trkpt lat="39.7317283" lon="8.9405983"><ele>259.8</ele><time>2026-05-01T09:21:19.554Z</time></trkpt><trkpt lat="39.73171" lon="8.9404717"><ele>257.0</ele><time>2026-05-01T09:21:20.605Z</time></trkpt><trkpt lat="39.7316983" lon="8.9403633"><ele>257.0</ele><time>2026-05-01T09:21:21.554Z</time></trkpt><trkpt lat="39.7316617" lon="8.9402383"><ele>257.0</ele><time>2026-05-01T09:21:22.556Z</time></trkpt><trkpt lat="39.7316283" lon="8.9401083"><ele>257.0</ele><time>2026-05-01T09:21:23.558Z</time></trkpt><trkpt lat="39.731585" lon="8.9399817"><ele>257.0</ele><time>2026-05-01T09:21:24.555Z</time></trkpt><trkpt lat="39.7315467" lon="8.93986"><ele>257.0</ele><time>2026-05-01T09:21:25.559Z</time></trkpt><trkpt lat="39.7315067" lon="8.939735"><ele>255.2</ele><time>2026-05-01T09:21:26.627Z</time></trkpt><trkpt lat="39.7314783" lon="8.9396117"><ele>253.39999999999998</ele><time>2026-05-01T09:21:27.555Z</time></trkpt><trkpt lat="39.7314517" lon="8.93948"><ele>251.60000000000002</ele><time>2026-05-01T09:21:28.557Z</time></trkpt><trkpt lat="39.73142" lon="8.9393583"><ele>249.8</ele><time>2026-05-01T09:21:29.555Z</time></trkpt><trkpt lat="39.73138" lon="8.93923"><ele>248.0</ele><time>2026-05-01T09:21:30.559Z</time></trkpt><trkpt lat="39.731335" lon="8.93911"><ele>246.4</ele><time>2026-05-01T09:21:31.554Z</time></trkpt><trkpt lat="39.7312833" lon="8.938975"><ele>244.8</ele><time>2026-05-01T09:21:32.615Z</time></trkpt><trkpt lat="39.7312167" lon="8.9388667"><ele>243.2</ele><time>2026-05-01T09:21:33.556Z</time></trkpt><trkpt lat="39.7311683" lon="8.9387533"><ele>241.6</ele><time>2026-05-01T09:21:34.558Z</time></trkpt><trkpt lat="39.7311133" lon="8.9386383"><ele>240.0</ele><time>2026-05-01T09:21:35.56Z</time></trkpt><trkpt lat="39.7310517" lon="8.9385483"><ele>240.0</ele><time>2026-05-01T09:21:36.557Z</time></trkpt><trkpt lat="39.73098" lon="8.9384533"><ele>240.0</ele><time>2026-05-01T09:21:37.553Z</time></trkpt><trkpt lat="39.7309083" lon="8.9383783"><ele>240.0</ele><time>2026-05-01T09:21:38.602Z</time></trkpt><trkpt lat="39.730825" lon="8.938315"><ele>240.0</ele><time>2026-05-01T09:21:39.555Z</time></trkpt><trkpt lat="39.73073" lon="8.9382633"><ele>240.0</ele><time>2026-05-01T09:21:40.555Z</time></trkpt><trkpt lat="39.73063" lon="8.93822"><ele>237.2</ele><time>2026-05-01T09:21:41.557Z</time></trkpt><trkpt lat="39.7305367" lon="8.9381783"><ele>234.4</ele><time>2026-05-01T09:21:42.557Z</time></trkpt><trkpt lat="39.7304417" lon="8.9381283"><ele>231.60000000000002</ele><time>2026-05-01T09:21:43.555Z</time></trkpt><trkpt lat="39.730355" lon="8.938075"><ele>228.8</ele><time>2026-05-01T09:21:44.604Z</time></trkpt><trkpt lat="39.73027" lon="8.9380183"><ele>226.0</ele><time>2026-05-01T09:21:45.556Z</time></trkpt><trkpt lat="39.7301917" lon="8.9379617"><ele>225.49999999999997</ele><time>2026-05-01T09:21:46.556Z</time></trkpt><trkpt lat="39.730125" lon="8.9379083"><ele>225.0</ele><time>2026-05-01T09:21:47.555Z</time></trkpt><trkpt lat="39.7300683" lon="8.937865"><ele>224.5</ele><time>2026-05-01T09:21:48.557Z</time></trkpt><trkpt lat="39.73001" lon="8.9378317"><ele>224.0</ele><time>2026-05-01T09:21:49.556Z</time></trkpt><trkpt lat="39.7298867" lon="8.9377933"><ele>223.49999999999997</ele><time>2026-05-01T09:21:51.553Z</time></trkpt><trkpt lat="39.7298117" lon="8.93778"><ele>223.0</ele><time>2026-05-01T09:21:52.555Z</time></trkpt><trkpt lat="39.7297283" lon="8.9377717"><ele>223.0</ele><time>2026-05-01T09:21:53.556Z</time></trkpt><trkpt lat="39.7296417" lon="8.9377717"><ele>223.0</ele><time>2026-05-01T09:21:54.555Z</time></trkpt><trkpt lat="39.7295567" lon="8.937775"><ele>223.0</ele><time>2026-05-01T09:21:55.557Z</time></trkpt><trkpt lat="39.7294717" lon="8.9377967"><ele>223.0</ele><time>2026-05-01T09:21:56.622Z</time></trkpt><trkpt lat="39.7293833" lon="8.9378333"><ele>223.0</ele><time>2026-05-01T09:21:57.557Z</time></trkpt><trkpt lat="39.7292917" lon="8.9378883"><ele>221.75</ele><time>2026-05-01T09:21:58.559Z</time></trkpt><trkpt lat="39.7292033" lon="8.9379633"><ele>220.5</ele><time>2026-05-01T09:21:59.562Z</time></trkpt><trkpt lat="39.7291067" lon="8.938055"><ele>219.25</ele><time>2026-05-01T09:22:00.557Z</time></trkpt><trkpt lat="39.72901" lon="8.9381533"><ele>218.0</ele><time>2026-05-01T09:22:01.558Z</time></trkpt><trkpt lat="39.7289067" lon="8.93829"><ele>219.25</ele><time>2026-05-01T09:22:02.624Z</time></trkpt><trkpt lat="39.7288067" lon="8.9384083"><ele>220.5</ele><time>2026-05-01T09:22:03.551Z</time></trkpt><trkpt lat="39.7287167" lon="8.9385217"><ele>221.75</ele><time>2026-05-01T09:22:04.559Z</time></trkpt><trkpt lat="39.728635" lon="8.938635"><ele>223.0</ele><time>2026-05-01T09:22:05.558Z</time></trkpt><trkpt lat="39.7285733" lon="8.9387467"><ele>222.5</ele><time>2026-05-01T09:22:06.556Z</time></trkpt><trkpt lat="39.728525" lon="8.938885"><ele>222.0</ele><time>2026-05-01T09:22:07.552Z</time></trkpt><trkpt lat="39.7284983" lon="8.93903"><ele>221.5</ele><time>2026-05-01T09:22:08.613Z</time></trkpt><trkpt lat="39.728495" lon="8.9391983"><ele>221.0</ele><time>2026-05-01T09:22:09.553Z</time></trkpt><trkpt lat="39.7284667" lon="8.9393833"><ele>221.0</ele><time>2026-05-01T09:22:10.555Z</time></trkpt><trkpt lat="39.728425" lon="8.9395467"><ele>221.0</ele><time>2026-05-01T09:22:11.559Z</time></trkpt><trkpt lat="39.72838" lon="8.939685"><ele>221.0</ele><time>2026-05-01T09:22:12.557Z</time></trkpt><trkpt lat="39.7283333" lon="8.93982"><ele>221.0</ele><time>2026-05-01T09:22:13.557Z</time></trkpt><trkpt lat="39.7282867" lon="8.93996"><ele>222.0</ele><time>2026-05-01T09:22:14.612Z</time></trkpt><trkpt lat="39.728275" lon="8.9401083"><ele>223.0</ele><time>2026-05-01T09:22:15.556Z</time></trkpt><trkpt lat="39.7282917" lon="8.940255"><ele>224.0</ele><time>2026-05-01T09:22:16.558Z</time></trkpt><trkpt lat="39.7283117" lon="8.9404033"><ele>225.0</ele><time>2026-05-01T09:22:17.559Z</time></trkpt><trkpt lat="39.7283117" lon="8.9405483"><ele>225.0</ele><time>2026-05-01T09:22:18.554Z</time></trkpt><trkpt lat="39.728295" lon="8.9406817"><ele>225.0</ele><time>2026-05-01T09:22:19.56Z</time></trkpt><trkpt lat="39.7282467" lon="8.94082"><ele>225.0</ele><time>2026-05-01T09:22:20.613Z</time></trkpt><trkpt lat="39.7281817" lon="8.9409483"><ele>225.0</ele><time>2026-05-01T09:22:21.555Z</time></trkpt><trkpt lat="39.7281017" lon="8.9410683"><ele>225.5</ele><time>2026-05-01T09:22:22.557Z</time></trkpt><trkpt lat="39.7280083" lon="8.9412033"><ele>226.0</ele><time>2026-05-01T09:22:23.556Z</time></trkpt><trkpt lat="39.72792" lon="8.9413283"><ele>226.5</ele><time>2026-05-01T09:22:24.56Z</time></trkpt><trkpt lat="39.7278167" lon="8.9414267"><ele>227.0</ele><time>2026-05-01T09:22:25.556Z</time></trkpt><trkpt lat="39.727695" lon="8.9415033"><ele>227.0</ele><time>2026-05-01T09:22:26.624Z</time></trkpt><trkpt lat="39.7275483" lon="8.94159"><ele>227.0</ele><time>2026-05-01T09:22:27.552Z</time></trkpt><trkpt lat="39.7274167" lon="8.9416883"><ele>227.0</ele><time>2026-05-01T09:22:28.558Z</time></trkpt><trkpt lat="39.7272817" lon="8.9417867"><ele>228.33333333333334</ele><time>2026-05-01T09:22:29.557Z</time></trkpt><trkpt lat="39.7271383" lon="8.941875"><ele>229.66666666666669</ele><time>2026-05-01T09:22:30.558Z</time></trkpt><trkpt lat="39.7270083" lon="8.9419817"><ele>231.0</ele><time>2026-05-01T09:22:31.555Z</time></trkpt><trkpt lat="39.7268783" lon="8.942085"><ele>231.0</ele><time>2026-05-01T09:22:32.618Z</time></trkpt><trkpt lat="39.7267533" lon="8.9421967"><ele>231.0</ele><time>2026-05-01T09:22:33.559Z</time></trkpt><trkpt lat="39.7266433" lon="8.9422967"><ele>231.0</ele><time>2026-05-01T09:22:34.556Z</time></trkpt><trkpt lat="39.7265517" lon="8.942385"><ele>231.0</ele><time>2026-05-01T09:22:35.558Z</time></trkpt><trkpt lat="39.726485" lon="8.9424667"><ele>232.60000000000002</ele><time>2026-05-01T09:22:36.557Z</time></trkpt><trkpt lat="39.7264183" lon="8.94255"><ele>234.20000000000002</ele><time>2026-05-01T09:22:37.559Z</time></trkpt><trkpt lat="39.7263567" lon="8.942635"><ele>235.79999999999998</ele><time>2026-05-01T09:22:38.611Z</time></trkpt><trkpt lat="39.72629" lon="8.942725"><ele>237.39999999999998</ele><time>2026-05-01T09:22:39.559Z</time></trkpt><trkpt lat="39.726205" lon="8.9428267"><ele>239.0</ele><time>2026-05-01T09:22:40.558Z</time></trkpt><trkpt lat="39.726115" lon="8.9429467"><ele>238.5</ele><time>2026-05-01T09:22:41.558Z</time></trkpt><trkpt lat="39.7260167" lon="8.9430633"><ele>238.0</ele><time>2026-05-01T09:22:42.555Z</time></trkpt><trkpt lat="39.7259233" lon="8.9431867"><ele>237.5</ele><time>2026-05-01T09:22:43.554Z</time></trkpt><trkpt lat="39.7258283" lon="8.943325"><ele>237.0</ele><time>2026-05-01T09:22:44.611Z</time></trkpt><trkpt lat="39.7257383" lon="8.9434867"><ele>237.0</ele><time>2026-05-01T09:22:45.554Z</time></trkpt><trkpt lat="39.72564" lon="8.9436583"><ele>237.0</ele><time>2026-05-01T09:22:46.558Z</time></trkpt><trkpt lat="39.72553" lon="8.9438317"><ele>237.0</ele><time>2026-05-01T09:22:47.561Z</time></trkpt><trkpt lat="39.7254183" lon="8.94402"><ele>237.0</ele><time>2026-05-01T09:22:48.56Z</time></trkpt><trkpt lat="39.7253117" lon="8.9442017"><ele>237.0</ele><time>2026-05-01T09:22:49.556Z</time></trkpt><trkpt lat="39.7252117" lon="8.9443767"><ele>237.0</ele><time>2026-05-01T09:22:50.608Z</time></trkpt><trkpt lat="39.7251233" lon="8.9445533"><ele>236.0</ele><time>2026-05-01T09:22:51.566Z</time></trkpt><trkpt lat="39.7250367" lon="8.9447083"><ele>235.0</ele><time>2026-05-01T09:22:52.555Z</time></trkpt><trkpt lat="39.7249617" lon="8.9448733"><ele>234.0</ele><time>2026-05-01T09:22:53.555Z</time></trkpt><trkpt lat="39.7248833" lon="8.9450183"><ele>233.0</ele><time>2026-05-01T09:22:54.557Z</time></trkpt><trkpt lat="39.7248167" lon="8.9451583"><ele>233.0</ele><time>2026-05-01T09:22:55.556Z</time></trkpt><trkpt lat="39.72475" lon="8.9453217"><ele>233.0</ele><time>2026-05-01T09:22:56.618Z</time></trkpt><trkpt lat="39.7247017" lon="8.945475"><ele>233.0</ele><time>2026-05-01T09:22:57.555Z</time></trkpt><trkpt lat="39.7246683" lon="8.9456567"><ele>233.0</ele><time>2026-05-01T09:22:58.556Z</time></trkpt><trkpt lat="39.7246617" lon="8.945825"><ele>234.33333333333334</ele><time>2026-05-01T09:22:59.56Z</time></trkpt><trkpt lat="39.7246433" lon="8.94601"><ele>235.66666666666669</ele><time>2026-05-01T09:23:00.556Z</time></trkpt><trkpt lat="39.724615" lon="8.9462117"><ele>237.0</ele><time>2026-05-01T09:23:01.557Z</time></trkpt><trkpt lat="39.7245883" lon="8.94641"><ele>237.0</ele><time>2026-05-01T09:23:02.622Z</time></trkpt><trkpt lat="39.7246017" lon="8.9465983"><ele>237.0</ele><time>2026-05-01T09:23:03.558Z</time></trkpt><trkpt lat="39.7246183" lon="8.94681"><ele>237.0</ele><time>2026-05-01T09:23:04.554Z</time></trkpt><trkpt lat="39.7246317" lon="8.9470283"><ele>237.75</ele><time>2026-05-01T09:23:05.557Z</time></trkpt><trkpt lat="39.7246317" lon="8.9472167"><ele>238.5</ele><time>2026-05-01T09:23:06.557Z</time></trkpt><trkpt lat="39.7246467" lon="8.94742"><ele>239.25</ele><time>2026-05-01T09:23:07.556Z</time></trkpt><trkpt lat="39.7246617" lon="8.9476083"><ele>240.0</ele><time>2026-05-01T09:23:08.607Z</time></trkpt><trkpt lat="39.724675" lon="8.9478017"><ele>241.5</ele><time>2026-05-01T09:23:09.558Z</time></trkpt><trkpt lat="39.7246733" lon="8.947985"><ele>243.0</ele><time>2026-05-01T09:23:10.557Z</time></trkpt><trkpt lat="39.72467" lon="8.9481733"><ele>244.5</ele><time>2026-05-01T09:23:11.556Z</time></trkpt><trkpt lat="39.7246583" lon="8.9483467"><ele>246.0</ele><time>2026-05-01T09:23:12.554Z</time></trkpt><trkpt lat="39.7246433" lon="8.94851"><ele>248.0</ele><time>2026-05-01T09:23:13.557Z</time></trkpt><trkpt lat="39.7246367" lon="8.9486517"><ele>250.00000000000003</ele><time>2026-05-01T09:23:14.607Z</time></trkpt><trkpt lat="39.7246133" lon="8.948775"><ele>252.00000000000003</ele><time>2026-05-01T09:23:15.556Z</time></trkpt><trkpt lat="39.7245733" lon="8.9488917"><ele>254.0</ele><time>2026-05-01T09:23:16.555Z</time></trkpt><trkpt lat="39.7245033" lon="8.9489917"><ele>256.0</ele><time>2026-05-01T09:23:17.555Z</time></trkpt><trkpt lat="39.724435" lon="8.9490867"><ele>255.20000000000002</ele><time>2026-05-01T09:23:18.553Z</time></trkpt><trkpt lat="39.72437" lon="8.9491667"><ele>254.40000000000003</ele><time>2026-05-01T09:23:19.554Z</time></trkpt><trkpt lat="39.7243017" lon="8.949235"><ele>253.6</ele><time>2026-05-01T09:23:20.625Z</time></trkpt><trkpt lat="39.7242267" lon="8.9492967"><ele>252.8</ele><time>2026-05-01T09:23:21.555Z</time></trkpt><trkpt lat="39.7241417" lon="8.9493433"><ele>252.0</ele><time>2026-05-01T09:23:22.556Z</time></trkpt><trkpt lat="39.7240483" lon="8.94937"><ele>252.0</ele><time>2026-05-01T09:23:23.553Z</time></trkpt><trkpt lat="39.7239433" lon="8.9493667"><ele>252.0</ele><time>2026-05-01T09:23:24.553Z</time></trkpt><trkpt lat="39.7238567" lon="8.9493733"><ele>252.0</ele><time>2026-05-01T09:23:25.556Z</time></trkpt><trkpt lat="39.7237683" lon="8.9493717"><ele>252.0</ele><time>2026-05-01T09:23:26.613Z</time></trkpt><trkpt lat="39.7236717" lon="8.94933"><ele>252.0</ele><time>2026-05-01T09:23:27.553Z</time></trkpt><trkpt lat="39.7235583" lon="8.9492633"><ele>250.0</ele><time>2026-05-01T09:23:28.551Z</time></trkpt><trkpt lat="39.7234433" lon="8.9491683"><ele>248.0</ele><time>2026-05-01T09:23:29.553Z</time></trkpt><trkpt lat="39.7233467" lon="8.9491017"><ele>246.0</ele><time>2026-05-01T09:23:30.553Z</time></trkpt><trkpt lat="39.7232467" lon="8.9490583"><ele>244.0</ele><time>2026-05-01T09:23:31.555Z</time></trkpt><trkpt lat="39.7231467" lon="8.9490433"><ele>244.0</ele><time>2026-05-01T09:23:32.618Z</time></trkpt><trkpt lat="39.7230483" lon="8.9490467"><ele>244.0</ele><time>2026-05-01T09:23:33.554Z</time></trkpt><trkpt lat="39.722925" lon="8.9490617"><ele>244.0</ele><time>2026-05-01T09:23:34.561Z</time></trkpt><trkpt lat="39.7228033" lon="8.9490783"><ele>244.0</ele><time>2026-05-01T09:23:35.556Z</time></trkpt><trkpt lat="39.72268" lon="8.9490867"><ele>243.75</ele><time>2026-05-01T09:23:36.555Z</time></trkpt><trkpt lat="39.7225617" lon="8.9490917"><ele>243.5</ele><time>2026-05-01T09:23:37.556Z</time></trkpt><trkpt lat="39.722445" lon="8.949095"><ele>243.25</ele><time>2026-05-01T09:23:38.607Z</time></trkpt><trkpt lat="39.7223267" lon="8.94912"><ele>243.0</ele><time>2026-05-01T09:23:39.558Z</time></trkpt><trkpt lat="39.72221" lon="8.94915"><ele>243.0</ele><time>2026-05-01T09:23:40.556Z</time></trkpt><trkpt lat="39.7220867" lon="8.9492033"><ele>243.0</ele><time>2026-05-01T09:23:41.556Z</time></trkpt><trkpt lat="39.72196" lon="8.9492717"><ele>243.0</ele><time>2026-05-01T09:23:42.556Z</time></trkpt><trkpt lat="39.7218283" lon="8.949345"><ele>243.0</ele><time>2026-05-01T09:23:43.553Z</time></trkpt><trkpt lat="39.721695" lon="8.9494267"><ele>244.0</ele><time>2026-05-01T09:23:44.609Z</time></trkpt><trkpt lat="39.72156" lon="8.94951"><ele>245.0</ele><time>2026-05-01T09:23:45.553Z</time></trkpt><trkpt lat="39.7214317" lon="8.9496033"><ele>246.0</ele><time>2026-05-01T09:23:46.555Z</time></trkpt><trkpt lat="39.721295" lon="8.9497"><ele>246.0</ele><time>2026-05-01T09:23:47.555Z</time></trkpt><trkpt lat="39.721165" lon="8.9498033"><ele>246.0</ele><time>2026-05-01T09:23:48.557Z</time></trkpt><trkpt lat="39.7210383" lon="8.9499033"><ele>246.0</ele><time>2026-05-01T09:23:49.555Z</time></trkpt><trkpt lat="39.7209167" lon="8.9500033"><ele>246.0</ele><time>2026-05-01T09:23:50.609Z</time></trkpt><trkpt lat="39.720805" lon="8.9501"><ele>242.0</ele><time>2026-05-01T09:23:51.562Z</time></trkpt><trkpt lat="39.720695" lon="8.9501967"><ele>238.0</ele><time>2026-05-01T09:23:52.556Z</time></trkpt><trkpt lat="39.7204933" lon="8.9503767"><ele>234.0</ele><time>2026-05-01T09:23:54.554Z</time></trkpt><trkpt lat="39.7204" lon="8.9504633"><ele>234.0</ele><time>2026-05-01T09:23:55.557Z</time></trkpt><trkpt lat="39.7203067" lon="8.95055"><ele>234.0</ele><time>2026-05-01T09:23:56.617Z</time></trkpt><trkpt lat="39.7202133" lon="8.9506417"><ele>234.0</ele><time>2026-05-01T09:23:57.557Z</time></trkpt><trkpt lat="39.7201233" lon="8.950745"><ele>234.0</ele><time>2026-05-01T09:23:58.555Z</time></trkpt><trkpt lat="39.7200367" lon="8.9508667"><ele>231.5</ele><time>2026-05-01T09:23:59.559Z</time></trkpt><trkpt lat="39.7199533" lon="8.951005"><ele>229.0</ele><time>2026-05-01T09:24:00.556Z</time></trkpt><trkpt lat="39.719875" lon="8.9511567"><ele>226.5</ele><time>2026-05-01T09:24:01.549Z</time></trkpt><trkpt lat="39.7197983" lon="8.95132"><ele>224.0</ele><time>2026-05-01T09:24:02.613Z</time></trkpt><trkpt lat="39.719725" lon="8.951495"><ele>224.0</ele><time>2026-05-01T09:24:03.552Z</time></trkpt><trkpt lat="39.7196517" lon="8.951675"><ele>224.0</ele><time>2026-05-01T09:24:04.553Z</time></trkpt><trkpt lat="39.719585" lon="8.9518617"><ele>224.0</ele><time>2026-05-01T09:24:05.556Z</time></trkpt><trkpt lat="39.71952" lon="8.9520583"><ele>225.0</ele><time>2026-05-01T09:24:06.552Z</time></trkpt><trkpt lat="39.7194567" lon="8.9522617"><ele>226.0</ele><time>2026-05-01T09:24:07.555Z</time></trkpt><trkpt lat="39.7194" lon="8.95247"><ele>227.0</ele><time>2026-05-01T09:24:08.605Z</time></trkpt><trkpt lat="39.719335" lon="8.9526767"><ele>224.33333333333334</ele><time>2026-05-01T09:24:09.558Z</time></trkpt><trkpt lat="39.71927" lon="8.9528817"><ele>221.66666666666669</ele><time>2026-05-01T09:24:10.555Z</time></trkpt><trkpt lat="39.7191983" lon="8.953085"><ele>219.0</ele><time>2026-05-01T09:24:11.557Z</time></trkpt><trkpt lat="39.7191217" lon="8.9532833"><ele>219.66666666666669</ele><time>2026-05-01T09:24:12.562Z</time></trkpt><trkpt lat="39.719045" lon="8.9534767"><ele>220.33333333333334</ele><time>2026-05-01T09:24:13.554Z</time></trkpt><trkpt lat="39.7189667" lon="8.9536667"><ele>221.0</ele><time>2026-05-01T09:24:14.608Z</time></trkpt><trkpt lat="39.71889" lon="8.9538583"><ele>221.0</ele><time>2026-05-01T09:24:15.556Z</time></trkpt><trkpt lat="39.7188167" lon="8.95405"><ele>221.0</ele><time>2026-05-01T09:24:16.557Z</time></trkpt><trkpt lat="39.7187467" lon="8.954235"><ele>221.0</ele><time>2026-05-01T09:24:17.554Z</time></trkpt><trkpt lat="39.718685" lon="8.9544117"><ele>221.0</ele><time>2026-05-01T09:24:18.557Z</time></trkpt><trkpt lat="39.718625" lon="8.95458"><ele>221.0</ele><time>2026-05-01T09:24:19.558Z</time></trkpt><trkpt lat="39.718565" lon="8.9547367"><ele>221.0</ele><time>2026-05-01T09:24:20.608Z</time></trkpt><trkpt lat="39.718505" lon="8.954885"><ele>221.0</ele><time>2026-05-01T09:24:21.554Z</time></trkpt><trkpt lat="39.7184467" lon="8.9550217"><ele>220.0</ele><time>2026-05-01T09:24:22.555Z</time></trkpt><trkpt lat="39.7183883" lon="8.9551417"><ele>219.00000000000003</ele><time>2026-05-01T09:24:23.555Z</time></trkpt><trkpt lat="39.7183433" lon="8.9552533"><ele>218.00000000000003</ele><time>2026-05-01T09:24:24.553Z</time></trkpt><trkpt lat="39.7183067" lon="8.955355"><ele>217.0</ele><time>2026-05-01T09:24:25.559Z</time></trkpt><trkpt lat="39.71828" lon="8.955465"><ele>216.0</ele><time>2026-05-01T09:24:26.615Z</time></trkpt><trkpt lat="39.7182617" lon="8.9555867"><ele>216.0</ele><time>2026-05-01T09:24:27.554Z</time></trkpt><trkpt lat="39.7182567" lon="8.9557167"><ele>216.00000000000003</ele><time>2026-05-01T09:24:28.554Z</time></trkpt><trkpt lat="39.71826" lon="8.95585"><ele>216.00000000000003</ele><time>2026-05-01T09:24:29.554Z</time></trkpt><trkpt lat="39.7182517" lon="8.95598"><ele>216.0</ele><time>2026-05-01T09:24:30.555Z</time></trkpt><trkpt lat="39.7182383" lon="8.956105"><ele>216.0</ele><time>2026-05-01T09:24:31.555Z</time></trkpt><trkpt lat="39.7182233" lon="8.9562217"><ele>216.0</ele><time>2026-05-01T09:24:32.614Z</time></trkpt><trkpt lat="39.718205" lon="8.956335"><ele>216.0</ele><time>2026-05-01T09:24:33.555Z</time></trkpt><trkpt lat="39.7181817" lon="8.9564483"><ele>216.0</ele><time>2026-05-01T09:24:34.556Z</time></trkpt><trkpt lat="39.7181617" lon="8.9565583"><ele>216.0</ele><time>2026-05-01T09:24:35.553Z</time></trkpt><trkpt lat="39.718145" lon="8.9566583"><ele>216.0</ele><time>2026-05-01T09:24:36.555Z</time></trkpt><trkpt lat="39.7181283" lon="8.9567483"><ele>216.0</ele><time>2026-05-01T09:24:37.554Z</time></trkpt><trkpt lat="39.7181183" lon="8.9568817"><ele>215.5</ele><time>2026-05-01T09:24:39.555Z</time></trkpt><trkpt lat="39.7181717" lon="8.9569667"><ele>215.0</ele><time>2026-05-01T09:24:41.554Z</time></trkpt><trkpt lat="39.7182683" lon="8.957005"><ele>214.5</ele><time>2026-05-01T09:24:43.552Z</time></trkpt><trkpt lat="39.7183417" lon="8.957005"><ele>214.0</ele><time>2026-05-01T09:24:44.606Z</time></trkpt><trkpt lat="39.7184283" lon="8.9569883"><ele>213.5</ele><time>2026-05-01T09:24:45.555Z</time></trkpt><trkpt lat="39.7185133" lon="8.9569667"><ele>213.0</ele><time>2026-05-01T09:24:46.555Z</time></trkpt><trkpt lat="39.7186" lon="8.9569433"><ele>214.0</ele><time>2026-05-01T09:24:47.553Z</time></trkpt><trkpt lat="39.7186783" lon="8.9569167"><ele>215.0</ele><time>2026-05-01T09:24:48.555Z</time></trkpt><trkpt lat="39.7187567" lon="8.9568833"><ele>216.0</ele><time>2026-05-01T09:24:49.555Z</time></trkpt><trkpt lat="39.7188483" lon="8.956845"><ele>217.0</ele><time>2026-05-01T09:24:50.607Z</time></trkpt><trkpt lat="39.718935" lon="8.9568117"><ele>218.0</ele><time>2026-05-01T09:24:51.557Z</time></trkpt><trkpt lat="39.7190217" lon="8.9567783"><ele>219.0</ele><time>2026-05-01T09:24:52.555Z</time></trkpt><trkpt lat="39.7190983" lon="8.9567683"><ele>219.0</ele><time>2026-05-01T09:24:53.555Z</time></trkpt><trkpt lat="39.71917" lon="8.95677"><ele>219.0</ele><time>2026-05-01T09:24:54.555Z</time></trkpt><trkpt lat="39.7192383" lon="8.9567817"><ele>219.0</ele><time>2026-05-01T09:24:55.553Z</time></trkpt><trkpt lat="39.719305" lon="8.9568067"><ele>219.0</ele><time>2026-05-01T09:24:56.621Z</time></trkpt><trkpt lat="39.7193617" lon="8.956855"><ele>219.0</ele><time>2026-05-01T09:24:57.555Z</time></trkpt><trkpt lat="39.719415" lon="8.95692"><ele>219.0</ele><time>2026-05-01T09:24:58.554Z</time></trkpt><trkpt lat="39.7194633" lon="8.9570083"><ele>219.0</ele><time>2026-05-01T09:24:59.555Z</time></trkpt><trkpt lat="39.719505" lon="8.95712"><ele>220.0</ele><time>2026-05-01T09:25:00.558Z</time></trkpt><trkpt lat="39.71954" lon="8.9572533"><ele>221.0</ele><time>2026-05-01T09:25:01.555Z</time></trkpt><trkpt lat="39.719585" lon="8.9573983"><ele>222.0</ele><time>2026-05-01T09:25:02.586Z</time></trkpt><trkpt lat="39.71962" lon="8.95754"><ele>223.0</ele><time>2026-05-01T09:25:03.557Z</time></trkpt><trkpt lat="39.7196583" lon="8.9576983"><ele>223.0</ele><time>2026-05-01T09:25:04.555Z</time></trkpt><trkpt lat="39.7196967" lon="8.9578583"><ele>223.0</ele><time>2026-05-01T09:25:05.553Z</time></trkpt><trkpt lat="39.7197267" lon="8.9579833"><ele>223.0</ele><time>2026-05-01T09:25:06.554Z</time></trkpt><trkpt lat="39.7197483" lon="8.9580933"><ele>223.0</ele><time>2026-05-01T09:25:07.556Z</time></trkpt><trkpt lat="39.71978" lon="8.9581783"><ele>223.0</ele><time>2026-05-01T09:25:08.609Z</time></trkpt><trkpt lat="39.7198133" lon="8.958255"><ele>222.99999999999997</ele><time>2026-05-01T09:25:09.552Z</time></trkpt><trkpt lat="39.7198883" lon="8.9583483"><ele>223.0</ele><time>2026-05-01T09:25:11.551Z</time></trkpt><trkpt lat="39.72" lon="8.9583767"><ele>223.0</ele><time>2026-05-01T09:25:13.557Z</time></trkpt><trkpt lat="39.720075" lon="8.958355"><ele>223.0</ele><time>2026-05-01T09:25:14.607Z</time></trkpt><trkpt lat="39.7201467" lon="8.95834"><ele>222.99999999999997</ele><time>2026-05-01T09:25:15.556Z</time></trkpt><trkpt lat="39.7202133" lon="8.9583233"><ele>223.0</ele><time>2026-05-01T09:25:16.556Z</time></trkpt><trkpt lat="39.720275" lon="8.9583067"><ele>224.16666666666666</ele><time>2026-05-01T09:25:17.557Z</time></trkpt><trkpt lat="39.720375" lon="8.9583183"><ele>225.33333333333331</ele><time>2026-05-01T09:25:19.555Z</time></trkpt><trkpt lat="39.7204283" lon="8.9583967"><ele>226.5</ele><time>2026-05-01T09:25:21.553Z</time></trkpt><trkpt lat="39.7204267" lon="8.9585117"><ele>227.66666666666669</ele><time>2026-05-01T09:25:23.555Z</time></trkpt><trkpt lat="39.7203933" lon="8.9585917"><ele>228.83333333333334</ele><time>2026-05-01T09:25:24.555Z</time></trkpt><trkpt lat="39.7203483" lon="8.9586767"><ele>230.0</ele><time>2026-05-01T09:25:25.554Z</time></trkpt><trkpt lat="39.7202933" lon="8.9587667"><ele>230.0</ele><time>2026-05-01T09:25:26.615Z</time></trkpt><trkpt lat="39.7202483" lon="8.9588733"><ele>230.0</ele><time>2026-05-01T09:25:27.556Z</time></trkpt><trkpt lat="39.7202083" lon="8.9590017"><ele>230.0</ele><time>2026-05-01T09:25:28.556Z</time></trkpt><trkpt lat="39.72018" lon="8.9591417"><ele>230.0</ele><time>2026-05-01T09:25:29.552Z</time></trkpt><trkpt lat="39.72016" lon="8.95929"><ele>230.0</ele><time>2026-05-01T09:25:30.554Z</time></trkpt><trkpt lat="39.720145" lon="8.9594433"><ele>227.75</ele><time>2026-05-01T09:25:31.553Z</time></trkpt><trkpt lat="39.7201267" lon="8.9596333"><ele>225.5</ele><time>2026-05-01T09:25:32.615Z</time></trkpt><trkpt lat="39.7201067" lon="8.9597983"><ele>223.25</ele><time>2026-05-01T09:25:33.554Z</time></trkpt><trkpt lat="39.7200833" lon="8.959935"><ele>221.0</ele><time>2026-05-01T09:25:34.553Z</time></trkpt><trkpt lat="39.7200517" lon="8.9600667"><ele>221.00000000000003</ele><time>2026-05-01T09:25:35.555Z</time></trkpt><trkpt lat="39.7200217" lon="8.9601867"><ele>221.0</ele><time>2026-05-01T09:25:36.552Z</time></trkpt><trkpt lat="39.7199933" lon="8.96029"><ele>221.0</ele><time>2026-05-01T09:25:37.555Z</time></trkpt><trkpt lat="39.71997" lon="8.9603867"><ele>221.0</ele><time>2026-05-01T09:25:38.608Z</time></trkpt><trkpt lat="39.7199417" lon="8.9604733"><ele>221.00000000000003</ele><time>2026-05-01T09:25:39.557Z</time></trkpt><trkpt lat="39.7198917" lon="8.9605933"><ele>221.0</ele><time>2026-05-01T09:25:41.554Z</time></trkpt><trkpt lat="39.7198133" lon="8.9606283"><ele>221.0</ele><time>2026-05-01T09:25:44.609Z</time></trkpt><trkpt lat="39.719745" lon="8.96058"><ele>221.00000000000003</ele><time>2026-05-01T09:25:46.556Z</time></trkpt><trkpt lat="39.7196817" lon="8.9605433"><ele>221.00000000000003</ele><time>2026-05-01T09:25:48.557Z</time></trkpt><trkpt lat="39.719595" lon="8.960595"><ele>221.0</ele><time>2026-05-01T09:25:51.552Z</time></trkpt><trkpt lat="39.7195317" lon="8.9606767"><ele>221.0</ele><time>2026-05-01T09:25:53.554Z</time></trkpt><trkpt lat="39.7194383" lon="8.960785"><ele>220.20000000000002</ele><time>2026-05-01T09:25:55.555Z</time></trkpt><trkpt lat="39.71937" lon="8.960845"><ele>219.40000000000003</ele><time>2026-05-01T09:25:56.613Z</time></trkpt><trkpt lat="39.7192983" lon="8.9609"><ele>218.6</ele><time>2026-05-01T09:25:57.556Z</time></trkpt><trkpt lat="39.7192183" lon="8.960965"><ele>217.8</ele><time>2026-05-01T09:25:58.555Z</time></trkpt><trkpt lat="39.7191367" lon="8.96103"><ele>217.0</ele><time>2026-05-01T09:25:59.554Z</time></trkpt><trkpt lat="39.7190567" lon="8.9611"><ele>217.0</ele><time>2026-05-01T09:26:00.556Z</time></trkpt><trkpt lat="39.7189683" lon="8.9611817"><ele>217.0</ele><time>2026-05-01T09:26:01.557Z</time></trkpt><trkpt lat="39.7188917" lon="8.961255"><ele>217.0</ele><time>2026-05-01T09:26:02.616Z</time></trkpt><trkpt lat="39.7188083" lon="8.9613383"><ele>217.0</ele><time>2026-05-01T09:26:03.553Z</time></trkpt><trkpt lat="39.718725" lon="8.9614433"><ele>217.0</ele><time>2026-05-01T09:26:04.556Z</time></trkpt><trkpt lat="39.7186517" lon="8.9615383"><ele>217.0</ele><time>2026-05-01T09:26:05.555Z</time></trkpt><trkpt lat="39.71859" lon="8.961625"><ele>217.0</ele><time>2026-05-01T09:26:06.559Z</time></trkpt><trkpt lat="39.7185317" lon="8.9617333"><ele>217.0</ele><time>2026-05-01T09:26:07.557Z</time></trkpt><trkpt lat="39.7184717" lon="8.961835"><ele>217.0</ele><time>2026-05-01T09:26:08.609Z</time></trkpt><trkpt lat="39.7184233" lon="8.961935"><ele>217.0</ele><time>2026-05-01T09:26:09.557Z</time></trkpt><trkpt lat="39.7183817" lon="8.9620417"><ele>217.0</ele><time>2026-05-01T09:26:10.554Z</time></trkpt><trkpt lat="39.7183483" lon="8.9621583"><ele>217.0</ele><time>2026-05-01T09:26:11.555Z</time></trkpt><trkpt lat="39.718305" lon="8.962285"><ele>217.0</ele><time>2026-05-01T09:26:12.555Z</time></trkpt><trkpt lat="39.71826" lon="8.9624167"><ele>217.0</ele><time>2026-05-01T09:26:13.554Z</time></trkpt><trkpt lat="39.718215" lon="8.962545"><ele>217.0</ele><time>2026-05-01T09:26:14.608Z</time></trkpt><trkpt lat="39.7181383" lon="8.9626267"><ele>217.0</ele><time>2026-05-01T09:26:15.554Z</time></trkpt><trkpt lat="39.7180533" lon="8.96272"><ele>217.0</ele><time>2026-05-01T09:26:16.553Z</time></trkpt><trkpt lat="39.7179783" lon="8.9628017"><ele>217.0</ele><time>2026-05-01T09:26:17.557Z</time></trkpt><trkpt lat="39.7179033" lon="8.96287"><ele>217.0</ele><time>2026-05-01T09:26:18.557Z</time></trkpt><trkpt lat="39.7178133" lon="8.9629383"><ele>217.0</ele><time>2026-05-01T09:26:19.559Z</time></trkpt><trkpt lat="39.7177117" lon="8.9629833"><ele>215.75</ele><time>2026-05-01T09:26:20.61Z</time></trkpt><trkpt lat="39.7176067" lon="8.9630233"><ele>214.5</ele><time>2026-05-01T09:26:21.553Z</time></trkpt><trkpt lat="39.7174833" lon="8.963055"><ele>213.25</ele><time>2026-05-01T09:26:22.551Z</time></trkpt><trkpt lat="39.7173733" lon="8.9630917"><ele>212.0</ele><time>2026-05-01T09:26:23.556Z</time></trkpt><trkpt lat="39.7172733" lon="8.9631267"><ele>212.00000000000003</ele><time>2026-05-01T09:26:24.552Z</time></trkpt><trkpt lat="39.7171883" lon="8.9631533"><ele>212.0</ele><time>2026-05-01T09:26:25.555Z</time></trkpt><trkpt lat="39.71711" lon="8.96317"><ele>212.0</ele><time>2026-05-01T09:26:26.618Z</time></trkpt><trkpt lat="39.7170333" lon="8.9631833"><ele>212.0</ele><time>2026-05-01T09:26:27.558Z</time></trkpt><trkpt lat="39.7169183" lon="8.9631967"><ele>212.00000000000003</ele><time>2026-05-01T09:26:29.555Z</time></trkpt><trkpt lat="39.7168467" lon="8.9632117"><ele>212.0</ele><time>2026-05-01T09:26:31.557Z</time></trkpt><trkpt lat="39.7168083" lon="8.96332"><ele>211.66666666666669</ele><time>2026-05-01T09:26:35.553Z</time></trkpt><trkpt lat="39.7167883" lon="8.9634617"><ele>211.33333333333334</ele><time>2026-05-01T09:26:37.556Z</time></trkpt><trkpt lat="39.71676" lon="8.9635417"><ele>211.0</ele><time>2026-05-01T09:26:38.607Z</time></trkpt><trkpt lat="39.71672" lon="8.9636333"><ele>210.66666666666669</ele><time>2026-05-01T09:26:39.556Z</time></trkpt><trkpt lat="39.7166733" lon="8.9637317"><ele>210.33333333333334</ele><time>2026-05-01T09:26:40.556Z</time></trkpt><trkpt lat="39.7166333" lon="8.9638483"><ele>210.0</ele><time>2026-05-01T09:26:41.558Z</time></trkpt><trkpt lat="39.716585" lon="8.9639767"><ele>210.0</ele><time>2026-05-01T09:26:42.557Z</time></trkpt><trkpt lat="39.7165167" lon="8.9641167"><ele>210.0</ele><time>2026-05-01T09:26:43.558Z</time></trkpt><trkpt lat="39.71646" lon="8.964255"><ele>210.0</ele><time>2026-05-01T09:26:44.612Z</time></trkpt><trkpt lat="39.7164033" lon="8.9644167"><ele>210.0</ele><time>2026-05-01T09:26:45.556Z</time></trkpt><trkpt lat="39.71633" lon="8.9645883"><ele>211.25</ele><time>2026-05-01T09:26:46.558Z</time></trkpt><trkpt lat="39.71627" lon="8.96475"><ele>212.5</ele><time>2026-05-01T09:26:47.554Z</time></trkpt><trkpt lat="39.7162067" lon="8.9649167"><ele>213.75</ele><time>2026-05-01T09:26:48.556Z</time></trkpt><trkpt lat="39.71614" lon="8.9650717"><ele>215.0</ele><time>2026-05-01T09:26:49.561Z</time></trkpt><trkpt lat="39.7160833" lon="8.9652067"><ele>215.2</ele><time>2026-05-01T09:26:50.611Z</time></trkpt><trkpt lat="39.7160217" lon="8.965325"><ele>215.4</ele><time>2026-05-01T09:26:51.553Z</time></trkpt><trkpt lat="39.7159667" lon="8.965425"><ele>215.60000000000002</ele><time>2026-05-01T09:26:52.555Z</time></trkpt><trkpt lat="39.7159267" lon="8.9654983"><ele>215.8</ele><time>2026-05-01T09:26:53.555Z</time></trkpt><trkpt lat="39.71584" lon="8.9655783"><ele>216.0</ele><time>2026-05-01T09:26:55.556Z</time></trkpt><trkpt lat="39.7157317" lon="8.965595"><ele>216.0</ele><time>2026-05-01T09:26:57.558Z</time></trkpt><trkpt lat="39.7156717" lon="8.965555"><ele>216.00000000000003</ele><time>2026-05-01T09:26:58.554Z</time></trkpt><trkpt lat="39.7156133" lon="8.9655067"><ele>216.00000000000003</ele><time>2026-05-01T09:26:59.556Z</time></trkpt><trkpt lat="39.7155483" lon="8.9654383"><ele>216.0</ele><time>2026-05-01T09:27:00.556Z</time></trkpt><trkpt lat="39.7154617" lon="8.965375"><ele>216.0</ele><time>2026-05-01T09:27:01.556Z</time></trkpt><trkpt lat="39.7153517" lon="8.965255"><ele>215.25</ele><time>2026-05-01T09:27:02.61Z</time></trkpt><trkpt lat="39.7152367" lon="8.9651533"><ele>214.5</ele><time>2026-05-01T09:27:03.555Z</time></trkpt><trkpt lat="39.7151183" lon="8.9651"><ele>213.75</ele><time>2026-05-01T09:27:04.555Z</time></trkpt><trkpt lat="39.7149983" lon="8.965055"><ele>213.0</ele><time>2026-05-01T09:27:05.55Z</time></trkpt><trkpt lat="39.7148717" lon="8.9650383"><ele>213.0</ele><time>2026-05-01T09:27:06.559Z</time></trkpt><trkpt lat="39.7147583" lon="8.9650367"><ele>213.0</ele><time>2026-05-01T09:27:07.561Z</time></trkpt><trkpt lat="39.714645" lon="8.96507"><ele>213.0</ele><time>2026-05-01T09:27:08.609Z</time></trkpt><trkpt lat="39.7145467" lon="8.9650967"><ele>213.0</ele><time>2026-05-01T09:27:09.556Z</time></trkpt><trkpt lat="39.7144217" lon="8.9650967"><ele>213.0</ele><time>2026-05-01T09:27:10.555Z</time></trkpt><trkpt lat="39.7143467" lon="8.9651367"><ele>213.0</ele><time>2026-05-01T09:27:11.553Z</time></trkpt><trkpt lat="39.71428" lon="8.9651733"><ele>213.0</ele><time>2026-05-01T09:27:12.555Z</time></trkpt><trkpt lat="39.7141933" lon="8.96527"><ele>213.0</ele><time>2026-05-01T09:27:14.609Z</time></trkpt><trkpt lat="39.7141033" lon="8.965345"><ele>213.0</ele><time>2026-05-01T09:27:16.557Z</time></trkpt><trkpt lat="39.713995" lon="8.9653883"><ele>213.0</ele><time>2026-05-01T09:27:18.554Z</time></trkpt><trkpt lat="39.7138733" lon="8.9653983"><ele>213.0</ele><time>2026-05-01T09:27:20.605Z</time></trkpt><trkpt lat="39.7138083" lon="8.9653933"><ele>213.0</ele><time>2026-05-01T09:27:21.551Z</time></trkpt><trkpt lat="39.7137367" lon="8.96538"><ele>213.0</ele><time>2026-05-01T09:27:22.552Z</time></trkpt><trkpt lat="39.7136617" lon="8.9653667"><ele>213.0</ele><time>2026-05-01T09:27:23.554Z</time></trkpt><trkpt lat="39.7135833" lon="8.9653517"><ele>213.0</ele><time>2026-05-01T09:27:24.554Z</time></trkpt><trkpt lat="39.7135033" lon="8.9653367"><ele>213.16666666666666</ele><time>2026-05-01T09:27:25.553Z</time></trkpt><trkpt lat="39.713425" lon="8.9653217"><ele>213.33333333333331</ele><time>2026-05-01T09:27:26.62Z</time></trkpt><trkpt lat="39.7133517" lon="8.965295"><ele>213.5</ele><time>2026-05-01T09:27:27.555Z</time></trkpt><trkpt lat="39.7132717" lon="8.9652617"><ele>213.66666666666666</ele><time>2026-05-01T09:27:28.556Z</time></trkpt><trkpt lat="39.7131917" lon="8.965225"><ele>213.83333333333331</ele><time>2026-05-01T09:27:29.555Z</time></trkpt><trkpt lat="39.7131117" lon="8.9651917"><ele>214.0</ele><time>2026-05-01T09:27:30.558Z</time></trkpt><trkpt lat="39.71303" lon="8.9651533"><ele>214.0</ele><time>2026-05-01T09:27:31.553Z</time></trkpt><trkpt lat="39.7129467" lon="8.965115"><ele>213.99999999999997</ele><time>2026-05-01T09:27:32.61Z</time></trkpt><trkpt lat="39.7128617" lon="8.96508"><ele>213.99999999999997</ele><time>2026-05-01T09:27:33.555Z</time></trkpt><trkpt lat="39.7127733" lon="8.9650383"><ele>214.0</ele><time>2026-05-01T09:27:34.558Z</time></trkpt><trkpt lat="39.7126783" lon="8.9649733"><ele>214.0</ele><time>2026-05-01T09:27:35.556Z</time></trkpt><trkpt lat="39.7125767" lon="8.9649183"><ele>212.2</ele><time>2026-05-01T09:27:36.556Z</time></trkpt><trkpt lat="39.712485" lon="8.96487"><ele>210.39999999999998</ele><time>2026-05-01T09:27:37.555Z</time></trkpt><trkpt lat="39.71239" lon="8.9648217"><ele>208.6</ele><time>2026-05-01T09:27:38.61Z</time></trkpt><trkpt lat="39.7122983" lon="8.9647633"><ele>206.8</ele><time>2026-05-01T09:27:39.554Z</time></trkpt><trkpt lat="39.7121767" lon="8.9647067"><ele>205.0</ele><time>2026-05-01T09:27:40.554Z</time></trkpt><trkpt lat="39.7120583" lon="8.9646617"><ele>205.0</ele><time>2026-05-01T09:27:41.556Z</time></trkpt><trkpt lat="39.7119417" lon="8.9646033"><ele>205.0</ele><time>2026-05-01T09:27:42.554Z</time></trkpt><trkpt lat="39.71182" lon="8.9645517"><ele>205.0</ele><time>2026-05-01T09:27:43.556Z</time></trkpt><trkpt lat="39.7117017" lon="8.964495"><ele>205.0</ele><time>2026-05-01T09:27:44.609Z</time></trkpt><trkpt lat="39.7116" lon="8.9644433"><ele>204.25</ele><time>2026-05-01T09:27:45.554Z</time></trkpt><trkpt lat="39.7114783" lon="8.9643783"><ele>203.5</ele><time>2026-05-01T09:27:46.556Z</time></trkpt><trkpt lat="39.7113617" lon="8.9643167"><ele>202.75</ele><time>2026-05-01T09:27:47.554Z</time></trkpt><trkpt lat="39.7112517" lon="8.9642583"><ele>202.0</ele><time>2026-05-01T09:27:48.555Z</time></trkpt><trkpt lat="39.7111533" lon="8.96421"><ele>200.8</ele><time>2026-05-01T09:27:49.553Z</time></trkpt><trkpt lat="39.7110567" lon="8.96416"><ele>199.6</ele><time>2026-05-01T09:27:50.607Z</time></trkpt><trkpt lat="39.7109483" lon="8.964105"><ele>198.4</ele><time>2026-05-01T09:27:51.552Z</time></trkpt><trkpt lat="39.7108467" lon="8.9640583"><ele>197.20000000000002</ele><time>2026-05-01T09:27:52.555Z</time></trkpt><trkpt lat="39.710775" lon="8.9640133"><ele>196.0</ele><time>2026-05-01T09:27:53.555Z</time></trkpt><trkpt lat="39.7106983" lon="8.9639583"><ele>195.99999999999997</ele><time>2026-05-01T09:27:54.552Z</time></trkpt><trkpt lat="39.71064" lon="8.9639083"><ele>196.0</ele><time>2026-05-01T09:27:55.556Z</time></trkpt><trkpt lat="39.7105817" lon="8.9638683"><ele>196.0</ele><time>2026-05-01T09:27:56.621Z</time></trkpt><trkpt lat="39.7104967" lon="8.9638017"><ele>196.0</ele><time>2026-05-01T09:27:58.558Z</time></trkpt><trkpt lat="39.7104333" lon="8.9637533"><ele>195.99999999999997</ele><time>2026-05-01T09:28:13.552Z</time></trkpt><trkpt lat="39.7103583" lon="8.9638233"><ele>196.0</ele><time>2026-05-01T09:28:15.552Z</time></trkpt><trkpt lat="39.710305" lon="8.9639"><ele>196.0</ele><time>2026-05-01T09:28:16.556Z</time></trkpt><trkpt lat="39.7102483" lon="8.963975"><ele>196.0</ele><time>2026-05-01T09:28:17.556Z</time></trkpt><trkpt lat="39.71019" lon="8.9640467"><ele>196.0</ele><time>2026-05-01T09:28:18.558Z</time></trkpt><trkpt lat="39.7101217" lon="8.96412"><ele>196.0</ele><time>2026-05-01T09:28:19.555Z</time></trkpt><trkpt lat="39.7100417" lon="8.96419"><ele>196.0</ele><time>2026-05-01T09:28:20.606Z</time></trkpt><trkpt lat="39.7099617" lon="8.9642783"><ele>196.25</ele><time>2026-05-01T09:28:21.554Z</time></trkpt><trkpt lat="39.7098683" lon="8.964355"><ele>196.5</ele><time>2026-05-01T09:28:22.554Z</time></trkpt><trkpt lat="39.70975" lon="8.9644117"><ele>196.75</ele><time>2026-05-01T09:28:23.554Z</time></trkpt><trkpt lat="39.7095967" lon="8.9644567"><ele>197.0</ele><time>2026-05-01T09:28:24.554Z</time></trkpt><trkpt lat="39.7094467" lon="8.9645117"><ele>196.33333333333334</ele><time>2026-05-01T09:28:25.554Z</time></trkpt><trkpt lat="39.7093033" lon="8.9645767"><ele>195.66666666666669</ele><time>2026-05-01T09:28:26.586Z</time></trkpt><trkpt lat="39.709155" lon="8.9646367"><ele>195.0</ele><time>2026-05-01T09:28:27.551Z</time></trkpt><trkpt lat="39.709005" lon="8.9647017"><ele>195.0</ele><time>2026-05-01T09:28:28.551Z</time></trkpt><trkpt lat="39.708835" lon="8.9647467"><ele>195.0</ele><time>2026-05-01T09:28:29.554Z</time></trkpt><trkpt lat="39.708665" lon="8.9648067"><ele>195.0</ele><time>2026-05-01T09:28:30.555Z</time></trkpt><trkpt lat="39.7084633" lon="8.964865"><ele>194.66666666666669</ele><time>2026-05-01T09:28:31.556Z</time></trkpt><trkpt lat="39.7082867" lon="8.96493"><ele>194.33333333333334</ele><time>2026-05-01T09:28:32.613Z</time></trkpt><trkpt lat="39.708115" lon="8.9650133"><ele>194.0</ele><time>2026-05-01T09:28:33.553Z</time></trkpt><trkpt lat="39.7079517" lon="8.9650983"><ele>195.0</ele><time>2026-05-01T09:28:34.556Z</time></trkpt><trkpt lat="39.7077883" lon="8.9651867"><ele>196.0</ele><time>2026-05-01T09:28:35.553Z</time></trkpt><trkpt lat="39.7076" lon="8.965245"><ele>197.0</ele><time>2026-05-01T09:28:36.551Z</time></trkpt><trkpt lat="39.7074233" lon="8.9653083"><ele>197.0</ele><time>2026-05-01T09:28:37.556Z</time></trkpt><trkpt lat="39.7072667" lon="8.96538"><ele>197.0</ele><time>2026-05-01T09:28:38.601Z</time></trkpt><trkpt lat="39.7071" lon="8.965445"><ele>197.0</ele><time>2026-05-01T09:28:39.553Z</time></trkpt><trkpt lat="39.7069367" lon="8.9655067"><ele>196.0</ele><time>2026-05-01T09:28:40.553Z</time></trkpt><trkpt lat="39.7067733" lon="8.9655817"><ele>195.0</ele><time>2026-05-01T09:28:41.555Z</time></trkpt><trkpt lat="39.7066167" lon="8.965655"><ele>194.0</ele><time>2026-05-01T09:28:42.552Z</time></trkpt><trkpt lat="39.7064633" lon="8.9657417"><ele>194.0</ele><time>2026-05-01T09:28:43.55Z</time></trkpt><trkpt lat="39.7063033" lon="8.96584"><ele>194.0</ele><time>2026-05-01T09:28:44.601Z</time></trkpt><trkpt lat="39.706135" lon="8.9659333"><ele>194.0</ele><time>2026-05-01T09:28:45.554Z</time></trkpt><trkpt lat="39.7059767" lon="8.9660533"><ele>193.33333333333334</ele><time>2026-05-01T09:28:46.552Z</time></trkpt><trkpt lat="39.7058183" lon="8.9661517"><ele>192.66666666666669</ele><time>2026-05-01T09:28:47.552Z</time></trkpt><trkpt lat="39.705665" lon="8.9662633"><ele>192.0</ele><time>2026-05-01T09:28:48.554Z</time></trkpt><trkpt lat="39.70551" lon="8.966355"><ele>192.0</ele><time>2026-05-01T09:28:49.553Z</time></trkpt><trkpt lat="39.705365" lon="8.966455"><ele>192.0</ele><time>2026-05-01T09:28:50.602Z</time></trkpt><trkpt lat="39.7052283" lon="8.9665583"><ele>192.0</ele><time>2026-05-01T09:28:51.555Z</time></trkpt><trkpt lat="39.7051017" lon="8.96666"><ele>193.0</ele><time>2026-05-01T09:28:52.55Z</time></trkpt><trkpt lat="39.7049717" lon="8.96676"><ele>194.0</ele><time>2026-05-01T09:28:53.553Z</time></trkpt><trkpt lat="39.704835" lon="8.96686"><ele>195.0</ele><time>2026-05-01T09:28:54.554Z</time></trkpt><trkpt lat="39.704705" lon="8.9669583"><ele>195.0</ele><time>2026-05-01T09:28:55.553Z</time></trkpt><trkpt lat="39.70457" lon="8.967045"><ele>195.0</ele><time>2026-05-01T09:28:56.616Z</time></trkpt><trkpt lat="39.7044383" lon="8.967145"><ele>195.0</ele><time>2026-05-01T09:28:57.555Z</time></trkpt><trkpt lat="39.70429" lon="8.96724"><ele>197.33333333333331</ele><time>2026-05-01T09:28:58.551Z</time></trkpt><trkpt lat="39.7041683" lon="8.9673483"><ele>199.66666666666666</ele><time>2026-05-01T09:28:59.555Z</time></trkpt><trkpt lat="39.704035" lon="8.9674283"><ele>202.0</ele><time>2026-05-01T09:29:00.553Z</time></trkpt><trkpt lat="39.70389" lon="8.9675367"><ele>202.0</ele><time>2026-05-01T09:29:01.551Z</time></trkpt><trkpt lat="39.703735" lon="8.96761"><ele>202.0</ele><time>2026-05-01T09:29:02.613Z</time></trkpt><trkpt lat="39.7035717" lon="8.9676783"><ele>202.0</ele><time>2026-05-01T09:29:03.549Z</time></trkpt><trkpt lat="39.7034083" lon="8.96775"><ele>199.0</ele><time>2026-05-01T09:29:04.553Z</time></trkpt><trkpt lat="39.7032667" lon="8.967845"><ele>196.0</ele><time>2026-05-01T09:29:05.553Z</time></trkpt><trkpt lat="39.7031167" lon="8.96794"><ele>193.0</ele><time>2026-05-01T09:29:06.552Z</time></trkpt><trkpt lat="39.7029633" lon="8.9680217"><ele>193.0</ele><time>2026-05-01T09:29:07.549Z</time></trkpt><trkpt lat="39.7028217" lon="8.9680983"><ele>193.0</ele><time>2026-05-01T09:29:08.601Z</time></trkpt><trkpt lat="39.7026917" lon="8.9681767"><ele>193.0</ele><time>2026-05-01T09:29:09.552Z</time></trkpt><trkpt lat="39.70256" lon="8.96826"><ele>193.0</ele><time>2026-05-01T09:29:10.554Z</time></trkpt><trkpt lat="39.702425" lon="8.96835"><ele>192.75</ele><time>2026-05-01T09:29:11.557Z</time></trkpt><trkpt lat="39.7023067" lon="8.9684567"><ele>192.5</ele><time>2026-05-01T09:29:12.554Z</time></trkpt><trkpt lat="39.7021917" lon="8.96857"><ele>192.25</ele><time>2026-05-01T09:29:13.555Z</time></trkpt><trkpt lat="39.702065" lon="8.9686967"><ele>192.0</ele><time>2026-05-01T09:29:14.6Z</time></trkpt><trkpt lat="39.701945" lon="8.96883"><ele>189.66666666666666</ele><time>2026-05-01T09:29:15.55Z</time></trkpt><trkpt lat="39.7018317" lon="8.968965"><ele>187.33333333333331</ele><time>2026-05-01T09:29:16.552Z</time></trkpt><trkpt lat="39.7017" lon="8.9690983"><ele>185.0</ele><time>2026-05-01T09:29:17.552Z</time></trkpt><trkpt lat="39.7015817" lon="8.9692267"><ele>185.0</ele><time>2026-05-01T09:29:18.555Z</time></trkpt><trkpt lat="39.7014717" lon="8.9693733"><ele>185.0</ele><time>2026-05-01T09:29:19.553Z</time></trkpt><trkpt lat="39.7013633" lon="8.969495"><ele>185.0</ele><time>2026-05-01T09:29:20.6Z</time></trkpt><trkpt lat="39.70126" lon="8.9696267"><ele>185.0</ele><time>2026-05-01T09:29:21.555Z</time></trkpt><trkpt lat="39.7011633" lon="8.9697367"><ele>184.5</ele><time>2026-05-01T09:29:22.557Z</time></trkpt><trkpt lat="39.7010717" lon="8.9698517"><ele>184.0</ele><time>2026-05-01T09:29:23.555Z</time></trkpt><trkpt lat="39.7009767" lon="8.9699467"><ele>183.5</ele><time>2026-05-01T09:29:24.553Z</time></trkpt><trkpt lat="39.70089" lon="8.970045"><ele>183.0</ele><time>2026-05-01T09:29:25.555Z</time></trkpt><trkpt lat="39.7008083" lon="8.9701483"><ele>183.0</ele><time>2026-05-01T09:29:26.622Z</time></trkpt><trkpt lat="39.7007217" lon="8.970255"><ele>183.0</ele><time>2026-05-01T09:29:27.55Z</time></trkpt><trkpt lat="39.70063" lon="8.970355"><ele>183.0</ele><time>2026-05-01T09:29:28.553Z</time></trkpt><trkpt lat="39.7005433" lon="8.9704467"><ele>183.0</ele><time>2026-05-01T09:29:29.554Z</time></trkpt><trkpt lat="39.7004683" lon="8.970545"><ele>183.0</ele><time>2026-05-01T09:29:30.55Z</time></trkpt><trkpt lat="39.7003983" lon="8.9706417"><ele>183.0</ele><time>2026-05-01T09:29:31.555Z</time></trkpt><trkpt lat="39.70032" lon="8.97074"><ele>183.0</ele><time>2026-05-01T09:29:32.613Z</time></trkpt><trkpt lat="39.700245" lon="8.9708267"><ele>183.0</ele><time>2026-05-01T09:29:33.551Z</time></trkpt><trkpt lat="39.7001767" lon="8.9709017"><ele>183.0</ele><time>2026-05-01T09:29:34.554Z</time></trkpt><trkpt lat="39.70011" lon="8.9709767"><ele>182.71428571428572</ele><time>2026-05-01T09:29:35.556Z</time></trkpt><trkpt lat="39.7000617" lon="8.9710383"><ele>182.42857142857144</ele><time>2026-05-01T09:29:36.553Z</time></trkpt><trkpt lat="39.7000083" lon="8.9710933"><ele>182.14285714285714</ele><time>2026-05-01T09:29:37.554Z</time></trkpt><trkpt lat="39.699955" lon="8.9711483"><ele>181.85714285714286</ele><time>2026-05-01T09:29:38.601Z</time></trkpt><trkpt lat="39.699905" lon="8.9712083"><ele>181.57142857142856</ele><time>2026-05-01T09:29:39.554Z</time></trkpt><trkpt lat="39.699845" lon="8.971275"><ele>181.28571428571428</ele><time>2026-05-01T09:29:40.551Z</time></trkpt><trkpt lat="39.6997767" lon="8.9713483"><ele>181.0</ele><time>2026-05-01T09:29:41.554Z</time></trkpt><trkpt lat="39.6997033" lon="8.9714267"><ele>181.0</ele><time>2026-05-01T09:29:42.554Z</time></trkpt><trkpt lat="39.6996033" lon="8.9715117"><ele>181.0</ele><time>2026-05-01T09:29:43.549Z</time></trkpt><trkpt lat="39.6994917" lon="8.97161"><ele>181.0</ele><time>2026-05-01T09:29:44.602Z</time></trkpt><trkpt lat="39.6993633" lon="8.9717033"><ele>181.0</ele><time>2026-05-01T09:29:45.556Z</time></trkpt><trkpt lat="39.6992267" lon="8.9718017"><ele>180.0</ele><time>2026-05-01T09:29:46.552Z</time></trkpt><trkpt lat="39.6990933" lon="8.9719283"><ele>179.0</ele><time>2026-05-01T09:29:47.551Z</time></trkpt><trkpt lat="39.698935" lon="8.9720333"><ele>178.0</ele><time>2026-05-01T09:29:48.551Z</time></trkpt><trkpt lat="39.69877" lon="8.9721567"><ele>177.66666666666669</ele><time>2026-05-01T09:29:49.555Z</time></trkpt><trkpt lat="39.6985833" lon="8.9722467"><ele>177.33333333333334</ele><time>2026-05-01T09:29:50.607Z</time></trkpt><trkpt lat="39.6984067" lon="8.97235"><ele>177.0</ele><time>2026-05-01T09:29:51.554Z</time></trkpt><trkpt lat="39.6982167" lon="8.9724633"><ele>177.66666666666666</ele><time>2026-05-01T09:29:52.55Z</time></trkpt><trkpt lat="39.69804" lon="8.9725883"><ele>178.33333333333331</ele><time>2026-05-01T09:29:53.554Z</time></trkpt><trkpt lat="39.6978517" lon="8.9727117"><ele>179.0</ele><time>2026-05-01T09:29:54.555Z</time></trkpt><trkpt lat="39.6976717" lon="8.9728483"><ele>179.0</ele><time>2026-05-01T09:29:55.554Z</time></trkpt><trkpt lat="39.6974867" lon="8.97297"><ele>179.0</ele><time>2026-05-01T09:29:56.619Z</time></trkpt><trkpt lat="39.6973083" lon="8.973095"><ele>179.0</ele><time>2026-05-01T09:29:57.554Z</time></trkpt><trkpt lat="39.6971217" lon="8.9732117"><ele>180.0</ele><time>2026-05-01T09:29:58.553Z</time></trkpt><trkpt lat="39.6969217" lon="8.9733617"><ele>181.0</ele><time>2026-05-01T09:29:59.554Z</time></trkpt><trkpt lat="39.6967233" lon="8.9734917"><ele>181.0</ele><time>2026-05-01T09:30:00.552Z</time></trkpt><trkpt lat="39.696535" lon="8.9736167"><ele>181.0</ele><time>2026-05-01T09:30:01.555Z</time></trkpt><trkpt lat="39.6963483" lon="8.9737417"><ele>181.0</ele><time>2026-05-01T09:30:02.613Z</time></trkpt><trkpt lat="39.6961583" lon="8.9738733"><ele>179.66666666666669</ele><time>2026-05-01T09:30:03.552Z</time></trkpt><trkpt lat="39.6959667" lon="8.9740083"><ele>178.33333333333334</ele><time>2026-05-01T09:30:04.553Z</time></trkpt><trkpt lat="39.6957717" lon="8.9741133"><ele>177.0</ele><time>2026-05-01T09:30:05.554Z</time></trkpt><trkpt lat="39.6955817" lon="8.9742117"><ele>177.0</ele><time>2026-05-01T09:30:06.554Z</time></trkpt><trkpt lat="39.695385" lon="8.974295"><ele>177.0</ele><time>2026-05-01T09:30:07.553Z</time></trkpt><trkpt lat="39.69518" lon="8.9743617"><ele>177.0</ele><time>2026-05-01T09:30:08.606Z</time></trkpt><trkpt lat="39.6949633" lon="8.9744083"><ele>176.33333333333334</ele><time>2026-05-01T09:30:09.548Z</time></trkpt><trkpt lat="39.6947533" lon="8.97445"><ele>175.66666666666669</ele><time>2026-05-01T09:30:10.553Z</time></trkpt><trkpt lat="39.6945467" lon="8.97449"><ele>175.0</ele><time>2026-05-01T09:30:11.557Z</time></trkpt><trkpt lat="39.69434" lon="8.9745333"><ele>174.0</ele><time>2026-05-01T09:30:12.555Z</time></trkpt><trkpt lat="39.6941317" lon="8.9745817"><ele>173.0</ele><time>2026-05-01T09:30:13.555Z</time></trkpt><trkpt lat="39.693925" lon="8.97463"><ele>172.0</ele><time>2026-05-01T09:30:14.608Z</time></trkpt><trkpt lat="39.6937233" lon="8.9746967"><ele>171.66666666666669</ele><time>2026-05-01T09:30:15.551Z</time></trkpt><trkpt lat="39.6935167" lon="8.97475"><ele>171.33333333333334</ele><time>2026-05-01T09:30:16.555Z</time></trkpt><trkpt lat="39.6933033" lon="8.9747917"><ele>171.0</ele><time>2026-05-01T09:30:17.556Z</time></trkpt><trkpt lat="39.6931017" lon="8.9748267"><ele>171.0</ele><time>2026-05-01T09:30:18.558Z</time></trkpt><trkpt lat="39.6929083" lon="8.9748633"><ele>171.0</ele><time>2026-05-01T09:30:19.552Z</time></trkpt><trkpt lat="39.6927067" lon="8.9749067"><ele>171.0</ele><time>2026-05-01T09:30:20.608Z</time></trkpt><trkpt lat="39.6925033" lon="8.97496"><ele>172.0</ele><time>2026-05-01T09:30:21.555Z</time></trkpt><trkpt lat="39.692305" lon="8.9750217"><ele>173.0</ele><time>2026-05-01T09:30:22.55Z</time></trkpt><trkpt lat="39.6921167" lon="8.9750967"><ele>174.0</ele><time>2026-05-01T09:30:23.556Z</time></trkpt><trkpt lat="39.6919333" lon="8.9751933"><ele>173.33333333333334</ele><time>2026-05-01T09:30:24.555Z</time></trkpt><trkpt lat="39.691755" lon="8.9752983"><ele>172.66666666666669</ele><time>2026-05-01T09:30:25.551Z</time></trkpt><trkpt lat="39.6915817" lon="8.9754283"><ele>172.0</ele><time>2026-05-01T09:30:26.62Z</time></trkpt><trkpt lat="39.69141" lon="8.97556"><ele>172.0</ele><time>2026-05-01T09:30:27.554Z</time></trkpt><trkpt lat="39.6912417" lon="8.9756967"><ele>172.0</ele><time>2026-05-01T09:30:28.554Z</time></trkpt><trkpt lat="39.6910733" lon="8.9758367"><ele>172.0</ele><time>2026-05-01T09:30:29.551Z</time></trkpt><trkpt lat="39.6909083" lon="8.9759783"><ele>170.33333333333334</ele><time>2026-05-01T09:30:30.553Z</time></trkpt><trkpt lat="39.69075" lon="8.9761367"><ele>168.66666666666666</ele><time>2026-05-01T09:30:31.552Z</time></trkpt><trkpt lat="39.6905817" lon="8.9762867"><ele>167.0</ele><time>2026-05-01T09:30:32.611Z</time></trkpt><trkpt lat="39.690415" lon="8.9764217"><ele>167.33333333333331</ele><time>2026-05-01T09:30:33.547Z</time></trkpt><trkpt lat="39.690255" lon="8.97655"><ele>167.66666666666666</ele><time>2026-05-01T09:30:34.553Z</time></trkpt><trkpt lat="39.6900917" lon="8.9766933"><ele>168.0</ele><time>2026-05-01T09:30:35.554Z</time></trkpt><trkpt lat="39.6899267" lon="8.97684"><ele>168.0</ele><time>2026-05-01T09:30:36.552Z</time></trkpt><trkpt lat="39.6897683" lon="8.9769767"><ele>168.0</ele><time>2026-05-01T09:30:37.555Z</time></trkpt><trkpt lat="39.6896067" lon="8.977115"><ele>168.0</ele><time>2026-05-01T09:30:38.607Z</time></trkpt><trkpt lat="39.689435" lon="8.977255"><ele>168.0</ele><time>2026-05-01T09:30:39.555Z</time></trkpt><trkpt lat="39.6892733" lon="8.9774017"><ele>168.0</ele><time>2026-05-01T09:30:40.551Z</time></trkpt><trkpt lat="39.6891267" lon="8.97756"><ele>168.0</ele><time>2026-05-01T09:30:41.555Z</time></trkpt><trkpt lat="39.6889667" lon="8.9777367"><ele>168.0</ele><time>2026-05-01T09:30:42.555Z</time></trkpt><trkpt lat="39.6888167" lon="8.977905"><ele>168.0</ele><time>2026-05-01T09:30:43.554Z</time></trkpt><trkpt lat="39.6886733" lon="8.9780933"><ele>168.0</ele><time>2026-05-01T09:30:44.605Z</time></trkpt><trkpt lat="39.6885117" lon="8.9782767"><ele>166.0</ele><time>2026-05-01T09:30:45.553Z</time></trkpt><trkpt lat="39.6883517" lon="8.9784667"><ele>164.0</ele><time>2026-05-01T09:30:46.552Z</time></trkpt><trkpt lat="39.6881917" lon="8.9786483"><ele>162.0</ele><time>2026-05-01T09:30:47.552Z</time></trkpt><trkpt lat="39.688035" lon="8.9788333"><ele>162.0</ele><time>2026-05-01T09:30:48.554Z</time></trkpt><trkpt lat="39.687875" lon="8.9790233"><ele>162.0</ele><time>2026-05-01T09:30:49.555Z</time></trkpt><trkpt lat="39.6877083" lon="8.9791983"><ele>162.0</ele><time>2026-05-01T09:30:50.603Z</time></trkpt><trkpt lat="39.6875333" lon="8.9793633"><ele>161.0</ele><time>2026-05-01T09:30:51.554Z</time></trkpt><trkpt lat="39.6873533" lon="8.9795117"><ele>160.0</ele><time>2026-05-01T09:30:52.553Z</time></trkpt><trkpt lat="39.68717" lon="8.9796567"><ele>159.0</ele><time>2026-05-01T09:30:53.549Z</time></trkpt><trkpt lat="39.6869783" lon="8.9797817"><ele>159.0</ele><time>2026-05-01T09:30:54.552Z</time></trkpt><trkpt lat="39.6867917" lon="8.9799083"><ele>159.0</ele><time>2026-05-01T09:30:55.554Z</time></trkpt><trkpt lat="39.686605" lon="8.980035"><ele>159.0</ele><time>2026-05-01T09:30:56.59Z</time></trkpt><trkpt lat="39.68642" lon="8.9801717"><ele>159.0</ele><time>2026-05-01T09:30:57.551Z</time></trkpt><trkpt lat="39.6862417" lon="8.98031"><ele>159.0</ele><time>2026-05-01T09:30:58.549Z</time></trkpt><trkpt lat="39.686065" lon="8.9804417"><ele>159.0</ele><time>2026-05-01T09:30:59.554Z</time></trkpt><trkpt lat="39.6858917" lon="8.9805717"><ele>159.0</ele><time>2026-05-01T09:31:00.548Z</time></trkpt><trkpt lat="39.6857217" lon="8.98071"><ele>159.0</ele><time>2026-05-01T09:31:01.554Z</time></trkpt><trkpt lat="39.6855317" lon="8.9808517"><ele>159.0</ele><time>2026-05-01T09:31:02.612Z</time></trkpt><trkpt lat="39.685335" lon="8.980995"><ele>160.66666666666666</ele><time>2026-05-01T09:31:03.554Z</time></trkpt><trkpt lat="39.685155" lon="8.981125"><ele>162.33333333333331</ele><time>2026-05-01T09:31:04.55Z</time></trkpt><trkpt lat="39.684995" lon="8.981245"><ele>164.0</ele><time>2026-05-01T09:31:05.554Z</time></trkpt><trkpt lat="39.6848333" lon="8.9813583"><ele>164.0</ele><time>2026-05-01T09:31:06.548Z</time></trkpt><trkpt lat="39.68466" lon="8.9814667"><ele>164.0</ele><time>2026-05-01T09:31:07.554Z</time></trkpt><trkpt lat="39.6844983" lon="8.981585"><ele>164.0</ele><time>2026-05-01T09:31:08.607Z</time></trkpt><trkpt lat="39.6843317" lon="8.9817017"><ele>163.66666666666666</ele><time>2026-05-01T09:31:09.553Z</time></trkpt><trkpt lat="39.6841633" lon="8.981825"><ele>163.33333333333334</ele><time>2026-05-01T09:31:10.554Z</time></trkpt><trkpt lat="39.6840017" lon="8.9819467"><ele>163.0</ele><time>2026-05-01T09:31:11.552Z</time></trkpt><trkpt lat="39.6838417" lon="8.9820533"><ele>163.0</ele><time>2026-05-01T09:31:12.554Z</time></trkpt><trkpt lat="39.6836833" lon="8.98214"><ele>163.0</ele><time>2026-05-01T09:31:13.55Z</time></trkpt><trkpt lat="39.6835167" lon="8.9822033"><ele>163.0</ele><time>2026-05-01T09:31:14.605Z</time></trkpt><trkpt lat="39.6833433" lon="8.98225"><ele>164.0</ele><time>2026-05-01T09:31:15.551Z</time></trkpt><trkpt lat="39.6831683" lon="8.9822883"><ele>165.0</ele><time>2026-05-01T09:31:16.55Z</time></trkpt><trkpt lat="39.6829933" lon="8.9823267"><ele>166.0</ele><time>2026-05-01T09:31:17.551Z</time></trkpt><trkpt lat="39.6828233" lon="8.9823583"><ele>166.0</ele><time>2026-05-01T09:31:18.551Z</time></trkpt><trkpt lat="39.6826567" lon="8.982385"><ele>166.0</ele><time>2026-05-01T09:31:19.554Z</time></trkpt><trkpt lat="39.6824917" lon="8.9824117"><ele>166.0</ele><time>2026-05-01T09:31:20.606Z</time></trkpt><trkpt lat="39.6823267" lon="8.9824317"><ele>166.0</ele><time>2026-05-01T09:31:21.552Z</time></trkpt><trkpt lat="39.6821583" lon="8.9824367"><ele>166.0</ele><time>2026-05-01T09:31:22.554Z</time></trkpt><trkpt lat="39.681985" lon="8.9824383"><ele>166.0</ele><time>2026-05-01T09:31:23.555Z</time></trkpt><trkpt lat="39.68182" lon="8.9824333"><ele>165.33333333333334</ele><time>2026-05-01T09:31:24.554Z</time></trkpt><trkpt lat="39.6816517" lon="8.9824033"><ele>164.66666666666666</ele><time>2026-05-01T09:31:25.554Z</time></trkpt><trkpt lat="39.6814817" lon="8.9823767"><ele>164.0</ele><time>2026-05-01T09:31:26.619Z</time></trkpt><trkpt lat="39.681325" lon="8.982365"><ele>164.0</ele><time>2026-05-01T09:31:27.548Z</time></trkpt><trkpt lat="39.6811933" lon="8.98235"><ele>164.0</ele><time>2026-05-01T09:31:28.551Z</time></trkpt><trkpt lat="39.6810833" lon="8.98234"><ele>164.0</ele><time>2026-05-01T09:31:29.55Z</time></trkpt><trkpt lat="39.6810033" lon="8.98233"><ele>164.0</ele><time>2026-05-01T09:31:30.548Z</time></trkpt><trkpt lat="39.6809417" lon="8.9823017"><ele>164.0</ele><time>2026-05-01T09:31:31.552Z</time></trkpt><trkpt lat="39.68088" lon="8.982205"><ele>164.16666666666666</ele><time>2026-05-01T09:31:33.562Z</time></trkpt><trkpt lat="39.6808717" lon="8.98212"><ele>164.33333333333331</ele><time>2026-05-01T09:31:34.55Z</time></trkpt><trkpt lat="39.6808467" lon="8.9820267"><ele>164.5</ele><time>2026-05-01T09:31:35.55Z</time></trkpt><trkpt lat="39.680815" lon="8.981925"><ele>164.66666666666666</ele><time>2026-05-01T09:31:36.553Z</time></trkpt><trkpt lat="39.6807833" lon="8.9818067"><ele>164.83333333333334</ele><time>2026-05-01T09:31:37.551Z</time></trkpt><trkpt lat="39.6807633" lon="8.9816567"><ele>165.0</ele><time>2026-05-01T09:31:38.607Z</time></trkpt><trkpt lat="39.6807433" lon="8.9814817"><ele>165.0</ele><time>2026-05-01T09:31:39.548Z</time></trkpt><trkpt lat="39.680725" lon="8.981305"><ele>165.0</ele><time>2026-05-01T09:31:40.551Z</time></trkpt><trkpt lat="39.6807033" lon="8.981155"><ele>165.0</ele><time>2026-05-01T09:31:41.553Z</time></trkpt><trkpt lat="39.680665" lon="8.980985"><ele>165.0</ele><time>2026-05-01T09:31:42.552Z</time></trkpt><trkpt lat="39.6806367" lon="8.9808083"><ele>166.25</ele><time>2026-05-01T09:31:43.55Z</time></trkpt><trkpt lat="39.6806133" lon="8.9806217"><ele>167.5</ele><time>2026-05-01T09:31:44.607Z</time></trkpt><trkpt lat="39.6805883" lon="8.9804367"><ele>168.75</ele><time>2026-05-01T09:31:45.552Z</time></trkpt><trkpt lat="39.6805667" lon="8.98024"><ele>170.0</ele><time>2026-05-01T09:31:46.553Z</time></trkpt><trkpt lat="39.6805517" lon="8.9800467"><ele>171.5</ele><time>2026-05-01T09:31:47.55Z</time></trkpt><trkpt lat="39.680535" lon="8.9798617"><ele>173.0</ele><time>2026-05-01T09:31:48.551Z</time></trkpt><trkpt lat="39.68052" lon="8.97969"><ele>174.5</ele><time>2026-05-01T09:31:49.549Z</time></trkpt><trkpt lat="39.68051" lon="8.9795117"><ele>176.0</ele><time>2026-05-01T09:31:50.601Z</time></trkpt><trkpt lat="39.6805183" lon="8.9793367"><ele>176.0</ele><time>2026-05-01T09:31:51.548Z</time></trkpt><trkpt lat="39.6805333" lon="8.97918"><ele>176.0</ele><time>2026-05-01T09:31:52.552Z</time></trkpt><trkpt lat="39.6805533" lon="8.97902"><ele>176.0</ele><time>2026-05-01T09:31:53.552Z</time></trkpt><trkpt lat="39.6805583" lon="8.9788717"><ele>176.0</ele><time>2026-05-01T09:31:54.553Z</time></trkpt><trkpt lat="39.680565" lon="8.9787183"><ele>176.0</ele><time>2026-05-01T09:31:55.552Z</time></trkpt><trkpt lat="39.68057" lon="8.9785767"><ele>176.0</ele><time>2026-05-01T09:31:56.62Z</time></trkpt><trkpt lat="39.680575" lon="8.978445"><ele>176.0</ele><time>2026-05-01T09:31:57.551Z</time></trkpt><trkpt lat="39.68059" lon="8.9783217"><ele>176.0</ele><time>2026-05-01T09:31:58.551Z</time></trkpt><trkpt lat="39.68062" lon="8.9781883"><ele>176.0</ele><time>2026-05-01T09:31:59.557Z</time></trkpt><trkpt lat="39.6806317" lon="8.9780767"><ele>175.20000000000002</ele><time>2026-05-01T09:32:00.552Z</time></trkpt><trkpt lat="39.6806683" lon="8.9779583"><ele>174.4</ele><time>2026-05-01T09:32:01.551Z</time></trkpt><trkpt lat="39.6807233" lon="8.9778383"><ele>173.6</ele><time>2026-05-01T09:32:02.615Z</time></trkpt><trkpt lat="39.6808033" lon="8.9777017"><ele>172.8</ele><time>2026-05-01T09:32:03.551Z</time></trkpt><trkpt lat="39.6808417" lon="8.9775883"><ele>172.0</ele><time>2026-05-01T09:32:04.553Z</time></trkpt><trkpt lat="39.6809067" lon="8.97747"><ele>170.75</ele><time>2026-05-01T09:32:05.552Z</time></trkpt><trkpt lat="39.6809767" lon="8.97735"><ele>169.5</ele><time>2026-05-01T09:32:06.554Z</time></trkpt><trkpt lat="39.6810633" lon="8.9772333"><ele>168.25</ele><time>2026-05-01T09:32:07.553Z</time></trkpt><trkpt lat="39.6811417" lon="8.9771167"><ele>167.0</ele><time>2026-05-01T09:32:08.605Z</time></trkpt><trkpt lat="39.6812267" lon="8.9769983"><ele>167.0</ele><time>2026-05-01T09:32:09.549Z</time></trkpt><trkpt lat="39.68131" lon="8.9768717"><ele>167.0</ele><time>2026-05-01T09:32:10.552Z</time></trkpt><trkpt lat="39.6813883" lon="8.9767417"><ele>167.0</ele><time>2026-05-01T09:32:11.552Z</time></trkpt><trkpt lat="39.6814667" lon="8.9765983"><ele>167.0</ele><time>2026-05-01T09:32:12.552Z</time></trkpt><trkpt lat="39.68154" lon="8.9764567"><ele>167.0</ele><time>2026-05-01T09:32:13.549Z</time></trkpt><trkpt lat="39.6815967" lon="8.9763333"><ele>167.0</ele><time>2026-05-01T09:32:14.607Z</time></trkpt><trkpt lat="39.68168" lon="8.9761983"><ele>167.0</ele><time>2026-05-01T09:32:15.552Z</time></trkpt><trkpt lat="39.6817783" lon="8.9760583"><ele>167.0</ele><time>2026-05-01T09:32:16.548Z</time></trkpt><trkpt lat="39.6818633" lon="8.97592"><ele>165.33333333333331</ele><time>2026-05-01T09:32:17.553Z</time></trkpt><trkpt lat="39.6819683" lon="8.9757633"><ele>163.66666666666666</ele><time>2026-05-01T09:32:18.553Z</time></trkpt><trkpt lat="39.6820667" lon="8.9756283"><ele>162.0</ele><time>2026-05-01T09:32:19.55Z</time></trkpt><trkpt lat="39.6821483" lon="8.975465"><ele>162.0</ele><time>2026-05-01T09:32:20.609Z</time></trkpt><trkpt lat="39.68223" lon="8.9752967"><ele>162.0</ele><time>2026-05-01T09:32:21.552Z</time></trkpt><trkpt lat="39.6823133" lon="8.9751217"><ele>162.0</ele><time>2026-05-01T09:32:22.553Z</time></trkpt><trkpt lat="39.6823933" lon="8.9749583"><ele>160.5</ele><time>2026-05-01T09:32:23.555Z</time></trkpt><trkpt lat="39.6824683" lon="8.974785"><ele>159.0</ele><time>2026-05-01T09:32:24.555Z</time></trkpt><trkpt lat="39.6825333" lon="8.9746167"><ele>157.5</ele><time>2026-05-01T09:32:25.55Z</time></trkpt><trkpt lat="39.6825767" lon="8.97444"><ele>156.0</ele><time>2026-05-01T09:32:26.62Z</time></trkpt><trkpt lat="39.682605" lon="8.9742533"><ele>155.75</ele><time>2026-05-01T09:32:27.555Z</time></trkpt><trkpt lat="39.6826333" lon="8.974065"><ele>155.5</ele><time>2026-05-01T09:32:28.553Z</time></trkpt><trkpt lat="39.6826517" lon="8.9738733"><ele>155.25</ele><time>2026-05-01T09:32:29.555Z</time></trkpt><trkpt lat="39.6826567" lon="8.97369"><ele>155.0</ele><time>2026-05-01T09:32:30.554Z</time></trkpt><trkpt lat="39.682665" lon="8.9735183"><ele>154.5</ele><time>2026-05-01T09:32:31.55Z</time></trkpt><trkpt lat="39.6826767" lon="8.9733467"><ele>154.0</ele><time>2026-05-01T09:32:32.608Z</time></trkpt><trkpt lat="39.682695" lon="8.97318"><ele>153.5</ele><time>2026-05-01T09:32:33.552Z</time></trkpt><trkpt lat="39.682695" lon="8.97304"><ele>153.0</ele><time>2026-05-01T09:32:34.551Z</time></trkpt><trkpt lat="39.6827" lon="8.9729117"><ele>153.0</ele><time>2026-05-01T09:32:35.553Z</time></trkpt><trkpt lat="39.6827183" lon="8.97278"><ele>153.0</ele><time>2026-05-01T09:32:36.548Z</time></trkpt><trkpt lat="39.6827433" lon="8.9726817"><ele>153.0</ele><time>2026-05-01T09:32:37.554Z</time></trkpt><trkpt lat="39.6827783" lon="8.9725833"><ele>153.0</ele><time>2026-05-01T09:32:38.607Z</time></trkpt><trkpt lat="39.6828233" lon="8.972475"><ele>153.0</ele><time>2026-05-01T09:32:39.552Z</time></trkpt><trkpt lat="39.6828883" lon="8.9723683"><ele>153.0</ele><time>2026-05-01T09:32:40.554Z</time></trkpt><trkpt lat="39.6829667" lon="8.9722783"><ele>153.0</ele><time>2026-05-01T09:32:41.554Z</time></trkpt><trkpt lat="39.6830633" lon="8.9721967"><ele>153.0</ele><time>2026-05-01T09:32:42.554Z</time></trkpt><trkpt lat="39.683175" lon="8.9720967"><ele>153.0</ele><time>2026-05-01T09:32:43.554Z</time></trkpt><trkpt lat="39.6833083" lon="8.9720033"><ele>153.0</ele><time>2026-05-01T09:32:44.604Z</time></trkpt><trkpt lat="39.6834367" lon="8.9719167"><ele>153.0</ele><time>2026-05-01T09:32:45.548Z</time></trkpt><trkpt lat="39.6835583" lon="8.9718317"><ele>153.0</ele><time>2026-05-01T09:32:46.55Z</time></trkpt><trkpt lat="39.68368" lon="8.9717517"><ele>153.0</ele><time>2026-05-01T09:32:47.555Z</time></trkpt><trkpt lat="39.6838167" lon="8.97167"><ele>154.33333333333334</ele><time>2026-05-01T09:32:48.554Z</time></trkpt><trkpt lat="39.6839433" lon="8.9715983"><ele>155.66666666666669</ele><time>2026-05-01T09:32:49.553Z</time></trkpt><trkpt lat="39.6841067" lon="8.9715217"><ele>157.0</ele><time>2026-05-01T09:32:50.603Z</time></trkpt><trkpt lat="39.6842617" lon="8.9714283"><ele>157.0</ele><time>2026-05-01T09:32:51.552Z</time></trkpt><trkpt lat="39.6844267" lon="8.9713317"><ele>157.0</ele><time>2026-05-01T09:32:52.551Z</time></trkpt><trkpt lat="39.6845767" lon="8.9712667"><ele>157.0</ele><time>2026-05-01T09:32:53.552Z</time></trkpt><trkpt lat="39.6847317" lon="8.9712167"><ele>157.0</ele><time>2026-05-01T09:32:54.552Z</time></trkpt><trkpt lat="39.6848867" lon="8.9711567"><ele>157.0</ele><time>2026-05-01T09:32:55.552Z</time></trkpt><trkpt lat="39.6850217" lon="8.9710983"><ele>157.0</ele><time>2026-05-01T09:32:56.621Z</time></trkpt><trkpt lat="39.68515" lon="8.9710283"><ele>157.0</ele><time>2026-05-01T09:32:57.551Z</time></trkpt><trkpt lat="39.68526" lon="8.9709533"><ele>157.5</ele><time>2026-05-01T09:32:58.555Z</time></trkpt><trkpt lat="39.6853533" lon="8.9708767"><ele>158.0</ele><time>2026-05-01T09:32:59.554Z</time></trkpt><trkpt lat="39.6854333" lon="8.9707833"><ele>158.5</ele><time>2026-05-01T09:33:00.554Z</time></trkpt><trkpt lat="39.6855117" lon="8.9706683"><ele>159.0</ele><time>2026-05-01T09:33:01.548Z</time></trkpt><trkpt lat="39.6856" lon="8.9705167"><ele>159.25</ele><time>2026-05-01T09:33:02.61Z</time></trkpt><trkpt lat="39.6856833" lon="8.9703683"><ele>159.5</ele><time>2026-05-01T09:33:03.555Z</time></trkpt><trkpt lat="39.6857483" lon="8.9702067"><ele>159.75</ele><time>2026-05-01T09:33:04.552Z</time></trkpt><trkpt lat="39.6858317" lon="8.97005"><ele>160.0</ele><time>2026-05-01T09:33:05.554Z</time></trkpt><trkpt lat="39.6859217" lon="8.9699017"><ele>160.0</ele><time>2026-05-01T09:33:06.549Z</time></trkpt><trkpt lat="39.6860167" lon="8.969765"><ele>160.0</ele><time>2026-05-01T09:33:07.554Z</time></trkpt><trkpt lat="39.686125" lon="8.969625"><ele>160.0</ele><time>2026-05-01T09:33:08.607Z</time></trkpt><trkpt lat="39.6862417" lon="8.9694883"><ele>160.0</ele><time>2026-05-01T09:33:09.554Z</time></trkpt><trkpt lat="39.6863783" lon="8.96935"><ele>160.0</ele><time>2026-05-01T09:33:10.555Z</time></trkpt><trkpt lat="39.6865117" lon="8.9692117"><ele>160.0</ele><time>2026-05-01T09:33:11.552Z</time></trkpt><trkpt lat="39.6866483" lon="8.9690733"><ele>160.0</ele><time>2026-05-01T09:33:12.555Z</time></trkpt><trkpt lat="39.6867883" lon="8.968935"><ele>160.0</ele><time>2026-05-01T09:33:13.552Z</time></trkpt><trkpt lat="39.6869167" lon="8.9687967"><ele>160.0</ele><time>2026-05-01T09:33:14.603Z</time></trkpt><trkpt lat="39.6870433" lon="8.968655"><ele>160.33333333333334</ele><time>2026-05-01T09:33:15.554Z</time></trkpt><trkpt lat="39.68716" lon="8.9685133"><ele>160.66666666666666</ele><time>2026-05-01T09:33:16.553Z</time></trkpt><trkpt lat="39.6872783" lon="8.968365"><ele>161.0</ele><time>2026-05-01T09:33:17.551Z</time></trkpt><trkpt lat="39.6873833" lon="8.9682083"><ele>161.5</ele><time>2026-05-01T09:33:18.554Z</time></trkpt><trkpt lat="39.687485" lon="8.9680717"><ele>162.0</ele><time>2026-05-01T09:33:19.553Z</time></trkpt><trkpt lat="39.687585" lon="8.9679433"><ele>162.5</ele><time>2026-05-01T09:33:20.604Z</time></trkpt><trkpt lat="39.6876717" lon="8.9678183"><ele>163.0</ele><time>2026-05-01T09:33:21.552Z</time></trkpt><trkpt lat="39.68775" lon="8.967695"><ele>163.25</ele><time>2026-05-01T09:33:22.554Z</time></trkpt><trkpt lat="39.687835" lon="8.9675933"><ele>163.5</ele><time>2026-05-01T09:33:23.554Z</time></trkpt><trkpt lat="39.687935" lon="8.9674867"><ele>163.75</ele><time>2026-05-01T09:33:24.55Z</time></trkpt><trkpt lat="39.6880333" lon="8.9674"><ele>164.0</ele><time>2026-05-01T09:33:25.551Z</time></trkpt><trkpt lat="39.6881233" lon="8.967335"><ele>164.2</ele><time>2026-05-01T09:33:26.621Z</time></trkpt><trkpt lat="39.6882133" lon="8.967265"><ele>164.39999999999998</ele><time>2026-05-01T09:33:27.55Z</time></trkpt><trkpt lat="39.6882883" lon="8.9672133"><ele>164.6</ele><time>2026-05-01T09:33:28.552Z</time></trkpt><trkpt lat="39.6883533" lon="8.9671367"><ele>164.8</ele><time>2026-05-01T09:33:29.553Z</time></trkpt><trkpt lat="39.688425" lon="8.96704"><ele>165.0</ele><time>2026-05-01T09:33:30.553Z</time></trkpt><trkpt lat="39.6884883" lon="8.9669433"><ele>165.0</ele><time>2026-05-01T09:33:31.554Z</time></trkpt><trkpt lat="39.6885617" lon="8.9668383"><ele>165.0</ele><time>2026-05-01T09:33:32.611Z</time></trkpt><trkpt lat="39.68862" lon="8.9667333"><ele>165.0</ele><time>2026-05-01T09:33:33.553Z</time></trkpt><trkpt lat="39.6886717" lon="8.966635"><ele>165.0</ele><time>2026-05-01T09:33:34.554Z</time></trkpt><trkpt lat="39.6887233" lon="8.9665233"><ele>165.0</ele><time>2026-05-01T09:33:35.55Z</time></trkpt><trkpt lat="39.688785" lon="8.966405"><ele>164.5</ele><time>2026-05-01T09:33:36.547Z</time></trkpt><trkpt lat="39.688855" lon="8.9662817"><ele>164.0</ele><time>2026-05-01T09:33:37.548Z</time></trkpt><trkpt lat="39.6889317" lon="8.9661567"><ele>163.5</ele><time>2026-05-01T09:33:38.605Z</time></trkpt><trkpt lat="39.689" lon="8.966035"><ele>163.0</ele><time>2026-05-01T09:33:39.549Z</time></trkpt><trkpt lat="39.689085" lon="8.9659267"><ele>163.75</ele><time>2026-05-01T09:33:40.551Z</time></trkpt><trkpt lat="39.689165" lon="8.9658183"><ele>164.5</ele><time>2026-05-01T09:33:41.549Z</time></trkpt><trkpt lat="39.6892617" lon="8.965695"><ele>165.25</ele><time>2026-05-01T09:33:42.55Z</time></trkpt><trkpt lat="39.6893417" lon="8.9656067"><ele>166.0</ele><time>2026-05-01T09:33:43.553Z</time></trkpt><trkpt lat="39.6894133" lon="8.96551"><ele>165.75</ele><time>2026-05-01T09:33:44.606Z</time></trkpt><trkpt lat="39.6894983" lon="8.9654067"><ele>165.5</ele><time>2026-05-01T09:33:45.546Z</time></trkpt><trkpt lat="39.689595" lon="8.96529"><ele>165.25</ele><time>2026-05-01T09:33:46.553Z</time></trkpt><trkpt lat="39.6897" lon="8.965175"><ele>165.0</ele><time>2026-05-01T09:33:47.553Z</time></trkpt><trkpt lat="39.6898" lon="8.9651117"><ele>165.75</ele><time>2026-05-01T09:33:48.554Z</time></trkpt><trkpt lat="39.68991" lon="8.964995"><ele>166.5</ele><time>2026-05-01T09:33:49.549Z</time></trkpt><trkpt lat="39.69002" lon="8.96488"><ele>167.25</ele><time>2026-05-01T09:33:50.606Z</time></trkpt><trkpt lat="39.69014" lon="8.9647567"><ele>168.0</ele><time>2026-05-01T09:33:51.554Z</time></trkpt><trkpt lat="39.6902517" lon="8.96466"><ele>167.5</ele><time>2026-05-01T09:33:52.552Z</time></trkpt><trkpt lat="39.6903667" lon="8.9645417"><ele>167.0</ele><time>2026-05-01T09:33:53.553Z</time></trkpt><trkpt lat="39.6904767" lon="8.9644317"><ele>166.5</ele><time>2026-05-01T09:33:54.549Z</time></trkpt><trkpt lat="39.6905933" lon="8.9643267"><ele>166.0</ele><time>2026-05-01T09:33:55.553Z</time></trkpt><trkpt lat="39.6907167" lon="8.9642317"><ele>166.25</ele><time>2026-05-01T09:33:56.615Z</time></trkpt><trkpt lat="39.6908483" lon="8.964145"><ele>166.5</ele><time>2026-05-01T09:33:57.549Z</time></trkpt><trkpt lat="39.690985" lon="8.9640583"><ele>166.75</ele><time>2026-05-01T09:33:58.549Z</time></trkpt><trkpt lat="39.6911183" lon="8.9639817"><ele>167.0</ele><time>2026-05-01T09:33:59.549Z</time></trkpt><trkpt lat="39.6912583" lon="8.9638967"><ele>167.0</ele><time>2026-05-01T09:34:00.551Z</time></trkpt><trkpt lat="39.6914017" lon="8.9638167"><ele>167.0</ele><time>2026-05-01T09:34:01.549Z</time></trkpt><trkpt lat="39.69154" lon="8.9637333"><ele>167.0</ele><time>2026-05-01T09:34:02.609Z</time></trkpt><trkpt lat="39.6916883" lon="8.963655"><ele>167.0</ele><time>2026-05-01T09:34:03.554Z</time></trkpt><trkpt lat="39.6918367" lon="8.9635967"><ele>167.0</ele><time>2026-05-01T09:34:04.553Z</time></trkpt><trkpt lat="39.6919967" lon="8.9634867"><ele>167.0</ele><time>2026-05-01T09:34:05.553Z</time></trkpt><trkpt lat="39.6921417" lon="8.9633617"><ele>167.0</ele><time>2026-05-01T09:34:06.555Z</time></trkpt><trkpt lat="39.6922667" lon="8.9632717"><ele>167.0</ele><time>2026-05-01T09:34:07.555Z</time></trkpt><trkpt lat="39.6923867" lon="8.9631717"><ele>167.0</ele><time>2026-05-01T09:34:08.607Z</time></trkpt><trkpt lat="39.692505" lon="8.9630817"><ele>167.0</ele><time>2026-05-01T09:34:09.55Z</time></trkpt><trkpt lat="39.6926233" lon="8.962995"><ele>167.0</ele><time>2026-05-01T09:34:10.549Z</time></trkpt><trkpt lat="39.69274" lon="8.9628833"><ele>167.0</ele><time>2026-05-01T09:34:11.548Z</time></trkpt><trkpt lat="39.6928467" lon="8.9627917"><ele>167.0</ele><time>2026-05-01T09:34:12.554Z</time></trkpt><trkpt lat="39.6929367" lon="8.9627067"><ele>167.0</ele><time>2026-05-01T09:34:13.554Z</time></trkpt><trkpt lat="39.6930233" lon="8.962625"><ele>167.0</ele><time>2026-05-01T09:34:14.605Z</time></trkpt><trkpt lat="39.693105" lon="8.9625517"><ele>167.0</ele><time>2026-05-01T09:34:15.549Z</time></trkpt><trkpt lat="39.6931833" lon="8.9624883"><ele>167.0</ele><time>2026-05-01T09:34:16.554Z</time></trkpt><trkpt lat="39.6932633" lon="8.96244"><ele>167.0</ele><time>2026-05-01T09:34:17.553Z</time></trkpt><trkpt lat="39.6933583" lon="8.9624117"><ele>167.0</ele><time>2026-05-01T09:34:18.547Z</time></trkpt><trkpt lat="39.6934683" lon="8.9623967"><ele>167.0</ele><time>2026-05-01T09:34:19.55Z</time></trkpt><trkpt lat="39.69359" lon="8.9623883"><ele>167.0</ele><time>2026-05-01T09:34:20.607Z</time></trkpt><trkpt lat="39.6937" lon="8.9623733"><ele>167.0</ele><time>2026-05-01T09:34:21.552Z</time></trkpt><trkpt lat="39.693815" lon="8.9623533"><ele>167.0</ele><time>2026-05-01T09:34:22.552Z</time></trkpt><trkpt lat="39.6939067" lon="8.9623333"><ele>167.0</ele><time>2026-05-01T09:34:23.552Z</time></trkpt><trkpt lat="39.6939883" lon="8.9623117"><ele>167.0</ele><time>2026-05-01T09:34:24.553Z</time></trkpt><trkpt lat="39.69405" lon="8.9622883"><ele>167.0</ele><time>2026-05-01T09:34:25.552Z</time></trkpt><trkpt lat="39.6941217" lon="8.9622417"><ele>167.0</ele><time>2026-05-01T09:34:26.619Z</time></trkpt><trkpt lat="39.694175" lon="8.9621917"><ele>167.0</ele><time>2026-05-01T09:34:27.553Z</time></trkpt><trkpt lat="39.694225" lon="8.9621267"><ele>167.0</ele><time>2026-05-01T09:34:28.552Z</time></trkpt><trkpt lat="39.6942633" lon="8.96205"><ele>167.0</ele><time>2026-05-01T09:34:29.552Z</time></trkpt><trkpt lat="39.6942717" lon="8.96194"><ele>167.0</ele><time>2026-05-01T09:34:30.553Z</time></trkpt><trkpt lat="39.6942667" lon="8.9618083"><ele>167.2</ele><time>2026-05-01T09:34:31.553Z</time></trkpt><trkpt lat="39.69427" lon="8.9616783"><ele>167.39999999999998</ele><time>2026-05-01T09:34:32.62Z</time></trkpt><trkpt lat="39.69425" lon="8.9615233"><ele>167.60000000000002</ele><time>2026-05-01T09:34:33.556Z</time></trkpt><trkpt lat="39.6942533" lon="8.9614117"><ele>167.8</ele><time>2026-05-01T09:34:34.552Z</time></trkpt><trkpt lat="39.6942683" lon="8.9613117"><ele>168.0</ele><time>2026-05-01T09:34:35.549Z</time></trkpt><trkpt lat="39.6943017" lon="8.9612117"><ele>168.0</ele><time>2026-05-01T09:34:36.553Z</time></trkpt><trkpt lat="39.6943533" lon="8.9611033"><ele>168.0</ele><time>2026-05-01T09:34:37.553Z</time></trkpt><trkpt lat="39.694415" lon="8.9609917"><ele>168.0</ele><time>2026-05-01T09:34:38.605Z</time></trkpt><trkpt lat="39.6945083" lon="8.96086"><ele>168.0</ele><time>2026-05-01T09:34:39.555Z</time></trkpt><trkpt lat="39.6945883" lon="8.960715"><ele>168.25</ele><time>2026-05-01T09:34:40.553Z</time></trkpt><trkpt lat="39.6946783" lon="8.96057"><ele>168.5</ele><time>2026-05-01T09:34:41.552Z</time></trkpt><trkpt lat="39.6947667" lon="8.96044"><ele>168.75</ele><time>2026-05-01T09:34:42.554Z</time></trkpt><trkpt lat="39.694865" lon="8.9602933"><ele>169.0</ele><time>2026-05-01T09:34:43.555Z</time></trkpt><trkpt lat="39.6949633" lon="8.9601517"><ele>169.5</ele><time>2026-05-01T09:34:44.601Z</time></trkpt><trkpt lat="39.6950617" lon="8.9600233"><ele>170.0</ele><time>2026-05-01T09:34:45.548Z</time></trkpt><trkpt lat="39.6951517" lon="8.959885"><ele>170.5</ele><time>2026-05-01T09:34:46.552Z</time></trkpt><trkpt lat="39.695245" lon="8.959745"><ele>171.0</ele><time>2026-05-01T09:34:47.554Z</time></trkpt><trkpt lat="39.695325" lon="8.9596117"><ele>171.0</ele><time>2026-05-01T09:34:48.555Z</time></trkpt><trkpt lat="39.6954083" lon="8.9594733"><ele>171.0</ele><time>2026-05-01T09:34:49.555Z</time></trkpt><trkpt lat="39.6955033" lon="8.9593233"><ele>171.0</ele><time>2026-05-01T09:34:50.608Z</time></trkpt><trkpt lat="39.69559" lon="8.9591767"><ele>171.0</ele><time>2026-05-01T09:34:51.55Z</time></trkpt><trkpt lat="39.6956733" lon="8.9590333"><ele>171.0</ele><time>2026-05-01T09:34:52.554Z</time></trkpt><trkpt lat="39.6957533" lon="8.958895"><ele>171.0</ele><time>2026-05-01T09:34:53.552Z</time></trkpt><trkpt lat="39.69583" lon="8.9587617"><ele>171.0</ele><time>2026-05-01T09:34:54.552Z</time></trkpt><trkpt lat="39.6958967" lon="8.9586183"><ele>171.0</ele><time>2026-05-01T09:34:55.556Z</time></trkpt><trkpt lat="39.6959417" lon="8.958475"><ele>171.5</ele><time>2026-05-01T09:34:56.619Z</time></trkpt><trkpt lat="39.695985" lon="8.9583433"><ele>172.0</ele><time>2026-05-01T09:34:57.557Z</time></trkpt><trkpt lat="39.696035" lon="8.9582217"><ele>172.5</ele><time>2026-05-01T09:34:58.556Z</time></trkpt><trkpt lat="39.6960483" lon="8.958075"><ele>173.0</ele><time>2026-05-01T09:34:59.555Z</time></trkpt><trkpt lat="39.696055" lon="8.9578967"><ele>173.0</ele><time>2026-05-01T09:35:00.548Z</time></trkpt><trkpt lat="39.69606" lon="8.9577133"><ele>173.0</ele><time>2026-05-01T09:35:01.553Z</time></trkpt><trkpt lat="39.69608" lon="8.9575367"><ele>173.0</ele><time>2026-05-01T09:35:02.613Z</time></trkpt><trkpt lat="39.6961133" lon="8.9573767"><ele>173.0</ele><time>2026-05-01T09:35:03.55Z</time></trkpt><trkpt lat="39.6961433" lon="8.9572383"><ele>173.0</ele><time>2026-05-01T09:35:04.555Z</time></trkpt><trkpt lat="39.696155" lon="8.95714"><ele>173.0</ele><time>2026-05-01T09:35:05.555Z</time></trkpt><trkpt lat="39.6961983" lon="8.957045"><ele>173.0</ele><time>2026-05-01T09:35:06.553Z</time></trkpt><trkpt lat="39.6962217" lon="8.9569683"><ele>173.0</ele><time>2026-05-01T09:35:07.555Z</time></trkpt><trkpt lat="39.696195" lon="8.9568783"><ele>173.0</ele><time>2026-05-01T09:35:09.553Z</time></trkpt><trkpt lat="39.6960467" lon="8.9568367"><ele>173.2</ele><time>2026-05-01T09:35:11.549Z</time></trkpt><trkpt lat="39.6959767" lon="8.9567933"><ele>173.4</ele><time>2026-05-01T09:35:12.548Z</time></trkpt><trkpt lat="39.6958933" lon="8.956745"><ele>173.6</ele><time>2026-05-01T09:35:13.553Z</time></trkpt><trkpt lat="39.6957883" lon="8.9566867"><ele>173.79999999999998</ele><time>2026-05-01T09:35:14.608Z</time></trkpt><trkpt lat="39.695665" lon="8.9566267"><ele>174.0</ele><time>2026-05-01T09:35:15.55Z</time></trkpt><trkpt lat="39.6955167" lon="8.9565317"><ele>174.75</ele><time>2026-05-01T09:35:16.553Z</time></trkpt><trkpt lat="39.6953883" lon="8.956455"><ele>175.5</ele><time>2026-05-01T09:35:17.549Z</time></trkpt><trkpt lat="39.6952633" lon="8.95637"><ele>176.25</ele><time>2026-05-01T09:35:18.553Z</time></trkpt><trkpt lat="39.695125" lon="8.956275"><ele>177.0</ele><time>2026-05-01T09:35:19.552Z</time></trkpt><trkpt lat="39.69497" lon="8.9561567"><ele>178.66666666666666</ele><time>2026-05-01T09:35:20.604Z</time></trkpt><trkpt lat="39.6948167" lon="8.956045"><ele>180.33333333333331</ele><time>2026-05-01T09:35:21.548Z</time></trkpt><trkpt lat="39.6946667" lon="8.95593"><ele>182.0</ele><time>2026-05-01T09:35:22.552Z</time></trkpt><trkpt lat="39.6945133" lon="8.9558283"><ele>186.33333333333331</ele><time>2026-05-01T09:35:23.553Z</time></trkpt><trkpt lat="39.6943733" lon="8.9557283"><ele>190.66666666666666</ele><time>2026-05-01T09:35:24.553Z</time></trkpt><trkpt lat="39.6942433" lon="8.9556267"><ele>195.0</ele><time>2026-05-01T09:35:25.552Z</time></trkpt><trkpt lat="39.6941117" lon="8.9555333"><ele>195.0</ele><time>2026-05-01T09:35:26.61Z</time></trkpt><trkpt lat="39.6939517" lon="8.9554683"><ele>195.0</ele><time>2026-05-01T09:35:27.554Z</time></trkpt><trkpt lat="39.6938067" lon="8.9553933"><ele>195.0</ele><time>2026-05-01T09:35:28.55Z</time></trkpt><trkpt lat="39.693665" lon="8.9553317"><ele>198.33333333333331</ele><time>2026-05-01T09:35:29.555Z</time></trkpt><trkpt lat="39.6935117" lon="8.9552733"><ele>201.66666666666666</ele><time>2026-05-01T09:35:30.551Z</time></trkpt><trkpt lat="39.6933617" lon="8.9552117"><ele>205.0</ele><time>2026-05-01T09:35:31.549Z</time></trkpt><trkpt lat="39.6932117" lon="8.9551617"><ele>205.0</ele><time>2026-05-01T09:35:32.612Z</time></trkpt><trkpt lat="39.6930533" lon="8.9551017"><ele>205.0</ele><time>2026-05-01T09:35:33.553Z</time></trkpt><trkpt lat="39.6929033" lon="8.9550583"><ele>205.0</ele><time>2026-05-01T09:35:34.553Z</time></trkpt><trkpt lat="39.69277" lon="8.955"><ele>207.0</ele><time>2026-05-01T09:35:35.554Z</time></trkpt><trkpt lat="39.692655" lon="8.954945"><ele>209.0</ele><time>2026-05-01T09:35:36.552Z</time></trkpt><trkpt lat="39.6925483" lon="8.9548683"><ele>211.0</ele><time>2026-05-01T09:35:37.553Z</time></trkpt><trkpt lat="39.6924517" lon="8.954785"><ele>213.0</ele><time>2026-05-01T09:35:38.606Z</time></trkpt><trkpt lat="39.6923717" lon="8.954685"><ele>213.0</ele><time>2026-05-01T09:35:39.553Z</time></trkpt><trkpt lat="39.6922917" lon="8.954615"><ele>213.0</ele><time>2026-05-01T09:35:40.552Z</time></trkpt><trkpt lat="39.692205" lon="8.9545583"><ele>213.0</ele><time>2026-05-01T09:35:41.552Z</time></trkpt><trkpt lat="39.692105" lon="8.9545017"><ele>213.0</ele><time>2026-05-01T09:35:42.552Z</time></trkpt><trkpt lat="39.6920317" lon="8.9544633"><ele>213.0</ele><time>2026-05-01T09:35:43.551Z</time></trkpt><trkpt lat="39.6919567" lon="8.9544333"><ele>213.4</ele><time>2026-05-01T09:35:44.604Z</time></trkpt><trkpt lat="39.6918683" lon="8.954405"><ele>213.8</ele><time>2026-05-01T09:35:45.552Z</time></trkpt><trkpt lat="39.6917767" lon="8.9543583"><ele>214.2</ele><time>2026-05-01T09:35:46.552Z</time></trkpt><trkpt lat="39.691685" lon="8.9543317"><ele>214.6</ele><time>2026-05-01T09:35:47.553Z</time></trkpt><trkpt lat="39.691605" lon="8.95429"><ele>215.0</ele><time>2026-05-01T09:35:48.554Z</time></trkpt><trkpt lat="39.6915033" lon="8.95428"><ele>215.0</ele><time>2026-05-01T09:35:49.551Z</time></trkpt><trkpt lat="39.6913933" lon="8.954295"><ele>215.0</ele><time>2026-05-01T09:35:50.605Z</time></trkpt><trkpt lat="39.691275" lon="8.9543117"><ele>215.0</ele><time>2026-05-01T09:35:51.553Z</time></trkpt><trkpt lat="39.6911683" lon="8.9543333"><ele>215.0</ele><time>2026-05-01T09:35:52.548Z</time></trkpt><trkpt lat="39.691065" lon="8.9543533"><ele>215.0</ele><time>2026-05-01T09:35:53.553Z</time></trkpt><trkpt lat="39.6909567" lon="8.9543833"><ele>213.0</ele><time>2026-05-01T09:35:54.551Z</time></trkpt><trkpt lat="39.6908417" lon="8.9544183"><ele>211.0</ele><time>2026-05-01T09:35:55.549Z</time></trkpt><trkpt lat="39.69071" lon="8.9544517"><ele>209.0</ele><time>2026-05-01T09:35:56.615Z</time></trkpt><trkpt lat="39.6905717" lon="8.954495"><ele>207.0</ele><time>2026-05-01T09:35:57.553Z</time></trkpt><trkpt lat="39.6904433" lon="8.9545367"><ele>207.0</ele><time>2026-05-01T09:35:58.551Z</time></trkpt><trkpt lat="39.690305" lon="8.95458"><ele>207.0</ele><time>2026-05-01T09:35:59.555Z</time></trkpt><trkpt lat="39.69017" lon="8.954625"><ele>207.0</ele><time>2026-05-01T09:36:00.553Z</time></trkpt><trkpt lat="39.6900333" lon="8.9546683"><ele>207.0</ele><time>2026-05-01T09:36:01.551Z</time></trkpt><trkpt lat="39.6898967" lon="8.954715"><ele>204.5</ele><time>2026-05-01T09:36:02.613Z</time></trkpt><trkpt lat="39.6897483" lon="8.9547683"><ele>202.0</ele><time>2026-05-01T09:36:03.554Z</time></trkpt><trkpt lat="39.6896067" lon="8.9548283"><ele>199.5</ele><time>2026-05-01T09:36:04.55Z</time></trkpt><trkpt lat="39.6894817" lon="8.9548683"><ele>197.0</ele><time>2026-05-01T09:36:05.554Z</time></trkpt><trkpt lat="39.6893667" lon="8.9549117"><ele>196.66666666666669</ele><time>2026-05-01T09:36:06.554Z</time></trkpt><trkpt lat="39.68927" lon="8.9549417"><ele>196.33333333333334</ele><time>2026-05-01T09:36:07.553Z</time></trkpt><trkpt lat="39.6891867" lon="8.9549983"><ele>196.0</ele><time>2026-05-01T09:36:08.61Z</time></trkpt><trkpt lat="39.68912" lon="8.9550167"><ele>195.66666666666669</ele><time>2026-05-01T09:36:09.554Z</time></trkpt><trkpt lat="39.6890517" lon="8.9550383"><ele>195.33333333333334</ele><time>2026-05-01T09:36:10.551Z</time></trkpt><trkpt lat="39.6889733" lon="8.9550017"><ele>195.0</ele><time>2026-05-01T09:36:12.556Z</time></trkpt><trkpt lat="39.6889933" lon="8.9548733"><ele>194.75</ele><time>2026-05-01T09:36:15.547Z</time></trkpt><trkpt lat="39.6890667" lon="8.954795"><ele>194.5</ele><time>2026-05-01T09:36:16.554Z</time></trkpt><trkpt lat="39.6891583" lon="8.9546983"><ele>194.25</ele><time>2026-05-01T09:36:17.551Z</time></trkpt><trkpt lat="39.689285" lon="8.9545833"><ele>194.0</ele><time>2026-05-01T09:36:18.549Z</time></trkpt><trkpt lat="39.68942" lon="8.9544483"><ele>194.66666666666669</ele><time>2026-05-01T09:36:19.548Z</time></trkpt><trkpt lat="39.68957" lon="8.9543083"><ele>195.33333333333331</ele><time>2026-05-01T09:36:20.603Z</time></trkpt><trkpt lat="39.6897267" lon="8.954155"><ele>196.0</ele><time>2026-05-01T09:36:21.552Z</time></trkpt><trkpt lat="39.68989" lon="8.95402"><ele>196.0</ele><time>2026-05-01T09:36:22.554Z</time></trkpt><trkpt lat="39.6900417" lon="8.9538917"><ele>196.0</ele><time>2026-05-01T09:36:23.554Z</time></trkpt><trkpt lat="39.6901667" lon="8.953765"><ele>196.0</ele><time>2026-05-01T09:36:24.554Z</time></trkpt><trkpt lat="39.6902967" lon="8.953645"><ele>196.66666666666666</ele><time>2026-05-01T09:36:25.551Z</time></trkpt><trkpt lat="39.69042" lon="8.953525"><ele>197.33333333333331</ele><time>2026-05-01T09:36:26.612Z</time></trkpt><trkpt lat="39.6905433" lon="8.9534133"><ele>198.0</ele><time>2026-05-01T09:36:27.554Z</time></trkpt><trkpt lat="39.6906617" lon="8.9533"><ele>198.0</ele><time>2026-05-01T09:36:28.554Z</time></trkpt><trkpt lat="39.69077" lon="8.9532017"><ele>198.0</ele><time>2026-05-01T09:36:29.55Z</time></trkpt><trkpt lat="39.6909" lon="8.9531"><ele>198.0</ele><time>2026-05-01T09:36:30.553Z</time></trkpt><trkpt lat="39.69103" lon="8.9530033"><ele>198.0</ele><time>2026-05-01T09:36:31.554Z</time></trkpt><trkpt lat="39.6911633" lon="8.9529133"><ele>198.5</ele><time>2026-05-01T09:36:32.611Z</time></trkpt><trkpt lat="39.6912917" lon="8.9528133"><ele>199.0</ele><time>2026-05-01T09:36:33.55Z</time></trkpt><trkpt lat="39.6914133" lon="8.952715"><ele>199.5</ele><time>2026-05-01T09:36:34.554Z</time></trkpt><trkpt lat="39.6915367" lon="8.9526167"><ele>200.0</ele><time>2026-05-01T09:36:35.553Z</time></trkpt><trkpt lat="39.6916583" lon="8.9525133"><ele>200.0</ele><time>2026-05-01T09:36:36.552Z</time></trkpt><trkpt lat="39.691785" lon="8.9524333"><ele>200.0</ele><time>2026-05-01T09:36:37.55Z</time></trkpt><trkpt lat="39.6919133" lon="8.9523667"><ele>200.0</ele><time>2026-05-01T09:36:38.604Z</time></trkpt><trkpt lat="39.692045" lon="8.952305"><ele>200.0</ele><time>2026-05-01T09:36:39.552Z</time></trkpt><trkpt lat="39.6921767" lon="8.9522333"><ele>200.25</ele><time>2026-05-01T09:36:40.553Z</time></trkpt><trkpt lat="39.69232" lon="8.9521533"><ele>200.5</ele><time>2026-05-01T09:36:41.547Z</time></trkpt><trkpt lat="39.6924367" lon="8.9520633"><ele>200.75</ele><time>2026-05-01T09:36:42.554Z</time></trkpt><trkpt lat="39.6925633" lon="8.95195"><ele>201.0</ele><time>2026-05-01T09:36:43.554Z</time></trkpt><trkpt lat="39.6926783" lon="8.951855"><ele>200.5</ele><time>2026-05-01T09:36:44.604Z</time></trkpt><trkpt lat="39.692785" lon="8.9517517"><ele>200.0</ele><time>2026-05-01T09:36:45.55Z</time></trkpt><trkpt lat="39.6928817" lon="8.95166"><ele>199.5</ele><time>2026-05-01T09:36:46.552Z</time></trkpt><trkpt lat="39.692975" lon="8.9515767"><ele>199.0</ele><time>2026-05-01T09:36:47.549Z</time></trkpt><trkpt lat="39.6930567" lon="8.951515"><ele>198.25</ele><time>2026-05-01T09:36:48.551Z</time></trkpt><trkpt lat="39.6931483" lon="8.9514667"><ele>197.5</ele><time>2026-05-01T09:36:49.549Z</time></trkpt><trkpt lat="39.693235" lon="8.9514267"><ele>196.75</ele><time>2026-05-01T09:36:50.602Z</time></trkpt><trkpt lat="39.6933833" lon="8.9514033"><ele>196.0</ele><time>2026-05-01T09:36:51.554Z</time></trkpt><trkpt lat="39.6935167" lon="8.9513867"><ele>194.75</ele><time>2026-05-01T09:36:52.551Z</time></trkpt><trkpt lat="39.693645" lon="8.951385"><ele>193.5</ele><time>2026-05-01T09:36:53.552Z</time></trkpt><trkpt lat="39.6937917" lon="8.951395"><ele>192.25</ele><time>2026-05-01T09:36:54.552Z</time></trkpt><trkpt lat="39.6939417" lon="8.9514133"><ele>191.0</ele><time>2026-05-01T09:36:55.551Z</time></trkpt><trkpt lat="39.6940833" lon="8.9514383"><ele>191.0</ele><time>2026-05-01T09:36:56.609Z</time></trkpt><trkpt lat="39.694225" lon="8.951455"><ele>191.0</ele><time>2026-05-01T09:36:57.547Z</time></trkpt><trkpt lat="39.694375" lon="8.9514783"><ele>191.0</ele><time>2026-05-01T09:36:58.556Z</time></trkpt><trkpt lat="39.6945283" lon="8.9514867"><ele>191.0</ele><time>2026-05-01T09:36:59.549Z</time></trkpt><trkpt lat="39.6946917" lon="8.9515067"><ele>189.66666666666666</ele><time>2026-05-01T09:37:00.551Z</time></trkpt><trkpt lat="39.6948533" lon="8.9515317"><ele>188.33333333333334</ele><time>2026-05-01T09:37:01.549Z</time></trkpt><trkpt lat="39.69501" lon="8.9515433"><ele>187.0</ele><time>2026-05-01T09:37:02.614Z</time></trkpt><trkpt lat="39.6951583" lon="8.9515483"><ele>186.0</ele><time>2026-05-01T09:37:03.554Z</time></trkpt><trkpt lat="39.6953" lon="8.9515567"><ele>185.0</ele><time>2026-05-01T09:37:04.553Z</time></trkpt><trkpt lat="39.6954417" lon="8.9515583"><ele>184.0</ele><time>2026-05-01T09:37:05.553Z</time></trkpt><trkpt lat="39.6955817" lon="8.9515733"><ele>183.0</ele><time>2026-05-01T09:37:06.552Z</time></trkpt><trkpt lat="39.6957117" lon="8.9515717"><ele>183.0</ele><time>2026-05-01T09:37:07.551Z</time></trkpt><trkpt lat="39.6958433" lon="8.95157"><ele>183.0</ele><time>2026-05-01T09:37:08.61Z</time></trkpt><trkpt lat="39.6959767" lon="8.9515633"><ele>183.0</ele><time>2026-05-01T09:37:09.548Z</time></trkpt><trkpt lat="39.696115" lon="8.9515567"><ele>183.0</ele><time>2026-05-01T09:37:10.55Z</time></trkpt><trkpt lat="39.6962367" lon="8.9515583"><ele>182.8</ele><time>2026-05-01T09:37:11.554Z</time></trkpt><trkpt lat="39.6963367" lon="8.951555"><ele>182.60000000000002</ele><time>2026-05-01T09:37:12.554Z</time></trkpt><trkpt lat="39.6964267" lon="8.9515617"><ele>182.39999999999998</ele><time>2026-05-01T09:37:13.55Z</time></trkpt><trkpt lat="39.69652" lon="8.9515617"><ele>182.2</ele><time>2026-05-01T09:37:14.605Z</time></trkpt><trkpt lat="39.6966083" lon="8.9515667"><ele>182.0</ele><time>2026-05-01T09:37:15.553Z</time></trkpt><trkpt lat="39.69669" lon="8.9515633"><ele>182.0</ele><time>2026-05-01T09:37:16.554Z</time></trkpt><trkpt lat="39.69676" lon="8.9515617"><ele>182.0</ele><time>2026-05-01T09:37:17.55Z</time></trkpt><trkpt lat="39.6968633" lon="8.9515533"><ele>182.0</ele><time>2026-05-01T09:37:19.555Z</time></trkpt><trkpt lat="39.6968467" lon="8.9514567"><ele>182.0</ele><time>2026-05-01T09:37:23.549Z</time></trkpt><trkpt lat="39.6967267" lon="8.9513667"><ele>182.0</ele><time>2026-05-01T09:37:25.549Z</time></trkpt><trkpt lat="39.6966617" lon="8.9513033"><ele>182.0</ele><time>2026-05-01T09:37:26.617Z</time></trkpt><trkpt lat="39.6965917" lon="8.9512233"><ele>182.0</ele><time>2026-05-01T09:37:27.554Z</time></trkpt><trkpt lat="39.69651" lon="8.9511117"><ele>182.0</ele><time>2026-05-01T09:37:28.553Z</time></trkpt><trkpt lat="39.6963983" lon="8.9509433"><ele>182.0</ele><time>2026-05-01T09:37:29.548Z</time></trkpt><trkpt lat="39.69631" lon="8.9508017"><ele>182.33333333333331</ele><time>2026-05-01T09:37:30.554Z</time></trkpt><trkpt lat="39.69623" lon="8.9506533"><ele>182.66666666666666</ele><time>2026-05-01T09:37:31.552Z</time></trkpt><trkpt lat="39.6961483" lon="8.950495"><ele>183.0</ele><time>2026-05-01T09:37:32.583Z</time></trkpt><trkpt lat="39.6960483" lon="8.95032"><ele>183.0</ele><time>2026-05-01T09:37:33.551Z</time></trkpt><trkpt lat="39.69596" lon="8.9501367"><ele>183.0</ele><time>2026-05-01T09:37:34.549Z</time></trkpt><trkpt lat="39.6958533" lon="8.9499617"><ele>183.0</ele><time>2026-05-01T09:37:35.55Z</time></trkpt><trkpt lat="39.6957383" lon="8.9498133"><ele>183.75</ele><time>2026-05-01T09:37:36.548Z</time></trkpt><trkpt lat="39.69563" lon="8.9496817"><ele>184.5</ele><time>2026-05-01T09:37:37.554Z</time></trkpt><trkpt lat="39.6955233" lon="8.9495717"><ele>185.25</ele><time>2026-05-01T09:37:38.607Z</time></trkpt><trkpt lat="39.695415" lon="8.9494583"><ele>186.0</ele><time>2026-05-01T09:37:39.554Z</time></trkpt><trkpt lat="39.6952967" lon="8.949345"><ele>187.0</ele><time>2026-05-01T09:37:40.553Z</time></trkpt><trkpt lat="39.6951783" lon="8.9492333"><ele>188.0</ele><time>2026-05-01T09:37:41.55Z</time></trkpt><trkpt lat="39.6950667" lon="8.9491333"><ele>189.0</ele><time>2026-05-01T09:37:42.553Z</time></trkpt><trkpt lat="39.6949583" lon="8.9490467"><ele>190.0</ele><time>2026-05-01T09:37:43.549Z</time></trkpt><trkpt lat="39.6948517" lon="8.9489783"><ele>191.5</ele><time>2026-05-01T09:37:44.608Z</time></trkpt><trkpt lat="39.6947483" lon="8.9489367"><ele>193.0</ele><time>2026-05-01T09:37:45.551Z</time></trkpt><trkpt lat="39.6946283" lon="8.948925"><ele>194.5</ele><time>2026-05-01T09:37:46.552Z</time></trkpt><trkpt lat="39.6945083" lon="8.9489317"><ele>196.0</ele><time>2026-05-01T09:37:47.551Z</time></trkpt><trkpt lat="39.6943883" lon="8.9489367"><ele>198.0</ele><time>2026-05-01T09:37:48.55Z</time></trkpt><trkpt lat="39.6942617" lon="8.9489317"><ele>200.0</ele><time>2026-05-01T09:37:49.552Z</time></trkpt><trkpt lat="39.6941433" lon="8.94891"><ele>202.0</ele><time>2026-05-01T09:37:50.605Z</time></trkpt><trkpt lat="39.6940383" lon="8.94888"><ele>204.0</ele><time>2026-05-01T09:37:51.554Z</time></trkpt><trkpt lat="39.6939517" lon="8.948845"><ele>206.0</ele><time>2026-05-01T09:37:52.554Z</time></trkpt><trkpt lat="39.69388" lon="8.9488033"><ele>206.0</ele><time>2026-05-01T09:37:53.551Z</time></trkpt><trkpt lat="39.69383" lon="8.9487517"><ele>206.0</ele><time>2026-05-01T09:37:54.553Z</time></trkpt><trkpt lat="39.6938333" lon="8.948595"><ele>206.0</ele><time>2026-05-01T09:37:56.612Z</time></trkpt><trkpt lat="39.69387" lon="8.9484933"><ele>206.0</ele><time>2026-05-01T09:37:57.554Z</time></trkpt><trkpt lat="39.69391" lon="8.9483833"><ele>206.0</ele><time>2026-05-01T09:37:58.554Z</time></trkpt><trkpt lat="39.69396" lon="8.948275"><ele>207.50000000000003</ele><time>2026-05-01T09:37:59.553Z</time></trkpt><trkpt lat="39.693985" lon="8.9481817"><ele>209.0</ele><time>2026-05-01T09:38:00.547Z</time></trkpt><trkpt lat="39.693975" lon="8.94805"><ele>210.5</ele><time>2026-05-01T09:38:02.613Z</time></trkpt><trkpt lat="39.6939067" lon="8.947995"><ele>212.0</ele><time>2026-05-01T09:38:04.554Z</time></trkpt><trkpt lat="39.6938033" lon="8.94798"><ele>213.50000000000003</ele><time>2026-05-01T09:38:06.553Z</time></trkpt><trkpt lat="39.6937283" lon="8.9480033"><ele>215.0</ele><time>2026-05-01T09:38:07.553Z</time></trkpt><trkpt lat="39.69363" lon="8.9480283"><ele>217.75</ele><time>2026-05-01T09:38:08.605Z</time></trkpt><trkpt lat="39.6935233" lon="8.9480583"><ele>220.5</ele><time>2026-05-01T09:38:09.554Z</time></trkpt><trkpt lat="39.693405" lon="8.9480717"><ele>223.25</ele><time>2026-05-01T09:38:10.554Z</time></trkpt><trkpt lat="39.6932717" lon="8.948095"><ele>226.0</ele><time>2026-05-01T09:38:11.55Z</time></trkpt><trkpt lat="39.6931383" lon="8.9481283"><ele>226.0</ele><time>2026-05-01T09:38:12.553Z</time></trkpt><trkpt lat="39.69301" lon="8.9481633"><ele>226.0</ele><time>2026-05-01T09:38:13.553Z</time></trkpt><trkpt lat="39.6928933" lon="8.9482433"><ele>226.0</ele><time>2026-05-01T09:38:14.603Z</time></trkpt><trkpt lat="39.69278" lon="8.9482933"><ele>226.0</ele><time>2026-05-01T09:38:15.553Z</time></trkpt><trkpt lat="39.69267" lon="8.94832"><ele>227.8</ele><time>2026-05-01T09:38:16.554Z</time></trkpt><trkpt lat="39.6925583" lon="8.9483083"><ele>229.60000000000002</ele><time>2026-05-01T09:38:17.553Z</time></trkpt><trkpt lat="39.6924767" lon="8.948285"><ele>231.4</ele><time>2026-05-01T09:38:18.555Z</time></trkpt><trkpt lat="39.6924133" lon="8.9482417"><ele>233.2</ele><time>2026-05-01T09:38:19.554Z</time></trkpt><trkpt lat="39.6923867" lon="8.9481567"><ele>235.0</ele><time>2026-05-01T09:38:21.552Z</time></trkpt><trkpt lat="39.6925583" lon="8.9481333"><ele>235.0</ele><time>2026-05-01T09:38:23.547Z</time></trkpt><trkpt lat="39.692685" lon="8.9481367"><ele>235.0</ele><time>2026-05-01T09:38:24.552Z</time></trkpt><trkpt lat="39.69281" lon="8.9481117"><ele>235.0</ele><time>2026-05-01T09:38:25.555Z</time></trkpt><trkpt lat="39.6929567" lon="8.9480767"><ele>235.0</ele><time>2026-05-01T09:38:26.613Z</time></trkpt><trkpt lat="39.693105" lon="8.9480217"><ele>232.75</ele><time>2026-05-01T09:38:27.548Z</time></trkpt><trkpt lat="39.693225" lon="8.9479633"><ele>230.5</ele><time>2026-05-01T09:38:28.554Z</time></trkpt><trkpt lat="39.6933467" lon="8.9479133"><ele>228.25</ele><time>2026-05-01T09:38:29.551Z</time></trkpt><trkpt lat="39.6934633" lon="8.9478533"><ele>226.0</ele><time>2026-05-01T09:38:30.546Z</time></trkpt><trkpt lat="39.6935617" lon="8.9477867"><ele>226.75</ele><time>2026-05-01T09:38:31.55Z</time></trkpt><trkpt lat="39.6936533" lon="8.9477033"><ele>227.5</ele><time>2026-05-01T09:38:32.606Z</time></trkpt><trkpt lat="39.6937333" lon="8.94759"><ele>228.25</ele><time>2026-05-01T09:38:33.549Z</time></trkpt><trkpt lat="39.6938117" lon="8.9474683"><ele>229.0</ele><time>2026-05-01T09:38:34.547Z</time></trkpt><trkpt lat="39.693895" lon="8.947335"><ele>229.0</ele><time>2026-05-01T09:38:35.549Z</time></trkpt><trkpt lat="39.6939783" lon="8.9471983"><ele>229.0</ele><time>2026-05-01T09:38:36.551Z</time></trkpt><trkpt lat="39.69406" lon="8.9470567"><ele>229.0</ele><time>2026-05-01T09:38:37.546Z</time></trkpt><trkpt lat="39.6941383" lon="8.9469083"><ele>229.0</ele><time>2026-05-01T09:38:38.606Z</time></trkpt><trkpt lat="39.6942167" lon="8.9467333"><ele>233.75</ele><time>2026-05-01T09:38:39.547Z</time></trkpt><trkpt lat="39.6942617" lon="8.94656"><ele>238.5</ele><time>2026-05-01T09:38:40.548Z</time></trkpt><trkpt lat="39.694305" lon="8.9464133"><ele>243.25</ele><time>2026-05-01T09:38:41.552Z</time></trkpt><trkpt lat="39.694335" lon="8.946265"><ele>248.0</ele><time>2026-05-01T09:38:42.552Z</time></trkpt><trkpt lat="39.6943617" lon="8.9461133"><ele>248.0</ele><time>2026-05-01T09:38:43.552Z</time></trkpt><trkpt lat="39.6943717" lon="8.94597"><ele>248.0</ele><time>2026-05-01T09:38:44.605Z</time></trkpt><trkpt lat="39.6943767" lon="8.9458233"><ele>248.0</ele><time>2026-05-01T09:38:45.552Z</time></trkpt><trkpt lat="39.6943617" lon="8.9456917"><ele>248.0</ele><time>2026-05-01T09:38:46.549Z</time></trkpt><trkpt lat="39.6943367" lon="8.9455467"><ele>248.0</ele><time>2026-05-01T09:38:47.551Z</time></trkpt><trkpt lat="39.6942433" lon="8.945305"><ele>248.2</ele><time>2026-05-01T09:38:49.548Z</time></trkpt><trkpt lat="39.6941633" lon="8.9451933"><ele>248.4</ele><time>2026-05-01T09:38:50.605Z</time></trkpt><trkpt lat="39.694095" lon="8.9450767"><ele>248.59999999999997</ele><time>2026-05-01T09:38:51.55Z</time></trkpt><trkpt lat="39.6940233" lon="8.9449867"><ele>248.79999999999998</ele><time>2026-05-01T09:38:52.552Z</time></trkpt><trkpt lat="39.6939567" lon="8.9449267"><ele>249.0</ele><time>2026-05-01T09:38:53.551Z</time></trkpt><trkpt lat="39.6938817" lon="8.9448833"><ele>249.0</ele><time>2026-05-01T09:38:54.55Z</time></trkpt><trkpt lat="39.6938033" lon="8.94487"><ele>249.0</ele><time>2026-05-01T09:38:55.553Z</time></trkpt><trkpt lat="39.693725" lon="8.944865"><ele>249.0</ele><time>2026-05-01T09:38:56.609Z</time></trkpt><trkpt lat="39.693645" lon="8.9448733"><ele>249.0</ele><time>2026-05-01T09:38:57.553Z</time></trkpt><trkpt lat="39.6935617" lon="8.9448883"><ele>249.0</ele><time>2026-05-01T09:38:58.548Z</time></trkpt><trkpt lat="39.6934733" lon="8.94491"><ele>249.0</ele><time>2026-05-01T09:38:59.553Z</time></trkpt><trkpt lat="39.6933683" lon="8.9449467"><ele>251.75</ele><time>2026-05-01T09:39:00.549Z</time></trkpt><trkpt lat="39.6932467" lon="8.9449867"><ele>254.5</ele><time>2026-05-01T09:39:01.55Z</time></trkpt><trkpt lat="39.6931317" lon="8.9450117"><ele>257.25</ele><time>2026-05-01T09:39:02.61Z</time></trkpt><trkpt lat="39.6930233" lon="8.9450417"><ele>260.0</ele><time>2026-05-01T09:39:03.552Z</time></trkpt><trkpt lat="39.692905" lon="8.94508"><ele>263.0</ele><time>2026-05-01T09:39:04.549Z</time></trkpt><trkpt lat="39.69281" lon="8.9451417"><ele>266.0</ele><time>2026-05-01T09:39:05.549Z</time></trkpt><trkpt lat="39.6927233" lon="8.9451917"><ele>269.0</ele><time>2026-05-01T09:39:06.552Z</time></trkpt><trkpt lat="39.6926517" lon="8.9452667"><ele>272.0</ele><time>2026-05-01T09:39:07.553Z</time></trkpt><trkpt lat="39.6925817" lon="8.94537"><ele>275.0</ele><time>2026-05-01T09:39:08.606Z</time></trkpt><trkpt lat="39.6925133" lon="8.94548"><ele>275.0</ele><time>2026-05-01T09:39:09.552Z</time></trkpt><trkpt lat="39.69242" lon="8.945595"><ele>275.0</ele><time>2026-05-01T09:39:10.55Z</time></trkpt><trkpt lat="39.6923033" lon="8.9457267"><ele>275.0</ele><time>2026-05-01T09:39:11.551Z</time></trkpt><trkpt lat="39.6921833" lon="8.9458433"><ele>275.0</ele><time>2026-05-01T09:39:12.553Z</time></trkpt><trkpt lat="39.6920733" lon="8.9459433"><ele>275.5</ele><time>2026-05-01T09:39:13.553Z</time></trkpt><trkpt lat="39.6919633" lon="8.9460283"><ele>276.0</ele><time>2026-05-01T09:39:14.604Z</time></trkpt><trkpt lat="39.691865" lon="8.946095"><ele>276.5</ele><time>2026-05-01T09:39:15.552Z</time></trkpt><trkpt lat="39.6917467" lon="8.9461583"><ele>277.0</ele><time>2026-05-01T09:39:16.552Z</time></trkpt><trkpt lat="39.6916133" lon="8.94621"><ele>277.0</ele><time>2026-05-01T09:39:17.552Z</time></trkpt><trkpt lat="39.6914817" lon="8.9462367"><ele>277.0</ele><time>2026-05-01T09:39:18.553Z</time></trkpt><trkpt lat="39.6913417" lon="8.94624"><ele>277.0</ele><time>2026-05-01T09:39:19.552Z</time></trkpt><trkpt lat="39.6912017" lon="8.9462067"><ele>277.0</ele><time>2026-05-01T09:39:20.603Z</time></trkpt><trkpt lat="39.691085" lon="8.9461883"><ele>277.8</ele><time>2026-05-01T09:39:21.552Z</time></trkpt><trkpt lat="39.6909867" lon="8.9461483"><ele>278.6</ele><time>2026-05-01T09:39:22.554Z</time></trkpt><trkpt lat="39.690895" lon="8.9461"><ele>279.40000000000003</ele><time>2026-05-01T09:39:23.551Z</time></trkpt><trkpt lat="39.6908167" lon="8.9460533"><ele>280.2</ele><time>2026-05-01T09:39:24.549Z</time></trkpt><trkpt lat="39.6907383" lon="8.9459733"><ele>281.0</ele><time>2026-05-01T09:39:25.552Z</time></trkpt><trkpt lat="39.690665" lon="8.9458533"><ele>278.8</ele><time>2026-05-01T09:39:26.611Z</time></trkpt><trkpt lat="39.6906083" lon="8.9457217"><ele>276.6</ele><time>2026-05-01T09:39:27.552Z</time></trkpt><trkpt lat="39.6905467" lon="8.9456183"><ele>274.4</ele><time>2026-05-01T09:39:28.549Z</time></trkpt><trkpt lat="39.690485" lon="8.9455367"><ele>272.2</ele><time>2026-05-01T09:39:29.553Z</time></trkpt><trkpt lat="39.690405" lon="8.94549"><ele>270.0</ele><time>2026-05-01T09:39:30.55Z</time></trkpt><trkpt lat="39.6903183" lon="8.945475"><ele>272.5</ele><time>2026-05-01T09:39:31.546Z</time></trkpt><trkpt lat="39.6902167" lon="8.9455083"><ele>275.0</ele><time>2026-05-01T09:39:32.612Z</time></trkpt><trkpt lat="39.69011" lon="8.9455533"><ele>277.5</ele><time>2026-05-01T09:39:33.548Z</time></trkpt><trkpt lat="39.6899933" lon="8.945625"><ele>280.0</ele><time>2026-05-01T09:39:34.552Z</time></trkpt><trkpt lat="39.689875" lon="8.9457117"><ele>280.0</ele><time>2026-05-01T09:39:35.552Z</time></trkpt><trkpt lat="39.6897567" lon="8.9458133"><ele>280.0</ele><time>2026-05-01T09:39:36.551Z</time></trkpt><trkpt lat="39.6896417" lon="8.94589"><ele>280.0</ele><time>2026-05-01T09:39:37.551Z</time></trkpt><trkpt lat="39.689515" lon="8.945965"><ele>280.0</ele><time>2026-05-01T09:39:38.602Z</time></trkpt><trkpt lat="39.689395" lon="8.9460817"><ele>282.0</ele><time>2026-05-01T09:39:39.55Z</time></trkpt><trkpt lat="39.6892683" lon="8.9461933"><ele>284.0</ele><time>2026-05-01T09:39:40.548Z</time></trkpt><trkpt lat="39.6891383" lon="8.94631"><ele>286.0</ele><time>2026-05-01T09:39:41.55Z</time></trkpt><trkpt lat="39.6890067" lon="8.9464383"><ele>286.0</ele><time>2026-05-01T09:39:42.549Z</time></trkpt><trkpt lat="39.6888683" lon="8.946525"><ele>286.0</ele><time>2026-05-01T09:39:43.547Z</time></trkpt><trkpt lat="39.6887317" lon="8.9466033"><ele>286.0</ele><time>2026-05-01T09:39:44.602Z</time></trkpt><trkpt lat="39.68861" lon="8.9466967"><ele>286.0</ele><time>2026-05-01T09:39:45.554Z</time></trkpt><trkpt lat="39.6884667" lon="8.9468117"><ele>288.25</ele><time>2026-05-01T09:39:46.551Z</time></trkpt><trkpt lat="39.68834" lon="8.9469217"><ele>290.5</ele><time>2026-05-01T09:39:47.549Z</time></trkpt><trkpt lat="39.688225" lon="8.9470317"><ele>292.75</ele><time>2026-05-01T09:39:48.552Z</time></trkpt><trkpt lat="39.6881133" lon="8.9471367"><ele>295.0</ele><time>2026-05-01T09:39:49.55Z</time></trkpt><trkpt lat="39.688" lon="8.9472267"><ele>295.0</ele><time>2026-05-01T09:39:50.604Z</time></trkpt><trkpt lat="39.6878783" lon="8.9472683"><ele>295.0</ele><time>2026-05-01T09:39:51.549Z</time></trkpt><trkpt lat="39.6877583" lon="8.9472967"><ele>295.0</ele><time>2026-05-01T09:39:52.549Z</time></trkpt><trkpt lat="39.6876117" lon="8.94727"><ele>295.0</ele><time>2026-05-01T09:39:53.552Z</time></trkpt><trkpt lat="39.68748" lon="8.9472633"><ele>295.2</ele><time>2026-05-01T09:39:54.554Z</time></trkpt><trkpt lat="39.6873667" lon="8.94731"><ele>295.4</ele><time>2026-05-01T09:39:55.552Z</time></trkpt><trkpt lat="39.6872667" lon="8.9473433"><ele>295.6</ele><time>2026-05-01T09:39:56.618Z</time></trkpt><trkpt lat="39.6871767" lon="8.9474267"><ele>295.8</ele><time>2026-05-01T09:39:57.552Z</time></trkpt><trkpt lat="39.6871" lon="8.947515"><ele>296.0</ele><time>2026-05-01T09:39:58.553Z</time></trkpt><trkpt lat="39.6870283" lon="8.947625"><ele>296.0</ele><time>2026-05-01T09:39:59.551Z</time></trkpt><trkpt lat="39.68696" lon="8.9477583"><ele>296.0</ele><time>2026-05-01T09:40:00.553Z</time></trkpt><trkpt lat="39.6868933" lon="8.9479083"><ele>296.0</ele><time>2026-05-01T09:40:01.552Z</time></trkpt><trkpt lat="39.6868217" lon="8.948065"><ele>296.0</ele><time>2026-05-01T09:40:02.61Z</time></trkpt><trkpt lat="39.6867467" lon="8.9482283"><ele>297.5</ele><time>2026-05-01T09:40:03.547Z</time></trkpt><trkpt lat="39.6866683" lon="8.948385"><ele>299.0</ele><time>2026-05-01T09:40:04.549Z</time></trkpt><trkpt lat="39.6865917" lon="8.9485317"><ele>300.5</ele><time>2026-05-01T09:40:05.546Z</time></trkpt><trkpt lat="39.686515" lon="8.9486667"><ele>302.0</ele><time>2026-05-01T09:40:06.55Z</time></trkpt><trkpt lat="39.686435" lon="8.94879"><ele>302.0</ele><time>2026-05-01T09:40:07.55Z</time></trkpt><trkpt lat="39.68635" lon="8.9488917"><ele>302.0</ele><time>2026-05-01T09:40:08.603Z</time></trkpt><trkpt lat="39.68626" lon="8.948975"><ele>302.0</ele><time>2026-05-01T09:40:09.549Z</time></trkpt><trkpt lat="39.6861717" lon="8.9490417"><ele>302.0</ele><time>2026-05-01T09:40:10.551Z</time></trkpt><trkpt lat="39.6860867" lon="8.9490933"><ele>302.0</ele><time>2026-05-01T09:40:11.548Z</time></trkpt><trkpt lat="39.686005" lon="8.9491233"><ele>301.0</ele><time>2026-05-01T09:40:12.554Z</time></trkpt><trkpt lat="39.6859283" lon="8.949125"><ele>300.0</ele><time>2026-05-01T09:40:13.546Z</time></trkpt><trkpt lat="39.68586" lon="8.9491067"><ele>299.0</ele><time>2026-05-01T09:40:14.604Z</time></trkpt><trkpt lat="39.68579" lon="8.9490767"><ele>298.0</ele><time>2026-05-01T09:40:15.55Z</time></trkpt><trkpt lat="39.6857283" lon="8.9490267"><ele>297.0</ele><time>2026-05-01T09:40:16.55Z</time></trkpt><trkpt lat="39.685665" lon="8.9489633"><ele>296.0</ele><time>2026-05-01T09:40:17.551Z</time></trkpt><trkpt lat="39.6855983" lon="8.9488967"><ele>296.0</ele><time>2026-05-01T09:40:18.548Z</time></trkpt><trkpt lat="39.6855267" lon="8.9488233"><ele>296.0</ele><time>2026-05-01T09:40:19.549Z</time></trkpt><trkpt lat="39.685445" lon="8.9487433"><ele>296.0</ele><time>2026-05-01T09:40:20.601Z</time></trkpt><trkpt lat="39.6853517" lon="8.9486683"><ele>296.0</ele><time>2026-05-01T09:40:21.551Z</time></trkpt><trkpt lat="39.68525" lon="8.9486"><ele>296.0</ele><time>2026-05-01T09:40:22.55Z</time></trkpt><trkpt lat="39.6851433" lon="8.9485383"><ele>294.2</ele><time>2026-05-01T09:40:23.547Z</time></trkpt><trkpt lat="39.685035" lon="8.948495"><ele>292.40000000000003</ele><time>2026-05-01T09:40:24.553Z</time></trkpt><trkpt lat="39.68493" lon="8.94847"><ele>290.6</ele><time>2026-05-01T09:40:25.55Z</time></trkpt><trkpt lat="39.6848333" lon="8.94846"><ele>288.8</ele><time>2026-05-01T09:40:26.619Z</time></trkpt><trkpt lat="39.6847417" lon="8.9484767"><ele>287.0</ele><time>2026-05-01T09:40:27.547Z</time></trkpt><trkpt lat="39.6846483" lon="8.9485083"><ele>287.0</ele><time>2026-05-01T09:40:28.55Z</time></trkpt><trkpt lat="39.6845633" lon="8.9485667"><ele>287.0</ele><time>2026-05-01T09:40:29.552Z</time></trkpt><trkpt lat="39.6844883" lon="8.9486383"><ele>287.0</ele><time>2026-05-01T09:40:30.549Z</time></trkpt><trkpt lat="39.6844283" lon="8.94874"><ele>287.0</ele><time>2026-05-01T09:40:31.552Z</time></trkpt><trkpt lat="39.6843933" lon="8.9488833"><ele>287.0</ele><time>2026-05-01T09:40:32.612Z</time></trkpt><trkpt lat="39.6843533" lon="8.9490183"><ele>287.0</ele><time>2026-05-01T09:40:33.546Z</time></trkpt><trkpt lat="39.6843017" lon="8.9491367"><ele>287.0</ele><time>2026-05-01T09:40:34.55Z</time></trkpt><trkpt lat="39.6842433" lon="8.9492567"><ele>287.0</ele><time>2026-05-01T09:40:35.552Z</time></trkpt><trkpt lat="39.6841783" lon="8.9493683"><ele>287.0</ele><time>2026-05-01T09:40:36.551Z</time></trkpt><trkpt lat="39.6841033" lon="8.9494817"><ele>287.0</ele><time>2026-05-01T09:40:37.547Z</time></trkpt><trkpt lat="39.6840217" lon="8.9495917"><ele>283.5</ele><time>2026-05-01T09:40:38.605Z</time></trkpt><trkpt lat="39.683935" lon="8.9497033"><ele>280.0</ele><time>2026-05-01T09:40:39.547Z</time></trkpt><trkpt lat="39.6838433" lon="8.9498117"><ele>276.5</ele><time>2026-05-01T09:40:40.551Z</time></trkpt><trkpt lat="39.683755" lon="8.94992"><ele>273.0</ele><time>2026-05-01T09:40:41.548Z</time></trkpt><trkpt lat="39.683665" lon="8.9500233"><ele>270.75</ele><time>2026-05-01T09:40:42.554Z</time></trkpt><trkpt lat="39.6835717" lon="8.9501317"><ele>268.5</ele><time>2026-05-01T09:40:43.551Z</time></trkpt><trkpt lat="39.68348" lon="8.95023"><ele>266.25</ele><time>2026-05-01T09:40:44.605Z</time></trkpt><trkpt lat="39.6833917" lon="8.9503233"><ele>264.0</ele><time>2026-05-01T09:40:45.549Z</time></trkpt><trkpt lat="39.6833067" lon="8.9504133"><ele>264.0</ele><time>2026-05-01T09:40:46.55Z</time></trkpt><trkpt lat="39.6832233" lon="8.9505"><ele>264.0</ele><time>2026-05-01T09:40:47.554Z</time></trkpt><trkpt lat="39.6831433" lon="8.9505817"><ele>264.0</ele><time>2026-05-01T09:40:48.549Z</time></trkpt><trkpt lat="39.68307" lon="8.9506567"><ele>264.0</ele><time>2026-05-01T09:40:49.552Z</time></trkpt><trkpt lat="39.6830033" lon="8.9507183"><ele>264.0</ele><time>2026-05-01T09:40:50.602Z</time></trkpt><trkpt lat="39.6829383" lon="8.95077"><ele>264.0</ele><time>2026-05-01T09:40:51.552Z</time></trkpt><trkpt lat="39.6828733" lon="8.9508083"><ele>264.0</ele><time>2026-05-01T09:40:52.553Z</time></trkpt><trkpt lat="39.6828067" lon="8.950825"><ele>264.0</ele><time>2026-05-01T09:40:53.55Z</time></trkpt><trkpt lat="39.6827433" lon="8.9508283"><ele>264.0</ele><time>2026-05-01T09:40:54.549Z</time></trkpt><trkpt lat="39.6826217" lon="8.9507533"><ele>264.0</ele><time>2026-05-01T09:40:56.585Z</time></trkpt><trkpt lat="39.6825533" lon="8.9506667"><ele>264.0</ele><time>2026-05-01T09:40:57.553Z</time></trkpt><trkpt lat="39.6824717" lon="8.9505483"><ele>264.5</ele><time>2026-05-01T09:40:58.547Z</time></trkpt><trkpt lat="39.68238" lon="8.9504433"><ele>265.0</ele><time>2026-05-01T09:40:59.546Z</time></trkpt><trkpt lat="39.6822733" lon="8.9503517"><ele>265.5</ele><time>2026-05-01T09:41:00.55Z</time></trkpt><trkpt lat="39.68216" lon="8.9502667"><ele>266.0</ele><time>2026-05-01T09:41:01.552Z</time></trkpt><trkpt lat="39.6820517" lon="8.9501833"><ele>266.0</ele><time>2026-05-01T09:41:02.61Z</time></trkpt><trkpt lat="39.6819367" lon="8.950105"><ele>266.0</ele><time>2026-05-01T09:41:03.548Z</time></trkpt><trkpt lat="39.6818283" lon="8.9500467"><ele>266.0</ele><time>2026-05-01T09:41:04.55Z</time></trkpt><trkpt lat="39.681715" lon="8.9500033"><ele>266.0</ele><time>2026-05-01T09:41:05.552Z</time></trkpt><trkpt lat="39.6815917" lon="8.94997"><ele>267.25</ele><time>2026-05-01T09:41:06.547Z</time></trkpt><trkpt lat="39.6814533" lon="8.9499467"><ele>268.5</ele><time>2026-05-01T09:41:07.551Z</time></trkpt><trkpt lat="39.6813117" lon="8.94993"><ele>269.75</ele><time>2026-05-01T09:41:08.596Z</time></trkpt><trkpt lat="39.6811717" lon="8.9499133"><ele>271.0</ele><time>2026-05-01T09:41:09.547Z</time></trkpt><trkpt lat="39.681035" lon="8.9498967"><ele>272.0</ele><time>2026-05-01T09:41:10.551Z</time></trkpt><trkpt lat="39.6809033" lon="8.94988"><ele>273.0</ele><time>2026-05-01T09:41:11.552Z</time></trkpt><trkpt lat="39.680775" lon="8.9498583"><ele>274.0</ele><time>2026-05-01T09:41:12.552Z</time></trkpt><trkpt lat="39.6806483" lon="8.9498317"><ele>275.0</ele><time>2026-05-01T09:41:13.547Z</time></trkpt><trkpt lat="39.6805217" lon="8.9497983"><ele>275.0</ele><time>2026-05-01T09:41:14.597Z</time></trkpt><trkpt lat="39.680395" lon="8.9497533"><ele>275.0</ele><time>2026-05-01T09:41:15.546Z</time></trkpt><trkpt lat="39.6802717" lon="8.949705"><ele>275.0</ele><time>2026-05-01T09:41:16.548Z</time></trkpt><trkpt lat="39.6801533" lon="8.9496583"><ele>275.0</ele><time>2026-05-01T09:41:17.552Z</time></trkpt><trkpt lat="39.6800467" lon="8.9496167"><ele>274.0</ele><time>2026-05-01T09:41:18.552Z</time></trkpt><trkpt lat="39.6799467" lon="8.94958"><ele>273.0</ele><time>2026-05-01T09:41:19.547Z</time></trkpt><trkpt lat="39.6798567" lon="8.9495433"><ele>272.0</ele><time>2026-05-01T09:41:20.595Z</time></trkpt><trkpt lat="39.679775" lon="8.949505"><ele>271.0</ele><time>2026-05-01T09:41:21.546Z</time></trkpt><trkpt lat="39.6797033" lon="8.9494733"><ele>270.0</ele><time>2026-05-01T09:41:22.551Z</time></trkpt><trkpt lat="39.67963" lon="8.9494467"><ele>269.0</ele><time>2026-05-01T09:41:23.552Z</time></trkpt><trkpt lat="39.6795633" lon="8.949425"><ele>269.0</ele><time>2026-05-01T09:41:24.549Z</time></trkpt><trkpt lat="39.6794967" lon="8.9494117"><ele>269.0</ele><time>2026-05-01T09:41:25.546Z</time></trkpt><trkpt lat="39.6794283" lon="8.9494067"><ele>269.0</ele><time>2026-05-01T09:41:26.612Z</time></trkpt><trkpt lat="39.6793533" lon="8.949405"><ele>269.0</ele><time>2026-05-01T09:41:27.551Z</time></trkpt><trkpt lat="39.6792767" lon="8.9494083"><ele>269.0</ele><time>2026-05-01T09:41:28.549Z</time></trkpt><trkpt lat="39.6791967" lon="8.9494167"><ele>269.0</ele><time>2026-05-01T09:41:29.551Z</time></trkpt><trkpt lat="39.6791117" lon="8.9494267"><ele>268.2</ele><time>2026-05-01T09:41:30.549Z</time></trkpt><trkpt lat="39.67902" lon="8.9494417"><ele>267.4</ele><time>2026-05-01T09:41:31.549Z</time></trkpt><trkpt lat="39.678925" lon="8.949465"><ele>266.6</ele><time>2026-05-01T09:41:32.602Z</time></trkpt><trkpt lat="39.6788317" lon="8.9494967"><ele>265.8</ele><time>2026-05-01T09:41:33.548Z</time></trkpt><trkpt lat="39.6787417" lon="8.94953"><ele>265.0</ele><time>2026-05-01T09:41:34.549Z</time></trkpt><trkpt lat="39.6786583" lon="8.9495617"><ele>263.4</ele><time>2026-05-01T09:41:35.549Z</time></trkpt><trkpt lat="39.6785717" lon="8.9495933"><ele>261.8</ele><time>2026-05-01T09:41:36.553Z</time></trkpt><trkpt lat="39.678485" lon="8.949625"><ele>260.2</ele><time>2026-05-01T09:41:37.551Z</time></trkpt><trkpt lat="39.6783983" lon="8.94966"><ele>258.6</ele><time>2026-05-01T09:41:38.597Z</time></trkpt><trkpt lat="39.6783117" lon="8.94971"><ele>257.0</ele><time>2026-05-01T09:41:39.55Z</time></trkpt><trkpt lat="39.6782267" lon="8.9497683"><ele>257.0</ele><time>2026-05-01T09:41:40.549Z</time></trkpt><trkpt lat="39.6781383" lon="8.9498383"><ele>257.0</ele><time>2026-05-01T09:41:41.554Z</time></trkpt><trkpt lat="39.678055" lon="8.9499083"><ele>257.0</ele><time>2026-05-01T09:41:42.553Z</time></trkpt><trkpt lat="39.67797" lon="8.94998"><ele>257.0</ele><time>2026-05-01T09:41:43.552Z</time></trkpt><trkpt lat="39.67788" lon="8.9500467"><ele>257.0</ele><time>2026-05-01T09:41:44.596Z</time></trkpt><trkpt lat="39.67779" lon="8.95011"><ele>256.6</ele><time>2026-05-01T09:41:45.547Z</time></trkpt><trkpt lat="39.6776983" lon="8.95017"><ele>256.2</ele><time>2026-05-01T09:41:46.551Z</time></trkpt><trkpt lat="39.6776067" lon="8.9502267"><ele>255.8</ele><time>2026-05-01T09:41:47.551Z</time></trkpt><trkpt lat="39.677515" lon="8.95029"><ele>255.4</ele><time>2026-05-01T09:41:48.551Z</time></trkpt><trkpt lat="39.677425" lon="8.9503533"><ele>255.0</ele><time>2026-05-01T09:41:49.553Z</time></trkpt><trkpt lat="39.6773383" lon="8.950415"><ele>255.0</ele><time>2026-05-01T09:41:50.595Z</time></trkpt><trkpt lat="39.6772583" lon="8.9504717"><ele>255.0</ele><time>2026-05-01T09:41:51.548Z</time></trkpt><trkpt lat="39.6771783" lon="8.95053"><ele>255.0</ele><time>2026-05-01T09:41:52.552Z</time></trkpt><trkpt lat="39.6770967" lon="8.950585"><ele>255.0</ele><time>2026-05-01T09:41:53.553Z</time></trkpt><trkpt lat="39.6770133" lon="8.950635"><ele>255.0</ele><time>2026-05-01T09:41:54.549Z</time></trkpt><trkpt lat="39.67693" lon="8.9506817"><ele>253.6</ele><time>2026-05-01T09:41:55.551Z</time></trkpt><trkpt lat="39.676845" lon="8.950725"><ele>252.2</ele><time>2026-05-01T09:41:56.61Z</time></trkpt><trkpt lat="39.6767633" lon="8.950765"><ele>250.8</ele><time>2026-05-01T09:41:57.55Z</time></trkpt><trkpt lat="39.67668" lon="8.9508017"><ele>249.4</ele><time>2026-05-01T09:41:58.549Z</time></trkpt><trkpt lat="39.6765917" lon="8.9508417"><ele>248.0</ele><time>2026-05-01T09:41:59.551Z</time></trkpt><trkpt lat="39.6764983" lon="8.9508883"><ele>248.0</ele><time>2026-05-01T09:42:00.552Z</time></trkpt><trkpt lat="39.676405" lon="8.9509367"><ele>248.0</ele><time>2026-05-01T09:42:01.551Z</time></trkpt><trkpt lat="39.6763133" lon="8.950985"><ele>248.0</ele><time>2026-05-01T09:42:02.606Z</time></trkpt><trkpt lat="39.6762283" lon="8.9510283"><ele>248.0</ele><time>2026-05-01T09:42:03.552Z</time></trkpt><trkpt lat="39.6761467" lon="8.9510717"><ele>248.0</ele><time>2026-05-01T09:42:04.549Z</time></trkpt><trkpt lat="39.6760717" lon="8.9511133"><ele>246.33333333333334</ele><time>2026-05-01T09:42:05.553Z</time></trkpt><trkpt lat="39.6760033" lon="8.95115"><ele>244.66666666666669</ele><time>2026-05-01T09:42:06.55Z</time></trkpt><trkpt lat="39.6759383" lon="8.9511833"><ele>243.0</ele><time>2026-05-01T09:42:07.553Z</time></trkpt><trkpt lat="39.67588" lon="8.951215"><ele>241.33333333333331</ele><time>2026-05-01T09:42:08.598Z</time></trkpt><trkpt lat="39.67582" lon="8.9512517"><ele>239.66666666666666</ele><time>2026-05-01T09:42:09.551Z</time></trkpt><trkpt lat="39.6757283" lon="8.9513383"><ele>238.0</ele><time>2026-05-01T09:42:11.555Z</time></trkpt><trkpt lat="39.6756717" lon="8.95147"><ele>238.0</ele><time>2026-05-01T09:42:13.546Z</time></trkpt><trkpt lat="39.6756533" lon="8.95155"><ele>238.0</ele><time>2026-05-01T09:42:14.597Z</time></trkpt><trkpt lat="39.675635" lon="8.9516333"><ele>238.0</ele><time>2026-05-01T09:42:15.547Z</time></trkpt><trkpt lat="39.67561" lon="8.95172"><ele>238.0</ele><time>2026-05-01T09:42:16.549Z</time></trkpt><trkpt lat="39.6755783" lon="8.9518067"><ele>238.0</ele><time>2026-05-01T09:42:17.553Z</time></trkpt><trkpt lat="39.675545" lon="8.951895"><ele>238.0</ele><time>2026-05-01T09:42:18.552Z</time></trkpt><trkpt lat="39.6755133" lon="8.9519867"><ele>238.0</ele><time>2026-05-01T09:42:19.552Z</time></trkpt><trkpt lat="39.675475" lon="8.9520833"><ele>237.83333333333331</ele><time>2026-05-01T09:42:20.598Z</time></trkpt><trkpt lat="39.67544" lon="8.9521767"><ele>237.66666666666666</ele><time>2026-05-01T09:42:21.552Z</time></trkpt><trkpt lat="39.6754017" lon="8.9522733"><ele>237.5</ele><time>2026-05-01T09:42:22.547Z</time></trkpt><trkpt lat="39.6753567" lon="8.9523617"><ele>237.33333333333331</ele><time>2026-05-01T09:42:23.551Z</time></trkpt><trkpt lat="39.6753017" lon="8.952455"><ele>237.16666666666666</ele><time>2026-05-01T09:42:24.548Z</time></trkpt><trkpt lat="39.6752417" lon="8.9525417"><ele>237.0</ele><time>2026-05-01T09:42:25.546Z</time></trkpt><trkpt lat="39.6751767" lon="8.95263"><ele>237.0</ele><time>2026-05-01T09:42:26.613Z</time></trkpt><trkpt lat="39.6751117" lon="8.9527183"><ele>237.0</ele><time>2026-05-01T09:42:27.549Z</time></trkpt><trkpt lat="39.675045" lon="8.9528083"><ele>237.0</ele><time>2026-05-01T09:42:28.551Z</time></trkpt><trkpt lat="39.6749783" lon="8.9528967"><ele>237.0</ele><time>2026-05-01T09:42:29.554Z</time></trkpt><trkpt lat="39.6749067" lon="8.952985"><ele>237.0</ele><time>2026-05-01T09:42:30.551Z</time></trkpt><trkpt lat="39.6748333" lon="8.95307"><ele>237.0</ele><time>2026-05-01T09:42:31.551Z</time></trkpt><trkpt lat="39.6747617" lon="8.9531533"><ele>237.0</ele><time>2026-05-01T09:42:32.603Z</time></trkpt><trkpt lat="39.67469" lon="8.953235"><ele>237.0</ele><time>2026-05-01T09:42:33.548Z</time></trkpt><trkpt lat="39.674615" lon="8.953315"><ele>237.0</ele><time>2026-05-01T09:42:34.552Z</time></trkpt><trkpt lat="39.6745433" lon="8.9533833"><ele>237.0</ele><time>2026-05-01T09:42:35.552Z</time></trkpt><trkpt lat="39.6744717" lon="8.9534433"><ele>236.83333333333334</ele><time>2026-05-01T09:42:36.552Z</time></trkpt><trkpt lat="39.6744033" lon="8.9534933"><ele>236.66666666666669</ele><time>2026-05-01T09:42:37.55Z</time></trkpt><trkpt lat="39.6743283" lon="8.9535417"><ele>236.5</ele><time>2026-05-01T09:42:38.596Z</time></trkpt><trkpt lat="39.6742617" lon="8.9535733"><ele>236.33333333333334</ele><time>2026-05-01T09:42:39.549Z</time></trkpt><trkpt lat="39.6741967" lon="8.9535983"><ele>236.16666666666669</ele><time>2026-05-01T09:42:40.549Z</time></trkpt><trkpt lat="39.674135" lon="8.9536183"><ele>236.0</ele><time>2026-05-01T09:42:41.552Z</time></trkpt><trkpt lat="39.6740083" lon="8.9536417"><ele>236.00000000000003</ele><time>2026-05-01T09:42:43.552Z</time></trkpt><trkpt lat="39.6739417" lon="8.953645"><ele>236.0</ele><time>2026-05-01T09:42:44.601Z</time></trkpt><trkpt lat="39.673875" lon="8.95365"><ele>236.0</ele><time>2026-05-01T09:42:45.549Z</time></trkpt><trkpt lat="39.67375" lon="8.9536317"><ele>236.0</ele><time>2026-05-01T09:42:47.549Z</time></trkpt><trkpt lat="39.6736817" lon="8.9536067"><ele>236.00000000000003</ele><time>2026-05-01T09:42:48.552Z</time></trkpt><trkpt lat="39.6736133" lon="8.9535883"><ele>236.0</ele><time>2026-05-01T09:42:49.552Z</time></trkpt><trkpt lat="39.6735483" lon="8.9535667"><ele>234.33333333333334</ele><time>2026-05-01T09:42:50.595Z</time></trkpt><trkpt lat="39.67348" lon="8.9535533"><ele>232.66666666666669</ele><time>2026-05-01T09:42:51.549Z</time></trkpt><trkpt lat="39.6734033" lon="8.953545"><ele>231.0</ele><time>2026-05-01T09:42:52.552Z</time></trkpt><trkpt lat="39.673325" lon="8.953545"><ele>229.33333333333331</ele><time>2026-05-01T09:42:53.547Z</time></trkpt><trkpt lat="39.673245" lon="8.9535533"><ele>227.66666666666666</ele><time>2026-05-01T09:42:54.548Z</time></trkpt><trkpt lat="39.673165" lon="8.9535667"><ele>226.0</ele><time>2026-05-01T09:42:55.547Z</time></trkpt><trkpt lat="39.673085" lon="8.9535783"><ele>225.99999999999997</ele><time>2026-05-01T09:42:56.616Z</time></trkpt><trkpt lat="39.6730083" lon="8.95358"><ele>226.0</ele><time>2026-05-01T09:42:57.552Z</time></trkpt><trkpt lat="39.672935" lon="8.953565"><ele>226.0</ele><time>2026-05-01T09:42:58.55Z</time></trkpt><trkpt lat="39.6728583" lon="8.9535417"><ele>226.0</ele><time>2026-05-01T09:42:59.548Z</time></trkpt><trkpt lat="39.6727883" lon="8.953505"><ele>225.99999999999997</ele><time>2026-05-01T09:43:00.55Z</time></trkpt><trkpt lat="39.6727217" lon="8.9534683"><ele>226.0</ele><time>2026-05-01T09:43:01.55Z</time></trkpt><trkpt lat="39.672655" lon="8.95343"><ele>224.33333333333331</ele><time>2026-05-01T09:43:02.603Z</time></trkpt><trkpt lat="39.6725883" lon="8.9533983"><ele>222.66666666666666</ele><time>2026-05-01T09:43:03.55Z</time></trkpt><trkpt lat="39.6725217" lon="8.9533817"><ele>221.0</ele><time>2026-05-01T09:43:04.55Z</time></trkpt><trkpt lat="39.6724517" lon="8.9533817"><ele>219.33333333333331</ele><time>2026-05-01T09:43:05.551Z</time></trkpt><trkpt lat="39.6723883" lon="8.9533983"><ele>217.66666666666666</ele><time>2026-05-01T09:43:06.552Z</time></trkpt><trkpt lat="39.67228" lon="8.95345"><ele>216.0</ele><time>2026-05-01T09:43:08.597Z</time></trkpt><trkpt lat="39.67219" lon="8.9535083"><ele>216.0</ele><time>2026-05-01T09:43:10.551Z</time></trkpt><trkpt lat="39.6721067" lon="8.95357"><ele>216.0</ele><time>2026-05-01T09:43:12.551Z</time></trkpt><trkpt lat="39.6720183" lon="8.953635"><ele>216.0</ele><time>2026-05-01T09:43:14.6Z</time></trkpt><trkpt lat="39.6719417" lon="8.9537017"><ele>216.0</ele><time>2026-05-01T09:43:16.548Z</time></trkpt><trkpt lat="39.67188" lon="8.9537483"><ele>216.0</ele><time>2026-05-01T09:43:18.554Z</time></trkpt><trkpt lat="39.6717967" lon="8.9537767"><ele>216.0</ele><time>2026-05-01T09:44:15.55Z</time></trkpt><trkpt lat="39.6716717" lon="8.9537817"><ele>214.8</ele><time>2026-05-01T09:44:17.551Z</time></trkpt><trkpt lat="39.6715833" lon="8.9537817"><ele>213.60000000000002</ele><time>2026-05-01T09:44:18.549Z</time></trkpt><trkpt lat="39.6714717" lon="8.953775"><ele>212.4</ele><time>2026-05-01T09:44:19.551Z</time></trkpt><trkpt lat="39.671355" lon="8.9537733"><ele>211.2</ele><time>2026-05-01T09:44:20.6Z</time></trkpt><trkpt lat="39.6712283" lon="8.95377"><ele>210.0</ele><time>2026-05-01T09:44:21.549Z</time></trkpt><trkpt lat="39.671095" lon="8.9537683"><ele>208.75</ele><time>2026-05-01T09:44:22.55Z</time></trkpt><trkpt lat="39.67096" lon="8.95376"><ele>207.5</ele><time>2026-05-01T09:44:23.552Z</time></trkpt><trkpt lat="39.6708217" lon="8.95375"><ele>206.25</ele><time>2026-05-01T09:44:24.551Z</time></trkpt><trkpt lat="39.6706883" lon="8.953735"><ele>205.0</ele><time>2026-05-01T09:44:25.552Z</time></trkpt><trkpt lat="39.6705667" lon="8.9537233"><ele>205.0</ele><time>2026-05-01T09:44:26.615Z</time></trkpt><trkpt lat="39.6704483" lon="8.9537083"><ele>205.0</ele><time>2026-05-01T09:44:27.551Z</time></trkpt><trkpt lat="39.670335" lon="8.9536983"><ele>205.0</ele><time>2026-05-01T09:44:28.551Z</time></trkpt><trkpt lat="39.6702233" lon="8.9537017"><ele>205.0</ele><time>2026-05-01T09:44:29.551Z</time></trkpt><trkpt lat="39.6701183" lon="8.9537217"><ele>204.0</ele><time>2026-05-01T09:44:30.55Z</time></trkpt><trkpt lat="39.6700133" lon="8.9537683"><ele>203.0</ele><time>2026-05-01T09:44:31.551Z</time></trkpt><trkpt lat="39.6699083" lon="8.9538317"><ele>202.0</ele><time>2026-05-01T09:44:32.603Z</time></trkpt><trkpt lat="39.6697983" lon="8.9539133"><ele>201.0</ele><time>2026-05-01T09:44:33.551Z</time></trkpt><trkpt lat="39.6696733" lon="8.9540417"><ele>201.0</ele><time>2026-05-01T09:44:34.551Z</time></trkpt><trkpt lat="39.6695383" lon="8.9541867"><ele>201.0</ele><time>2026-05-01T09:44:35.548Z</time></trkpt><trkpt lat="39.6694033" lon="8.9543233"><ele>201.0</ele><time>2026-05-01T09:44:36.549Z</time></trkpt><trkpt lat="39.66927" lon="8.95445"><ele>200.0</ele><time>2026-05-01T09:44:37.553Z</time></trkpt><trkpt lat="39.6691417" lon="8.954575"><ele>199.0</ele><time>2026-05-01T09:44:38.596Z</time></trkpt><trkpt lat="39.6690133" lon="8.9546917"><ele>198.0</ele><time>2026-05-01T09:44:39.545Z</time></trkpt><trkpt lat="39.66889" lon="8.9548"><ele>198.0</ele><time>2026-05-01T09:44:40.547Z</time></trkpt><trkpt lat="39.668775" lon="8.9549067"><ele>198.0</ele><time>2026-05-01T09:44:41.551Z</time></trkpt><trkpt lat="39.6686633" lon="8.9550117"><ele>198.0</ele><time>2026-05-01T09:44:42.545Z</time></trkpt><trkpt lat="39.6685583" lon="8.955115"><ele>198.0</ele><time>2026-05-01T09:44:43.551Z</time></trkpt><trkpt lat="39.6684567" lon="8.9552133"><ele>197.25</ele><time>2026-05-01T09:44:44.595Z</time></trkpt><trkpt lat="39.6683583" lon="8.9553017"><ele>196.5</ele><time>2026-05-01T09:44:45.549Z</time></trkpt><trkpt lat="39.6682567" lon="8.95538"><ele>195.75</ele><time>2026-05-01T09:44:46.55Z</time></trkpt><trkpt lat="39.6681517" lon="8.9554433"><ele>195.0</ele><time>2026-05-01T09:44:47.545Z</time></trkpt><trkpt lat="39.6680433" lon="8.9554883"><ele>195.0</ele><time>2026-05-01T09:44:48.549Z</time></trkpt><trkpt lat="39.66793" lon="8.9555217"><ele>195.0</ele><time>2026-05-01T09:44:49.553Z</time></trkpt><trkpt lat="39.6678133" lon="8.9555617"><ele>195.0</ele><time>2026-05-01T09:44:50.598Z</time></trkpt><trkpt lat="39.6677017" lon="8.955615"><ele>195.0</ele><time>2026-05-01T09:44:51.552Z</time></trkpt><trkpt lat="39.6675983" lon="8.955675"><ele>194.6</ele><time>2026-05-01T09:44:52.547Z</time></trkpt><trkpt lat="39.6675033" lon="8.9557367"><ele>194.2</ele><time>2026-05-01T09:44:53.55Z</time></trkpt><trkpt lat="39.6674117" lon="8.9557983"><ele>193.8</ele><time>2026-05-01T09:44:54.547Z</time></trkpt><trkpt lat="39.667315" lon="8.9558533"><ele>193.4</ele><time>2026-05-01T09:44:55.559Z</time></trkpt><trkpt lat="39.6672117" lon="8.9558933"><ele>193.0</ele><time>2026-05-01T09:44:56.614Z</time></trkpt><trkpt lat="39.6671" lon="8.9559217"><ele>193.0</ele><time>2026-05-01T09:44:57.547Z</time></trkpt><trkpt lat="39.6669767" lon="8.9559333"><ele>193.0</ele><time>2026-05-01T09:44:58.551Z</time></trkpt><trkpt lat="39.6668467" lon="8.955935"><ele>193.0</ele><time>2026-05-01T09:44:59.55Z</time></trkpt><trkpt lat="39.6667167" lon="8.9559333"><ele>193.0</ele><time>2026-05-01T09:45:00.554Z</time></trkpt><trkpt lat="39.6665917" lon="8.9559367"><ele>192.4</ele><time>2026-05-01T09:45:01.547Z</time></trkpt><trkpt lat="39.6664767" lon="8.9559483"><ele>191.8</ele><time>2026-05-01T09:45:02.607Z</time></trkpt><trkpt lat="39.66637" lon="8.9559617"><ele>191.2</ele><time>2026-05-01T09:45:03.553Z</time></trkpt><trkpt lat="39.666275" lon="8.9559783"><ele>190.6</ele><time>2026-05-01T09:45:04.551Z</time></trkpt><trkpt lat="39.666195" lon="8.9559933"><ele>190.0</ele><time>2026-05-01T09:45:05.55Z</time></trkpt><trkpt lat="39.6661233" lon="8.956005"><ele>189.8</ele><time>2026-05-01T09:45:06.551Z</time></trkpt><trkpt lat="39.66601" lon="8.9560133"><ele>189.6</ele><time>2026-05-01T09:45:08.598Z</time></trkpt><trkpt lat="39.6659" lon="8.955985"><ele>189.39999999999998</ele><time>2026-05-01T09:45:10.549Z</time></trkpt><trkpt lat="39.6657967" lon="8.9558983"><ele>189.2</ele><time>2026-05-01T09:45:12.551Z</time></trkpt><trkpt lat="39.6657367" lon="8.9558067"><ele>189.0</ele><time>2026-05-01T09:45:13.548Z</time></trkpt><trkpt lat="39.6656733" lon="8.95571"><ele>189.0</ele><time>2026-05-01T09:45:14.599Z</time></trkpt><trkpt lat="39.6655917" lon="8.955595"><ele>189.0</ele><time>2026-05-01T09:45:15.549Z</time></trkpt><trkpt lat="39.6655017" lon="8.9554667"><ele>189.0</ele><time>2026-05-01T09:45:16.547Z</time></trkpt><trkpt lat="39.66541" lon="8.955335"><ele>189.0</ele><time>2026-05-01T09:45:17.547Z</time></trkpt><trkpt lat="39.6653283" lon="8.9552067"><ele>189.0</ele><time>2026-05-01T09:45:18.547Z</time></trkpt><trkpt lat="39.665265" lon="8.95508"><ele>189.0</ele><time>2026-05-01T09:45:19.549Z</time></trkpt><trkpt lat="39.6652117" lon="8.9549383"><ele>189.0</ele><time>2026-05-01T09:45:20.597Z</time></trkpt><trkpt lat="39.665165" lon="8.9547783"><ele>189.0</ele><time>2026-05-01T09:45:21.549Z</time></trkpt><trkpt lat="39.6651217" lon="8.9545983"><ele>188.33333333333334</ele><time>2026-05-01T09:45:22.549Z</time></trkpt><trkpt lat="39.6650833" lon="8.9543967"><ele>187.66666666666669</ele><time>2026-05-01T09:45:23.552Z</time></trkpt><trkpt lat="39.66505" lon="8.9541833"><ele>187.0</ele><time>2026-05-01T09:45:24.547Z</time></trkpt><trkpt lat="39.6650267" lon="8.953955"><ele>185.33333333333334</ele><time>2026-05-01T09:45:25.549Z</time></trkpt><trkpt lat="39.66501" lon="8.953705"><ele>183.66666666666666</ele><time>2026-05-01T09:45:26.617Z</time></trkpt><trkpt lat="39.6649983" lon="8.9534667"><ele>182.0</ele><time>2026-05-01T09:45:27.547Z</time></trkpt><trkpt lat="39.66499" lon="8.9532283"><ele>181.66666666666666</ele><time>2026-05-01T09:45:28.548Z</time></trkpt><trkpt lat="39.6649867" lon="8.9529933"><ele>181.33333333333334</ele><time>2026-05-01T09:45:29.547Z</time></trkpt><trkpt lat="39.664985" lon="8.9527667"><ele>181.0</ele><time>2026-05-01T09:45:30.548Z</time></trkpt><trkpt lat="39.664985" lon="8.9525467"><ele>181.25</ele><time>2026-05-01T09:45:31.55Z</time></trkpt><trkpt lat="39.6649817" lon="8.9523467"><ele>181.5</ele><time>2026-05-01T09:45:32.601Z</time></trkpt><trkpt lat="39.6649633" lon="8.9521733"><ele>181.75</ele><time>2026-05-01T09:45:33.552Z</time></trkpt><trkpt lat="39.6649333" lon="8.9520167"><ele>182.0</ele><time>2026-05-01T09:45:34.553Z</time></trkpt><trkpt lat="39.6648883" lon="8.951885"><ele>182.0</ele><time>2026-05-01T09:45:35.549Z</time></trkpt><trkpt lat="39.6648333" lon="8.9517633"><ele>182.0</ele><time>2026-05-01T09:45:36.551Z</time></trkpt><trkpt lat="39.6647833" lon="8.9516317"><ele>182.0</ele><time>2026-05-01T09:45:37.55Z</time></trkpt><trkpt lat="39.664735" lon="8.95149"><ele>182.0</ele><time>2026-05-01T09:45:38.597Z</time></trkpt><trkpt lat="39.6646967" lon="8.951325"><ele>182.33333333333331</ele><time>2026-05-01T09:45:39.548Z</time></trkpt><trkpt lat="39.6646583" lon="8.9511433"><ele>182.66666666666666</ele><time>2026-05-01T09:45:40.55Z</time></trkpt><trkpt lat="39.664625" lon="8.95094"><ele>183.0</ele><time>2026-05-01T09:45:41.549Z</time></trkpt><trkpt lat="39.6645917" lon="8.9507233"><ele>183.0</ele><time>2026-05-01T09:45:42.55Z</time></trkpt><trkpt lat="39.6645567" lon="8.9504983"><ele>183.0</ele><time>2026-05-01T09:45:43.548Z</time></trkpt><trkpt lat="39.6645133" lon="8.9502683"><ele>183.0</ele><time>2026-05-01T09:45:44.595Z</time></trkpt><trkpt lat="39.6644633" lon="8.9500283"><ele>182.0</ele><time>2026-05-01T09:45:45.547Z</time></trkpt><trkpt lat="39.6644133" lon="8.949785"><ele>181.0</ele><time>2026-05-01T09:45:46.551Z</time></trkpt><trkpt lat="39.6643583" lon="8.9495417"><ele>180.0</ele><time>2026-05-01T09:45:47.552Z</time></trkpt><trkpt lat="39.6643033" lon="8.9492983"><ele>180.66666666666666</ele><time>2026-05-01T09:45:48.551Z</time></trkpt><trkpt lat="39.6642533" lon="8.9490567"><ele>181.33333333333331</ele><time>2026-05-01T09:45:49.551Z</time></trkpt><trkpt lat="39.664205" lon="8.9488117"><ele>182.0</ele><time>2026-05-01T09:45:50.595Z</time></trkpt><trkpt lat="39.6641583" lon="8.9485683"><ele>182.33333333333331</ele><time>2026-05-01T09:45:51.549Z</time></trkpt><trkpt lat="39.6641133" lon="8.94833"><ele>182.66666666666666</ele><time>2026-05-01T09:45:52.55Z</time></trkpt><trkpt lat="39.6640683" lon="8.948105"><ele>183.0</ele><time>2026-05-01T09:45:53.548Z</time></trkpt><trkpt lat="39.664025" lon="8.9478917"><ele>183.0</ele><time>2026-05-01T09:45:54.548Z</time></trkpt><trkpt lat="39.6639717" lon="8.9476883"><ele>183.0</ele><time>2026-05-01T09:45:55.55Z</time></trkpt><trkpt lat="39.6639283" lon="8.947485"><ele>183.0</ele><time>2026-05-01T09:45:56.617Z</time></trkpt><trkpt lat="39.6638933" lon="8.947275"><ele>183.0</ele><time>2026-05-01T09:45:57.548Z</time></trkpt><trkpt lat="39.66386" lon="8.947055"><ele>183.0</ele><time>2026-05-01T09:45:58.547Z</time></trkpt><trkpt lat="39.66383" lon="8.946825"><ele>183.0</ele><time>2026-05-01T09:45:59.551Z</time></trkpt><trkpt lat="39.663805" lon="8.94659"><ele>183.0</ele><time>2026-05-01T09:46:00.551Z</time></trkpt><trkpt lat="39.6637883" lon="8.9463533"><ele>183.0</ele><time>2026-05-01T09:46:01.548Z</time></trkpt><trkpt lat="39.66378" lon="8.9461133"><ele>183.0</ele><time>2026-05-01T09:46:02.603Z</time></trkpt><trkpt lat="39.6637883" lon="8.9458683"><ele>181.66666666666666</ele><time>2026-05-01T09:46:03.552Z</time></trkpt><trkpt lat="39.6638117" lon="8.9456233"><ele>180.33333333333331</ele><time>2026-05-01T09:46:04.552Z</time></trkpt><trkpt lat="39.6638383" lon="8.9453817"><ele>179.0</ele><time>2026-05-01T09:46:05.549Z</time></trkpt><trkpt lat="39.66387" lon="8.9451383"><ele>180.0</ele><time>2026-05-01T09:46:06.551Z</time></trkpt><trkpt lat="39.6638967" lon="8.9448967"><ele>181.0</ele><time>2026-05-01T09:46:07.552Z</time></trkpt><trkpt lat="39.6639267" lon="8.9446583"><ele>182.0</ele><time>2026-05-01T09:46:08.601Z</time></trkpt><trkpt lat="39.6639583" lon="8.94442"><ele>183.0</ele><time>2026-05-01T09:46:09.547Z</time></trkpt><trkpt lat="39.66399" lon="8.9441867"><ele>184.0</ele><time>2026-05-01T09:46:10.549Z</time></trkpt><trkpt lat="39.66402" lon="8.9439667"><ele>185.0</ele><time>2026-05-01T09:46:11.55Z</time></trkpt><trkpt lat="39.6640517" lon="8.94376"><ele>185.0</ele><time>2026-05-01T09:46:12.552Z</time></trkpt><trkpt lat="39.6640933" lon="8.9435583"><ele>185.0</ele><time>2026-05-01T09:46:13.55Z</time></trkpt><trkpt lat="39.66412" lon="8.9433667"><ele>185.0</ele><time>2026-05-01T09:46:14.596Z</time></trkpt><trkpt lat="39.6641483" lon="8.94318"><ele>185.75</ele><time>2026-05-01T09:46:15.547Z</time></trkpt><trkpt lat="39.664165" lon="8.9430083"><ele>186.5</ele><time>2026-05-01T09:46:16.549Z</time></trkpt><trkpt lat="39.6641683" lon="8.9428517"><ele>187.25</ele><time>2026-05-01T09:46:17.549Z</time></trkpt><trkpt lat="39.6641533" lon="8.9427117"><ele>188.0</ele><time>2026-05-01T09:46:18.549Z</time></trkpt><trkpt lat="39.6641217" lon="8.942585"><ele>186.16666666666666</ele><time>2026-05-01T09:46:19.551Z</time></trkpt><trkpt lat="39.664085" lon="8.942465"><ele>184.33333333333331</ele><time>2026-05-01T09:46:20.595Z</time></trkpt><trkpt lat="39.6640533" lon="8.942355"><ele>182.5</ele><time>2026-05-01T09:46:21.551Z</time></trkpt><trkpt lat="39.6640367" lon="8.94225"><ele>180.66666666666666</ele><time>2026-05-01T09:46:22.548Z</time></trkpt><trkpt lat="39.6640233" lon="8.9421417"><ele>178.83333333333334</ele><time>2026-05-01T09:46:23.551Z</time></trkpt><trkpt lat="39.664025" lon="8.9420317"><ele>177.0</ele><time>2026-05-01T09:46:24.553Z</time></trkpt><trkpt lat="39.6640367" lon="8.9419217"><ele>177.0</ele><time>2026-05-01T09:46:25.55Z</time></trkpt><trkpt lat="39.6640567" lon="8.9418117"><ele>177.0</ele><time>2026-05-01T09:46:26.615Z</time></trkpt><trkpt lat="39.6641017" lon="8.94166"><ele>177.0</ele><time>2026-05-01T09:46:27.551Z</time></trkpt><trkpt lat="39.664145" lon="8.9414933"><ele>177.0</ele><time>2026-05-01T09:46:28.547Z</time></trkpt><trkpt lat="39.6642067" lon="8.941315"><ele>173.66666666666666</ele><time>2026-05-01T09:46:29.546Z</time></trkpt><trkpt lat="39.6642883" lon="8.9411367"><ele>170.33333333333331</ele><time>2026-05-01T09:46:30.549Z</time></trkpt><trkpt lat="39.6643717" lon="8.9409617"><ele>167.0</ele><time>2026-05-01T09:46:31.553Z</time></trkpt><trkpt lat="39.664475" lon="8.94079"><ele>163.33333333333331</ele><time>2026-05-01T09:46:32.603Z</time></trkpt><trkpt lat="39.6645833" lon="8.9406233"><ele>159.66666666666666</ele><time>2026-05-01T09:46:33.546Z</time></trkpt><trkpt lat="39.6646733" lon="8.9404533"><ele>156.0</ele><time>2026-05-01T09:46:34.549Z</time></trkpt><trkpt lat="39.6647417" lon="8.940275"><ele>156.0</ele><time>2026-05-01T09:46:35.553Z</time></trkpt><trkpt lat="39.6648067" lon="8.9400833"><ele>156.0</ele><time>2026-05-01T09:46:36.547Z</time></trkpt><trkpt lat="39.664865" lon="8.9398817"><ele>156.0</ele><time>2026-05-01T09:46:37.548Z</time></trkpt><trkpt lat="39.6649183" lon="8.9396733"><ele>154.0</ele><time>2026-05-01T09:46:38.6Z</time></trkpt><trkpt lat="39.66497" lon="8.93946"><ele>152.0</ele><time>2026-05-01T09:46:39.551Z</time></trkpt><trkpt lat="39.6650233" lon="8.9392433"><ele>150.0</ele><time>2026-05-01T09:46:40.553Z</time></trkpt><trkpt lat="39.6650783" lon="8.9390217"><ele>148.0</ele><time>2026-05-01T09:46:41.549Z</time></trkpt><trkpt lat="39.6651383" lon="8.9388"><ele>146.0</ele><time>2026-05-01T09:46:42.55Z</time></trkpt><trkpt lat="39.6652" lon="8.9385733"><ele>144.0</ele><time>2026-05-01T09:46:43.55Z</time></trkpt><trkpt lat="39.66526" lon="8.938345"><ele>143.33333333333334</ele><time>2026-05-01T09:46:44.593Z</time></trkpt><trkpt lat="39.66532" lon="8.9381183"><ele>142.66666666666669</ele><time>2026-05-01T09:46:45.547Z</time></trkpt><trkpt lat="39.6653833" lon="8.9378917"><ele>142.0</ele><time>2026-05-01T09:46:46.547Z</time></trkpt><trkpt lat="39.6654433" lon="8.937665"><ele>141.0</ele><time>2026-05-01T09:46:47.548Z</time></trkpt><trkpt lat="39.6655033" lon="8.9374367"><ele>140.0</ele><time>2026-05-01T09:46:48.55Z</time></trkpt><trkpt lat="39.6655617" lon="8.9372133"><ele>139.0</ele><time>2026-05-01T09:46:49.551Z</time></trkpt><trkpt lat="39.6656183" lon="8.9369867"><ele>139.0</ele><time>2026-05-01T09:46:50.596Z</time></trkpt><trkpt lat="39.665675" lon="8.9367617"><ele>139.0</ele><time>2026-05-01T09:46:51.55Z</time></trkpt><trkpt lat="39.6657333" lon="8.936535"><ele>139.0</ele><time>2026-05-01T09:46:52.549Z</time></trkpt><trkpt lat="39.6657867" lon="8.93631"><ele>138.33333333333334</ele><time>2026-05-01T09:46:53.545Z</time></trkpt><trkpt lat="39.66584" lon="8.9360883"><ele>137.66666666666666</ele><time>2026-05-01T09:46:54.548Z</time></trkpt><trkpt lat="39.6658917" lon="8.9358683"><ele>137.0</ele><time>2026-05-01T09:46:55.547Z</time></trkpt><trkpt lat="39.6659417" lon="8.9356467"><ele>136.0</ele><time>2026-05-01T09:46:56.616Z</time></trkpt><trkpt lat="39.66599" lon="8.935425"><ele>135.0</ele><time>2026-05-01T09:46:57.551Z</time></trkpt><trkpt lat="39.6660367" lon="8.9352"><ele>134.0</ele><time>2026-05-01T09:46:58.551Z</time></trkpt><trkpt lat="39.6660833" lon="8.934975"><ele>133.66666666666666</ele><time>2026-05-01T09:46:59.552Z</time></trkpt><trkpt lat="39.666125" lon="8.9347533"><ele>133.33333333333334</ele><time>2026-05-01T09:47:00.55Z</time></trkpt><trkpt lat="39.6661633" lon="8.9345283"><ele>133.0</ele><time>2026-05-01T09:47:01.552Z</time></trkpt><trkpt lat="39.6661967" lon="8.9342983"><ele>132.66666666666669</ele><time>2026-05-01T09:47:02.62Z</time></trkpt><trkpt lat="39.6662267" lon="8.9340683"><ele>132.33333333333334</ele><time>2026-05-01T09:47:03.548Z</time></trkpt><trkpt lat="39.6662533" lon="8.9338383"><ele>132.0</ele><time>2026-05-01T09:47:04.549Z</time></trkpt><trkpt lat="39.6662867" lon="8.9336117"><ele>132.0</ele><time>2026-05-01T09:47:05.551Z</time></trkpt><trkpt lat="39.6663267" lon="8.9333833"><ele>132.0</ele><time>2026-05-01T09:47:06.553Z</time></trkpt><trkpt lat="39.6663683" lon="8.93316"><ele>132.0</ele><time>2026-05-01T09:47:07.551Z</time></trkpt><trkpt lat="39.6664183" lon="8.9329383"><ele>132.0</ele><time>2026-05-01T09:47:08.599Z</time></trkpt><trkpt lat="39.6664767" lon="8.9327183"><ele>132.0</ele><time>2026-05-01T09:47:09.55Z</time></trkpt><trkpt lat="39.6665333" lon="8.9325"><ele>132.0</ele><time>2026-05-01T09:47:10.549Z</time></trkpt><trkpt lat="39.666585" lon="8.9322867"><ele>132.66666666666666</ele><time>2026-05-01T09:47:11.551Z</time></trkpt><trkpt lat="39.6666267" lon="8.9320833"><ele>133.33333333333331</ele><time>2026-05-01T09:47:12.551Z</time></trkpt><trkpt lat="39.6666583" lon="8.931885"><ele>134.0</ele><time>2026-05-01T09:47:13.551Z</time></trkpt><trkpt lat="39.66668" lon="8.9316867"><ele>134.0</ele><time>2026-05-01T09:47:14.597Z</time></trkpt><trkpt lat="39.6666817" lon="8.9315"><ele>134.0</ele><time>2026-05-01T09:47:15.548Z</time></trkpt><trkpt lat="39.6666683" lon="8.9313233"><ele>134.0</ele><time>2026-05-01T09:47:16.549Z</time></trkpt><trkpt lat="39.666655" lon="8.9311517"><ele>134.0</ele><time>2026-05-01T09:47:17.55Z</time></trkpt><trkpt lat="39.6666383" lon="8.9309867"><ele>133.6</ele><time>2026-05-01T09:47:18.547Z</time></trkpt><trkpt lat="39.6666217" lon="8.9308317"><ele>133.2</ele><time>2026-05-01T09:47:19.552Z</time></trkpt><trkpt lat="39.6666167" lon="8.930685"><ele>132.79999999999998</ele><time>2026-05-01T09:47:20.598Z</time></trkpt><trkpt lat="39.66661" lon="8.9305533"><ele>132.4</ele><time>2026-05-01T09:47:21.551Z</time></trkpt><trkpt lat="39.6665933" lon="8.9304267"><ele>132.0</ele><time>2026-05-01T09:47:22.551Z</time></trkpt><trkpt lat="39.666555" lon="8.9303017"><ele>132.0</ele><time>2026-05-01T09:47:23.547Z</time></trkpt><trkpt lat="39.6664933" lon="8.9301733"><ele>132.0</ele><time>2026-05-01T09:47:24.546Z</time></trkpt><trkpt lat="39.66642" lon="8.9300417"><ele>132.0</ele><time>2026-05-01T09:47:25.548Z</time></trkpt><trkpt lat="39.6663367" lon="8.9299067"><ele>132.0</ele><time>2026-05-01T09:47:26.615Z</time></trkpt><trkpt lat="39.66626" lon="8.9297633"><ele>132.0</ele><time>2026-05-01T09:47:27.548Z</time></trkpt><trkpt lat="39.66618" lon="8.9296167"><ele>132.0</ele><time>2026-05-01T09:47:28.55Z</time></trkpt><trkpt lat="39.6661033" lon="8.92947"><ele>132.0</ele><time>2026-05-01T09:47:29.552Z</time></trkpt><trkpt lat="39.6660367" lon="8.92933"><ele>132.0</ele><time>2026-05-01T09:47:30.549Z</time></trkpt><trkpt lat="39.6659767" lon="8.9291933"><ele>132.5</ele><time>2026-05-01T09:47:31.547Z</time></trkpt><trkpt lat="39.66592" lon="8.9290567"><ele>133.0</ele><time>2026-05-01T09:47:32.599Z</time></trkpt><trkpt lat="39.6658767" lon="8.9289117"><ele>133.5</ele><time>2026-05-01T09:47:33.552Z</time></trkpt><trkpt lat="39.6658383" lon="8.9287583"><ele>134.0</ele><time>2026-05-01T09:47:34.545Z</time></trkpt><trkpt lat="39.665805" lon="8.9286017"><ele>134.0</ele><time>2026-05-01T09:47:35.551Z</time></trkpt><trkpt lat="39.6657733" lon="8.9284333"><ele>134.0</ele><time>2026-05-01T09:47:36.548Z</time></trkpt><trkpt lat="39.6657483" lon="8.9282583"><ele>134.0</ele><time>2026-05-01T09:47:37.55Z</time></trkpt><trkpt lat="39.665725" lon="8.9280783"><ele>134.0</ele><time>2026-05-01T09:47:38.602Z</time></trkpt><trkpt lat="39.6656883" lon="8.9278983"><ele>133.66666666666666</ele><time>2026-05-01T09:47:39.551Z</time></trkpt><trkpt lat="39.665645" lon="8.9277117"><ele>133.33333333333334</ele><time>2026-05-01T09:47:40.551Z</time></trkpt><trkpt lat="39.6655867" lon="8.927525"><ele>133.0</ele><time>2026-05-01T09:47:41.547Z</time></trkpt><trkpt lat="39.66552" lon="8.9273367"><ele>132.66666666666669</ele><time>2026-05-01T09:47:42.548Z</time></trkpt><trkpt lat="39.6654433" lon="8.927145"><ele>132.33333333333334</ele><time>2026-05-01T09:47:43.549Z</time></trkpt><trkpt lat="39.6653683" lon="8.9269417"><ele>132.0</ele><time>2026-05-01T09:47:44.601Z</time></trkpt><trkpt lat="39.6652817" lon="8.9267367"><ele>132.0</ele><time>2026-05-01T09:47:45.548Z</time></trkpt><trkpt lat="39.6651967" lon="8.926515"><ele>132.0</ele><time>2026-05-01T09:47:46.546Z</time></trkpt><trkpt lat="39.6651117" lon="8.9263083"><ele>132.0</ele><time>2026-05-01T09:47:47.547Z</time></trkpt><trkpt lat="39.6650117" lon="8.9261117"><ele>132.0</ele><time>2026-05-01T09:47:48.551Z</time></trkpt><trkpt lat="39.66491" lon="8.92592"><ele>132.0</ele><time>2026-05-01T09:47:49.552Z</time></trkpt><trkpt lat="39.6648067" lon="8.9257367"><ele>132.0</ele><time>2026-05-01T09:47:50.604Z</time></trkpt><trkpt lat="39.66472" lon="8.9255433"><ele>132.66666666666666</ele><time>2026-05-01T09:47:51.551Z</time></trkpt><trkpt lat="39.66461" lon="8.9253483"><ele>133.33333333333331</ele><time>2026-05-01T09:47:52.55Z</time></trkpt><trkpt lat="39.6645083" lon="8.9251533"><ele>134.0</ele><time>2026-05-01T09:47:53.547Z</time></trkpt><trkpt lat="39.6644033" lon="8.9249717"><ele>134.33333333333331</ele><time>2026-05-01T09:47:54.548Z</time></trkpt><trkpt lat="39.6643033" lon="8.9248083"><ele>134.66666666666666</ele><time>2026-05-01T09:47:55.551Z</time></trkpt><trkpt lat="39.6642083" lon="8.9246583"><ele>135.0</ele><time>2026-05-01T09:47:56.602Z</time></trkpt><trkpt lat="39.6641033" lon="8.9245133"><ele>135.0</ele><time>2026-05-01T09:47:57.549Z</time></trkpt><trkpt lat="39.663995" lon="8.9243833"><ele>135.0</ele><time>2026-05-01T09:47:58.551Z</time></trkpt><trkpt lat="39.6638933" lon="8.9242433"><ele>135.0</ele><time>2026-05-01T09:47:59.552Z</time></trkpt><trkpt lat="39.6637833" lon="8.9241083"><ele>135.0</ele><time>2026-05-01T09:48:00.551Z</time></trkpt><trkpt lat="39.6636767" lon="8.9239833"><ele>134.75</ele><time>2026-05-01T09:48:01.55Z</time></trkpt><trkpt lat="39.6635617" lon="8.92385"><ele>134.5</ele><time>2026-05-01T09:48:02.605Z</time></trkpt><trkpt lat="39.6634783" lon="8.9237267"><ele>134.25</ele><time>2026-05-01T09:48:03.549Z</time></trkpt><trkpt lat="39.6633883" lon="8.9236183"><ele>134.0</ele><time>2026-05-01T09:48:04.55Z</time></trkpt><trkpt lat="39.6633017" lon="8.9235033"><ele>134.0</ele><time>2026-05-01T09:48:05.552Z</time></trkpt><trkpt lat="39.6632233" lon="8.9233867"><ele>134.0</ele><time>2026-05-01T09:48:06.552Z</time></trkpt><trkpt lat="39.663155" lon="8.9232783"><ele>134.0</ele><time>2026-05-01T09:48:07.546Z</time></trkpt><trkpt lat="39.663085" lon="8.9231683"><ele>134.0</ele><time>2026-05-01T09:48:08.606Z</time></trkpt><trkpt lat="39.6630133" lon="8.9230667"><ele>134.0</ele><time>2026-05-01T09:48:09.551Z</time></trkpt><trkpt lat="39.6629383" lon="8.9229617"><ele>134.0</ele><time>2026-05-01T09:48:10.55Z</time></trkpt><trkpt lat="39.6628667" lon="8.92287"><ele>134.0</ele><time>2026-05-01T09:48:11.551Z</time></trkpt><trkpt lat="39.6628033" lon="8.9227783"><ele>134.0</ele><time>2026-05-01T09:48:12.554Z</time></trkpt><trkpt lat="39.6627467" lon="8.9227"><ele>134.0</ele><time>2026-05-01T09:48:13.551Z</time></trkpt><trkpt lat="39.6626983" lon="8.9226267"><ele>134.0</ele><time>2026-05-01T09:48:14.605Z</time></trkpt><trkpt lat="39.6626517" lon="8.9225567"><ele>134.0</ele><time>2026-05-01T09:48:15.55Z</time></trkpt><trkpt lat="39.662615" lon="8.9224883"><ele>133.8</ele><time>2026-05-01T09:48:16.552Z</time></trkpt><trkpt lat="39.6625933" lon="8.9223667"><ele>133.60000000000002</ele><time>2026-05-01T09:48:18.546Z</time></trkpt><trkpt lat="39.6626583" lon="8.922285"><ele>133.4</ele><time>2026-05-01T09:48:20.605Z</time></trkpt><trkpt lat="39.6627483" lon="8.92225"><ele>133.20000000000002</ele><time>2026-05-01T09:48:22.548Z</time></trkpt><trkpt lat="39.6628483" lon="8.9222633"><ele>133.0</ele><time>2026-05-01T09:48:24.553Z</time></trkpt><trkpt lat="39.6629533" lon="8.9223"><ele>133.0</ele><time>2026-05-01T09:48:25.553Z</time></trkpt><trkpt lat="39.66308" lon="8.9223533"><ele>133.0</ele><time>2026-05-01T09:48:26.604Z</time></trkpt><trkpt lat="39.6632417" lon="8.9224233"><ele>133.0</ele><time>2026-05-01T09:48:27.549Z</time></trkpt><trkpt lat="39.663385" lon="8.9224767"><ele>133.0</ele><time>2026-05-01T09:48:28.554Z</time></trkpt><trkpt lat="39.6635033" lon="8.922515"><ele>133.0</ele><time>2026-05-01T09:48:29.549Z</time></trkpt><trkpt lat="39.6636133" lon="8.922535"><ele>133.0</ele><time>2026-05-01T09:48:30.551Z</time></trkpt><trkpt lat="39.6636967" lon="8.922545"><ele>133.0</ele><time>2026-05-01T09:48:31.555Z</time></trkpt><trkpt lat="39.66377" lon="8.9225483"><ele>133.0</ele><time>2026-05-01T09:48:32.607Z</time></trkpt><trkpt lat="39.66384" lon="8.9225333"><ele>133.0</ele><time>2026-05-01T09:48:33.549Z</time></trkpt><trkpt lat="39.6639" lon="8.9225067"><ele>133.0</ele><time>2026-05-01T09:48:34.55Z</time></trkpt><trkpt lat="39.6639267" lon="8.922365"><ele>133.0</ele><time>2026-05-01T09:48:36.551Z</time></trkpt><trkpt lat="39.6639267" lon="8.9222633"><ele>133.0</ele><time>2026-05-01T09:48:37.55Z</time></trkpt><trkpt lat="39.6639117" lon="8.92215"><ele>133.0</ele><time>2026-05-01T09:48:38.604Z</time></trkpt><trkpt lat="39.6638817" lon="8.921995"><ele>133.0</ele><time>2026-05-01T09:48:39.55Z</time></trkpt><trkpt lat="39.6638683" lon="8.9218433"><ele>133.0</ele><time>2026-05-01T09:48:40.553Z</time></trkpt><trkpt lat="39.6638467" lon="8.9216717"><ele>133.0</ele><time>2026-05-01T09:48:41.552Z</time></trkpt><trkpt lat="39.663815" lon="8.92147"><ele>133.0</ele><time>2026-05-01T09:48:42.548Z</time></trkpt><trkpt lat="39.6637817" lon="8.9212567"><ele>132.33333333333334</ele><time>2026-05-01T09:48:43.551Z</time></trkpt><trkpt lat="39.663745" lon="8.9210333"><ele>131.66666666666666</ele><time>2026-05-01T09:48:44.606Z</time></trkpt><trkpt lat="39.66371" lon="8.92081"><ele>131.0</ele><time>2026-05-01T09:48:45.551Z</time></trkpt><trkpt lat="39.6636383" lon="8.9205667"><ele>132.0</ele><time>2026-05-01T09:48:46.551Z</time></trkpt><trkpt lat="39.6635867" lon="8.920345"><ele>133.0</ele><time>2026-05-01T09:48:47.552Z</time></trkpt><trkpt lat="39.66353" lon="8.9201333"><ele>134.0</ele><time>2026-05-01T09:48:48.551Z</time></trkpt><trkpt lat="39.663485" lon="8.9199333"><ele>134.33333333333331</ele><time>2026-05-01T09:48:49.551Z</time></trkpt><trkpt lat="39.6634433" lon="8.91972"><ele>134.66666666666666</ele><time>2026-05-01T09:48:50.605Z</time></trkpt><trkpt lat="39.6633933" lon="8.9195383"><ele>135.0</ele><time>2026-05-01T09:48:51.551Z</time></trkpt><trkpt lat="39.6633283" lon="8.919365"><ele>134.75</ele><time>2026-05-01T09:48:52.553Z</time></trkpt><trkpt lat="39.6632517" lon="8.9192"><ele>134.5</ele><time>2026-05-01T09:48:53.549Z</time></trkpt><trkpt lat="39.6631617" lon="8.9190567"><ele>134.25</ele><time>2026-05-01T09:48:54.553Z</time></trkpt><trkpt lat="39.6630567" lon="8.918935"><ele>134.0</ele><time>2026-05-01T09:48:55.552Z</time></trkpt><trkpt lat="39.6629167" lon="8.9188467"><ele>134.33333333333331</ele><time>2026-05-01T09:48:56.602Z</time></trkpt><trkpt lat="39.6627667" lon="8.9187783"><ele>134.66666666666666</ele><time>2026-05-01T09:48:57.549Z</time></trkpt><trkpt lat="39.6626033" lon="8.91872"><ele>135.0</ele><time>2026-05-01T09:48:58.553Z</time></trkpt><trkpt lat="39.6624267" lon="8.91867"><ele>135.0</ele><time>2026-05-01T09:48:59.55Z</time></trkpt><trkpt lat="39.662205" lon="8.918655"><ele>135.0</ele><time>2026-05-01T09:49:00.552Z</time></trkpt><trkpt lat="39.66199" lon="8.918635"><ele>135.0</ele><time>2026-05-01T09:49:01.549Z</time></trkpt><trkpt lat="39.6617967" lon="8.9186033"><ele>136.0</ele><time>2026-05-01T09:49:02.605Z</time></trkpt><trkpt lat="39.6616067" lon="8.9185833"><ele>137.0</ele><time>2026-05-01T09:49:03.55Z</time></trkpt><trkpt lat="39.6614267" lon="8.9185417"><ele>138.0</ele><time>2026-05-01T09:49:04.549Z</time></trkpt><trkpt lat="39.6612617" lon="8.9184933"><ele>137.66666666666666</ele><time>2026-05-01T09:49:05.551Z</time></trkpt><trkpt lat="39.6610967" lon="8.9184417"><ele>137.33333333333331</ele><time>2026-05-01T09:49:06.552Z</time></trkpt><trkpt lat="39.660945" lon="8.9183933"><ele>137.0</ele><time>2026-05-01T09:49:07.55Z</time></trkpt><trkpt lat="39.6608033" lon="8.9183517"><ele>136.75</ele><time>2026-05-01T09:49:08.608Z</time></trkpt><trkpt lat="39.66067" lon="8.91831"><ele>136.5</ele><time>2026-05-01T09:49:09.551Z</time></trkpt><trkpt lat="39.6605417" lon="8.9182783"><ele>136.25</ele><time>2026-05-01T09:49:10.551Z</time></trkpt><trkpt lat="39.6604233" lon="8.9182483"><ele>136.0</ele><time>2026-05-01T09:49:11.55Z</time></trkpt><trkpt lat="39.6603317" lon="8.918225"><ele>135.75</ele><time>2026-05-01T09:49:12.55Z</time></trkpt><trkpt lat="39.66023" lon="8.918185"><ele>135.5</ele><time>2026-05-01T09:49:13.55Z</time></trkpt><trkpt lat="39.6601433" lon="8.918115"><ele>135.25</ele><time>2026-05-01T09:49:14.601Z</time></trkpt><trkpt lat="39.66007" lon="8.9180083"><ele>135.0</ele><time>2026-05-01T09:49:15.547Z</time></trkpt><trkpt lat="39.660005" lon="8.9178483"><ele>135.0</ele><time>2026-05-01T09:49:16.549Z</time></trkpt><trkpt lat="39.659955" lon="8.9176717"><ele>135.0</ele><time>2026-05-01T09:49:17.546Z</time></trkpt><trkpt lat="39.65992" lon="8.9174417"><ele>135.0</ele><time>2026-05-01T09:49:18.55Z</time></trkpt><trkpt lat="39.6598883" lon="8.9172133"><ele>135.33333333333334</ele><time>2026-05-01T09:49:19.546Z</time></trkpt><trkpt lat="39.6598367" lon="8.9169883"><ele>135.66666666666669</ele><time>2026-05-01T09:49:20.602Z</time></trkpt><trkpt lat="39.659795" lon="8.9167617"><ele>136.0</ele><time>2026-05-01T09:49:21.549Z</time></trkpt><trkpt lat="39.6597333" lon="8.916535"><ele>136.66666666666669</ele><time>2026-05-01T09:49:22.551Z</time></trkpt><trkpt lat="39.65968" lon="8.9162983"><ele>137.33333333333334</ele><time>2026-05-01T09:49:23.548Z</time></trkpt><trkpt lat="39.65962" lon="8.9160633"><ele>138.0</ele><time>2026-05-01T09:49:24.549Z</time></trkpt><trkpt lat="39.65956" lon="8.9158217"><ele>138.0</ele><time>2026-05-01T09:49:25.545Z</time></trkpt><trkpt lat="39.6594917" lon="8.9155733"><ele>138.0</ele><time>2026-05-01T09:49:26.604Z</time></trkpt><trkpt lat="39.6594233" lon="8.9153167"><ele>138.0</ele><time>2026-05-01T09:49:27.545Z</time></trkpt><trkpt lat="39.6593583" lon="8.9150617"><ele>139.0</ele><time>2026-05-01T09:49:28.545Z</time></trkpt><trkpt lat="39.6592967" lon="8.9148117"><ele>140.0</ele><time>2026-05-01T09:49:29.549Z</time></trkpt><trkpt lat="39.659235" lon="8.9145683"><ele>141.0</ele><time>2026-05-01T09:49:30.549Z</time></trkpt><trkpt lat="39.6591683" lon="8.914325"><ele>141.33333333333334</ele><time>2026-05-01T09:49:31.547Z</time></trkpt><trkpt lat="39.6591033" lon="8.9140733"><ele>141.66666666666669</ele><time>2026-05-01T09:49:32.602Z</time></trkpt><trkpt lat="39.659035" lon="8.913825"><ele>142.0</ele><time>2026-05-01T09:49:33.551Z</time></trkpt><trkpt lat="39.6589667" lon="8.9135783"><ele>142.33333333333334</ele><time>2026-05-01T09:49:34.548Z</time></trkpt><trkpt lat="39.6589017" lon="8.91333"><ele>142.66666666666666</ele><time>2026-05-01T09:49:35.544Z</time></trkpt><trkpt lat="39.6588367" lon="8.9130817"><ele>143.0</ele><time>2026-05-01T09:49:36.549Z</time></trkpt><trkpt lat="39.65877" lon="8.9128333"><ele>143.0</ele><time>2026-05-01T09:49:37.55Z</time></trkpt><trkpt lat="39.6587083" lon="8.9125917"><ele>143.0</ele><time>2026-05-01T09:49:38.603Z</time></trkpt><trkpt lat="39.6586433" lon="8.9123517"><ele>143.0</ele><time>2026-05-01T09:49:39.546Z</time></trkpt><trkpt lat="39.6585783" lon="8.9121067"><ele>143.33333333333331</ele><time>2026-05-01T09:49:40.547Z</time></trkpt><trkpt lat="39.6585117" lon="8.9118583"><ele>143.66666666666666</ele><time>2026-05-01T09:49:41.55Z</time></trkpt><trkpt lat="39.6584483" lon="8.91161"><ele>144.0</ele><time>2026-05-01T09:49:42.549Z</time></trkpt><trkpt lat="39.6583833" lon="8.911355"><ele>144.66666666666666</ele><time>2026-05-01T09:49:43.55Z</time></trkpt><trkpt lat="39.6583167" lon="8.911095"><ele>145.33333333333331</ele><time>2026-05-01T09:49:44.603Z</time></trkpt><trkpt lat="39.65825" lon="8.9108517"><ele>146.0</ele><time>2026-05-01T09:49:45.548Z</time></trkpt><trkpt lat="39.658185" lon="8.910615"><ele>146.33333333333331</ele><time>2026-05-01T09:49:46.551Z</time></trkpt><trkpt lat="39.6581183" lon="8.9103567"><ele>146.66666666666666</ele><time>2026-05-01T09:49:47.546Z</time></trkpt><trkpt lat="39.6580567" lon="8.9101117"><ele>147.0</ele><time>2026-05-01T09:49:48.549Z</time></trkpt><trkpt lat="39.6579967" lon="8.9098683"><ele>147.33333333333334</ele><time>2026-05-01T09:49:49.548Z</time></trkpt><trkpt lat="39.6579367" lon="8.9096217"><ele>147.66666666666669</ele><time>2026-05-01T09:49:50.604Z</time></trkpt><trkpt lat="39.6578633" lon="8.90937"><ele>148.0</ele><time>2026-05-01T09:49:51.547Z</time></trkpt><trkpt lat="39.6577883" lon="8.909125"><ele>149.0</ele><time>2026-05-01T09:49:52.55Z</time></trkpt><trkpt lat="39.6577267" lon="8.9088867"><ele>150.0</ele><time>2026-05-01T09:49:53.547Z</time></trkpt><trkpt lat="39.6576567" lon="8.9086517"><ele>151.0</ele><time>2026-05-01T09:49:54.551Z</time></trkpt><trkpt lat="39.6575867" lon="8.908405"><ele>151.0</ele><time>2026-05-01T09:49:55.544Z</time></trkpt><trkpt lat="39.6575167" lon="8.90816"><ele>151.0</ele><time>2026-05-01T09:49:56.612Z</time></trkpt><trkpt lat="39.6574533" lon="8.9079167"><ele>151.0</ele><time>2026-05-01T09:49:57.548Z</time></trkpt><trkpt lat="39.6573883" lon="8.9076667"><ele>151.33333333333334</ele><time>2026-05-01T09:49:58.547Z</time></trkpt><trkpt lat="39.6573267" lon="8.9074183"><ele>151.66666666666666</ele><time>2026-05-01T09:49:59.545Z</time></trkpt><trkpt lat="39.657265" lon="8.907175"><ele>152.0</ele><time>2026-05-01T09:50:00.547Z</time></trkpt><trkpt lat="39.6572083" lon="8.9069383"><ele>152.66666666666666</ele><time>2026-05-01T09:50:01.547Z</time></trkpt><trkpt lat="39.6571617" lon="8.9067267"><ele>153.33333333333334</ele><time>2026-05-01T09:50:02.605Z</time></trkpt><trkpt lat="39.6571233" lon="8.9065283"><ele>154.0</ele><time>2026-05-01T09:50:03.547Z</time></trkpt><trkpt lat="39.6570767" lon="8.9063233"><ele>154.0</ele><time>2026-05-01T09:50:04.551Z</time></trkpt><trkpt lat="39.6570433" lon="8.9061433"><ele>154.0</ele><time>2026-05-01T09:50:05.549Z</time></trkpt><trkpt lat="39.6570133" lon="8.9059717"><ele>154.0</ele><time>2026-05-01T09:50:06.552Z</time></trkpt><trkpt lat="39.656975" lon="8.9057883"><ele>154.0</ele><time>2026-05-01T09:50:07.55Z</time></trkpt><trkpt lat="39.6569533" lon="8.9056417"><ele>154.8</ele><time>2026-05-01T09:50:08.601Z</time></trkpt><trkpt lat="39.6569033" lon="8.9054817"><ele>155.60000000000002</ele><time>2026-05-01T09:50:09.55Z</time></trkpt><trkpt lat="39.6568917" lon="8.9053817"><ele>156.4</ele><time>2026-05-01T09:50:10.558Z</time></trkpt><trkpt lat="39.6568383" lon="8.90526"><ele>157.20000000000002</ele><time>2026-05-01T09:50:12.552Z</time></trkpt><trkpt lat="39.6567783" lon="8.9052117"><ele>158.0</ele><time>2026-05-01T09:50:14.6Z</time></trkpt><trkpt lat="39.6567183" lon="8.90515"><ele>158.25</ele><time>2026-05-01T09:50:16.548Z</time></trkpt><trkpt lat="39.65664" lon="8.9050033"><ele>158.5</ele><time>2026-05-01T09:50:18.554Z</time></trkpt><trkpt lat="39.6565917" lon="8.9049083"><ele>158.75</ele><time>2026-05-01T09:50:19.553Z</time></trkpt><trkpt lat="39.656525" lon="8.90481"><ele>159.0</ele><time>2026-05-01T09:50:20.606Z</time></trkpt><trkpt lat="39.6564233" lon="8.904675"><ele>159.0</ele><time>2026-05-01T09:50:21.55Z</time></trkpt><trkpt lat="39.6563433" lon="8.9045183"><ele>159.0</ele><time>2026-05-01T09:50:22.552Z</time></trkpt><trkpt lat="39.6562833" lon="8.904325"><ele>159.0</ele><time>2026-05-01T09:50:23.548Z</time></trkpt><trkpt lat="39.6561967" lon="8.9041417"><ele>158.66666666666666</ele><time>2026-05-01T09:50:24.547Z</time></trkpt><trkpt lat="39.6561" lon="8.9039667"><ele>158.33333333333331</ele><time>2026-05-01T09:50:25.545Z</time></trkpt><trkpt lat="39.656015" lon="8.90378"><ele>158.0</ele><time>2026-05-01T09:50:26.603Z</time></trkpt><trkpt lat="39.65593" lon="8.9035983"><ele>159.0</ele><time>2026-05-01T09:50:27.55Z</time></trkpt><trkpt lat="39.6558617" lon="8.9034017"><ele>160.0</ele><time>2026-05-01T09:50:28.548Z</time></trkpt><trkpt lat="39.65581" lon="8.9032033"><ele>161.0</ele><time>2026-05-01T09:50:29.549Z</time></trkpt><trkpt lat="39.6557683" lon="8.9029933"><ele>161.0</ele><time>2026-05-01T09:50:30.549Z</time></trkpt><trkpt lat="39.6557383" lon="8.90278"><ele>161.0</ele><time>2026-05-01T09:50:31.551Z</time></trkpt><trkpt lat="39.6557" lon="8.9025733"><ele>161.0</ele><time>2026-05-01T09:50:32.603Z</time></trkpt><trkpt lat="39.6556533" lon="8.9023733"><ele>162.66666666666666</ele><time>2026-05-01T09:50:33.548Z</time></trkpt><trkpt lat="39.6555917" lon="8.9021767"><ele>164.33333333333334</ele><time>2026-05-01T09:50:34.547Z</time></trkpt><trkpt lat="39.6555167" lon="8.9019883"><ele>166.0</ele><time>2026-05-01T09:50:35.547Z</time></trkpt><trkpt lat="39.6554267" lon="8.9018167"><ele>165.5</ele><time>2026-05-01T09:50:36.547Z</time></trkpt><trkpt lat="39.6553233" lon="8.9016617"><ele>165.0</ele><time>2026-05-01T09:50:37.55Z</time></trkpt><trkpt lat="39.6552233" lon="8.9015167"><ele>164.5</ele><time>2026-05-01T09:50:38.604Z</time></trkpt><trkpt lat="39.6551267" lon="8.9013833"><ele>164.0</ele><time>2026-05-01T09:50:39.548Z</time></trkpt><trkpt lat="39.6550417" lon="8.9012583"><ele>164.0</ele><time>2026-05-01T09:50:40.549Z</time></trkpt><trkpt lat="39.6549633" lon="8.90114"><ele>164.0</ele><time>2026-05-01T09:50:41.553Z</time></trkpt><trkpt lat="39.6549" lon="8.9010233"><ele>164.0</ele><time>2026-05-01T09:50:42.55Z</time></trkpt><trkpt lat="39.6548533" lon="8.9009067"><ele>164.0</ele><time>2026-05-01T09:50:43.552Z</time></trkpt><trkpt lat="39.6548233" lon="8.9007933"><ele>164.0</ele><time>2026-05-01T09:50:44.602Z</time></trkpt><trkpt lat="39.6548117" lon="8.9006817"><ele>165.0</ele><time>2026-05-01T09:50:45.55Z</time></trkpt><trkpt lat="39.6548067" lon="8.9005817"><ele>166.0</ele><time>2026-05-01T09:50:46.549Z</time></trkpt><trkpt lat="39.654835" lon="8.9005017"><ele>167.0</ele><time>2026-05-01T09:50:47.548Z</time></trkpt><trkpt lat="39.654855" lon="8.9003633"><ele>168.0</ele><time>2026-05-01T09:50:49.546Z</time></trkpt><trkpt lat="39.6548367" lon="8.90028"><ele>169.0</ele><time>2026-05-01T09:50:50.603Z</time></trkpt><trkpt lat="39.6548167" lon="8.9001817"><ele>170.0</ele><time>2026-05-01T09:50:51.546Z</time></trkpt><trkpt lat="39.654785" lon="8.900065"><ele>171.25</ele><time>2026-05-01T09:50:52.547Z</time></trkpt><trkpt lat="39.6547417" lon="8.8999383"><ele>172.5</ele><time>2026-05-01T09:50:53.548Z</time></trkpt><trkpt lat="39.6546917" lon="8.8998017"><ele>173.75</ele><time>2026-05-01T09:50:54.552Z</time></trkpt><trkpt lat="39.6546417" lon="8.8996267"><ele>175.0</ele><time>2026-05-01T09:50:55.546Z</time></trkpt><trkpt lat="39.6545833" lon="8.899445"><ele>175.0</ele><time>2026-05-01T09:50:56.602Z</time></trkpt><trkpt lat="39.6545133" lon="8.8992717"><ele>175.0</ele><time>2026-05-01T09:50:57.548Z</time></trkpt><trkpt lat="39.6544267" lon="8.899105"><ele>175.0</ele><time>2026-05-01T09:50:58.548Z</time></trkpt><trkpt lat="39.654325" lon="8.8989467"><ele>175.0</ele><time>2026-05-01T09:50:59.546Z</time></trkpt><trkpt lat="39.6542183" lon="8.8988033"><ele>175.0</ele><time>2026-05-01T09:51:00.55Z</time></trkpt><trkpt lat="39.65411" lon="8.89867"><ele>175.0</ele><time>2026-05-01T09:51:01.547Z</time></trkpt><trkpt lat="39.653995" lon="8.898545"><ele>175.0</ele><time>2026-05-01T09:51:02.606Z</time></trkpt><trkpt lat="39.653875" lon="8.898445"><ele>175.0</ele><time>2026-05-01T09:51:03.547Z</time></trkpt><trkpt lat="39.6537667" lon="8.8983383"><ele>175.0</ele><time>2026-05-01T09:51:04.549Z</time></trkpt><trkpt lat="39.6536617" lon="8.8982467"><ele>175.0</ele><time>2026-05-01T09:51:05.55Z</time></trkpt><trkpt lat="39.6535683" lon="8.898165"><ele>175.0</ele><time>2026-05-01T09:51:06.544Z</time></trkpt><trkpt lat="39.6534867" lon="8.89809"><ele>175.0</ele><time>2026-05-01T09:51:07.546Z</time></trkpt><trkpt lat="39.6534117" lon="8.898025"><ele>175.0</ele><time>2026-05-01T09:51:08.601Z</time></trkpt><trkpt lat="39.6533367" lon="8.8979817"><ele>175.0</ele><time>2026-05-01T09:51:09.551Z</time></trkpt><trkpt lat="39.6532667" lon="8.897935"><ele>175.0</ele><time>2026-05-01T09:51:10.547Z</time></trkpt><trkpt lat="39.6532" lon="8.89787"><ele>175.0</ele><time>2026-05-01T09:51:11.552Z</time></trkpt><trkpt lat="39.6531317" lon="8.89782"><ele>175.0</ele><time>2026-05-01T09:51:12.551Z</time></trkpt><trkpt lat="39.6530717" lon="8.8977633"><ele>175.0</ele><time>2026-05-01T09:51:13.549Z</time></trkpt><trkpt lat="39.6530117" lon="8.8977117"><ele>175.0</ele><time>2026-05-01T09:51:14.6Z</time></trkpt><trkpt lat="39.6529467" lon="8.897655"><ele>175.0</ele><time>2026-05-01T09:51:15.551Z</time></trkpt><trkpt lat="39.65288" lon="8.8975983"><ele>175.0</ele><time>2026-05-01T09:51:16.547Z</time></trkpt><trkpt lat="39.6528117" lon="8.8975467"><ele>175.0</ele><time>2026-05-01T09:51:17.551Z</time></trkpt><trkpt lat="39.6527417" lon="8.897495"><ele>175.33333333333334</ele><time>2026-05-01T09:51:18.548Z</time></trkpt><trkpt lat="39.65267" lon="8.8974483"><ele>175.66666666666669</ele><time>2026-05-01T09:51:19.55Z</time></trkpt><trkpt lat="39.6525967" lon="8.8974"><ele>176.0</ele><time>2026-05-01T09:51:20.605Z</time></trkpt><trkpt lat="39.65252" lon="8.89736"><ele>176.33333333333334</ele><time>2026-05-01T09:51:21.551Z</time></trkpt><trkpt lat="39.6524483" lon="8.89732"><ele>176.66666666666666</ele><time>2026-05-01T09:51:22.551Z</time></trkpt><trkpt lat="39.6523717" lon="8.8972833"><ele>177.0</ele><time>2026-05-01T09:51:23.548Z</time></trkpt><trkpt lat="39.6522917" lon="8.8972483"><ele>177.0</ele><time>2026-05-01T09:51:24.55Z</time></trkpt><trkpt lat="39.652215" lon="8.89721"><ele>177.0</ele><time>2026-05-01T09:51:25.549Z</time></trkpt><trkpt lat="39.6521367" lon="8.8971667"><ele>177.0</ele><time>2026-05-01T09:51:26.6Z</time></trkpt><trkpt lat="39.6520633" lon="8.897115"><ele>177.0</ele><time>2026-05-01T09:51:27.551Z</time></trkpt><trkpt lat="39.6519883" lon="8.8970483"><ele>177.0</ele><time>2026-05-01T09:51:28.549Z</time></trkpt><trkpt lat="39.6519183" lon="8.8969667"><ele>177.0</ele><time>2026-05-01T09:51:29.549Z</time></trkpt><trkpt lat="39.6518517" lon="8.89685"><ele>176.75</ele><time>2026-05-01T09:51:30.55Z</time></trkpt><trkpt lat="39.651795" lon="8.8967233"><ele>176.5</ele><time>2026-05-01T09:51:31.547Z</time></trkpt><trkpt lat="39.6517333" lon="8.8965817"><ele>176.25</ele><time>2026-05-01T09:51:32.602Z</time></trkpt><trkpt lat="39.651665" lon="8.8964317"><ele>176.0</ele><time>2026-05-01T09:51:33.545Z</time></trkpt><trkpt lat="39.6515833" lon="8.8962717"><ele>176.0</ele><time>2026-05-01T09:51:34.548Z</time></trkpt><trkpt lat="39.6514867" lon="8.8961033"><ele>176.0</ele><time>2026-05-01T09:51:35.549Z</time></trkpt><trkpt lat="39.6513817" lon="8.8959367"><ele>176.0</ele><time>2026-05-01T09:51:36.551Z</time></trkpt><trkpt lat="39.651265" lon="8.8957383"><ele>176.33333333333331</ele><time>2026-05-01T09:51:37.549Z</time></trkpt><trkpt lat="39.651145" lon="8.8955683"><ele>176.66666666666666</ele><time>2026-05-01T09:51:38.601Z</time></trkpt><trkpt lat="39.65102" lon="8.895425"><ele>177.0</ele><time>2026-05-01T09:51:39.547Z</time></trkpt><trkpt lat="39.65089" lon="8.8953067"><ele>177.0</ele><time>2026-05-01T09:51:40.55Z</time></trkpt><trkpt lat="39.65074" lon="8.8951983"><ele>177.0</ele><time>2026-05-01T09:51:41.547Z</time></trkpt><trkpt lat="39.6505983" lon="8.8951033"><ele>177.0</ele><time>2026-05-01T09:51:42.548Z</time></trkpt><trkpt lat="39.6504433" lon="8.8950017"><ele>177.33333333333334</ele><time>2026-05-01T09:51:43.551Z</time></trkpt><trkpt lat="39.6502883" lon="8.8949083"><ele>177.66666666666669</ele><time>2026-05-01T09:51:44.604Z</time></trkpt><trkpt lat="39.6501283" lon="8.894805"><ele>178.0</ele><time>2026-05-01T09:51:45.548Z</time></trkpt><trkpt lat="39.649975" lon="8.8947067"><ele>178.0</ele><time>2026-05-01T09:51:46.548Z</time></trkpt><trkpt lat="39.649835" lon="8.89461"><ele>178.0</ele><time>2026-05-01T09:51:47.549Z</time></trkpt><trkpt lat="39.649705" lon="8.894515"><ele>178.0</ele><time>2026-05-01T09:51:48.55Z</time></trkpt><trkpt lat="39.6495817" lon="8.894425"><ele>178.0</ele><time>2026-05-01T09:51:49.545Z</time></trkpt><trkpt lat="39.6494717" lon="8.894345"><ele>178.0</ele><time>2026-05-01T09:51:50.601Z</time></trkpt><trkpt lat="39.6493717" lon="8.8942767"><ele>178.0</ele><time>2026-05-01T09:51:51.552Z</time></trkpt><trkpt lat="39.64928" lon="8.89421"><ele>178.0</ele><time>2026-05-01T09:51:52.549Z</time></trkpt><trkpt lat="39.64919" lon="8.894125"><ele>178.0</ele><time>2026-05-01T09:51:53.548Z</time></trkpt><trkpt lat="39.6490917" lon="8.8940083"><ele>178.75</ele><time>2026-05-01T09:51:54.548Z</time></trkpt><trkpt lat="39.64901" lon="8.8938717"><ele>179.5</ele><time>2026-05-01T09:51:55.549Z</time></trkpt><trkpt lat="39.6489433" lon="8.8937217"><ele>180.25</ele><time>2026-05-01T09:51:56.603Z</time></trkpt><trkpt lat="39.648865" lon="8.8935667"><ele>181.0</ele><time>2026-05-01T09:51:57.551Z</time></trkpt><trkpt lat="39.6488" lon="8.8933933"><ele>182.33333333333334</ele><time>2026-05-01T09:51:58.55Z</time></trkpt><trkpt lat="39.6487383" lon="8.89321"><ele>183.66666666666666</ele><time>2026-05-01T09:51:59.545Z</time></trkpt><trkpt lat="39.648695" lon="8.8930067"><ele>185.0</ele><time>2026-05-01T09:52:00.547Z</time></trkpt><trkpt lat="39.6486533" lon="8.8927983"><ele>184.66666666666666</ele><time>2026-05-01T09:52:01.55Z</time></trkpt><trkpt lat="39.6486217" lon="8.8925883"><ele>184.33333333333334</ele><time>2026-05-01T09:52:02.601Z</time></trkpt><trkpt lat="39.6486083" lon="8.8923633"><ele>184.0</ele><time>2026-05-01T09:52:03.552Z</time></trkpt><trkpt lat="39.6485683" lon="8.8921667"><ele>184.0</ele><time>2026-05-01T09:52:04.549Z</time></trkpt><trkpt lat="39.6485417" lon="8.8918983"><ele>184.0</ele><time>2026-05-01T09:52:05.548Z</time></trkpt><trkpt lat="39.6485167" lon="8.8916717"><ele>184.0</ele><time>2026-05-01T09:52:06.549Z</time></trkpt><trkpt lat="39.648515" lon="8.89142"><ele>185.0</ele><time>2026-05-01T09:52:07.547Z</time></trkpt><trkpt lat="39.6485283" lon="8.8911867"><ele>186.0</ele><time>2026-05-01T09:52:08.603Z</time></trkpt><trkpt lat="39.64857" lon="8.89095"><ele>187.0</ele><time>2026-05-01T09:52:09.55Z</time></trkpt><trkpt lat="39.6486167" lon="8.8907067"><ele>189.0</ele><time>2026-05-01T09:52:10.547Z</time></trkpt><trkpt lat="39.6486783" lon="8.8904667"><ele>191.0</ele><time>2026-05-01T09:52:11.546Z</time></trkpt><trkpt lat="39.6487217" lon="8.89023"><ele>193.0</ele><time>2026-05-01T09:52:12.55Z</time></trkpt><trkpt lat="39.6487583" lon="8.889995"><ele>193.0</ele><time>2026-05-01T09:52:13.551Z</time></trkpt><trkpt lat="39.6488" lon="8.8897533"><ele>193.0</ele><time>2026-05-01T09:52:14.599Z</time></trkpt><trkpt lat="39.6488417" lon="8.8895283"><ele>193.0</ele><time>2026-05-01T09:52:15.547Z</time></trkpt><trkpt lat="39.64889" lon="8.8893033"><ele>193.33333333333331</ele><time>2026-05-01T09:52:16.546Z</time></trkpt><trkpt lat="39.6489517" lon="8.889075"><ele>193.66666666666669</ele><time>2026-05-01T09:52:17.548Z</time></trkpt><trkpt lat="39.6490133" lon="8.88884"><ele>194.0</ele><time>2026-05-01T09:52:18.55Z</time></trkpt><trkpt lat="39.6490833" lon="8.88861"><ele>195.0</ele><time>2026-05-01T09:52:19.547Z</time></trkpt><trkpt lat="39.6491617" lon="8.8883783"><ele>196.0</ele><time>2026-05-01T09:52:20.603Z</time></trkpt><trkpt lat="39.6492567" lon="8.8881533"><ele>197.0</ele><time>2026-05-01T09:52:21.546Z</time></trkpt><trkpt lat="39.64934" lon="8.887905"><ele>197.0</ele><time>2026-05-01T09:52:22.55Z</time></trkpt><trkpt lat="39.6494033" lon="8.8876817"><ele>197.0</ele><time>2026-05-01T09:52:23.551Z</time></trkpt><trkpt lat="39.6494683" lon="8.8874433"><ele>197.0</ele><time>2026-05-01T09:52:24.55Z</time></trkpt><trkpt lat="39.6495317" lon="8.887205"><ele>198.33333333333334</ele><time>2026-05-01T09:52:25.548Z</time></trkpt><trkpt lat="39.6496" lon="8.8869767"><ele>199.66666666666669</ele><time>2026-05-01T09:52:26.615Z</time></trkpt><trkpt lat="39.64967" lon="8.886745"><ele>201.0</ele><time>2026-05-01T09:52:27.546Z</time></trkpt><trkpt lat="39.64974" lon="8.8865067"><ele>201.33333333333331</ele><time>2026-05-01T09:52:28.545Z</time></trkpt><trkpt lat="39.6498033" lon="8.8862733"><ele>201.66666666666666</ele><time>2026-05-01T09:52:29.55Z</time></trkpt><trkpt lat="39.6498667" lon="8.886035"><ele>202.0</ele><time>2026-05-01T09:52:30.551Z</time></trkpt><trkpt lat="39.649925" lon="8.88579"><ele>203.66666666666666</ele><time>2026-05-01T09:52:31.55Z</time></trkpt><trkpt lat="39.6499817" lon="8.8855367"><ele>205.33333333333331</ele><time>2026-05-01T09:52:32.602Z</time></trkpt><trkpt lat="39.6500267" lon="8.885305"><ele>207.0</ele><time>2026-05-01T09:52:33.551Z</time></trkpt><trkpt lat="39.6500767" lon="8.885065"><ele>209.0</ele><time>2026-05-01T09:52:34.55Z</time></trkpt><trkpt lat="39.6501267" lon="8.8848217"><ele>211.0</ele><time>2026-05-01T09:52:35.551Z</time></trkpt><trkpt lat="39.6501767" lon="8.8845667"><ele>213.0</ele><time>2026-05-01T09:52:36.55Z</time></trkpt><trkpt lat="39.6502283" lon="8.8843267"><ele>215.33333333333331</ele><time>2026-05-01T09:52:37.55Z</time></trkpt><trkpt lat="39.6502833" lon="8.8840917"><ele>217.66666666666666</ele><time>2026-05-01T09:52:38.605Z</time></trkpt><trkpt lat="39.6503267" lon="8.8838433"><ele>220.0</ele><time>2026-05-01T09:52:39.551Z</time></trkpt><trkpt lat="39.6503667" lon="8.8836"><ele>222.33333333333331</ele><time>2026-05-01T09:52:40.548Z</time></trkpt><trkpt lat="39.6504033" lon="8.883355"><ele>224.66666666666669</ele><time>2026-05-01T09:52:41.55Z</time></trkpt><trkpt lat="39.6504317" lon="8.8831183"><ele>227.0</ele><time>2026-05-01T09:52:42.551Z</time></trkpt><trkpt lat="39.6504467" lon="8.8828817"><ele>227.0</ele><time>2026-05-01T09:52:43.552Z</time></trkpt><trkpt lat="39.650455" lon="8.8826367"><ele>227.0</ele><time>2026-05-01T09:52:44.604Z</time></trkpt><trkpt lat="39.6504683" lon="8.8823883"><ele>227.0</ele><time>2026-05-01T09:52:45.548Z</time></trkpt><trkpt lat="39.6504933" lon="8.8821417"><ele>227.33333333333334</ele><time>2026-05-01T09:52:46.55Z</time></trkpt><trkpt lat="39.6505267" lon="8.8818867"><ele>227.66666666666669</ele><time>2026-05-01T09:52:47.55Z</time></trkpt><trkpt lat="39.65054" lon="8.881625"><ele>228.0</ele><time>2026-05-01T09:52:48.546Z</time></trkpt><trkpt lat="39.65054" lon="8.8813567"><ele>228.33333333333331</ele><time>2026-05-01T09:52:49.549Z</time></trkpt><trkpt lat="39.6505567" lon="8.8810933"><ele>228.66666666666666</ele><time>2026-05-01T09:52:50.599Z</time></trkpt><trkpt lat="39.6505733" lon="8.8808167"><ele>229.0</ele><time>2026-05-01T09:52:51.546Z</time></trkpt><trkpt lat="39.6505867" lon="8.8805383"><ele>229.0</ele><time>2026-05-01T09:52:52.55Z</time></trkpt><trkpt lat="39.6506033" lon="8.8802683"><ele>229.0</ele><time>2026-05-01T09:52:53.548Z</time></trkpt><trkpt lat="39.650625" lon="8.8800017"><ele>229.0</ele><time>2026-05-01T09:52:54.551Z</time></trkpt><trkpt lat="39.650635" lon="8.87972"><ele>228.66666666666666</ele><time>2026-05-01T09:52:55.545Z</time></trkpt><trkpt lat="39.650655" lon="8.8794467"><ele>228.33333333333331</ele><time>2026-05-01T09:52:56.613Z</time></trkpt><trkpt lat="39.6506767" lon="8.879185"><ele>228.0</ele><time>2026-05-01T09:52:57.55Z</time></trkpt><trkpt lat="39.6506933" lon="8.87893"><ele>227.66666666666669</ele><time>2026-05-01T09:52:58.55Z</time></trkpt><trkpt lat="39.6507133" lon="8.8786983"><ele>227.33333333333334</ele><time>2026-05-01T09:52:59.55Z</time></trkpt><trkpt lat="39.650725" lon="8.878475"><ele>227.0</ele><time>2026-05-01T09:53:00.55Z</time></trkpt><trkpt lat="39.6507333" lon="8.8782683"><ele>227.0</ele><time>2026-05-01T09:53:01.548Z</time></trkpt><trkpt lat="39.6507417" lon="8.8780567"><ele>227.0</ele><time>2026-05-01T09:53:02.603Z</time></trkpt><trkpt lat="39.6507433" lon="8.8778467"><ele>227.0</ele><time>2026-05-01T09:53:03.55Z</time></trkpt><trkpt lat="39.65071" lon="8.8776283"><ele>226.66666666666669</ele><time>2026-05-01T09:53:04.55Z</time></trkpt><trkpt lat="39.6506417" lon="8.8774183"><ele>226.33333333333331</ele><time>2026-05-01T09:53:05.549Z</time></trkpt><trkpt lat="39.6505683" lon="8.8772"><ele>226.0</ele><time>2026-05-01T09:53:06.548Z</time></trkpt><trkpt lat="39.65051" lon="8.877"><ele>226.0</ele><time>2026-05-01T09:53:07.547Z</time></trkpt><trkpt lat="39.650455" lon="8.8768033"><ele>226.0</ele><time>2026-05-01T09:53:08.601Z</time></trkpt><trkpt lat="39.6504167" lon="8.8765933"><ele>226.0</ele><time>2026-05-01T09:53:09.55Z</time></trkpt><trkpt lat="39.6503833" lon="8.876395"><ele>225.66666666666666</ele><time>2026-05-01T09:53:10.551Z</time></trkpt><trkpt lat="39.6503617" lon="8.876195"><ele>225.33333333333331</ele><time>2026-05-01T09:53:11.551Z</time></trkpt><trkpt lat="39.650345" lon="8.8759917"><ele>225.0</ele><time>2026-05-01T09:53:12.548Z</time></trkpt><trkpt lat="39.6503433" lon="8.875795"><ele>224.75</ele><time>2026-05-01T09:53:13.546Z</time></trkpt><trkpt lat="39.6503433" lon="8.875615"><ele>224.5</ele><time>2026-05-01T09:53:14.599Z</time></trkpt><trkpt lat="39.6503517" lon="8.8754333"><ele>224.25</ele><time>2026-05-01T09:53:15.546Z</time></trkpt><trkpt lat="39.650365" lon="8.8752617"><ele>224.0</ele><time>2026-05-01T09:53:16.55Z</time></trkpt><trkpt lat="39.6503883" lon="8.8750967"><ele>223.5</ele><time>2026-05-01T09:53:17.552Z</time></trkpt><trkpt lat="39.6504283" lon="8.874945"><ele>223.0</ele><time>2026-05-01T09:53:18.549Z</time></trkpt><trkpt lat="39.6504767" lon="8.8747933"><ele>222.5</ele><time>2026-05-01T09:53:19.55Z</time></trkpt><trkpt lat="39.6505483" lon="8.874605"><ele>222.0</ele><time>2026-05-01T09:53:20.599Z</time></trkpt><trkpt lat="39.6506367" lon="8.874405"><ele>221.75</ele><time>2026-05-01T09:53:21.545Z</time></trkpt><trkpt lat="39.6507167" lon="8.8742183"><ele>221.5</ele><time>2026-05-01T09:53:22.547Z</time></trkpt><trkpt lat="39.6507683" lon="8.8740533"><ele>221.25</ele><time>2026-05-01T09:53:23.547Z</time></trkpt><trkpt lat="39.6508167" lon="8.8739067"><ele>221.0</ele><time>2026-05-01T09:53:24.549Z</time></trkpt><trkpt lat="39.65088" lon="8.8737533"><ele>221.0</ele><time>2026-05-01T09:53:25.546Z</time></trkpt><trkpt lat="39.650925" lon="8.8735967"><ele>221.0</ele><time>2026-05-01T09:53:26.576Z</time></trkpt><trkpt lat="39.650995" lon="8.8734417"><ele>221.0</ele><time>2026-05-01T09:53:27.546Z</time></trkpt><trkpt lat="39.6510517" lon="8.8732883"><ele>221.0</ele><time>2026-05-01T09:53:28.546Z</time></trkpt><trkpt lat="39.6511267" lon="8.8731217"><ele>221.33333333333334</ele><time>2026-05-01T09:53:29.552Z</time></trkpt><trkpt lat="39.6512083" lon="8.8729583"><ele>221.66666666666669</ele><time>2026-05-01T09:53:30.55Z</time></trkpt><trkpt lat="39.651305" lon="8.87278"><ele>222.0</ele><time>2026-05-01T09:53:31.544Z</time></trkpt><trkpt lat="39.6513683" lon="8.8726083"><ele>221.33333333333331</ele><time>2026-05-01T09:53:32.603Z</time></trkpt><trkpt lat="39.6514517" lon="8.8724267"><ele>220.66666666666666</ele><time>2026-05-01T09:53:33.546Z</time></trkpt><trkpt lat="39.6515567" lon="8.8722267"><ele>220.0</ele><time>2026-05-01T09:53:34.549Z</time></trkpt><trkpt lat="39.651655" lon="8.8720233"><ele>220.0</ele><time>2026-05-01T09:53:35.546Z</time></trkpt><trkpt lat="39.6517667" lon="8.8718333"><ele>220.0</ele><time>2026-05-01T09:53:36.55Z</time></trkpt><trkpt lat="39.6518767" lon="8.87166"><ele>220.0</ele><time>2026-05-01T09:53:37.545Z</time></trkpt><trkpt lat="39.6519867" lon="8.8715067"><ele>220.33333333333331</ele><time>2026-05-01T09:53:38.603Z</time></trkpt><trkpt lat="39.6521067" lon="8.8713567"><ele>220.66666666666669</ele><time>2026-05-01T09:53:39.548Z</time></trkpt><trkpt lat="39.65223" lon="8.87122"><ele>221.0</ele><time>2026-05-01T09:53:40.55Z</time></trkpt><trkpt lat="39.6523567" lon="8.8710883"><ele>221.0</ele><time>2026-05-01T09:53:41.551Z</time></trkpt><trkpt lat="39.6524783" lon="8.87095"><ele>221.0</ele><time>2026-05-01T09:53:42.549Z</time></trkpt><trkpt lat="39.6525867" lon="8.870815"><ele>221.0</ele><time>2026-05-01T09:53:43.55Z</time></trkpt><trkpt lat="39.6526917" lon="8.8706767"><ele>221.0</ele><time>2026-05-01T09:53:44.603Z</time></trkpt><trkpt lat="39.652795" lon="8.8705417"><ele>221.0</ele><time>2026-05-01T09:53:45.548Z</time></trkpt><trkpt lat="39.6528783" lon="8.8703867"><ele>221.0</ele><time>2026-05-01T09:53:46.549Z</time></trkpt><trkpt lat="39.6529667" lon="8.8702167"><ele>219.33333333333334</ele><time>2026-05-01T09:53:47.545Z</time></trkpt><trkpt lat="39.6530383" lon="8.870015"><ele>217.66666666666669</ele><time>2026-05-01T09:53:48.546Z</time></trkpt><trkpt lat="39.6530967" lon="8.869815"><ele>216.0</ele><time>2026-05-01T09:53:49.55Z</time></trkpt><trkpt lat="39.653155" lon="8.8696167"><ele>216.0</ele><time>2026-05-01T09:53:50.597Z</time></trkpt><trkpt lat="39.6532133" lon="8.8694167"><ele>216.0</ele><time>2026-05-01T09:53:51.548Z</time></trkpt><trkpt lat="39.65325" lon="8.8692333"><ele>216.0</ele><time>2026-05-01T09:53:52.549Z</time></trkpt><trkpt lat="39.65327" lon="8.86907"><ele>216.0</ele><time>2026-05-01T09:53:53.546Z</time></trkpt><trkpt lat="39.65329" lon="8.8689483"><ele>216.4</ele><time>2026-05-01T09:53:54.552Z</time></trkpt><trkpt lat="39.6532917" lon="8.8688233"><ele>216.8</ele><time>2026-05-01T09:53:55.547Z</time></trkpt><trkpt lat="39.6533" lon="8.8686683"><ele>217.20000000000002</ele><time>2026-05-01T09:53:56.615Z</time></trkpt><trkpt lat="39.65332" lon="8.8685283"><ele>217.60000000000002</ele><time>2026-05-01T09:53:57.552Z</time></trkpt><trkpt lat="39.653335" lon="8.8683933"><ele>218.0</ele><time>2026-05-01T09:53:58.547Z</time></trkpt><trkpt lat="39.6533567" lon="8.8682783"><ele>217.8</ele><time>2026-05-01T09:53:59.546Z</time></trkpt><trkpt lat="39.6533617" lon="8.8681683"><ele>217.60000000000002</ele><time>2026-05-01T09:54:00.552Z</time></trkpt><trkpt lat="39.6533633" lon="8.8680467"><ele>217.39999999999998</ele><time>2026-05-01T09:54:01.548Z</time></trkpt><trkpt lat="39.6533733" lon="8.867905"><ele>217.2</ele><time>2026-05-01T09:54:02.603Z</time></trkpt><trkpt lat="39.653385" lon="8.8677433"><ele>217.0</ele><time>2026-05-01T09:54:03.546Z</time></trkpt><trkpt lat="39.6534017" lon="8.8675583"><ele>217.0</ele><time>2026-05-01T09:54:04.547Z</time></trkpt><trkpt lat="39.65342" lon="8.86736"><ele>217.0</ele><time>2026-05-01T09:54:05.549Z</time></trkpt><trkpt lat="39.6534417" lon="8.8671433"><ele>217.0</ele><time>2026-05-01T09:54:06.551Z</time></trkpt><trkpt lat="39.6534617" lon="8.8669133"><ele>216.33333333333331</ele><time>2026-05-01T09:54:07.551Z</time></trkpt><trkpt lat="39.65348" lon="8.8666683"><ele>215.66666666666669</ele><time>2026-05-01T09:54:08.596Z</time></trkpt><trkpt lat="39.6534933" lon="8.8664033"><ele>215.0</ele><time>2026-05-01T09:54:09.545Z</time></trkpt><trkpt lat="39.6535133" lon="8.8661633"><ele>213.66666666666669</ele><time>2026-05-01T09:54:10.55Z</time></trkpt><trkpt lat="39.6535317" lon="8.8659117"><ele>212.33333333333331</ele><time>2026-05-01T09:54:11.546Z</time></trkpt><trkpt lat="39.6535517" lon="8.8656617"><ele>211.0</ele><time>2026-05-01T09:54:12.549Z</time></trkpt><trkpt lat="39.6535617" lon="8.86542"><ele>211.0</ele><time>2026-05-01T09:54:13.55Z</time></trkpt><trkpt lat="39.6535717" lon="8.8651917"><ele>211.0</ele><time>2026-05-01T09:54:14.597Z</time></trkpt><trkpt lat="39.6535867" lon="8.8649733"><ele>211.0</ele><time>2026-05-01T09:54:15.547Z</time></trkpt><trkpt lat="39.653605" lon="8.8647633"><ele>211.33333333333331</ele><time>2026-05-01T09:54:16.55Z</time></trkpt><trkpt lat="39.6536167" lon="8.864575"><ele>211.66666666666669</ele><time>2026-05-01T09:54:17.548Z</time></trkpt><trkpt lat="39.6536283" lon="8.8643517"><ele>212.0</ele><time>2026-05-01T09:54:18.549Z</time></trkpt><trkpt lat="39.6536417" lon="8.8641583"><ele>212.25</ele><time>2026-05-01T09:54:19.549Z</time></trkpt><trkpt lat="39.65367" lon="8.8639883"><ele>212.5</ele><time>2026-05-01T09:54:20.6Z</time></trkpt><trkpt lat="39.6537033" lon="8.8638483"><ele>212.75</ele><time>2026-05-01T09:54:21.548Z</time></trkpt><trkpt lat="39.653745" lon="8.863695"><ele>213.0</ele><time>2026-05-01T09:54:22.549Z</time></trkpt><trkpt lat="39.6537933" lon="8.8635467"><ele>212.4</ele><time>2026-05-01T09:54:23.551Z</time></trkpt><trkpt lat="39.6538333" lon="8.8634417"><ele>211.8</ele><time>2026-05-01T09:54:24.553Z</time></trkpt><trkpt lat="39.6538567" lon="8.8633533"><ele>211.2</ele><time>2026-05-01T09:54:25.548Z</time></trkpt><trkpt lat="39.6539067" lon="8.863225"><ele>210.6</ele><time>2026-05-01T09:54:27.545Z</time></trkpt><trkpt lat="39.6539633" lon="8.8631267"><ele>210.0</ele><time>2026-05-01T09:54:29.547Z</time></trkpt><trkpt lat="39.6540267" lon="8.8629867"><ele>210.0</ele><time>2026-05-01T09:54:31.548Z</time></trkpt><trkpt lat="39.654065" lon="8.86291"><ele>210.0</ele><time>2026-05-01T09:54:32.605Z</time></trkpt><trkpt lat="39.65411" lon="8.8628333"><ele>210.0</ele><time>2026-05-01T09:54:33.55Z</time></trkpt><trkpt lat="39.6541517" lon="8.8627483"><ele>210.0</ele><time>2026-05-01T09:54:34.551Z</time></trkpt><trkpt lat="39.654195" lon="8.8626617"><ele>210.0</ele><time>2026-05-01T09:54:35.549Z</time></trkpt><trkpt lat="39.65424" lon="8.8625717"><ele>210.0</ele><time>2026-05-01T09:54:36.547Z</time></trkpt><trkpt lat="39.6542783" lon="8.862485"><ele>210.16666666666666</ele><time>2026-05-01T09:54:37.547Z</time></trkpt><trkpt lat="39.654315" lon="8.8624033"><ele>210.33333333333331</ele><time>2026-05-01T09:54:38.597Z</time></trkpt><trkpt lat="39.654355" lon="8.8623333"><ele>210.5</ele><time>2026-05-01T09:54:39.55Z</time></trkpt><trkpt lat="39.6544083" lon="8.86223"><ele>210.66666666666666</ele><time>2026-05-01T09:54:41.545Z</time></trkpt><trkpt lat="39.6544583" lon="8.8621633"><ele>210.83333333333331</ele><time>2026-05-01T09:55:05.55Z</time></trkpt><trkpt lat="39.654515" lon="8.8620183"><ele>211.0</ele><time>2026-05-01T09:55:08.596Z</time></trkpt><trkpt lat="39.65455" lon="8.8619083"><ele>210.25</ele><time>2026-05-01T09:55:09.544Z</time></trkpt><trkpt lat="39.6545967" lon="8.8617683"><ele>209.5</ele><time>2026-05-01T09:55:10.548Z</time></trkpt><trkpt lat="39.6546433" lon="8.8616183"><ele>208.75</ele><time>2026-05-01T09:55:11.549Z</time></trkpt><trkpt lat="39.6546917" lon="8.8614367"><ele>208.0</ele><time>2026-05-01T09:55:12.545Z</time></trkpt><trkpt lat="39.65475" lon="8.8612183"><ele>208.0</ele><time>2026-05-01T09:55:13.544Z</time></trkpt><trkpt lat="39.6547917" lon="8.860995"><ele>208.0</ele><time>2026-05-01T09:55:14.597Z</time></trkpt><trkpt lat="39.6548183" lon="8.860755"><ele>208.0</ele><time>2026-05-01T09:55:15.546Z</time></trkpt><trkpt lat="39.6548433" lon="8.8605067"><ele>208.33333333333331</ele><time>2026-05-01T09:55:16.548Z</time></trkpt><trkpt lat="39.6548633" lon="8.86026"><ele>208.66666666666669</ele><time>2026-05-01T09:55:17.547Z</time></trkpt><trkpt lat="39.6548817" lon="8.8600167"><ele>209.0</ele><time>2026-05-01T09:55:18.549Z</time></trkpt><trkpt lat="39.6549" lon="8.8597883"><ele>209.0</ele><time>2026-05-01T09:55:19.546Z</time></trkpt><trkpt lat="39.654915" lon="8.8595683"><ele>209.0</ele><time>2026-05-01T09:55:20.594Z</time></trkpt><trkpt lat="39.6549217" lon="8.85936"><ele>209.0</ele><time>2026-05-01T09:55:21.548Z</time></trkpt><trkpt lat="39.65492" lon="8.859155"><ele>207.5</ele><time>2026-05-01T09:55:22.55Z</time></trkpt><trkpt lat="39.6549133" lon="8.8589567"><ele>206.0</ele><time>2026-05-01T09:55:23.549Z</time></trkpt><trkpt lat="39.6549083" lon="8.8587633"><ele>204.5</ele><time>2026-05-01T09:55:24.548Z</time></trkpt><trkpt lat="39.6549117" lon="8.858575"><ele>203.0</ele><time>2026-05-01T09:55:25.544Z</time></trkpt><trkpt lat="39.6549267" lon="8.8583917"><ele>202.25</ele><time>2026-05-01T09:55:26.611Z</time></trkpt><trkpt lat="39.6549517" lon="8.8582117"><ele>201.5</ele><time>2026-05-01T09:55:27.546Z</time></trkpt><trkpt lat="39.6549683" lon="8.858045"><ele>200.75</ele><time>2026-05-01T09:55:28.548Z</time></trkpt><trkpt lat="39.6550367" lon="8.8578667"><ele>200.0</ele><time>2026-05-01T09:55:29.548Z</time></trkpt><trkpt lat="39.6551267" lon="8.8576867"><ele>200.0</ele><time>2026-05-01T09:55:30.546Z</time></trkpt><trkpt lat="39.6552283" lon="8.8575"><ele>200.0</ele><time>2026-05-01T09:55:31.549Z</time></trkpt><trkpt lat="39.6553333" lon="8.85731"><ele>200.0</ele><time>2026-05-01T09:55:32.601Z</time></trkpt><trkpt lat="39.6554333" lon="8.8571233"><ele>200.0</ele><time>2026-05-01T09:55:33.55Z</time></trkpt><trkpt lat="39.6555417" lon="8.856935"><ele>200.0</ele><time>2026-05-01T09:55:34.549Z</time></trkpt><trkpt lat="39.6556533" lon="8.85675"><ele>200.0</ele><time>2026-05-01T09:55:35.547Z</time></trkpt><trkpt lat="39.6557633" lon="8.856565"><ele>198.0</ele><time>2026-05-01T09:55:36.549Z</time></trkpt><trkpt lat="39.6558767" lon="8.85638"><ele>196.0</ele><time>2026-05-01T09:55:37.548Z</time></trkpt><trkpt lat="39.6559883" lon="8.8561983"><ele>194.0</ele><time>2026-05-01T09:55:38.596Z</time></trkpt><trkpt lat="39.6561" lon="8.85602"><ele>194.33333333333334</ele><time>2026-05-01T09:55:39.547Z</time></trkpt><trkpt lat="39.6562267" lon="8.8558367"><ele>194.66666666666669</ele><time>2026-05-01T09:55:40.55Z</time></trkpt><trkpt lat="39.6563583" lon="8.855665"><ele>195.0</ele><time>2026-05-01T09:55:41.549Z</time></trkpt><trkpt lat="39.6564883" lon="8.85551"><ele>195.0</ele><time>2026-05-01T09:55:42.546Z</time></trkpt><trkpt lat="39.6566117" lon="8.8553333"><ele>195.0</ele><time>2026-05-01T09:55:43.549Z</time></trkpt><trkpt lat="39.6567283" lon="8.85514"><ele>195.0</ele><time>2026-05-01T09:55:44.599Z</time></trkpt><trkpt lat="39.6568517" lon="8.85496"><ele>196.0</ele><time>2026-05-01T09:55:45.55Z</time></trkpt><trkpt lat="39.65698" lon="8.8547717"><ele>197.0</ele><time>2026-05-01T09:55:46.548Z</time></trkpt><trkpt lat="39.6570917" lon="8.8545883"><ele>198.0</ele><time>2026-05-01T09:55:47.551Z</time></trkpt><trkpt lat="39.6572017" lon="8.85439"><ele>196.0</ele><time>2026-05-01T09:55:48.552Z</time></trkpt><trkpt lat="39.6573233" lon="8.854195"><ele>194.0</ele><time>2026-05-01T09:55:49.546Z</time></trkpt><trkpt lat="39.6574367" lon="8.8540017"><ele>192.0</ele><time>2026-05-01T09:55:50.6Z</time></trkpt><trkpt lat="39.65756" lon="8.8538"><ele>192.0</ele><time>2026-05-01T09:55:51.55Z</time></trkpt><trkpt lat="39.6576483" lon="8.8536167"><ele>192.0</ele><time>2026-05-01T09:55:52.55Z</time></trkpt><trkpt lat="39.6577283" lon="8.8534433"><ele>192.0</ele><time>2026-05-01T09:55:53.546Z</time></trkpt><trkpt lat="39.6577967" lon="8.85329"><ele>193.39999999999998</ele><time>2026-05-01T09:55:54.546Z</time></trkpt><trkpt lat="39.65785" lon="8.85317"><ele>194.79999999999998</ele><time>2026-05-01T09:55:55.548Z</time></trkpt><trkpt lat="39.6578983" lon="8.8530383"><ele>196.2</ele><time>2026-05-01T09:55:56.582Z</time></trkpt><trkpt lat="39.657945" lon="8.852935"><ele>197.6</ele><time>2026-05-01T09:55:57.55Z</time></trkpt><trkpt lat="39.6579933" lon="8.852835"><ele>199.0</ele><time>2026-05-01T09:55:58.55Z</time></trkpt><trkpt lat="39.658035" lon="8.8527283"><ele>198.16666666666666</ele><time>2026-05-01T09:55:59.549Z</time></trkpt><trkpt lat="39.65808" lon="8.8526167"><ele>197.33333333333331</ele><time>2026-05-01T09:56:00.546Z</time></trkpt><trkpt lat="39.6581233" lon="8.8525217"><ele>196.5</ele><time>2026-05-01T09:56:01.55Z</time></trkpt><trkpt lat="39.65816" lon="8.8524283"><ele>195.66666666666669</ele><time>2026-05-01T09:56:02.599Z</time></trkpt><trkpt lat="39.6581867" lon="8.8523517"><ele>194.83333333333334</ele><time>2026-05-01T09:56:03.546Z</time></trkpt><trkpt lat="39.65821" lon="8.8522633"><ele>194.0</ele><time>2026-05-01T09:56:04.549Z</time></trkpt><trkpt lat="39.65824" lon="8.852175"><ele>194.0</ele><time>2026-05-01T09:56:05.547Z</time></trkpt><trkpt lat="39.65827" lon="8.8520883"><ele>194.0</ele><time>2026-05-01T09:56:06.545Z</time></trkpt><trkpt lat="39.6582983" lon="8.85201"><ele>194.0</ele><time>2026-05-01T09:56:07.547Z</time></trkpt><trkpt lat="39.6583267" lon="8.8519317"><ele>194.0</ele><time>2026-05-01T09:56:08.597Z</time></trkpt><trkpt lat="39.6583517" lon="8.851855"><ele>194.0</ele><time>2026-05-01T09:56:09.547Z</time></trkpt><trkpt lat="39.6583883" lon="8.85174"><ele>194.0</ele><time>2026-05-01T09:56:11.548Z</time></trkpt><trkpt lat="39.658315" lon="8.8517767"><ele>194.0</ele><time>2026-05-01T09:56:16.548Z</time></trkpt><trkpt lat="39.658245" lon="8.8519467"><ele>194.0</ele><time>2026-05-01T09:56:18.549Z</time></trkpt><trkpt lat="39.6581867" lon="8.852095"><ele>194.0</ele><time>2026-05-01T09:56:19.55Z</time></trkpt><trkpt lat="39.6581267" lon="8.85226"><ele>194.0</ele><time>2026-05-01T09:56:20.605Z</time></trkpt><trkpt lat="39.658055" lon="8.85244"><ele>194.0</ele><time>2026-05-01T09:56:21.549Z</time></trkpt><trkpt lat="39.657995" lon="8.852585"><ele>195.0</ele><time>2026-05-01T09:56:22.549Z</time></trkpt><trkpt lat="39.65794" lon="8.8527267"><ele>196.0</ele><time>2026-05-01T09:56:23.549Z</time></trkpt><trkpt lat="39.6578883" lon="8.852855"><ele>197.0</ele><time>2026-05-01T09:56:24.546Z</time></trkpt><trkpt lat="39.657845" lon="8.85297"><ele>198.0</ele><time>2026-05-01T09:56:25.547Z</time></trkpt><trkpt lat="39.6578067" lon="8.8530683"><ele>199.0</ele><time>2026-05-01T09:56:26.614Z</time></trkpt><trkpt lat="39.6577767" lon="8.8531567"><ele>196.99999999999997</ele><time>2026-05-01T09:56:27.544Z</time></trkpt><trkpt lat="39.6577483" lon="8.853235"><ele>195.0</ele><time>2026-05-01T09:56:28.55Z</time></trkpt><trkpt lat="39.6576883" lon="8.8533533"><ele>193.0</ele><time>2026-05-01T09:56:30.57Z</time></trkpt><trkpt lat="39.6576217" lon="8.853395"><ele>191.0</ele><time>2026-05-01T09:56:33.549Z</time></trkpt><trkpt lat="39.6575617" lon="8.8533433"><ele>189.0</ele><time>2026-05-01T09:56:36.547Z</time></trkpt><trkpt lat="39.65751" lon="8.8532383"><ele>187.0</ele><time>2026-05-01T09:56:38.597Z</time></trkpt><trkpt lat="39.65747" lon="8.853095"><ele>187.0</ele><time>2026-05-01T09:56:40.55Z</time></trkpt><trkpt lat="39.65743" lon="8.85296"><ele>187.0</ele><time>2026-05-01T09:56:42.553Z</time></trkpt><trkpt lat="39.6573967" lon="8.8528517"><ele>187.0</ele><time>2026-05-01T09:56:44.596Z</time></trkpt><trkpt lat="39.65734" lon="8.85279"><ele>187.0</ele><time>2026-05-01T09:56:46.549Z</time></trkpt><trkpt lat="39.6572617" lon="8.8527617"><ele>187.0</ele><time>2026-05-01T09:56:49.552Z</time></trkpt><trkpt lat="39.6572" lon="8.8528383"><ele>187.0</ele><time>2026-05-01T09:56:52.55Z</time></trkpt><trkpt lat="39.6571417" lon="8.8529567"><ele>187.0</ele><time>2026-05-01T09:56:54.548Z</time></trkpt><trkpt lat="39.6571017" lon="8.85304"><ele>187.0</ele><time>2026-05-01T09:56:55.553Z</time></trkpt><trkpt lat="39.65706" lon="8.8531317"><ele>187.0</ele><time>2026-05-01T09:56:56.611Z</time></trkpt><trkpt lat="39.657015" lon="8.8532317"><ele>187.0</ele><time>2026-05-01T09:56:57.551Z</time></trkpt><trkpt lat="39.6569617" lon="8.8533367"><ele>187.0</ele><time>2026-05-01T09:56:58.549Z</time></trkpt><trkpt lat="39.656905" lon="8.8534517"><ele>187.0</ele><time>2026-05-01T09:56:59.548Z</time></trkpt><trkpt lat="39.656845" lon="8.8535633"><ele>187.39999999999998</ele><time>2026-05-01T09:57:00.547Z</time></trkpt><trkpt lat="39.656775" lon="8.8536667"><ele>187.79999999999998</ele><time>2026-05-01T09:57:01.547Z</time></trkpt><trkpt lat="39.656695" lon="8.853765"><ele>188.2</ele><time>2026-05-01T09:57:02.601Z</time></trkpt><trkpt lat="39.6566083" lon="8.8538617"><ele>188.6</ele><time>2026-05-01T09:57:03.547Z</time></trkpt><trkpt lat="39.6565267" lon="8.85396"><ele>189.0</ele><time>2026-05-01T09:57:04.545Z</time></trkpt><trkpt lat="39.65645" lon="8.8540683"><ele>189.0</ele><time>2026-05-01T09:57:05.548Z</time></trkpt><trkpt lat="39.6563783" lon="8.85418"><ele>189.0</ele><time>2026-05-01T09:57:06.552Z</time></trkpt><trkpt lat="39.6563183" lon="8.8542833"><ele>189.0</ele><time>2026-05-01T09:57:07.549Z</time></trkpt><trkpt lat="39.6562633" lon="8.85439"><ele>189.0</ele><time>2026-05-01T09:57:08.595Z</time></trkpt><trkpt lat="39.656215" lon="8.8544767"><ele>189.0</ele><time>2026-05-01T09:57:09.549Z</time></trkpt><trkpt lat="39.6561783" lon="8.854555"><ele>189.33333333333334</ele><time>2026-05-01T09:57:10.547Z</time></trkpt><trkpt lat="39.6561483" lon="8.8546283"><ele>189.66666666666666</ele><time>2026-05-01T09:57:11.551Z</time></trkpt><trkpt lat="39.65609" lon="8.8547367"><ele>190.0</ele><time>2026-05-01T09:57:13.548Z</time></trkpt><trkpt lat="39.65602" lon="8.8547883"><ele>190.33333333333331</ele><time>2026-05-01T09:57:15.552Z</time></trkpt><trkpt lat="39.655955" lon="8.854745"><ele>190.66666666666666</ele><time>2026-05-01T09:57:17.55Z</time></trkpt><trkpt lat="39.6559283" lon="8.85461"><ele>191.0</ele><time>2026-05-01T09:57:19.546Z</time></trkpt><trkpt lat="39.6559367" lon="8.8544967"><ele>191.0</ele><time>2026-05-01T09:57:20.598Z</time></trkpt><trkpt lat="39.6559283" lon="8.8543967"><ele>191.0</ele><time>2026-05-01T09:57:21.544Z</time></trkpt><trkpt lat="39.65591" lon="8.8543033"><ele>191.0</ele><time>2026-05-01T09:57:22.549Z</time></trkpt><trkpt lat="39.6558783" lon="8.8542067"><ele>191.0</ele><time>2026-05-01T09:57:23.553Z</time></trkpt><trkpt lat="39.6558367" lon="8.8541083"><ele>191.0</ele><time>2026-05-01T09:57:24.546Z</time></trkpt><trkpt lat="39.655795" lon="8.85402"><ele>191.0</ele><time>2026-05-01T09:57:25.548Z</time></trkpt><trkpt lat="39.6557467" lon="8.8539367"><ele>191.33333333333331</ele><time>2026-05-01T09:57:26.616Z</time></trkpt><trkpt lat="39.6556883" lon="8.8538683"><ele>191.66666666666666</ele><time>2026-05-01T09:57:27.548Z</time></trkpt><trkpt lat="39.6556133" lon="8.8538017"><ele>192.0</ele><time>2026-05-01T09:57:28.545Z</time></trkpt><trkpt lat="39.6555467" lon="8.8537433"><ele>192.33333333333331</ele><time>2026-05-01T09:57:29.549Z</time></trkpt><trkpt lat="39.6554783" lon="8.8536833"><ele>192.66666666666666</ele><time>2026-05-01T09:57:30.547Z</time></trkpt><trkpt lat="39.6554067" lon="8.8536167"><ele>193.0</ele><time>2026-05-01T09:57:31.551Z</time></trkpt><trkpt lat="39.6553317" lon="8.8535483"><ele>195.8</ele><time>2026-05-01T09:57:32.603Z</time></trkpt><trkpt lat="39.65525" lon="8.8534717"><ele>198.60000000000002</ele><time>2026-05-01T09:57:33.549Z</time></trkpt><trkpt lat="39.6551633" lon="8.8533967"><ele>201.39999999999998</ele><time>2026-05-01T09:57:34.55Z</time></trkpt><trkpt lat="39.6550717" lon="8.8533283"><ele>204.2</ele><time>2026-05-01T09:57:35.55Z</time></trkpt><trkpt lat="39.6549817" lon="8.8532617"><ele>207.0</ele><time>2026-05-01T09:57:36.55Z</time></trkpt><trkpt lat="39.65489" lon="8.853195"><ele>207.0</ele><time>2026-05-01T09:57:37.549Z</time></trkpt><trkpt lat="39.6547933" lon="8.8531317"><ele>207.0</ele><time>2026-05-01T09:57:38.597Z</time></trkpt><trkpt lat="39.6547" lon="8.8530733"><ele>207.0</ele><time>2026-05-01T09:57:39.548Z</time></trkpt><trkpt lat="39.6545983" lon="8.8530267"><ele>207.0</ele><time>2026-05-01T09:57:40.549Z</time></trkpt><trkpt lat="39.6545" lon="8.8529933"><ele>207.0</ele><time>2026-05-01T09:57:41.546Z</time></trkpt><trkpt lat="39.6544017" lon="8.8529683"><ele>210.2</ele><time>2026-05-01T09:57:42.548Z</time></trkpt><trkpt lat="39.654305" lon="8.852945"><ele>213.39999999999998</ele><time>2026-05-01T09:57:43.546Z</time></trkpt><trkpt lat="39.6542117" lon="8.85292"><ele>216.60000000000002</ele><time>2026-05-01T09:57:44.596Z</time></trkpt><trkpt lat="39.6541183" lon="8.852905"><ele>219.8</ele><time>2026-05-01T09:57:45.547Z</time></trkpt><trkpt lat="39.6540233" lon="8.8529067"><ele>223.0</ele><time>2026-05-01T09:57:46.545Z</time></trkpt><trkpt lat="39.6539267" lon="8.85292"><ele>223.0</ele><time>2026-05-01T09:57:47.547Z</time></trkpt><trkpt lat="39.6538233" lon="8.8529467"><ele>223.0</ele><time>2026-05-01T09:57:48.548Z</time></trkpt><trkpt lat="39.6537183" lon="8.8529767"><ele>223.0</ele><time>2026-05-01T09:57:49.546Z</time></trkpt><trkpt lat="39.653615" lon="8.8530033"><ele>223.0</ele><time>2026-05-01T09:57:50.594Z</time></trkpt><trkpt lat="39.65351" lon="8.8530283"><ele>223.0</ele><time>2026-05-01T09:57:51.545Z</time></trkpt><trkpt lat="39.6534017" lon="8.853065"><ele>224.0</ele><time>2026-05-01T09:57:52.547Z</time></trkpt><trkpt lat="39.65325" lon="8.8530817"><ele>225.0</ele><time>2026-05-01T09:57:53.544Z</time></trkpt><trkpt lat="39.6531217" lon="8.8531083"><ele>226.0</ele><time>2026-05-01T09:57:54.55Z</time></trkpt><trkpt lat="39.653015" lon="8.8531167"><ele>227.0</ele><time>2026-05-01T09:57:55.549Z</time></trkpt><trkpt lat="39.652915" lon="8.8531033"><ele>227.00000000000003</ele><time>2026-05-01T09:57:56.613Z</time></trkpt><trkpt lat="39.65283" lon="8.8531"><ele>227.0</ele><time>2026-05-01T09:57:57.543Z</time></trkpt><trkpt lat="39.6527517" lon="8.853065"><ele>227.0</ele><time>2026-05-01T09:57:58.546Z</time></trkpt><trkpt lat="39.652665" lon="8.8530117"><ele>227.0</ele><time>2026-05-01T09:57:59.548Z</time></trkpt><trkpt lat="39.6525867" lon="8.8529583"><ele>227.00000000000003</ele><time>2026-05-01T09:58:00.544Z</time></trkpt><trkpt lat="39.6525117" lon="8.8528933"><ele>227.0</ele><time>2026-05-01T09:58:01.546Z</time></trkpt><trkpt lat="39.6524333" lon="8.852815"><ele>227.8</ele><time>2026-05-01T09:58:02.602Z</time></trkpt><trkpt lat="39.6523567" lon="8.852725"><ele>228.6</ele><time>2026-05-01T09:58:03.549Z</time></trkpt><trkpt lat="39.652275" lon="8.85263"><ele>229.40000000000003</ele><time>2026-05-01T09:58:04.549Z</time></trkpt><trkpt lat="39.652195" lon="8.852535"><ele>230.20000000000002</ele><time>2026-05-01T09:58:05.548Z</time></trkpt><trkpt lat="39.6521167" lon="8.852455"><ele>231.0</ele><time>2026-05-01T09:58:06.547Z</time></trkpt><trkpt lat="39.652035" lon="8.85238"><ele>233.60000000000002</ele><time>2026-05-01T09:58:07.547Z</time></trkpt><trkpt lat="39.6519467" lon="8.85231"><ele>236.20000000000002</ele><time>2026-05-01T09:58:08.595Z</time></trkpt><trkpt lat="39.65186" lon="8.8522433"><ele>238.79999999999998</ele><time>2026-05-01T09:58:09.544Z</time></trkpt><trkpt lat="39.6517717" lon="8.8521767"><ele>241.39999999999998</ele><time>2026-05-01T09:58:10.548Z</time></trkpt><trkpt lat="39.6516867" lon="8.852115"><ele>244.0</ele><time>2026-05-01T09:58:11.544Z</time></trkpt><trkpt lat="39.6516083" lon="8.8520583"><ele>243.99999999999997</ele><time>2026-05-01T09:58:12.546Z</time></trkpt><trkpt lat="39.6515317" lon="8.852"><ele>244.0</ele><time>2026-05-01T09:58:13.549Z</time></trkpt><trkpt lat="39.6514567" lon="8.8519417"><ele>244.0</ele><time>2026-05-01T09:58:14.595Z</time></trkpt><trkpt lat="39.6513833" lon="8.8518817"><ele>244.0</ele><time>2026-05-01T09:58:15.544Z</time></trkpt><trkpt lat="39.6513117" lon="8.8518267"><ele>243.99999999999997</ele><time>2026-05-01T09:58:16.548Z</time></trkpt><trkpt lat="39.6512367" lon="8.85178"><ele>244.0</ele><time>2026-05-01T09:58:17.546Z</time></trkpt><trkpt lat="39.651155" lon="8.8517383"><ele>247.16666666666666</ele><time>2026-05-01T09:58:18.547Z</time></trkpt><trkpt lat="39.6510733" lon="8.8517133"><ele>250.33333333333331</ele><time>2026-05-01T09:58:19.55Z</time></trkpt><trkpt lat="39.6509883" lon="8.851695"><ele>253.5</ele><time>2026-05-01T09:58:20.597Z</time></trkpt><trkpt lat="39.6508983" lon="8.8516817"><ele>256.6666666666667</ele><time>2026-05-01T09:58:21.545Z</time></trkpt><trkpt lat="39.6508117" lon="8.851665"><ele>259.83333333333337</ele><time>2026-05-01T09:58:22.549Z</time></trkpt><trkpt lat="39.650725" lon="8.8516383"><ele>263.0</ele><time>2026-05-01T09:58:23.549Z</time></trkpt><trkpt lat="39.6506383" lon="8.8515983"><ele>263.0</ele><time>2026-05-01T09:58:24.547Z</time></trkpt><trkpt lat="39.65055" lon="8.8515467"><ele>263.0</ele><time>2026-05-01T09:58:25.551Z</time></trkpt><trkpt lat="39.6504617" lon="8.8514817"><ele>263.0</ele><time>2026-05-01T09:58:26.61Z</time></trkpt><trkpt lat="39.6503817" lon="8.8514117"><ele>263.0</ele><time>2026-05-01T09:58:27.554Z</time></trkpt><trkpt lat="39.6503083" lon="8.8513433"><ele>263.0</ele><time>2026-05-01T09:58:28.545Z</time></trkpt><trkpt lat="39.6502433" lon="8.85128"><ele>262.0</ele><time>2026-05-01T09:58:29.547Z</time></trkpt><trkpt lat="39.6501917" lon="8.851225"><ele>261.0</ele><time>2026-05-01T09:58:30.55Z</time></trkpt><trkpt lat="39.6501383" lon="8.8511683"><ele>260.0</ele><time>2026-05-01T09:58:31.548Z</time></trkpt><trkpt lat="39.6500817" lon="8.8511083"><ele>259.0</ele><time>2026-05-01T09:58:32.602Z</time></trkpt><trkpt lat="39.6500233" lon="8.8510383"><ele>258.0</ele><time>2026-05-01T09:58:33.545Z</time></trkpt><trkpt lat="39.6499633" lon="8.8509617"><ele>257.0</ele><time>2026-05-01T09:58:34.549Z</time></trkpt><trkpt lat="39.649905" lon="8.8508783"><ele>262.0</ele><time>2026-05-01T09:58:35.548Z</time></trkpt><trkpt lat="39.6498467" lon="8.8507867"><ele>267.0</ele><time>2026-05-01T09:58:36.548Z</time></trkpt><trkpt lat="39.649785" lon="8.8506867"><ele>272.0</ele><time>2026-05-01T09:58:37.548Z</time></trkpt><trkpt lat="39.6497167" lon="8.8505783"><ele>277.0</ele><time>2026-05-01T09:58:38.598Z</time></trkpt><trkpt lat="39.64965" lon="8.85046"><ele>282.0</ele><time>2026-05-01T09:58:39.544Z</time></trkpt><trkpt lat="39.649575" lon="8.8503383"><ele>282.0</ele><time>2026-05-01T09:58:40.548Z</time></trkpt><trkpt lat="39.6495033" lon="8.8502233"><ele>282.0</ele><time>2026-05-01T09:58:41.547Z</time></trkpt><trkpt lat="39.6494317" lon="8.8501167"><ele>282.0</ele><time>2026-05-01T09:58:42.548Z</time></trkpt><trkpt lat="39.6493517" lon="8.849995"><ele>282.0</ele><time>2026-05-01T09:58:43.549Z</time></trkpt><trkpt lat="39.649275" lon="8.8498633"><ele>282.25</ele><time>2026-05-01T09:58:44.595Z</time></trkpt><trkpt lat="39.64919" lon="8.8497617"><ele>282.5</ele><time>2026-05-01T09:58:45.549Z</time></trkpt><trkpt lat="39.6490933" lon="8.84966"><ele>282.75</ele><time>2026-05-01T09:58:46.548Z</time></trkpt><trkpt lat="39.6490117" lon="8.849595"><ele>283.0</ele><time>2026-05-01T09:58:47.55Z</time></trkpt><trkpt lat="39.64892" lon="8.8495017"><ele>283.0</ele><time>2026-05-01T09:58:48.547Z</time></trkpt><trkpt lat="39.6488133" lon="8.8494117"><ele>283.0</ele><time>2026-05-01T09:58:49.547Z</time></trkpt><trkpt lat="39.6487333" lon="8.849355"><ele>283.0</ele><time>2026-05-01T09:58:50.599Z</time></trkpt><trkpt lat="39.6486217" lon="8.849275"><ele>283.0</ele><time>2026-05-01T09:58:51.545Z</time></trkpt><trkpt lat="39.6485317" lon="8.8492067"><ele>284.8</ele><time>2026-05-01T09:58:52.549Z</time></trkpt><trkpt lat="39.6484333" lon="8.8491333"><ele>286.6</ele><time>2026-05-01T09:58:53.545Z</time></trkpt><trkpt lat="39.64834" lon="8.8490867"><ele>288.4</ele><time>2026-05-01T09:58:54.549Z</time></trkpt><trkpt lat="39.6482233" lon="8.849075"><ele>290.2</ele><time>2026-05-01T09:58:55.549Z</time></trkpt><trkpt lat="39.6481183" lon="8.8490617"><ele>292.0</ele><time>2026-05-01T09:58:56.614Z</time></trkpt><trkpt lat="39.6480267" lon="8.8490633"><ele>292.0</ele><time>2026-05-01T09:58:57.548Z</time></trkpt><trkpt lat="39.64793" lon="8.8490933"><ele>292.0</ele><time>2026-05-01T09:58:58.545Z</time></trkpt><trkpt lat="39.6478283" lon="8.8491067"><ele>292.0</ele><time>2026-05-01T09:58:59.552Z</time></trkpt><trkpt lat="39.64772" lon="8.84913"><ele>292.0</ele><time>2026-05-01T09:59:00.552Z</time></trkpt><trkpt lat="39.6475933" lon="8.84917"><ele>292.0</ele><time>2026-05-01T09:59:01.55Z</time></trkpt><trkpt lat="39.6474967" lon="8.8492"><ele>292.5</ele><time>2026-05-01T09:59:02.602Z</time></trkpt><trkpt lat="39.647425" lon="8.8492317"><ele>293.0</ele><time>2026-05-01T09:59:03.549Z</time></trkpt><trkpt lat="39.6473267" lon="8.8493283"><ele>293.5</ele><time>2026-05-01T09:59:05.545Z</time></trkpt><trkpt lat="39.647275" lon="8.8493833"><ele>294.0</ele><time>2026-05-01T09:59:06.545Z</time></trkpt><trkpt lat="39.647225" lon="8.8494433"><ele>294.5</ele><time>2026-05-01T09:59:07.549Z</time></trkpt><trkpt lat="39.6471817" lon="8.8495167"><ele>295.0</ele><time>2026-05-01T09:59:08.604Z</time></trkpt><trkpt lat="39.6471317" lon="8.849595"><ele>295.0</ele><time>2026-05-01T09:59:09.551Z</time></trkpt><trkpt lat="39.6470867" lon="8.8496617"><ele>295.0</ele><time>2026-05-01T09:59:10.55Z</time></trkpt><trkpt lat="39.6470417" lon="8.8497233"><ele>295.0</ele><time>2026-05-01T09:59:11.547Z</time></trkpt><trkpt lat="39.64698" lon="8.84984"><ele>295.0</ele><time>2026-05-01T09:59:13.548Z</time></trkpt><trkpt lat="39.6469217" lon="8.849925"><ele>295.0</ele><time>2026-05-01T09:59:15.551Z</time></trkpt><trkpt lat="39.6467933" lon="8.8499667"><ele>295.8</ele><time>2026-05-01T09:59:43.547Z</time></trkpt><trkpt lat="39.6467167" lon="8.84995"><ele>296.6</ele><time>2026-05-01T09:59:45.548Z</time></trkpt><trkpt lat="39.6465933" lon="8.8499317"><ele>297.4</ele><time>2026-05-01T09:59:47.548Z</time></trkpt><trkpt lat="39.6465067" lon="8.8499017"><ele>298.2</ele><time>2026-05-01T09:59:48.547Z</time></trkpt><trkpt lat="39.6464233" lon="8.84987"><ele>299.0</ele><time>2026-05-01T09:59:49.551Z</time></trkpt><trkpt lat="39.6463383" lon="8.8498283"><ele>299.0</ele><time>2026-05-01T09:59:50.549Z</time></trkpt><trkpt lat="39.6462533" lon="8.8497917"><ele>299.0</ele><time>2026-05-01T09:59:51.549Z</time></trkpt><trkpt lat="39.6461717" lon="8.8497583"><ele>299.0</ele><time>2026-05-01T09:59:52.545Z</time></trkpt><trkpt lat="39.6460917" lon="8.8497283"><ele>299.0</ele><time>2026-05-01T09:59:53.549Z</time></trkpt><trkpt lat="39.6460133" lon="8.8496867"><ele>299.0</ele><time>2026-05-01T09:59:54.547Z</time></trkpt><trkpt lat="39.6459333" lon="8.8496583"><ele>299.0</ele><time>2026-05-01T09:59:55.548Z</time></trkpt><trkpt lat="39.6458633" lon="8.8496333"><ele>297.4</ele><time>2026-05-01T09:59:56.614Z</time></trkpt><trkpt lat="39.6457867" lon="8.84963"><ele>295.79999999999995</ele><time>2026-05-01T09:59:57.546Z</time></trkpt><trkpt lat="39.6457183" lon="8.8496317"><ele>294.20000000000005</ele><time>2026-05-01T09:59:58.55Z</time></trkpt><trkpt lat="39.6456017" lon="8.8496717"><ele>292.6</ele><time>2026-05-01T10:00:00.549Z</time></trkpt><trkpt lat="39.6454967" lon="8.849765"><ele>291.0</ele><time>2026-05-01T10:00:02.598Z</time></trkpt><trkpt lat="39.6454467" lon="8.8498183"><ele>291.0</ele><time>2026-05-01T10:00:03.553Z</time></trkpt><trkpt lat="39.6453967" lon="8.8498717"><ele>291.0</ele><time>2026-05-01T10:00:04.548Z</time></trkpt><trkpt lat="39.6453067" lon="8.849985"><ele>291.0</ele><time>2026-05-01T10:00:06.546Z</time></trkpt><trkpt lat="39.6452283" lon="8.8500883"><ele>291.0</ele><time>2026-05-01T10:00:08.547Z</time></trkpt><trkpt lat="39.6451567" lon="8.8501717"><ele>291.0</ele><time>2026-05-01T10:00:10.542Z</time></trkpt><trkpt lat="39.6450717" lon="8.8502467"><ele>289.6666666666667</ele><time>2026-05-01T10:00:12.544Z</time></trkpt><trkpt lat="39.64499" lon="8.85027"><ele>288.3333333333333</ele><time>2026-05-01T10:00:14.549Z</time></trkpt><trkpt lat="39.64491" lon="8.85026"><ele>287.0</ele><time>2026-05-01T10:00:16.547Z</time></trkpt><trkpt lat="39.6448417" lon="8.8502183"><ele>285.66666666666663</ele><time>2026-05-01T10:00:18.549Z</time></trkpt><trkpt lat="39.6448033" lon="8.8501433"><ele>284.3333333333333</ele><time>2026-05-01T10:00:20.547Z</time></trkpt><trkpt lat="39.6448017" lon="8.8500083"><ele>283.0</ele><time>2026-05-01T10:00:22.547Z</time></trkpt><trkpt lat="39.64482" lon="8.8499167"><ele>281.6</ele><time>2026-05-01T10:00:23.546Z</time></trkpt><trkpt lat="39.6448667" lon="8.8497883"><ele>280.20000000000005</ele><time>2026-05-01T10:00:24.548Z</time></trkpt><trkpt lat="39.644875" lon="8.8496583"><ele>278.8</ele><time>2026-05-01T10:00:25.547Z</time></trkpt><trkpt lat="39.64488" lon="8.849515"><ele>277.40000000000003</ele><time>2026-05-01T10:00:26.601Z</time></trkpt><trkpt lat="39.6449017" lon="8.8493767"><ele>276.0</ele><time>2026-05-01T10:00:27.548Z</time></trkpt><trkpt lat="39.64492" lon="8.84922"><ele>274.8</ele><time>2026-05-01T10:00:28.547Z</time></trkpt><trkpt lat="39.64494" lon="8.849085"><ele>273.6</ele><time>2026-05-01T10:00:29.549Z</time></trkpt><trkpt lat="39.6449483" lon="8.848965"><ele>272.4</ele><time>2026-05-01T10:00:30.547Z</time></trkpt><trkpt lat="39.6449383" lon="8.8488267"><ele>271.2</ele><time>2026-05-01T10:00:31.544Z</time></trkpt><trkpt lat="39.6449367" lon="8.848705"><ele>270.0</ele><time>2026-05-01T10:00:32.6Z</time></trkpt><trkpt lat="39.6449267" lon="8.8485783"><ele>270.0</ele><time>2026-05-01T10:00:33.546Z</time></trkpt><trkpt lat="39.644915" lon="8.8484733"><ele>270.0</ele><time>2026-05-01T10:00:34.545Z</time></trkpt><trkpt lat="39.644905" lon="8.8483833"><ele>270.0</ele><time>2026-05-01T10:00:35.547Z</time></trkpt><trkpt lat="39.6448967" lon="8.8482983"><ele>270.0</ele><time>2026-05-01T10:00:36.548Z</time></trkpt><trkpt lat="39.64482" lon="8.8481933"><ele>270.0</ele><time>2026-05-01T10:00:38.548Z</time></trkpt><trkpt lat="39.6447667" lon="8.8481417"><ele>270.0</ele><time>2026-05-01T10:00:39.545Z</time></trkpt><trkpt lat="39.6447133" lon="8.8480867"><ele>268.5</ele><time>2026-05-01T10:00:40.548Z</time></trkpt><trkpt lat="39.6446583" lon="8.848025"><ele>267.0</ele><time>2026-05-01T10:00:41.548Z</time></trkpt><trkpt lat="39.644605" lon="8.8479517"><ele>265.5</ele><time>2026-05-01T10:00:42.547Z</time></trkpt><trkpt lat="39.6445533" lon="8.847875"><ele>264.0</ele><time>2026-05-01T10:00:43.549Z</time></trkpt><trkpt lat="39.6445067" lon="8.8477967"><ele>262.5</ele><time>2026-05-01T10:00:44.547Z</time></trkpt><trkpt lat="39.6444667" lon="8.8477133"><ele>261.0</ele><time>2026-05-01T10:00:45.55Z</time></trkpt><trkpt lat="39.64443" lon="8.84763"><ele>258.0</ele><time>2026-05-01T10:00:46.55Z</time></trkpt><trkpt lat="39.6444" lon="8.8475467"><ele>255.00000000000003</ele><time>2026-05-01T10:00:47.545Z</time></trkpt><trkpt lat="39.64437" lon="8.84739"><ele>252.00000000000003</ele><time>2026-05-01T10:00:49.546Z</time></trkpt><trkpt lat="39.6443567" lon="8.8473083"><ele>249.0</ele><time>2026-05-01T10:00:50.545Z</time></trkpt><trkpt lat="39.64432" lon="8.8471533"><ele>246.0</ele><time>2026-05-01T10:00:52.548Z</time></trkpt><trkpt lat="39.6442867" lon="8.84701"><ele>246.0</ele><time>2026-05-01T10:00:54.548Z</time></trkpt><trkpt lat="39.6442817" lon="8.8468783"><ele>246.00000000000003</ele><time>2026-05-01T10:00:56.595Z</time></trkpt><trkpt lat="39.6443067" lon="8.8467583"><ele>246.00000000000003</ele><time>2026-05-01T10:00:58.548Z</time></trkpt><trkpt lat="39.6443467" lon="8.846635"><ele>246.0</ele><time>2026-05-01T10:01:00.554Z</time></trkpt><trkpt lat="39.6444183" lon="8.8465083"><ele>246.0</ele><time>2026-05-01T10:01:02.597Z</time></trkpt><trkpt lat="39.6444617" lon="8.8464467"><ele>245.0</ele><time>2026-05-01T10:01:03.544Z</time></trkpt><trkpt lat="39.6445633" lon="8.8463583"><ele>244.00000000000003</ele><time>2026-05-01T10:01:05.546Z</time></trkpt><trkpt lat="39.6446283" lon="8.846325"><ele>243.00000000000003</ele><time>2026-05-01T10:01:07.546Z</time></trkpt><trkpt lat="39.6446917" lon="8.84629"><ele>242.0</ele><time>2026-05-01T10:01:09.548Z</time></trkpt><trkpt lat="39.6448317" lon="8.8461967"><ele>241.0</ele><time>2026-05-01T10:01:57.546Z</time></trkpt><trkpt lat="39.644895" lon="8.846065"><ele>242.20000000000002</ele><time>2026-05-01T10:03:32.593Z</time></trkpt><trkpt lat="39.6449267" lon="8.8459433"><ele>243.40000000000003</ele><time>2026-05-01T10:03:52.55Z</time></trkpt><trkpt lat="39.6450117" lon="8.8458417"><ele>244.6</ele><time>2026-05-01T10:04:48.55Z</time></trkpt><trkpt lat="39.6451117" lon="8.84578"><ele>245.8</ele><time>2026-05-01T10:04:51.547Z</time></trkpt><trkpt lat="39.64521" lon="8.8456933"><ele>247.0</ele><time>2026-05-01T10:04:53.544Z</time></trkpt><trkpt lat="39.645265" lon="8.8456417"><ele>244.99999999999997</ele><time>2026-05-01T10:04:54.543Z</time></trkpt><trkpt lat="39.645365" lon="8.845565"><ele>243.0</ele><time>2026-05-01T10:04:56.614Z</time></trkpt><trkpt lat="39.6454217" lon="8.8455267"><ele>241.0</ele><time>2026-05-01T10:04:57.545Z</time></trkpt><trkpt lat="39.6454783" lon="8.8454717"><ele>239.0</ele><time>2026-05-01T10:04:58.545Z</time></trkpt><trkpt lat="39.645535" lon="8.8454133"><ele>236.99999999999997</ele><time>2026-05-01T10:04:59.546Z</time></trkpt><trkpt lat="39.645585" lon="8.84534"><ele>235.0</ele><time>2026-05-01T10:05:00.549Z</time></trkpt><trkpt lat="39.6456283" lon="8.8452483"><ele>234.99999999999997</ele><time>2026-05-01T10:05:01.544Z</time></trkpt><trkpt lat="39.6456567" lon="8.8451467"><ele>235.0</ele><time>2026-05-01T10:05:02.595Z</time></trkpt><trkpt lat="39.6456717" lon="8.8450433"><ele>235.0</ele><time>2026-05-01T10:05:03.55Z</time></trkpt><trkpt lat="39.6456717" lon="8.844935"><ele>235.0</ele><time>2026-05-01T10:05:04.547Z</time></trkpt><trkpt lat="39.6456633" lon="8.84484"><ele>234.99999999999997</ele><time>2026-05-01T10:05:05.547Z</time></trkpt><trkpt lat="39.6456517" lon="8.844735"><ele>235.0</ele><time>2026-05-01T10:05:06.548Z</time></trkpt><trkpt lat="39.64564" lon="8.84463"><ele>235.16666666666666</ele><time>2026-05-01T10:05:07.547Z</time></trkpt><trkpt lat="39.6456383" lon="8.84453"><ele>235.33333333333331</ele><time>2026-05-01T10:05:08.559Z</time></trkpt><trkpt lat="39.6456433" lon="8.84442"><ele>235.5</ele><time>2026-05-01T10:05:09.55Z</time></trkpt><trkpt lat="39.6456533" lon="8.84432"><ele>235.66666666666669</ele><time>2026-05-01T10:05:10.547Z</time></trkpt><trkpt lat="39.645675" lon="8.844225"><ele>235.83333333333334</ele><time>2026-05-01T10:05:11.553Z</time></trkpt><trkpt lat="39.6457133" lon="8.84413"><ele>236.0</ele><time>2026-05-01T10:05:12.55Z</time></trkpt><trkpt lat="39.6457917" lon="8.8440433"><ele>238.0</ele><time>2026-05-01T10:05:13.548Z</time></trkpt><trkpt lat="39.6458567" lon="8.8439383"><ele>240.00000000000003</ele><time>2026-05-01T10:05:14.561Z</time></trkpt><trkpt lat="39.6459167" lon="8.8438183"><ele>242.00000000000003</ele><time>2026-05-01T10:05:15.548Z</time></trkpt><trkpt lat="39.6459667" lon="8.8437033"><ele>244.0</ele><time>2026-05-01T10:05:16.549Z</time></trkpt><trkpt lat="39.646005" lon="8.8435783"><ele>246.0</ele><time>2026-05-01T10:05:17.547Z</time></trkpt><trkpt lat="39.6460267" lon="8.8434467"><ele>247.25</ele><time>2026-05-01T10:05:18.55Z</time></trkpt><trkpt lat="39.646035" lon="8.84331"><ele>248.5</ele><time>2026-05-01T10:05:19.548Z</time></trkpt><trkpt lat="39.6460333" lon="8.8431667"><ele>249.75</ele><time>2026-05-01T10:05:20.56Z</time></trkpt><trkpt lat="39.64601" lon="8.843015"><ele>251.0</ele><time>2026-05-01T10:05:21.55Z</time></trkpt><trkpt lat="39.6459633" lon="8.842865"><ele>251.0</ele><time>2026-05-01T10:05:22.548Z</time></trkpt><trkpt lat="39.645915" lon="8.8427167"><ele>251.0</ele><time>2026-05-01T10:05:23.547Z</time></trkpt><trkpt lat="39.6458767" lon="8.8425667"><ele>251.0</ele><time>2026-05-01T10:05:24.552Z</time></trkpt><trkpt lat="39.6458333" lon="8.8424083"><ele>251.0</ele><time>2026-05-01T10:05:25.55Z</time></trkpt><trkpt lat="39.6457933" lon="8.8422467"><ele>250.25</ele><time>2026-05-01T10:05:26.611Z</time></trkpt><trkpt lat="39.6457467" lon="8.84208"><ele>249.5</ele><time>2026-05-01T10:05:27.545Z</time></trkpt><trkpt lat="39.6456983" lon="8.8419083"><ele>248.75</ele><time>2026-05-01T10:05:28.547Z</time></trkpt><trkpt lat="39.64565" lon="8.8417383"><ele>248.0</ele><time>2026-05-01T10:05:29.548Z</time></trkpt><trkpt lat="39.6456033" lon="8.8415683"><ele>245.5</ele><time>2026-05-01T10:05:30.545Z</time></trkpt><trkpt lat="39.64556" lon="8.8414083"><ele>243.0</ele><time>2026-05-01T10:05:31.548Z</time></trkpt><trkpt lat="39.6455183" lon="8.8412517"><ele>240.5</ele><time>2026-05-01T10:05:32.596Z</time></trkpt><trkpt lat="39.6454767" lon="8.8410983"><ele>238.0</ele><time>2026-05-01T10:05:33.548Z</time></trkpt><trkpt lat="39.645435" lon="8.84095"><ele>235.0</ele><time>2026-05-01T10:05:34.548Z</time></trkpt><trkpt lat="39.6453917" lon="8.8407983"><ele>232.0</ele><time>2026-05-01T10:05:35.545Z</time></trkpt><trkpt lat="39.645345" lon="8.840655"><ele>229.0</ele><time>2026-05-01T10:05:36.549Z</time></trkpt><trkpt lat="39.6452883" lon="8.8405333"><ele>226.0</ele><time>2026-05-01T10:05:37.552Z</time></trkpt><trkpt lat="39.6452417" lon="8.8403883"><ele>229.0</ele><time>2026-05-01T10:05:38.562Z</time></trkpt><trkpt lat="39.6451817" lon="8.8402583"><ele>232.0</ele><time>2026-05-01T10:05:39.554Z</time></trkpt><trkpt lat="39.6451217" lon="8.840135"><ele>235.0</ele><time>2026-05-01T10:05:40.55Z</time></trkpt><trkpt lat="39.6450433" lon="8.8400267"><ele>238.0</ele><time>2026-05-01T10:05:41.552Z</time></trkpt><trkpt lat="39.6449717" lon="8.839915"><ele>238.0</ele><time>2026-05-01T10:05:42.55Z</time></trkpt><trkpt lat="39.6449017" lon="8.8398183"><ele>238.0</ele><time>2026-05-01T10:05:43.556Z</time></trkpt><trkpt lat="39.6448167" lon="8.8397467"><ele>238.0</ele><time>2026-05-01T10:05:44.563Z</time></trkpt><trkpt lat="39.644735" lon="8.839695"><ele>238.0</ele><time>2026-05-01T10:05:45.552Z</time></trkpt><trkpt lat="39.644635" lon="8.8396733"><ele>238.0</ele><time>2026-05-01T10:05:46.552Z</time></trkpt><trkpt lat="39.6445433" lon="8.8396433"><ele>238.49999999999997</ele><time>2026-05-01T10:05:47.549Z</time></trkpt><trkpt lat="39.64446" lon="8.8396267"><ele>239.0</ele><time>2026-05-01T10:05:48.555Z</time></trkpt><trkpt lat="39.6443867" lon="8.8395917"><ele>239.5</ele><time>2026-05-01T10:05:49.549Z</time></trkpt><trkpt lat="39.6443083" lon="8.83956"><ele>240.0</ele><time>2026-05-01T10:05:50.566Z</time></trkpt><trkpt lat="39.644235" lon="8.839525"><ele>240.49999999999997</ele><time>2026-05-01T10:05:51.551Z</time></trkpt><trkpt lat="39.6441617" lon="8.8394933"><ele>241.0</ele><time>2026-05-01T10:05:52.549Z</time></trkpt><trkpt lat="39.6440767" lon="8.8394667"><ele>240.99999999999997</ele><time>2026-05-01T10:05:53.553Z</time></trkpt><trkpt lat="39.6439917" lon="8.8394483"><ele>241.0</ele><time>2026-05-01T10:05:54.554Z</time></trkpt><trkpt lat="39.6439017" lon="8.8394367"><ele>241.0</ele><time>2026-05-01T10:05:55.558Z</time></trkpt><trkpt lat="39.6438167" lon="8.8394233"><ele>241.0</ele><time>2026-05-01T10:05:56.575Z</time></trkpt><trkpt lat="39.6437283" lon="8.83942"><ele>240.99999999999997</ele><time>2026-05-01T10:05:57.556Z</time></trkpt><trkpt lat="39.6436467" lon="8.8394167"><ele>241.0</ele><time>2026-05-01T10:05:58.556Z</time></trkpt><trkpt lat="39.6435783" lon="8.8394283"><ele>241.20000000000002</ele><time>2026-05-01T10:05:59.55Z</time></trkpt><trkpt lat="39.6434767" lon="8.8394417"><ele>241.40000000000003</ele><time>2026-05-01T10:06:01.561Z</time></trkpt><trkpt lat="39.6433233" lon="8.8395267"><ele>241.6</ele><time>2026-05-01T10:06:19.542Z</time></trkpt><trkpt lat="39.64327" lon="8.83959"><ele>241.8</ele><time>2026-05-01T10:06:20.557Z</time></trkpt><trkpt lat="39.6432133" lon="8.8396583"><ele>242.0</ele><time>2026-05-01T10:06:21.546Z</time></trkpt><trkpt lat="39.6431517" lon="8.83974"><ele>242.0</ele><time>2026-05-01T10:06:22.545Z</time></trkpt><trkpt lat="39.6430933" lon="8.83983"><ele>242.0</ele><time>2026-05-01T10:06:23.548Z</time></trkpt><trkpt lat="39.64304" lon="8.8399267"><ele>242.0</ele><time>2026-05-01T10:06:24.548Z</time></trkpt><trkpt lat="39.642985" lon="8.84003"><ele>242.0</ele><time>2026-05-01T10:06:25.548Z</time></trkpt><trkpt lat="39.642935" lon="8.840125"><ele>242.0</ele><time>2026-05-01T10:06:26.609Z</time></trkpt><trkpt lat="39.6428817" lon="8.8402117"><ele>242.83333333333334</ele><time>2026-05-01T10:06:27.549Z</time></trkpt><trkpt lat="39.6428267" lon="8.8403"><ele>243.66666666666669</ele><time>2026-05-01T10:06:28.549Z</time></trkpt><trkpt lat="39.6427767" lon="8.8403833"><ele>244.5</ele><time>2026-05-01T10:06:29.548Z</time></trkpt><trkpt lat="39.642735" lon="8.8404667"><ele>245.33333333333331</ele><time>2026-05-01T10:06:30.547Z</time></trkpt><trkpt lat="39.6426983" lon="8.8405533"><ele>246.16666666666666</ele><time>2026-05-01T10:06:31.546Z</time></trkpt><trkpt lat="39.64266" lon="8.8406317"><ele>247.0</ele><time>2026-05-01T10:06:32.594Z</time></trkpt><trkpt lat="39.6426183" lon="8.84071"><ele>246.99999999999997</ele><time>2026-05-01T10:06:33.545Z</time></trkpt><trkpt lat="39.6425617" lon="8.8407883"><ele>247.0</ele><time>2026-05-01T10:06:34.547Z</time></trkpt><trkpt lat="39.6425017" lon="8.84086"><ele>247.0</ele><time>2026-05-01T10:06:35.542Z</time></trkpt><trkpt lat="39.6424367" lon="8.8409417"><ele>247.0</ele><time>2026-05-01T10:06:36.546Z</time></trkpt><trkpt lat="39.6423733" lon="8.8410167"><ele>246.99999999999997</ele><time>2026-05-01T10:06:37.546Z</time></trkpt><trkpt lat="39.64231" lon="8.8410867"><ele>247.0</ele><time>2026-05-01T10:06:38.556Z</time></trkpt><trkpt lat="39.6422483" lon="8.8411483"><ele>248.16666666666666</ele><time>2026-05-01T10:06:39.546Z</time></trkpt><trkpt lat="39.6421933" lon="8.8412017"><ele>249.33333333333331</ele><time>2026-05-01T10:06:40.544Z</time></trkpt><trkpt lat="39.642135" lon="8.8412567"><ele>250.5</ele><time>2026-05-01T10:06:41.548Z</time></trkpt><trkpt lat="39.64207" lon="8.8413033"><ele>251.66666666666669</ele><time>2026-05-01T10:06:42.547Z</time></trkpt><trkpt lat="39.641995" lon="8.8413483"><ele>252.83333333333334</ele><time>2026-05-01T10:06:43.545Z</time></trkpt><trkpt lat="39.641915" lon="8.8413967"><ele>254.0</ele><time>2026-05-01T10:06:44.558Z</time></trkpt><trkpt lat="39.64183" lon="8.8414483"><ele>254.00000000000003</ele><time>2026-05-01T10:06:45.545Z</time></trkpt><trkpt lat="39.6417583" lon="8.841495"><ele>254.0</ele><time>2026-05-01T10:06:46.546Z</time></trkpt><trkpt lat="39.6416783" lon="8.8415233"><ele>254.0</ele><time>2026-05-01T10:06:47.546Z</time></trkpt><trkpt lat="39.6416" lon="8.841535"><ele>254.0</ele><time>2026-05-01T10:06:48.549Z</time></trkpt><trkpt lat="39.641525" lon="8.8415117"><ele>254.00000000000003</ele><time>2026-05-01T10:06:49.553Z</time></trkpt><trkpt lat="39.641455" lon="8.84147"><ele>254.0</ele><time>2026-05-01T10:06:50.567Z</time></trkpt><trkpt lat="39.6413983" lon="8.8414283"><ele>254.0</ele><time>2026-05-01T10:06:51.548Z</time></trkpt><trkpt lat="39.6413567" lon="8.841355"><ele>254.0</ele><time>2026-05-01T10:06:52.553Z</time></trkpt><trkpt lat="39.6413317" lon="8.8412667"><ele>254.0</ele><time>2026-05-01T10:06:53.551Z</time></trkpt><trkpt lat="39.641325" lon="8.8411683"><ele>254.0</ele><time>2026-05-01T10:06:54.55Z</time></trkpt><trkpt lat="39.6413067" lon="8.8410633"><ele>254.0</ele><time>2026-05-01T10:06:56.612Z</time></trkpt></trkseg><trkseg><trkpt lat="39.6399533" lon="8.8374867"><ele>275.0</ele><time>2026-05-01T12:17:24.737Z</time></trkpt><trkpt lat="39.6399717" lon="8.8375667"><ele>275.0</ele><time>2026-05-01T12:17:47.53Z</time></trkpt><trkpt lat="39.6399883" lon="8.837725"><ele>275.0</ele><time>2026-05-01T12:17:49.529Z</time></trkpt><trkpt lat="39.6400133" lon="8.8378333"><ele>275.0</ele><time>2026-05-01T12:17:50.529Z</time></trkpt><trkpt lat="39.640035" lon="8.8379467"><ele>275.0</ele><time>2026-05-01T12:17:51.529Z</time></trkpt><trkpt lat="39.6400667" lon="8.8380683"><ele>274.8</ele><time>2026-05-01T12:17:52.532Z</time></trkpt><trkpt lat="39.6400917" lon="8.8382"><ele>274.6</ele><time>2026-05-01T12:17:53.531Z</time></trkpt><trkpt lat="39.6401033" lon="8.8383383"><ele>274.4</ele><time>2026-05-01T12:17:54.531Z</time></trkpt><trkpt lat="39.6400983" lon="8.8384783"><ele>274.2</ele><time>2026-05-01T12:17:55.529Z</time></trkpt><trkpt lat="39.64008" lon="8.8386217"><ele>274.0</ele><time>2026-05-01T12:17:56.531Z</time></trkpt><trkpt lat="39.6400533" lon="8.8387633"><ele>273.2</ele><time>2026-05-01T12:17:57.531Z</time></trkpt><trkpt lat="39.6400167" lon="8.8389"><ele>272.4</ele><time>2026-05-01T12:17:58.53Z</time></trkpt><trkpt lat="39.6399817" lon="8.8390317"><ele>271.6</ele><time>2026-05-01T12:17:59.531Z</time></trkpt><trkpt lat="39.6399433" lon="8.8391533"><ele>270.8</ele><time>2026-05-01T12:18:00.53Z</time></trkpt><trkpt lat="39.639905" lon="8.8392667"><ele>270.0</ele><time>2026-05-01T12:18:01.53Z</time></trkpt><trkpt lat="39.6398667" lon="8.8393717"><ele>269.5</ele><time>2026-05-01T12:18:02.529Z</time></trkpt><trkpt lat="39.6398217" lon="8.8394717"><ele>269.0</ele><time>2026-05-01T12:18:03.532Z</time></trkpt><trkpt lat="39.6397767" lon="8.8395633"><ele>268.5</ele><time>2026-05-01T12:18:04.528Z</time></trkpt><trkpt lat="39.6397267" lon="8.8396467"><ele>268.0</ele><time>2026-05-01T12:18:05.531Z</time></trkpt><trkpt lat="39.639685" lon="8.83972"><ele>267.5</ele><time>2026-05-01T12:18:06.531Z</time></trkpt><trkpt lat="39.6396483" lon="8.83979"><ele>267.0</ele><time>2026-05-01T12:18:07.53Z</time></trkpt><trkpt lat="39.63962" lon="8.8399133"><ele>267.0</ele><time>2026-05-01T12:18:09.532Z</time></trkpt><trkpt lat="39.639665" lon="8.840025"><ele>267.0</ele><time>2026-05-01T12:18:11.53Z</time></trkpt><trkpt lat="39.639765" lon="8.840085"><ele>267.0</ele><time>2026-05-01T12:18:13.531Z</time></trkpt><trkpt lat="39.6398417" lon="8.8400933"><ele>267.0</ele><time>2026-05-01T12:18:14.531Z</time></trkpt><trkpt lat="39.6399267" lon="8.8401017"><ele>267.0</ele><time>2026-05-01T12:18:15.535Z</time></trkpt><trkpt lat="39.6400083" lon="8.840115"><ele>267.1666666666667</ele><time>2026-05-01T12:18:16.528Z</time></trkpt><trkpt lat="39.6400933" lon="8.8401333"><ele>267.3333333333333</ele><time>2026-05-01T12:18:17.532Z</time></trkpt><trkpt lat="39.64018" lon="8.8401683"><ele>267.5</ele><time>2026-05-01T12:18:18.543Z</time></trkpt><trkpt lat="39.6402567" lon="8.8402117"><ele>267.66666666666663</ele><time>2026-05-01T12:18:19.53Z</time></trkpt><trkpt lat="39.64032" lon="8.8402517"><ele>267.8333333333333</ele><time>2026-05-01T12:18:20.531Z</time></trkpt><trkpt lat="39.6403767" lon="8.8402883"><ele>268.0</ele><time>2026-05-01T12:18:21.535Z</time></trkpt><trkpt lat="39.6404167" lon="8.8403667"><ele>268.0</ele><time>2026-05-01T12:18:23.533Z</time></trkpt><trkpt lat="39.6403533" lon="8.8404767"><ele>268.0</ele><time>2026-05-01T12:18:26.535Z</time></trkpt><trkpt lat="39.6402817" lon="8.8405217"><ele>268.0</ele><time>2026-05-01T12:18:27.532Z</time></trkpt><trkpt lat="39.640215" lon="8.840565"><ele>268.0</ele><time>2026-05-01T12:18:28.53Z</time></trkpt><trkpt lat="39.64015" lon="8.840615"><ele>268.0</ele><time>2026-05-01T12:18:29.53Z</time></trkpt><trkpt lat="39.640085" lon="8.8406433"><ele>268.0</ele><time>2026-05-01T12:18:30.541Z</time></trkpt><trkpt lat="39.639995" lon="8.8406633"><ele>268.0</ele><time>2026-05-01T12:18:31.534Z</time></trkpt><trkpt lat="39.6399133" lon="8.8406717"><ele>268.0</ele><time>2026-05-01T12:18:32.532Z</time></trkpt><trkpt lat="39.6398217" lon="8.84065"><ele>268.0</ele><time>2026-05-01T12:18:33.532Z</time></trkpt><trkpt lat="39.639735" lon="8.84063"><ele>268.0</ele><time>2026-05-01T12:18:34.534Z</time></trkpt><trkpt lat="39.6396517" lon="8.8406183"><ele>268.0</ele><time>2026-05-01T12:18:35.534Z</time></trkpt><trkpt lat="39.6395517" lon="8.8405983"><ele>268.0</ele><time>2026-05-01T12:18:36.529Z</time></trkpt><trkpt lat="39.6394367" lon="8.8405867"><ele>270.5</ele><time>2026-05-01T12:18:37.532Z</time></trkpt><trkpt lat="39.63933" lon="8.84057"><ele>273.0</ele><time>2026-05-01T12:18:38.531Z</time></trkpt><trkpt lat="39.6392133" lon="8.840555"><ele>275.5</ele><time>2026-05-01T12:18:39.536Z</time></trkpt><trkpt lat="39.639105" lon="8.8405383"><ele>278.0</ele><time>2026-05-01T12:18:40.534Z</time></trkpt><trkpt lat="39.6389867" lon="8.84052"><ele>278.0</ele><time>2026-05-01T12:18:41.528Z</time></trkpt><trkpt lat="39.6388783" lon="8.8405033"><ele>278.0</ele><time>2026-05-01T12:18:42.534Z</time></trkpt><trkpt lat="39.6387667" lon="8.840485"><ele>278.0</ele><time>2026-05-01T12:18:43.532Z</time></trkpt><trkpt lat="39.6386583" lon="8.840465"><ele>278.0</ele><time>2026-05-01T12:18:44.531Z</time></trkpt><trkpt lat="39.638565" lon="8.8404433"><ele>278.0</ele><time>2026-05-01T12:18:45.533Z</time></trkpt><trkpt lat="39.638475" lon="8.8404133"><ele>279.33333333333337</ele><time>2026-05-01T12:18:46.53Z</time></trkpt><trkpt lat="39.63839" lon="8.84039"><ele>280.6666666666667</ele><time>2026-05-01T12:18:47.531Z</time></trkpt><trkpt lat="39.638305" lon="8.8403833"><ele>282.0</ele><time>2026-05-01T12:18:48.534Z</time></trkpt><trkpt lat="39.6382217" lon="8.84039"><ele>283.3333333333333</ele><time>2026-05-01T12:18:49.532Z</time></trkpt><trkpt lat="39.6381367" lon="8.8404033"><ele>284.66666666666663</ele><time>2026-05-01T12:18:50.537Z</time></trkpt><trkpt lat="39.638045" lon="8.8404283"><ele>286.0</ele><time>2026-05-01T12:18:51.536Z</time></trkpt><trkpt lat="39.6379517" lon="8.8404567"><ele>286.0</ele><time>2026-05-01T12:18:52.53Z</time></trkpt><trkpt lat="39.63785" lon="8.840495"><ele>286.0</ele><time>2026-05-01T12:18:53.533Z</time></trkpt><trkpt lat="39.637755" lon="8.840545"><ele>286.0</ele><time>2026-05-01T12:18:54.539Z</time></trkpt><trkpt lat="39.6376683" lon="8.8406067"><ele>286.0</ele><time>2026-05-01T12:18:55.53Z</time></trkpt><trkpt lat="39.6375933" lon="8.8406767"><ele>286.0</ele><time>2026-05-01T12:18:56.534Z</time></trkpt><trkpt lat="39.63753" lon="8.8407517"><ele>287.40000000000003</ele><time>2026-05-01T12:18:57.534Z</time></trkpt><trkpt lat="39.637485" lon="8.8408133"><ele>288.8</ele><time>2026-05-01T12:18:58.529Z</time></trkpt><trkpt lat="39.6374133" lon="8.840945"><ele>290.20000000000005</ele><time>2026-05-01T12:19:00.534Z</time></trkpt><trkpt lat="39.6373733" lon="8.84101"><ele>291.6</ele><time>2026-05-01T12:19:01.535Z</time></trkpt><trkpt lat="39.6372783" lon="8.8411217"><ele>293.0</ele><time>2026-05-01T12:19:03.53Z</time></trkpt><trkpt lat="39.637215" lon="8.84117"><ele>294.0</ele><time>2026-05-01T12:19:04.535Z</time></trkpt><trkpt lat="39.6371417" lon="8.84121"><ele>295.0</ele><time>2026-05-01T12:19:05.533Z</time></trkpt><trkpt lat="39.637055" lon="8.8412417"><ele>296.0</ele><time>2026-05-01T12:19:06.534Z</time></trkpt><trkpt lat="39.6369633" lon="8.841265"><ele>297.0</ele><time>2026-05-01T12:19:07.528Z</time></trkpt><trkpt lat="39.63687" lon="8.8412867"><ele>298.0</ele><time>2026-05-01T12:19:08.527Z</time></trkpt><trkpt lat="39.636775" lon="8.8413083"><ele>298.8</ele><time>2026-05-01T12:19:09.529Z</time></trkpt><trkpt lat="39.6366783" lon="8.8413267"><ele>299.6</ele><time>2026-05-01T12:19:10.533Z</time></trkpt><trkpt lat="39.6365817" lon="8.841335"><ele>300.4</ele><time>2026-05-01T12:19:11.532Z</time></trkpt><trkpt lat="39.6364883" lon="8.84133"><ele>301.2</ele><time>2026-05-01T12:19:12.531Z</time></trkpt><trkpt lat="39.6363983" lon="8.8413033"><ele>302.0</ele><time>2026-05-01T12:19:13.532Z</time></trkpt><trkpt lat="39.6363117" lon="8.8412617"><ele>302.0</ele><time>2026-05-01T12:19:14.531Z</time></trkpt><trkpt lat="39.6362283" lon="8.8412083"><ele>302.0</ele><time>2026-05-01T12:19:15.532Z</time></trkpt><trkpt lat="39.6361467" lon="8.84114"><ele>302.0</ele><time>2026-05-01T12:19:16.533Z</time></trkpt><trkpt lat="39.6360767" lon="8.8410367"><ele>302.0</ele><time>2026-05-01T12:19:17.533Z</time></trkpt><trkpt lat="39.6360017" lon="8.840955"><ele>302.0</ele><time>2026-05-01T12:19:18.531Z</time></trkpt><trkpt lat="39.63593" lon="8.8408783"><ele>301.2</ele><time>2026-05-01T12:19:19.531Z</time></trkpt><trkpt lat="39.6358483" lon="8.84081"><ele>300.4</ele><time>2026-05-01T12:19:20.531Z</time></trkpt><trkpt lat="39.6357633" lon="8.84075"><ele>299.6</ele><time>2026-05-01T12:19:21.531Z</time></trkpt><trkpt lat="39.6356767" lon="8.8407117"><ele>298.8</ele><time>2026-05-01T12:19:22.529Z</time></trkpt><trkpt lat="39.6355917" lon="8.8406933"><ele>298.0</ele><time>2026-05-01T12:19:23.531Z</time></trkpt><trkpt lat="39.635505" lon="8.84069"><ele>298.0</ele><time>2026-05-01T12:19:24.533Z</time></trkpt><trkpt lat="39.63542" lon="8.8407117"><ele>298.0</ele><time>2026-05-01T12:19:25.531Z</time></trkpt><trkpt lat="39.6353283" lon="8.8407367"><ele>298.0</ele><time>2026-05-01T12:19:26.534Z</time></trkpt><trkpt lat="39.6352283" lon="8.8407617"><ele>298.0</ele><time>2026-05-01T12:19:27.529Z</time></trkpt><trkpt lat="39.63512" lon="8.8407767"><ele>298.0</ele><time>2026-05-01T12:19:28.529Z</time></trkpt><trkpt lat="39.635005" lon="8.8407733"><ele>298.5</ele><time>2026-05-01T12:19:29.536Z</time></trkpt><trkpt lat="39.6348867" lon="8.8407667"><ele>299.0</ele><time>2026-05-01T12:19:30.534Z</time></trkpt><trkpt lat="39.6347633" lon="8.8407517"><ele>299.5</ele><time>2026-05-01T12:19:31.535Z</time></trkpt><trkpt lat="39.6346383" lon="8.8407333"><ele>300.0</ele><time>2026-05-01T12:19:32.531Z</time></trkpt><trkpt lat="39.6345183" lon="8.8407183"><ele>300.4</ele><time>2026-05-01T12:19:33.531Z</time></trkpt><trkpt lat="39.6344083" lon="8.8407067"><ele>300.8</ele><time>2026-05-01T12:19:34.533Z</time></trkpt><trkpt lat="39.6343067" lon="8.840695"><ele>301.2</ele><time>2026-05-01T12:19:35.531Z</time></trkpt><trkpt lat="39.634215" lon="8.840695"><ele>301.6</ele><time>2026-05-01T12:19:36.533Z</time></trkpt><trkpt lat="39.6341367" lon="8.8407033"><ele>302.0</ele><time>2026-05-01T12:19:37.532Z</time></trkpt><trkpt lat="39.6340567" lon="8.8407233"><ele>302.0</ele><time>2026-05-01T12:19:38.532Z</time></trkpt><trkpt lat="39.63397" lon="8.8407617"><ele>302.0</ele><time>2026-05-01T12:19:39.535Z</time></trkpt><trkpt lat="39.6338833" lon="8.84082"><ele>302.0</ele><time>2026-05-01T12:19:40.533Z</time></trkpt><trkpt lat="39.63379" lon="8.8408917"><ele>302.0</ele><time>2026-05-01T12:19:41.532Z</time></trkpt><trkpt lat="39.63369" lon="8.840985"><ele>302.0</ele><time>2026-05-01T12:19:42.527Z</time></trkpt><trkpt lat="39.6335883" lon="8.841085"><ele>302.25</ele><time>2026-05-01T12:19:43.528Z</time></trkpt><trkpt lat="39.6334933" lon="8.8411933"><ele>302.5</ele><time>2026-05-01T12:19:44.528Z</time></trkpt><trkpt lat="39.6334017" lon="8.8413017"><ele>302.75</ele><time>2026-05-01T12:19:45.53Z</time></trkpt><trkpt lat="39.6333133" lon="8.8413967"><ele>303.0</ele><time>2026-05-01T12:19:46.531Z</time></trkpt><trkpt lat="39.6332267" lon="8.8414817"><ele>303.0</ele><time>2026-05-01T12:19:47.529Z</time></trkpt><trkpt lat="39.633135" lon="8.84155"><ele>303.0</ele><time>2026-05-01T12:19:48.533Z</time></trkpt><trkpt lat="39.6330367" lon="8.8415983"><ele>303.0</ele><time>2026-05-01T12:19:49.532Z</time></trkpt><trkpt lat="39.6329283" lon="8.8416317"><ele>303.0</ele><time>2026-05-01T12:19:50.53Z</time></trkpt><trkpt lat="39.63281" lon="8.8416417"><ele>303.0</ele><time>2026-05-01T12:19:51.533Z</time></trkpt><trkpt lat="39.6326867" lon="8.84165"><ele>303.25</ele><time>2026-05-01T12:19:52.534Z</time></trkpt><trkpt lat="39.6325633" lon="8.8416633"><ele>303.5</ele><time>2026-05-01T12:19:53.534Z</time></trkpt><trkpt lat="39.6324433" lon="8.84169"><ele>303.75</ele><time>2026-05-01T12:19:54.532Z</time></trkpt><trkpt lat="39.6323233" lon="8.8417267"><ele>304.0</ele><time>2026-05-01T12:19:55.534Z</time></trkpt><trkpt lat="39.6322033" lon="8.8417783"><ele>304.2</ele><time>2026-05-01T12:19:56.586Z</time></trkpt><trkpt lat="39.6321067" lon="8.8418383"><ele>304.4</ele><time>2026-05-01T12:19:57.529Z</time></trkpt><trkpt lat="39.6320167" lon="8.8419117"><ele>304.6</ele><time>2026-05-01T12:19:58.531Z</time></trkpt><trkpt lat="39.6319367" lon="8.8419967"><ele>304.8</ele><time>2026-05-01T12:19:59.529Z</time></trkpt><trkpt lat="39.6318733" lon="8.8420817"><ele>305.0</ele><time>2026-05-01T12:20:00.531Z</time></trkpt><trkpt lat="39.6318167" lon="8.84216"><ele>305.0</ele><time>2026-05-01T12:20:01.533Z</time></trkpt><trkpt lat="39.6317683" lon="8.84223"><ele>305.0</ele><time>2026-05-01T12:20:02.531Z</time></trkpt><trkpt lat="39.6317217" lon="8.8422917"><ele>305.0</ele><time>2026-05-01T12:20:03.533Z</time></trkpt><trkpt lat="39.6316233" lon="8.842385"><ele>305.0</ele><time>2026-05-01T12:20:05.531Z</time></trkpt><trkpt lat="39.6315183" lon="8.8424367"><ele>305.0</ele><time>2026-05-01T12:20:07.531Z</time></trkpt><trkpt lat="39.631405" lon="8.8424533"><ele>305.0</ele><time>2026-05-01T12:20:09.531Z</time></trkpt><trkpt lat="39.6313067" lon="8.8424717"><ele>305.0</ele><time>2026-05-01T12:20:11.53Z</time></trkpt><trkpt lat="39.6311917" lon="8.84248"><ele>305.0</ele><time>2026-05-01T12:20:13.532Z</time></trkpt><trkpt lat="39.631115" lon="8.8424783"><ele>305.0</ele><time>2026-05-01T12:20:14.53Z</time></trkpt><trkpt lat="39.6310283" lon="8.84247"><ele>305.0</ele><time>2026-05-01T12:20:15.532Z</time></trkpt><trkpt lat="39.630925" lon="8.84245"><ele>301.75</ele><time>2026-05-01T12:20:16.532Z</time></trkpt><trkpt lat="39.6308067" lon="8.842435"><ele>298.5</ele><time>2026-05-01T12:20:17.528Z</time></trkpt><trkpt lat="39.63069" lon="8.8424317"><ele>295.25</ele><time>2026-05-01T12:20:18.534Z</time></trkpt><trkpt lat="39.6305667" lon="8.8424417"><ele>292.0</ele><time>2026-05-01T12:20:19.532Z</time></trkpt><trkpt lat="39.6304517" lon="8.8424617"><ele>292.0</ele><time>2026-05-01T12:20:20.53Z</time></trkpt><trkpt lat="39.6303433" lon="8.8424933"><ele>292.0</ele><time>2026-05-01T12:20:21.529Z</time></trkpt><trkpt lat="39.63024" lon="8.8425333"><ele>292.0</ele><time>2026-05-01T12:20:22.532Z</time></trkpt><trkpt lat="39.6301383" lon="8.84258"><ele>292.0</ele><time>2026-05-01T12:20:23.531Z</time></trkpt><trkpt lat="39.6300383" lon="8.842625"><ele>292.0</ele><time>2026-05-01T12:20:24.536Z</time></trkpt><trkpt lat="39.6299417" lon="8.842675"><ele>291.0</ele><time>2026-05-01T12:20:25.531Z</time></trkpt><trkpt lat="39.6298567" lon="8.8427317"><ele>290.0</ele><time>2026-05-01T12:20:26.533Z</time></trkpt><trkpt lat="39.629775" lon="8.8428017"><ele>289.0</ele><time>2026-05-01T12:20:27.529Z</time></trkpt><trkpt lat="39.6297017" lon="8.8428833"><ele>288.0</ele><time>2026-05-01T12:20:28.528Z</time></trkpt><trkpt lat="39.6296333" lon="8.8429783"><ele>287.0</ele><time>2026-05-01T12:20:29.531Z</time></trkpt><trkpt lat="39.629565" lon="8.843085"><ele>287.0</ele><time>2026-05-01T12:20:30.531Z</time></trkpt><trkpt lat="39.6295017" lon="8.8431967"><ele>287.0</ele><time>2026-05-01T12:20:31.53Z</time></trkpt><trkpt lat="39.6294433" lon="8.8433117"><ele>287.0</ele><time>2026-05-01T12:20:32.531Z</time></trkpt><trkpt lat="39.629395" lon="8.8434233"><ele>287.0</ele><time>2026-05-01T12:20:33.53Z</time></trkpt><trkpt lat="39.6293533" lon="8.84353"><ele>287.0</ele><time>2026-05-01T12:20:34.53Z</time></trkpt><trkpt lat="39.6293183" lon="8.8436267"><ele>285.5</ele><time>2026-05-01T12:20:35.531Z</time></trkpt><trkpt lat="39.629285" lon="8.8437083"><ele>284.0</ele><time>2026-05-01T12:20:36.528Z</time></trkpt><trkpt lat="39.629215" lon="8.8438233"><ele>282.5</ele><time>2026-05-01T12:20:38.532Z</time></trkpt><trkpt lat="39.629105" lon="8.8438283"><ele>281.0</ele><time>2026-05-01T12:20:40.533Z</time></trkpt><trkpt lat="39.6290383" lon="8.8438083"><ele>279.5</ele><time>2026-05-01T12:20:41.53Z</time></trkpt><trkpt lat="39.6289617" lon="8.8437933"><ele>278.0</ele><time>2026-05-01T12:20:42.536Z</time></trkpt><trkpt lat="39.6288767" lon="8.8437817"><ele>278.0</ele><time>2026-05-01T12:20:43.532Z</time></trkpt><trkpt lat="39.6287867" lon="8.8437817"><ele>278.0</ele><time>2026-05-01T12:20:44.533Z</time></trkpt><trkpt lat="39.6286967" lon="8.8437933"><ele>278.0</ele><time>2026-05-01T12:20:45.533Z</time></trkpt><trkpt lat="39.6286117" lon="8.8438183"><ele>278.0</ele><time>2026-05-01T12:20:46.532Z</time></trkpt><trkpt lat="39.6285317" lon="8.843845"><ele>278.0</ele><time>2026-05-01T12:20:47.533Z</time></trkpt><trkpt lat="39.6284533" lon="8.8438767"><ele>278.0</ele><time>2026-05-01T12:20:48.534Z</time></trkpt><trkpt lat="39.628375" lon="8.8439217"><ele>276.33333333333337</ele><time>2026-05-01T12:20:49.532Z</time></trkpt><trkpt lat="39.6282967" lon="8.8439817"><ele>274.6666666666667</ele><time>2026-05-01T12:20:50.532Z</time></trkpt><trkpt lat="39.6282133" lon="8.8440467"><ele>273.0</ele><time>2026-05-01T12:20:51.531Z</time></trkpt><trkpt lat="39.628135" lon="8.8441133"><ele>271.3333333333333</ele><time>2026-05-01T12:20:52.528Z</time></trkpt><trkpt lat="39.62807" lon="8.84418"><ele>269.66666666666663</ele><time>2026-05-01T12:20:53.531Z</time></trkpt><trkpt lat="39.6280117" lon="8.8442383"><ele>268.0</ele><time>2026-05-01T12:20:54.534Z</time></trkpt><trkpt lat="39.6279583" lon="8.844285"><ele>268.66666666666663</ele><time>2026-05-01T12:20:55.532Z</time></trkpt><trkpt lat="39.627845" lon="8.844335"><ele>269.3333333333333</ele><time>2026-05-01T12:20:57.531Z</time></trkpt><trkpt lat="39.6277817" lon="8.8443383"><ele>270.0</ele><time>2026-05-01T12:20:58.531Z</time></trkpt><trkpt lat="39.6277117" lon="8.844335"><ele>270.6666666666667</ele><time>2026-05-01T12:20:59.531Z</time></trkpt><trkpt lat="39.6276317" lon="8.8443267"><ele>271.33333333333337</ele><time>2026-05-01T12:21:00.532Z</time></trkpt><trkpt lat="39.6275417" lon="8.8443267"><ele>272.0</ele><time>2026-05-01T12:21:01.532Z</time></trkpt><trkpt lat="39.6274467" lon="8.8443333"><ele>273.2</ele><time>2026-05-01T12:21:02.53Z</time></trkpt><trkpt lat="39.6273533" lon="8.8443533"><ele>274.4</ele><time>2026-05-01T12:21:03.533Z</time></trkpt><trkpt lat="39.627255" lon="8.8443833"><ele>275.6</ele><time>2026-05-01T12:21:04.537Z</time></trkpt><trkpt lat="39.62716" lon="8.8444167"><ele>276.8</ele><time>2026-05-01T12:21:05.529Z</time></trkpt><trkpt lat="39.62706" lon="8.84445"><ele>278.0</ele><time>2026-05-01T12:21:06.532Z</time></trkpt><trkpt lat="39.6269667" lon="8.84448"><ele>278.2</ele><time>2026-05-01T12:21:07.533Z</time></trkpt><trkpt lat="39.626875" lon="8.844505"><ele>278.4</ele><time>2026-05-01T12:21:08.529Z</time></trkpt><trkpt lat="39.6267817" lon="8.84453"><ele>278.59999999999997</ele><time>2026-05-01T12:21:09.528Z</time></trkpt><trkpt lat="39.6266883" lon="8.844555"><ele>278.8</ele><time>2026-05-01T12:21:10.531Z</time></trkpt><trkpt lat="39.6265967" lon="8.8445783"><ele>279.0</ele><time>2026-05-01T12:21:11.531Z</time></trkpt><trkpt lat="39.6265117" lon="8.8445917"><ele>279.0</ele><time>2026-05-01T12:21:12.536Z</time></trkpt><trkpt lat="39.62643" lon="8.8446117"><ele>279.0</ele><time>2026-05-01T12:21:13.53Z</time></trkpt><trkpt lat="39.62635" lon="8.8446267"><ele>279.0</ele><time>2026-05-01T12:21:14.533Z</time></trkpt><trkpt lat="39.6262767" lon="8.8446333"><ele>279.0</ele><time>2026-05-01T12:21:15.532Z</time></trkpt><trkpt lat="39.626165" lon="8.8446617"><ele>279.0</ele><time>2026-05-01T12:21:17.537Z</time></trkpt><trkpt lat="39.6260517" lon="8.84472"><ele>278.1666666666667</ele><time>2026-05-01T12:21:19.527Z</time></trkpt><trkpt lat="39.62599" lon="8.8447633"><ele>277.3333333333333</ele><time>2026-05-01T12:21:20.53Z</time></trkpt><trkpt lat="39.6259167" lon="8.8448117"><ele>276.5</ele><time>2026-05-01T12:21:21.53Z</time></trkpt><trkpt lat="39.6258367" lon="8.8448683"><ele>275.66666666666663</ele><time>2026-05-01T12:21:22.529Z</time></trkpt><trkpt lat="39.6257517" lon="8.8449267"><ele>274.8333333333333</ele><time>2026-05-01T12:21:23.532Z</time></trkpt><trkpt lat="39.6256667" lon="8.8449833"><ele>274.0</ele><time>2026-05-01T12:21:24.54Z</time></trkpt><trkpt lat="39.62558" lon="8.8450433"><ele>274.0</ele><time>2026-05-01T12:21:25.533Z</time></trkpt><trkpt lat="39.6254917" lon="8.8450917"><ele>274.0</ele><time>2026-05-01T12:21:26.531Z</time></trkpt><trkpt lat="39.625405" lon="8.8451317"><ele>274.0</ele><time>2026-05-01T12:21:27.534Z</time></trkpt><trkpt lat="39.6253217" lon="8.8451633"><ele>274.0</ele><time>2026-05-01T12:21:28.531Z</time></trkpt><trkpt lat="39.6252383" lon="8.84519"><ele>274.0</ele><time>2026-05-01T12:21:29.532Z</time></trkpt><trkpt lat="39.6251533" lon="8.8452117"><ele>274.0</ele><time>2026-05-01T12:21:30.531Z</time></trkpt><trkpt lat="39.6250783" lon="8.84522"><ele>272.4</ele><time>2026-05-01T12:21:31.533Z</time></trkpt><trkpt lat="39.6250117" lon="8.8452183"><ele>270.79999999999995</ele><time>2026-05-01T12:21:32.532Z</time></trkpt><trkpt lat="39.6249067" lon="8.8451683"><ele>269.20000000000005</ele><time>2026-05-01T12:21:34.53Z</time></trkpt><trkpt lat="39.6248117" lon="8.8450483"><ele>267.6</ele><time>2026-05-01T12:21:36.531Z</time></trkpt><trkpt lat="39.6247483" lon="8.8449817"><ele>266.0</ele><time>2026-05-01T12:21:37.532Z</time></trkpt><trkpt lat="39.6246783" lon="8.84492"><ele>266.0</ele><time>2026-05-01T12:21:38.53Z</time></trkpt><trkpt lat="39.6246083" lon="8.8448733"><ele>266.0</ele><time>2026-05-01T12:21:39.531Z</time></trkpt><trkpt lat="39.6245333" lon="8.8448383"><ele>266.0</ele><time>2026-05-01T12:21:40.53Z</time></trkpt><trkpt lat="39.624455" lon="8.8448217"><ele>266.0</ele><time>2026-05-01T12:21:41.533Z</time></trkpt><trkpt lat="39.6243767" lon="8.8448217"><ele>266.0</ele><time>2026-05-01T12:21:42.533Z</time></trkpt><trkpt lat="39.6243083" lon="8.84483"><ele>266.0</ele><time>2026-05-01T12:21:43.533Z</time></trkpt><trkpt lat="39.6242467" lon="8.844855"><ele>266.0</ele><time>2026-05-01T12:21:44.529Z</time></trkpt><trkpt lat="39.62416" lon="8.8449367"><ele>264.2</ele><time>2026-05-01T12:21:46.529Z</time></trkpt><trkpt lat="39.6240867" lon="8.8450317"><ele>262.40000000000003</ele><time>2026-05-01T12:21:48.533Z</time></trkpt><trkpt lat="39.6240117" lon="8.8450917"><ele>260.6</ele><time>2026-05-01T12:21:50.532Z</time></trkpt><trkpt lat="39.6239217" lon="8.845135"><ele>258.8</ele><time>2026-05-01T12:21:52.531Z</time></trkpt><trkpt lat="39.6238167" lon="8.8451567"><ele>257.0</ele><time>2026-05-01T12:21:54.53Z</time></trkpt><trkpt lat="39.6237133" lon="8.8451567"><ele>256.6</ele><time>2026-05-01T12:21:56.528Z</time></trkpt><trkpt lat="39.6236167" lon="8.8451617"><ele>256.2</ele><time>2026-05-01T12:21:58.528Z</time></trkpt><trkpt lat="39.6235117" lon="8.8451517"><ele>255.8</ele><time>2026-05-01T12:22:00.532Z</time></trkpt><trkpt lat="39.6234" lon="8.8451367"><ele>255.4</ele><time>2026-05-01T12:22:02.53Z</time></trkpt><trkpt lat="39.62329" lon="8.8451267"><ele>255.0</ele><time>2026-05-01T12:22:04.534Z</time></trkpt><trkpt lat="39.6232217" lon="8.845125"><ele>254.16666666666666</ele><time>2026-05-01T12:22:05.531Z</time></trkpt><trkpt lat="39.62315" lon="8.845125"><ele>253.33333333333331</ele><time>2026-05-01T12:22:06.532Z</time></trkpt><trkpt lat="39.6230717" lon="8.8451233"><ele>252.5</ele><time>2026-05-01T12:22:07.528Z</time></trkpt><trkpt lat="39.6229933" lon="8.8451167"><ele>251.66666666666666</ele><time>2026-05-01T12:22:08.529Z</time></trkpt><trkpt lat="39.6229167" lon="8.845105"><ele>250.83333333333331</ele><time>2026-05-01T12:22:09.528Z</time></trkpt><trkpt lat="39.6228417" lon="8.845095"><ele>250.0</ele><time>2026-05-01T12:22:10.532Z</time></trkpt><trkpt lat="39.6227683" lon="8.8450867"><ele>249.16666666666666</ele><time>2026-05-01T12:22:11.528Z</time></trkpt><trkpt lat="39.6226983" lon="8.8450767"><ele>248.33333333333331</ele><time>2026-05-01T12:22:12.529Z</time></trkpt><trkpt lat="39.6226267" lon="8.8450717"><ele>247.5</ele><time>2026-05-01T12:22:13.534Z</time></trkpt><trkpt lat="39.6225533" lon="8.8450633"><ele>246.66666666666669</ele><time>2026-05-01T12:22:14.531Z</time></trkpt><trkpt lat="39.6224783" lon="8.8450533"><ele>245.83333333333334</ele><time>2026-05-01T12:22:15.53Z</time></trkpt><trkpt lat="39.6224033" lon="8.845035"><ele>245.0</ele><time>2026-05-01T12:22:16.532Z</time></trkpt><trkpt lat="39.6223217" lon="8.8450067"><ele>245.0</ele><time>2026-05-01T12:22:17.529Z</time></trkpt><trkpt lat="39.622235" lon="8.8449833"><ele>245.0</ele><time>2026-05-01T12:22:18.529Z</time></trkpt><trkpt lat="39.6221467" lon="8.8449467"><ele>245.0</ele><time>2026-05-01T12:22:19.528Z</time></trkpt><trkpt lat="39.62206" lon="8.844915"><ele>245.0</ele><time>2026-05-01T12:22:20.529Z</time></trkpt><trkpt lat="39.62197" lon="8.84488"><ele>245.0</ele><time>2026-05-01T12:22:21.533Z</time></trkpt><trkpt lat="39.6218767" lon="8.844845"><ele>243.8</ele><time>2026-05-01T12:22:22.53Z</time></trkpt><trkpt lat="39.6217883" lon="8.8448083"><ele>242.6</ele><time>2026-05-01T12:22:23.531Z</time></trkpt><trkpt lat="39.6216983" lon="8.8447783"><ele>241.39999999999998</ele><time>2026-05-01T12:22:24.528Z</time></trkpt><trkpt lat="39.6216" lon="8.8447317"><ele>240.2</ele><time>2026-05-01T12:22:25.529Z</time></trkpt><trkpt lat="39.62151" lon="8.8446967"><ele>239.0</ele><time>2026-05-01T12:22:26.584Z</time></trkpt><trkpt lat="39.6214217" lon="8.8446667"><ele>239.00000000000003</ele><time>2026-05-01T12:22:27.528Z</time></trkpt><trkpt lat="39.62134" lon="8.8446433"><ele>239.0</ele><time>2026-05-01T12:22:28.532Z</time></trkpt><trkpt lat="39.6212633" lon="8.844615"><ele>239.00000000000003</ele><time>2026-05-01T12:22:29.528Z</time></trkpt><trkpt lat="39.62119" lon="8.84458"><ele>239.00000000000003</ele><time>2026-05-01T12:22:30.533Z</time></trkpt><trkpt lat="39.621125" lon="8.8445417"><ele>239.0</ele><time>2026-05-01T12:22:31.531Z</time></trkpt><trkpt lat="39.6210667" lon="8.8444983"><ele>239.00000000000003</ele><time>2026-05-01T12:22:32.533Z</time></trkpt><trkpt lat="39.6210083" lon="8.8444517"><ele>239.00000000000003</ele><time>2026-05-01T12:22:33.532Z</time></trkpt><trkpt lat="39.6209483" lon="8.8444033"><ele>238.50000000000003</ele><time>2026-05-01T12:22:34.529Z</time></trkpt><trkpt lat="39.6208883" lon="8.8443467"><ele>238.0</ele><time>2026-05-01T12:22:35.529Z</time></trkpt><trkpt lat="39.6208283" lon="8.8442933"><ele>237.5</ele><time>2026-05-01T12:22:36.526Z</time></trkpt><trkpt lat="39.6207683" lon="8.8442383"><ele>237.0</ele><time>2026-05-01T12:22:37.529Z</time></trkpt><trkpt lat="39.62071" lon="8.8441733"><ele>236.50000000000003</ele><time>2026-05-01T12:22:38.532Z</time></trkpt><trkpt lat="39.6206567" lon="8.8441017"><ele>236.0</ele><time>2026-05-01T12:22:39.526Z</time></trkpt><trkpt lat="39.6206083" lon="8.8440183"><ele>234.83333333333334</ele><time>2026-05-01T12:22:40.529Z</time></trkpt><trkpt lat="39.6205617" lon="8.84393"><ele>233.66666666666669</ele><time>2026-05-01T12:22:41.527Z</time></trkpt><trkpt lat="39.6205233" lon="8.8438483"><ele>232.5</ele><time>2026-05-01T12:22:42.531Z</time></trkpt><trkpt lat="39.62049" lon="8.8437583"><ele>231.33333333333331</ele><time>2026-05-01T12:22:43.532Z</time></trkpt><trkpt lat="39.620455" lon="8.84367"><ele>230.16666666666666</ele><time>2026-05-01T12:22:44.531Z</time></trkpt><trkpt lat="39.620415" lon="8.8435733"><ele>229.0</ele><time>2026-05-01T12:22:45.532Z</time></trkpt><trkpt lat="39.6203733" lon="8.8434833"><ele>228.28571428571428</ele><time>2026-05-01T12:22:46.532Z</time></trkpt><trkpt lat="39.6203217" lon="8.8433983"><ele>227.57142857142858</ele><time>2026-05-01T12:22:47.527Z</time></trkpt><trkpt lat="39.62027" lon="8.843315"><ele>226.85714285714286</ele><time>2026-05-01T12:22:48.53Z</time></trkpt><trkpt lat="39.6202183" lon="8.8432417"><ele>226.14285714285714</ele><time>2026-05-01T12:22:49.533Z</time></trkpt><trkpt lat="39.6201667" lon="8.8431783"><ele>225.42857142857144</ele><time>2026-05-01T12:22:50.531Z</time></trkpt><trkpt lat="39.6201117" lon="8.8431317"><ele>224.71428571428572</ele><time>2026-05-01T12:22:51.53Z</time></trkpt><trkpt lat="39.62005" lon="8.8430917"><ele>224.0</ele><time>2026-05-01T12:22:52.531Z</time></trkpt><trkpt lat="39.6199883" lon="8.8430683"><ele>224.00000000000003</ele><time>2026-05-01T12:22:53.532Z</time></trkpt><trkpt lat="39.6199183" lon="8.843045"><ele>224.0</ele><time>2026-05-01T12:22:54.535Z</time></trkpt><trkpt lat="39.6198433" lon="8.84303"><ele>224.0</ele><time>2026-05-01T12:22:55.531Z</time></trkpt><trkpt lat="39.6197683" lon="8.8430217"><ele>224.0</ele><time>2026-05-01T12:22:56.529Z</time></trkpt><trkpt lat="39.6196933" lon="8.8430133"><ele>224.00000000000003</ele><time>2026-05-01T12:22:57.533Z</time></trkpt><trkpt lat="39.619615" lon="8.8430033"><ele>224.0</ele><time>2026-05-01T12:22:58.531Z</time></trkpt><trkpt lat="39.61954" lon="8.8429867"><ele>224.00000000000003</ele><time>2026-05-01T12:22:59.529Z</time></trkpt><trkpt lat="39.6194617" lon="8.8429633"><ele>224.0</ele><time>2026-05-01T12:23:00.529Z</time></trkpt><trkpt lat="39.619385" lon="8.842935"><ele>224.0</ele><time>2026-05-01T12:23:01.53Z</time></trkpt><trkpt lat="39.61931" lon="8.8429"><ele>224.0</ele><time>2026-05-01T12:23:02.531Z</time></trkpt><trkpt lat="39.6192367" lon="8.8428633"><ele>224.00000000000003</ele><time>2026-05-01T12:23:03.533Z</time></trkpt><trkpt lat="39.6191583" lon="8.8428317"><ele>224.0</ele><time>2026-05-01T12:23:04.531Z</time></trkpt><trkpt lat="39.619075" lon="8.8428017"><ele>224.0</ele><time>2026-05-01T12:23:05.534Z</time></trkpt><trkpt lat="39.6189867" lon="8.8427767"><ele>223.99999999999997</ele><time>2026-05-01T12:23:06.534Z</time></trkpt><trkpt lat="39.61889" lon="8.8427583"><ele>223.99999999999997</ele><time>2026-05-01T12:23:07.532Z</time></trkpt><trkpt lat="39.6187933" lon="8.8427433"><ele>224.0</ele><time>2026-05-01T12:23:08.531Z</time></trkpt><trkpt lat="39.6186933" lon="8.842735"><ele>224.0</ele><time>2026-05-01T12:23:09.531Z</time></trkpt><trkpt lat="39.6185967" lon="8.8427267"><ele>223.00000000000003</ele><time>2026-05-01T12:23:10.528Z</time></trkpt><trkpt lat="39.6185" lon="8.8427167"><ele>222.0</ele><time>2026-05-01T12:23:11.527Z</time></trkpt><trkpt lat="39.6184067" lon="8.842705"><ele>221.0</ele><time>2026-05-01T12:23:12.529Z</time></trkpt><trkpt lat="39.6183167" lon="8.84269"><ele>220.0</ele><time>2026-05-01T12:23:13.533Z</time></trkpt><trkpt lat="39.6182333" lon="8.8426767"><ele>219.00000000000003</ele><time>2026-05-01T12:23:14.532Z</time></trkpt><trkpt lat="39.6181583" lon="8.8426617"><ele>218.0</ele><time>2026-05-01T12:23:15.53Z</time></trkpt><trkpt lat="39.6180883" lon="8.84264"><ele>216.2</ele><time>2026-05-01T12:23:16.529Z</time></trkpt><trkpt lat="39.6180217" lon="8.8426233"><ele>214.4</ele><time>2026-05-01T12:23:17.533Z</time></trkpt><trkpt lat="39.6179533" lon="8.8426183"><ele>212.6</ele><time>2026-05-01T12:23:18.534Z</time></trkpt><trkpt lat="39.617855" lon="8.8426183"><ele>210.79999999999998</ele><time>2026-05-01T12:23:20.534Z</time></trkpt><trkpt lat="39.6176667" lon="8.8426767"><ele>209.0</ele><time>2026-05-01T12:23:43.532Z</time></trkpt><trkpt lat="39.6175783" lon="8.8427283"><ele>208.5</ele><time>2026-05-01T12:23:44.533Z</time></trkpt><trkpt lat="39.617475" lon="8.84279"><ele>208.0</ele><time>2026-05-01T12:23:45.53Z</time></trkpt><trkpt lat="39.61736" lon="8.8428483"><ele>207.5</ele><time>2026-05-01T12:23:46.529Z</time></trkpt><trkpt lat="39.6172517" lon="8.8429133"><ele>207.0</ele><time>2026-05-01T12:23:47.53Z</time></trkpt><trkpt lat="39.6171483" lon="8.8429883"><ele>207.0</ele><time>2026-05-01T12:23:48.533Z</time></trkpt><trkpt lat="39.61704" lon="8.8430767"><ele>207.0</ele><time>2026-05-01T12:23:49.529Z</time></trkpt><trkpt lat="39.616925" lon="8.843175"><ele>207.0</ele><time>2026-05-01T12:23:50.532Z</time></trkpt><trkpt lat="39.61682" lon="8.8432633"><ele>207.0</ele><time>2026-05-01T12:23:51.533Z</time></trkpt><trkpt lat="39.6167167" lon="8.8433567"><ele>206.25</ele><time>2026-05-01T12:23:52.53Z</time></trkpt><trkpt lat="39.6166217" lon="8.8434617"><ele>205.5</ele><time>2026-05-01T12:23:53.533Z</time></trkpt><trkpt lat="39.6165333" lon="8.8435767"><ele>204.75</ele><time>2026-05-01T12:23:54.535Z</time></trkpt><trkpt lat="39.6164533" lon="8.8436983"><ele>204.0</ele><time>2026-05-01T12:23:55.53Z</time></trkpt><trkpt lat="39.6163767" lon="8.8438233"><ele>204.0</ele><time>2026-05-01T12:23:56.531Z</time></trkpt><trkpt lat="39.616305" lon="8.8439517"><ele>204.0</ele><time>2026-05-01T12:23:57.529Z</time></trkpt><trkpt lat="39.61624" lon="8.8440867"><ele>204.0</ele><time>2026-05-01T12:23:58.529Z</time></trkpt><trkpt lat="39.616175" lon="8.8442217"><ele>204.0</ele><time>2026-05-01T12:23:59.531Z</time></trkpt><trkpt lat="39.6161133" lon="8.844345"><ele>202.79999999999998</ele><time>2026-05-01T12:24:00.531Z</time></trkpt><trkpt lat="39.616055" lon="8.8444533"><ele>201.6</ele><time>2026-05-01T12:24:01.533Z</time></trkpt><trkpt lat="39.616005" lon="8.8445533"><ele>200.4</ele><time>2026-05-01T12:24:02.533Z</time></trkpt><trkpt lat="39.6159617" lon="8.844655"><ele>199.2</ele><time>2026-05-01T12:24:03.531Z</time></trkpt><trkpt lat="39.6159233" lon="8.8447633"><ele>198.0</ele><time>2026-05-01T12:24:04.532Z</time></trkpt><trkpt lat="39.6158917" lon="8.8448833"><ele>198.0</ele><time>2026-05-01T12:24:05.531Z</time></trkpt><trkpt lat="39.6158617" lon="8.84501"><ele>198.0</ele><time>2026-05-01T12:24:06.532Z</time></trkpt><trkpt lat="39.6158317" lon="8.8451433"><ele>198.0</ele><time>2026-05-01T12:24:07.533Z</time></trkpt><trkpt lat="39.6157983" lon="8.8452833"><ele>198.0</ele><time>2026-05-01T12:24:08.533Z</time></trkpt><trkpt lat="39.6157667" lon="8.84543"><ele>198.0</ele><time>2026-05-01T12:24:09.532Z</time></trkpt><trkpt lat="39.6157383" lon="8.8455883"><ele>198.5</ele><time>2026-05-01T12:24:10.528Z</time></trkpt><trkpt lat="39.6157117" lon="8.8457533"><ele>199.0</ele><time>2026-05-01T12:24:11.528Z</time></trkpt><trkpt lat="39.615675" lon="8.8459517"><ele>199.5</ele><time>2026-05-01T12:24:12.53Z</time></trkpt><trkpt lat="39.6156467" lon="8.84613"><ele>200.0</ele><time>2026-05-01T12:24:13.53Z</time></trkpt><trkpt lat="39.615635" lon="8.8463017"><ele>200.4</ele><time>2026-05-01T12:24:14.531Z</time></trkpt><trkpt lat="39.6156283" lon="8.8464583"><ele>200.8</ele><time>2026-05-01T12:24:15.533Z</time></trkpt><trkpt lat="39.6156233" lon="8.8466017"><ele>201.2</ele><time>2026-05-01T12:24:16.53Z</time></trkpt><trkpt lat="39.61562" lon="8.84672"><ele>201.6</ele><time>2026-05-01T12:24:17.531Z</time></trkpt><trkpt lat="39.615625" lon="8.8468283"><ele>202.0</ele><time>2026-05-01T12:24:18.534Z</time></trkpt><trkpt lat="39.6156283" lon="8.84692"><ele>202.0</ele><time>2026-05-01T12:24:19.534Z</time></trkpt><trkpt lat="39.6156317" lon="8.8470083"><ele>202.0</ele><time>2026-05-01T12:24:20.532Z</time></trkpt><trkpt lat="39.6156083" lon="8.8471467"><ele>202.0</ele><time>2026-05-01T12:24:22.53Z</time></trkpt><trkpt lat="39.6155583" lon="8.8472617"><ele>202.0</ele><time>2026-05-01T12:24:24.533Z</time></trkpt><trkpt lat="39.6154833" lon="8.8473767"><ele>202.0</ele><time>2026-05-01T12:24:26.533Z</time></trkpt><trkpt lat="39.615405" lon="8.8474817"><ele>202.0</ele><time>2026-05-01T12:24:28.535Z</time></trkpt><trkpt lat="39.6153317" lon="8.847565"><ele>202.0</ele><time>2026-05-01T12:24:30.531Z</time></trkpt><trkpt lat="39.6152467" lon="8.8476233"><ele>202.0</ele><time>2026-05-01T12:24:32.532Z</time></trkpt><trkpt lat="39.615155" lon="8.8476817"><ele>202.0</ele><time>2026-05-01T12:24:34.533Z</time></trkpt><trkpt lat="39.61506" lon="8.8477633"><ele>202.0</ele><time>2026-05-01T12:24:36.53Z</time></trkpt><trkpt lat="39.615005" lon="8.847805"><ele>201.2</ele><time>2026-05-01T12:24:37.532Z</time></trkpt><trkpt lat="39.6149033" lon="8.8478883"><ele>200.39999999999998</ele><time>2026-05-01T12:24:39.531Z</time></trkpt><trkpt lat="39.6148433" lon="8.8479333"><ele>199.60000000000002</ele><time>2026-05-01T12:24:41.531Z</time></trkpt><trkpt lat="39.6147767" lon="8.8479483"><ele>198.8</ele><time>2026-05-01T12:24:48.532Z</time></trkpt><trkpt lat="39.614655" lon="8.847925"><ele>198.0</ele><time>2026-05-01T12:24:50.531Z</time></trkpt><trkpt lat="39.6145617" lon="8.8478967"><ele>197.0</ele><time>2026-05-01T12:24:51.532Z</time></trkpt><trkpt lat="39.6144467" lon="8.8478667"><ele>196.0</ele><time>2026-05-01T12:24:52.532Z</time></trkpt><trkpt lat="39.6143" lon="8.8478333"><ele>195.0</ele><time>2026-05-01T12:24:53.531Z</time></trkpt><trkpt lat="39.6141467" lon="8.8478017"><ele>194.0</ele><time>2026-05-01T12:24:54.53Z</time></trkpt><trkpt lat="39.6139817" lon="8.8477617"><ele>194.0</ele><time>2026-05-01T12:24:55.53Z</time></trkpt><trkpt lat="39.6138133" lon="8.847715"><ele>194.0</ele><time>2026-05-01T12:24:56.589Z</time></trkpt><trkpt lat="39.6136317" lon="8.847655"><ele>194.0</ele><time>2026-05-01T12:24:57.533Z</time></trkpt><trkpt lat="39.6134433" lon="8.847595"><ele>192.66666666666669</ele><time>2026-05-01T12:24:58.529Z</time></trkpt><trkpt lat="39.6132433" lon="8.8475367"><ele>191.33333333333334</ele><time>2026-05-01T12:24:59.531Z</time></trkpt><trkpt lat="39.6130383" lon="8.8474783"><ele>190.0</ele><time>2026-05-01T12:25:00.529Z</time></trkpt><trkpt lat="39.6128383" lon="8.8474167"><ele>189.0</ele><time>2026-05-01T12:25:01.531Z</time></trkpt><trkpt lat="39.61264" lon="8.847355"><ele>188.0</ele><time>2026-05-01T12:25:02.528Z</time></trkpt><trkpt lat="39.61245" lon="8.8473017"><ele>187.0</ele><time>2026-05-01T12:25:03.531Z</time></trkpt><trkpt lat="39.61227" lon="8.8472517"><ele>187.0</ele><time>2026-05-01T12:25:04.535Z</time></trkpt><trkpt lat="39.6120883" lon="8.84719"><ele>187.0</ele><time>2026-05-01T12:25:05.536Z</time></trkpt><trkpt lat="39.6119183" lon="8.8471517"><ele>187.0</ele><time>2026-05-01T12:25:06.53Z</time></trkpt><trkpt lat="39.6117633" lon="8.8471017"><ele>186.6</ele><time>2026-05-01T12:25:07.528Z</time></trkpt><trkpt lat="39.6116433" lon="8.8470617"><ele>186.2</ele><time>2026-05-01T12:25:08.528Z</time></trkpt><trkpt lat="39.611535" lon="8.84703"><ele>185.8</ele><time>2026-05-01T12:25:09.531Z</time></trkpt><trkpt lat="39.6114433" lon="8.8470017"><ele>185.4</ele><time>2026-05-01T12:25:10.53Z</time></trkpt><trkpt lat="39.6113583" lon="8.84697"><ele>185.0</ele><time>2026-05-01T12:25:11.53Z</time></trkpt><trkpt lat="39.61124" lon="8.8469533"><ele>185.0</ele><time>2026-05-01T12:25:13.527Z</time></trkpt><trkpt lat="39.61119" lon="8.84703"><ele>185.0</ele><time>2026-05-01T12:25:15.53Z</time></trkpt><trkpt lat="39.6112167" lon="8.8471733"><ele>185.0</ele><time>2026-05-01T12:25:17.532Z</time></trkpt><trkpt lat="39.611255" lon="8.8473083"><ele>185.0</ele><time>2026-05-01T12:25:19.531Z</time></trkpt><trkpt lat="39.6112867" lon="8.8474217"><ele>185.0</ele><time>2026-05-01T12:25:21.538Z</time></trkpt><trkpt lat="39.6113183" lon="8.84753"><ele>185.2</ele><time>2026-05-01T12:25:23.531Z</time></trkpt><trkpt lat="39.6113483" lon="8.8476317"><ele>185.4</ele><time>2026-05-01T12:25:25.532Z</time></trkpt><trkpt lat="39.611365" lon="8.8477467"><ele>185.60000000000002</ele><time>2026-05-01T12:25:27.532Z</time></trkpt><trkpt lat="39.611355" lon="8.8478517"><ele>185.8</ele><time>2026-05-01T12:25:29.531Z</time></trkpt><trkpt lat="39.61133" lon="8.8479867"><ele>186.0</ele><time>2026-05-01T12:25:42.535Z</time></trkpt><trkpt lat="39.6112967" lon="8.8480967"><ele>186.00000000000003</ele><time>2026-05-01T12:25:44.528Z</time></trkpt><trkpt lat="39.6112583" lon="8.848175"><ele>186.0</ele><time>2026-05-01T12:25:45.528Z</time></trkpt><trkpt lat="39.6112233" lon="8.8482583"><ele>186.0</ele><time>2026-05-01T12:25:46.532Z</time></trkpt><trkpt lat="39.61119" lon="8.8483517"><ele>186.0</ele><time>2026-05-01T12:25:47.53Z</time></trkpt><trkpt lat="39.61115" lon="8.8484217"><ele>186.0</ele><time>2026-05-01T12:25:48.529Z</time></trkpt><trkpt lat="39.6110983" lon="8.8485033"><ele>186.00000000000003</ele><time>2026-05-01T12:25:49.53Z</time></trkpt><trkpt lat="39.6110417" lon="8.84857"><ele>186.0</ele><time>2026-05-01T12:25:50.531Z</time></trkpt><trkpt lat="39.610975" lon="8.8486267"><ele>186.0</ele><time>2026-05-01T12:25:51.529Z</time></trkpt><trkpt lat="39.61089" lon="8.84868"><ele>186.0</ele><time>2026-05-01T12:25:52.531Z</time></trkpt><trkpt lat="39.610795" lon="8.8487317"><ele>186.0</ele><time>2026-05-01T12:25:53.528Z</time></trkpt><trkpt lat="39.610695" lon="8.8487783"><ele>186.0</ele><time>2026-05-01T12:25:54.53Z</time></trkpt><trkpt lat="39.610595" lon="8.84882"><ele>186.0</ele><time>2026-05-01T12:25:55.53Z</time></trkpt><trkpt lat="39.6105" lon="8.848875"><ele>186.0</ele><time>2026-05-01T12:25:56.532Z</time></trkpt><trkpt lat="39.610395" lon="8.8489417"><ele>186.0</ele><time>2026-05-01T12:25:57.532Z</time></trkpt><trkpt lat="39.610295" lon="8.8490117"><ele>186.0</ele><time>2026-05-01T12:25:58.532Z</time></trkpt><trkpt lat="39.61019" lon="8.8490833"><ele>186.0</ele><time>2026-05-01T12:25:59.53Z</time></trkpt><trkpt lat="39.6100933" lon="8.8491667"><ele>185.25</ele><time>2026-05-01T12:26:00.536Z</time></trkpt><trkpt lat="39.6099983" lon="8.8492433"><ele>184.5</ele><time>2026-05-01T12:26:01.535Z</time></trkpt><trkpt lat="39.6099" lon="8.8493217"><ele>183.75</ele><time>2026-05-01T12:26:02.532Z</time></trkpt><trkpt lat="39.6097967" lon="8.8493983"><ele>183.0</ele><time>2026-05-01T12:26:03.532Z</time></trkpt><trkpt lat="39.60969" lon="8.849475"><ele>183.0</ele><time>2026-05-01T12:26:04.533Z</time></trkpt><trkpt lat="39.609585" lon="8.84955"><ele>183.0</ele><time>2026-05-01T12:26:05.531Z</time></trkpt><trkpt lat="39.6094783" lon="8.849625"><ele>183.0</ele><time>2026-05-01T12:26:06.53Z</time></trkpt><trkpt lat="39.60937" lon="8.8496983"><ele>183.0</ele><time>2026-05-01T12:26:07.531Z</time></trkpt><trkpt lat="39.6092633" lon="8.8497767"><ele>182.0</ele><time>2026-05-01T12:26:08.532Z</time></trkpt><trkpt lat="39.609155" lon="8.8498533"><ele>181.0</ele><time>2026-05-01T12:26:09.53Z</time></trkpt><trkpt lat="39.6090433" lon="8.849925"><ele>180.0</ele><time>2026-05-01T12:26:10.531Z</time></trkpt><trkpt lat="39.6089283" lon="8.84999"><ele>179.0</ele><time>2026-05-01T12:26:11.531Z</time></trkpt><trkpt lat="39.608815" lon="8.8500567"><ele>178.75</ele><time>2026-05-01T12:26:12.531Z</time></trkpt><trkpt lat="39.6087067" lon="8.8501317"><ele>178.5</ele><time>2026-05-01T12:26:13.529Z</time></trkpt><trkpt lat="39.6086017" lon="8.850215"><ele>178.25</ele><time>2026-05-01T12:26:14.532Z</time></trkpt><trkpt lat="39.6084933" lon="8.8502983"><ele>178.0</ele><time>2026-05-01T12:26:15.536Z</time></trkpt><trkpt lat="39.608385" lon="8.85038"><ele>178.0</ele><time>2026-05-01T12:26:16.528Z</time></trkpt><trkpt lat="39.6082783" lon="8.8504633"><ele>178.0</ele><time>2026-05-01T12:26:17.531Z</time></trkpt><trkpt lat="39.60817" lon="8.8505433"><ele>178.0</ele><time>2026-05-01T12:26:18.534Z</time></trkpt><trkpt lat="39.60806" lon="8.8506183"><ele>178.0</ele><time>2026-05-01T12:26:19.531Z</time></trkpt><trkpt lat="39.60795" lon="8.850685"><ele>178.0</ele><time>2026-05-01T12:26:20.531Z</time></trkpt><trkpt lat="39.6078417" lon="8.8507517"><ele>178.0</ele><time>2026-05-01T12:26:21.529Z</time></trkpt><trkpt lat="39.60774" lon="8.8508117"><ele>178.0</ele><time>2026-05-01T12:26:22.531Z</time></trkpt><trkpt lat="39.6076383" lon="8.850865"><ele>178.0</ele><time>2026-05-01T12:26:23.531Z</time></trkpt><trkpt lat="39.607535" lon="8.8509067"><ele>178.0</ele><time>2026-05-01T12:26:24.533Z</time></trkpt><trkpt lat="39.6074333" lon="8.850935"><ele>177.75</ele><time>2026-05-01T12:26:25.531Z</time></trkpt><trkpt lat="39.6073217" lon="8.8509517"><ele>177.5</ele><time>2026-05-01T12:26:26.529Z</time></trkpt><trkpt lat="39.6072033" lon="8.850955"><ele>177.25</ele><time>2026-05-01T12:26:27.532Z</time></trkpt><trkpt lat="39.6070883" lon="8.8509567"><ele>177.0</ele><time>2026-05-01T12:26:28.532Z</time></trkpt><trkpt lat="39.60698" lon="8.8509583"><ele>177.6</ele><time>2026-05-01T12:26:29.532Z</time></trkpt><trkpt lat="39.6068817" lon="8.85097"><ele>178.2</ele><time>2026-05-01T12:26:30.532Z</time></trkpt><trkpt lat="39.6067867" lon="8.8509967"><ele>178.8</ele><time>2026-05-01T12:26:31.533Z</time></trkpt><trkpt lat="39.6067" lon="8.851035"><ele>179.4</ele><time>2026-05-01T12:26:32.533Z</time></trkpt><trkpt lat="39.606615" lon="8.8510783"><ele>180.0</ele><time>2026-05-01T12:26:33.531Z</time></trkpt><trkpt lat="39.60653" lon="8.8511333"><ele>180.0</ele><time>2026-05-01T12:26:34.532Z</time></trkpt><trkpt lat="39.6064467" lon="8.8511983"><ele>180.0</ele><time>2026-05-01T12:26:35.53Z</time></trkpt><trkpt lat="39.6063667" lon="8.8512733"><ele>180.0</ele><time>2026-05-01T12:26:36.532Z</time></trkpt><trkpt lat="39.606285" lon="8.851355"><ele>180.0</ele><time>2026-05-01T12:26:37.531Z</time></trkpt><trkpt lat="39.6062117" lon="8.851445"><ele>180.0</ele><time>2026-05-01T12:26:38.532Z</time></trkpt><trkpt lat="39.6061433" lon="8.8515383"><ele>178.8</ele><time>2026-05-01T12:26:39.531Z</time></trkpt><trkpt lat="39.606085" lon="8.85163"><ele>177.6</ele><time>2026-05-01T12:26:40.53Z</time></trkpt><trkpt lat="39.6060217" lon="8.8517333"><ele>176.39999999999998</ele><time>2026-05-01T12:26:41.531Z</time></trkpt><trkpt lat="39.605955" lon="8.8518333"><ele>175.2</ele><time>2026-05-01T12:26:42.531Z</time></trkpt><trkpt lat="39.6058783" lon="8.8519267"><ele>174.0</ele><time>2026-05-01T12:26:43.529Z</time></trkpt><trkpt lat="39.6057933" lon="8.852025"><ele>174.0</ele><time>2026-05-01T12:26:44.533Z</time></trkpt><trkpt lat="39.6057033" lon="8.852135"><ele>174.0</ele><time>2026-05-01T12:26:45.529Z</time></trkpt><trkpt lat="39.6056217" lon="8.8522533"><ele>174.0</ele><time>2026-05-01T12:26:46.53Z</time></trkpt><trkpt lat="39.6055433" lon="8.85237"><ele>174.0</ele><time>2026-05-01T12:26:47.53Z</time></trkpt><trkpt lat="39.6054717" lon="8.8524783"><ele>174.0</ele><time>2026-05-01T12:26:48.53Z</time></trkpt><trkpt lat="39.6054067" lon="8.8525817"><ele>174.0</ele><time>2026-05-01T12:26:49.53Z</time></trkpt><trkpt lat="39.6053483" lon="8.85268"><ele>174.0</ele><time>2026-05-01T12:26:50.53Z</time></trkpt><trkpt lat="39.6052917" lon="8.8527817"><ele>174.0</ele><time>2026-05-01T12:26:51.532Z</time></trkpt><trkpt lat="39.6052317" lon="8.8528867"><ele>174.0</ele><time>2026-05-01T12:26:52.532Z</time></trkpt><trkpt lat="39.6051667" lon="8.853"><ele>173.75</ele><time>2026-05-01T12:26:53.527Z</time></trkpt><trkpt lat="39.605095" lon="8.8531233"><ele>173.5</ele><time>2026-05-01T12:26:54.531Z</time></trkpt><trkpt lat="39.6050233" lon="8.8532517"><ele>173.25</ele><time>2026-05-01T12:26:55.527Z</time></trkpt><trkpt lat="39.60495" lon="8.8533767"><ele>173.0</ele><time>2026-05-01T12:26:56.529Z</time></trkpt><trkpt lat="39.6048733" lon="8.85349"><ele>172.8</ele><time>2026-05-01T12:26:57.53Z</time></trkpt><trkpt lat="39.6047933" lon="8.85359"><ele>172.60000000000002</ele><time>2026-05-01T12:26:58.53Z</time></trkpt><trkpt lat="39.60471" lon="8.8536783"><ele>172.39999999999998</ele><time>2026-05-01T12:26:59.529Z</time></trkpt><trkpt lat="39.6046283" lon="8.8537533"><ele>172.2</ele><time>2026-05-01T12:27:00.531Z</time></trkpt><trkpt lat="39.6045483" lon="8.853825"><ele>172.0</ele><time>2026-05-01T12:27:01.531Z</time></trkpt><trkpt lat="39.6044733" lon="8.8539"><ele>172.0</ele><time>2026-05-01T12:27:02.533Z</time></trkpt><trkpt lat="39.604405" lon="8.8539767"><ele>172.0</ele><time>2026-05-01T12:27:03.531Z</time></trkpt><trkpt lat="39.6043433" lon="8.8540533"><ele>172.0</ele><time>2026-05-01T12:27:04.529Z</time></trkpt><trkpt lat="39.604295" lon="8.8541217"><ele>172.0</ele><time>2026-05-01T12:27:05.532Z</time></trkpt><trkpt lat="39.6042517" lon="8.8541817"><ele>172.0</ele><time>2026-05-01T12:27:06.532Z</time></trkpt><trkpt lat="39.6041833" lon="8.8542817"><ele>172.0</ele><time>2026-05-01T12:27:08.53Z</time></trkpt><trkpt lat="39.60412" lon="8.8544017"><ele>173.5</ele><time>2026-05-01T12:27:10.529Z</time></trkpt><trkpt lat="39.604085" lon="8.8544817"><ele>175.0</ele><time>2026-05-01T12:27:11.527Z</time></trkpt><trkpt lat="39.60405" lon="8.8545717"><ele>176.5</ele><time>2026-05-01T12:27:12.531Z</time></trkpt><trkpt lat="39.6040133" lon="8.8546683"><ele>178.0</ele><time>2026-05-01T12:27:13.529Z</time></trkpt><trkpt lat="39.6039717" lon="8.8547717"><ele>179.5</ele><time>2026-05-01T12:27:14.53Z</time></trkpt><trkpt lat="39.6039333" lon="8.8548767"><ele>181.0</ele><time>2026-05-01T12:27:15.53Z</time></trkpt><trkpt lat="39.6038933" lon="8.8549867"><ele>181.0</ele><time>2026-05-01T12:27:16.529Z</time></trkpt><trkpt lat="39.6038533" lon="8.8551083"><ele>181.0</ele><time>2026-05-01T12:27:17.53Z</time></trkpt><trkpt lat="39.60382" lon="8.855235"><ele>181.0</ele><time>2026-05-01T12:27:18.529Z</time></trkpt><trkpt lat="39.60379" lon="8.8553567"><ele>181.0</ele><time>2026-05-01T12:27:19.527Z</time></trkpt><trkpt lat="39.6037633" lon="8.855475"><ele>181.0</ele><time>2026-05-01T12:27:20.53Z</time></trkpt><trkpt lat="39.60374" lon="8.8555867"><ele>180.60000000000002</ele><time>2026-05-01T12:27:21.529Z</time></trkpt><trkpt lat="39.6037133" lon="8.8556967"><ele>180.2</ele><time>2026-05-01T12:27:22.53Z</time></trkpt><trkpt lat="39.6036817" lon="8.855805"><ele>179.8</ele><time>2026-05-01T12:27:23.527Z</time></trkpt><trkpt lat="39.6036467" lon="8.855915"><ele>179.39999999999998</ele><time>2026-05-01T12:27:24.53Z</time></trkpt><trkpt lat="39.6035967" lon="8.8560183"><ele>179.0</ele><time>2026-05-01T12:27:25.529Z</time></trkpt><trkpt lat="39.60354" lon="8.856125"><ele>179.0</ele><time>2026-05-01T12:27:26.59Z</time></trkpt><trkpt lat="39.60348" lon="8.856235"><ele>179.0</ele><time>2026-05-01T12:27:27.53Z</time></trkpt><trkpt lat="39.60342" lon="8.856345"><ele>179.0</ele><time>2026-05-01T12:27:28.529Z</time></trkpt><trkpt lat="39.60336" lon="8.8564533"><ele>179.0</ele><time>2026-05-01T12:27:29.53Z</time></trkpt><trkpt lat="39.603305" lon="8.8565617"><ele>179.0</ele><time>2026-05-01T12:27:30.529Z</time></trkpt><trkpt lat="39.6032533" lon="8.856665"><ele>179.0</ele><time>2026-05-01T12:27:31.531Z</time></trkpt><trkpt lat="39.6032017" lon="8.8567617"><ele>179.0</ele><time>2026-05-01T12:27:32.53Z</time></trkpt><trkpt lat="39.6031467" lon="8.8568433"><ele>179.0</ele><time>2026-05-01T12:27:33.53Z</time></trkpt><trkpt lat="39.60309" lon="8.8569083"><ele>179.0</ele><time>2026-05-01T12:27:34.531Z</time></trkpt><trkpt lat="39.60302" lon="8.856965"><ele>179.0</ele><time>2026-05-01T12:27:35.529Z</time></trkpt><trkpt lat="39.602945" lon="8.857015"><ele>179.0</ele><time>2026-05-01T12:27:36.527Z</time></trkpt><trkpt lat="39.602865" lon="8.85707"><ele>178.6</ele><time>2026-05-01T12:27:37.529Z</time></trkpt><trkpt lat="39.6027867" lon="8.8571267"><ele>178.2</ele><time>2026-05-01T12:27:38.531Z</time></trkpt><trkpt lat="39.6027083" lon="8.857195"><ele>177.79999999999998</ele><time>2026-05-01T12:27:39.532Z</time></trkpt><trkpt lat="39.6026267" lon="8.8572717"><ele>177.39999999999998</ele><time>2026-05-01T12:27:40.53Z</time></trkpt><trkpt lat="39.6025483" lon="8.85736"><ele>177.0</ele><time>2026-05-01T12:27:41.532Z</time></trkpt><trkpt lat="39.6024717" lon="8.857465"><ele>177.0</ele><time>2026-05-01T12:27:42.531Z</time></trkpt><trkpt lat="39.6024" lon="8.8575767"><ele>177.0</ele><time>2026-05-01T12:27:43.531Z</time></trkpt><trkpt lat="39.6023267" lon="8.8576933"><ele>177.0</ele><time>2026-05-01T12:27:44.532Z</time></trkpt><trkpt lat="39.6022533" lon="8.8578017"><ele>177.0</ele><time>2026-05-01T12:27:45.532Z</time></trkpt><trkpt lat="39.602185" lon="8.8579033"><ele>177.0</ele><time>2026-05-01T12:27:46.529Z</time></trkpt><trkpt lat="39.602125" lon="8.8579933"><ele>177.16666666666666</ele><time>2026-05-01T12:27:47.53Z</time></trkpt><trkpt lat="39.6020667" lon="8.8580783"><ele>177.33333333333334</ele><time>2026-05-01T12:27:48.529Z</time></trkpt><trkpt lat="39.6020117" lon="8.85816"><ele>177.5</ele><time>2026-05-01T12:27:49.528Z</time></trkpt><trkpt lat="39.60196" lon="8.858245"><ele>177.66666666666669</ele><time>2026-05-01T12:27:50.531Z</time></trkpt><trkpt lat="39.60191" lon="8.8583367"><ele>177.83333333333334</ele><time>2026-05-01T12:27:51.53Z</time></trkpt><trkpt lat="39.6018617" lon="8.8584367"><ele>178.0</ele><time>2026-05-01T12:27:52.531Z</time></trkpt><trkpt lat="39.601815" lon="8.858535"><ele>178.57142857142856</ele><time>2026-05-01T12:27:53.531Z</time></trkpt><trkpt lat="39.6017683" lon="8.858625"><ele>179.14285714285714</ele><time>2026-05-01T12:27:54.53Z</time></trkpt><trkpt lat="39.6017267" lon="8.858705"><ele>179.71428571428572</ele><time>2026-05-01T12:27:55.532Z</time></trkpt><trkpt lat="39.6016883" lon="8.8587783"><ele>180.28571428571428</ele><time>2026-05-01T12:27:56.527Z</time></trkpt><trkpt lat="39.601645" lon="8.8588433"><ele>180.85714285714286</ele><time>2026-05-01T12:27:57.529Z</time></trkpt><trkpt lat="39.6015967" lon="8.8588967"><ele>181.42857142857142</ele><time>2026-05-01T12:27:58.529Z</time></trkpt><trkpt lat="39.6015367" lon="8.8589383"><ele>182.0</ele><time>2026-05-01T12:27:59.529Z</time></trkpt><trkpt lat="39.601465" lon="8.8589767"><ele>182.0</ele><time>2026-05-01T12:28:00.528Z</time></trkpt><trkpt lat="39.60139" lon="8.859015"><ele>182.0</ele><time>2026-05-01T12:28:01.527Z</time></trkpt><trkpt lat="39.60131" lon="8.8590617"><ele>182.0</ele><time>2026-05-01T12:28:02.529Z</time></trkpt><trkpt lat="39.6012317" lon="8.8591167"><ele>182.0</ele><time>2026-05-01T12:28:03.53Z</time></trkpt><trkpt lat="39.6011583" lon="8.85918"><ele>182.0</ele><time>2026-05-01T12:28:04.533Z</time></trkpt><trkpt lat="39.60109" lon="8.8592417"><ele>182.0</ele><time>2026-05-01T12:28:05.533Z</time></trkpt><trkpt lat="39.6010317" lon="8.8593"><ele>182.2</ele><time>2026-05-01T12:28:06.532Z</time></trkpt><trkpt lat="39.6009817" lon="8.8593533"><ele>182.39999999999998</ele><time>2026-05-01T12:28:07.533Z</time></trkpt><trkpt lat="39.6008967" lon="8.8594567"><ele>182.60000000000002</ele><time>2026-05-01T12:28:09.531Z</time></trkpt><trkpt lat="39.600815" lon="8.8595717"><ele>182.8</ele><time>2026-05-01T12:28:11.53Z</time></trkpt><trkpt lat="39.6007733" lon="8.859645"><ele>183.0</ele><time>2026-05-01T12:28:12.528Z</time></trkpt><trkpt lat="39.6007283" lon="8.8597317"><ele>183.0</ele><time>2026-05-01T12:28:13.53Z</time></trkpt><trkpt lat="39.6006767" lon="8.8598283"><ele>183.0</ele><time>2026-05-01T12:28:14.531Z</time></trkpt><trkpt lat="39.60062" lon="8.8599283"><ele>183.0</ele><time>2026-05-01T12:28:15.529Z</time></trkpt><trkpt lat="39.6005567" lon="8.8600317"><ele>183.0</ele><time>2026-05-01T12:28:16.531Z</time></trkpt><trkpt lat="39.6004933" lon="8.8601383"><ele>183.0</ele><time>2026-05-01T12:28:17.532Z</time></trkpt><trkpt lat="39.600425" lon="8.860255"><ele>182.75</ele><time>2026-05-01T12:28:18.529Z</time></trkpt><trkpt lat="39.6003567" lon="8.86038"><ele>182.5</ele><time>2026-05-01T12:28:19.529Z</time></trkpt><trkpt lat="39.6002883" lon="8.8605017"><ele>182.25</ele><time>2026-05-01T12:28:20.531Z</time></trkpt><trkpt lat="39.6002183" lon="8.86062"><ele>182.0</ele><time>2026-05-01T12:28:21.533Z</time></trkpt><trkpt lat="39.6001517" lon="8.8607317"><ele>182.0</ele><time>2026-05-01T12:28:22.526Z</time></trkpt><trkpt lat="39.6001017" lon="8.86083"><ele>182.0</ele><time>2026-05-01T12:28:23.527Z</time></trkpt><trkpt lat="39.60006" lon="8.8609117"><ele>182.0</ele><time>2026-05-01T12:28:24.529Z</time></trkpt><trkpt lat="39.60002" lon="8.86098"><ele>182.0</ele><time>2026-05-01T12:28:25.529Z</time></trkpt><trkpt lat="39.5999617" lon="8.8610583"><ele>182.0</ele><time>2026-05-01T12:28:27.533Z</time></trkpt><trkpt lat="39.5999083" lon="8.861135"><ele>182.0</ele><time>2026-05-01T12:28:30.534Z</time></trkpt><trkpt lat="39.599885" lon="8.8612567"><ele>182.6</ele><time>2026-05-01T12:28:32.53Z</time></trkpt><trkpt lat="39.59987" lon="8.8613433"><ele>183.2</ele><time>2026-05-01T12:28:33.532Z</time></trkpt><trkpt lat="39.59985" lon="8.8614483"><ele>183.8</ele><time>2026-05-01T12:28:34.528Z</time></trkpt><trkpt lat="39.5998267" lon="8.861565"><ele>184.4</ele><time>2026-05-01T12:28:35.531Z</time></trkpt><trkpt lat="39.5997967" lon="8.8616933"><ele>185.0</ele><time>2026-05-01T12:28:36.528Z</time></trkpt><trkpt lat="39.5997617" lon="8.86183"><ele>185.5</ele><time>2026-05-01T12:28:37.531Z</time></trkpt><trkpt lat="39.5997183" lon="8.8619783"><ele>186.0</ele><time>2026-05-01T12:28:38.527Z</time></trkpt><trkpt lat="39.5996717" lon="8.8621317"><ele>186.5</ele><time>2026-05-01T12:28:39.53Z</time></trkpt><trkpt lat="39.5996217" lon="8.8622933"><ele>187.0</ele><time>2026-05-01T12:28:40.531Z</time></trkpt><trkpt lat="39.59957" lon="8.8624583"><ele>187.25</ele><time>2026-05-01T12:28:41.53Z</time></trkpt><trkpt lat="39.5995183" lon="8.8626267"><ele>187.5</ele><time>2026-05-01T12:28:42.532Z</time></trkpt><trkpt lat="39.5994633" lon="8.8627917"><ele>187.75</ele><time>2026-05-01T12:28:43.528Z</time></trkpt><trkpt lat="39.5994083" lon="8.8629517"><ele>188.0</ele><time>2026-05-01T12:28:44.527Z</time></trkpt><trkpt lat="39.5993533" lon="8.8631117"><ele>188.0</ele><time>2026-05-01T12:28:45.53Z</time></trkpt><trkpt lat="39.599295" lon="8.8632683"><ele>188.0</ele><time>2026-05-01T12:28:46.53Z</time></trkpt><trkpt lat="39.5992333" lon="8.8634283"><ele>188.0</ele><time>2026-05-01T12:28:47.533Z</time></trkpt><trkpt lat="39.5991733" lon="8.863585"><ele>188.0</ele><time>2026-05-01T12:28:48.53Z</time></trkpt><trkpt lat="39.5991117" lon="8.863745"><ele>188.0</ele><time>2026-05-01T12:28:49.531Z</time></trkpt><trkpt lat="39.5990417" lon="8.8639033"><ele>188.0</ele><time>2026-05-01T12:28:50.53Z</time></trkpt><trkpt lat="39.59897" lon="8.8640533"><ele>188.0</ele><time>2026-05-01T12:28:51.533Z</time></trkpt><trkpt lat="39.5989017" lon="8.864205"><ele>188.0</ele><time>2026-05-01T12:28:52.529Z</time></trkpt><trkpt lat="39.598835" lon="8.8643533"><ele>188.25</ele><time>2026-05-01T12:28:53.53Z</time></trkpt><trkpt lat="39.5987717" lon="8.8645"><ele>188.5</ele><time>2026-05-01T12:28:54.532Z</time></trkpt><trkpt lat="39.5987033" lon="8.8646383"><ele>188.75</ele><time>2026-05-01T12:28:55.53Z</time></trkpt><trkpt lat="39.5986417" lon="8.8647717"><ele>189.0</ele><time>2026-05-01T12:28:56.528Z</time></trkpt><trkpt lat="39.5985717" lon="8.8648967"><ele>188.0</ele><time>2026-05-01T12:28:57.528Z</time></trkpt><trkpt lat="39.5985033" lon="8.8650183"><ele>187.0</ele><time>2026-05-01T12:28:58.528Z</time></trkpt><trkpt lat="39.5984333" lon="8.86513"><ele>186.0</ele><time>2026-05-01T12:28:59.529Z</time></trkpt><trkpt lat="39.5983567" lon="8.865235"><ele>185.0</ele><time>2026-05-01T12:29:00.532Z</time></trkpt><trkpt lat="39.5982717" lon="8.8653433"><ele>184.5</ele><time>2026-05-01T12:29:01.532Z</time></trkpt><trkpt lat="39.5981817" lon="8.8654433"><ele>184.0</ele><time>2026-05-01T12:29:02.527Z</time></trkpt><trkpt lat="39.598095" lon="8.865545"><ele>183.5</ele><time>2026-05-01T12:29:03.53Z</time></trkpt><trkpt lat="39.598005" lon="8.8656517"><ele>183.0</ele><time>2026-05-01T12:29:04.529Z</time></trkpt><trkpt lat="39.5979067" lon="8.8657617"><ele>182.5</ele><time>2026-05-01T12:29:05.53Z</time></trkpt><trkpt lat="39.5978067" lon="8.8658733"><ele>182.0</ele><time>2026-05-01T12:29:06.531Z</time></trkpt><trkpt lat="39.597705" lon="8.8659867"><ele>181.5</ele><time>2026-05-01T12:29:07.531Z</time></trkpt><trkpt lat="39.5975983" lon="8.8660967"><ele>181.0</ele><time>2026-05-01T12:29:08.528Z</time></trkpt><trkpt lat="39.5974883" lon="8.8662083"><ele>180.66666666666669</ele><time>2026-05-01T12:29:09.536Z</time></trkpt><trkpt lat="39.5973567" lon="8.86632"><ele>180.33333333333334</ele><time>2026-05-01T12:29:10.531Z</time></trkpt><trkpt lat="39.59723" lon="8.8664183"><ele>180.0</ele><time>2026-05-01T12:29:11.531Z</time></trkpt><trkpt lat="39.5970967" lon="8.8665133"><ele>179.25</ele><time>2026-05-01T12:29:12.531Z</time></trkpt><trkpt lat="39.5969633" lon="8.866585"><ele>178.5</ele><time>2026-05-01T12:29:13.528Z</time></trkpt><trkpt lat="39.5968433" lon="8.8666517"><ele>177.75</ele><time>2026-05-01T12:29:14.528Z</time></trkpt><trkpt lat="39.59671" lon="8.86671"><ele>177.0</ele><time>2026-05-01T12:29:15.534Z</time></trkpt><trkpt lat="39.5965717" lon="8.8667583"><ele>176.75</ele><time>2026-05-01T12:29:16.529Z</time></trkpt><trkpt lat="39.5964283" lon="8.8667917"><ele>176.5</ele><time>2026-05-01T12:29:17.53Z</time></trkpt><trkpt lat="39.5963" lon="8.866855"><ele>176.25</ele><time>2026-05-01T12:29:18.53Z</time></trkpt><trkpt lat="39.59618" lon="8.8669233"><ele>176.0</ele><time>2026-05-01T12:29:19.531Z</time></trkpt><trkpt lat="39.5960567" lon="8.8669867"><ele>175.5</ele><time>2026-05-01T12:29:20.531Z</time></trkpt><trkpt lat="39.59595" lon="8.8670767"><ele>175.0</ele><time>2026-05-01T12:29:21.531Z</time></trkpt><trkpt lat="39.5958267" lon="8.867165"><ele>174.5</ele><time>2026-05-01T12:29:22.531Z</time></trkpt><trkpt lat="39.5957067" lon="8.8672617"><ele>174.0</ele><time>2026-05-01T12:29:23.529Z</time></trkpt><trkpt lat="39.5955967" lon="8.86737"><ele>174.0</ele><time>2026-05-01T12:29:24.528Z</time></trkpt><trkpt lat="39.5954767" lon="8.86745"><ele>174.0</ele><time>2026-05-01T12:29:25.529Z</time></trkpt><trkpt lat="39.595355" lon="8.8675367"><ele>174.0</ele><time>2026-05-01T12:29:26.529Z</time></trkpt><trkpt lat="39.5952267" lon="8.8675983"><ele>174.0</ele><time>2026-05-01T12:29:27.531Z</time></trkpt><trkpt lat="39.5951017" lon="8.8676717"><ele>172.75</ele><time>2026-05-01T12:29:28.53Z</time></trkpt><trkpt lat="39.5949817" lon="8.86775"><ele>171.5</ele><time>2026-05-01T12:29:29.534Z</time></trkpt><trkpt lat="39.5948583" lon="8.8678217"><ele>170.25</ele><time>2026-05-01T12:29:30.527Z</time></trkpt><trkpt lat="39.59474" lon="8.8678983"><ele>169.0</ele><time>2026-05-01T12:29:31.533Z</time></trkpt><trkpt lat="39.5946333" lon="8.8679733"><ele>169.0</ele><time>2026-05-01T12:29:32.532Z</time></trkpt><trkpt lat="39.59453" lon="8.8680267"><ele>169.0</ele><time>2026-05-01T12:29:33.531Z</time></trkpt><trkpt lat="39.5944317" lon="8.8680917"><ele>169.0</ele><time>2026-05-01T12:29:34.531Z</time></trkpt><trkpt lat="39.5943183" lon="8.8681283"><ele>169.0</ele><time>2026-05-01T12:29:35.532Z</time></trkpt><trkpt lat="39.5941717" lon="8.868145"><ele>168.5</ele><time>2026-05-01T12:29:36.531Z</time></trkpt><trkpt lat="39.5940433" lon="8.86813"><ele>168.0</ele><time>2026-05-01T12:29:37.532Z</time></trkpt><trkpt lat="39.593915" lon="8.86812"><ele>167.5</ele><time>2026-05-01T12:29:38.535Z</time></trkpt><trkpt lat="39.5937967" lon="8.86811"><ele>167.0</ele><time>2026-05-01T12:29:39.531Z</time></trkpt><trkpt lat="39.5936767" lon="8.8681117"><ele>167.0</ele><time>2026-05-01T12:29:40.527Z</time></trkpt><trkpt lat="39.5935517" lon="8.8681033"><ele>167.0</ele><time>2026-05-01T12:29:41.53Z</time></trkpt><trkpt lat="39.5934217" lon="8.8680683"><ele>167.0</ele><time>2026-05-01T12:29:42.531Z</time></trkpt><trkpt lat="39.5932933" lon="8.867995"><ele>167.0</ele><time>2026-05-01T12:29:43.53Z</time></trkpt><trkpt lat="39.5931683" lon="8.8679333"><ele>167.0</ele><time>2026-05-01T12:29:44.535Z</time></trkpt><trkpt lat="39.59305" lon="8.8678667"><ele>167.0</ele><time>2026-05-01T12:29:45.528Z</time></trkpt><trkpt lat="39.5929267" lon="8.8678317"><ele>167.0</ele><time>2026-05-01T12:29:46.53Z</time></trkpt><trkpt lat="39.59281" lon="8.8677783"><ele>167.0</ele><time>2026-05-01T12:29:47.53Z</time></trkpt><trkpt lat="39.5926967" lon="8.8677467"><ele>166.0</ele><time>2026-05-01T12:29:48.529Z</time></trkpt><trkpt lat="39.59257" lon="8.8677267"><ele>165.0</ele><time>2026-05-01T12:29:49.531Z</time></trkpt><trkpt lat="39.5924483" lon="8.8677117"><ele>164.0</ele><time>2026-05-01T12:29:50.536Z</time></trkpt><trkpt lat="39.5923417" lon="8.867685"><ele>163.0</ele><time>2026-05-01T12:29:51.53Z</time></trkpt><trkpt lat="39.5922233" lon="8.86765"><ele>163.0</ele><time>2026-05-01T12:29:52.531Z</time></trkpt><trkpt lat="39.59212" lon="8.8676167"><ele>163.0</ele><time>2026-05-01T12:29:53.532Z</time></trkpt><trkpt lat="39.592015" lon="8.8675717"><ele>163.0</ele><time>2026-05-01T12:29:54.531Z</time></trkpt><trkpt lat="39.5919083" lon="8.8675217"><ele>163.0</ele><time>2026-05-01T12:29:55.53Z</time></trkpt><trkpt lat="39.59181" lon="8.8674783"><ele>163.0</ele><time>2026-05-01T12:29:56.589Z</time></trkpt><trkpt lat="39.5917" lon="8.8674183"><ele>162.60000000000002</ele><time>2026-05-01T12:29:57.528Z</time></trkpt><trkpt lat="39.591605" lon="8.8673717"><ele>162.20000000000002</ele><time>2026-05-01T12:29:58.53Z</time></trkpt><trkpt lat="39.59151" lon="8.8673183"><ele>161.8</ele><time>2026-05-01T12:29:59.53Z</time></trkpt><trkpt lat="39.5914183" lon="8.867245"><ele>161.4</ele><time>2026-05-01T12:30:00.528Z</time></trkpt><trkpt lat="39.5913383" lon="8.8671783"><ele>161.0</ele><time>2026-05-01T12:30:01.529Z</time></trkpt><trkpt lat="39.591265" lon="8.867105"><ele>161.0</ele><time>2026-05-01T12:30:02.578Z</time></trkpt><trkpt lat="39.591205" lon="8.8670217"><ele>161.0</ele><time>2026-05-01T12:30:03.529Z</time></trkpt><trkpt lat="39.591145" lon="8.86694"><ele>161.0</ele><time>2026-05-01T12:30:04.528Z</time></trkpt><trkpt lat="39.5910833" lon="8.8668233"><ele>161.0</ele><time>2026-05-01T12:30:05.53Z</time></trkpt><trkpt lat="39.591025" lon="8.8667233"><ele>161.0</ele><time>2026-05-01T12:30:06.53Z</time></trkpt><trkpt lat="39.590955" lon="8.8666017"><ele>160.8</ele><time>2026-05-01T12:30:07.533Z</time></trkpt><trkpt lat="39.5908967" lon="8.866485"><ele>160.60000000000002</ele><time>2026-05-01T12:30:08.535Z</time></trkpt><trkpt lat="39.5908433" lon="8.86636"><ele>160.4</ele><time>2026-05-01T12:30:09.529Z</time></trkpt><trkpt lat="39.59079" lon="8.8662717"><ele>160.2</ele><time>2026-05-01T12:30:10.529Z</time></trkpt><trkpt lat="39.5906967" lon="8.866165"><ele>160.0</ele><time>2026-05-01T12:30:11.529Z</time></trkpt><trkpt lat="39.5906117" lon="8.866085"><ele>160.0</ele><time>2026-05-01T12:30:12.53Z</time></trkpt><trkpt lat="39.5905233" lon="8.8660183"><ele>160.0</ele><time>2026-05-01T12:30:13.53Z</time></trkpt><trkpt lat="39.5904267" lon="8.86593"><ele>160.0</ele><time>2026-05-01T12:30:14.536Z</time></trkpt><trkpt lat="39.5903317" lon="8.86581"><ele>160.0</ele><time>2026-05-01T12:30:15.531Z</time></trkpt><trkpt lat="39.5902417" lon="8.865675"><ele>159.25</ele><time>2026-05-01T12:30:16.529Z</time></trkpt><trkpt lat="39.5901433" lon="8.8655333"><ele>158.5</ele><time>2026-05-01T12:30:17.534Z</time></trkpt><trkpt lat="39.5900617" lon="8.8654017"><ele>157.75</ele><time>2026-05-01T12:30:18.531Z</time></trkpt><trkpt lat="39.5899867" lon="8.86529"><ele>157.0</ele><time>2026-05-01T12:30:19.529Z</time></trkpt><trkpt lat="39.5899067" lon="8.8651717"><ele>157.5</ele><time>2026-05-01T12:30:20.534Z</time></trkpt><trkpt lat="39.5898233" lon="8.865055"><ele>158.0</ele><time>2026-05-01T12:30:21.53Z</time></trkpt><trkpt lat="39.5897417" lon="8.864935"><ele>158.5</ele><time>2026-05-01T12:30:22.53Z</time></trkpt><trkpt lat="39.5896583" lon="8.8648017"><ele>159.0</ele><time>2026-05-01T12:30:23.529Z</time></trkpt><trkpt lat="39.58957" lon="8.864665"><ele>158.5</ele><time>2026-05-01T12:30:24.532Z</time></trkpt><trkpt lat="39.5894717" lon="8.8645283"><ele>158.0</ele><time>2026-05-01T12:30:25.529Z</time></trkpt><trkpt lat="39.5893783" lon="8.8643867"><ele>157.5</ele><time>2026-05-01T12:30:26.53Z</time></trkpt><trkpt lat="39.58929" lon="8.8642567"><ele>157.0</ele><time>2026-05-01T12:30:27.533Z</time></trkpt><trkpt lat="39.5892117" lon="8.86416"><ele>157.0</ele><time>2026-05-01T12:30:28.531Z</time></trkpt><trkpt lat="39.5891117" lon="8.8640383"><ele>157.0</ele><time>2026-05-01T12:30:29.532Z</time></trkpt><trkpt lat="39.5890183" lon="8.8639483"><ele>157.0</ele><time>2026-05-01T12:30:30.53Z</time></trkpt><trkpt lat="39.5889233" lon="8.86384"><ele>157.0</ele><time>2026-05-01T12:30:31.528Z</time></trkpt><trkpt lat="39.5888267" lon="8.863725"><ele>157.0</ele><time>2026-05-01T12:30:32.529Z</time></trkpt><trkpt lat="39.5887417" lon="8.8636183"><ele>157.0</ele><time>2026-05-01T12:30:33.526Z</time></trkpt><trkpt lat="39.5886533" lon="8.8635217"><ele>157.0</ele><time>2026-05-01T12:30:34.528Z</time></trkpt><trkpt lat="39.5885817" lon="8.8634167"><ele>157.0</ele><time>2026-05-01T12:30:35.532Z</time></trkpt><trkpt lat="39.5885167" lon="8.86329"><ele>157.25</ele><time>2026-05-01T12:30:36.53Z</time></trkpt><trkpt lat="39.5884533" lon="8.86315"><ele>157.5</ele><time>2026-05-01T12:30:37.53Z</time></trkpt><trkpt lat="39.5884" lon="8.8629983"><ele>157.75</ele><time>2026-05-01T12:30:38.536Z</time></trkpt><trkpt lat="39.5883533" lon="8.8628483"><ele>158.0</ele><time>2026-05-01T12:30:39.53Z</time></trkpt><trkpt lat="39.58831" lon="8.8626783"><ele>158.0</ele><time>2026-05-01T12:30:40.528Z</time></trkpt><trkpt lat="39.5882567" lon="8.862495"><ele>158.0</ele><time>2026-05-01T12:30:41.53Z</time></trkpt><trkpt lat="39.58819" lon="8.8623"><ele>158.0</ele><time>2026-05-01T12:30:42.526Z</time></trkpt><trkpt lat="39.5881433" lon="8.8621"><ele>158.0</ele><time>2026-05-01T12:30:43.531Z</time></trkpt><trkpt lat="39.5880833" lon="8.8618983"><ele>158.0</ele><time>2026-05-01T12:30:44.539Z</time></trkpt><trkpt lat="39.58801" lon="8.8616883"><ele>158.0</ele><time>2026-05-01T12:30:45.533Z</time></trkpt><trkpt lat="39.58793" lon="8.8614617"><ele>157.66666666666666</ele><time>2026-05-01T12:30:46.53Z</time></trkpt><trkpt lat="39.5878483" lon="8.861245"><ele>157.33333333333334</ele><time>2026-05-01T12:30:47.529Z</time></trkpt><trkpt lat="39.5877583" lon="8.8610217"><ele>157.0</ele><time>2026-05-01T12:30:48.53Z</time></trkpt><trkpt lat="39.58767" lon="8.8607933"><ele>155.0</ele><time>2026-05-01T12:30:49.533Z</time></trkpt><trkpt lat="39.5876017" lon="8.8605633"><ele>153.0</ele><time>2026-05-01T12:30:50.536Z</time></trkpt><trkpt lat="39.5875383" lon="8.8603533"><ele>151.0</ele><time>2026-05-01T12:30:51.536Z</time></trkpt><trkpt lat="39.5874783" lon="8.8601617"><ele>151.25</ele><time>2026-05-01T12:30:52.529Z</time></trkpt><trkpt lat="39.5874233" lon="8.860005"><ele>151.5</ele><time>2026-05-01T12:30:53.531Z</time></trkpt><trkpt lat="39.5873633" lon="8.85986"><ele>151.75</ele><time>2026-05-01T12:30:54.531Z</time></trkpt><trkpt lat="39.5872933" lon="8.859725"><ele>152.0</ele><time>2026-05-01T12:30:55.528Z</time></trkpt><trkpt lat="39.5872283" lon="8.85959"><ele>152.0</ele><time>2026-05-01T12:30:56.53Z</time></trkpt><trkpt lat="39.58717" lon="8.85945"><ele>152.0</ele><time>2026-05-01T12:30:57.535Z</time></trkpt><trkpt lat="39.5871217" lon="8.8592917"><ele>152.0</ele><time>2026-05-01T12:30:58.531Z</time></trkpt><trkpt lat="39.58708" lon="8.8591217"><ele>152.0</ele><time>2026-05-01T12:30:59.528Z</time></trkpt><trkpt lat="39.58704" lon="8.8589517"><ele>151.5</ele><time>2026-05-01T12:31:00.533Z</time></trkpt><trkpt lat="39.5869967" lon="8.8587867"><ele>151.0</ele><time>2026-05-01T12:31:01.532Z</time></trkpt><trkpt lat="39.5869517" lon="8.8586233"><ele>150.5</ele><time>2026-05-01T12:31:02.528Z</time></trkpt><trkpt lat="39.5868967" lon="8.8584617"><ele>150.0</ele><time>2026-05-01T12:31:03.533Z</time></trkpt><trkpt lat="39.5868367" lon="8.8583"><ele>150.0</ele><time>2026-05-01T12:31:04.531Z</time></trkpt><trkpt lat="39.5867717" lon="8.8581383"><ele>150.0</ele><time>2026-05-01T12:31:05.53Z</time></trkpt><trkpt lat="39.5866983" lon="8.85798"><ele>150.0</ele><time>2026-05-01T12:31:06.532Z</time></trkpt><trkpt lat="39.586625" lon="8.85783"><ele>150.0</ele><time>2026-05-01T12:31:07.532Z</time></trkpt><trkpt lat="39.586555" lon="8.857685"><ele>150.75</ele><time>2026-05-01T12:31:08.537Z</time></trkpt><trkpt lat="39.58649" lon="8.8575433"><ele>151.5</ele><time>2026-05-01T12:31:09.531Z</time></trkpt><trkpt lat="39.586435" lon="8.8574033"><ele>152.25</ele><time>2026-05-01T12:31:10.532Z</time></trkpt><trkpt lat="39.586375" lon="8.8572717"><ele>153.0</ele><time>2026-05-01T12:31:11.532Z</time></trkpt><trkpt lat="39.5863317" lon="8.8571617"><ele>153.0</ele><time>2026-05-01T12:31:12.528Z</time></trkpt><trkpt lat="39.5862983" lon="8.85706"><ele>153.0</ele><time>2026-05-01T12:31:13.528Z</time></trkpt><trkpt lat="39.58627" lon="8.8569567"><ele>153.0</ele><time>2026-05-01T12:31:14.539Z</time></trkpt><trkpt lat="39.586245" lon="8.85685"><ele>153.0</ele><time>2026-05-01T12:31:15.53Z</time></trkpt><trkpt lat="39.58623" lon="8.8567467"><ele>153.0</ele><time>2026-05-01T12:31:16.53Z</time></trkpt><trkpt lat="39.586215" lon="8.8566333"><ele>153.0</ele><time>2026-05-01T12:31:17.532Z</time></trkpt><trkpt lat="39.5862017" lon="8.8565083"><ele>152.5</ele><time>2026-05-01T12:31:18.533Z</time></trkpt><trkpt lat="39.5862017" lon="8.85637"><ele>152.0</ele><time>2026-05-01T12:31:19.531Z</time></trkpt><trkpt lat="39.586195" lon="8.85622"><ele>151.5</ele><time>2026-05-01T12:31:20.535Z</time></trkpt><trkpt lat="39.5861783" lon="8.856075"><ele>151.0</ele><time>2026-05-01T12:31:21.531Z</time></trkpt><trkpt lat="39.5861667" lon="8.8559267"><ele>150.0</ele><time>2026-05-01T12:31:22.527Z</time></trkpt><trkpt lat="39.5861533" lon="8.8558"><ele>149.0</ele><time>2026-05-01T12:31:23.528Z</time></trkpt><trkpt lat="39.5861433" lon="8.8556767"><ele>148.0</ele><time>2026-05-01T12:31:24.533Z</time></trkpt><trkpt lat="39.5861333" lon="8.8555517"><ele>147.0</ele><time>2026-05-01T12:31:25.533Z</time></trkpt><trkpt lat="39.5861333" lon="8.8554233"><ele>146.0</ele><time>2026-05-01T12:31:26.528Z</time></trkpt><trkpt lat="39.58612" lon="8.8553067"><ele>146.0</ele><time>2026-05-01T12:31:27.529Z</time></trkpt><trkpt lat="39.586095" lon="8.855185"><ele>146.0</ele><time>2026-05-01T12:31:28.53Z</time></trkpt><trkpt lat="39.5860683" lon="8.8550667"><ele>146.0</ele><time>2026-05-01T12:31:29.531Z</time></trkpt><trkpt lat="39.58603" lon="8.8549533"><ele>146.0</ele><time>2026-05-01T12:31:30.53Z</time></trkpt><trkpt lat="39.5859933" lon="8.8548483"><ele>146.0</ele><time>2026-05-01T12:31:31.532Z</time></trkpt><trkpt lat="39.58596" lon="8.8547433"><ele>146.0</ele><time>2026-05-01T12:31:32.561Z</time></trkpt><trkpt lat="39.58592" lon="8.85464"><ele>146.0</ele><time>2026-05-01T12:31:33.532Z</time></trkpt><trkpt lat="39.585885" lon="8.85453"><ele>146.0</ele><time>2026-05-01T12:31:34.53Z</time></trkpt><trkpt lat="39.5858533" lon="8.8544133"><ele>146.0</ele><time>2026-05-01T12:31:35.532Z</time></trkpt><trkpt lat="39.5858183" lon="8.854295"><ele>146.0</ele><time>2026-05-01T12:31:36.529Z</time></trkpt><trkpt lat="39.58579" lon="8.85418"><ele>146.0</ele><time>2026-05-01T12:31:37.529Z</time></trkpt><trkpt lat="39.585745" lon="8.8540517"><ele>146.0</ele><time>2026-05-01T12:31:38.536Z</time></trkpt><trkpt lat="39.5857067" lon="8.8539483"><ele>146.0</ele><time>2026-05-01T12:31:39.53Z</time></trkpt><trkpt lat="39.58567" lon="8.8538217"><ele>146.0</ele><time>2026-05-01T12:31:40.53Z</time></trkpt><trkpt lat="39.5856217" lon="8.8537033"><ele>146.0</ele><time>2026-05-01T12:31:41.53Z</time></trkpt><trkpt lat="39.5855617" lon="8.8535967"><ele>146.0</ele><time>2026-05-01T12:31:42.53Z</time></trkpt><trkpt lat="39.5854833" lon="8.853495"><ele>146.0</ele><time>2026-05-01T12:31:43.529Z</time></trkpt><trkpt lat="39.585395" lon="8.8534017"><ele>146.0</ele><time>2026-05-01T12:31:44.535Z</time></trkpt><trkpt lat="39.5853133" lon="8.8533083"><ele>146.0</ele><time>2026-05-01T12:31:45.53Z</time></trkpt><trkpt lat="39.5852217" lon="8.8532183"><ele>146.0</ele><time>2026-05-01T12:31:46.528Z</time></trkpt><trkpt lat="39.585125" lon="8.8531283"><ele>145.2</ele><time>2026-05-01T12:31:47.531Z</time></trkpt><trkpt lat="39.5850417" lon="8.8530317"><ele>144.39999999999998</ele><time>2026-05-01T12:31:48.527Z</time></trkpt><trkpt lat="39.5849733" lon="8.8529483"><ele>143.6</ele><time>2026-05-01T12:31:49.53Z</time></trkpt><trkpt lat="39.5848867" lon="8.85286"><ele>142.79999999999998</ele><time>2026-05-01T12:31:50.539Z</time></trkpt><trkpt lat="39.58481" lon="8.8527783"><ele>142.0</ele><time>2026-05-01T12:31:51.529Z</time></trkpt><trkpt lat="39.5847283" lon="8.8527117"><ele>142.0</ele><time>2026-05-01T12:31:52.528Z</time></trkpt><trkpt lat="39.5846583" lon="8.852635"><ele>142.0</ele><time>2026-05-01T12:31:53.528Z</time></trkpt><trkpt lat="39.5845917" lon="8.8525467"><ele>142.0</ele><time>2026-05-01T12:31:54.531Z</time></trkpt><trkpt lat="39.5845267" lon="8.8524633"><ele>142.0</ele><time>2026-05-01T12:31:55.53Z</time></trkpt><trkpt lat="39.5844617" lon="8.8523717"><ele>142.0</ele><time>2026-05-01T12:31:56.531Z</time></trkpt><trkpt lat="39.5843933" lon="8.852255"><ele>141.0</ele><time>2026-05-01T12:31:57.528Z</time></trkpt><trkpt lat="39.58433" lon="8.8521233"><ele>140.0</ele><time>2026-05-01T12:31:58.527Z</time></trkpt><trkpt lat="39.5842617" lon="8.85197"><ele>139.0</ele><time>2026-05-01T12:31:59.529Z</time></trkpt><trkpt lat="39.5841817" lon="8.8518283"><ele>138.0</ele><time>2026-05-01T12:32:00.529Z</time></trkpt><trkpt lat="39.5841" lon="8.8516817"><ele>137.5</ele><time>2026-05-01T12:32:01.531Z</time></trkpt><trkpt lat="39.584015" lon="8.851535"><ele>137.0</ele><time>2026-05-01T12:32:02.528Z</time></trkpt><trkpt lat="39.5839283" lon="8.85139"><ele>136.5</ele><time>2026-05-01T12:32:03.527Z</time></trkpt><trkpt lat="39.5838417" lon="8.8512467"><ele>136.0</ele><time>2026-05-01T12:32:04.529Z</time></trkpt><trkpt lat="39.5837517" lon="8.8511017"><ele>135.25</ele><time>2026-05-01T12:32:05.53Z</time></trkpt><trkpt lat="39.5836583" lon="8.850965"><ele>134.5</ele><time>2026-05-01T12:32:06.533Z</time></trkpt><trkpt lat="39.5835583" lon="8.850815"><ele>133.75</ele><time>2026-05-01T12:32:07.529Z</time></trkpt><trkpt lat="39.58345" lon="8.8506767"><ele>133.0</ele><time>2026-05-01T12:32:08.533Z</time></trkpt><trkpt lat="39.58336" lon="8.8505683"><ele>133.0</ele><time>2026-05-01T12:32:09.529Z</time></trkpt><trkpt lat="39.5832567" lon="8.8504283"><ele>133.0</ele><time>2026-05-01T12:32:10.528Z</time></trkpt><trkpt lat="39.5831683" lon="8.8503217"><ele>133.0</ele><time>2026-05-01T12:32:11.526Z</time></trkpt><trkpt lat="39.58309" lon="8.8502067"><ele>133.0</ele><time>2026-05-01T12:32:12.528Z</time></trkpt><trkpt lat="39.5830283" lon="8.85011"><ele>133.0</ele><time>2026-05-01T12:32:13.53Z</time></trkpt><trkpt lat="39.5829617" lon="8.8500017"><ele>133.0</ele><time>2026-05-01T12:32:14.534Z</time></trkpt><trkpt lat="39.5829" lon="8.8498867"><ele>133.0</ele><time>2026-05-01T12:32:15.531Z</time></trkpt><trkpt lat="39.5828517" lon="8.849775"><ele>133.0</ele><time>2026-05-01T12:32:16.53Z</time></trkpt><trkpt lat="39.5828083" lon="8.8496617"><ele>133.0</ele><time>2026-05-01T12:32:17.528Z</time></trkpt><trkpt lat="39.5827533" lon="8.8495317"><ele>132.8</ele><time>2026-05-01T12:32:18.533Z</time></trkpt><trkpt lat="39.5827183" lon="8.849425"><ele>132.60000000000002</ele><time>2026-05-01T12:32:19.53Z</time></trkpt><trkpt lat="39.58267" lon="8.8493117"><ele>132.39999999999998</ele><time>2026-05-01T12:32:20.535Z</time></trkpt><trkpt lat="39.5826017" lon="8.8492067"><ele>132.2</ele><time>2026-05-01T12:32:21.527Z</time></trkpt><trkpt lat="39.582515" lon="8.8491167"><ele>132.0</ele><time>2026-05-01T12:32:22.531Z</time></trkpt><trkpt lat="39.5824117" lon="8.84903"><ele>131.0</ele><time>2026-05-01T12:32:23.528Z</time></trkpt><trkpt lat="39.5823" lon="8.8489533"><ele>130.0</ele><time>2026-05-01T12:32:24.528Z</time></trkpt><trkpt lat="39.5821867" lon="8.84888"><ele>129.0</ele><time>2026-05-01T12:32:25.529Z</time></trkpt><trkpt lat="39.582075" lon="8.84879"><ele>128.0</ele><time>2026-05-01T12:32:26.591Z</time></trkpt><trkpt lat="39.5819633" lon="8.8487017"><ele>128.0</ele><time>2026-05-01T12:32:27.529Z</time></trkpt><trkpt lat="39.581845" lon="8.8486083"><ele>128.0</ele><time>2026-05-01T12:32:28.53Z</time></trkpt><trkpt lat="39.5817317" lon="8.84854"><ele>128.0</ele><time>2026-05-01T12:32:29.528Z</time></trkpt><trkpt lat="39.5816067" lon="8.848455"><ele>128.0</ele><time>2026-05-01T12:32:30.532Z</time></trkpt><trkpt lat="39.5814833" lon="8.8483933"><ele>128.0</ele><time>2026-05-01T12:32:31.53Z</time></trkpt><trkpt lat="39.58135" lon="8.848335"><ele>128.0</ele><time>2026-05-01T12:32:32.528Z</time></trkpt><trkpt lat="39.5812183" lon="8.84827"><ele>128.0</ele><time>2026-05-01T12:32:33.527Z</time></trkpt><trkpt lat="39.581095" lon="8.848195"><ele>128.0</ele><time>2026-05-01T12:32:34.527Z</time></trkpt><trkpt lat="39.5809733" lon="8.8481133"><ele>127.0</ele><time>2026-05-01T12:32:35.531Z</time></trkpt><trkpt lat="39.5808517" lon="8.8480333"><ele>126.0</ele><time>2026-05-01T12:32:36.53Z</time></trkpt><trkpt lat="39.58073" lon="8.8479567"><ele>125.0</ele><time>2026-05-01T12:32:37.528Z</time></trkpt><trkpt lat="39.58063" lon="8.8478967"><ele>124.0</ele><time>2026-05-01T12:32:38.538Z</time></trkpt><trkpt lat="39.580555" lon="8.847845"><ele>124.0</ele><time>2026-05-01T12:32:39.53Z</time></trkpt><trkpt lat="39.5804917" lon="8.8477883"><ele>124.0</ele><time>2026-05-01T12:32:40.529Z</time></trkpt><trkpt lat="39.5804133" lon="8.84767"><ele>124.0</ele><time>2026-05-01T12:32:42.528Z</time></trkpt><trkpt lat="39.5804267" lon="8.8475767"><ele>124.0</ele><time>2026-05-01T12:32:44.535Z</time></trkpt><trkpt lat="39.5805217" lon="8.8474967"><ele>124.0</ele><time>2026-05-01T12:32:46.528Z</time></trkpt><trkpt lat="39.5805867" lon="8.8474567"><ele>124.42857142857143</ele><time>2026-05-01T12:32:47.533Z</time></trkpt><trkpt lat="39.5806517" lon="8.8474183"><ele>124.85714285714286</ele><time>2026-05-01T12:32:48.528Z</time></trkpt><trkpt lat="39.5807183" lon="8.847375"><ele>125.28571428571429</ele><time>2026-05-01T12:32:49.53Z</time></trkpt><trkpt lat="39.5807833" lon="8.8473333"><ele>125.71428571428572</ele><time>2026-05-01T12:32:50.534Z</time></trkpt><trkpt lat="39.5808467" lon="8.84729"><ele>126.14285714285714</ele><time>2026-05-01T12:32:51.529Z</time></trkpt><trkpt lat="39.5809083" lon="8.8472467"><ele>126.57142857142858</ele><time>2026-05-01T12:32:52.53Z</time></trkpt><trkpt lat="39.580965" lon="8.8472033"><ele>127.0</ele><time>2026-05-01T12:32:53.53Z</time></trkpt><trkpt lat="39.5810667" lon="8.847115"><ele>127.00000000000001</ele><time>2026-05-01T12:32:55.531Z</time></trkpt><trkpt lat="39.5811617" lon="8.84702"><ele>127.0</ele><time>2026-05-01T12:32:57.53Z</time></trkpt><trkpt lat="39.581215" lon="8.8469717"><ele>127.0</ele><time>2026-05-01T12:32:58.527Z</time></trkpt><trkpt lat="39.5812733" lon="8.8469217"><ele>127.0</ele><time>2026-05-01T12:32:59.531Z</time></trkpt><trkpt lat="39.5813283" lon="8.84687"><ele>127.00000000000001</ele><time>2026-05-01T12:33:00.53Z</time></trkpt><trkpt lat="39.5813867" lon="8.846815"><ele>127.0</ele><time>2026-05-01T12:33:01.53Z</time></trkpt><trkpt lat="39.5814483" lon="8.8467517"><ele>128.0</ele><time>2026-05-01T12:33:02.531Z</time></trkpt><trkpt lat="39.5815117" lon="8.8466817"><ele>129.0</ele><time>2026-05-01T12:33:03.53Z</time></trkpt><trkpt lat="39.5815833" lon="8.8466"><ele>130.0</ele><time>2026-05-01T12:33:04.525Z</time></trkpt><trkpt lat="39.581665" lon="8.846515"><ele>131.0</ele><time>2026-05-01T12:33:05.53Z</time></trkpt><trkpt lat="39.5817417" lon="8.846395"><ele>132.0</ele><time>2026-05-01T12:33:06.53Z</time></trkpt><trkpt lat="39.5818067" lon="8.8462817"><ele>132.0</ele><time>2026-05-01T12:33:07.526Z</time></trkpt><trkpt lat="39.5818683" lon="8.8461483"><ele>132.0</ele><time>2026-05-01T12:33:08.534Z</time></trkpt><trkpt lat="39.581925" lon="8.84601"><ele>132.0</ele><time>2026-05-01T12:33:09.531Z</time></trkpt><trkpt lat="39.5819833" lon="8.84587"><ele>132.0</ele><time>2026-05-01T12:33:10.527Z</time></trkpt><trkpt lat="39.58203" lon="8.8457467"><ele>133.0</ele><time>2026-05-01T12:33:11.529Z</time></trkpt><trkpt lat="39.5820617" lon="8.8456383"><ele>134.0</ele><time>2026-05-01T12:33:12.53Z</time></trkpt><trkpt lat="39.58211" lon="8.8455133"><ele>135.0</ele><time>2026-05-01T12:33:13.529Z</time></trkpt><trkpt lat="39.58214" lon="8.8453933"><ele>136.0</ele><time>2026-05-01T12:33:14.533Z</time></trkpt><trkpt lat="39.5821817" lon="8.8452767"><ele>137.0</ele><time>2026-05-01T12:33:15.529Z</time></trkpt><trkpt lat="39.582205" lon="8.84518"><ele>136.0</ele><time>2026-05-01T12:33:16.529Z</time></trkpt><trkpt lat="39.5822417" lon="8.84507"><ele>135.0</ele><time>2026-05-01T12:33:17.53Z</time></trkpt><trkpt lat="39.582285" lon="8.8449633"><ele>134.0</ele><time>2026-05-01T12:33:18.53Z</time></trkpt><trkpt lat="39.5823317" lon="8.84487"><ele>133.0</ele><time>2026-05-01T12:33:19.529Z</time></trkpt><trkpt lat="39.5823817" lon="8.8447333"><ele>132.0</ele><time>2026-05-01T12:33:20.536Z</time></trkpt><trkpt lat="39.58244" lon="8.8446317"><ele>132.0</ele><time>2026-05-01T12:33:21.531Z</time></trkpt><trkpt lat="39.58251" lon="8.844535"><ele>132.0</ele><time>2026-05-01T12:33:22.529Z</time></trkpt><trkpt lat="39.5825733" lon="8.84443"><ele>132.0</ele><time>2026-05-01T12:33:23.531Z</time></trkpt><trkpt lat="39.582635" lon="8.84429"><ele>132.0</ele><time>2026-05-01T12:33:24.525Z</time></trkpt><trkpt lat="39.5826867" lon="8.8441433"><ele>132.4</ele><time>2026-05-01T12:33:25.527Z</time></trkpt><trkpt lat="39.5827433" lon="8.844005"><ele>132.79999999999998</ele><time>2026-05-01T12:33:26.53Z</time></trkpt><trkpt lat="39.58278" lon="8.8438783"><ele>133.2</ele><time>2026-05-01T12:33:27.528Z</time></trkpt><trkpt lat="39.5828133" lon="8.8437717"><ele>133.6</ele><time>2026-05-01T12:33:28.526Z</time></trkpt><trkpt lat="39.582845" lon="8.8436567"><ele>134.0</ele><time>2026-05-01T12:33:29.531Z</time></trkpt><trkpt lat="39.5828867" lon="8.8435467"><ele>133.16666666666666</ele><time>2026-05-01T12:33:30.531Z</time></trkpt><trkpt lat="39.5829233" lon="8.84342"><ele>132.33333333333331</ele><time>2026-05-01T12:33:31.528Z</time></trkpt><trkpt lat="39.5829533" lon="8.8433033"><ele>131.5</ele><time>2026-05-01T12:33:32.527Z</time></trkpt><trkpt lat="39.5829817" lon="8.8432067"><ele>130.66666666666666</ele><time>2026-05-01T12:33:33.53Z</time></trkpt><trkpt lat="39.5830183" lon="8.8431167"><ele>129.83333333333334</ele><time>2026-05-01T12:33:34.527Z</time></trkpt><trkpt lat="39.5830517" lon="8.8430367"><ele>129.0</ele><time>2026-05-01T12:33:35.53Z</time></trkpt><trkpt lat="39.58309" lon="8.84297"><ele>129.0</ele><time>2026-05-01T12:33:36.529Z</time></trkpt><trkpt lat="39.5831717" lon="8.8428683"><ele>129.0</ele><time>2026-05-01T12:33:38.536Z</time></trkpt><trkpt lat="39.5832617" lon="8.8427933"><ele>129.0</ele><time>2026-05-01T12:33:40.527Z</time></trkpt><trkpt lat="39.5833583" lon="8.8427317"><ele>129.0</ele><time>2026-05-01T12:33:42.525Z</time></trkpt><trkpt lat="39.583475" lon="8.8426817"><ele>129.0</ele><time>2026-05-01T12:33:44.534Z</time></trkpt><trkpt lat="39.5835967" lon="8.8426617"><ele>129.0</ele><time>2026-05-01T12:33:46.531Z</time></trkpt><trkpt lat="39.5837217" lon="8.8426417"><ele>129.0</ele><time>2026-05-01T12:33:48.529Z</time></trkpt><trkpt lat="39.583785" lon="8.8426283"><ele>129.0</ele><time>2026-05-01T12:33:49.53Z</time></trkpt><trkpt lat="39.5838517" lon="8.84261"><ele>129.0</ele><time>2026-05-01T12:33:50.536Z</time></trkpt><trkpt lat="39.5839183" lon="8.84259"><ele>129.0</ele><time>2026-05-01T12:33:51.53Z</time></trkpt><trkpt lat="39.5839883" lon="8.8425667"><ele>127.33333333333333</ele><time>2026-05-01T12:33:52.531Z</time></trkpt><trkpt lat="39.5840567" lon="8.8425383"><ele>125.66666666666666</ele><time>2026-05-01T12:33:53.529Z</time></trkpt><trkpt lat="39.584125" lon="8.8425"><ele>124.0</ele><time>2026-05-01T12:33:54.53Z</time></trkpt><trkpt lat="39.584195" lon="8.8424567"><ele>122.33333333333333</ele><time>2026-05-01T12:33:55.531Z</time></trkpt><trkpt lat="39.5842633" lon="8.8424067"><ele>120.66666666666666</ele><time>2026-05-01T12:33:56.528Z</time></trkpt><trkpt lat="39.5843283" lon="8.8423467"><ele>119.0</ele><time>2026-05-01T12:33:57.533Z</time></trkpt><trkpt lat="39.584395" lon="8.8422817"><ele>119.0</ele><time>2026-05-01T12:33:58.53Z</time></trkpt><trkpt lat="39.5844633" lon="8.8422083"><ele>119.0</ele><time>2026-05-01T12:33:59.529Z</time></trkpt><trkpt lat="39.5845383" lon="8.8421267"><ele>119.0</ele><time>2026-05-01T12:34:00.528Z</time></trkpt><trkpt lat="39.58461" lon="8.8420483"><ele>119.0</ele><time>2026-05-01T12:34:01.53Z</time></trkpt><trkpt lat="39.5846883" lon="8.8419567"><ele>119.0</ele><time>2026-05-01T12:34:02.532Z</time></trkpt><trkpt lat="39.5847667" lon="8.8418817"><ele>119.0</ele><time>2026-05-01T12:34:03.526Z</time></trkpt><trkpt lat="39.5848467" lon="8.841805"><ele>119.0</ele><time>2026-05-01T12:34:04.529Z</time></trkpt><trkpt lat="39.5849333" lon="8.841725"><ele>119.0</ele><time>2026-05-01T12:34:05.528Z</time></trkpt><trkpt lat="39.5850267" lon="8.8416433"><ele>119.0</ele><time>2026-05-01T12:34:06.529Z</time></trkpt><trkpt lat="39.58511" lon="8.841565"><ele>119.0</ele><time>2026-05-01T12:34:07.53Z</time></trkpt><trkpt lat="39.585195" lon="8.8414883"><ele>119.0</ele><time>2026-05-01T12:34:08.535Z</time></trkpt><trkpt lat="39.585275" lon="8.8414067"><ele>119.0</ele><time>2026-05-01T12:34:09.531Z</time></trkpt><trkpt lat="39.5853517" lon="8.8413333"><ele>119.0</ele><time>2026-05-01T12:34:10.53Z</time></trkpt><trkpt lat="39.5854267" lon="8.841255"><ele>119.0</ele><time>2026-05-01T12:34:11.528Z</time></trkpt><trkpt lat="39.5855017" lon="8.8411833"><ele>119.0</ele><time>2026-05-01T12:34:12.528Z</time></trkpt><trkpt lat="39.5855767" lon="8.84108"><ele>119.0</ele><time>2026-05-01T12:34:13.53Z</time></trkpt><trkpt lat="39.585655" lon="8.840985"><ele>119.0</ele><time>2026-05-01T12:34:14.53Z</time></trkpt><trkpt lat="39.58573" lon="8.8408817"><ele>119.0</ele><time>2026-05-01T12:34:15.531Z</time></trkpt><trkpt lat="39.585805" lon="8.840775"><ele>119.0</ele><time>2026-05-01T12:34:16.527Z</time></trkpt><trkpt lat="39.585885" lon="8.84066"><ele>119.0</ele><time>2026-05-01T12:34:17.527Z</time></trkpt><trkpt lat="39.5859583" lon="8.8405467"><ele>119.0</ele><time>2026-05-01T12:34:18.531Z</time></trkpt><trkpt lat="39.58604" lon="8.8404317"><ele>119.0</ele><time>2026-05-01T12:34:19.532Z</time></trkpt><trkpt lat="39.5861233" lon="8.8403067"><ele>119.0</ele><time>2026-05-01T12:34:20.537Z</time></trkpt><trkpt lat="39.5861983" lon="8.8401817"><ele>119.0</ele><time>2026-05-01T12:34:21.527Z</time></trkpt><trkpt lat="39.5862583" lon="8.84004"><ele>120.0</ele><time>2026-05-01T12:34:22.526Z</time></trkpt><trkpt lat="39.58631" lon="8.8399033"><ele>121.0</ele><time>2026-05-01T12:34:23.529Z</time></trkpt><trkpt lat="39.5863517" lon="8.8397617"><ele>122.0</ele><time>2026-05-01T12:34:24.526Z</time></trkpt><trkpt lat="39.586385" lon="8.83961"><ele>123.0</ele><time>2026-05-01T12:34:25.528Z</time></trkpt><trkpt lat="39.5864133" lon="8.8394467"><ele>123.25</ele><time>2026-05-01T12:34:26.531Z</time></trkpt><trkpt lat="39.5864367" lon="8.8392833"><ele>123.5</ele><time>2026-05-01T12:34:27.529Z</time></trkpt><trkpt lat="39.5864567" lon="8.8391167"><ele>123.75</ele><time>2026-05-01T12:34:28.529Z</time></trkpt><trkpt lat="39.586475" lon="8.8389567"><ele>124.0</ele><time>2026-05-01T12:34:29.529Z</time></trkpt><trkpt lat="39.5864983" lon="8.8388033"><ele>124.0</ele><time>2026-05-01T12:34:30.529Z</time></trkpt><trkpt lat="39.5865233" lon="8.8386517"><ele>124.0</ele><time>2026-05-01T12:34:31.532Z</time></trkpt><trkpt lat="39.5865567" lon="8.8385117"><ele>124.0</ele><time>2026-05-01T12:34:32.529Z</time></trkpt><trkpt lat="39.5865933" lon="8.83837"><ele>124.0</ele><time>2026-05-01T12:34:33.528Z</time></trkpt><trkpt lat="39.5866467" lon="8.83823"><ele>124.0</ele><time>2026-05-01T12:34:34.526Z</time></trkpt><trkpt lat="39.586685" lon="8.838105"><ele>124.0</ele><time>2026-05-01T12:34:35.531Z</time></trkpt><trkpt lat="39.5867233" lon="8.8379867"><ele>124.0</ele><time>2026-05-01T12:34:36.531Z</time></trkpt><trkpt lat="39.586765" lon="8.83788"><ele>124.0</ele><time>2026-05-01T12:34:37.529Z</time></trkpt><trkpt lat="39.5867983" lon="8.8377817"><ele>124.0</ele><time>2026-05-01T12:34:38.537Z</time></trkpt><trkpt lat="39.58683" lon="8.837695"><ele>123.66666666666667</ele><time>2026-05-01T12:34:39.531Z</time></trkpt><trkpt lat="39.5868683" lon="8.837615"><ele>123.33333333333334</ele><time>2026-05-01T12:34:40.53Z</time></trkpt><trkpt lat="39.5869167" lon="8.837545"><ele>123.0</ele><time>2026-05-01T12:34:41.532Z</time></trkpt><trkpt lat="39.5869767" lon="8.837485"><ele>122.66666666666666</ele><time>2026-05-01T12:34:42.532Z</time></trkpt><trkpt lat="39.58705" lon="8.837415"><ele>122.33333333333333</ele><time>2026-05-01T12:34:43.529Z</time></trkpt><trkpt lat="39.5871217" lon="8.8373467"><ele>122.0</ele><time>2026-05-01T12:34:44.532Z</time></trkpt><trkpt lat="39.5871917" lon="8.8372767"><ele>122.0</ele><time>2026-05-01T12:34:45.53Z</time></trkpt><trkpt lat="39.5872567" lon="8.837205"><ele>121.99999999999999</ele><time>2026-05-01T12:34:46.527Z</time></trkpt><trkpt lat="39.5873217" lon="8.8371283"><ele>121.99999999999999</ele><time>2026-05-01T12:34:47.528Z</time></trkpt><trkpt lat="39.5873933" lon="8.83705"><ele>122.0</ele><time>2026-05-01T12:34:48.528Z</time></trkpt><trkpt lat="39.5874717" lon="8.83696"><ele>122.0</ele><time>2026-05-01T12:34:49.531Z</time></trkpt><trkpt lat="39.5875517" lon="8.836865"><ele>122.19999999999999</ele><time>2026-05-01T12:34:50.536Z</time></trkpt><trkpt lat="39.58763" lon="8.8367667"><ele>122.39999999999999</ele><time>2026-05-01T12:34:51.531Z</time></trkpt><trkpt lat="39.5877017" lon="8.8366633"><ele>122.60000000000001</ele><time>2026-05-01T12:34:52.526Z</time></trkpt><trkpt lat="39.5877733" lon="8.8365633"><ele>122.80000000000001</ele><time>2026-05-01T12:34:53.531Z</time></trkpt><trkpt lat="39.5878583" lon="8.8364617"><ele>123.0</ele><time>2026-05-01T12:34:54.532Z</time></trkpt><trkpt lat="39.5879433" lon="8.8363633"><ele>123.0</ele><time>2026-05-01T12:34:55.531Z</time></trkpt><trkpt lat="39.5880067" lon="8.8362833"><ele>123.00000000000001</ele><time>2026-05-01T12:34:56.593Z</time></trkpt><trkpt lat="39.58807" lon="8.8361817"><ele>123.00000000000001</ele><time>2026-05-01T12:34:57.531Z</time></trkpt><trkpt lat="39.5881233" lon="8.83607"><ele>123.0</ele><time>2026-05-01T12:34:58.53Z</time></trkpt><trkpt lat="39.5881717" lon="8.8359533"><ele>123.0</ele><time>2026-05-01T12:34:59.53Z</time></trkpt><trkpt lat="39.5882433" lon="8.8358467"><ele>123.4</ele><time>2026-05-01T12:35:00.531Z</time></trkpt><trkpt lat="39.5883167" lon="8.8357233"><ele>123.80000000000001</ele><time>2026-05-01T12:35:01.528Z</time></trkpt><trkpt lat="39.5883817" lon="8.8356083"><ele>124.2</ele><time>2026-05-01T12:35:02.558Z</time></trkpt><trkpt lat="39.58845" lon="8.8355017"><ele>124.6</ele><time>2026-05-01T12:35:03.527Z</time></trkpt><trkpt lat="39.5885067" lon="8.835405"><ele>125.0</ele><time>2026-05-01T12:35:04.529Z</time></trkpt><trkpt lat="39.5885583" lon="8.8353083"><ele>124.99999999999999</ele><time>2026-05-01T12:35:05.533Z</time></trkpt><trkpt lat="39.58861" lon="8.83521"><ele>125.0</ele><time>2026-05-01T12:35:06.53Z</time></trkpt><trkpt lat="39.5886567" lon="8.835115"><ele>125.0</ele><time>2026-05-01T12:35:07.531Z</time></trkpt><trkpt lat="39.5887067" lon="8.8350183"><ele>125.0</ele><time>2026-05-01T12:35:08.535Z</time></trkpt><trkpt lat="39.5887567" lon="8.8349267"><ele>124.99999999999999</ele><time>2026-05-01T12:35:09.529Z</time></trkpt><trkpt lat="39.5888067" lon="8.8348383"><ele>125.0</ele><time>2026-05-01T12:35:10.529Z</time></trkpt><trkpt lat="39.58885" lon="8.8347533"><ele>125.2</ele><time>2026-05-01T12:35:11.53Z</time></trkpt><trkpt lat="39.5888933" lon="8.83467"><ele>125.4</ele><time>2026-05-01T12:35:12.527Z</time></trkpt><trkpt lat="39.5889417" lon="8.8345767"><ele>125.6</ele><time>2026-05-01T12:35:13.53Z</time></trkpt><trkpt lat="39.5889867" lon="8.8344717"><ele>125.8</ele><time>2026-05-01T12:35:14.533Z</time></trkpt><trkpt lat="39.58903" lon="8.8343533"><ele>126.0</ele><time>2026-05-01T12:35:15.527Z</time></trkpt><trkpt lat="39.5890717" lon="8.834225"><ele>126.0</ele><time>2026-05-01T12:35:16.529Z</time></trkpt><trkpt lat="39.5891133" lon="8.8340917"><ele>126.0</ele><time>2026-05-01T12:35:17.529Z</time></trkpt><trkpt lat="39.589155" lon="8.833955"><ele>126.0</ele><time>2026-05-01T12:35:18.53Z</time></trkpt><trkpt lat="39.5892" lon="8.8338117"><ele>126.0</ele><time>2026-05-01T12:35:19.53Z</time></trkpt><trkpt lat="39.5892433" lon="8.8336667"><ele>126.0</ele><time>2026-05-01T12:35:20.533Z</time></trkpt><trkpt lat="39.589285" lon="8.83352"><ele>126.0</ele><time>2026-05-01T12:35:21.527Z</time></trkpt><trkpt lat="39.5893233" lon="8.8333683"><ele>126.0</ele><time>2026-05-01T12:35:22.53Z</time></trkpt><trkpt lat="39.5893583" lon="8.8332183"><ele>126.0</ele><time>2026-05-01T12:35:23.531Z</time></trkpt><trkpt lat="39.589395" lon="8.8330683"><ele>125.5</ele><time>2026-05-01T12:35:24.53Z</time></trkpt><trkpt lat="39.5894367" lon="8.8329267"><ele>125.0</ele><time>2026-05-01T12:35:25.53Z</time></trkpt><trkpt lat="39.5894833" lon="8.8327883"><ele>124.5</ele><time>2026-05-01T12:35:26.588Z</time></trkpt><trkpt lat="39.58954" lon="8.8326533"><ele>124.0</ele><time>2026-05-01T12:35:27.53Z</time></trkpt><trkpt lat="39.5895983" lon="8.8325217"><ele>123.75</ele><time>2026-05-01T12:35:28.529Z</time></trkpt><trkpt lat="39.5896617" lon="8.83239"><ele>123.5</ele><time>2026-05-01T12:35:29.528Z</time></trkpt><trkpt lat="39.589725" lon="8.832255"><ele>123.25</ele><time>2026-05-01T12:35:30.531Z</time></trkpt><trkpt lat="39.589785" lon="8.832115"><ele>123.0</ele><time>2026-05-01T12:35:31.531Z</time></trkpt><trkpt lat="39.5898383" lon="8.8319717"><ele>123.0</ele><time>2026-05-01T12:35:32.531Z</time></trkpt><trkpt lat="39.5898833" lon="8.8318233"><ele>123.0</ele><time>2026-05-01T12:35:33.529Z</time></trkpt><trkpt lat="39.58992" lon="8.83167"><ele>123.0</ele><time>2026-05-01T12:35:34.531Z</time></trkpt><trkpt lat="39.5899483" lon="8.831505"><ele>123.0</ele><time>2026-05-01T12:35:35.54Z</time></trkpt><trkpt lat="39.5899633" lon="8.83134"><ele>122.0</ele><time>2026-05-01T12:35:36.533Z</time></trkpt><trkpt lat="39.5899683" lon="8.83118"><ele>121.0</ele><time>2026-05-01T12:35:37.537Z</time></trkpt><trkpt lat="39.58997" lon="8.83102"><ele>120.0</ele><time>2026-05-01T12:35:38.536Z</time></trkpt><trkpt lat="39.5899617" lon="8.83086"><ele>119.0</ele><time>2026-05-01T12:35:39.532Z</time></trkpt><trkpt lat="39.5899467" lon="8.830705"><ele>118.5</ele><time>2026-05-01T12:35:40.529Z</time></trkpt><trkpt lat="39.5899267" lon="8.8305467"><ele>118.0</ele><time>2026-05-01T12:35:41.528Z</time></trkpt><trkpt lat="39.5899033" lon="8.83039"><ele>117.5</ele><time>2026-05-01T12:35:42.533Z</time></trkpt><trkpt lat="39.5898767" lon="8.830235"><ele>117.0</ele><time>2026-05-01T12:35:43.528Z</time></trkpt><trkpt lat="39.589845" lon="8.8300883"><ele>117.0</ele><time>2026-05-01T12:35:44.534Z</time></trkpt><trkpt lat="39.5898183" lon="8.8299367"><ele>117.0</ele><time>2026-05-01T12:35:45.529Z</time></trkpt><trkpt lat="39.5897917" lon="8.82979"><ele>117.0</ele><time>2026-05-01T12:35:46.529Z</time></trkpt><trkpt lat="39.5897683" lon="8.8296433"><ele>117.0</ele><time>2026-05-01T12:35:47.531Z</time></trkpt><trkpt lat="39.5897517" lon="8.8294967"><ele>117.0</ele><time>2026-05-01T12:35:48.53Z</time></trkpt><trkpt lat="39.5897283" lon="8.8293617"><ele>117.0</ele><time>2026-05-01T12:35:49.53Z</time></trkpt><trkpt lat="39.5897167" lon="8.8292233"><ele>117.0</ele><time>2026-05-01T12:35:50.535Z</time></trkpt><trkpt lat="39.589715" lon="8.8290633"><ele>117.0</ele><time>2026-05-01T12:35:51.528Z</time></trkpt><trkpt lat="39.589735" lon="8.828905"><ele>116.75</ele><time>2026-05-01T12:35:52.528Z</time></trkpt><trkpt lat="39.58977" lon="8.8287733"><ele>116.5</ele><time>2026-05-01T12:35:53.53Z</time></trkpt><trkpt lat="39.5898017" lon="8.8286133"><ele>116.25</ele><time>2026-05-01T12:35:54.53Z</time></trkpt><trkpt lat="39.5898517" lon="8.8284567"><ele>116.0</ele><time>2026-05-01T12:35:55.529Z</time></trkpt><trkpt lat="39.5898967" lon="8.828305"><ele>115.5</ele><time>2026-05-01T12:35:56.533Z</time></trkpt><trkpt lat="39.5899467" lon="8.828155"><ele>115.0</ele><time>2026-05-01T12:35:57.53Z</time></trkpt><trkpt lat="39.590005" lon="8.8279867"><ele>114.5</ele><time>2026-05-01T12:35:58.53Z</time></trkpt><trkpt lat="39.5900683" lon="8.8278333"><ele>114.0</ele><time>2026-05-01T12:35:59.529Z</time></trkpt><trkpt lat="39.5901517" lon="8.8276817"><ele>114.0</ele><time>2026-05-01T12:36:00.528Z</time></trkpt><trkpt lat="39.5902467" lon="8.8275317"><ele>114.0</ele><time>2026-05-01T12:36:01.531Z</time></trkpt><trkpt lat="39.59033" lon="8.8273933"><ele>114.0</ele><time>2026-05-01T12:36:02.528Z</time></trkpt><trkpt lat="39.5904217" lon="8.8272417"><ele>114.0</ele><time>2026-05-01T12:36:03.529Z</time></trkpt><trkpt lat="39.5905017" lon="8.8271"><ele>114.33333333333334</ele><time>2026-05-01T12:36:04.529Z</time></trkpt><trkpt lat="39.5906033" lon="8.82694"><ele>114.66666666666667</ele><time>2026-05-01T12:36:05.531Z</time></trkpt><trkpt lat="39.5906833" lon="8.8267933"><ele>115.0</ele><time>2026-05-01T12:36:06.527Z</time></trkpt><trkpt lat="39.5907767" lon="8.8266367"><ele>115.25</ele><time>2026-05-01T12:36:07.529Z</time></trkpt><trkpt lat="39.590865" lon="8.8264733"><ele>115.5</ele><time>2026-05-01T12:36:08.532Z</time></trkpt><trkpt lat="39.5909483" lon="8.8263367"><ele>115.75</ele><time>2026-05-01T12:36:09.531Z</time></trkpt><trkpt lat="39.5910417" lon="8.8262117"><ele>116.0</ele><time>2026-05-01T12:36:10.528Z</time></trkpt><trkpt lat="39.5911267" lon="8.8260967"><ele>116.8</ele><time>2026-05-01T12:36:11.529Z</time></trkpt><trkpt lat="39.591195" lon="8.8259833"><ele>117.6</ele><time>2026-05-01T12:36:12.533Z</time></trkpt><trkpt lat="39.59125" lon="8.8258767"><ele>118.4</ele><time>2026-05-01T12:36:13.529Z</time></trkpt><trkpt lat="39.5912967" lon="8.8257733"><ele>119.2</ele><time>2026-05-01T12:36:14.538Z</time></trkpt><trkpt lat="39.5913333" lon="8.8256817"><ele>120.0</ele><time>2026-05-01T12:36:15.53Z</time></trkpt><trkpt lat="39.5913667" lon="8.8255867"><ele>120.0</ele><time>2026-05-01T12:36:16.53Z</time></trkpt><trkpt lat="39.5914017" lon="8.8254917"><ele>120.0</ele><time>2026-05-01T12:36:17.531Z</time></trkpt><trkpt lat="39.591445" lon="8.8253933"><ele>120.0</ele><time>2026-05-01T12:36:18.529Z</time></trkpt><trkpt lat="39.59149" lon="8.8252883"><ele>120.0</ele><time>2026-05-01T12:36:19.532Z</time></trkpt><trkpt lat="39.591535" lon="8.8251783"><ele>120.0</ele><time>2026-05-01T12:36:20.536Z</time></trkpt><trkpt lat="39.5915833" lon="8.825055"><ele>120.0</ele><time>2026-05-01T12:36:21.529Z</time></trkpt><trkpt lat="39.5916333" lon="8.8249283"><ele>120.0</ele><time>2026-05-01T12:36:22.526Z</time></trkpt><trkpt lat="39.5916867" lon="8.8247983"><ele>120.0</ele><time>2026-05-01T12:36:23.531Z</time></trkpt><trkpt lat="39.5917417" lon="8.8246733"><ele>120.0</ele><time>2026-05-01T12:36:24.53Z</time></trkpt><trkpt lat="39.5917983" lon="8.82455"><ele>120.0</ele><time>2026-05-01T12:36:25.529Z</time></trkpt><trkpt lat="39.5918533" lon="8.82443"><ele>120.0</ele><time>2026-05-01T12:36:26.533Z</time></trkpt><trkpt lat="39.59191" lon="8.824315"><ele>120.0</ele><time>2026-05-01T12:36:27.525Z</time></trkpt><trkpt lat="39.591975" lon="8.824205"><ele>120.0</ele><time>2026-05-01T12:36:28.529Z</time></trkpt><trkpt lat="39.59205" lon="8.8241067"><ele>120.0</ele><time>2026-05-01T12:36:29.531Z</time></trkpt><trkpt lat="39.5921367" lon="8.8240133"><ele>120.0</ele><time>2026-05-01T12:36:30.529Z</time></trkpt><trkpt lat="39.5922517" lon="8.8239317"><ele>118.75</ele><time>2026-05-01T12:36:31.528Z</time></trkpt><trkpt lat="39.59234" lon="8.8238467"><ele>117.5</ele><time>2026-05-01T12:36:32.547Z</time></trkpt><trkpt lat="39.5924267" lon="8.8237767"><ele>116.25</ele><time>2026-05-01T12:36:33.529Z</time></trkpt><trkpt lat="39.5925317" lon="8.8236867"><ele>115.0</ele><time>2026-05-01T12:36:34.528Z</time></trkpt><trkpt lat="39.592645" lon="8.8236067"><ele>115.0</ele><time>2026-05-01T12:36:35.531Z</time></trkpt><trkpt lat="39.5927583" lon="8.8235283"><ele>115.0</ele><time>2026-05-01T12:36:36.527Z</time></trkpt><trkpt lat="39.5928583" lon="8.8234617"><ele>115.0</ele><time>2026-05-01T12:36:37.524Z</time></trkpt><trkpt lat="39.5929517" lon="8.8234067"><ele>115.0</ele><time>2026-05-01T12:36:38.537Z</time></trkpt><trkpt lat="39.5930417" lon="8.8233617"><ele>115.0</ele><time>2026-05-01T12:36:39.529Z</time></trkpt><trkpt lat="39.5931267" lon="8.82332"><ele>114.33333333333334</ele><time>2026-05-01T12:36:40.528Z</time></trkpt><trkpt lat="39.5932133" lon="8.82328"><ele>113.66666666666667</ele><time>2026-05-01T12:36:41.529Z</time></trkpt><trkpt lat="39.5932917" lon="8.82324"><ele>113.0</ele><time>2026-05-01T12:36:42.529Z</time></trkpt><trkpt lat="39.5933767" lon="8.82321"><ele>112.33333333333334</ele><time>2026-05-01T12:36:43.532Z</time></trkpt><trkpt lat="39.5934583" lon="8.8231683"><ele>111.66666666666667</ele><time>2026-05-01T12:36:44.538Z</time></trkpt><trkpt lat="39.593535" lon="8.8231267"><ele>111.0</ele><time>2026-05-01T12:36:45.532Z</time></trkpt><trkpt lat="39.5936083" lon="8.8230883"><ele>110.71428571428571</ele><time>2026-05-01T12:36:46.527Z</time></trkpt><trkpt lat="39.59368" lon="8.8230567"><ele>110.42857142857143</ele><time>2026-05-01T12:36:47.528Z</time></trkpt><trkpt lat="39.5937483" lon="8.82303"><ele>110.14285714285714</ele><time>2026-05-01T12:36:48.531Z</time></trkpt><trkpt lat="39.593815" lon="8.823005"><ele>109.85714285714286</ele><time>2026-05-01T12:36:49.53Z</time></trkpt><trkpt lat="39.593885" lon="8.8229767"><ele>109.57142857142858</ele><time>2026-05-01T12:36:50.538Z</time></trkpt><trkpt lat="39.593955" lon="8.82294"><ele>109.28571428571429</ele><time>2026-05-01T12:36:51.526Z</time></trkpt><trkpt lat="39.594025" lon="8.8229083"><ele>109.0</ele><time>2026-05-01T12:36:52.528Z</time></trkpt><trkpt lat="39.5941" lon="8.8228667"><ele>109.0</ele><time>2026-05-01T12:36:53.527Z</time></trkpt><trkpt lat="39.5941783" lon="8.8228233"><ele>109.0</ele><time>2026-05-01T12:36:54.529Z</time></trkpt><trkpt lat="39.5942583" lon="8.8227783"><ele>109.0</ele><time>2026-05-01T12:36:55.529Z</time></trkpt><trkpt lat="39.5943417" lon="8.8227367"><ele>109.0</ele><time>2026-05-01T12:36:56.529Z</time></trkpt><trkpt lat="39.59443" lon="8.8226783"><ele>109.0</ele><time>2026-05-01T12:36:57.527Z</time></trkpt><trkpt lat="39.5945267" lon="8.8225967"><ele>108.25</ele><time>2026-05-01T12:36:58.529Z</time></trkpt><trkpt lat="39.5946167" lon="8.8225317"><ele>107.5</ele><time>2026-05-01T12:36:59.529Z</time></trkpt><trkpt lat="39.594705" lon="8.8224667"><ele>106.75</ele><time>2026-05-01T12:37:00.531Z</time></trkpt><trkpt lat="39.5948167" lon="8.822395"><ele>106.0</ele><time>2026-05-01T12:37:01.531Z</time></trkpt><trkpt lat="39.594915" lon="8.8222983"><ele>106.0</ele><time>2026-05-01T12:37:02.532Z</time></trkpt><trkpt lat="39.59502" lon="8.8222067"><ele>106.0</ele><time>2026-05-01T12:37:03.525Z</time></trkpt><trkpt lat="39.5951167" lon="8.8221183"><ele>106.0</ele><time>2026-05-01T12:37:04.527Z</time></trkpt><trkpt lat="39.5952083" lon="8.82203"><ele>106.0</ele><time>2026-05-01T12:37:05.535Z</time></trkpt><trkpt lat="39.5952917" lon="8.821935"><ele>106.19999999999999</ele><time>2026-05-01T12:37:06.529Z</time></trkpt><trkpt lat="39.5953617" lon="8.821835"><ele>106.39999999999999</ele><time>2026-05-01T12:37:07.528Z</time></trkpt><trkpt lat="39.59543" lon="8.8217217"><ele>106.6</ele><time>2026-05-01T12:37:08.54Z</time></trkpt><trkpt lat="39.5955" lon="8.821615"><ele>106.8</ele><time>2026-05-01T12:37:09.527Z</time></trkpt><trkpt lat="39.5955733" lon="8.8215167"><ele>107.0</ele><time>2026-05-01T12:37:10.529Z</time></trkpt><trkpt lat="39.595655" lon="8.8214133"><ele>107.0</ele><time>2026-05-01T12:37:11.529Z</time></trkpt><trkpt lat="39.5957333" lon="8.8213417"><ele>106.99999999999999</ele><time>2026-05-01T12:37:12.528Z</time></trkpt><trkpt lat="39.5958233" lon="8.821305"><ele>106.99999999999999</ele><time>2026-05-01T12:37:13.528Z</time></trkpt><trkpt lat="39.5959133" lon="8.8212717"><ele>107.0</ele><time>2026-05-01T12:37:14.541Z</time></trkpt><trkpt lat="39.5960133" lon="8.8212467"><ele>107.0</ele><time>2026-05-01T12:37:15.533Z</time></trkpt><trkpt lat="39.5961067" lon="8.8212133"><ele>107.16666666666666</ele><time>2026-05-01T12:37:16.528Z</time></trkpt><trkpt lat="39.5961917" lon="8.8211717"><ele>107.33333333333333</ele><time>2026-05-01T12:37:17.529Z</time></trkpt><trkpt lat="39.5962633" lon="8.82112"><ele>107.5</ele><time>2026-05-01T12:37:18.533Z</time></trkpt><trkpt lat="39.5963317" lon="8.82107"><ele>107.66666666666666</ele><time>2026-05-01T12:37:19.525Z</time></trkpt><trkpt lat="39.5964" lon="8.821005"><ele>107.83333333333333</ele><time>2026-05-01T12:37:20.539Z</time></trkpt><trkpt lat="39.5964633" lon="8.8209217"><ele>108.0</ele><time>2026-05-01T12:37:21.53Z</time></trkpt><trkpt lat="39.5965067" lon="8.8208133"><ele>108.0</ele><time>2026-05-01T12:37:22.528Z</time></trkpt><trkpt lat="39.5965417" lon="8.8206767"><ele>108.0</ele><time>2026-05-01T12:37:23.531Z</time></trkpt><trkpt lat="39.5965733" lon="8.820535"><ele>108.0</ele><time>2026-05-01T12:37:24.529Z</time></trkpt><trkpt lat="39.5966183" lon="8.82039"><ele>108.0</ele><time>2026-05-01T12:37:25.527Z</time></trkpt><trkpt lat="39.5966767" lon="8.8202083"><ele>108.25</ele><time>2026-05-01T12:37:26.586Z</time></trkpt><trkpt lat="39.5967367" lon="8.8200183"><ele>108.5</ele><time>2026-05-01T12:37:27.527Z</time></trkpt><trkpt lat="39.5967933" lon="8.81986"><ele>108.75</ele><time>2026-05-01T12:37:28.528Z</time></trkpt><trkpt lat="39.5968533" lon="8.8197167"><ele>109.0</ele><time>2026-05-01T12:37:29.526Z</time></trkpt><trkpt lat="39.5969233" lon="8.8195667"><ele>109.0</ele><time>2026-05-01T12:37:30.528Z</time></trkpt><trkpt lat="39.5969867" lon="8.81941"><ele>109.0</ele><time>2026-05-01T12:37:31.527Z</time></trkpt><trkpt lat="39.5970333" lon="8.81925"><ele>109.0</ele><time>2026-05-01T12:37:32.544Z</time></trkpt><trkpt lat="39.5970883" lon="8.8190917"><ele>109.0</ele><time>2026-05-01T12:37:33.532Z</time></trkpt><trkpt lat="39.5971433" lon="8.8189267"><ele>109.0</ele><time>2026-05-01T12:37:34.529Z</time></trkpt><trkpt lat="39.5972033" lon="8.81876"><ele>109.0</ele><time>2026-05-01T12:37:35.526Z</time></trkpt><trkpt lat="39.5972633" lon="8.818605"><ele>109.0</ele><time>2026-05-01T12:37:36.53Z</time></trkpt><trkpt lat="39.5973283" lon="8.8184583"><ele>109.0</ele><time>2026-05-01T12:37:37.529Z</time></trkpt><trkpt lat="39.5974017" lon="8.8183183"><ele>109.0</ele><time>2026-05-01T12:37:38.538Z</time></trkpt><trkpt lat="39.597485" lon="8.8181817"><ele>109.0</ele><time>2026-05-01T12:37:39.531Z</time></trkpt><trkpt lat="39.5975917" lon="8.8180533"><ele>109.0</ele><time>2026-05-01T12:37:40.525Z</time></trkpt><trkpt lat="39.5976933" lon="8.8179433"><ele>109.0</ele><time>2026-05-01T12:37:41.527Z</time></trkpt><trkpt lat="39.5977933" lon="8.8178467"><ele>109.0</ele><time>2026-05-01T12:37:42.53Z</time></trkpt><trkpt lat="39.5978733" lon="8.8177233"><ele>109.0</ele><time>2026-05-01T12:37:43.529Z</time></trkpt><trkpt lat="39.597945" lon="8.81763"><ele>109.0</ele><time>2026-05-01T12:37:44.542Z</time></trkpt><trkpt lat="39.5980167" lon="8.8175117"><ele>109.0</ele><time>2026-05-01T12:37:45.53Z</time></trkpt><trkpt lat="39.5980783" lon="8.8174267"><ele>109.0</ele><time>2026-05-01T12:37:46.529Z</time></trkpt><trkpt lat="39.5981417" lon="8.8173567"><ele>109.0</ele><time>2026-05-01T12:37:47.53Z</time></trkpt><trkpt lat="39.5982067" lon="8.817295"><ele>109.0</ele><time>2026-05-01T12:37:48.528Z</time></trkpt><trkpt lat="39.598285" lon="8.817255"><ele>109.0</ele><time>2026-05-01T12:37:49.529Z</time></trkpt><trkpt lat="39.598385" lon="8.8172367"><ele>109.0</ele><time>2026-05-01T12:37:50.542Z</time></trkpt><trkpt lat="39.5985167" lon="8.817245"><ele>109.0</ele><time>2026-05-01T12:37:51.532Z</time></trkpt><trkpt lat="39.5986483" lon="8.81724"><ele>110.25</ele><time>2026-05-01T12:37:52.529Z</time></trkpt><trkpt lat="39.598785" lon="8.8172217"><ele>111.5</ele><time>2026-05-01T12:37:53.526Z</time></trkpt><trkpt lat="39.5989233" lon="8.8172017"><ele>112.75</ele><time>2026-05-01T12:37:54.527Z</time></trkpt><trkpt lat="39.5990717" lon="8.81718"><ele>114.0</ele><time>2026-05-01T12:37:55.523Z</time></trkpt><trkpt lat="39.5992233" lon="8.8171733"><ele>114.0</ele><time>2026-05-01T12:37:56.588Z</time></trkpt><trkpt lat="39.5993783" lon="8.8171633"><ele>114.0</ele><time>2026-05-01T12:37:57.527Z</time></trkpt><trkpt lat="39.5995367" lon="8.81717"><ele>114.0</ele><time>2026-05-01T12:37:58.526Z</time></trkpt><trkpt lat="39.599685" lon="8.817165"><ele>114.75</ele><time>2026-05-01T12:37:59.53Z</time></trkpt><trkpt lat="39.59983" lon="8.8171617"><ele>115.5</ele><time>2026-05-01T12:38:00.528Z</time></trkpt><trkpt lat="39.5999533" lon="8.81715"><ele>116.25</ele><time>2026-05-01T12:38:01.528Z</time></trkpt><trkpt lat="39.6000767" lon="8.8171467"><ele>117.0</ele><time>2026-05-01T12:38:02.528Z</time></trkpt><trkpt lat="39.6002033" lon="8.817105"><ele>117.0</ele><time>2026-05-01T12:38:03.529Z</time></trkpt><trkpt lat="39.60033" lon="8.817055"><ele>117.0</ele><time>2026-05-01T12:38:04.531Z</time></trkpt><trkpt lat="39.6004567" lon="8.8169983"><ele>117.0</ele><time>2026-05-01T12:38:05.53Z</time></trkpt><trkpt lat="39.6005867" lon="8.816945"><ele>117.0</ele><time>2026-05-01T12:38:06.528Z</time></trkpt><trkpt lat="39.6007133" lon="8.8168983"><ele>117.6</ele><time>2026-05-01T12:38:07.526Z</time></trkpt><trkpt lat="39.6008383" lon="8.8168567"><ele>118.19999999999999</ele><time>2026-05-01T12:38:08.541Z</time></trkpt><trkpt lat="39.6009517" lon="8.8168333"><ele>118.8</ele><time>2026-05-01T12:38:09.529Z</time></trkpt><trkpt lat="39.6010567" lon="8.816815"><ele>119.4</ele><time>2026-05-01T12:38:10.528Z</time></trkpt><trkpt lat="39.6011517" lon="8.8167983"><ele>120.0</ele><time>2026-05-01T12:38:11.529Z</time></trkpt><trkpt lat="39.601235" lon="8.816785"><ele>120.71428571428572</ele><time>2026-05-01T12:38:12.527Z</time></trkpt><trkpt lat="39.60131" lon="8.8167667"><ele>121.42857142857142</ele><time>2026-05-01T12:38:13.528Z</time></trkpt><trkpt lat="39.6013733" lon="8.81675"><ele>122.14285714285714</ele><time>2026-05-01T12:38:14.541Z</time></trkpt><trkpt lat="39.6014583" lon="8.8167317"><ele>122.85714285714286</ele><time>2026-05-01T12:38:16.526Z</time></trkpt><trkpt lat="39.6013817" lon="8.81667"><ele>123.57142857142858</ele><time>2026-05-01T12:38:24.53Z</time></trkpt><trkpt lat="39.6013183" lon="8.81668"><ele>124.28571428571428</ele><time>2026-05-01T12:38:25.529Z</time></trkpt><trkpt lat="39.6012517" lon="8.81668"><ele>125.0</ele><time>2026-05-01T12:38:26.533Z</time></trkpt><trkpt lat="39.6011783" lon="8.816685"><ele>124.83333333333333</ele><time>2026-05-01T12:38:27.528Z</time></trkpt><trkpt lat="39.6011017" lon="8.8166883"><ele>124.66666666666666</ele><time>2026-05-01T12:38:28.531Z</time></trkpt><trkpt lat="39.601025" lon="8.8166883"><ele>124.5</ele><time>2026-05-01T12:38:29.528Z</time></trkpt><trkpt lat="39.60095" lon="8.8166833"><ele>124.33333333333334</ele><time>2026-05-01T12:38:30.526Z</time></trkpt><trkpt lat="39.600865" lon="8.8166767"><ele>124.16666666666667</ele><time>2026-05-01T12:38:31.528Z</time></trkpt><trkpt lat="39.60078" lon="8.816665"><ele>124.0</ele><time>2026-05-01T12:38:32.532Z</time></trkpt><trkpt lat="39.600695" lon="8.8166467"><ele>124.0</ele><time>2026-05-01T12:38:33.527Z</time></trkpt><trkpt lat="39.600605" lon="8.816625"><ele>124.0</ele><time>2026-05-01T12:38:34.53Z</time></trkpt><trkpt lat="39.6005117" lon="8.8166017"><ele>124.0</ele><time>2026-05-01T12:38:35.528Z</time></trkpt><trkpt lat="39.6004233" lon="8.8165717"><ele>124.0</ele><time>2026-05-01T12:38:36.531Z</time></trkpt><trkpt lat="39.600335" lon="8.8165383"><ele>124.0</ele><time>2026-05-01T12:38:37.526Z</time></trkpt><trkpt lat="39.6002483" lon="8.8165033"><ele>123.50000000000001</ele><time>2026-05-01T12:38:38.541Z</time></trkpt><trkpt lat="39.6001617" lon="8.816465"><ele>123.0</ele><time>2026-05-01T12:38:39.528Z</time></trkpt><trkpt lat="39.60008" lon="8.81643"><ele>122.5</ele><time>2026-05-01T12:38:40.528Z</time></trkpt><trkpt lat="39.6000033" lon="8.81639"><ele>122.0</ele><time>2026-05-01T12:38:41.531Z</time></trkpt><trkpt lat="39.5999333" lon="8.816345"><ele>121.50000000000001</ele><time>2026-05-01T12:38:42.529Z</time></trkpt><trkpt lat="39.5998667" lon="8.816295"><ele>121.0</ele><time>2026-05-01T12:38:43.529Z</time></trkpt><trkpt lat="39.5998067" lon="8.8162317"><ele>121.00000000000001</ele><time>2026-05-01T12:38:44.538Z</time></trkpt><trkpt lat="39.599745" lon="8.81617"><ele>121.0</ele><time>2026-05-01T12:38:45.531Z</time></trkpt><trkpt lat="39.5996833" lon="8.8161083"><ele>121.0</ele><time>2026-05-01T12:38:46.528Z</time></trkpt><trkpt lat="39.5996233" lon="8.8160483"><ele>121.0</ele><time>2026-05-01T12:38:47.53Z</time></trkpt><trkpt lat="39.5995633" lon="8.81599"><ele>121.00000000000001</ele><time>2026-05-01T12:38:48.527Z</time></trkpt><trkpt lat="39.5995" lon="8.8159383"><ele>121.0</ele><time>2026-05-01T12:38:49.528Z</time></trkpt><trkpt lat="39.5994333" lon="8.8158883"><ele>121.00000000000001</ele><time>2026-05-01T12:38:50.54Z</time></trkpt><trkpt lat="39.5993633" lon="8.81584"><ele>121.0</ele><time>2026-05-01T12:38:51.528Z</time></trkpt><trkpt lat="39.5992883" lon="8.8157917"><ele>121.0</ele><time>2026-05-01T12:38:52.528Z</time></trkpt><trkpt lat="39.59921" lon="8.8157417"><ele>121.0</ele><time>2026-05-01T12:38:53.528Z</time></trkpt><trkpt lat="39.5991283" lon="8.815685"><ele>121.00000000000001</ele><time>2026-05-01T12:38:54.528Z</time></trkpt><trkpt lat="39.5990467" lon="8.81562"><ele>121.0</ele><time>2026-05-01T12:38:55.527Z</time></trkpt><trkpt lat="39.5989617" lon="8.8155517"><ele>121.0</ele><time>2026-05-01T12:38:56.529Z</time></trkpt><trkpt lat="39.5988783" lon="8.81548"><ele>121.0</ele><time>2026-05-01T12:38:57.526Z</time></trkpt><trkpt lat="39.5988017" lon="8.8153983"><ele>121.0</ele><time>2026-05-01T12:38:58.529Z</time></trkpt><trkpt lat="39.5987333" lon="8.8153133"><ele>121.0</ele><time>2026-05-01T12:38:59.525Z</time></trkpt><trkpt lat="39.5986567" lon="8.8152217"><ele>121.0</ele><time>2026-05-01T12:39:00.528Z</time></trkpt><trkpt lat="39.59856" lon="8.815135"><ele>121.0</ele><time>2026-05-01T12:39:01.53Z</time></trkpt><trkpt lat="39.59848" lon="8.81505"><ele>121.0</ele><time>2026-05-01T12:39:02.559Z</time></trkpt><trkpt lat="39.598395" lon="8.8149567"><ele>121.0</ele><time>2026-05-01T12:39:03.527Z</time></trkpt><trkpt lat="39.5983317" lon="8.8148633"><ele>121.0</ele><time>2026-05-01T12:39:04.528Z</time></trkpt><trkpt lat="39.5982483" lon="8.8147667"><ele>121.0</ele><time>2026-05-01T12:39:05.529Z</time></trkpt><trkpt lat="39.5981817" lon="8.8147117"><ele>121.0</ele><time>2026-05-01T12:39:06.529Z</time></trkpt><trkpt lat="39.5980967" lon="8.8146117"><ele>121.0</ele><time>2026-05-01T12:39:07.527Z</time></trkpt><trkpt lat="39.5980483" lon="8.8144667"><ele>121.0</ele><time>2026-05-01T12:39:08.539Z</time></trkpt><trkpt lat="39.5979817" lon="8.8143517"><ele>121.0</ele><time>2026-05-01T12:39:09.528Z</time></trkpt><trkpt lat="39.5979183" lon="8.8142233"><ele>120.8</ele><time>2026-05-01T12:39:10.527Z</time></trkpt><trkpt lat="39.5978483" lon="8.8140867"><ele>120.6</ele><time>2026-05-01T12:39:11.527Z</time></trkpt><trkpt lat="39.5977933" lon="8.8139783"><ele>120.4</ele><time>2026-05-01T12:39:12.528Z</time></trkpt><trkpt lat="39.597755" lon="8.8138633"><ele>120.2</ele><time>2026-05-01T12:39:13.526Z</time></trkpt><trkpt lat="39.5977017" lon="8.8137267"><ele>120.0</ele><time>2026-05-01T12:39:14.54Z</time></trkpt><trkpt lat="39.5976367" lon="8.8135967"><ele>120.5</ele><time>2026-05-01T12:39:15.531Z</time></trkpt><trkpt lat="39.5975717" lon="8.813465"><ele>121.0</ele><time>2026-05-01T12:39:16.529Z</time></trkpt><trkpt lat="39.5975117" lon="8.813335"><ele>121.5</ele><time>2026-05-01T12:39:17.528Z</time></trkpt><trkpt lat="39.597445" lon="8.8131967"><ele>122.0</ele><time>2026-05-01T12:39:18.53Z</time></trkpt><trkpt lat="39.5973867" lon="8.8130517"><ele>122.0</ele><time>2026-05-01T12:39:19.53Z</time></trkpt><trkpt lat="39.59732" lon="8.81291"><ele>122.0</ele><time>2026-05-01T12:39:20.538Z</time></trkpt><trkpt lat="39.597245" lon="8.81277"><ele>122.0</ele><time>2026-05-01T12:39:21.527Z</time></trkpt><trkpt lat="39.59716" lon="8.8126317"><ele>122.0</ele><time>2026-05-01T12:39:22.526Z</time></trkpt><trkpt lat="39.5970683" lon="8.8124933"><ele>121.75</ele><time>2026-05-01T12:39:23.529Z</time></trkpt><trkpt lat="39.59698" lon="8.8123583"><ele>121.5</ele><time>2026-05-01T12:39:24.527Z</time></trkpt><trkpt lat="39.5968933" lon="8.81222"><ele>121.25</ele><time>2026-05-01T12:39:25.528Z</time></trkpt><trkpt lat="39.5968067" lon="8.81209"><ele>121.0</ele><time>2026-05-01T12:39:26.53Z</time></trkpt><trkpt lat="39.5967183" lon="8.8119633"><ele>121.0</ele><time>2026-05-01T12:39:27.529Z</time></trkpt><trkpt lat="39.59663" lon="8.8118333"><ele>121.0</ele><time>2026-05-01T12:39:28.526Z</time></trkpt><trkpt lat="39.5965483" lon="8.8116933"><ele>121.0</ele><time>2026-05-01T12:39:29.531Z</time></trkpt><trkpt lat="39.5964733" lon="8.8115467"><ele>121.0</ele><time>2026-05-01T12:39:30.53Z</time></trkpt><trkpt lat="39.5964083" lon="8.8113917"><ele>122.5</ele><time>2026-05-01T12:39:31.532Z</time></trkpt><trkpt lat="39.5963467" lon="8.8112317"><ele>124.0</ele><time>2026-05-01T12:39:32.532Z</time></trkpt><trkpt lat="39.5962883" lon="8.8110633"><ele>125.5</ele><time>2026-05-01T12:39:33.531Z</time></trkpt><trkpt lat="39.596235" lon="8.8108917"><ele>127.0</ele><time>2026-05-01T12:39:34.526Z</time></trkpt><trkpt lat="39.5961917" lon="8.81072"><ele>127.25</ele><time>2026-05-01T12:39:35.528Z</time></trkpt><trkpt lat="39.5961483" lon="8.81055"><ele>127.5</ele><time>2026-05-01T12:39:36.529Z</time></trkpt><trkpt lat="39.5960967" lon="8.8103833"><ele>127.75</ele><time>2026-05-01T12:39:37.529Z</time></trkpt><trkpt lat="39.5960567" lon="8.810235"><ele>128.0</ele><time>2026-05-01T12:39:38.542Z</time></trkpt><trkpt lat="39.5960167" lon="8.810095"><ele>128.25</ele><time>2026-05-01T12:39:39.526Z</time></trkpt><trkpt lat="39.59597" lon="8.80996"><ele>128.5</ele><time>2026-05-01T12:39:40.525Z</time></trkpt><trkpt lat="39.5959317" lon="8.8098233"><ele>128.75</ele><time>2026-05-01T12:39:41.53Z</time></trkpt><trkpt lat="39.5959017" lon="8.8096833"><ele>129.0</ele><time>2026-05-01T12:39:42.532Z</time></trkpt><trkpt lat="39.5958767" lon="8.8095367"><ele>129.0</ele><time>2026-05-01T12:39:43.53Z</time></trkpt><trkpt lat="39.5958583" lon="8.80938"><ele>129.0</ele><time>2026-05-01T12:39:44.539Z</time></trkpt><trkpt lat="39.5958483" lon="8.8092133"><ele>129.0</ele><time>2026-05-01T12:39:45.531Z</time></trkpt><trkpt lat="39.59584" lon="8.80904"><ele>129.0</ele><time>2026-05-01T12:39:46.528Z</time></trkpt><trkpt lat="39.5958317" lon="8.80887"><ele>129.0</ele><time>2026-05-01T12:39:47.527Z</time></trkpt><trkpt lat="39.5958217" lon="8.8087"><ele>129.0</ele><time>2026-05-01T12:39:48.526Z</time></trkpt><trkpt lat="39.5958067" lon="8.8085267"><ele>129.0</ele><time>2026-05-01T12:39:49.529Z</time></trkpt><trkpt lat="39.5957883" lon="8.8083633"><ele>129.0</ele><time>2026-05-01T12:39:50.541Z</time></trkpt><trkpt lat="39.595775" lon="8.8082067"><ele>129.0</ele><time>2026-05-01T12:39:51.527Z</time></trkpt><trkpt lat="39.5957683" lon="8.8080617"><ele>129.0</ele><time>2026-05-01T12:39:52.528Z</time></trkpt><trkpt lat="39.5957567" lon="8.8079233"><ele>129.0</ele><time>2026-05-01T12:39:53.53Z</time></trkpt><trkpt lat="39.5957333" lon="8.8077917"><ele>129.0</ele><time>2026-05-01T12:39:54.53Z</time></trkpt><trkpt lat="39.5957033" lon="8.8076567"><ele>129.0</ele><time>2026-05-01T12:39:55.53Z</time></trkpt><trkpt lat="39.5956633" lon="8.807525"><ele>129.0</ele><time>2026-05-01T12:39:56.587Z</time></trkpt><trkpt lat="39.5956233" lon="8.807385"><ele>129.0</ele><time>2026-05-01T12:39:57.53Z</time></trkpt><trkpt lat="39.5955867" lon="8.8072333"><ele>129.0</ele><time>2026-05-01T12:39:58.527Z</time></trkpt><trkpt lat="39.5955567" lon="8.8070683"><ele>129.0</ele><time>2026-05-01T12:39:59.527Z</time></trkpt><trkpt lat="39.59552" lon="8.8069"><ele>128.75</ele><time>2026-05-01T12:40:00.529Z</time></trkpt><trkpt lat="39.5954883" lon="8.80672"><ele>128.5</ele><time>2026-05-01T12:40:01.529Z</time></trkpt><trkpt lat="39.5954517" lon="8.8065317"><ele>128.25</ele><time>2026-05-01T12:40:02.529Z</time></trkpt><trkpt lat="39.5954133" lon="8.806345"><ele>128.0</ele><time>2026-05-01T12:40:03.53Z</time></trkpt><trkpt lat="39.5953767" lon="8.8061533"><ele>128.0</ele><time>2026-05-01T12:40:04.527Z</time></trkpt><trkpt lat="39.5953417" lon="8.805965"><ele>128.0</ele><time>2026-05-01T12:40:05.529Z</time></trkpt><trkpt lat="39.5953067" lon="8.8057817"><ele>128.0</ele><time>2026-05-01T12:40:06.529Z</time></trkpt><trkpt lat="39.5952667" lon="8.8056067"><ele>128.0</ele><time>2026-05-01T12:40:07.527Z</time></trkpt><trkpt lat="39.595225" lon="8.8054467"><ele>125.5</ele><time>2026-05-01T12:40:08.54Z</time></trkpt><trkpt lat="39.595175" lon="8.8052917"><ele>123.0</ele><time>2026-05-01T12:40:09.533Z</time></trkpt><trkpt lat="39.595115" lon="8.8051383"><ele>120.5</ele><time>2026-05-01T12:40:10.528Z</time></trkpt><trkpt lat="39.59505" lon="8.8049817"><ele>118.0</ele><time>2026-05-01T12:40:11.525Z</time></trkpt><trkpt lat="39.5949783" lon="8.80482"><ele>117.75</ele><time>2026-05-01T12:40:12.528Z</time></trkpt><trkpt lat="39.5949017" lon="8.8046567"><ele>117.5</ele><time>2026-05-01T12:40:13.528Z</time></trkpt><trkpt lat="39.59482" lon="8.8044967"><ele>117.25</ele><time>2026-05-01T12:40:14.541Z</time></trkpt><trkpt lat="39.5947283" lon="8.8043517"><ele>117.0</ele><time>2026-05-01T12:40:15.527Z</time></trkpt><trkpt lat="39.5946333" lon="8.8042183"><ele>117.5</ele><time>2026-05-01T12:40:16.529Z</time></trkpt><trkpt lat="39.5945383" lon="8.8040833"><ele>118.0</ele><time>2026-05-01T12:40:17.529Z</time></trkpt><trkpt lat="39.5944467" lon="8.803945"><ele>118.5</ele><time>2026-05-01T12:40:18.525Z</time></trkpt><trkpt lat="39.5943583" lon="8.8038067"><ele>119.0</ele><time>2026-05-01T12:40:19.532Z</time></trkpt><trkpt lat="39.5942767" lon="8.80367"><ele>118.0</ele><time>2026-05-01T12:40:20.542Z</time></trkpt><trkpt lat="39.5942033" lon="8.803525"><ele>117.0</ele><time>2026-05-01T12:40:21.529Z</time></trkpt><trkpt lat="39.5940633" lon="8.8032117"><ele>116.0</ele><time>2026-05-01T12:40:23.529Z</time></trkpt><trkpt lat="39.5939867" lon="8.8030617"><ele>116.0</ele><time>2026-05-01T12:40:24.526Z</time></trkpt><trkpt lat="39.5939083" lon="8.8029183"><ele>116.0</ele><time>2026-05-01T12:40:25.526Z</time></trkpt><trkpt lat="39.593825" lon="8.802785"><ele>116.0</ele><time>2026-05-01T12:40:26.525Z</time></trkpt><trkpt lat="39.593745" lon="8.8026583"><ele>116.0</ele><time>2026-05-01T12:40:27.527Z</time></trkpt><trkpt lat="39.5936683" lon="8.8025417"><ele>115.0</ele><time>2026-05-01T12:40:28.528Z</time></trkpt><trkpt lat="39.59359" lon="8.8024333"><ele>114.0</ele><time>2026-05-01T12:40:29.527Z</time></trkpt><trkpt lat="39.5935167" lon="8.80232"><ele>113.0</ele><time>2026-05-01T12:40:30.529Z</time></trkpt><trkpt lat="39.5934483" lon="8.802205"><ele>112.0</ele><time>2026-05-01T12:40:31.525Z</time></trkpt><trkpt lat="39.5933867" lon="8.8020867"><ele>112.0</ele><time>2026-05-01T12:40:32.558Z</time></trkpt><trkpt lat="39.59333" lon="8.8019617"><ele>112.0</ele><time>2026-05-01T12:40:33.528Z</time></trkpt><trkpt lat="39.5932867" lon="8.8018267"><ele>112.0</ele><time>2026-05-01T12:40:34.527Z</time></trkpt><trkpt lat="39.59325" lon="8.8016833"><ele>112.0</ele><time>2026-05-01T12:40:35.525Z</time></trkpt><trkpt lat="39.593215" lon="8.8015367"><ele>112.5</ele><time>2026-05-01T12:40:36.527Z</time></trkpt><trkpt lat="39.5931817" lon="8.801395"><ele>113.0</ele><time>2026-05-01T12:40:37.527Z</time></trkpt><trkpt lat="39.5931417" lon="8.8012583"><ele>113.5</ele><time>2026-05-01T12:40:38.538Z</time></trkpt><trkpt lat="39.593095" lon="8.80112"><ele>114.0</ele><time>2026-05-01T12:40:39.527Z</time></trkpt><trkpt lat="39.5930433" lon="8.80098"><ele>114.0</ele><time>2026-05-01T12:40:40.528Z</time></trkpt><trkpt lat="39.59299" lon="8.8008383"><ele>114.0</ele><time>2026-05-01T12:40:41.527Z</time></trkpt><trkpt lat="39.592935" lon="8.8007033"><ele>114.0</ele><time>2026-05-01T12:40:42.527Z</time></trkpt><trkpt lat="39.5928767" lon="8.8005817"><ele>114.0</ele><time>2026-05-01T12:40:43.527Z</time></trkpt><trkpt lat="39.5928167" lon="8.8004717"><ele>113.83333333333333</ele><time>2026-05-01T12:40:44.543Z</time></trkpt><trkpt lat="39.5927583" lon="8.800375"><ele>113.66666666666666</ele><time>2026-05-01T12:40:45.525Z</time></trkpt><trkpt lat="39.5927017" lon="8.80029"><ele>113.5</ele><time>2026-05-01T12:40:46.528Z</time></trkpt><trkpt lat="39.5926367" lon="8.8002217"><ele>113.33333333333333</ele><time>2026-05-01T12:40:47.527Z</time></trkpt><trkpt lat="39.5925633" lon="8.800165"><ele>113.16666666666666</ele><time>2026-05-01T12:40:48.528Z</time></trkpt><trkpt lat="39.59248" lon="8.800115"><ele>113.0</ele><time>2026-05-01T12:40:49.528Z</time></trkpt><trkpt lat="39.5923917" lon="8.8000717"><ele>113.0</ele><time>2026-05-01T12:40:50.539Z</time></trkpt><trkpt lat="39.592305" lon="8.8000217"><ele>113.00000000000001</ele><time>2026-05-01T12:40:51.526Z</time></trkpt><trkpt lat="39.592215" lon="8.7999667"><ele>113.00000000000001</ele><time>2026-05-01T12:40:52.526Z</time></trkpt><trkpt lat="39.5921283" lon="8.7999117"><ele>113.0</ele><time>2026-05-01T12:40:53.526Z</time></trkpt><trkpt lat="39.5920417" lon="8.799855"><ele>113.0</ele><time>2026-05-01T12:40:54.527Z</time></trkpt><trkpt lat="39.5919567" lon="8.7997967"><ele>112.0</ele><time>2026-05-01T12:40:55.528Z</time></trkpt><trkpt lat="39.5918667" lon="8.7997633"><ele>111.00000000000001</ele><time>2026-05-01T12:40:56.531Z</time></trkpt><trkpt lat="39.5917817" lon="8.79971"><ele>110.00000000000001</ele><time>2026-05-01T12:40:57.529Z</time></trkpt><trkpt lat="39.59172" lon="8.799645"><ele>109.0</ele><time>2026-05-01T12:40:58.527Z</time></trkpt><trkpt lat="39.5916383" lon="8.7995633"><ele>108.0</ele><time>2026-05-01T12:40:59.527Z</time></trkpt><trkpt lat="39.59156" lon="8.7994683"><ele>108.0</ele><time>2026-05-01T12:41:00.527Z</time></trkpt><trkpt lat="39.5914917" lon="8.7993667"><ele>108.00000000000001</ele><time>2026-05-01T12:41:01.53Z</time></trkpt><trkpt lat="39.59142" lon="8.799255"><ele>108.00000000000001</ele><time>2026-05-01T12:41:02.558Z</time></trkpt><trkpt lat="39.5913467" lon="8.7991633"><ele>108.0</ele><time>2026-05-01T12:41:03.526Z</time></trkpt><trkpt lat="39.5912783" lon="8.7990817"><ele>108.0</ele><time>2026-05-01T12:41:04.529Z</time></trkpt><trkpt lat="39.591215" lon="8.799"><ele>106.80000000000001</ele><time>2026-05-01T12:41:05.531Z</time></trkpt><trkpt lat="39.59112" lon="8.7989167"><ele>105.60000000000001</ele><time>2026-05-01T12:41:06.528Z</time></trkpt><trkpt lat="39.59106" lon="8.7988167"><ele>104.4</ele><time>2026-05-01T12:41:07.528Z</time></trkpt><trkpt lat="39.591005" lon="8.798725"><ele>103.19999999999999</ele><time>2026-05-01T12:41:08.543Z</time></trkpt><trkpt lat="39.590955" lon="8.798645"><ele>102.0</ele><time>2026-05-01T12:41:09.531Z</time></trkpt><trkpt lat="39.590905" lon="8.798555"><ele>101.8</ele><time>2026-05-01T12:41:10.528Z</time></trkpt><trkpt lat="39.59085" lon="8.7984583"><ele>101.6</ele><time>2026-05-01T12:41:11.528Z</time></trkpt><trkpt lat="39.5907917" lon="8.7983433"><ele>101.39999999999999</ele><time>2026-05-01T12:41:12.53Z</time></trkpt><trkpt lat="39.5907283" lon="8.798225"><ele>101.19999999999999</ele><time>2026-05-01T12:41:13.528Z</time></trkpt><trkpt lat="39.5906617" lon="8.7980983"><ele>101.0</ele><time>2026-05-01T12:41:14.536Z</time></trkpt><trkpt lat="39.5905933" lon="8.7979683"><ele>101.0</ele><time>2026-05-01T12:41:15.529Z</time></trkpt><trkpt lat="39.5905183" lon="8.7978333"><ele>101.0</ele><time>2026-05-01T12:41:16.527Z</time></trkpt><trkpt lat="39.5904417" lon="8.7977017"><ele>101.0</ele><time>2026-05-01T12:41:17.526Z</time></trkpt><trkpt lat="39.5903617" lon="8.79757"><ele>101.0</ele><time>2026-05-01T12:41:18.527Z</time></trkpt><trkpt lat="39.5902783" lon="8.797435"><ele>100.25</ele><time>2026-05-01T12:41:19.531Z</time></trkpt><trkpt lat="39.5902" lon="8.7973033"><ele>99.5</ele><time>2026-05-01T12:41:20.537Z</time></trkpt><trkpt lat="39.590125" lon="8.7971767"><ele>98.75</ele><time>2026-05-01T12:41:21.528Z</time></trkpt><trkpt lat="39.5900567" lon="8.7970483"><ele>98.0</ele><time>2026-05-01T12:41:22.529Z</time></trkpt><trkpt lat="39.5899883" lon="8.7969167"><ele>98.75</ele><time>2026-05-01T12:41:23.528Z</time></trkpt><trkpt lat="39.58992" lon="8.7967967"><ele>99.5</ele><time>2026-05-01T12:41:24.53Z</time></trkpt><trkpt lat="39.589855" lon="8.796655"><ele>100.25</ele><time>2026-05-01T12:41:25.528Z</time></trkpt><trkpt lat="39.589795" lon="8.7965217"><ele>101.0</ele><time>2026-05-01T12:41:26.586Z</time></trkpt><trkpt lat="39.5897483" lon="8.7963683"><ele>101.0</ele><time>2026-05-01T12:41:27.526Z</time></trkpt><trkpt lat="39.5896983" lon="8.7962217"><ele>101.0</ele><time>2026-05-01T12:41:28.527Z</time></trkpt><trkpt lat="39.5896333" lon="8.7960833"><ele>101.0</ele><time>2026-05-01T12:41:29.53Z</time></trkpt><trkpt lat="39.5895683" lon="8.7959483"><ele>101.0</ele><time>2026-05-01T12:41:30.525Z</time></trkpt><trkpt lat="39.5894917" lon="8.7958233"><ele>99.75</ele><time>2026-05-01T12:41:31.524Z</time></trkpt><trkpt lat="39.5894167" lon="8.7956933"><ele>98.5</ele><time>2026-05-01T12:41:32.555Z</time></trkpt><trkpt lat="39.589345" lon="8.7955633"><ele>97.25</ele><time>2026-05-01T12:41:33.526Z</time></trkpt><trkpt lat="39.5892783" lon="8.795425"><ele>96.0</ele><time>2026-05-01T12:41:34.527Z</time></trkpt><trkpt lat="39.589205" lon="8.7952817"><ele>96.5</ele><time>2026-05-01T12:41:35.531Z</time></trkpt><trkpt lat="39.5891417" lon="8.795125"><ele>97.0</ele><time>2026-05-01T12:41:36.529Z</time></trkpt><trkpt lat="39.5890767" lon="8.7949767"><ele>97.5</ele><time>2026-05-01T12:41:37.527Z</time></trkpt><trkpt lat="39.5890183" lon="8.7948317"><ele>98.0</ele><time>2026-05-01T12:41:38.545Z</time></trkpt><trkpt lat="39.5889583" lon="8.7947083"><ele>98.0</ele><time>2026-05-01T12:41:39.53Z</time></trkpt><trkpt lat="39.5888817" lon="8.7945917"><ele>98.0</ele><time>2026-05-01T12:41:40.529Z</time></trkpt><trkpt lat="39.5888033" lon="8.794485"><ele>98.0</ele><time>2026-05-01T12:41:41.525Z</time></trkpt><trkpt lat="39.5887417" lon="8.79438"><ele>98.0</ele><time>2026-05-01T12:41:42.524Z</time></trkpt><trkpt lat="39.5886867" lon="8.794255"><ele>98.0</ele><time>2026-05-01T12:41:43.528Z</time></trkpt><trkpt lat="39.5886417" lon="8.7941233"><ele>96.80000000000001</ele><time>2026-05-01T12:41:44.538Z</time></trkpt><trkpt lat="39.588625" lon="8.7939883"><ele>95.6</ele><time>2026-05-01T12:41:45.525Z</time></trkpt><trkpt lat="39.588595" lon="8.7938267"><ele>94.4</ele><time>2026-05-01T12:41:46.525Z</time></trkpt><trkpt lat="39.5885883" lon="8.7937033"><ele>93.19999999999999</ele><time>2026-05-01T12:41:47.528Z</time></trkpt><trkpt lat="39.588585" lon="8.7936033"><ele>92.0</ele><time>2026-05-01T12:41:48.529Z</time></trkpt><trkpt lat="39.588575" lon="8.793475"><ele>91.6</ele><time>2026-05-01T12:41:50.538Z</time></trkpt><trkpt lat="39.5885883" lon="8.79338"><ele>91.19999999999999</ele><time>2026-05-01T12:41:52.526Z</time></trkpt><trkpt lat="39.5886433" lon="8.7932867"><ele>90.8</ele><time>2026-05-01T12:41:54.529Z</time></trkpt><trkpt lat="39.5887217" lon="8.793155"><ele>90.4</ele><time>2026-05-01T12:41:56.526Z</time></trkpt><trkpt lat="39.5887683" lon="8.7930733"><ele>90.0</ele><time>2026-05-01T12:41:57.527Z</time></trkpt><trkpt lat="39.588825" lon="8.79298"><ele>91.0</ele><time>2026-05-01T12:41:58.526Z</time></trkpt><trkpt lat="39.588885" lon="8.792875"><ele>92.0</ele><time>2026-05-01T12:41:59.531Z</time></trkpt><trkpt lat="39.5889483" lon="8.7927617"><ele>93.0</ele><time>2026-05-01T12:42:00.526Z</time></trkpt><trkpt lat="39.5890183" lon="8.79264"><ele>94.0</ele><time>2026-05-01T12:42:01.527Z</time></trkpt><trkpt lat="39.5890933" lon="8.7925133"><ele>95.0</ele><time>2026-05-01T12:42:02.53Z</time></trkpt><trkpt lat="39.58917" lon="8.7923767"><ele>95.0</ele><time>2026-05-01T12:42:03.529Z</time></trkpt><trkpt lat="39.58925" lon="8.7922317"><ele>95.0</ele><time>2026-05-01T12:42:04.528Z</time></trkpt><trkpt lat="39.5893333" lon="8.79208"><ele>95.0</ele><time>2026-05-01T12:42:05.526Z</time></trkpt><trkpt lat="39.5894233" lon="8.7919133"><ele>95.0</ele><time>2026-05-01T12:42:06.527Z</time></trkpt><trkpt lat="39.5895133" lon="8.7917433"><ele>95.66666666666667</ele><time>2026-05-01T12:42:07.528Z</time></trkpt><trkpt lat="39.5896033" lon="8.7915733"><ele>96.33333333333334</ele><time>2026-05-01T12:42:08.536Z</time></trkpt><trkpt lat="39.58969" lon="8.7914067"><ele>97.0</ele><time>2026-05-01T12:42:09.526Z</time></trkpt><trkpt lat="39.58978" lon="8.79124"><ele>97.0</ele><time>2026-05-01T12:42:10.527Z</time></trkpt><trkpt lat="39.58987" lon="8.79107"><ele>97.0</ele><time>2026-05-01T12:42:11.528Z</time></trkpt><trkpt lat="39.5899617" lon="8.7909033"><ele>97.0</ele><time>2026-05-01T12:42:12.526Z</time></trkpt><trkpt lat="39.59005" lon="8.7907367"><ele>95.66666666666667</ele><time>2026-05-01T12:42:13.527Z</time></trkpt><trkpt lat="39.5901483" lon="8.7905667"><ele>94.33333333333334</ele><time>2026-05-01T12:42:14.537Z</time></trkpt><trkpt lat="39.5902483" lon="8.7903983"><ele>93.0</ele><time>2026-05-01T12:42:15.524Z</time></trkpt><trkpt lat="39.590345" lon="8.7902267"><ele>94.0</ele><time>2026-05-01T12:42:16.524Z</time></trkpt><trkpt lat="39.5904417" lon="8.790055"><ele>95.0</ele><time>2026-05-01T12:42:17.527Z</time></trkpt><trkpt lat="39.5905367" lon="8.7898817"><ele>96.0</ele><time>2026-05-01T12:42:18.523Z</time></trkpt><trkpt lat="39.5906317" lon="8.7897083"><ele>96.0</ele><time>2026-05-01T12:42:19.528Z</time></trkpt><trkpt lat="39.590725" lon="8.789535"><ele>96.0</ele><time>2026-05-01T12:42:20.537Z</time></trkpt><trkpt lat="39.590815" lon="8.7893633"><ele>96.0</ele><time>2026-05-01T12:42:21.529Z</time></trkpt><trkpt lat="39.5909067" lon="8.7891967"><ele>96.5</ele><time>2026-05-01T12:42:22.527Z</time></trkpt><trkpt lat="39.5909933" lon="8.7890367"><ele>97.0</ele><time>2026-05-01T12:42:23.528Z</time></trkpt><trkpt lat="39.5910717" lon="8.7888833"><ele>97.5</ele><time>2026-05-01T12:42:24.523Z</time></trkpt><trkpt lat="39.5911517" lon="8.7887383"><ele>98.0</ele><time>2026-05-01T12:42:25.524Z</time></trkpt><trkpt lat="39.5912383" lon="8.7885933"><ele>96.75</ele><time>2026-05-01T12:42:26.584Z</time></trkpt><trkpt lat="39.5913233" lon="8.7884467"><ele>95.5</ele><time>2026-05-01T12:42:27.525Z</time></trkpt><trkpt lat="39.5914083" lon="8.7882983"><ele>94.25</ele><time>2026-05-01T12:42:28.524Z</time></trkpt><trkpt lat="39.5914983" lon="8.7881483"><ele>93.0</ele><time>2026-05-01T12:42:29.527Z</time></trkpt><trkpt lat="39.5915867" lon="8.787995"><ele>93.0</ele><time>2026-05-01T12:42:30.528Z</time></trkpt><trkpt lat="39.5916733" lon="8.7878417"><ele>93.0</ele><time>2026-05-01T12:42:31.525Z</time></trkpt><trkpt lat="39.5917633" lon="8.7876883"><ele>93.0</ele><time>2026-05-01T12:42:32.573Z</time></trkpt><trkpt lat="39.591845" lon="8.7875383"><ele>93.0</ele><time>2026-05-01T12:42:33.524Z</time></trkpt><trkpt lat="39.5919283" lon="8.7873867"><ele>93.75</ele><time>2026-05-01T12:42:34.528Z</time></trkpt><trkpt lat="39.5920133" lon="8.7872367"><ele>94.5</ele><time>2026-05-01T12:42:35.527Z</time></trkpt><trkpt lat="39.5920983" lon="8.7870883"><ele>95.25</ele><time>2026-05-01T12:42:36.528Z</time></trkpt><trkpt lat="39.5921833" lon="8.7869417"><ele>96.0</ele><time>2026-05-01T12:42:37.528Z</time></trkpt><trkpt lat="39.5922667" lon="8.7867983"><ele>94.5</ele><time>2026-05-01T12:42:38.539Z</time></trkpt><trkpt lat="39.592345" lon="8.786655"><ele>93.0</ele><time>2026-05-01T12:42:39.529Z</time></trkpt><trkpt lat="39.59242" lon="8.78652"><ele>91.5</ele><time>2026-05-01T12:42:40.527Z</time></trkpt><trkpt lat="39.5924983" lon="8.7863983"><ele>90.0</ele><time>2026-05-01T12:42:41.525Z</time></trkpt><trkpt lat="39.5925817" lon="8.78629"><ele>90.0</ele><time>2026-05-01T12:42:42.527Z</time></trkpt><trkpt lat="39.59267" lon="8.7862033"><ele>90.0</ele><time>2026-05-01T12:42:43.526Z</time></trkpt><trkpt lat="39.5927583" lon="8.7861317"><ele>90.0</ele><time>2026-05-01T12:42:44.537Z</time></trkpt><trkpt lat="39.59286" lon="8.7860717"><ele>90.0</ele><time>2026-05-01T12:42:45.528Z</time></trkpt><trkpt lat="39.592975" lon="8.7860167"><ele>90.0</ele><time>2026-05-01T12:42:46.525Z</time></trkpt><trkpt lat="39.5931033" lon="8.785975"><ele>89.75</ele><time>2026-05-01T12:42:47.525Z</time></trkpt><trkpt lat="39.593245" lon="8.78594"><ele>89.5</ele><time>2026-05-01T12:42:48.528Z</time></trkpt><trkpt lat="39.5933917" lon="8.78591"><ele>89.25</ele><time>2026-05-01T12:42:49.534Z</time></trkpt><trkpt lat="39.5935417" lon="8.78588"><ele>89.0</ele><time>2026-05-01T12:42:50.537Z</time></trkpt><trkpt lat="39.5936967" lon="8.7858617"><ele>91.0</ele><time>2026-05-01T12:42:51.528Z</time></trkpt><trkpt lat="39.5938517" lon="8.7858383"><ele>93.0</ele><time>2026-05-01T12:42:52.527Z</time></trkpt><trkpt lat="39.5940083" lon="8.7858033"><ele>95.0</ele><time>2026-05-01T12:42:53.526Z</time></trkpt><trkpt lat="39.5941667" lon="8.7857733"><ele>95.0</ele><time>2026-05-01T12:42:54.527Z</time></trkpt><trkpt lat="39.5943233" lon="8.7857417"><ele>95.0</ele><time>2026-05-01T12:42:55.524Z</time></trkpt><trkpt lat="39.5944867" lon="8.7857117"><ele>95.0</ele><time>2026-05-01T12:42:56.57Z</time></trkpt><trkpt lat="39.5946517" lon="8.785675"><ele>95.66666666666667</ele><time>2026-05-01T12:42:57.523Z</time></trkpt><trkpt lat="39.5948133" lon="8.78564"><ele>96.33333333333334</ele><time>2026-05-01T12:42:58.526Z</time></trkpt><trkpt lat="39.59498" lon="8.78561"><ele>97.0</ele><time>2026-05-01T12:42:59.528Z</time></trkpt><trkpt lat="39.5951467" lon="8.7855783"><ele>97.0</ele><time>2026-05-01T12:43:00.527Z</time></trkpt><trkpt lat="39.5953133" lon="8.785545"><ele>97.0</ele><time>2026-05-01T12:43:01.528Z</time></trkpt><trkpt lat="39.5954833" lon="8.7855117"><ele>97.0</ele><time>2026-05-01T12:43:02.543Z</time></trkpt><trkpt lat="39.595655" lon="8.78548"><ele>96.33333333333334</ele><time>2026-05-01T12:43:03.523Z</time></trkpt><trkpt lat="39.59583" lon="8.7854517"><ele>95.66666666666667</ele><time>2026-05-01T12:43:04.525Z</time></trkpt><trkpt lat="39.596005" lon="8.7854217"><ele>95.0</ele><time>2026-05-01T12:43:05.528Z</time></trkpt><trkpt lat="39.59618" lon="8.7853867"><ele>95.0</ele><time>2026-05-01T12:43:06.526Z</time></trkpt><trkpt lat="39.5963517" lon="8.785355"><ele>95.0</ele><time>2026-05-01T12:43:07.523Z</time></trkpt><trkpt lat="39.5965217" lon="8.7853217"><ele>95.0</ele><time>2026-05-01T12:43:08.54Z</time></trkpt><trkpt lat="39.5966867" lon="8.78529"><ele>95.0</ele><time>2026-05-01T12:43:09.529Z</time></trkpt><trkpt lat="39.5968517" lon="8.7852583"><ele>95.0</ele><time>2026-05-01T12:43:10.526Z</time></trkpt><trkpt lat="39.5970167" lon="8.785225"><ele>95.0</ele><time>2026-05-01T12:43:11.528Z</time></trkpt><trkpt lat="39.5971783" lon="8.7851933"><ele>95.0</ele><time>2026-05-01T12:43:12.526Z</time></trkpt><trkpt lat="39.5973383" lon="8.78516"><ele>95.0</ele><time>2026-05-01T12:43:13.527Z</time></trkpt><trkpt lat="39.5974967" lon="8.785125"><ele>95.0</ele><time>2026-05-01T12:43:14.54Z</time></trkpt><trkpt lat="39.59765" lon="8.7850983"><ele>95.0</ele><time>2026-05-01T12:43:15.526Z</time></trkpt><trkpt lat="39.5977983" lon="8.78507"><ele>95.0</ele><time>2026-05-01T12:43:16.526Z</time></trkpt><trkpt lat="39.597945" lon="8.785045"><ele>95.0</ele><time>2026-05-01T12:43:17.529Z</time></trkpt><trkpt lat="39.5980817" lon="8.7850183"><ele>95.0</ele><time>2026-05-01T12:43:18.528Z</time></trkpt><trkpt lat="39.598215" lon="8.7849883"><ele>95.5</ele><time>2026-05-01T12:43:19.528Z</time></trkpt><trkpt lat="39.5983483" lon="8.78496"><ele>96.0</ele><time>2026-05-01T12:43:20.539Z</time></trkpt><trkpt lat="39.5984833" lon="8.7849333"><ele>96.5</ele><time>2026-05-01T12:43:21.524Z</time></trkpt><trkpt lat="39.5986217" lon="8.784905"><ele>97.0</ele><time>2026-05-01T12:43:22.527Z</time></trkpt><trkpt lat="39.5987633" lon="8.7848817"><ele>97.5</ele><time>2026-05-01T12:43:23.529Z</time></trkpt><trkpt lat="39.598905" lon="8.784855"><ele>98.0</ele><time>2026-05-01T12:43:24.528Z</time></trkpt><trkpt lat="39.5990517" lon="8.78483"><ele>98.5</ele><time>2026-05-01T12:43:25.528Z</time></trkpt><trkpt lat="39.5992017" lon="8.784805"><ele>99.0</ele><time>2026-05-01T12:43:26.547Z</time></trkpt><trkpt lat="39.599355" lon="8.78478"><ele>98.66666666666666</ele><time>2026-05-01T12:43:27.529Z</time></trkpt><trkpt lat="39.599515" lon="8.7847533"><ele>98.33333333333333</ele><time>2026-05-01T12:43:28.529Z</time></trkpt><trkpt lat="39.5996783" lon="8.78472"><ele>98.0</ele><time>2026-05-01T12:43:29.529Z</time></trkpt><trkpt lat="39.5998417" lon="8.784685"><ele>98.0</ele><time>2026-05-01T12:43:30.524Z</time></trkpt><trkpt lat="39.6000083" lon="8.7846517"><ele>98.0</ele><time>2026-05-01T12:43:31.526Z</time></trkpt><trkpt lat="39.6001733" lon="8.78462"><ele>98.0</ele><time>2026-05-01T12:43:32.574Z</time></trkpt><trkpt lat="39.6003367" lon="8.78459"><ele>100.0</ele><time>2026-05-01T12:43:33.527Z</time></trkpt><trkpt lat="39.6004967" lon="8.7845617"><ele>102.0</ele><time>2026-05-01T12:43:34.526Z</time></trkpt><trkpt lat="39.6006567" lon="8.7845317"><ele>104.0</ele><time>2026-05-01T12:43:35.526Z</time></trkpt><trkpt lat="39.6008183" lon="8.78452"><ele>104.0</ele><time>2026-05-01T12:43:36.526Z</time></trkpt><trkpt lat="39.6009767" lon="8.7844783"><ele>104.0</ele><time>2026-05-01T12:43:37.53Z</time></trkpt><trkpt lat="39.6011383" lon="8.7844567"><ele>104.0</ele><time>2026-05-01T12:43:38.542Z</time></trkpt><trkpt lat="39.6012833" lon="8.7844067"><ele>105.66666666666666</ele><time>2026-05-01T12:43:39.526Z</time></trkpt><trkpt lat="39.60144" lon="8.7843633"><ele>107.33333333333334</ele><time>2026-05-01T12:43:40.526Z</time></trkpt><trkpt lat="39.601585" lon="8.7843233"><ele>109.0</ele><time>2026-05-01T12:43:41.527Z</time></trkpt><trkpt lat="39.601755" lon="8.7842833"><ele>105.66666666666667</ele><time>2026-05-01T12:43:42.527Z</time></trkpt><trkpt lat="39.6019133" lon="8.7842517"><ele>102.33333333333334</ele><time>2026-05-01T12:43:43.524Z</time></trkpt><trkpt lat="39.6020683" lon="8.78423"><ele>99.0</ele><time>2026-05-01T12:43:44.544Z</time></trkpt><trkpt lat="39.6022183" lon="8.7842033"><ele>98.75</ele><time>2026-05-01T12:43:45.532Z</time></trkpt><trkpt lat="39.60236" lon="8.78417"><ele>98.5</ele><time>2026-05-01T12:43:46.526Z</time></trkpt><trkpt lat="39.6024933" lon="8.7841367"><ele>98.25</ele><time>2026-05-01T12:43:47.524Z</time></trkpt><trkpt lat="39.6026233" lon="8.7841033"><ele>98.0</ele><time>2026-05-01T12:43:48.528Z</time></trkpt><trkpt lat="39.6027533" lon="8.7840683"><ele>98.0</ele><time>2026-05-01T12:43:49.526Z</time></trkpt><trkpt lat="39.602885" lon="8.7840333"><ele>98.0</ele><time>2026-05-01T12:43:50.546Z</time></trkpt><trkpt lat="39.6030067" lon="8.7840067"><ele>98.0</ele><time>2026-05-01T12:43:51.525Z</time></trkpt><trkpt lat="39.6031217" lon="8.783985"><ele>98.0</ele><time>2026-05-01T12:43:52.526Z</time></trkpt><trkpt lat="39.6032383" lon="8.7839517"><ele>98.0</ele><time>2026-05-01T12:43:53.528Z</time></trkpt><trkpt lat="39.6033517" lon="8.7839217"><ele>98.0</ele><time>2026-05-01T12:43:54.527Z</time></trkpt><trkpt lat="39.6034633" lon="8.7838867"><ele>98.0</ele><time>2026-05-01T12:43:55.528Z</time></trkpt><trkpt lat="39.60357" lon="8.7838533"><ele>98.0</ele><time>2026-05-01T12:43:56.527Z</time></trkpt><trkpt lat="39.603675" lon="8.7838283"><ele>98.0</ele><time>2026-05-01T12:43:57.529Z</time></trkpt><trkpt lat="39.6037783" lon="8.783805"><ele>97.75</ele><time>2026-05-01T12:43:58.527Z</time></trkpt><trkpt lat="39.603885" lon="8.783775"><ele>97.5</ele><time>2026-05-01T12:43:59.529Z</time></trkpt><trkpt lat="39.6039917" lon="8.78375"><ele>97.25</ele><time>2026-05-01T12:44:00.529Z</time></trkpt><trkpt lat="39.6041083" lon="8.7837217"><ele>97.0</ele><time>2026-05-01T12:44:01.528Z</time></trkpt><trkpt lat="39.60423" lon="8.7836917"><ele>97.0</ele><time>2026-05-01T12:44:02.555Z</time></trkpt><trkpt lat="39.6043567" lon="8.78366"><ele>97.0</ele><time>2026-05-01T12:44:03.522Z</time></trkpt><trkpt lat="39.6044917" lon="8.78363"><ele>97.0</ele><time>2026-05-01T12:44:04.523Z</time></trkpt><trkpt lat="39.60463" lon="8.7836017"><ele>97.0</ele><time>2026-05-01T12:44:05.527Z</time></trkpt><trkpt lat="39.6047717" lon="8.783575"><ele>97.25</ele><time>2026-05-01T12:44:06.529Z</time></trkpt><trkpt lat="39.6049133" lon="8.7835533"><ele>97.5</ele><time>2026-05-01T12:44:07.527Z</time></trkpt><trkpt lat="39.6050617" lon="8.7835217"><ele>97.75</ele><time>2026-05-01T12:44:08.543Z</time></trkpt><trkpt lat="39.60521" lon="8.7834933"><ele>98.0</ele><time>2026-05-01T12:44:09.529Z</time></trkpt><trkpt lat="39.6053617" lon="8.7834633"><ele>95.66666666666666</ele><time>2026-05-01T12:44:10.529Z</time></trkpt><trkpt lat="39.605515" lon="8.7834317"><ele>93.33333333333333</ele><time>2026-05-01T12:44:11.526Z</time></trkpt><trkpt lat="39.6056633" lon="8.7834033"><ele>91.0</ele><time>2026-05-01T12:44:12.53Z</time></trkpt><trkpt lat="39.6058133" lon="8.7833717"><ele>91.0</ele><time>2026-05-01T12:44:13.528Z</time></trkpt><trkpt lat="39.6059533" lon="8.7833517"><ele>91.0</ele><time>2026-05-01T12:44:14.546Z</time></trkpt><trkpt lat="39.6060883" lon="8.7833283"><ele>91.0</ele><time>2026-05-01T12:44:15.529Z</time></trkpt><trkpt lat="39.6062167" lon="8.7833"><ele>91.0</ele><time>2026-05-01T12:44:16.526Z</time></trkpt><trkpt lat="39.606345" lon="8.7832583"><ele>90.5</ele><time>2026-05-01T12:44:17.528Z</time></trkpt><trkpt lat="39.6064717" lon="8.7832117"><ele>90.0</ele><time>2026-05-01T12:44:18.528Z</time></trkpt><trkpt lat="39.6065917" lon="8.7831633"><ele>89.5</ele><time>2026-05-01T12:44:19.527Z</time></trkpt><trkpt lat="39.6066967" lon="8.7831217"><ele>89.0</ele><time>2026-05-01T12:44:20.543Z</time></trkpt><trkpt lat="39.6067883" lon="8.7830883"><ele>89.0</ele><time>2026-05-01T12:44:21.525Z</time></trkpt><trkpt lat="39.60687" lon="8.783065"><ele>89.0</ele><time>2026-05-01T12:44:22.526Z</time></trkpt><trkpt lat="39.6069433" lon="8.7830517"><ele>89.0</ele><time>2026-05-01T12:44:23.529Z</time></trkpt><trkpt lat="39.607015" lon="8.7830517"><ele>89.0</ele><time>2026-05-01T12:44:24.528Z</time></trkpt><trkpt lat="39.60709" lon="8.7830717"><ele>89.0</ele><time>2026-05-01T12:44:25.528Z</time></trkpt><trkpt lat="39.60717" lon="8.78309"><ele>89.0</ele><time>2026-05-01T12:44:26.557Z</time></trkpt><trkpt lat="39.6072633" lon="8.7831117"><ele>88.75</ele><time>2026-05-01T12:44:27.53Z</time></trkpt><trkpt lat="39.60737" lon="8.78314"><ele>88.5</ele><time>2026-05-01T12:44:28.529Z</time></trkpt><trkpt lat="39.607485" lon="8.78317"><ele>88.25</ele><time>2026-05-01T12:44:29.529Z</time></trkpt><trkpt lat="39.6076117" lon="8.7832117"><ele>88.0</ele><time>2026-05-01T12:44:30.528Z</time></trkpt><trkpt lat="39.6077483" lon="8.783275"><ele>87.0</ele><time>2026-05-01T12:44:31.528Z</time></trkpt><trkpt lat="39.6079017" lon="8.783335"><ele>86.0</ele><time>2026-05-01T12:44:32.527Z</time></trkpt><trkpt lat="39.608055" lon="8.7833767"><ele>85.0</ele><time>2026-05-01T12:44:33.529Z</time></trkpt><trkpt lat="39.6082083" lon="8.7834167"><ele>85.0</ele><time>2026-05-01T12:44:34.528Z</time></trkpt><trkpt lat="39.6083667" lon="8.7834667"><ele>85.0</ele><time>2026-05-01T12:44:35.527Z</time></trkpt><trkpt lat="39.6085317" lon="8.7835167"><ele>85.0</ele><time>2026-05-01T12:44:36.528Z</time></trkpt><trkpt lat="39.608695" lon="8.78357"><ele>87.0</ele><time>2026-05-01T12:44:37.528Z</time></trkpt><trkpt lat="39.608855" lon="8.7836317"><ele>89.0</ele><time>2026-05-01T12:44:38.545Z</time></trkpt><trkpt lat="39.6090117" lon="8.7836883"><ele>91.0</ele><time>2026-05-01T12:44:39.53Z</time></trkpt><trkpt lat="39.6091683" lon="8.783735"><ele>91.0</ele><time>2026-05-01T12:44:40.527Z</time></trkpt><trkpt lat="39.6093267" lon="8.7837767"><ele>91.0</ele><time>2026-05-01T12:44:41.529Z</time></trkpt><trkpt lat="39.6094817" lon="8.783815"><ele>91.0</ele><time>2026-05-01T12:44:42.529Z</time></trkpt><trkpt lat="39.609635" lon="8.7838467"><ele>90.75</ele><time>2026-05-01T12:44:43.526Z</time></trkpt><trkpt lat="39.6097883" lon="8.7838867"><ele>90.5</ele><time>2026-05-01T12:44:44.544Z</time></trkpt><trkpt lat="39.6099383" lon="8.7839233"><ele>90.25</ele><time>2026-05-01T12:44:45.528Z</time></trkpt><trkpt lat="39.610075" lon="8.7839617"><ele>90.0</ele><time>2026-05-01T12:44:46.527Z</time></trkpt><trkpt lat="39.6102" lon="8.7839917"><ele>90.0</ele><time>2026-05-01T12:44:47.528Z</time></trkpt><trkpt lat="39.610305" lon="8.7840333"><ele>90.0</ele><time>2026-05-01T12:44:48.524Z</time></trkpt><trkpt lat="39.6104083" lon="8.7840717"><ele>90.0</ele><time>2026-05-01T12:44:49.528Z</time></trkpt><trkpt lat="39.6105" lon="8.7841167"><ele>90.0</ele><time>2026-05-01T12:44:50.542Z</time></trkpt><trkpt lat="39.6105867" lon="8.7841867"><ele>90.0</ele><time>2026-05-01T12:44:51.525Z</time></trkpt><trkpt lat="39.61068" lon="8.7842567"><ele>90.0</ele><time>2026-05-01T12:44:52.525Z</time></trkpt><trkpt lat="39.6107683" lon="8.7843383"><ele>90.0</ele><time>2026-05-01T12:44:53.526Z</time></trkpt><trkpt lat="39.6108483" lon="8.7844383"><ele>90.0</ele><time>2026-05-01T12:44:54.528Z</time></trkpt><trkpt lat="39.61092" lon="8.7845383"><ele>90.0</ele><time>2026-05-01T12:44:55.525Z</time></trkpt><trkpt lat="39.61098" lon="8.784645"><ele>90.0</ele><time>2026-05-01T12:44:56.587Z</time></trkpt><trkpt lat="39.6110267" lon="8.784755"><ele>90.0</ele><time>2026-05-01T12:44:57.528Z</time></trkpt><trkpt lat="39.6110617" lon="8.7848683"><ele>90.0</ele><time>2026-05-01T12:44:58.527Z</time></trkpt><trkpt lat="39.61109" lon="8.7849817"><ele>90.0</ele><time>2026-05-01T12:44:59.53Z</time></trkpt><trkpt lat="39.6111183" lon="8.7850917"><ele>90.0</ele><time>2026-05-01T12:45:00.534Z</time></trkpt><trkpt lat="39.61115" lon="8.785205"><ele>90.0</ele><time>2026-05-01T12:45:01.529Z</time></trkpt><trkpt lat="39.6111883" lon="8.7853167"><ele>89.0</ele><time>2026-05-01T12:45:02.555Z</time></trkpt><trkpt lat="39.61124" lon="8.7854283"><ele>88.0</ele><time>2026-05-01T12:45:03.528Z</time></trkpt><trkpt lat="39.6113017" lon="8.7855267"><ele>87.0</ele><time>2026-05-01T12:45:04.526Z</time></trkpt><trkpt lat="39.611365" lon="8.7856167"><ele>86.0</ele><time>2026-05-01T12:45:05.526Z</time></trkpt><trkpt lat="39.6114317" lon="8.7856933"><ele>85.0</ele><time>2026-05-01T12:45:06.526Z</time></trkpt><trkpt lat="39.6114983" lon="8.785755"><ele>85.0</ele><time>2026-05-01T12:45:07.527Z</time></trkpt><trkpt lat="39.61157" lon="8.785795"><ele>85.0</ele><time>2026-05-01T12:45:08.545Z</time></trkpt><trkpt lat="39.6116433" lon="8.7858067"><ele>85.0</ele><time>2026-05-01T12:45:09.526Z</time></trkpt><trkpt lat="39.6117617" lon="8.78577"><ele>85.0</ele><time>2026-05-01T12:45:11.523Z</time></trkpt><trkpt lat="39.611855" lon="8.785695"><ele>85.0</ele><time>2026-05-01T12:45:13.525Z</time></trkpt><trkpt lat="39.611925" lon="8.7856633"><ele>85.0</ele><time>2026-05-01T12:45:15.527Z</time></trkpt><trkpt lat="39.6119817" lon="8.7857367"><ele>85.0</ele><time>2026-05-01T12:45:17.528Z</time></trkpt><trkpt lat="39.6120017" lon="8.785815"><ele>85.0</ele><time>2026-05-01T12:45:18.528Z</time></trkpt><trkpt lat="39.6120183" lon="8.7859117"><ele>85.0</ele><time>2026-05-01T12:45:19.53Z</time></trkpt><trkpt lat="39.6120417" lon="8.7860033"><ele>85.0</ele><time>2026-05-01T12:45:20.543Z</time></trkpt><trkpt lat="39.61207" lon="8.7860867"><ele>85.0</ele><time>2026-05-01T12:45:21.529Z</time></trkpt><trkpt lat="39.6120983" lon="8.786165"><ele>85.0</ele><time>2026-05-01T12:45:22.528Z</time></trkpt><trkpt lat="39.6121183" lon="8.786245"><ele>85.0</ele><time>2026-05-01T12:45:23.528Z</time></trkpt><trkpt lat="39.6121433" lon="8.7863517"><ele>85.0</ele><time>2026-05-01T12:45:25.524Z</time></trkpt><trkpt lat="39.6121467" lon="8.7862667"><ele>85.0</ele><time>2026-05-01T12:49:30.524Z</time></trkpt><trkpt lat="39.6121083" lon="8.7861883"><ele>85.0</ele><time>2026-05-01T12:49:33.526Z</time></trkpt><trkpt lat="39.612075" lon="8.786115"><ele>85.0</ele><time>2026-05-01T12:49:35.526Z</time></trkpt><trkpt lat="39.6120317" lon="8.7860133"><ele>85.0</ele><time>2026-05-01T12:49:38.552Z</time></trkpt><trkpt lat="39.6120017" lon="8.7859383"><ele>85.0</ele><time>2026-05-01T12:49:40.525Z</time></trkpt><trkpt lat="39.6119767" lon="8.7858633"><ele>85.0</ele><time>2026-05-01T12:49:42.524Z</time></trkpt><trkpt lat="39.6119483" lon="8.7857567"><ele>85.0</ele><time>2026-05-01T12:49:45.529Z</time></trkpt><trkpt lat="39.6119167" lon="8.78565"><ele>85.0</ele><time>2026-05-01T12:49:48.528Z</time></trkpt><trkpt lat="39.611865" lon="8.785595"><ele>85.0</ele><time>2026-05-01T12:49:51.528Z</time></trkpt><trkpt lat="39.61177" lon="8.7857217"><ele>85.0</ele><time>2026-05-01T12:50:24.525Z</time></trkpt><trkpt lat="39.6117183" lon="8.7857783"><ele>85.0</ele><time>2026-05-01T12:50:26.587Z</time></trkpt><trkpt lat="39.6116583" lon="8.785835"><ele>85.0</ele><time>2026-05-01T12:50:29.525Z</time></trkpt><trkpt lat="39.61157" lon="8.785805"><ele>85.0</ele><time>2026-05-01T12:51:05.526Z</time></trkpt><trkpt lat="39.6114933" lon="8.7857683"><ele>85.0</ele><time>2026-05-01T12:51:07.528Z</time></trkpt><trkpt lat="39.6114167" lon="8.7857167"><ele>85.0</ele><time>2026-05-01T12:51:09.524Z</time></trkpt><trkpt lat="39.6113367" lon="8.78565"><ele>85.0</ele><time>2026-05-01T12:51:11.523Z</time></trkpt><trkpt lat="39.61126" lon="8.78556"><ele>85.0</ele><time>2026-05-01T12:51:13.526Z</time></trkpt><trkpt lat="39.6111867" lon="8.7854517"><ele>85.0</ele><time>2026-05-01T12:51:15.526Z</time></trkpt><trkpt lat="39.61112" lon="8.7853167"><ele>85.0</ele><time>2026-05-01T12:51:17.525Z</time></trkpt><trkpt lat="39.6110917" lon="8.78524"><ele>85.0</ele><time>2026-05-01T12:51:18.526Z</time></trkpt><trkpt lat="39.6110383" lon="8.78509"><ele>85.0</ele><time>2026-05-01T12:51:20.547Z</time></trkpt><trkpt lat="39.61101" lon="8.7850117"><ele>85.71428571428572</ele><time>2026-05-01T12:51:21.524Z</time></trkpt><trkpt lat="39.6109783" lon="8.784935"><ele>86.42857142857142</ele><time>2026-05-01T12:51:22.526Z</time></trkpt><trkpt lat="39.610945" lon="8.7848633"><ele>87.14285714285714</ele><time>2026-05-01T12:51:23.526Z</time></trkpt><trkpt lat="39.6109117" lon="8.78479"><ele>87.85714285714286</ele><time>2026-05-01T12:51:24.523Z</time></trkpt><trkpt lat="39.6108683" lon="8.7847183"><ele>88.57142857142858</ele><time>2026-05-01T12:51:25.527Z</time></trkpt><trkpt lat="39.610815" lon="8.7846467"><ele>89.28571428571428</ele><time>2026-05-01T12:51:26.526Z</time></trkpt><trkpt lat="39.61076" lon="8.78458"><ele>90.0</ele><time>2026-05-01T12:51:27.527Z</time></trkpt><trkpt lat="39.6107017" lon="8.78452"><ele>90.0</ele><time>2026-05-01T12:51:28.526Z</time></trkpt><trkpt lat="39.6106367" lon="8.7844633"><ele>90.0</ele><time>2026-05-01T12:51:29.53Z</time></trkpt><trkpt lat="39.6105667" lon="8.7844133"><ele>90.0</ele><time>2026-05-01T12:51:30.527Z</time></trkpt><trkpt lat="39.6104883" lon="8.7843683"><ele>90.0</ele><time>2026-05-01T12:51:31.526Z</time></trkpt><trkpt lat="39.61041" lon="8.7843283"><ele>90.0</ele><time>2026-05-01T12:51:32.554Z</time></trkpt><trkpt lat="39.6103267" lon="8.784285"><ele>90.0</ele><time>2026-05-01T12:51:33.525Z</time></trkpt><trkpt lat="39.6102417" lon="8.7842383"><ele>90.0</ele><time>2026-05-01T12:51:34.524Z</time></trkpt><trkpt lat="39.61015" lon="8.7841933"><ele>90.0</ele><time>2026-05-01T12:51:35.525Z</time></trkpt><trkpt lat="39.6100483" lon="8.7841467"><ele>90.0</ele><time>2026-05-01T12:51:36.526Z</time></trkpt><trkpt lat="39.6099483" lon="8.784105"><ele>90.0</ele><time>2026-05-01T12:51:37.526Z</time></trkpt><trkpt lat="39.609845" lon="8.784065"><ele>90.0</ele><time>2026-05-01T12:51:38.548Z</time></trkpt><trkpt lat="39.6097333" lon="8.7840333"><ele>90.0</ele><time>2026-05-01T12:51:39.524Z</time></trkpt><trkpt lat="39.60962" lon="8.7840083"><ele>90.0</ele><time>2026-05-01T12:51:40.527Z</time></trkpt><trkpt lat="39.6095067" lon="8.7839817"><ele>90.0</ele><time>2026-05-01T12:51:41.526Z</time></trkpt><trkpt lat="39.6093867" lon="8.7839167"><ele>90.0</ele><time>2026-05-01T12:51:42.525Z</time></trkpt><trkpt lat="39.6092683" lon="8.7839"><ele>90.2</ele><time>2026-05-01T12:51:43.524Z</time></trkpt><trkpt lat="39.6091567" lon="8.7838717"><ele>90.4</ele><time>2026-05-01T12:51:44.55Z</time></trkpt><trkpt lat="39.609035" lon="8.7838417"><ele>90.6</ele><time>2026-05-01T12:51:45.529Z</time></trkpt><trkpt lat="39.6089283" lon="8.78382"><ele>90.8</ele><time>2026-05-01T12:51:46.525Z</time></trkpt><trkpt lat="39.608835" lon="8.783795"><ele>91.0</ele><time>2026-05-01T12:51:47.525Z</time></trkpt><trkpt lat="39.6087167" lon="8.7837483"><ele>90.25</ele><time>2026-05-01T12:51:48.524Z</time></trkpt><trkpt lat="39.60859" lon="8.7837167"><ele>89.5</ele><time>2026-05-01T12:51:49.525Z</time></trkpt><trkpt lat="39.608465" lon="8.7836817"><ele>88.75</ele><time>2026-05-01T12:51:50.548Z</time></trkpt><trkpt lat="39.6083533" lon="8.78367"><ele>88.0</ele><time>2026-05-01T12:51:51.528Z</time></trkpt><trkpt lat="39.608245" lon="8.78364"><ele>88.0</ele><time>2026-05-01T12:51:52.524Z</time></trkpt><trkpt lat="39.6081233" lon="8.78361"><ele>88.0</ele><time>2026-05-01T12:51:53.53Z</time></trkpt><trkpt lat="39.6080183" lon="8.7835967"><ele>88.0</ele><time>2026-05-01T12:51:54.528Z</time></trkpt><trkpt lat="39.6079117" lon="8.7835733"><ele>88.0</ele><time>2026-05-01T12:51:55.524Z</time></trkpt><trkpt lat="39.6077983" lon="8.78357"><ele>88.0</ele><time>2026-05-01T12:51:56.524Z</time></trkpt><trkpt lat="39.607705" lon="8.7835467"><ele>88.0</ele><time>2026-05-01T12:51:57.535Z</time></trkpt><trkpt lat="39.6076133" lon="8.7835083"><ele>88.0</ele><time>2026-05-01T12:51:58.526Z</time></trkpt><trkpt lat="39.60752" lon="8.7834783"><ele>88.0</ele><time>2026-05-01T12:51:59.524Z</time></trkpt><trkpt lat="39.6074267" lon="8.7834483"><ele>88.0</ele><time>2026-05-01T12:52:00.525Z</time></trkpt><trkpt lat="39.6073317" lon="8.7834217"><ele>88.0</ele><time>2026-05-01T12:52:01.525Z</time></trkpt><trkpt lat="39.6072333" lon="8.7833917"><ele>88.0</ele><time>2026-05-01T12:52:02.522Z</time></trkpt><trkpt lat="39.607135" lon="8.783365"><ele>88.0</ele><time>2026-05-01T12:52:03.526Z</time></trkpt><trkpt lat="39.60704" lon="8.783335"><ele>88.0</ele><time>2026-05-01T12:52:04.528Z</time></trkpt><trkpt lat="39.606955" lon="8.7833117"><ele>88.0</ele><time>2026-05-01T12:52:05.527Z</time></trkpt><trkpt lat="39.6068717" lon="8.7832917"><ele>88.16666666666666</ele><time>2026-05-01T12:52:06.525Z</time></trkpt><trkpt lat="39.6068033" lon="8.783275"><ele>88.33333333333333</ele><time>2026-05-01T12:52:07.527Z</time></trkpt><trkpt lat="39.6067083" lon="8.7832367"><ele>88.5</ele><time>2026-05-01T12:52:09.529Z</time></trkpt><trkpt lat="39.6066483" lon="8.7832067"><ele>88.66666666666667</ele><time>2026-05-01T12:52:12.529Z</time></trkpt><trkpt lat="39.6065633" lon="8.7831467"><ele>88.83333333333334</ele><time>2026-05-01T12:52:15.528Z</time></trkpt><trkpt lat="39.606475" lon="8.7830933"><ele>89.0</ele><time>2026-05-01T12:52:17.526Z</time></trkpt><trkpt lat="39.6063717" lon="8.7830483"><ele>89.0</ele><time>2026-05-01T12:52:19.526Z</time></trkpt><trkpt lat="39.6062583" lon="8.7830233"><ele>89.0</ele><time>2026-05-01T12:52:21.524Z</time></trkpt><trkpt lat="39.6061367" lon="8.7829933"><ele>89.0</ele><time>2026-05-01T12:52:23.527Z</time></trkpt><trkpt lat="39.6060733" lon="8.7829767"><ele>89.0</ele><time>2026-05-01T12:52:24.525Z</time></trkpt><trkpt lat="39.606005" lon="8.78296"><ele>89.0</ele><time>2026-05-01T12:52:25.528Z</time></trkpt><trkpt lat="39.6059333" lon="8.7829383"><ele>89.0</ele><time>2026-05-01T12:52:26.587Z</time></trkpt><trkpt lat="39.6058633" lon="8.7829183"><ele>89.28571428571428</ele><time>2026-05-01T12:52:27.526Z</time></trkpt><trkpt lat="39.6057983" lon="8.782895"><ele>89.57142857142857</ele><time>2026-05-01T12:52:28.525Z</time></trkpt><trkpt lat="39.6057367" lon="8.7828683"><ele>89.85714285714286</ele><time>2026-05-01T12:52:29.53Z</time></trkpt><trkpt lat="39.6056767" lon="8.782835"><ele>90.14285714285714</ele><time>2026-05-01T12:52:30.525Z</time></trkpt><trkpt lat="39.60562" lon="8.7827867"><ele>90.42857142857143</ele><time>2026-05-01T12:52:31.525Z</time></trkpt><trkpt lat="39.60557" lon="8.7827267"><ele>90.71428571428571</ele><time>2026-05-01T12:52:32.525Z</time></trkpt><trkpt lat="39.6055217" lon="8.7826467"><ele>91.0</ele><time>2026-05-01T12:52:33.529Z</time></trkpt><trkpt lat="39.6054717" lon="8.7825517"><ele>90.0</ele><time>2026-05-01T12:52:34.523Z</time></trkpt><trkpt lat="39.605435" lon="8.7824183"><ele>89.0</ele><time>2026-05-01T12:52:35.525Z</time></trkpt><trkpt lat="39.60539" lon="8.7822783"><ele>88.0</ele><time>2026-05-01T12:52:36.525Z</time></trkpt><trkpt lat="39.6053383" lon="8.7821467"><ele>87.0</ele><time>2026-05-01T12:52:37.526Z</time></trkpt><trkpt lat="39.60528" lon="8.7820217"><ele>87.0</ele><time>2026-05-01T12:52:38.547Z</time></trkpt><trkpt lat="39.6052083" lon="8.7818917"><ele>87.0</ele><time>2026-05-01T12:52:39.528Z</time></trkpt><trkpt lat="39.6051183" lon="8.78176"><ele>87.0</ele><time>2026-05-01T12:52:40.525Z</time></trkpt><trkpt lat="39.60504" lon="8.781625"><ele>87.0</ele><time>2026-05-01T12:52:41.527Z</time></trkpt><trkpt lat="39.6049533" lon="8.7814767"><ele>86.5</ele><time>2026-05-01T12:52:42.525Z</time></trkpt><trkpt lat="39.6048567" lon="8.781335"><ele>86.0</ele><time>2026-05-01T12:52:43.525Z</time></trkpt><trkpt lat="39.60477" lon="8.7811917"><ele>85.5</ele><time>2026-05-01T12:52:44.575Z</time></trkpt><trkpt lat="39.60468" lon="8.7810483"><ele>85.0</ele><time>2026-05-01T12:52:45.529Z</time></trkpt><trkpt lat="39.6045883" lon="8.7809033"><ele>84.0</ele><time>2026-05-01T12:52:46.525Z</time></trkpt><trkpt lat="39.604505" lon="8.780755"><ele>83.0</ele><time>2026-05-01T12:52:47.533Z</time></trkpt><trkpt lat="39.6044217" lon="8.7806083"><ele>82.0</ele><time>2026-05-01T12:52:48.531Z</time></trkpt><trkpt lat="39.604335" lon="8.7804617"><ele>81.0</ele><time>2026-05-01T12:52:49.522Z</time></trkpt><trkpt lat="39.604255" lon="8.7803183"><ele>80.0</ele><time>2026-05-01T12:52:50.544Z</time></trkpt><trkpt lat="39.60417" lon="8.780175"><ele>79.0</ele><time>2026-05-01T12:52:51.526Z</time></trkpt><trkpt lat="39.604085" lon="8.780035"><ele>78.0</ele><time>2026-05-01T12:52:52.524Z</time></trkpt><trkpt lat="39.6039967" lon="8.7798967"><ele>77.0</ele><time>2026-05-01T12:52:53.524Z</time></trkpt><trkpt lat="39.60391" lon="8.77976"><ele>77.0</ele><time>2026-05-01T12:52:54.524Z</time></trkpt><trkpt lat="39.6038267" lon="8.77962"><ele>77.0</ele><time>2026-05-01T12:52:55.526Z</time></trkpt><trkpt lat="39.603745" lon="8.779485"><ele>77.0</ele><time>2026-05-01T12:52:56.526Z</time></trkpt><trkpt lat="39.6036633" lon="8.779345"><ele>77.0</ele><time>2026-05-01T12:52:57.523Z</time></trkpt><trkpt lat="39.60358" lon="8.7792017"><ele>76.25</ele><time>2026-05-01T12:52:58.523Z</time></trkpt><trkpt lat="39.6035017" lon="8.7790583"><ele>75.5</ele><time>2026-05-01T12:52:59.526Z</time></trkpt><trkpt lat="39.603425" lon="8.7789183"><ele>74.75</ele><time>2026-05-01T12:53:00.525Z</time></trkpt><trkpt lat="39.6033517" lon="8.7787867"><ele>74.0</ele><time>2026-05-01T12:53:01.526Z</time></trkpt><trkpt lat="39.60328" lon="8.7786583"><ele>74.0</ele><time>2026-05-01T12:53:02.554Z</time></trkpt><trkpt lat="39.6032067" lon="8.778535"><ele>74.0</ele><time>2026-05-01T12:53:03.529Z</time></trkpt><trkpt lat="39.6031367" lon="8.7784133"><ele>74.0</ele><time>2026-05-01T12:53:04.524Z</time></trkpt><trkpt lat="39.6030733" lon="8.7783"><ele>74.0</ele><time>2026-05-01T12:53:05.525Z</time></trkpt><trkpt lat="39.6030083" lon="8.7781867"><ele>73.33333333333334</ele><time>2026-05-01T12:53:06.526Z</time></trkpt><trkpt lat="39.602945" lon="8.7780783"><ele>72.66666666666667</ele><time>2026-05-01T12:53:07.526Z</time></trkpt><trkpt lat="39.6028833" lon="8.7779733"><ele>72.0</ele><time>2026-05-01T12:53:08.548Z</time></trkpt><trkpt lat="39.6028267" lon="8.7778833"><ele>71.33333333333333</ele><time>2026-05-01T12:53:09.527Z</time></trkpt><trkpt lat="39.6027783" lon="8.7778033"><ele>70.66666666666666</ele><time>2026-05-01T12:53:10.524Z</time></trkpt><trkpt lat="39.6027367" lon="8.777735"><ele>70.0</ele><time>2026-05-01T12:53:11.524Z</time></trkpt><trkpt lat="39.60268" lon="8.7776283"><ele>69.5</ele><time>2026-05-01T12:53:13.525Z</time></trkpt><trkpt lat="39.6026417" lon="8.7775517"><ele>69.0</ele><time>2026-05-01T12:53:15.526Z</time></trkpt><trkpt lat="39.6026017" lon="8.7774783"><ele>68.5</ele><time>2026-05-01T12:53:17.527Z</time></trkpt><trkpt lat="39.6025467" lon="8.77738"><ele>68.0</ele><time>2026-05-01T12:53:19.524Z</time></trkpt><trkpt lat="39.60248" lon="8.777255"><ele>67.5</ele><time>2026-05-01T12:53:21.525Z</time></trkpt><trkpt lat="39.6024417" lon="8.7771817"><ele>67.0</ele><time>2026-05-01T12:53:22.526Z</time></trkpt><trkpt lat="39.6023983" lon="8.7771017"><ele>67.0</ele><time>2026-05-01T12:53:23.523Z</time></trkpt><trkpt lat="39.6023517" lon="8.77702"><ele>67.0</ele><time>2026-05-01T12:53:24.523Z</time></trkpt><trkpt lat="39.6023017" lon="8.7769367"><ele>67.0</ele><time>2026-05-01T12:53:25.524Z</time></trkpt><trkpt lat="39.6022483" lon="8.7768483"><ele>67.0</ele><time>2026-05-01T12:53:26.583Z</time></trkpt><trkpt lat="39.6021917" lon="8.776755"><ele>67.0</ele><time>2026-05-01T12:53:27.526Z</time></trkpt><trkpt lat="39.602135" lon="8.77666"><ele>67.0</ele><time>2026-05-01T12:53:28.523Z</time></trkpt><trkpt lat="39.60208" lon="8.7765633"><ele>66.6</ele><time>2026-05-01T12:53:29.526Z</time></trkpt><trkpt lat="39.602025" lon="8.776465"><ele>66.2</ele><time>2026-05-01T12:53:30.525Z</time></trkpt><trkpt lat="39.601965" lon="8.7763633"><ele>65.8</ele><time>2026-05-01T12:53:31.525Z</time></trkpt><trkpt lat="39.6019017" lon="8.7762617"><ele>65.4</ele><time>2026-05-01T12:53:32.555Z</time></trkpt><trkpt lat="39.60184" lon="8.7761633"><ele>65.0</ele><time>2026-05-01T12:53:33.523Z</time></trkpt><trkpt lat="39.6017833" lon="8.77607"><ele>64.66666666666667</ele><time>2026-05-01T12:53:34.523Z</time></trkpt><trkpt lat="39.60173" lon="8.775985"><ele>64.33333333333334</ele><time>2026-05-01T12:53:35.521Z</time></trkpt><trkpt lat="39.60168" lon="8.775905"><ele>64.0</ele><time>2026-05-01T12:53:36.523Z</time></trkpt><trkpt lat="39.601635" lon="8.7758283"><ele>63.66666666666667</ele><time>2026-05-01T12:53:37.521Z</time></trkpt><trkpt lat="39.6016" lon="8.775755"><ele>63.333333333333336</ele><time>2026-05-01T12:53:38.549Z</time></trkpt><trkpt lat="39.601575" lon="8.7756067"><ele>63.0</ele><time>2026-05-01T12:53:40.525Z</time></trkpt><trkpt lat="39.6015833" lon="8.775445"><ele>63.0</ele><time>2026-05-01T12:53:42.524Z</time></trkpt><trkpt lat="39.601595" lon="8.775355"><ele>63.0</ele><time>2026-05-01T12:53:43.524Z</time></trkpt><trkpt lat="39.6016167" lon="8.77526"><ele>63.0</ele><time>2026-05-01T12:53:44.549Z</time></trkpt><trkpt lat="39.6016483" lon="8.7751583"><ele>63.0</ele><time>2026-05-01T12:53:45.526Z</time></trkpt><trkpt lat="39.601685" lon="8.77504"><ele>63.0</ele><time>2026-05-01T12:53:46.523Z</time></trkpt><trkpt lat="39.60174" lon="8.7748983"><ele>63.0</ele><time>2026-05-01T12:53:47.527Z</time></trkpt><trkpt lat="39.601805" lon="8.7747367"><ele>63.0</ele><time>2026-05-01T12:53:48.522Z</time></trkpt><trkpt lat="39.6019" lon="8.77453"><ele>63.0</ele><time>2026-05-01T12:53:49.525Z</time></trkpt><trkpt lat="39.6019533" lon="8.7743683"><ele>63.25</ele><time>2026-05-01T12:53:50.553Z</time></trkpt><trkpt lat="39.602" lon="8.7742067"><ele>63.5</ele><time>2026-05-01T12:53:51.524Z</time></trkpt><trkpt lat="39.60204" lon="8.7740617"><ele>63.75</ele><time>2026-05-01T12:53:52.524Z</time></trkpt><trkpt lat="39.6020783" lon="8.773905"><ele>64.0</ele><time>2026-05-01T12:53:53.524Z</time></trkpt><trkpt lat="39.60212" lon="8.7737467"><ele>64.0</ele><time>2026-05-01T12:53:54.527Z</time></trkpt><trkpt lat="39.6021683" lon="8.773585"><ele>64.0</ele><time>2026-05-01T12:53:55.525Z</time></trkpt><trkpt lat="39.60221" lon="8.7734417"><ele>64.0</ele><time>2026-05-01T12:53:56.585Z</time></trkpt><trkpt lat="39.60224" lon="8.773315"><ele>64.0</ele><time>2026-05-01T12:53:57.522Z</time></trkpt><trkpt lat="39.6022817" lon="8.7731917"><ele>63.83333333333333</ele><time>2026-05-01T12:53:58.525Z</time></trkpt><trkpt lat="39.602305" lon="8.7730717"><ele>63.666666666666664</ele><time>2026-05-01T12:53:59.523Z</time></trkpt><trkpt lat="39.6023267" lon="8.7729733"><ele>63.5</ele><time>2026-05-01T12:54:00.527Z</time></trkpt><trkpt lat="39.6023467" lon="8.7728767"><ele>63.33333333333333</ele><time>2026-05-01T12:54:01.523Z</time></trkpt><trkpt lat="39.602345" lon="8.77278"><ele>63.166666666666664</ele><time>2026-05-01T12:54:02.554Z</time></trkpt><trkpt lat="39.60233" lon="8.7726883"><ele>63.0</ele><time>2026-05-01T12:54:03.526Z</time></trkpt><trkpt lat="39.6022967" lon="8.772605"><ele>62.4</ele><time>2026-05-01T12:54:04.524Z</time></trkpt><trkpt lat="39.6022567" lon="8.7725167"><ele>61.8</ele><time>2026-05-01T12:54:05.524Z</time></trkpt><trkpt lat="39.6022083" lon="8.7724217"><ele>61.2</ele><time>2026-05-01T12:54:06.524Z</time></trkpt><trkpt lat="39.60215" lon="8.77232"><ele>60.6</ele><time>2026-05-01T12:54:07.526Z</time></trkpt><trkpt lat="39.60207" lon="8.7722067"><ele>60.0</ele><time>2026-05-01T12:54:08.546Z</time></trkpt><trkpt lat="39.6019667" lon="8.772085"><ele>59.75</ele><time>2026-05-01T12:54:09.525Z</time></trkpt><trkpt lat="39.6019033" lon="8.7719817"><ele>59.5</ele><time>2026-05-01T12:54:10.524Z</time></trkpt><trkpt lat="39.60183" lon="8.7718517"><ele>59.25</ele><time>2026-05-01T12:54:11.524Z</time></trkpt><trkpt lat="39.6017383" lon="8.7717017"><ele>59.0</ele><time>2026-05-01T12:54:12.525Z</time></trkpt><trkpt lat="39.6016283" lon="8.7715417"><ele>59.0</ele><time>2026-05-01T12:54:13.522Z</time></trkpt><trkpt lat="39.60154" lon="8.7714017"><ele>59.0</ele><time>2026-05-01T12:54:14.546Z</time></trkpt><trkpt lat="39.60145" lon="8.771265"><ele>59.0</ele><time>2026-05-01T12:54:15.523Z</time></trkpt><trkpt lat="39.6013633" lon="8.7711167"><ele>59.0</ele><time>2026-05-01T12:54:16.525Z</time></trkpt><trkpt lat="39.6012783" lon="8.7709683"><ele>58.75</ele><time>2026-05-01T12:54:17.525Z</time></trkpt><trkpt lat="39.601195" lon="8.7708133"><ele>58.5</ele><time>2026-05-01T12:54:18.525Z</time></trkpt><trkpt lat="39.6011033" lon="8.7706583"><ele>58.25</ele><time>2026-05-01T12:54:19.524Z</time></trkpt><trkpt lat="39.6010117" lon="8.7705067"><ele>58.0</ele><time>2026-05-01T12:54:20.547Z</time></trkpt><trkpt lat="39.6009133" lon="8.770355"><ele>58.0</ele><time>2026-05-01T12:54:21.522Z</time></trkpt><trkpt lat="39.60081" lon="8.7701967"><ele>58.0</ele><time>2026-05-01T12:54:22.524Z</time></trkpt><trkpt lat="39.6007067" lon="8.77004"><ele>58.0</ele><time>2026-05-01T12:54:23.525Z</time></trkpt><trkpt lat="39.6006017" lon="8.7698767"><ele>57.666666666666664</ele><time>2026-05-01T12:54:24.526Z</time></trkpt><trkpt lat="39.6004933" lon="8.769715"><ele>57.33333333333333</ele><time>2026-05-01T12:54:25.524Z</time></trkpt><trkpt lat="39.60039" lon="8.76955"><ele>57.0</ele><time>2026-05-01T12:54:26.584Z</time></trkpt><trkpt lat="39.6002867" lon="8.7693783"><ele>56.0</ele><time>2026-05-01T12:54:27.527Z</time></trkpt><trkpt lat="39.6001883" lon="8.7692033"><ele>55.0</ele><time>2026-05-01T12:54:28.525Z</time></trkpt><trkpt lat="39.6000917" lon="8.769025"><ele>54.0</ele><time>2026-05-01T12:54:29.529Z</time></trkpt><trkpt lat="39.599995" lon="8.768855"><ele>54.0</ele><time>2026-05-01T12:54:30.523Z</time></trkpt><trkpt lat="39.5998967" lon="8.76869"><ele>54.0</ele><time>2026-05-01T12:54:31.524Z</time></trkpt><trkpt lat="39.5998" lon="8.7685317"><ele>54.0</ele><time>2026-05-01T12:54:32.524Z</time></trkpt><trkpt lat="39.5997117" lon="8.7683817"><ele>54.0</ele><time>2026-05-01T12:54:33.525Z</time></trkpt><trkpt lat="39.599625" lon="8.7682333"><ele>54.0</ele><time>2026-05-01T12:54:34.525Z</time></trkpt><trkpt lat="39.59954" lon="8.7680867"><ele>54.0</ele><time>2026-05-01T12:54:35.523Z</time></trkpt><trkpt lat="39.5994483" lon="8.7679283"><ele>54.0</ele><time>2026-05-01T12:54:36.528Z</time></trkpt><trkpt lat="39.5993667" lon="8.7677883"><ele>54.0</ele><time>2026-05-01T12:54:37.527Z</time></trkpt><trkpt lat="39.599285" lon="8.767655"><ele>54.0</ele><time>2026-05-01T12:54:38.545Z</time></trkpt><trkpt lat="39.5991967" lon="8.767525"><ele>54.0</ele><time>2026-05-01T12:54:39.522Z</time></trkpt><trkpt lat="39.5991333" lon="8.76739"><ele>54.0</ele><time>2026-05-01T12:54:40.524Z</time></trkpt><trkpt lat="39.59906" lon="8.76726"><ele>54.0</ele><time>2026-05-01T12:54:41.523Z</time></trkpt><trkpt lat="39.5989733" lon="8.767115"><ele>54.0</ele><time>2026-05-01T12:54:42.525Z</time></trkpt><trkpt lat="39.5988917" lon="8.7669783"><ele>54.0</ele><time>2026-05-01T12:54:43.529Z</time></trkpt><trkpt lat="39.5988117" lon="8.7668483"><ele>54.0</ele><time>2026-05-01T12:54:44.551Z</time></trkpt><trkpt lat="39.5987317" lon="8.7667117"><ele>53.25</ele><time>2026-05-01T12:54:45.527Z</time></trkpt><trkpt lat="39.5986567" lon="8.766575"><ele>52.5</ele><time>2026-05-01T12:54:46.526Z</time></trkpt><trkpt lat="39.5985817" lon="8.7664333"><ele>51.75</ele><time>2026-05-01T12:54:47.524Z</time></trkpt><trkpt lat="39.5984967" lon="8.7662933"><ele>51.0</ele><time>2026-05-01T12:54:48.529Z</time></trkpt><trkpt lat="39.5984117" lon="8.7661467"><ele>50.75</ele><time>2026-05-01T12:54:49.527Z</time></trkpt><trkpt lat="39.5983383" lon="8.7660067"><ele>50.5</ele><time>2026-05-01T12:54:50.546Z</time></trkpt><trkpt lat="39.5982683" lon="8.7658783"><ele>50.25</ele><time>2026-05-01T12:54:51.523Z</time></trkpt><trkpt lat="39.5981967" lon="8.76576"><ele>50.0</ele><time>2026-05-01T12:54:52.523Z</time></trkpt><trkpt lat="39.5981283" lon="8.7656467"><ele>50.0</ele><time>2026-05-01T12:54:53.527Z</time></trkpt><trkpt lat="39.598065" lon="8.7655433"><ele>50.0</ele><time>2026-05-01T12:54:54.525Z</time></trkpt><trkpt lat="39.5980033" lon="8.7654533"><ele>50.0</ele><time>2026-05-01T12:54:55.527Z</time></trkpt><trkpt lat="39.5979517" lon="8.7653483"><ele>50.0</ele><time>2026-05-01T12:54:56.586Z</time></trkpt><trkpt lat="39.5978933" lon="8.76525"><ele>50.0</ele><time>2026-05-01T12:54:57.529Z</time></trkpt><trkpt lat="39.5978367" lon="8.7651367"><ele>50.2</ele><time>2026-05-01T12:54:58.524Z</time></trkpt><trkpt lat="39.597765" lon="8.7650333"><ele>50.4</ele><time>2026-05-01T12:54:59.523Z</time></trkpt><trkpt lat="39.59769" lon="8.7649217"><ele>50.599999999999994</ele><time>2026-05-01T12:55:00.529Z</time></trkpt><trkpt lat="39.59764" lon="8.7648633"><ele>50.8</ele><time>2026-05-01T12:55:01.523Z</time></trkpt><trkpt lat="39.5976017" lon="8.7647867"><ele>51.0</ele><time>2026-05-01T12:55:02.577Z</time></trkpt><trkpt lat="39.5975233" lon="8.7646683"><ele>51.0</ele><time>2026-05-01T12:55:04.522Z</time></trkpt><trkpt lat="39.59745" lon="8.7645567"><ele>51.0</ele><time>2026-05-01T12:55:06.526Z</time></trkpt><trkpt lat="39.5973817" lon="8.7644333"><ele>51.0</ele><time>2026-05-01T12:55:08.55Z</time></trkpt><trkpt lat="39.597345" lon="8.764365"><ele>51.0</ele><time>2026-05-01T12:55:09.523Z</time></trkpt><trkpt lat="39.5973117" lon="8.764295"><ele>51.0</ele><time>2026-05-01T12:55:10.526Z</time></trkpt><trkpt lat="39.5972767" lon="8.7642267"><ele>51.0</ele><time>2026-05-01T12:55:11.526Z</time></trkpt><trkpt lat="39.59724" lon="8.76416"><ele>51.0</ele><time>2026-05-01T12:55:12.523Z</time></trkpt><trkpt lat="39.5971667" lon="8.7640283"><ele>51.0</ele><time>2026-05-01T12:55:14.546Z</time></trkpt><trkpt lat="39.5971267" lon="8.7639583"><ele>51.0</ele><time>2026-05-01T12:55:15.527Z</time></trkpt><trkpt lat="39.5970733" lon="8.763845"><ele>51.0</ele><time>2026-05-01T12:55:17.524Z</time></trkpt><trkpt lat="39.5970683" lon="8.763755"><ele>51.0</ele><time>2026-05-01T12:55:20.548Z</time></trkpt><trkpt lat="39.597145" lon="8.7636933"><ele>51.0</ele><time>2026-05-01T12:55:23.527Z</time></trkpt><trkpt lat="39.597255" lon="8.7636767"><ele>51.0</ele><time>2026-05-01T12:55:25.524Z</time></trkpt><trkpt lat="39.5973267" lon="8.7636733"><ele>51.0</ele><time>2026-05-01T12:55:26.571Z</time></trkpt><trkpt lat="39.5974" lon="8.763675"><ele>51.0</ele><time>2026-05-01T12:55:27.531Z</time></trkpt><trkpt lat="39.5974783" lon="8.7636683"><ele>51.0</ele><time>2026-05-01T12:55:28.527Z</time></trkpt><trkpt lat="39.5975617" lon="8.7636583"><ele>51.0</ele><time>2026-05-01T12:55:29.524Z</time></trkpt><trkpt lat="39.59765" lon="8.763645"><ele>51.0</ele><time>2026-05-01T12:55:30.523Z</time></trkpt><trkpt lat="39.597745" lon="8.76363"><ele>51.0</ele><time>2026-05-01T12:55:31.523Z</time></trkpt><trkpt lat="39.5978383" lon="8.7636133"><ele>51.0</ele><time>2026-05-01T12:55:32.543Z</time></trkpt><trkpt lat="39.5979383" lon="8.7635917"><ele>51.0</ele><time>2026-05-01T12:55:33.528Z</time></trkpt><trkpt lat="39.5980317" lon="8.7635717"><ele>51.0</ele><time>2026-05-01T12:55:34.526Z</time></trkpt><trkpt lat="39.5981217" lon="8.7635517"><ele>51.166666666666664</ele><time>2026-05-01T12:55:35.528Z</time></trkpt><trkpt lat="39.5982083" lon="8.76353"><ele>51.33333333333333</ele><time>2026-05-01T12:55:36.523Z</time></trkpt><trkpt lat="39.5982883" lon="8.7635017"><ele>51.5</ele><time>2026-05-01T12:55:37.527Z</time></trkpt><trkpt lat="39.5983633" lon="8.7634733"><ele>51.666666666666664</ele><time>2026-05-01T12:55:38.548Z</time></trkpt><trkpt lat="39.5984317" lon="8.7634417"><ele>51.83333333333333</ele><time>2026-05-01T12:55:39.522Z</time></trkpt><trkpt lat="39.5985317" lon="8.7633783"><ele>52.0</ele><time>2026-05-01T12:55:41.522Z</time></trkpt><trkpt lat="39.598585" lon="8.763285"><ele>52.0</ele><time>2026-05-01T12:55:43.526Z</time></trkpt><trkpt lat="39.59858" lon="8.7631667"><ele>52.0</ele><time>2026-05-01T12:55:45.525Z</time></trkpt><trkpt lat="39.5985533" lon="8.7629983"><ele>52.0</ele><time>2026-05-01T12:55:47.528Z</time></trkpt><trkpt lat="39.598535" lon="8.7629083"><ele>52.0</ele><time>2026-05-01T12:55:48.523Z</time></trkpt><trkpt lat="39.59851" lon="8.7628083"><ele>52.0</ele><time>2026-05-01T12:55:49.524Z</time></trkpt><trkpt lat="39.59848" lon="8.7626917"><ele>52.0</ele><time>2026-05-01T12:55:50.55Z</time></trkpt><trkpt lat="39.59844" lon="8.7625683"><ele>52.0</ele><time>2026-05-01T12:55:51.53Z</time></trkpt><trkpt lat="39.598395" lon="8.76244"><ele>52.0</ele><time>2026-05-01T12:55:52.527Z</time></trkpt><trkpt lat="39.59834" lon="8.7623033"><ele>52.0</ele><time>2026-05-01T12:55:53.523Z</time></trkpt><trkpt lat="39.5982917" lon="8.762165"><ele>52.0</ele><time>2026-05-01T12:55:54.526Z</time></trkpt><trkpt lat="39.598225" lon="8.76204"><ele>52.0</ele><time>2026-05-01T12:55:55.524Z</time></trkpt><trkpt lat="39.5981567" lon="8.7619083"><ele>52.0</ele><time>2026-05-01T12:55:56.54Z</time></trkpt><trkpt lat="39.5980683" lon="8.7617667"><ele>52.0</ele><time>2026-05-01T12:55:57.523Z</time></trkpt><trkpt lat="39.59798" lon="8.761625"><ele>52.0</ele><time>2026-05-01T12:55:58.524Z</time></trkpt><trkpt lat="39.5978867" lon="8.7614933"><ele>51.75</ele><time>2026-05-01T12:55:59.524Z</time></trkpt><trkpt lat="39.59779" lon="8.76137"><ele>51.5</ele><time>2026-05-01T12:56:00.525Z</time></trkpt><trkpt lat="39.597685" lon="8.76126"><ele>51.25</ele><time>2026-05-01T12:56:01.526Z</time></trkpt><trkpt lat="39.5975783" lon="8.7611617"><ele>51.0</ele><time>2026-05-01T12:56:02.573Z</time></trkpt><trkpt lat="39.5974767" lon="8.7610783"><ele>50.8</ele><time>2026-05-01T12:56:03.522Z</time></trkpt><trkpt lat="39.59738" lon="8.7610017"><ele>50.599999999999994</ele><time>2026-05-01T12:56:04.522Z</time></trkpt><trkpt lat="39.5972883" lon="8.7609383"><ele>50.4</ele><time>2026-05-01T12:56:05.526Z</time></trkpt><trkpt lat="39.5971967" lon="8.7608683"><ele>50.2</ele><time>2026-05-01T12:56:06.526Z</time></trkpt><trkpt lat="39.5971" lon="8.7607867"><ele>50.0</ele><time>2026-05-01T12:56:07.526Z</time></trkpt><trkpt lat="39.5970217" lon="8.7606967"><ele>49.8</ele><time>2026-05-01T12:56:08.551Z</time></trkpt><trkpt lat="39.59694" lon="8.7605967"><ele>49.6</ele><time>2026-05-01T12:56:09.526Z</time></trkpt><trkpt lat="39.59686" lon="8.7604983"><ele>49.400000000000006</ele><time>2026-05-01T12:56:10.524Z</time></trkpt><trkpt lat="39.5967817" lon="8.7604017"><ele>49.2</ele><time>2026-05-01T12:56:11.526Z</time></trkpt><trkpt lat="39.5967033" lon="8.7603017"><ele>49.0</ele><time>2026-05-01T12:56:12.527Z</time></trkpt><trkpt lat="39.5966283" lon="8.7602117"><ele>48.800000000000004</ele><time>2026-05-01T12:56:13.522Z</time></trkpt><trkpt lat="39.59656" lon="8.76012"><ele>48.6</ele><time>2026-05-01T12:56:14.547Z</time></trkpt><trkpt lat="39.596495" lon="8.7600283"><ele>48.4</ele><time>2026-05-01T12:56:15.521Z</time></trkpt><trkpt lat="39.596435" lon="8.75994"><ele>48.2</ele><time>2026-05-01T12:56:16.524Z</time></trkpt><trkpt lat="39.5963783" lon="8.759855"><ele>48.0</ele><time>2026-05-01T12:56:17.524Z</time></trkpt><trkpt lat="39.5963183" lon="8.7597767"><ele>48.0</ele><time>2026-05-01T12:56:18.525Z</time></trkpt><trkpt lat="39.596265" lon="8.7596983"><ele>48.0</ele><time>2026-05-01T12:56:19.525Z</time></trkpt><trkpt lat="39.5962183" lon="8.7596183"><ele>48.0</ele><time>2026-05-01T12:56:20.551Z</time></trkpt><trkpt lat="39.5961683" lon="8.7595367"><ele>48.0</ele><time>2026-05-01T12:56:21.526Z</time></trkpt><trkpt lat="39.59613" lon="8.7594533"><ele>48.0</ele><time>2026-05-01T12:56:22.525Z</time></trkpt><trkpt lat="39.5960917" lon="8.75936"><ele>48.0</ele><time>2026-05-01T12:56:23.52Z</time></trkpt><trkpt lat="39.5960567" lon="8.7592733"><ele>47.99999999999999</ele><time>2026-05-01T12:56:24.525Z</time></trkpt><trkpt lat="39.59602" lon="8.759195"><ele>48.0</ele><time>2026-05-01T12:56:25.523Z</time></trkpt><trkpt lat="39.5959833" lon="8.7591067"><ele>48.0</ele><time>2026-05-01T12:56:26.526Z</time></trkpt><trkpt lat="39.5959517" lon="8.759025"><ele>48.0</ele><time>2026-05-01T12:56:27.521Z</time></trkpt><trkpt lat="39.595925" lon="8.7589467"><ele>48.0</ele><time>2026-05-01T12:56:28.521Z</time></trkpt><trkpt lat="39.5959017" lon="8.75887"><ele>47.99999999999999</ele><time>2026-05-01T12:56:29.522Z</time></trkpt><trkpt lat="39.5958733" lon="8.7587833"><ele>48.0</ele><time>2026-05-01T12:56:30.526Z</time></trkpt><trkpt lat="39.5958433" lon="8.7586933"><ele>48.0</ele><time>2026-05-01T12:56:31.523Z</time></trkpt><trkpt lat="39.5958117" lon="8.758605"><ele>48.0</ele><time>2026-05-01T12:56:32.556Z</time></trkpt><trkpt lat="39.5957817" lon="8.75852"><ele>48.0</ele><time>2026-05-01T12:56:33.528Z</time></trkpt><trkpt lat="39.5957467" lon="8.75843"><ele>48.0</ele><time>2026-05-01T12:56:34.524Z</time></trkpt><trkpt lat="39.5957083" lon="8.7583417"><ele>48.0</ele><time>2026-05-01T12:56:35.53Z</time></trkpt><trkpt lat="39.5956633" lon="8.758255"><ele>48.0</ele><time>2026-05-01T12:56:36.527Z</time></trkpt><trkpt lat="39.595615" lon="8.7581633"><ele>48.0</ele><time>2026-05-01T12:56:37.525Z</time></trkpt><trkpt lat="39.5955633" lon="8.7580717"><ele>48.0</ele><time>2026-05-01T12:56:38.545Z</time></trkpt><trkpt lat="39.5955083" lon="8.75798"><ele>48.0</ele><time>2026-05-01T12:56:39.52Z</time></trkpt><trkpt lat="39.5954517" lon="8.7578883"><ele>48.0</ele><time>2026-05-01T12:56:40.524Z</time></trkpt><trkpt lat="39.5953983" lon="8.7577917"><ele>48.0</ele><time>2026-05-01T12:56:41.523Z</time></trkpt><trkpt lat="39.595345" lon="8.7577"><ele>48.0</ele><time>2026-05-01T12:56:42.523Z</time></trkpt><trkpt lat="39.5952867" lon="8.7576"><ele>48.0</ele><time>2026-05-01T12:56:43.524Z</time></trkpt><trkpt lat="39.5952333" lon="8.7575033"><ele>48.0</ele><time>2026-05-01T12:56:44.546Z</time></trkpt><trkpt lat="39.5951817" lon="8.7574067"><ele>48.0</ele><time>2026-05-01T12:56:45.524Z</time></trkpt><trkpt lat="39.5951333" lon="8.7573217"><ele>48.0</ele><time>2026-05-01T12:56:46.52Z</time></trkpt><trkpt lat="39.5950833" lon="8.7572233"><ele>48.0</ele><time>2026-05-01T12:56:47.522Z</time></trkpt><trkpt lat="39.5950367" lon="8.7571333"><ele>48.0</ele><time>2026-05-01T12:56:48.524Z</time></trkpt><trkpt lat="39.594995" lon="8.7570483"><ele>48.0</ele><time>2026-05-01T12:56:49.523Z</time></trkpt><trkpt lat="39.5949533" lon="8.7569633"><ele>48.0</ele><time>2026-05-01T12:56:50.55Z</time></trkpt><trkpt lat="39.5949083" lon="8.7568783"><ele>48.0</ele><time>2026-05-01T12:56:51.524Z</time></trkpt><trkpt lat="39.59486" lon="8.7567933"><ele>48.0</ele><time>2026-05-01T12:56:52.522Z</time></trkpt><trkpt lat="39.59481" lon="8.756705"><ele>48.0</ele><time>2026-05-01T12:56:53.526Z</time></trkpt><trkpt lat="39.5947567" lon="8.7566167"><ele>48.0</ele><time>2026-05-01T12:56:54.524Z</time></trkpt><trkpt lat="39.5947033" lon="8.7565283"><ele>48.0</ele><time>2026-05-01T12:56:55.524Z</time></trkpt><trkpt lat="39.594655" lon="8.75644"><ele>48.0</ele><time>2026-05-01T12:56:56.554Z</time></trkpt><trkpt lat="39.5946017" lon="8.7563467"><ele>48.0</ele><time>2026-05-01T12:56:57.523Z</time></trkpt><trkpt lat="39.594545" lon="8.756265"><ele>48.0</ele><time>2026-05-01T12:56:58.525Z</time></trkpt><trkpt lat="39.594485" lon="8.7561833"><ele>48.0</ele><time>2026-05-01T12:56:59.53Z</time></trkpt><trkpt lat="39.5944267" lon="8.756105"><ele>48.0</ele><time>2026-05-01T12:57:00.526Z</time></trkpt><trkpt lat="39.5943683" lon="8.7560317"><ele>47.5</ele><time>2026-05-01T12:57:01.523Z</time></trkpt><trkpt lat="39.5943133" lon="8.7559517"><ele>47.0</ele><time>2026-05-01T12:57:02.522Z</time></trkpt><trkpt lat="39.59426" lon="8.7558683"><ele>46.5</ele><time>2026-05-01T12:57:03.522Z</time></trkpt><trkpt lat="39.594205" lon="8.75578"><ele>46.0</ele><time>2026-05-01T12:57:04.523Z</time></trkpt><trkpt lat="39.5941567" lon="8.7556933"><ele>45.5</ele><time>2026-05-01T12:57:05.523Z</time></trkpt><trkpt lat="39.5941117" lon="8.7556067"><ele>45.0</ele><time>2026-05-01T12:57:06.526Z</time></trkpt><trkpt lat="39.5940667" lon="8.7555217"><ele>45.0</ele><time>2026-05-01T12:57:07.525Z</time></trkpt><trkpt lat="39.5940267" lon="8.7554367"><ele>45.0</ele><time>2026-05-01T12:57:08.549Z</time></trkpt><trkpt lat="39.593985" lon="8.7553517"><ele>45.0</ele><time>2026-05-01T12:57:09.524Z</time></trkpt><trkpt lat="39.5939433" lon="8.755265"><ele>45.0</ele><time>2026-05-01T12:57:10.524Z</time></trkpt><trkpt lat="39.5939" lon="8.755175"><ele>45.0</ele><time>2026-05-01T12:57:11.524Z</time></trkpt><trkpt lat="39.59386" lon="8.7550817"><ele>45.0</ele><time>2026-05-01T12:57:12.524Z</time></trkpt><trkpt lat="39.593815" lon="8.7549833"><ele>45.166666666666664</ele><time>2026-05-01T12:57:13.523Z</time></trkpt><trkpt lat="39.5937717" lon="8.75489"><ele>45.333333333333336</ele><time>2026-05-01T12:57:14.547Z</time></trkpt><trkpt lat="39.593725" lon="8.754795"><ele>45.5</ele><time>2026-05-01T12:57:15.525Z</time></trkpt><trkpt lat="39.5936733" lon="8.7546967"><ele>45.66666666666667</ele><time>2026-05-01T12:57:16.521Z</time></trkpt><trkpt lat="39.5936233" lon="8.7546017"><ele>45.833333333333336</ele><time>2026-05-01T12:57:17.523Z</time></trkpt><trkpt lat="39.593575" lon="8.7545133"><ele>46.0</ele><time>2026-05-01T12:57:18.521Z</time></trkpt><trkpt lat="39.5935267" lon="8.7544317"><ele>45.833333333333336</ele><time>2026-05-01T12:57:19.52Z</time></trkpt><trkpt lat="39.5934783" lon="8.75435"><ele>45.66666666666667</ele><time>2026-05-01T12:57:20.55Z</time></trkpt><trkpt lat="39.593425" lon="8.7542717"><ele>45.5</ele><time>2026-05-01T12:57:21.523Z</time></trkpt><trkpt lat="39.5933683" lon="8.754195"><ele>45.333333333333336</ele><time>2026-05-01T12:57:22.525Z</time></trkpt><trkpt lat="39.5933083" lon="8.75412"><ele>45.166666666666664</ele><time>2026-05-01T12:57:23.527Z</time></trkpt><trkpt lat="39.593245" lon="8.7540467"><ele>45.0</ele><time>2026-05-01T12:57:24.524Z</time></trkpt><trkpt lat="39.5931867" lon="8.7539817"><ele>45.0</ele><time>2026-05-01T12:57:25.526Z</time></trkpt><trkpt lat="39.5931333" lon="8.7539167"><ele>45.0</ele><time>2026-05-01T12:57:26.591Z</time></trkpt><trkpt lat="39.59308" lon="8.7538533"><ele>45.0</ele><time>2026-05-01T12:57:27.525Z</time></trkpt><trkpt lat="39.59303" lon="8.7537883"><ele>45.0</ele><time>2026-05-01T12:57:28.523Z</time></trkpt><trkpt lat="39.5929867" lon="8.7537283"><ele>45.0</ele><time>2026-05-01T12:57:29.525Z</time></trkpt><trkpt lat="39.5929183" lon="8.753635"><ele>45.0</ele><time>2026-05-01T12:57:31.526Z</time></trkpt><trkpt lat="39.59286" lon="8.75358"><ele>45.0</ele><time>2026-05-01T12:57:47.528Z</time></trkpt><trkpt lat="39.5928233" lon="8.7534583"><ele>45.0</ele><time>2026-05-01T12:57:50.55Z</time></trkpt><trkpt lat="39.5927833" lon="8.7533767"><ele>45.0</ele><time>2026-05-01T12:57:52.523Z</time></trkpt><trkpt lat="39.5927183" lon="8.7533267"><ele>45.0</ele><time>2026-05-01T12:57:54.526Z</time></trkpt><trkpt lat="39.59263" lon="8.7532867"><ele>45.0</ele><time>2026-05-01T12:57:56.574Z</time></trkpt><trkpt lat="39.5925467" lon="8.7532"><ele>45.0</ele><time>2026-05-01T12:57:58.523Z</time></trkpt><trkpt lat="39.592475" lon="8.7530783"><ele>45.0</ele><time>2026-05-01T12:58:00.524Z</time></trkpt><trkpt lat="39.5924333" lon="8.75301"><ele>45.0</ele><time>2026-05-01T12:58:01.52Z</time></trkpt><trkpt lat="39.592385" lon="8.7529367"><ele>45.0</ele><time>2026-05-01T12:58:02.555Z</time></trkpt><trkpt lat="39.5923283" lon="8.7528683"><ele>45.0</ele><time>2026-05-01T12:58:03.523Z</time></trkpt><trkpt lat="39.5922667" lon="8.7528083"><ele>45.0</ele><time>2026-05-01T12:58:04.527Z</time></trkpt><trkpt lat="39.592205" lon="8.7527583"><ele>45.0</ele><time>2026-05-01T12:58:05.524Z</time></trkpt><trkpt lat="39.5921467" lon="8.7527117"><ele>45.0</ele><time>2026-05-01T12:58:06.523Z</time></trkpt><trkpt lat="39.5920917" lon="8.752665"><ele>45.0</ele><time>2026-05-01T12:58:07.525Z</time></trkpt><trkpt lat="39.5919983" lon="8.752565"><ele>45.0</ele><time>2026-05-01T12:58:09.523Z</time></trkpt><trkpt lat="39.5919167" lon="8.7524533"><ele>45.0</ele><time>2026-05-01T12:58:11.526Z</time></trkpt><trkpt lat="39.5918517" lon="8.7523083"><ele>44.833333333333336</ele><time>2026-05-01T12:58:13.522Z</time></trkpt><trkpt lat="39.5918233" lon="8.7522233"><ele>44.666666666666664</ele><time>2026-05-01T12:58:14.544Z</time></trkpt><trkpt lat="39.5917967" lon="8.75213"><ele>44.5</ele><time>2026-05-01T12:58:15.522Z</time></trkpt><trkpt lat="39.5917683" lon="8.7520283"><ele>44.33333333333333</ele><time>2026-05-01T12:58:16.522Z</time></trkpt><trkpt lat="39.591745" lon="8.7519233"><ele>44.166666666666664</ele><time>2026-05-01T12:58:17.524Z</time></trkpt><trkpt lat="39.591715" lon="8.7518167"><ele>44.0</ele><time>2026-05-01T12:58:18.52Z</time></trkpt><trkpt lat="39.591675" lon="8.7517117"><ele>43.6</ele><time>2026-05-01T12:58:19.524Z</time></trkpt><trkpt lat="39.5916233" lon="8.7516117"><ele>43.2</ele><time>2026-05-01T12:58:20.544Z</time></trkpt><trkpt lat="39.5915617" lon="8.7515133"><ele>42.800000000000004</ele><time>2026-05-01T12:58:21.525Z</time></trkpt><trkpt lat="39.591495" lon="8.7514217"><ele>42.400000000000006</ele><time>2026-05-01T12:58:22.522Z</time></trkpt><trkpt lat="39.5914283" lon="8.7513317"><ele>42.0</ele><time>2026-05-01T12:58:23.528Z</time></trkpt><trkpt lat="39.5913567" lon="8.75124"><ele>42.0</ele><time>2026-05-01T12:58:24.524Z</time></trkpt><trkpt lat="39.5912867" lon="8.7511433"><ele>42.0</ele><time>2026-05-01T12:58:25.523Z</time></trkpt><trkpt lat="39.5912183" lon="8.7510383"><ele>42.0</ele><time>2026-05-01T12:58:26.567Z</time></trkpt><trkpt lat="39.5911583" lon="8.7509233"><ele>42.0</ele><time>2026-05-01T12:58:27.524Z</time></trkpt><trkpt lat="39.5911" lon="8.7507933"><ele>42.0</ele><time>2026-05-01T12:58:28.525Z</time></trkpt><trkpt lat="39.591045" lon="8.7506617"><ele>42.0</ele><time>2026-05-01T12:58:29.522Z</time></trkpt><trkpt lat="39.5909867" lon="8.7505317"><ele>42.0</ele><time>2026-05-01T12:58:30.525Z</time></trkpt><trkpt lat="39.590925" lon="8.7504033"><ele>42.0</ele><time>2026-05-01T12:58:31.525Z</time></trkpt><trkpt lat="39.590865" lon="8.7502833"><ele>42.0</ele><time>2026-05-01T12:58:32.57Z</time></trkpt><trkpt lat="39.5908017" lon="8.750165"><ele>42.0</ele><time>2026-05-01T12:58:33.525Z</time></trkpt><trkpt lat="39.590735" lon="8.75005"><ele>42.0</ele><time>2026-05-01T12:58:34.524Z</time></trkpt><trkpt lat="39.5906733" lon="8.7499433"><ele>42.0</ele><time>2026-05-01T12:58:35.522Z</time></trkpt><trkpt lat="39.5906117" lon="8.74983"><ele>42.0</ele><time>2026-05-01T12:58:36.523Z</time></trkpt><trkpt lat="39.5905567" lon="8.7497183"><ele>42.0</ele><time>2026-05-01T12:58:37.527Z</time></trkpt><trkpt lat="39.5904983" lon="8.7496033"><ele>42.0</ele><time>2026-05-01T12:58:38.548Z</time></trkpt><trkpt lat="39.5904383" lon="8.7495"><ele>42.0</ele><time>2026-05-01T12:58:39.522Z</time></trkpt><trkpt lat="39.5903733" lon="8.749405"><ele>42.0</ele><time>2026-05-01T12:58:40.524Z</time></trkpt><trkpt lat="39.590305" lon="8.74931"><ele>42.0</ele><time>2026-05-01T12:58:41.527Z</time></trkpt><trkpt lat="39.5902333" lon="8.749215"><ele>42.0</ele><time>2026-05-01T12:58:42.522Z</time></trkpt><trkpt lat="39.59016" lon="8.7491183"><ele>41.8</ele><time>2026-05-01T12:58:43.522Z</time></trkpt><trkpt lat="39.590085" lon="8.749025"><ele>41.6</ele><time>2026-05-01T12:58:44.55Z</time></trkpt><trkpt lat="39.5900083" lon="8.7489317"><ele>41.4</ele><time>2026-05-01T12:58:45.525Z</time></trkpt><trkpt lat="39.5899383" lon="8.748835"><ele>41.199999999999996</ele><time>2026-05-01T12:58:46.522Z</time></trkpt><trkpt lat="39.5898717" lon="8.7487367"><ele>41.0</ele><time>2026-05-01T12:58:47.527Z</time></trkpt><trkpt lat="39.5898083" lon="8.7486433"><ele>41.0</ele><time>2026-05-01T12:58:48.522Z</time></trkpt><trkpt lat="39.5897467" lon="8.74855"><ele>41.0</ele><time>2026-05-01T12:58:49.526Z</time></trkpt><trkpt lat="39.5896883" lon="8.7484633"><ele>41.0</ele><time>2026-05-01T12:58:50.549Z</time></trkpt><trkpt lat="39.58964" lon="8.7483833"><ele>41.0</ele><time>2026-05-01T12:58:51.521Z</time></trkpt><trkpt lat="39.5896067" lon="8.7483117"><ele>41.0</ele><time>2026-05-01T12:58:52.521Z</time></trkpt><trkpt lat="39.5895767" lon="8.7481817"><ele>41.0</ele><time>2026-05-01T12:58:54.523Z</time></trkpt><trkpt lat="39.5895733" lon="8.7480833"><ele>40.8</ele><time>2026-05-01T12:58:56.557Z</time></trkpt><trkpt lat="39.5895333" lon="8.74799"><ele>40.599999999999994</ele><time>2026-05-01T12:58:59.523Z</time></trkpt><trkpt lat="39.5894767" lon="8.7479083"><ele>40.4</ele><time>2026-05-01T12:59:01.523Z</time></trkpt><trkpt lat="39.589385" lon="8.7477867"><ele>40.2</ele><time>2026-05-01T12:59:03.526Z</time></trkpt><trkpt lat="39.5893217" lon="8.7477117"><ele>40.0</ele><time>2026-05-01T12:59:04.523Z</time></trkpt><trkpt lat="39.5892567" lon="8.7476383"><ele>39.833333333333336</ele><time>2026-05-01T12:59:05.522Z</time></trkpt><trkpt lat="39.5891867" lon="8.7475617"><ele>39.66666666666667</ele><time>2026-05-01T12:59:06.525Z</time></trkpt><trkpt lat="39.5891133" lon="8.7474767"><ele>39.5</ele><time>2026-05-01T12:59:07.524Z</time></trkpt><trkpt lat="39.5890467" lon="8.7473933"><ele>39.333333333333336</ele><time>2026-05-01T12:59:08.548Z</time></trkpt><trkpt lat="39.5889883" lon="8.747315"><ele>39.166666666666664</ele><time>2026-05-01T12:59:09.527Z</time></trkpt><trkpt lat="39.5889417" lon="8.74724"><ele>39.0</ele><time>2026-05-01T12:59:10.526Z</time></trkpt><trkpt lat="39.5889083" lon="8.7471667"><ele>39.0</ele><time>2026-05-01T12:59:11.526Z</time></trkpt><trkpt lat="39.5888783" lon="8.7470817"><ele>39.0</ele><time>2026-05-01T12:59:12.523Z</time></trkpt><trkpt lat="39.5888467" lon="8.746985"><ele>39.0</ele><time>2026-05-01T12:59:13.523Z</time></trkpt><trkpt lat="39.5888183" lon="8.746885"><ele>39.0</ele><time>2026-05-01T12:59:14.546Z</time></trkpt><trkpt lat="39.5887917" lon="8.7467767"><ele>39.0</ele><time>2026-05-01T12:59:15.527Z</time></trkpt><trkpt lat="39.58876" lon="8.7466567"><ele>39.0</ele><time>2026-05-01T12:59:16.523Z</time></trkpt><trkpt lat="39.5887317" lon="8.7465333"><ele>39.0</ele><time>2026-05-01T12:59:17.53Z</time></trkpt><trkpt lat="39.5887033" lon="8.746405"><ele>39.0</ele><time>2026-05-01T12:59:18.525Z</time></trkpt><trkpt lat="39.58867" lon="8.74628"><ele>39.0</ele><time>2026-05-01T12:59:19.524Z</time></trkpt><trkpt lat="39.58863" lon="8.7461633"><ele>39.0</ele><time>2026-05-01T12:59:20.549Z</time></trkpt><trkpt lat="39.588585" lon="8.7460533"><ele>39.0</ele><time>2026-05-01T12:59:21.522Z</time></trkpt><trkpt lat="39.5885433" lon="8.74595"><ele>39.0</ele><time>2026-05-01T12:59:22.523Z</time></trkpt><trkpt lat="39.5885083" lon="8.7458417"><ele>39.0</ele><time>2026-05-01T12:59:23.524Z</time></trkpt><trkpt lat="39.5884833" lon="8.745735"><ele>39.0</ele><time>2026-05-01T12:59:24.525Z</time></trkpt><trkpt lat="39.5884683" lon="8.7456267"><ele>39.0</ele><time>2026-05-01T12:59:25.523Z</time></trkpt><trkpt lat="39.5884567" lon="8.7455067"><ele>39.0</ele><time>2026-05-01T12:59:26.565Z</time></trkpt><trkpt lat="39.5884517" lon="8.7453783"><ele>39.0</ele><time>2026-05-01T12:59:27.527Z</time></trkpt><trkpt lat="39.5884467" lon="8.74525"><ele>39.0</ele><time>2026-05-01T12:59:28.524Z</time></trkpt><trkpt lat="39.58844" lon="8.7451317"><ele>39.0</ele><time>2026-05-01T12:59:29.525Z</time></trkpt><trkpt lat="39.5884283" lon="8.7450133"><ele>39.0</ele><time>2026-05-01T12:59:30.521Z</time></trkpt><trkpt lat="39.5884117" lon="8.744895"><ele>39.0</ele><time>2026-05-01T12:59:31.523Z</time></trkpt><trkpt lat="39.58839" lon="8.7447783"><ele>38.8</ele><time>2026-05-01T12:59:32.566Z</time></trkpt><trkpt lat="39.5883633" lon="8.7446583"><ele>38.599999999999994</ele><time>2026-05-01T12:59:33.521Z</time></trkpt><trkpt lat="39.588335" lon="8.7445283"><ele>38.4</ele><time>2026-05-01T12:59:34.522Z</time></trkpt><trkpt lat="39.58831" lon="8.7443967"><ele>38.199999999999996</ele><time>2026-05-01T12:59:35.527Z</time></trkpt><trkpt lat="39.5882883" lon="8.7442767"><ele>38.0</ele><time>2026-05-01T12:59:36.525Z</time></trkpt><trkpt lat="39.5882683" lon="8.7441667"><ele>37.857142857142854</ele><time>2026-05-01T12:59:37.524Z</time></trkpt><trkpt lat="39.5882533" lon="8.74406"><ele>37.714285714285715</ele><time>2026-05-01T12:59:38.548Z</time></trkpt><trkpt lat="39.5882283" lon="8.7439667"><ele>37.57142857142857</ele><time>2026-05-01T12:59:39.524Z</time></trkpt><trkpt lat="39.5881917" lon="8.743885"><ele>37.42857142857143</ele><time>2026-05-01T12:59:40.526Z</time></trkpt><trkpt lat="39.5881433" lon="8.7438133"><ele>37.285714285714285</ele><time>2026-05-01T12:59:41.529Z</time></trkpt><trkpt lat="39.588095" lon="8.7437433"><ele>37.142857142857146</ele><time>2026-05-01T12:59:42.522Z</time></trkpt><trkpt lat="39.58805" lon="8.743675"><ele>37.0</ele><time>2026-05-01T12:59:43.526Z</time></trkpt><trkpt lat="39.5880183" lon="8.7436"><ele>37.2</ele><time>2026-05-01T12:59:44.545Z</time></trkpt><trkpt lat="39.58799" lon="8.7434317"><ele>37.400000000000006</ele><time>2026-05-01T12:59:46.526Z</time></trkpt><trkpt lat="39.587965" lon="8.743345"><ele>37.599999999999994</ele><time>2026-05-01T12:59:47.523Z</time></trkpt><trkpt lat="39.58792" lon="8.7432583"><ele>37.8</ele><time>2026-05-01T12:59:48.525Z</time></trkpt><trkpt lat="39.5878633" lon="8.74317"><ele>38.0</ele><time>2026-05-01T12:59:49.523Z</time></trkpt><trkpt lat="39.587795" lon="8.743085"><ele>38.0</ele><time>2026-05-01T12:59:50.546Z</time></trkpt><trkpt lat="39.5877167" lon="8.743005"><ele>38.0</ele><time>2026-05-01T12:59:51.526Z</time></trkpt><trkpt lat="39.587635" lon="8.7429283"><ele>38.0</ele><time>2026-05-01T12:59:52.523Z</time></trkpt><trkpt lat="39.587555" lon="8.742845"><ele>38.0</ele><time>2026-05-01T12:59:53.53Z</time></trkpt><trkpt lat="39.587485" lon="8.7427483"><ele>38.0</ele><time>2026-05-01T12:59:54.526Z</time></trkpt><trkpt lat="39.58742" lon="8.7426483"><ele>38.0</ele><time>2026-05-01T12:59:55.525Z</time></trkpt><trkpt lat="39.5873633" lon="8.742555"><ele>38.0</ele><time>2026-05-01T12:59:56.583Z</time></trkpt><trkpt lat="39.5873167" lon="8.7424617"><ele>38.0</ele><time>2026-05-01T12:59:57.523Z</time></trkpt><trkpt lat="39.587275" lon="8.742375"><ele>38.0</ele><time>2026-05-01T12:59:58.525Z</time></trkpt><trkpt lat="39.5872467" lon="8.74229"><ele>38.0</ele><time>2026-05-01T12:59:59.526Z</time></trkpt><trkpt lat="39.58723" lon="8.7421517"><ele>38.0</ele><time>2026-05-01T13:00:01.526Z</time></trkpt><trkpt lat="39.5871967" lon="8.7420517"><ele>38.0</ele><time>2026-05-01T13:00:03.525Z</time></trkpt><trkpt lat="39.5871317" lon="8.7419367"><ele>38.0</ele><time>2026-05-01T13:00:05.524Z</time></trkpt><trkpt lat="39.5870867" lon="8.741865"><ele>38.0</ele><time>2026-05-01T13:00:06.523Z</time></trkpt><trkpt lat="39.5870367" lon="8.7417833"><ele>38.0</ele><time>2026-05-01T13:00:07.522Z</time></trkpt><trkpt lat="39.58698" lon="8.7416917"><ele>38.0</ele><time>2026-05-01T13:00:08.549Z</time></trkpt><trkpt lat="39.5869217" lon="8.7415883"><ele>38.199999999999996</ele><time>2026-05-01T13:00:09.521Z</time></trkpt><trkpt lat="39.58686" lon="8.74148"><ele>38.4</ele><time>2026-05-01T13:00:10.522Z</time></trkpt><trkpt lat="39.5868" lon="8.741365"><ele>38.599999999999994</ele><time>2026-05-01T13:00:11.525Z</time></trkpt><trkpt lat="39.5867383" lon="8.7412383"><ele>38.8</ele><time>2026-05-01T13:00:12.525Z</time></trkpt><trkpt lat="39.5866767" lon="8.7411067"><ele>39.0</ele><time>2026-05-01T13:00:13.521Z</time></trkpt><trkpt lat="39.586615" lon="8.740975"><ele>39.25</ele><time>2026-05-01T13:00:14.546Z</time></trkpt><trkpt lat="39.5865517" lon="8.740845"><ele>39.5</ele><time>2026-05-01T13:00:15.526Z</time></trkpt><trkpt lat="39.586485" lon="8.74072"><ele>39.75</ele><time>2026-05-01T13:00:16.522Z</time></trkpt><trkpt lat="39.58642" lon="8.7405917"><ele>40.0</ele><time>2026-05-01T13:00:17.523Z</time></trkpt><trkpt lat="39.5863583" lon="8.740465"><ele>40.0</ele><time>2026-05-01T13:00:18.523Z</time></trkpt><trkpt lat="39.58629" lon="8.7403467"><ele>40.0</ele><time>2026-05-01T13:00:19.523Z</time></trkpt><trkpt lat="39.5862133" lon="8.74024"><ele>40.0</ele><time>2026-05-01T13:00:20.547Z</time></trkpt><trkpt lat="39.58613" lon="8.7401433"><ele>40.0</ele><time>2026-05-01T13:00:21.524Z</time></trkpt><trkpt lat="39.5860483" lon="8.74005"><ele>40.0</ele><time>2026-05-01T13:00:22.524Z</time></trkpt><trkpt lat="39.5859667" lon="8.739955"><ele>40.0</ele><time>2026-05-01T13:00:23.524Z</time></trkpt><trkpt lat="39.585885" lon="8.73986"><ele>40.0</ele><time>2026-05-01T13:00:24.523Z</time></trkpt><trkpt lat="39.58581" lon="8.7397633"><ele>40.0</ele><time>2026-05-01T13:00:25.522Z</time></trkpt><trkpt lat="39.585735" lon="8.7396533"><ele>40.0</ele><time>2026-05-01T13:00:26.587Z</time></trkpt><trkpt lat="39.5856667" lon="8.739535"><ele>40.0</ele><time>2026-05-01T13:00:27.526Z</time></trkpt><trkpt lat="39.5856017" lon="8.7394083"><ele>40.0</ele><time>2026-05-01T13:00:28.522Z</time></trkpt><trkpt lat="39.58554" lon="8.73928"><ele>40.0</ele><time>2026-05-01T13:00:29.527Z</time></trkpt><trkpt lat="39.5854767" lon="8.73915"><ele>40.0</ele><time>2026-05-01T13:00:30.522Z</time></trkpt><trkpt lat="39.58541" lon="8.7390183"><ele>40.0</ele><time>2026-05-01T13:00:31.522Z</time></trkpt><trkpt lat="39.5853467" lon="8.73889"><ele>40.0</ele><time>2026-05-01T13:00:32.564Z</time></trkpt><trkpt lat="39.58528" lon="8.73876"><ele>40.0</ele><time>2026-05-01T13:00:33.523Z</time></trkpt><trkpt lat="39.58521" lon="8.73863"><ele>40.0</ele><time>2026-05-01T13:00:34.523Z</time></trkpt><trkpt lat="39.5851367" lon="8.7384983"><ele>40.0</ele><time>2026-05-01T13:00:35.524Z</time></trkpt><trkpt lat="39.5850633" lon="8.7383733"><ele>40.25</ele><time>2026-05-01T13:00:36.525Z</time></trkpt><trkpt lat="39.5849933" lon="8.738255"><ele>40.5</ele><time>2026-05-01T13:00:37.523Z</time></trkpt><trkpt lat="39.5849267" lon="8.73814"><ele>40.75</ele><time>2026-05-01T13:00:38.548Z</time></trkpt><trkpt lat="39.584855" lon="8.73803"><ele>41.0</ele><time>2026-05-01T13:00:39.524Z</time></trkpt><trkpt lat="39.5847783" lon="8.7379217"><ele>41.0</ele><time>2026-05-01T13:00:40.524Z</time></trkpt><trkpt lat="39.5847017" lon="8.7378117"><ele>41.0</ele><time>2026-05-01T13:00:41.524Z</time></trkpt><trkpt lat="39.584625" lon="8.737695"><ele>41.0</ele><time>2026-05-01T13:00:42.525Z</time></trkpt><trkpt lat="39.58455" lon="8.737575"><ele>41.0</ele><time>2026-05-01T13:00:43.521Z</time></trkpt><trkpt lat="39.58447" lon="8.7374533"><ele>41.25</ele><time>2026-05-01T13:00:44.545Z</time></trkpt><trkpt lat="39.5843817" lon="8.7373383"><ele>41.5</ele><time>2026-05-01T13:00:45.523Z</time></trkpt><trkpt lat="39.5843083" lon="8.7372283"><ele>41.75</ele><time>2026-05-01T13:00:46.524Z</time></trkpt><trkpt lat="39.5842383" lon="8.7371183"><ele>42.0</ele><time>2026-05-01T13:00:47.523Z</time></trkpt><trkpt lat="39.58417" lon="8.7370117"><ele>42.0</ele><time>2026-05-01T13:00:48.524Z</time></trkpt><trkpt lat="39.5841033" lon="8.7369"><ele>42.0</ele><time>2026-05-01T13:00:49.522Z</time></trkpt><trkpt lat="39.5840333" lon="8.73679"><ele>42.0</ele><time>2026-05-01T13:00:50.552Z</time></trkpt><trkpt lat="39.5839667" lon="8.7366767"><ele>42.0</ele><time>2026-05-01T13:00:51.52Z</time></trkpt><trkpt lat="39.583895" lon="8.7365583"><ele>42.0</ele><time>2026-05-01T13:00:52.523Z</time></trkpt><trkpt lat="39.5838183" lon="8.73644"><ele>42.0</ele><time>2026-05-01T13:00:53.524Z</time></trkpt><trkpt lat="39.58374" lon="8.7363167"><ele>42.0</ele><time>2026-05-01T13:00:54.524Z</time></trkpt><trkpt lat="39.5836583" lon="8.736195"><ele>42.0</ele><time>2026-05-01T13:00:55.525Z</time></trkpt><trkpt lat="39.5835783" lon="8.7360783"><ele>42.0</ele><time>2026-05-01T13:00:56.543Z</time></trkpt><trkpt lat="39.5835033" lon="8.7359683"><ele>42.2</ele><time>2026-05-01T13:00:57.521Z</time></trkpt><trkpt lat="39.583435" lon="8.7358633"><ele>42.400000000000006</ele><time>2026-05-01T13:00:58.523Z</time></trkpt><trkpt lat="39.5833683" lon="8.73576"><ele>42.599999999999994</ele><time>2026-05-01T13:00:59.524Z</time></trkpt><trkpt lat="39.5833017" lon="8.7356517"><ele>42.8</ele><time>2026-05-01T13:01:00.526Z</time></trkpt><trkpt lat="39.583235" lon="8.735535"><ele>43.0</ele><time>2026-05-01T13:01:01.53Z</time></trkpt><trkpt lat="39.5831683" lon="8.7354117"><ele>43.0</ele><time>2026-05-01T13:01:02.566Z</time></trkpt><trkpt lat="39.5831017" lon="8.7352817"><ele>43.0</ele><time>2026-05-01T13:01:03.527Z</time></trkpt><trkpt lat="39.5830333" lon="8.7351467"><ele>43.0</ele><time>2026-05-01T13:01:04.522Z</time></trkpt><trkpt lat="39.5829633" lon="8.7350133"><ele>43.0</ele><time>2026-05-01T13:01:05.524Z</time></trkpt><trkpt lat="39.5828967" lon="8.734885"><ele>43.0</ele><time>2026-05-01T13:01:06.525Z</time></trkpt><trkpt lat="39.5828383" lon="8.7347533"><ele>43.0</ele><time>2026-05-01T13:01:07.522Z</time></trkpt><trkpt lat="39.5827883" lon="8.7346183"><ele>43.0</ele><time>2026-05-01T13:01:08.549Z</time></trkpt><trkpt lat="39.5827517" lon="8.7344767"><ele>43.0</ele><time>2026-05-01T13:01:09.523Z</time></trkpt><trkpt lat="39.582715" lon="8.73433"><ele>43.25</ele><time>2026-05-01T13:01:10.527Z</time></trkpt><trkpt lat="39.582675" lon="8.7341783"><ele>43.5</ele><time>2026-05-01T13:01:11.524Z</time></trkpt><trkpt lat="39.58264" lon="8.7340233"><ele>43.75</ele><time>2026-05-01T13:01:12.522Z</time></trkpt><trkpt lat="39.5826033" lon="8.7338567"><ele>44.0</ele><time>2026-05-01T13:01:13.521Z</time></trkpt><trkpt lat="39.582555" lon="8.73369"><ele>44.25</ele><time>2026-05-01T13:01:14.55Z</time></trkpt><trkpt lat="39.5825" lon="8.73352"><ele>44.5</ele><time>2026-05-01T13:01:15.527Z</time></trkpt><trkpt lat="39.5824417" lon="8.7333467"><ele>44.75</ele><time>2026-05-01T13:01:16.524Z</time></trkpt><trkpt lat="39.5823783" lon="8.7331733"><ele>45.0</ele><time>2026-05-01T13:01:17.522Z</time></trkpt><trkpt lat="39.58231" lon="8.7329983"><ele>45.0</ele><time>2026-05-01T13:01:18.524Z</time></trkpt><trkpt lat="39.5822417" lon="8.7328233"><ele>45.0</ele><time>2026-05-01T13:01:19.522Z</time></trkpt><trkpt lat="39.5821733" lon="8.73265"><ele>45.0</ele><time>2026-05-01T13:01:20.546Z</time></trkpt><trkpt lat="39.5821117" lon="8.732475"><ele>45.0</ele><time>2026-05-01T13:01:21.524Z</time></trkpt><trkpt lat="39.58205" lon="8.7323067"><ele>45.0</ele><time>2026-05-01T13:01:22.527Z</time></trkpt><trkpt lat="39.5819833" lon="8.7321433"><ele>45.0</ele><time>2026-05-01T13:01:23.52Z</time></trkpt><trkpt lat="39.5819083" lon="8.7319983"><ele>45.0</ele><time>2026-05-01T13:01:24.526Z</time></trkpt><trkpt lat="39.5818333" lon="8.73186"><ele>45.0</ele><time>2026-05-01T13:01:25.521Z</time></trkpt><trkpt lat="39.58176" lon="8.731735"><ele>45.166666666666664</ele><time>2026-05-01T13:01:26.581Z</time></trkpt><trkpt lat="39.5816917" lon="8.7316217"><ele>45.333333333333336</ele><time>2026-05-01T13:01:27.521Z</time></trkpt><trkpt lat="39.58163" lon="8.7315233"><ele>45.5</ele><time>2026-05-01T13:01:28.523Z</time></trkpt><trkpt lat="39.5815733" lon="8.7314417"><ele>45.66666666666667</ele><time>2026-05-01T13:01:29.523Z</time></trkpt><trkpt lat="39.5815267" lon="8.731375"><ele>45.833333333333336</ele><time>2026-05-01T13:01:30.523Z</time></trkpt><trkpt lat="39.5814933" lon="8.7312983"><ele>46.0</ele><time>2026-05-01T13:01:32.564Z</time></trkpt><trkpt lat="39.5815233" lon="8.7312067"><ele>46.0</ele><time>2026-05-01T13:01:34.523Z</time></trkpt><trkpt lat="39.5816383" lon="8.73109"><ele>46.0</ele><time>2026-05-01T13:01:36.524Z</time></trkpt><trkpt lat="39.5817283" lon="8.7310117"><ele>46.0</ele><time>2026-05-01T13:01:37.526Z</time></trkpt><trkpt lat="39.5818183" lon="8.73093"><ele>46.0</ele><time>2026-05-01T13:01:38.546Z</time></trkpt><trkpt lat="39.5819183" lon="8.7308417"><ele>45.75</ele><time>2026-05-01T13:01:39.522Z</time></trkpt><trkpt lat="39.5820133" lon="8.7307383"><ele>45.5</ele><time>2026-05-01T13:01:40.522Z</time></trkpt><trkpt lat="39.582115" lon="8.7306283"><ele>45.25</ele><time>2026-05-01T13:01:41.521Z</time></trkpt><trkpt lat="39.5822433" lon="8.7305017"><ele>45.0</ele><time>2026-05-01T13:01:42.523Z</time></trkpt><trkpt lat="39.58238" lon="8.7303767"><ele>44.666666666666664</ele><time>2026-05-01T13:01:43.526Z</time></trkpt><trkpt lat="39.5825233" lon="8.73024"><ele>44.33333333333333</ele><time>2026-05-01T13:01:44.545Z</time></trkpt><trkpt lat="39.58268" lon="8.7301117"><ele>44.0</ele><time>2026-05-01T13:01:45.522Z</time></trkpt><trkpt lat="39.5828517" lon="8.7299467"><ele>43.666666666666664</ele><time>2026-05-01T13:01:46.523Z</time></trkpt><trkpt lat="39.5830167" lon="8.729795"><ele>43.333333333333336</ele><time>2026-05-01T13:01:47.522Z</time></trkpt><trkpt lat="39.583185" lon="8.7296367"><ele>43.0</ele><time>2026-05-01T13:01:48.524Z</time></trkpt><trkpt lat="39.5833517" lon="8.7294717"><ele>43.0</ele><time>2026-05-01T13:01:49.521Z</time></trkpt><trkpt lat="39.5835183" lon="8.7293133"><ele>43.0</ele><time>2026-05-01T13:01:50.545Z</time></trkpt><trkpt lat="39.58368" lon="8.72916"><ele>43.0</ele><time>2026-05-01T13:01:51.522Z</time></trkpt><trkpt lat="39.5838383" lon="8.7290017"><ele>43.0</ele><time>2026-05-01T13:01:52.52Z</time></trkpt><trkpt lat="39.5839867" lon="8.7288533"><ele>43.0</ele><time>2026-05-01T13:01:53.531Z</time></trkpt><trkpt lat="39.5841317" lon="8.7287133"><ele>43.0</ele><time>2026-05-01T13:01:54.523Z</time></trkpt><trkpt lat="39.584275" lon="8.7285733"><ele>43.333333333333336</ele><time>2026-05-01T13:01:55.523Z</time></trkpt><trkpt lat="39.5844133" lon="8.72844"><ele>43.666666666666664</ele><time>2026-05-01T13:01:56.585Z</time></trkpt><trkpt lat="39.5845517" lon="8.7283133"><ele>44.0</ele><time>2026-05-01T13:01:57.523Z</time></trkpt><trkpt lat="39.5846883" lon="8.7281867"><ele>44.25</ele><time>2026-05-01T13:01:58.524Z</time></trkpt><trkpt lat="39.5848117" lon="8.7280667"><ele>44.5</ele><time>2026-05-01T13:01:59.522Z</time></trkpt><trkpt lat="39.5849283" lon="8.7279533"><ele>44.75</ele><time>2026-05-01T13:02:00.524Z</time></trkpt><trkpt lat="39.58504" lon="8.7278433"><ele>45.0</ele><time>2026-05-01T13:02:01.522Z</time></trkpt><trkpt lat="39.585145" lon="8.7277383"><ele>45.0</ele><time>2026-05-01T13:02:02.545Z</time></trkpt><trkpt lat="39.5852467" lon="8.7276367"><ele>45.0</ele><time>2026-05-01T13:02:03.523Z</time></trkpt><trkpt lat="39.5853467" lon="8.7275367"><ele>45.0</ele><time>2026-05-01T13:02:04.521Z</time></trkpt><trkpt lat="39.585445" lon="8.727445"><ele>45.0</ele><time>2026-05-01T13:02:05.519Z</time></trkpt><trkpt lat="39.5855367" lon="8.7273567"><ele>44.6</ele><time>2026-05-01T13:02:06.523Z</time></trkpt><trkpt lat="39.5856283" lon="8.7272683"><ele>44.2</ele><time>2026-05-01T13:02:07.523Z</time></trkpt><trkpt lat="39.5857133" lon="8.7271833"><ele>43.8</ele><time>2026-05-01T13:02:08.551Z</time></trkpt><trkpt lat="39.58579" lon="8.7271067"><ele>43.4</ele><time>2026-05-01T13:02:09.525Z</time></trkpt><trkpt lat="39.58585" lon="8.72703"><ele>43.0</ele><time>2026-05-01T13:02:10.522Z</time></trkpt><trkpt lat="39.5859" lon="8.7269467"><ele>43.2</ele><time>2026-05-01T13:02:11.522Z</time></trkpt><trkpt lat="39.5859367" lon="8.7268483"><ele>43.4</ele><time>2026-05-01T13:02:12.523Z</time></trkpt><trkpt lat="39.5859667" lon="8.7267383"><ele>43.6</ele><time>2026-05-01T13:02:13.525Z</time></trkpt><trkpt lat="39.5860033" lon="8.7266183"><ele>43.800000000000004</ele><time>2026-05-01T13:02:14.548Z</time></trkpt><trkpt lat="39.5860467" lon="8.72649"><ele>44.0</ele><time>2026-05-01T13:02:15.521Z</time></trkpt><trkpt lat="39.586105" lon="8.72636"><ele>44.0</ele><time>2026-05-01T13:02:16.521Z</time></trkpt><trkpt lat="39.5861783" lon="8.726225"><ele>44.0</ele><time>2026-05-01T13:02:17.524Z</time></trkpt><trkpt lat="39.58626" lon="8.7260817"><ele>44.0</ele><time>2026-05-01T13:02:18.526Z</time></trkpt><trkpt lat="39.586345" lon="8.72593"><ele>44.0</ele><time>2026-05-01T13:02:19.523Z</time></trkpt><trkpt lat="39.5864317" lon="8.7257717"><ele>45.0</ele><time>2026-05-01T13:02:20.549Z</time></trkpt><trkpt lat="39.5865217" lon="8.7256117"><ele>46.0</ele><time>2026-05-01T13:02:21.525Z</time></trkpt><trkpt lat="39.586615" lon="8.7254467"><ele>47.0</ele><time>2026-05-01T13:02:22.524Z</time></trkpt><trkpt lat="39.58671" lon="8.7252817"><ele>47.0</ele><time>2026-05-01T13:02:23.521Z</time></trkpt><trkpt lat="39.5868017" lon="8.7251217"><ele>47.0</ele><time>2026-05-01T13:02:24.522Z</time></trkpt><trkpt lat="39.5868867" lon="8.724975"><ele>47.0</ele><time>2026-05-01T13:02:25.527Z</time></trkpt><trkpt lat="39.5869633" lon="8.7248367"><ele>47.0</ele><time>2026-05-01T13:02:26.581Z</time></trkpt><trkpt lat="39.5870317" lon="8.72471"><ele>47.0</ele><time>2026-05-01T13:02:27.522Z</time></trkpt><trkpt lat="39.5870983" lon="8.724595"><ele>47.0</ele><time>2026-05-01T13:02:28.526Z</time></trkpt><trkpt lat="39.5871583" lon="8.72449"><ele>47.0</ele><time>2026-05-01T13:02:29.524Z</time></trkpt><trkpt lat="39.5872117" lon="8.724395"><ele>47.0</ele><time>2026-05-01T13:02:30.522Z</time></trkpt><trkpt lat="39.58726" lon="8.7243067"><ele>47.0</ele><time>2026-05-01T13:02:31.522Z</time></trkpt><trkpt lat="39.5873033" lon="8.72423"><ele>47.2</ele><time>2026-05-01T13:02:32.567Z</time></trkpt><trkpt lat="39.58737" lon="8.7241083"><ele>47.400000000000006</ele><time>2026-05-01T13:02:34.523Z</time></trkpt><trkpt lat="39.5873917" lon="8.7240017"><ele>47.599999999999994</ele><time>2026-05-01T13:02:36.527Z</time></trkpt><trkpt lat="39.587395" lon="8.7239"><ele>47.8</ele><time>2026-05-01T13:02:38.545Z</time></trkpt><trkpt lat="39.5873567" lon="8.72381"><ele>48.0</ele><time>2026-05-01T13:02:40.518Z</time></trkpt><trkpt lat="39.587275" lon="8.72373"><ele>47.99999999999999</ele><time>2026-05-01T13:02:42.522Z</time></trkpt><trkpt lat="39.5872217" lon="8.7236833"><ele>48.0</ele><time>2026-05-01T13:02:43.526Z</time></trkpt><trkpt lat="39.58716" lon="8.7236367"><ele>48.0</ele><time>2026-05-01T13:02:44.546Z</time></trkpt><trkpt lat="39.5870967" lon="8.7235883"><ele>48.0</ele><time>2026-05-01T13:02:45.524Z</time></trkpt><trkpt lat="39.5870367" lon="8.7235433"><ele>48.0</ele><time>2026-05-01T13:02:46.523Z</time></trkpt><trkpt lat="39.5869783" lon="8.723495"><ele>47.99999999999999</ele><time>2026-05-01T13:02:47.524Z</time></trkpt><trkpt lat="39.586925" lon="8.7234467"><ele>48.0</ele><time>2026-05-01T13:02:48.525Z</time></trkpt><trkpt lat="39.5868717" lon="8.7234"><ele>48.8</ele><time>2026-05-01T13:02:49.521Z</time></trkpt><trkpt lat="39.5867767" lon="8.7233083"><ele>49.599999999999994</ele><time>2026-05-01T13:02:51.523Z</time></trkpt><trkpt lat="39.5867033" lon="8.7232317"><ele>50.400000000000006</ele><time>2026-05-01T13:02:53.526Z</time></trkpt><trkpt lat="39.5866417" lon="8.7231717"><ele>51.2</ele><time>2026-05-01T13:02:56.584Z</time></trkpt><trkpt lat="39.586715" lon="8.7232417"><ele>52.0</ele><time>2026-05-01T13:03:59.521Z</time></trkpt><trkpt lat="39.58678" lon="8.723335"><ele>51.99999999999999</ele><time>2026-05-01T13:04:01.522Z</time></trkpt><trkpt lat="39.586865" lon="8.7234367"><ele>52.0</ele><time>2026-05-01T13:04:03.523Z</time></trkpt><trkpt lat="39.58696" lon="8.7235367"><ele>52.0</ele><time>2026-05-01T13:04:05.524Z</time></trkpt><trkpt lat="39.5870117" lon="8.7235933"><ele>52.0</ele><time>2026-05-01T13:04:06.524Z</time></trkpt><trkpt lat="39.5870683" lon="8.72365"><ele>51.99999999999999</ele><time>2026-05-01T13:04:07.522Z</time></trkpt><trkpt lat="39.5871233" lon="8.7237033"><ele>52.0</ele><time>2026-05-01T13:04:08.547Z</time></trkpt><trkpt lat="39.5871783" lon="8.7237583"><ele>51.33333333333333</ele><time>2026-05-01T13:04:09.523Z</time></trkpt><trkpt lat="39.58723" lon="8.7238133"><ele>50.666666666666664</ele><time>2026-05-01T13:04:10.525Z</time></trkpt><trkpt lat="39.5872967" lon="8.7239283"><ele>50.0</ele><time>2026-05-01T13:04:12.523Z</time></trkpt><trkpt lat="39.58733" lon="8.7240433"><ele>49.33333333333333</ele><time>2026-05-01T13:04:14.548Z</time></trkpt><trkpt lat="39.58735" lon="8.7241467"><ele>48.666666666666664</ele><time>2026-05-01T13:04:16.524Z</time></trkpt><trkpt lat="39.5874233" lon="8.7241983"><ele>48.0</ele><time>2026-05-01T13:04:19.524Z</time></trkpt><trkpt lat="39.5874617" lon="8.7241333"><ele>48.0</ele><time>2026-05-01T13:04:22.522Z</time></trkpt><trkpt lat="39.5874417" lon="8.72403"><ele>48.0</ele><time>2026-05-01T13:04:24.524Z</time></trkpt><trkpt lat="39.587405" lon="8.72389"><ele>48.0</ele><time>2026-05-01T13:04:26.583Z</time></trkpt><trkpt lat="39.5873283" lon="8.7237617"><ele>48.0</ele><time>2026-05-01T13:04:28.521Z</time></trkpt><trkpt lat="39.5872767" lon="8.7236983"><ele>48.0</ele><time>2026-05-01T13:04:29.524Z</time></trkpt><trkpt lat="39.5872117" lon="8.72364"><ele>48.0</ele><time>2026-05-01T13:04:30.525Z</time></trkpt><trkpt lat="39.5871417" lon="8.723575"><ele>48.0</ele><time>2026-05-01T13:04:31.522Z</time></trkpt><trkpt lat="39.5870733" lon="8.723505"><ele>48.0</ele><time>2026-05-01T13:04:32.522Z</time></trkpt><trkpt lat="39.587" lon="8.7234367"><ele>48.0</ele><time>2026-05-01T13:04:33.523Z</time></trkpt><trkpt lat="39.5869267" lon="8.7233617"><ele>48.0</ele><time>2026-05-01T13:04:34.522Z</time></trkpt><trkpt lat="39.586855" lon="8.7232733"><ele>48.8</ele><time>2026-05-01T13:04:35.521Z</time></trkpt><trkpt lat="39.586785" lon="8.72318"><ele>49.599999999999994</ele><time>2026-05-01T13:04:36.522Z</time></trkpt><trkpt lat="39.5867217" lon="8.7230767"><ele>50.400000000000006</ele><time>2026-05-01T13:04:37.523Z</time></trkpt><trkpt lat="39.58666" lon="8.72297"><ele>51.2</ele><time>2026-05-01T13:04:38.548Z</time></trkpt><trkpt lat="39.5866017" lon="8.7228617"><ele>52.0</ele><time>2026-05-01T13:04:39.522Z</time></trkpt><trkpt lat="39.5865483" lon="8.7227517"><ele>51.166666666666664</ele><time>2026-05-01T13:04:40.527Z</time></trkpt><trkpt lat="39.5865" lon="8.722645"><ele>50.33333333333333</ele><time>2026-05-01T13:04:41.525Z</time></trkpt><trkpt lat="39.5864533" lon="8.72254"><ele>49.5</ele><time>2026-05-01T13:04:42.525Z</time></trkpt><trkpt lat="39.5864067" lon="8.72244"><ele>48.666666666666664</ele><time>2026-05-01T13:04:43.525Z</time></trkpt><trkpt lat="39.5863667" lon="8.72235"><ele>47.83333333333333</ele><time>2026-05-01T13:04:44.548Z</time></trkpt><trkpt lat="39.5863367" lon="8.72226"><ele>47.0</ele><time>2026-05-01T13:04:45.526Z</time></trkpt><trkpt lat="39.5863133" lon="8.722175"><ele>47.0</ele><time>2026-05-01T13:04:46.54Z</time></trkpt><trkpt lat="39.5862983" lon="8.7220867"><ele>47.0</ele><time>2026-05-01T13:04:47.543Z</time></trkpt><trkpt lat="39.5862833" lon="8.7219967"><ele>47.0</ele><time>2026-05-01T13:04:48.524Z</time></trkpt><trkpt lat="39.5862717" lon="8.7219017"><ele>47.0</ele><time>2026-05-01T13:04:49.526Z</time></trkpt><trkpt lat="39.5862683" lon="8.7217983"><ele>47.0</ele><time>2026-05-01T13:04:50.548Z</time></trkpt><trkpt lat="39.5862667" lon="8.7216933"><ele>47.0</ele><time>2026-05-01T13:04:51.523Z</time></trkpt><trkpt lat="39.586265" lon="8.7215817"><ele>46.8</ele><time>2026-05-01T13:04:52.524Z</time></trkpt><trkpt lat="39.5862617" lon="8.72145"><ele>46.6</ele><time>2026-05-01T13:04:53.526Z</time></trkpt><trkpt lat="39.5862683" lon="8.72132"><ele>46.4</ele><time>2026-05-01T13:04:54.525Z</time></trkpt><trkpt lat="39.5862767" lon="8.7212033"><ele>46.199999999999996</ele><time>2026-05-01T13:04:55.538Z</time></trkpt><trkpt lat="39.5862883" lon="8.7210933"><ele>46.0</ele><time>2026-05-01T13:04:56.582Z</time></trkpt><trkpt lat="39.586305" lon="8.7209883"><ele>46.0</ele><time>2026-05-01T13:04:57.522Z</time></trkpt><trkpt lat="39.5863233" lon="8.7208817"><ele>46.0</ele><time>2026-05-01T13:04:58.523Z</time></trkpt><trkpt lat="39.58635" lon="8.7207683"><ele>46.0</ele><time>2026-05-01T13:04:59.526Z</time></trkpt><trkpt lat="39.58638" lon="8.7206533"><ele>46.0</ele><time>2026-05-01T13:05:00.525Z</time></trkpt><trkpt lat="39.586415" lon="8.720535"><ele>46.0</ele><time>2026-05-01T13:05:01.523Z</time></trkpt><trkpt lat="39.58645" lon="8.7204133"><ele>46.0</ele><time>2026-05-01T13:05:02.548Z</time></trkpt><trkpt lat="39.586485" lon="8.720295"><ele>46.0</ele><time>2026-05-01T13:05:03.52Z</time></trkpt><trkpt lat="39.5865217" lon="8.7201833"><ele>46.0</ele><time>2026-05-01T13:05:04.524Z</time></trkpt><trkpt lat="39.586555" lon="8.7200783"><ele>46.0</ele><time>2026-05-01T13:05:05.522Z</time></trkpt><trkpt lat="39.58659" lon="8.7199833"><ele>46.0</ele><time>2026-05-01T13:05:06.522Z</time></trkpt><trkpt lat="39.58663" lon="8.7198967"><ele>46.0</ele><time>2026-05-01T13:05:07.526Z</time></trkpt><trkpt lat="39.5866683" lon="8.71982"><ele>46.199999999999996</ele><time>2026-05-01T13:05:08.546Z</time></trkpt><trkpt lat="39.586715" lon="8.7197517"><ele>46.4</ele><time>2026-05-01T13:05:09.521Z</time></trkpt><trkpt lat="39.5867783" lon="8.7196867"><ele>46.6</ele><time>2026-05-01T13:05:10.521Z</time></trkpt><trkpt lat="39.5868617" lon="8.7196033"><ele>46.8</ele><time>2026-05-01T13:05:11.523Z</time></trkpt><trkpt lat="39.586955" lon="8.7195267"><ele>47.0</ele><time>2026-05-01T13:05:12.525Z</time></trkpt><trkpt lat="39.58706" lon="8.71945"><ele>47.25</ele><time>2026-05-01T13:05:13.524Z</time></trkpt><trkpt lat="39.5871733" lon="8.7193683"><ele>47.5</ele><time>2026-05-01T13:05:14.547Z</time></trkpt><trkpt lat="39.5872983" lon="8.71928"><ele>47.75</ele><time>2026-05-01T13:05:15.524Z</time></trkpt><trkpt lat="39.5874267" lon="8.7191933"><ele>48.0</ele><time>2026-05-01T13:05:16.522Z</time></trkpt><trkpt lat="39.5875467" lon="8.7191067"><ele>48.0</ele><time>2026-05-01T13:05:17.525Z</time></trkpt><trkpt lat="39.58766" lon="8.7190317"><ele>48.0</ele><time>2026-05-01T13:05:18.525Z</time></trkpt><trkpt lat="39.5877667" lon="8.7189583"><ele>48.0</ele><time>2026-05-01T13:05:19.525Z</time></trkpt><trkpt lat="39.587865" lon="8.7188933"><ele>48.0</ele><time>2026-05-01T13:05:20.547Z</time></trkpt><trkpt lat="39.5879517" lon="8.7188367"><ele>48.0</ele><time>2026-05-01T13:05:21.523Z</time></trkpt><trkpt lat="39.5880367" lon="8.7187867"><ele>48.0</ele><time>2026-05-01T13:05:22.526Z</time></trkpt><trkpt lat="39.58817" lon="8.7187033"><ele>48.0</ele><time>2026-05-01T13:05:24.523Z</time></trkpt><trkpt lat="39.588245" lon="8.7186267"><ele>48.0</ele><time>2026-05-01T13:05:26.584Z</time></trkpt><trkpt lat="39.5882667" lon="8.7185017"><ele>48.0</ele><time>2026-05-01T13:05:28.523Z</time></trkpt><trkpt lat="39.5882533" lon="8.7184083"><ele>48.0</ele><time>2026-05-01T13:05:29.524Z</time></trkpt><trkpt lat="39.5882233" lon="8.7182933"><ele>48.0</ele><time>2026-05-01T13:05:30.523Z</time></trkpt><trkpt lat="39.58817" lon="8.7181467"><ele>48.0</ele><time>2026-05-01T13:05:31.524Z</time></trkpt><trkpt lat="39.5881117" lon="8.717975"><ele>48.0</ele><time>2026-05-01T13:05:32.547Z</time></trkpt><trkpt lat="39.5880483" lon="8.7177833"><ele>48.33333333333333</ele><time>2026-05-01T13:05:33.524Z</time></trkpt><trkpt lat="39.587985" lon="8.717585"><ele>48.666666666666664</ele><time>2026-05-01T13:05:34.523Z</time></trkpt><trkpt lat="39.5879183" lon="8.7174"><ele>49.0</ele><time>2026-05-01T13:05:35.525Z</time></trkpt><trkpt lat="39.5878583" lon="8.7172283"><ele>48.800000000000004</ele><time>2026-05-01T13:05:36.523Z</time></trkpt><trkpt lat="39.587805" lon="8.71707"><ele>48.6</ele><time>2026-05-01T13:05:37.521Z</time></trkpt><trkpt lat="39.58776" lon="8.7169267"><ele>48.4</ele><time>2026-05-01T13:05:38.546Z</time></trkpt><trkpt lat="39.58772" lon="8.716805"><ele>48.2</ele><time>2026-05-01T13:05:39.524Z</time></trkpt><trkpt lat="39.587685" lon="8.7166967"><ele>48.0</ele><time>2026-05-01T13:05:40.521Z</time></trkpt><trkpt lat="39.5876483" lon="8.7166133"><ele>47.599999999999994</ele><time>2026-05-01T13:05:41.527Z</time></trkpt><trkpt lat="39.587585" lon="8.7165133"><ele>47.199999999999996</ele><time>2026-05-01T13:05:43.523Z</time></trkpt><trkpt lat="39.5874933" lon="8.7164383"><ele>46.8</ele><time>2026-05-01T13:05:45.524Z</time></trkpt><trkpt lat="39.587415" lon="8.7164217"><ele>46.4</ele><time>2026-05-01T13:05:46.521Z</time></trkpt><trkpt lat="39.5873267" lon="8.71641"><ele>46.0</ele><time>2026-05-01T13:05:47.52Z</time></trkpt><trkpt lat="39.5872383" lon="8.71639"><ele>46.0</ele><time>2026-05-01T13:05:48.523Z</time></trkpt><trkpt lat="39.587155" lon="8.7163717"><ele>46.0</ele><time>2026-05-01T13:05:49.522Z</time></trkpt><trkpt lat="39.5870833" lon="8.716345"><ele>46.0</ele><time>2026-05-01T13:05:50.548Z</time></trkpt><trkpt lat="39.5870183" lon="8.7163033"><ele>46.0</ele><time>2026-05-01T13:05:51.523Z</time></trkpt><trkpt lat="39.5869633" lon="8.7162433"><ele>46.0</ele><time>2026-05-01T13:05:52.523Z</time></trkpt><trkpt lat="39.5869217" lon="8.71616"><ele>46.0</ele><time>2026-05-01T13:05:53.521Z</time></trkpt><trkpt lat="39.58688" lon="8.7160667"><ele>46.199999999999996</ele><time>2026-05-01T13:05:54.526Z</time></trkpt><trkpt lat="39.5868483" lon="8.7159567"><ele>46.4</ele><time>2026-05-01T13:05:55.525Z</time></trkpt><trkpt lat="39.5868183" lon="8.7158417"><ele>46.6</ele><time>2026-05-01T13:05:56.582Z</time></trkpt><trkpt lat="39.5867917" lon="8.7157283"><ele>46.8</ele><time>2026-05-01T13:05:57.522Z</time></trkpt><trkpt lat="39.5867633" lon="8.715615"><ele>47.0</ele><time>2026-05-01T13:05:58.523Z</time></trkpt><trkpt lat="39.586725" lon="8.7155067"><ele>47.0</ele><time>2026-05-01T13:05:59.523Z</time></trkpt><trkpt lat="39.58667" lon="8.7154"><ele>47.0</ele><time>2026-05-01T13:06:00.524Z</time></trkpt><trkpt lat="39.5866067" lon="8.7152967"><ele>47.0</ele><time>2026-05-01T13:06:01.522Z</time></trkpt><trkpt lat="39.5865333" lon="8.7151933"><ele>47.0</ele><time>2026-05-01T13:06:02.548Z</time></trkpt><trkpt lat="39.5864567" lon="8.715095"><ele>47.0</ele><time>2026-05-01T13:06:03.522Z</time></trkpt><trkpt lat="39.5863833" lon="8.7149867"><ele>46.6</ele><time>2026-05-01T13:06:04.521Z</time></trkpt><trkpt lat="39.5863117" lon="8.714875"><ele>46.2</ele><time>2026-05-01T13:06:05.524Z</time></trkpt><trkpt lat="39.58624" lon="8.7147717"><ele>45.8</ele><time>2026-05-01T13:06:06.521Z</time></trkpt><trkpt lat="39.5861733" lon="8.7146733"><ele>45.4</ele><time>2026-05-01T13:06:07.523Z</time></trkpt><trkpt lat="39.5861083" lon="8.7145833"><ele>45.0</ele><time>2026-05-01T13:06:08.546Z</time></trkpt><trkpt lat="39.58604" lon="8.7145033"><ele>45.4</ele><time>2026-05-01T13:06:09.522Z</time></trkpt><trkpt lat="39.5859667" lon="8.7144283"><ele>45.8</ele><time>2026-05-01T13:06:10.524Z</time></trkpt><trkpt lat="39.585885" lon="8.71436"><ele>46.2</ele><time>2026-05-01T13:06:11.526Z</time></trkpt><trkpt lat="39.585795" lon="8.7142967"><ele>46.6</ele><time>2026-05-01T13:06:12.521Z</time></trkpt><trkpt lat="39.585705" lon="8.714235"><ele>47.0</ele><time>2026-05-01T13:06:13.521Z</time></trkpt><trkpt lat="39.58561" lon="8.7141783"><ele>47.0</ele><time>2026-05-01T13:06:14.546Z</time></trkpt><trkpt lat="39.5855183" lon="8.7141267"><ele>47.0</ele><time>2026-05-01T13:06:15.519Z</time></trkpt><trkpt lat="39.5854317" lon="8.7140783"><ele>47.0</ele><time>2026-05-01T13:06:16.521Z</time></trkpt><trkpt lat="39.5853567" lon="8.7140333"><ele>47.0</ele><time>2026-05-01T13:06:17.522Z</time></trkpt><trkpt lat="39.58528" lon="8.7139917"><ele>47.0</ele><time>2026-05-01T13:06:18.522Z</time></trkpt><trkpt lat="39.5852117" lon="8.713955"><ele>47.0</ele><time>2026-05-01T13:06:19.523Z</time></trkpt><trkpt lat="39.5851467" lon="8.71391"><ele>47.166666666666664</ele><time>2026-05-01T13:06:20.545Z</time></trkpt><trkpt lat="39.5850817" lon="8.71385"><ele>47.33333333333333</ele><time>2026-05-01T13:06:21.522Z</time></trkpt><trkpt lat="39.58502" lon="8.7137867"><ele>47.5</ele><time>2026-05-01T13:06:22.522Z</time></trkpt><trkpt lat="39.5849633" lon="8.71372"><ele>47.666666666666664</ele><time>2026-05-01T13:06:23.523Z</time></trkpt><trkpt lat="39.5849133" lon="8.713655"><ele>47.833333333333336</ele><time>2026-05-01T13:06:24.523Z</time></trkpt><trkpt lat="39.5848533" lon="8.7135883"><ele>48.0</ele><time>2026-05-01T13:06:25.524Z</time></trkpt><trkpt lat="39.5847917" lon="8.713515"><ele>48.166666666666664</ele><time>2026-05-01T13:06:26.581Z</time></trkpt><trkpt lat="39.5847283" lon="8.7134383"><ele>48.33333333333333</ele><time>2026-05-01T13:06:27.522Z</time></trkpt><trkpt lat="39.5846617" lon="8.7133617"><ele>48.5</ele><time>2026-05-01T13:06:28.521Z</time></trkpt><trkpt lat="39.5845967" lon="8.713285"><ele>48.666666666666664</ele><time>2026-05-01T13:06:29.522Z</time></trkpt><trkpt lat="39.5845333" lon="8.7132083"><ele>48.83333333333333</ele><time>2026-05-01T13:06:30.522Z</time></trkpt><trkpt lat="39.5844817" lon="8.7131283"><ele>49.0</ele><time>2026-05-01T13:06:31.521Z</time></trkpt><trkpt lat="39.5844383" lon="8.713045"><ele>48.83333333333333</ele><time>2026-05-01T13:06:32.544Z</time></trkpt><trkpt lat="39.5844083" lon="8.7129567"><ele>48.666666666666664</ele><time>2026-05-01T13:06:33.524Z</time></trkpt><trkpt lat="39.58439" lon="8.7128667"><ele>48.5</ele><time>2026-05-01T13:06:34.522Z</time></trkpt><trkpt lat="39.5843883" lon="8.71277"><ele>48.33333333333333</ele><time>2026-05-01T13:06:35.522Z</time></trkpt><trkpt lat="39.58439" lon="8.7126667"><ele>48.166666666666664</ele><time>2026-05-01T13:06:36.521Z</time></trkpt><trkpt lat="39.5843917" lon="8.7125483"><ele>48.0</ele><time>2026-05-01T13:06:37.526Z</time></trkpt><trkpt lat="39.5843883" lon="8.7124267"><ele>48.0</ele><time>2026-05-01T13:06:38.545Z</time></trkpt><trkpt lat="39.5843817" lon="8.7122983"><ele>48.0</ele><time>2026-05-01T13:06:39.521Z</time></trkpt><trkpt lat="39.584385" lon="8.7121683"><ele>48.0</ele><time>2026-05-01T13:06:40.522Z</time></trkpt><trkpt lat="39.5843933" lon="8.71203"><ele>48.0</ele><time>2026-05-01T13:06:41.522Z</time></trkpt><trkpt lat="39.5844033" lon="8.7118917"><ele>48.0</ele><time>2026-05-01T13:06:42.52Z</time></trkpt><trkpt lat="39.5844167" lon="8.711755"><ele>48.2</ele><time>2026-05-01T13:06:43.522Z</time></trkpt><trkpt lat="39.5844283" lon="8.7116217"><ele>48.4</ele><time>2026-05-01T13:06:44.546Z</time></trkpt><trkpt lat="39.5844333" lon="8.7114983"><ele>48.6</ele><time>2026-05-01T13:06:45.522Z</time></trkpt><trkpt lat="39.5844283" lon="8.7113817"><ele>48.800000000000004</ele><time>2026-05-01T13:06:46.521Z</time></trkpt><trkpt lat="39.5844117" lon="8.711275"><ele>49.0</ele><time>2026-05-01T13:06:47.522Z</time></trkpt><trkpt lat="39.5843817" lon="8.7111767"><ele>49.0</ele><time>2026-05-01T13:06:48.522Z</time></trkpt><trkpt lat="39.58434" lon="8.7110883"><ele>49.0</ele><time>2026-05-01T13:06:49.52Z</time></trkpt><trkpt lat="39.5842783" lon="8.7110067"><ele>49.0</ele><time>2026-05-01T13:06:50.547Z</time></trkpt><trkpt lat="39.5842033" lon="8.71093"><ele>49.0</ele><time>2026-05-01T13:06:51.522Z</time></trkpt><trkpt lat="39.5841333" lon="8.7108483"><ele>49.0</ele><time>2026-05-01T13:06:52.522Z</time></trkpt><trkpt lat="39.584065" lon="8.7107583"><ele>49.400000000000006</ele><time>2026-05-01T13:06:53.522Z</time></trkpt><trkpt lat="39.58401" lon="8.710655"><ele>49.8</ele><time>2026-05-01T13:06:54.523Z</time></trkpt><trkpt lat="39.5839617" lon="8.7105383"><ele>50.2</ele><time>2026-05-01T13:06:55.522Z</time></trkpt><trkpt lat="39.5839233" lon="8.71041"><ele>50.599999999999994</ele><time>2026-05-01T13:06:56.582Z</time></trkpt><trkpt lat="39.5838933" lon="8.7102767"><ele>51.0</ele><time>2026-05-01T13:06:57.523Z</time></trkpt><trkpt lat="39.5838733" lon="8.7101333"><ele>51.0</ele><time>2026-05-01T13:06:58.521Z</time></trkpt><trkpt lat="39.5838583" lon="8.71002"><ele>51.0</ele><time>2026-05-01T13:06:59.521Z</time></trkpt><trkpt lat="39.583845" lon="8.7099267"><ele>51.0</ele><time>2026-05-01T13:07:00.524Z</time></trkpt><trkpt lat="39.5838167" lon="8.7098133"><ele>51.0</ele><time>2026-05-01T13:07:02.523Z</time></trkpt><trkpt lat="39.5837583" lon="8.7098683"><ele>51.0</ele><time>2026-05-01T13:07:12.524Z</time></trkpt><trkpt lat="39.5836367" lon="8.7097667"><ele>50.833333333333336</ele><time>2026-05-01T13:07:15.525Z</time></trkpt><trkpt lat="39.583585" lon="8.709705"><ele>50.66666666666667</ele><time>2026-05-01T13:07:16.522Z</time></trkpt><trkpt lat="39.583535" lon="8.709635"><ele>50.5</ele><time>2026-05-01T13:07:17.521Z</time></trkpt><trkpt lat="39.5834867" lon="8.7095583"><ele>50.333333333333336</ele><time>2026-05-01T13:07:18.521Z</time></trkpt><trkpt lat="39.5834317" lon="8.7094783"><ele>50.16666666666667</ele><time>2026-05-01T13:07:19.521Z</time></trkpt><trkpt lat="39.5833733" lon="8.7094033"><ele>50.0</ele><time>2026-05-01T13:07:20.547Z</time></trkpt><trkpt lat="39.5833067" lon="8.709315"><ele>50.6</ele><time>2026-05-01T13:07:21.52Z</time></trkpt><trkpt lat="39.58324" lon="8.7092267"><ele>51.2</ele><time>2026-05-01T13:07:22.519Z</time></trkpt><trkpt lat="39.5831633" lon="8.7091467"><ele>51.8</ele><time>2026-05-01T13:07:23.524Z</time></trkpt><trkpt lat="39.5830783" lon="8.709065"><ele>52.4</ele><time>2026-05-01T13:07:24.524Z</time></trkpt><trkpt lat="39.5829883" lon="8.708985"><ele>53.0</ele><time>2026-05-01T13:07:25.522Z</time></trkpt><trkpt lat="39.5829033" lon="8.7089067"><ele>53.2</ele><time>2026-05-01T13:07:26.579Z</time></trkpt><trkpt lat="39.58282" lon="8.7088267"><ele>53.4</ele><time>2026-05-01T13:07:27.521Z</time></trkpt><trkpt lat="39.5827383" lon="8.7087467"><ele>53.60000000000001</ele><time>2026-05-01T13:07:28.52Z</time></trkpt><trkpt lat="39.5826567" lon="8.708665"><ele>53.800000000000004</ele><time>2026-05-01T13:07:29.523Z</time></trkpt><trkpt lat="39.5825717" lon="8.70858"><ele>54.0</ele><time>2026-05-01T13:07:30.525Z</time></trkpt><trkpt lat="39.5825" lon="8.70848"><ele>54.400000000000006</ele><time>2026-05-01T13:07:31.523Z</time></trkpt><trkpt lat="39.5824333" lon="8.7083783"><ele>54.800000000000004</ele><time>2026-05-01T13:07:32.565Z</time></trkpt><trkpt lat="39.5823667" lon="8.70828"><ele>55.199999999999996</ele><time>2026-05-01T13:07:33.522Z</time></trkpt><trkpt lat="39.5823017" lon="8.7081833"><ele>55.599999999999994</ele><time>2026-05-01T13:07:34.517Z</time></trkpt><trkpt lat="39.5822333" lon="8.7080933"><ele>56.0</ele><time>2026-05-01T13:07:35.524Z</time></trkpt><trkpt lat="39.58216" lon="8.70801"><ele>56.0</ele><time>2026-05-01T13:07:36.522Z</time></trkpt><trkpt lat="39.5820767" lon="8.707925"><ele>55.99999999999999</ele><time>2026-05-01T13:07:37.52Z</time></trkpt><trkpt lat="39.5819817" lon="8.707855"><ele>55.99999999999999</ele><time>2026-05-01T13:07:38.545Z</time></trkpt><trkpt lat="39.5818867" lon="8.7077933"><ele>56.0</ele><time>2026-05-01T13:07:39.519Z</time></trkpt><trkpt lat="39.581785" lon="8.707745"><ele>56.0</ele><time>2026-05-01T13:07:40.521Z</time></trkpt><trkpt lat="39.5816767" lon="8.7076983"><ele>56.199999999999996</ele><time>2026-05-01T13:07:41.521Z</time></trkpt><trkpt lat="39.5815683" lon="8.7076467"><ele>56.39999999999999</ele><time>2026-05-01T13:07:42.519Z</time></trkpt><trkpt lat="39.5814683" lon="8.707585"><ele>56.6</ele><time>2026-05-01T13:07:43.52Z</time></trkpt><trkpt lat="39.5813733" lon="8.70753"><ele>56.8</ele><time>2026-05-01T13:07:44.547Z</time></trkpt><trkpt lat="39.581285" lon="8.707475"><ele>57.0</ele><time>2026-05-01T13:07:45.521Z</time></trkpt><trkpt lat="39.5812" lon="8.7074217"><ele>57.2</ele><time>2026-05-01T13:07:46.52Z</time></trkpt><trkpt lat="39.581115" lon="8.7073683"><ele>57.400000000000006</ele><time>2026-05-01T13:07:47.524Z</time></trkpt><trkpt lat="39.5810317" lon="8.7073083"><ele>57.599999999999994</ele><time>2026-05-01T13:07:48.523Z</time></trkpt><trkpt lat="39.580945" lon="8.7072333"><ele>57.8</ele><time>2026-05-01T13:07:49.523Z</time></trkpt><trkpt lat="39.5808617" lon="8.707155"><ele>58.0</ele><time>2026-05-01T13:07:50.548Z</time></trkpt><trkpt lat="39.58078" lon="8.7070733"><ele>57.99999999999999</ele><time>2026-05-01T13:07:51.523Z</time></trkpt><trkpt lat="39.5807117" lon="8.7069867"><ele>58.0</ele><time>2026-05-01T13:07:52.523Z</time></trkpt><trkpt lat="39.5806533" lon="8.7068967"><ele>58.0</ele><time>2026-05-01T13:07:53.521Z</time></trkpt><trkpt lat="39.5806017" lon="8.706805"><ele>58.0</ele><time>2026-05-01T13:07:54.518Z</time></trkpt><trkpt lat="39.580555" lon="8.7067133"><ele>57.99999999999999</ele><time>2026-05-01T13:07:55.52Z</time></trkpt><trkpt lat="39.5805067" lon="8.7066167"><ele>58.0</ele><time>2026-05-01T13:07:56.563Z</time></trkpt><trkpt lat="39.58046" lon="8.7065233"><ele>57.99999999999999</ele><time>2026-05-01T13:07:57.523Z</time></trkpt><trkpt lat="39.5804133" lon="8.706435"><ele>58.0</ele><time>2026-05-01T13:07:58.522Z</time></trkpt><trkpt lat="39.5803583" lon="8.7063567"><ele>58.0</ele><time>2026-05-01T13:07:59.523Z</time></trkpt><trkpt lat="39.5802967" lon="8.7062933"><ele>58.0</ele><time>2026-05-01T13:08:00.521Z</time></trkpt><trkpt lat="39.58023" lon="8.706245"><ele>57.99999999999999</ele><time>2026-05-01T13:08:01.523Z</time></trkpt><trkpt lat="39.5801567" lon="8.7062033"><ele>58.0</ele><time>2026-05-01T13:08:02.541Z</time></trkpt><trkpt lat="39.5800817" lon="8.7061617"><ele>58.0</ele><time>2026-05-01T13:08:03.524Z</time></trkpt><trkpt lat="39.580005" lon="8.706115"><ele>58.0</ele><time>2026-05-01T13:08:04.521Z</time></trkpt><trkpt lat="39.5799283" lon="8.7060633"><ele>58.0</ele><time>2026-05-01T13:08:05.521Z</time></trkpt><trkpt lat="39.5798517" lon="8.7060017"><ele>58.0</ele><time>2026-05-01T13:08:06.519Z</time></trkpt><trkpt lat="39.57977" lon="8.7059367"><ele>58.0</ele><time>2026-05-01T13:08:07.522Z</time></trkpt><trkpt lat="39.5796883" lon="8.7058617"><ele>58.0</ele><time>2026-05-01T13:08:08.547Z</time></trkpt><trkpt lat="39.5796083" lon="8.7057783"><ele>58.0</ele><time>2026-05-01T13:08:09.521Z</time></trkpt><trkpt lat="39.5795317" lon="8.7056933"><ele>58.0</ele><time>2026-05-01T13:08:10.523Z</time></trkpt><trkpt lat="39.5794517" lon="8.70561"><ele>58.0</ele><time>2026-05-01T13:08:11.524Z</time></trkpt><trkpt lat="39.5793683" lon="8.7055317"><ele>58.0</ele><time>2026-05-01T13:08:12.521Z</time></trkpt><trkpt lat="39.5792817" lon="8.7054617"><ele>58.0</ele><time>2026-05-01T13:08:13.524Z</time></trkpt><trkpt lat="39.5791983" lon="8.7053967"><ele>58.0</ele><time>2026-05-01T13:08:14.545Z</time></trkpt><trkpt lat="39.5791183" lon="8.7053317"><ele>58.0</ele><time>2026-05-01T13:08:15.523Z</time></trkpt><trkpt lat="39.5790433" lon="8.7052633"><ele>58.0</ele><time>2026-05-01T13:08:16.523Z</time></trkpt><trkpt lat="39.578975" lon="8.7051933"><ele>58.0</ele><time>2026-05-01T13:08:17.527Z</time></trkpt><trkpt lat="39.5789033" lon="8.7051317"><ele>58.00000000000001</ele><time>2026-05-01T13:08:18.522Z</time></trkpt><trkpt lat="39.5788367" lon="8.7050783"><ele>58.0</ele><time>2026-05-01T13:08:19.52Z</time></trkpt><trkpt lat="39.5787767" lon="8.70503"><ele>58.00000000000001</ele><time>2026-05-01T13:08:20.545Z</time></trkpt><trkpt lat="39.5787233" lon="8.70498"><ele>58.00000000000001</ele><time>2026-05-01T13:08:21.525Z</time></trkpt><trkpt lat="39.5786767" lon="8.704925"><ele>58.0</ele><time>2026-05-01T13:08:22.521Z</time></trkpt><trkpt lat="39.5786133" lon="8.7048433"><ele>58.00000000000001</ele><time>2026-05-01T13:08:24.523Z</time></trkpt><trkpt lat="39.5785817" lon="8.7047667"><ele>58.00000000000001</ele><time>2026-05-01T13:08:34.519Z</time></trkpt><trkpt lat="39.57851" lon="8.704645"><ele>57.99999999999999</ele><time>2026-05-01T13:08:37.521Z</time></trkpt><trkpt lat="39.5784633" lon="8.7045883"><ele>58.0</ele><time>2026-05-01T13:08:38.544Z</time></trkpt><trkpt lat="39.5784117" lon="8.704525"><ele>58.0</ele><time>2026-05-01T13:08:39.522Z</time></trkpt><trkpt lat="39.57835" lon="8.70446"><ele>58.0</ele><time>2026-05-01T13:08:40.52Z</time></trkpt><trkpt lat="39.5782867" lon="8.70439"><ele>57.99999999999999</ele><time>2026-05-01T13:08:41.522Z</time></trkpt><trkpt lat="39.57822" lon="8.7043183"><ele>58.0</ele><time>2026-05-01T13:08:42.52Z</time></trkpt><trkpt lat="39.57816" lon="8.7042433"><ele>57.99999999999999</ele><time>2026-05-01T13:08:43.522Z</time></trkpt><trkpt lat="39.578105" lon="8.7041683"><ele>58.0</ele><time>2026-05-01T13:08:44.545Z</time></trkpt><trkpt lat="39.57805" lon="8.704095"><ele>58.0</ele><time>2026-05-01T13:08:45.522Z</time></trkpt><trkpt lat="39.577995" lon="8.7040217"><ele>58.0</ele><time>2026-05-01T13:08:46.521Z</time></trkpt><trkpt lat="39.5779433" lon="8.7039517"><ele>57.99999999999999</ele><time>2026-05-01T13:08:47.521Z</time></trkpt><trkpt lat="39.5778917" lon="8.70388"><ele>58.0</ele><time>2026-05-01T13:08:48.523Z</time></trkpt><trkpt lat="39.577845" lon="8.7038067"><ele>57.99999999999999</ele><time>2026-05-01T13:08:49.524Z</time></trkpt><trkpt lat="39.577805" lon="8.7037317"><ele>58.0</ele><time>2026-05-01T13:08:50.548Z</time></trkpt><trkpt lat="39.57776" lon="8.703605"><ele>58.0</ele><time>2026-05-01T13:08:52.523Z</time></trkpt><trkpt lat="39.5777667" lon="8.703515"><ele>58.0</ele><time>2026-05-01T13:08:54.523Z</time></trkpt><trkpt lat="39.5778567" lon="8.7034533"><ele>57.99999999999999</ele><time>2026-05-01T13:08:56.546Z</time></trkpt><trkpt lat="39.577935" lon="8.7034167"><ele>58.0</ele><time>2026-05-01T13:08:57.521Z</time></trkpt><trkpt lat="39.57802" lon="8.70337"><ele>57.8</ele><time>2026-05-01T13:08:58.522Z</time></trkpt><trkpt lat="39.5781133" lon="8.70332"><ele>57.599999999999994</ele><time>2026-05-01T13:08:59.521Z</time></trkpt><trkpt lat="39.5782217" lon="8.7032717"><ele>57.400000000000006</ele><time>2026-05-01T13:09:00.522Z</time></trkpt><trkpt lat="39.57834" lon="8.7032267"><ele>57.2</ele><time>2026-05-01T13:09:01.522Z</time></trkpt><trkpt lat="39.5784433" lon="8.703195"><ele>57.0</ele><time>2026-05-01T13:09:02.55Z</time></trkpt><trkpt lat="39.5785567" lon="8.7031567"><ele>57.0</ele><time>2026-05-01T13:09:03.523Z</time></trkpt><trkpt lat="39.578675" lon="8.7031233"><ele>57.0</ele><time>2026-05-01T13:09:04.522Z</time></trkpt><trkpt lat="39.5787983" lon="8.703095"><ele>57.0</ele><time>2026-05-01T13:09:05.521Z</time></trkpt><trkpt lat="39.5789217" lon="8.7030733"><ele>57.0</ele><time>2026-05-01T13:09:06.523Z</time></trkpt><trkpt lat="39.5790517" lon="8.7030467"><ele>56.75</ele><time>2026-05-01T13:09:07.522Z</time></trkpt><trkpt lat="39.5791817" lon="8.70303"><ele>56.5</ele><time>2026-05-01T13:09:08.547Z</time></trkpt><trkpt lat="39.579305" lon="8.7030233"><ele>56.25</ele><time>2026-05-01T13:09:09.519Z</time></trkpt><trkpt lat="39.57942" lon="8.70302"><ele>56.0</ele><time>2026-05-01T13:09:10.521Z</time></trkpt><trkpt lat="39.5795267" lon="8.703015"><ele>55.66666666666667</ele><time>2026-05-01T13:09:11.52Z</time></trkpt><trkpt lat="39.5796183" lon="8.703015"><ele>55.333333333333336</ele><time>2026-05-01T13:09:12.522Z</time></trkpt><trkpt lat="39.5797017" lon="8.703025"><ele>55.0</ele><time>2026-05-01T13:09:13.523Z</time></trkpt><trkpt lat="39.5797783" lon="8.70303"><ele>54.66666666666667</ele><time>2026-05-01T13:09:14.544Z</time></trkpt><trkpt lat="39.5798483" lon="8.703035"><ele>54.333333333333336</ele><time>2026-05-01T13:09:15.521Z</time></trkpt><trkpt lat="39.5799133" lon="8.7030367"><ele>54.0</ele><time>2026-05-01T13:09:16.52Z</time></trkpt><trkpt lat="39.5800133" lon="8.7030467"><ele>54.0</ele><time>2026-05-01T13:09:18.522Z</time></trkpt><trkpt lat="39.580095" lon="8.70307"><ele>54.0</ele><time>2026-05-01T13:09:20.545Z</time></trkpt><trkpt lat="39.5801833" lon="8.703105"><ele>54.0</ele><time>2026-05-01T13:09:22.523Z</time></trkpt><trkpt lat="39.5802717" lon="8.7031117"><ele>54.0</ele><time>2026-05-01T13:09:24.523Z</time></trkpt><trkpt lat="39.58036" lon="8.7030317"><ele>54.0</ele><time>2026-05-01T13:09:26.547Z</time></trkpt><trkpt lat="39.5804133" lon="8.7029633"><ele>54.0</ele><time>2026-05-01T13:09:27.522Z</time></trkpt><trkpt lat="39.58047" lon="8.702885"><ele>54.0</ele><time>2026-05-01T13:09:28.518Z</time></trkpt><trkpt lat="39.58053" lon="8.7028"><ele>54.00000000000001</ele><time>2026-05-01T13:09:29.52Z</time></trkpt><trkpt lat="39.5806017" lon="8.70271"><ele>54.00000000000001</ele><time>2026-05-01T13:09:30.523Z</time></trkpt><trkpt lat="39.58068" lon="8.7026183"><ele>54.0</ele><time>2026-05-01T13:09:31.52Z</time></trkpt><trkpt lat="39.5807567" lon="8.702525"><ele>54.0</ele><time>2026-05-01T13:09:32.522Z</time></trkpt><trkpt lat="39.58083" lon="8.702435"><ele>54.0</ele><time>2026-05-01T13:09:33.52Z</time></trkpt><trkpt lat="39.5809017" lon="8.7023517"><ele>54.0</ele><time>2026-05-01T13:09:34.521Z</time></trkpt><trkpt lat="39.5809667" lon="8.702275"><ele>54.0</ele><time>2026-05-01T13:09:35.524Z</time></trkpt><trkpt lat="39.5810267" lon="8.7022067"><ele>54.0</ele><time>2026-05-01T13:09:36.518Z</time></trkpt><trkpt lat="39.5810867" lon="8.7021467"><ele>54.0</ele><time>2026-05-01T13:09:37.527Z</time></trkpt><trkpt lat="39.5811483" lon="8.7020983"><ele>54.0</ele><time>2026-05-01T13:09:38.549Z</time></trkpt><trkpt lat="39.5812167" lon="8.7020617"><ele>53.666666666666664</ele><time>2026-05-01T13:09:39.524Z</time></trkpt><trkpt lat="39.5812883" lon="8.7020367"><ele>53.33333333333333</ele><time>2026-05-01T13:09:40.518Z</time></trkpt><trkpt lat="39.58136" lon="8.70202"><ele>53.0</ele><time>2026-05-01T13:09:41.518Z</time></trkpt><trkpt lat="39.58143" lon="8.7020033"><ele>52.666666666666664</ele><time>2026-05-01T13:09:42.524Z</time></trkpt><trkpt lat="39.581495" lon="8.7019883"><ele>52.33333333333333</ele><time>2026-05-01T13:09:43.522Z</time></trkpt><trkpt lat="39.5815917" lon="8.70195"><ele>52.0</ele><time>2026-05-01T13:09:45.52Z</time></trkpt><trkpt lat="39.5816567" lon="8.701885"><ele>51.2</ele><time>2026-05-01T13:09:47.519Z</time></trkpt><trkpt lat="39.5816867" lon="8.7018117"><ele>50.400000000000006</ele><time>2026-05-01T13:09:49.521Z</time></trkpt><trkpt lat="39.5816283" lon="8.70171"><ele>49.599999999999994</ele><time>2026-05-01T13:09:52.521Z</time></trkpt><trkpt lat="39.5815233" lon="8.701655"><ele>48.8</ele><time>2026-05-01T13:09:54.521Z</time></trkpt><trkpt lat="39.58141" lon="8.7016267"><ele>48.0</ele><time>2026-05-01T13:09:56.58Z</time></trkpt><trkpt lat="39.5813167" lon="8.7016017"><ele>48.0</ele><time>2026-05-01T13:09:58.52Z</time></trkpt><trkpt lat="39.5812583" lon="8.7015317"><ele>48.0</ele><time>2026-05-01T13:10:00.528Z</time></trkpt><trkpt lat="39.5812317" lon="8.7014383"><ele>48.0</ele><time>2026-05-01T13:10:03.52Z</time></trkpt><trkpt lat="39.5812917" lon="8.7013617"><ele>48.0</ele><time>2026-05-01T13:10:07.525Z</time></trkpt><trkpt lat="39.5813833" lon="8.7012067"><ele>48.0</ele><time>2026-05-01T13:11:21.52Z</time></trkpt><trkpt lat="39.58149" lon="8.701125"><ele>48.0</ele><time>2026-05-01T13:11:31.519Z</time></trkpt><trkpt lat="39.581575" lon="8.7010867"><ele>48.0</ele><time>2026-05-01T13:11:33.521Z</time></trkpt><trkpt lat="39.58166" lon="8.7010383"><ele>48.0</ele><time>2026-05-01T13:11:35.52Z</time></trkpt><trkpt lat="39.581745" lon="8.7009817"><ele>48.0</ele><time>2026-05-01T13:11:37.522Z</time></trkpt><trkpt lat="39.58183" lon="8.70091"><ele>48.0</ele><time>2026-05-01T13:11:39.521Z</time></trkpt><trkpt lat="39.5818917" lon="8.700835"><ele>48.0</ele><time>2026-05-01T13:11:41.52Z</time></trkpt><trkpt lat="39.581935" lon="8.7007583"><ele>48.0</ele><time>2026-05-01T13:11:44.545Z</time></trkpt><trkpt lat="39.58198" lon="8.700685"><ele>48.0</ele><time>2026-05-01T13:11:48.52Z</time></trkpt><trkpt lat="39.582035" lon="8.7006217"><ele>48.0</ele><time>2026-05-01T13:11:50.545Z</time></trkpt><trkpt lat="39.5821183" lon="8.7005217"><ele>48.0</ele><time>2026-05-01T13:11:52.522Z</time></trkpt><trkpt lat="39.5822083" lon="8.700415"><ele>48.599999999999994</ele><time>2026-05-01T13:11:54.521Z</time></trkpt><trkpt lat="39.58225" lon="8.7003083"><ele>49.199999999999996</ele><time>2026-05-01T13:11:56.566Z</time></trkpt><trkpt lat="39.5821967" lon="8.700235"><ele>49.8</ele><time>2026-05-01T13:12:31.522Z</time></trkpt><trkpt lat="39.5820883" lon="8.7001283"><ele>50.4</ele><time>2026-05-01T13:12:33.523Z</time></trkpt><trkpt lat="39.58202" lon="8.70005"><ele>51.0</ele><time>2026-05-01T13:12:34.524Z</time></trkpt><trkpt lat="39.581925" lon="8.6999467"><ele>51.0</ele><time>2026-05-01T13:12:35.522Z</time></trkpt><trkpt lat="39.5818233" lon="8.6998417"><ele>51.0</ele><time>2026-05-01T13:12:36.522Z</time></trkpt><trkpt lat="39.5817233" lon="8.6997367"><ele>51.0</ele><time>2026-05-01T13:12:37.522Z</time></trkpt><trkpt lat="39.5816167" lon="8.6996283"><ele>51.0</ele><time>2026-05-01T13:12:38.551Z</time></trkpt><trkpt lat="39.5815133" lon="8.6995167"><ele>51.0</ele><time>2026-05-01T13:12:39.522Z</time></trkpt><trkpt lat="39.5814133" lon="8.6993933"><ele>51.0</ele><time>2026-05-01T13:12:40.523Z</time></trkpt><trkpt lat="39.58131" lon="8.69926"><ele>51.0</ele><time>2026-05-01T13:12:41.525Z</time></trkpt><trkpt lat="39.581205" lon="8.6991233"><ele>51.0</ele><time>2026-05-01T13:12:42.523Z</time></trkpt><trkpt lat="39.581105" lon="8.6989767"><ele>51.5</ele><time>2026-05-01T13:12:43.526Z</time></trkpt><trkpt lat="39.5810083" lon="8.6988283"><ele>52.0</ele><time>2026-05-01T13:12:44.548Z</time></trkpt><trkpt lat="39.580915" lon="8.6986817"><ele>52.5</ele><time>2026-05-01T13:12:45.521Z</time></trkpt><trkpt lat="39.5808133" lon="8.6985367"><ele>53.0</ele><time>2026-05-01T13:12:46.521Z</time></trkpt><trkpt lat="39.5807083" lon="8.6983983"><ele>53.66666666666667</ele><time>2026-05-01T13:12:47.521Z</time></trkpt><trkpt lat="39.5806" lon="8.6982633"><ele>54.33333333333333</ele><time>2026-05-01T13:12:48.524Z</time></trkpt><trkpt lat="39.5804883" lon="8.6981333"><ele>55.0</ele><time>2026-05-01T13:12:49.523Z</time></trkpt><trkpt lat="39.5803733" lon="8.6980033"><ele>55.0</ele><time>2026-05-01T13:12:50.548Z</time></trkpt><trkpt lat="39.5802583" lon="8.6978767"><ele>55.0</ele><time>2026-05-01T13:12:51.524Z</time></trkpt><trkpt lat="39.58014" lon="8.6977533"><ele>55.0</ele><time>2026-05-01T13:12:52.522Z</time></trkpt><trkpt lat="39.5800183" lon="8.6976283"><ele>55.0</ele><time>2026-05-01T13:12:53.521Z</time></trkpt><trkpt lat="39.5798933" lon="8.6975033"><ele>55.0</ele><time>2026-05-01T13:12:54.52Z</time></trkpt><trkpt lat="39.5797717" lon="8.697375"><ele>55.0</ele><time>2026-05-01T13:12:55.519Z</time></trkpt><trkpt lat="39.57965" lon="8.697245"><ele>55.0</ele><time>2026-05-01T13:12:56.58Z</time></trkpt><trkpt lat="39.5795267" lon="8.6971133"><ele>55.0</ele><time>2026-05-01T13:12:57.521Z</time></trkpt><trkpt lat="39.5794117" lon="8.69697"><ele>55.0</ele><time>2026-05-01T13:12:58.52Z</time></trkpt><trkpt lat="39.579295" lon="8.6968317"><ele>55.33333333333333</ele><time>2026-05-01T13:12:59.525Z</time></trkpt><trkpt lat="39.5791783" lon="8.696695"><ele>55.66666666666667</ele><time>2026-05-01T13:13:00.519Z</time></trkpt><trkpt lat="39.5790617" lon="8.69655"><ele>56.0</ele><time>2026-05-01T13:13:01.52Z</time></trkpt><trkpt lat="39.5789483" lon="8.6964083"><ele>56.0</ele><time>2026-05-01T13:13:02.561Z</time></trkpt><trkpt lat="39.57884" lon="8.6962683"><ele>56.0</ele><time>2026-05-01T13:13:03.523Z</time></trkpt><trkpt lat="39.57874" lon="8.6961317"><ele>56.0</ele><time>2026-05-01T13:13:04.523Z</time></trkpt><trkpt lat="39.5786467" lon="8.6959983"><ele>56.0</ele><time>2026-05-01T13:13:05.525Z</time></trkpt><trkpt lat="39.57856" lon="8.695875"><ele>56.0</ele><time>2026-05-01T13:13:06.521Z</time></trkpt><trkpt lat="39.5784767" lon="8.6957583"><ele>55.99999999999999</ele><time>2026-05-01T13:13:07.521Z</time></trkpt><trkpt lat="39.5784067" lon="8.6956533"><ele>55.99999999999999</ele><time>2026-05-01T13:13:08.546Z</time></trkpt><trkpt lat="39.5783467" lon="8.695555"><ele>56.0</ele><time>2026-05-01T13:13:09.522Z</time></trkpt><trkpt lat="39.5782933" lon="8.6954617"><ele>56.0</ele><time>2026-05-01T13:13:10.52Z</time></trkpt><trkpt lat="39.5782383" lon="8.695365"><ele>56.0</ele><time>2026-05-01T13:13:11.52Z</time></trkpt><trkpt lat="39.578185" lon="8.69527"><ele>55.99999999999999</ele><time>2026-05-01T13:13:12.522Z</time></trkpt><trkpt lat="39.57813" lon="8.6951733"><ele>55.99999999999999</ele><time>2026-05-01T13:13:13.524Z</time></trkpt><trkpt lat="39.5780767" lon="8.695075"><ele>56.0</ele><time>2026-05-01T13:13:14.544Z</time></trkpt><trkpt lat="39.5780217" lon="8.6949767"><ele>56.0</ele><time>2026-05-01T13:13:15.522Z</time></trkpt><trkpt lat="39.5779633" lon="8.694875"><ele>56.199999999999996</ele><time>2026-05-01T13:13:16.521Z</time></trkpt><trkpt lat="39.5778983" lon="8.6947783"><ele>56.39999999999999</ele><time>2026-05-01T13:13:17.522Z</time></trkpt><trkpt lat="39.5778267" lon="8.694685"><ele>56.6</ele><time>2026-05-01T13:13:18.521Z</time></trkpt><trkpt lat="39.5777517" lon="8.6945983"><ele>56.8</ele><time>2026-05-01T13:13:19.521Z</time></trkpt><trkpt lat="39.5776717" lon="8.6945117"><ele>57.0</ele><time>2026-05-01T13:13:20.545Z</time></trkpt><trkpt lat="39.57759" lon="8.6944317"><ele>56.75</ele><time>2026-05-01T13:13:21.52Z</time></trkpt><trkpt lat="39.5775017" lon="8.6943567"><ele>56.5</ele><time>2026-05-01T13:13:22.52Z</time></trkpt><trkpt lat="39.5774033" lon="8.6942867"><ele>56.25</ele><time>2026-05-01T13:13:23.522Z</time></trkpt><trkpt lat="39.5772917" lon="8.694225"><ele>56.0</ele><time>2026-05-01T13:13:24.521Z</time></trkpt><trkpt lat="39.5771733" lon="8.69416"><ele>56.0</ele><time>2026-05-01T13:13:25.521Z</time></trkpt><trkpt lat="39.5770467" lon="8.6940883"><ele>56.0</ele><time>2026-05-01T13:13:26.541Z</time></trkpt><trkpt lat="39.5769183" lon="8.694015"><ele>56.0</ele><time>2026-05-01T13:13:27.522Z</time></trkpt><trkpt lat="39.576785" lon="8.6939367"><ele>56.0</ele><time>2026-05-01T13:13:28.521Z</time></trkpt><trkpt lat="39.5766467" lon="8.6938583"><ele>55.75</ele><time>2026-05-01T13:13:29.522Z</time></trkpt><trkpt lat="39.5765083" lon="8.6937767"><ele>55.5</ele><time>2026-05-01T13:13:30.518Z</time></trkpt><trkpt lat="39.5763717" lon="8.693695"><ele>55.25</ele><time>2026-05-01T13:13:31.52Z</time></trkpt><trkpt lat="39.57624" lon="8.6936167"><ele>55.0</ele><time>2026-05-01T13:13:32.568Z</time></trkpt><trkpt lat="39.5761167" lon="8.6935417"><ele>55.0</ele><time>2026-05-01T13:13:33.518Z</time></trkpt><trkpt lat="39.576" lon="8.69347"><ele>55.0</ele><time>2026-05-01T13:13:34.521Z</time></trkpt><trkpt lat="39.5758917" lon="8.6933983"><ele>55.0</ele><time>2026-05-01T13:13:35.518Z</time></trkpt><trkpt lat="39.5757933" lon="8.6933233"><ele>55.0</ele><time>2026-05-01T13:13:36.521Z</time></trkpt><trkpt lat="39.5756983" lon="8.693255"><ele>55.0</ele><time>2026-05-01T13:13:37.52Z</time></trkpt><trkpt lat="39.5756017" lon="8.6931767"><ele>55.0</ele><time>2026-05-01T13:13:38.543Z</time></trkpt><trkpt lat="39.5755017" lon="8.6930983"><ele>55.0</ele><time>2026-05-01T13:13:39.52Z</time></trkpt><trkpt lat="39.5754033" lon="8.6930167"><ele>55.0</ele><time>2026-05-01T13:13:40.518Z</time></trkpt><trkpt lat="39.5753" lon="8.6929333"><ele>55.0</ele><time>2026-05-01T13:13:41.523Z</time></trkpt><trkpt lat="39.575195" lon="8.69285"><ele>55.0</ele><time>2026-05-01T13:13:42.52Z</time></trkpt><trkpt lat="39.57509" lon="8.6927717"><ele>55.0</ele><time>2026-05-01T13:13:43.521Z</time></trkpt><trkpt lat="39.574985" lon="8.6926883"><ele>55.0</ele><time>2026-05-01T13:13:44.547Z</time></trkpt><trkpt lat="39.5748817" lon="8.692605"><ele>55.6</ele><time>2026-05-01T13:13:45.52Z</time></trkpt><trkpt lat="39.5747817" lon="8.6925283"><ele>56.2</ele><time>2026-05-01T13:13:46.521Z</time></trkpt><trkpt lat="39.574685" lon="8.6924483"><ele>56.8</ele><time>2026-05-01T13:13:47.52Z</time></trkpt><trkpt lat="39.5745933" lon="8.6923717"><ele>57.4</ele><time>2026-05-01T13:13:48.521Z</time></trkpt><trkpt lat="39.57451" lon="8.6922917"><ele>58.0</ele><time>2026-05-01T13:13:49.521Z</time></trkpt><trkpt lat="39.5744317" lon="8.6922117"><ele>58.4</ele><time>2026-05-01T13:13:50.544Z</time></trkpt><trkpt lat="39.5743617" lon="8.69213"><ele>58.8</ele><time>2026-05-01T13:13:51.519Z</time></trkpt><trkpt lat="39.5742983" lon="8.6920417"><ele>59.2</ele><time>2026-05-01T13:13:52.519Z</time></trkpt><trkpt lat="39.5742383" lon="8.6919533"><ele>59.6</ele><time>2026-05-01T13:13:53.519Z</time></trkpt><trkpt lat="39.5741767" lon="8.69187"><ele>60.0</ele><time>2026-05-01T13:13:54.521Z</time></trkpt><trkpt lat="39.5741017" lon="8.6917967"><ele>60.0</ele><time>2026-05-01T13:13:55.521Z</time></trkpt><trkpt lat="39.5740183" lon="8.6917283"><ele>60.0</ele><time>2026-05-01T13:13:56.575Z</time></trkpt><trkpt lat="39.5739333" lon="8.6916583"><ele>60.0</ele><time>2026-05-01T13:13:57.525Z</time></trkpt><trkpt lat="39.5738467" lon="8.69158"><ele>60.0</ele><time>2026-05-01T13:13:58.519Z</time></trkpt><trkpt lat="39.573755" lon="8.6914867"><ele>60.0</ele><time>2026-05-01T13:13:59.52Z</time></trkpt><trkpt lat="39.57366" lon="8.6913867"><ele>59.75</ele><time>2026-05-01T13:14:00.522Z</time></trkpt><trkpt lat="39.5735633" lon="8.691285"><ele>59.5</ele><time>2026-05-01T13:14:01.519Z</time></trkpt><trkpt lat="39.5734683" lon="8.691185"><ele>59.25</ele><time>2026-05-01T13:14:02.564Z</time></trkpt><trkpt lat="39.5733783" lon="8.6910867"><ele>59.0</ele><time>2026-05-01T13:14:03.518Z</time></trkpt><trkpt lat="39.5732883" lon="8.6909967"><ele>59.5</ele><time>2026-05-01T13:14:04.522Z</time></trkpt><trkpt lat="39.5731967" lon="8.6909133"><ele>60.0</ele><time>2026-05-01T13:14:05.524Z</time></trkpt><trkpt lat="39.5730983" lon="8.690835"><ele>60.5</ele><time>2026-05-01T13:14:06.521Z</time></trkpt><trkpt lat="39.572995" lon="8.6907583"><ele>61.0</ele><time>2026-05-01T13:14:07.52Z</time></trkpt><trkpt lat="39.572885" lon="8.6906833"><ele>60.75</ele><time>2026-05-01T13:14:08.544Z</time></trkpt><trkpt lat="39.5727683" lon="8.6906167"><ele>60.5</ele><time>2026-05-01T13:14:09.524Z</time></trkpt><trkpt lat="39.5726533" lon="8.6905517"><ele>60.25</ele><time>2026-05-01T13:14:10.521Z</time></trkpt><trkpt lat="39.572545" lon="8.6904883"><ele>60.0</ele><time>2026-05-01T13:14:11.521Z</time></trkpt><trkpt lat="39.5724417" lon="8.69043"><ele>60.0</ele><time>2026-05-01T13:14:12.519Z</time></trkpt><trkpt lat="39.5723417" lon="8.6903733"><ele>60.0</ele><time>2026-05-01T13:14:13.522Z</time></trkpt><trkpt lat="39.5722483" lon="8.6903167"><ele>60.0</ele><time>2026-05-01T13:14:14.542Z</time></trkpt><trkpt lat="39.57216" lon="8.69026"><ele>60.0</ele><time>2026-05-01T13:14:15.521Z</time></trkpt><trkpt lat="39.57208" lon="8.6902017"><ele>60.0</ele><time>2026-05-01T13:14:16.519Z</time></trkpt><trkpt lat="39.5719983" lon="8.690145"><ele>60.4</ele><time>2026-05-01T13:14:17.518Z</time></trkpt><trkpt lat="39.5719117" lon="8.6900867"><ele>60.8</ele><time>2026-05-01T13:14:18.52Z</time></trkpt><trkpt lat="39.57182" lon="8.69003"><ele>61.2</ele><time>2026-05-01T13:14:19.521Z</time></trkpt><trkpt lat="39.5717217" lon="8.6899767"><ele>61.6</ele><time>2026-05-01T13:14:20.542Z</time></trkpt><trkpt lat="39.57162" lon="8.6899217"><ele>62.0</ele><time>2026-05-01T13:14:21.52Z</time></trkpt><trkpt lat="39.57152" lon="8.6898667"><ele>62.0</ele><time>2026-05-01T13:14:22.522Z</time></trkpt><trkpt lat="39.571425" lon="8.689815"><ele>62.0</ele><time>2026-05-01T13:14:23.524Z</time></trkpt><trkpt lat="39.5713383" lon="8.6897583"><ele>62.0</ele><time>2026-05-01T13:14:24.519Z</time></trkpt><trkpt lat="39.5712567" lon="8.689695"><ele>62.0</ele><time>2026-05-01T13:14:25.519Z</time></trkpt><trkpt lat="39.5711783" lon="8.68962"><ele>62.0</ele><time>2026-05-01T13:14:26.577Z</time></trkpt><trkpt lat="39.5711067" lon="8.6895367"><ele>62.0</ele><time>2026-05-01T13:14:27.521Z</time></trkpt><trkpt lat="39.57104" lon="8.6894467"><ele>62.0</ele><time>2026-05-01T13:14:28.519Z</time></trkpt><trkpt lat="39.5709783" lon="8.6893567"><ele>62.0</ele><time>2026-05-01T13:14:29.521Z</time></trkpt><trkpt lat="39.5709167" lon="8.6892633"><ele>62.0</ele><time>2026-05-01T13:14:30.523Z</time></trkpt><trkpt lat="39.5708533" lon="8.6891667"><ele>62.0</ele><time>2026-05-01T13:14:31.52Z</time></trkpt><trkpt lat="39.5707867" lon="8.689065"><ele>62.0</ele><time>2026-05-01T13:14:32.574Z</time></trkpt><trkpt lat="39.5707167" lon="8.688965"><ele>62.0</ele><time>2026-05-01T13:14:33.52Z</time></trkpt><trkpt lat="39.57064" lon="8.6888667"><ele>62.0</ele><time>2026-05-01T13:14:34.518Z</time></trkpt><trkpt lat="39.5705617" lon="8.68877"><ele>62.0</ele><time>2026-05-01T13:14:35.519Z</time></trkpt><trkpt lat="39.5704817" lon="8.688675"><ele>62.0</ele><time>2026-05-01T13:14:36.523Z</time></trkpt><trkpt lat="39.5704033" lon="8.6885783"><ele>62.400000000000006</ele><time>2026-05-01T13:14:37.522Z</time></trkpt><trkpt lat="39.5703283" lon="8.68848"><ele>62.800000000000004</ele><time>2026-05-01T13:14:38.544Z</time></trkpt><trkpt lat="39.57025" lon="8.68838"><ele>63.2</ele><time>2026-05-01T13:14:39.521Z</time></trkpt><trkpt lat="39.570175" lon="8.6882783"><ele>63.6</ele><time>2026-05-01T13:14:40.519Z</time></trkpt><trkpt lat="39.5701017" lon="8.6881683"><ele>64.0</ele><time>2026-05-01T13:14:41.52Z</time></trkpt><trkpt lat="39.5700267" lon="8.68806"><ele>64.0</ele><time>2026-05-01T13:14:42.52Z</time></trkpt><trkpt lat="39.5699517" lon="8.6879533"><ele>64.0</ele><time>2026-05-01T13:14:43.521Z</time></trkpt><trkpt lat="39.5698717" lon="8.6878483"><ele>64.0</ele><time>2026-05-01T13:14:44.545Z</time></trkpt><trkpt lat="39.56979" lon="8.6877433"><ele>64.0</ele><time>2026-05-01T13:14:45.52Z</time></trkpt><trkpt lat="39.5697067" lon="8.68764"><ele>64.5</ele><time>2026-05-01T13:14:46.522Z</time></trkpt><trkpt lat="39.5696233" lon="8.6875367"><ele>65.0</ele><time>2026-05-01T13:14:47.521Z</time></trkpt><trkpt lat="39.5695383" lon="8.6874367"><ele>65.5</ele><time>2026-05-01T13:14:48.523Z</time></trkpt><trkpt lat="39.5694483" lon="8.6873417"><ele>66.0</ele><time>2026-05-01T13:14:49.524Z</time></trkpt><trkpt lat="39.5693567" lon="8.6872433"><ele>66.0</ele><time>2026-05-01T13:14:50.546Z</time></trkpt><trkpt lat="39.5692617" lon="8.687145"><ele>66.0</ele><time>2026-05-01T13:14:51.517Z</time></trkpt><trkpt lat="39.5691683" lon="8.6870433"><ele>66.0</ele><time>2026-05-01T13:14:52.518Z</time></trkpt><trkpt lat="39.569075" lon="8.6869417"><ele>66.0</ele><time>2026-05-01T13:14:53.521Z</time></trkpt><trkpt lat="39.5689817" lon="8.68684"><ele>66.6</ele><time>2026-05-01T13:14:54.521Z</time></trkpt><trkpt lat="39.5688917" lon="8.6867433"><ele>67.19999999999999</ele><time>2026-05-01T13:14:55.523Z</time></trkpt><trkpt lat="39.5688033" lon="8.6866533"><ele>67.80000000000001</ele><time>2026-05-01T13:14:56.573Z</time></trkpt><trkpt lat="39.5687233" lon="8.68657"><ele>68.4</ele><time>2026-05-01T13:14:57.52Z</time></trkpt><trkpt lat="39.5686383" lon="8.6864917"><ele>69.0</ele><time>2026-05-01T13:14:58.519Z</time></trkpt><trkpt lat="39.5685533" lon="8.6864133"><ele>69.0</ele><time>2026-05-01T13:14:59.521Z</time></trkpt><trkpt lat="39.5684717" lon="8.6863317"><ele>69.0</ele><time>2026-05-01T13:15:00.521Z</time></trkpt><trkpt lat="39.5683933" lon="8.686245"><ele>69.0</ele><time>2026-05-01T13:15:01.522Z</time></trkpt><trkpt lat="39.5683133" lon="8.6861567"><ele>69.0</ele><time>2026-05-01T13:15:02.566Z</time></trkpt><trkpt lat="39.5682317" lon="8.6860617"><ele>69.0</ele><time>2026-05-01T13:15:03.521Z</time></trkpt><trkpt lat="39.5681433" lon="8.6859667"><ele>69.0</ele><time>2026-05-01T13:15:04.519Z</time></trkpt><trkpt lat="39.5680567" lon="8.68587"><ele>69.0</ele><time>2026-05-01T13:15:05.52Z</time></trkpt><trkpt lat="39.5679717" lon="8.6857767"><ele>69.0</ele><time>2026-05-01T13:15:06.52Z</time></trkpt><trkpt lat="39.5678867" lon="8.6856883"><ele>69.0</ele><time>2026-05-01T13:15:07.52Z</time></trkpt><trkpt lat="39.5677967" lon="8.6855983"><ele>69.0</ele><time>2026-05-01T13:15:08.546Z</time></trkpt><trkpt lat="39.5677083" lon="8.685525"><ele>69.16666666666667</ele><time>2026-05-01T13:15:09.52Z</time></trkpt><trkpt lat="39.56762" lon="8.68547"><ele>69.33333333333333</ele><time>2026-05-01T13:15:10.519Z</time></trkpt><trkpt lat="39.5675417" lon="8.6854217"><ele>69.5</ele><time>2026-05-01T13:15:11.52Z</time></trkpt><trkpt lat="39.5674767" lon="8.6853783"><ele>69.66666666666666</ele><time>2026-05-01T13:15:12.523Z</time></trkpt><trkpt lat="39.567415" lon="8.68533"><ele>69.83333333333333</ele><time>2026-05-01T13:15:13.521Z</time></trkpt><trkpt lat="39.5673533" lon="8.6852833"><ele>70.0</ele><time>2026-05-01T13:15:14.544Z</time></trkpt><trkpt lat="39.5672967" lon="8.6852283"><ele>70.16666666666666</ele><time>2026-05-01T13:15:15.523Z</time></trkpt><trkpt lat="39.5672467" lon="8.6851633"><ele>70.33333333333333</ele><time>2026-05-01T13:15:16.522Z</time></trkpt><trkpt lat="39.567205" lon="8.6850917"><ele>70.5</ele><time>2026-05-01T13:15:17.519Z</time></trkpt><trkpt lat="39.567175" lon="8.684995"><ele>70.66666666666667</ele><time>2026-05-01T13:15:18.521Z</time></trkpt><trkpt lat="39.5671567" lon="8.6848883"><ele>70.83333333333334</ele><time>2026-05-01T13:15:19.52Z</time></trkpt><trkpt lat="39.5671467" lon="8.6847633"><ele>71.0</ele><time>2026-05-01T13:15:20.553Z</time></trkpt><trkpt lat="39.5671383" lon="8.684625"><ele>71.0</ele><time>2026-05-01T13:15:21.521Z</time></trkpt><trkpt lat="39.5671383" lon="8.68447"><ele>71.0</ele><time>2026-05-01T13:15:22.52Z</time></trkpt><trkpt lat="39.56714" lon="8.6843017"><ele>71.0</ele><time>2026-05-01T13:15:23.518Z</time></trkpt><trkpt lat="39.5671483" lon="8.6841033"><ele>71.0</ele><time>2026-05-01T13:15:24.521Z</time></trkpt><trkpt lat="39.5671633" lon="8.6839"><ele>71.0</ele><time>2026-05-01T13:15:25.523Z</time></trkpt><trkpt lat="39.56717" lon="8.6837"><ele>71.0</ele><time>2026-05-01T13:15:26.575Z</time></trkpt><trkpt lat="39.5671833" lon="8.683485"><ele>71.0</ele><time>2026-05-01T13:15:27.521Z</time></trkpt><trkpt lat="39.56719" lon="8.6832767"><ele>71.25</ele><time>2026-05-01T13:15:28.518Z</time></trkpt><trkpt lat="39.5671967" lon="8.6830817"><ele>71.5</ele><time>2026-05-01T13:15:29.521Z</time></trkpt><trkpt lat="39.5672033" lon="8.682895"><ele>71.75</ele><time>2026-05-01T13:15:30.521Z</time></trkpt><trkpt lat="39.5672117" lon="8.6827233"><ele>72.0</ele><time>2026-05-01T13:15:31.519Z</time></trkpt><trkpt lat="39.567215" lon="8.6825667"><ele>72.0</ele><time>2026-05-01T13:15:32.57Z</time></trkpt><trkpt lat="39.5672183" lon="8.68242"><ele>72.0</ele><time>2026-05-01T13:15:33.518Z</time></trkpt><trkpt lat="39.5672217" lon="8.6822783"><ele>72.0</ele><time>2026-05-01T13:15:34.521Z</time></trkpt><trkpt lat="39.5672233" lon="8.6821433"><ele>72.0</ele><time>2026-05-01T13:15:35.522Z</time></trkpt><trkpt lat="39.5672217" lon="8.6820117"><ele>72.0</ele><time>2026-05-01T13:15:36.522Z</time></trkpt><trkpt lat="39.56723" lon="8.6818783"><ele>71.8</ele><time>2026-05-01T13:15:37.521Z</time></trkpt><trkpt lat="39.56725" lon="8.6817483"><ele>71.6</ele><time>2026-05-01T13:15:38.543Z</time></trkpt><trkpt lat="39.567285" lon="8.6816183"><ele>71.39999999999999</ele><time>2026-05-01T13:15:39.52Z</time></trkpt><trkpt lat="39.567335" lon="8.68149"><ele>71.2</ele><time>2026-05-01T13:15:40.517Z</time></trkpt><trkpt lat="39.5673983" lon="8.6813667"><ele>71.0</ele><time>2026-05-01T13:15:41.519Z</time></trkpt><trkpt lat="39.5674733" lon="8.6812517"><ele>71.0</ele><time>2026-05-01T13:15:42.52Z</time></trkpt><trkpt lat="39.5675583" lon="8.681135"><ele>71.0</ele><time>2026-05-01T13:15:43.519Z</time></trkpt><trkpt lat="39.567645" lon="8.6810117"><ele>71.0</ele><time>2026-05-01T13:15:44.543Z</time></trkpt><trkpt lat="39.567735" lon="8.6808833"><ele>71.0</ele><time>2026-05-01T13:15:45.517Z</time></trkpt><trkpt lat="39.5678233" lon="8.6807517"><ele>71.0</ele><time>2026-05-01T13:15:46.521Z</time></trkpt><trkpt lat="39.5679083" lon="8.6806233"><ele>71.0</ele><time>2026-05-01T13:15:47.519Z</time></trkpt><trkpt lat="39.5679917" lon="8.6804917"><ele>71.0</ele><time>2026-05-01T13:15:48.522Z</time></trkpt><trkpt lat="39.5680717" lon="8.6803583"><ele>71.0</ele><time>2026-05-01T13:15:49.521Z</time></trkpt><trkpt lat="39.568155" lon="8.6802267"><ele>71.0</ele><time>2026-05-01T13:15:50.544Z</time></trkpt><trkpt lat="39.5682433" lon="8.6800983"><ele>71.0</ele><time>2026-05-01T13:15:51.518Z</time></trkpt><trkpt lat="39.5683417" lon="8.6799633"><ele>71.0</ele><time>2026-05-01T13:15:52.519Z</time></trkpt><trkpt lat="39.5684367" lon="8.6798217"><ele>71.0</ele><time>2026-05-01T13:15:53.52Z</time></trkpt><trkpt lat="39.568525" lon="8.67969"><ele>71.0</ele><time>2026-05-01T13:15:54.519Z</time></trkpt><trkpt lat="39.5686067" lon="8.6795733"><ele>71.0</ele><time>2026-05-01T13:15:55.52Z</time></trkpt><trkpt lat="39.5686833" lon="8.6794617"><ele>71.0</ele><time>2026-05-01T13:15:56.526Z</time></trkpt><trkpt lat="39.56876" lon="8.6793417"><ele>71.0</ele><time>2026-05-01T13:15:57.52Z</time></trkpt><trkpt lat="39.5688183" lon="8.6792033"><ele>71.25</ele><time>2026-05-01T13:15:58.519Z</time></trkpt><trkpt lat="39.5688683" lon="8.67904"><ele>71.5</ele><time>2026-05-01T13:15:59.522Z</time></trkpt><trkpt lat="39.5689133" lon="8.67886"><ele>71.75</ele><time>2026-05-01T13:16:00.521Z</time></trkpt><trkpt lat="39.5689583" lon="8.6786683"><ele>72.0</ele><time>2026-05-01T13:16:01.516Z</time></trkpt><trkpt lat="39.569005" lon="8.6784733"><ele>72.33333333333333</ele><time>2026-05-01T13:16:02.548Z</time></trkpt><trkpt lat="39.5690517" lon="8.6782767"><ele>72.66666666666666</ele><time>2026-05-01T13:16:03.518Z</time></trkpt><trkpt lat="39.5690983" lon="8.6780767"><ele>73.0</ele><time>2026-05-01T13:16:04.517Z</time></trkpt><trkpt lat="39.5691483" lon="8.6778667"><ele>73.0</ele><time>2026-05-01T13:16:05.52Z</time></trkpt><trkpt lat="39.56919" lon="8.6776583"><ele>73.0</ele><time>2026-05-01T13:16:06.52Z</time></trkpt><trkpt lat="39.569235" lon="8.677445"><ele>73.0</ele><time>2026-05-01T13:16:07.52Z</time></trkpt><trkpt lat="39.5692833" lon="8.6772317"><ele>73.0</ele><time>2026-05-01T13:16:08.544Z</time></trkpt><trkpt lat="39.5693333" lon="8.6770083"><ele>73.0</ele><time>2026-05-01T13:16:09.52Z</time></trkpt><trkpt lat="39.569385" lon="8.6767833"><ele>73.0</ele><time>2026-05-01T13:16:10.519Z</time></trkpt><trkpt lat="39.5694367" lon="8.67656"><ele>73.0</ele><time>2026-05-01T13:16:11.519Z</time></trkpt><trkpt lat="39.5694883" lon="8.6763367"><ele>73.0</ele><time>2026-05-01T13:16:12.52Z</time></trkpt><trkpt lat="39.56954" lon="8.6761133"><ele>73.0</ele><time>2026-05-01T13:16:13.519Z</time></trkpt><trkpt lat="39.5695933" lon="8.6758883"><ele>73.0</ele><time>2026-05-01T13:16:14.544Z</time></trkpt><trkpt lat="39.5696467" lon="8.67566"><ele>73.0</ele><time>2026-05-01T13:16:15.522Z</time></trkpt><trkpt lat="39.5696983" lon="8.6754317"><ele>73.0</ele><time>2026-05-01T13:16:16.517Z</time></trkpt><trkpt lat="39.5697517" lon="8.6752033"><ele>73.0</ele><time>2026-05-01T13:16:17.518Z</time></trkpt><trkpt lat="39.5698067" lon="8.674975"><ele>73.0</ele><time>2026-05-01T13:16:18.518Z</time></trkpt><trkpt lat="39.5698583" lon="8.6747417"><ele>73.0</ele><time>2026-05-01T13:16:19.52Z</time></trkpt><trkpt lat="39.5699067" lon="8.6745017"><ele>73.0</ele><time>2026-05-01T13:16:20.541Z</time></trkpt><trkpt lat="39.5699533" lon="8.674275"><ele>73.0</ele><time>2026-05-01T13:16:21.52Z</time></trkpt><trkpt lat="39.5700017" lon="8.67406"><ele>73.0</ele><time>2026-05-01T13:16:22.519Z</time></trkpt><trkpt lat="39.5700467" lon="8.67386"><ele>73.0</ele><time>2026-05-01T13:16:23.52Z</time></trkpt><trkpt lat="39.5700883" lon="8.6736617"><ele>73.0</ele><time>2026-05-01T13:16:24.52Z</time></trkpt><trkpt lat="39.5701283" lon="8.673465"><ele>73.0</ele><time>2026-05-01T13:16:25.52Z</time></trkpt><trkpt lat="39.57017" lon="8.6732683"><ele>73.0</ele><time>2026-05-01T13:16:26.573Z</time></trkpt><trkpt lat="39.570215" lon="8.6730717"><ele>73.0</ele><time>2026-05-01T13:16:27.518Z</time></trkpt><trkpt lat="39.57026" lon="8.6728717"><ele>73.0</ele><time>2026-05-01T13:16:28.517Z</time></trkpt><trkpt lat="39.570305" lon="8.6726733"><ele>73.0</ele><time>2026-05-01T13:16:29.518Z</time></trkpt><trkpt lat="39.5703517" lon="8.672475"><ele>73.0</ele><time>2026-05-01T13:16:30.519Z</time></trkpt><trkpt lat="39.5704" lon="8.672285"><ele>73.0</ele><time>2026-05-01T13:16:31.518Z</time></trkpt><trkpt lat="39.5704467" lon="8.6720983"><ele>72.5</ele><time>2026-05-01T13:16:32.568Z</time></trkpt><trkpt lat="39.5704933" lon="8.6719117"><ele>72.0</ele><time>2026-05-01T13:16:33.519Z</time></trkpt><trkpt lat="39.5705383" lon="8.67173"><ele>71.5</ele><time>2026-05-01T13:16:34.519Z</time></trkpt><trkpt lat="39.57058" lon="8.6715567"><ele>71.0</ele><time>2026-05-01T13:16:35.518Z</time></trkpt><trkpt lat="39.5706183" lon="8.6713933"><ele>71.0</ele><time>2026-05-01T13:16:36.518Z</time></trkpt><trkpt lat="39.5706533" lon="8.67124"><ele>71.0</ele><time>2026-05-01T13:16:37.517Z</time></trkpt><trkpt lat="39.5706833" lon="8.6710917"><ele>71.0</ele><time>2026-05-01T13:16:38.543Z</time></trkpt><trkpt lat="39.57071" lon="8.670955"><ele>71.0</ele><time>2026-05-01T13:16:39.517Z</time></trkpt><trkpt lat="39.57073" lon="8.6708283"><ele>71.0</ele><time>2026-05-01T13:16:40.519Z</time></trkpt><trkpt lat="39.570745" lon="8.6707067"><ele>71.0</ele><time>2026-05-01T13:16:41.518Z</time></trkpt><trkpt lat="39.57076" lon="8.6705867"><ele>71.0</ele><time>2026-05-01T13:16:42.518Z</time></trkpt><trkpt lat="39.570775" lon="8.6704683"><ele>71.0</ele><time>2026-05-01T13:16:43.52Z</time></trkpt><trkpt lat="39.5707883" lon="8.6703483"><ele>71.0</ele><time>2026-05-01T13:16:44.541Z</time></trkpt><trkpt lat="39.5708017" lon="8.6702283"><ele>71.0</ele><time>2026-05-01T13:16:45.522Z</time></trkpt><trkpt lat="39.570815" lon="8.6701133"><ele>71.0</ele><time>2026-05-01T13:16:46.517Z</time></trkpt><trkpt lat="39.5708267" lon="8.670005"><ele>71.0</ele><time>2026-05-01T13:16:47.52Z</time></trkpt><trkpt lat="39.57084" lon="8.6699017"><ele>71.0</ele><time>2026-05-01T13:16:48.519Z</time></trkpt><trkpt lat="39.57085" lon="8.6698083"><ele>71.0</ele><time>2026-05-01T13:16:49.516Z</time></trkpt><trkpt lat="39.5708467" lon="8.6697267"><ele>71.0</ele><time>2026-05-01T13:16:50.541Z</time></trkpt><trkpt lat="39.5708017" lon="8.669575"><ele>71.0</ele><time>2026-05-01T13:16:52.519Z</time></trkpt><trkpt lat="39.5707617" lon="8.66951"><ele>71.0</ele><time>2026-05-01T13:16:53.522Z</time></trkpt><trkpt lat="39.5707183" lon="8.66945"><ele>71.0</ele><time>2026-05-01T13:16:54.52Z</time></trkpt><trkpt lat="39.5706367" lon="8.66935"><ele>71.0</ele><time>2026-05-01T13:16:56.571Z</time></trkpt><trkpt lat="39.5705567" lon="8.669265"><ele>71.0</ele><time>2026-05-01T13:16:58.52Z</time></trkpt><trkpt lat="39.5704933" lon="8.6691967"><ele>71.0</ele><time>2026-05-01T13:17:00.518Z</time></trkpt><trkpt lat="39.5704367" lon="8.6691567"><ele>71.2</ele><time>2026-05-01T13:17:03.52Z</time></trkpt><trkpt lat="39.57037" lon="8.66915"><ele>71.39999999999999</ele><time>2026-05-01T13:17:11.52Z</time></trkpt><trkpt lat="39.57027" lon="8.669115"><ele>71.6</ele><time>2026-05-01T13:17:13.518Z</time></trkpt><trkpt lat="39.5702083" lon="8.6690983"><ele>71.8</ele><time>2026-05-01T13:17:14.542Z</time></trkpt><trkpt lat="39.5700933" lon="8.6690583"><ele>72.0</ele><time>2026-05-01T13:17:16.518Z</time></trkpt><trkpt lat="39.5699817" lon="8.6690233"><ele>72.0</ele><time>2026-05-01T13:17:18.522Z</time></trkpt><trkpt lat="39.5698683" lon="8.6689917"><ele>72.0</ele><time>2026-05-01T13:17:20.543Z</time></trkpt><trkpt lat="39.5697633" lon="8.668965"><ele>72.0</ele><time>2026-05-01T13:17:22.518Z</time></trkpt><trkpt lat="39.5696567" lon="8.6689517"><ele>72.0</ele><time>2026-05-01T13:17:24.517Z</time></trkpt><trkpt lat="39.5695633" lon="8.668935"><ele>72.0</ele><time>2026-05-01T13:17:26.572Z</time></trkpt><trkpt lat="39.5695" lon="8.668925"><ele>72.0</ele><time>2026-05-01T13:17:28.518Z</time></trkpt><trkpt lat="39.569565" lon="8.6689417"><ele>72.0</ele><time>2026-05-01T13:18:02.549Z</time></trkpt><trkpt lat="39.5696633" lon="8.6689617"><ele>72.0</ele><time>2026-05-01T13:18:04.523Z</time></trkpt><trkpt lat="39.5697267" lon="8.6689783"><ele>72.0</ele><time>2026-05-01T13:18:05.519Z</time></trkpt><trkpt lat="39.5697933" lon="8.6689967"><ele>72.0</ele><time>2026-05-01T13:18:06.519Z</time></trkpt><trkpt lat="39.5698617" lon="8.6690133"><ele>72.0</ele><time>2026-05-01T13:18:07.517Z</time></trkpt><trkpt lat="39.56998" lon="8.6690467"><ele>72.0</ele><time>2026-05-01T13:18:09.52Z</time></trkpt><trkpt lat="39.57009" lon="8.6690883"><ele>72.0</ele><time>2026-05-01T13:18:11.518Z</time></trkpt><trkpt lat="39.570215" lon="8.66912"><ele>72.0</ele><time>2026-05-01T13:18:13.522Z</time></trkpt><trkpt lat="39.5703233" lon="8.66914"><ele>72.0</ele><time>2026-05-01T13:18:15.521Z</time></trkpt><trkpt lat="39.57039" lon="8.6691367"><ele>72.0</ele><time>2026-05-01T13:18:17.517Z</time></trkpt><trkpt lat="39.5704433" lon="8.6690367"><ele>72.16666666666667</ele><time>2026-05-01T13:18:20.542Z</time></trkpt><trkpt lat="39.5704717" lon="8.6689067"><ele>72.33333333333333</ele><time>2026-05-01T13:18:22.519Z</time></trkpt><trkpt lat="39.5704867" lon="8.668815"><ele>72.5</ele><time>2026-05-01T13:18:23.521Z</time></trkpt><trkpt lat="39.5704983" lon="8.6687167"><ele>72.66666666666666</ele><time>2026-05-01T13:18:24.52Z</time></trkpt><trkpt lat="39.5705117" lon="8.66862"><ele>72.83333333333333</ele><time>2026-05-01T13:18:25.519Z</time></trkpt><trkpt lat="39.5705267" lon="8.6685183"><ele>73.0</ele><time>2026-05-01T13:18:26.575Z</time></trkpt><trkpt lat="39.5705483" lon="8.6684183"><ele>73.0</ele><time>2026-05-01T13:18:27.523Z</time></trkpt><trkpt lat="39.5705767" lon="8.6683183"><ele>73.0</ele><time>2026-05-01T13:18:28.518Z</time></trkpt><trkpt lat="39.5706117" lon="8.6682133"><ele>73.0</ele><time>2026-05-01T13:18:29.526Z</time></trkpt><trkpt lat="39.5706517" lon="8.668105"><ele>73.0</ele><time>2026-05-01T13:18:30.52Z</time></trkpt><trkpt lat="39.5706967" lon="8.6679783"><ele>73.0</ele><time>2026-05-01T13:18:31.522Z</time></trkpt><trkpt lat="39.57075" lon="8.6678483"><ele>72.8</ele><time>2026-05-01T13:18:32.552Z</time></trkpt><trkpt lat="39.5707967" lon="8.6677217"><ele>72.6</ele><time>2026-05-01T13:18:33.521Z</time></trkpt><trkpt lat="39.5708583" lon="8.6676017"><ele>72.4</ele><time>2026-05-01T13:18:34.518Z</time></trkpt><trkpt lat="39.5709167" lon="8.667475"><ele>72.2</ele><time>2026-05-01T13:18:35.52Z</time></trkpt><trkpt lat="39.5709817" lon="8.66735"><ele>72.0</ele><time>2026-05-01T13:18:36.521Z</time></trkpt><trkpt lat="39.5710433" lon="8.6672183"><ele>72.0</ele><time>2026-05-01T13:18:37.522Z</time></trkpt><trkpt lat="39.5711083" lon="8.6670883"><ele>72.0</ele><time>2026-05-01T13:18:38.544Z</time></trkpt><trkpt lat="39.5711767" lon="8.6669517"><ele>72.0</ele><time>2026-05-01T13:18:39.52Z</time></trkpt><trkpt lat="39.5712433" lon="8.6668217"><ele>72.0</ele><time>2026-05-01T13:18:40.52Z</time></trkpt><trkpt lat="39.5713117" lon="8.6667033"><ele>71.8</ele><time>2026-05-01T13:18:41.521Z</time></trkpt><trkpt lat="39.5713833" lon="8.6665917"><ele>71.6</ele><time>2026-05-01T13:18:42.522Z</time></trkpt><trkpt lat="39.5714583" lon="8.6664917"><ele>71.39999999999999</ele><time>2026-05-01T13:18:43.522Z</time></trkpt><trkpt lat="39.5715417" lon="8.6664017"><ele>71.2</ele><time>2026-05-01T13:18:44.542Z</time></trkpt><trkpt lat="39.5716483" lon="8.6663267"><ele>71.0</ele><time>2026-05-01T13:18:45.525Z</time></trkpt><trkpt lat="39.5717667" lon="8.6662517"><ele>71.0</ele><time>2026-05-01T13:18:46.517Z</time></trkpt><trkpt lat="39.5718867" lon="8.6661717"><ele>71.0</ele><time>2026-05-01T13:18:47.519Z</time></trkpt><trkpt lat="39.5720033" lon="8.6660883"><ele>71.0</ele><time>2026-05-01T13:18:48.517Z</time></trkpt><trkpt lat="39.57212" lon="8.666005"><ele>71.0</ele><time>2026-05-01T13:18:49.521Z</time></trkpt><trkpt lat="39.5722417" lon="8.6659233"><ele>70.75</ele><time>2026-05-01T13:18:50.541Z</time></trkpt><trkpt lat="39.5723633" lon="8.665845"><ele>70.5</ele><time>2026-05-01T13:18:51.522Z</time></trkpt><trkpt lat="39.57248" lon="8.6657567"><ele>70.25</ele><time>2026-05-01T13:18:52.519Z</time></trkpt><trkpt lat="39.5725983" lon="8.6656617"><ele>70.0</ele><time>2026-05-01T13:18:53.523Z</time></trkpt><trkpt lat="39.572715" lon="8.66556"><ele>70.0</ele><time>2026-05-01T13:18:54.517Z</time></trkpt><trkpt lat="39.5728333" lon="8.6654517"><ele>70.0</ele><time>2026-05-01T13:18:55.52Z</time></trkpt><trkpt lat="39.5729567" lon="8.6653417"><ele>70.0</ele><time>2026-05-01T13:18:56.581Z</time></trkpt><trkpt lat="39.5730767" lon="8.6652317"><ele>70.0</ele><time>2026-05-01T13:18:57.518Z</time></trkpt><trkpt lat="39.5732" lon="8.6651183"><ele>69.66666666666666</ele><time>2026-05-01T13:18:58.515Z</time></trkpt><trkpt lat="39.5733183" lon="8.6649967"><ele>69.33333333333333</ele><time>2026-05-01T13:18:59.521Z</time></trkpt><trkpt lat="39.5734417" lon="8.664885"><ele>69.0</ele><time>2026-05-01T13:19:00.525Z</time></trkpt><trkpt lat="39.5735767" lon="8.6647717"><ele>69.0</ele><time>2026-05-01T13:19:01.523Z</time></trkpt><trkpt lat="39.5737117" lon="8.664655"><ele>69.0</ele><time>2026-05-01T13:19:02.551Z</time></trkpt><trkpt lat="39.57385" lon="8.6645467"><ele>69.0</ele><time>2026-05-01T13:19:03.524Z</time></trkpt><trkpt lat="39.5739667" lon="8.66445"><ele>69.25</ele><time>2026-05-01T13:19:04.519Z</time></trkpt><trkpt lat="39.57408" lon="8.664355"><ele>69.5</ele><time>2026-05-01T13:19:05.523Z</time></trkpt><trkpt lat="39.574185" lon="8.6642633"><ele>69.75</ele><time>2026-05-01T13:19:06.519Z</time></trkpt><trkpt lat="39.5742583" lon="8.6641733"><ele>70.0</ele><time>2026-05-01T13:19:07.521Z</time></trkpt><trkpt lat="39.5743317" lon="8.6640733"><ele>70.0</ele><time>2026-05-01T13:19:08.54Z</time></trkpt><trkpt lat="39.5744" lon="8.663965"><ele>70.0</ele><time>2026-05-01T13:19:09.522Z</time></trkpt><trkpt lat="39.5744517" lon="8.6638517"><ele>70.0</ele><time>2026-05-01T13:19:10.523Z</time></trkpt><trkpt lat="39.5745317" lon="8.6637183"><ele>70.0</ele><time>2026-05-01T13:19:11.517Z</time></trkpt><trkpt lat="39.5746117" lon="8.6635817"><ele>69.75</ele><time>2026-05-01T13:19:12.52Z</time></trkpt><trkpt lat="39.5746917" lon="8.6634567"><ele>69.5</ele><time>2026-05-01T13:19:13.521Z</time></trkpt><trkpt lat="39.5747733" lon="8.6633233"><ele>69.25</ele><time>2026-05-01T13:19:14.545Z</time></trkpt><trkpt lat="39.5748567" lon="8.66319"><ele>69.0</ele><time>2026-05-01T13:19:15.521Z</time></trkpt><trkpt lat="39.5749283" lon="8.66304"><ele>69.0</ele><time>2026-05-01T13:19:16.52Z</time></trkpt><trkpt lat="39.5749967" lon="8.66289"><ele>69.0</ele><time>2026-05-01T13:19:17.516Z</time></trkpt><trkpt lat="39.5750517" lon="8.6627167"><ele>69.0</ele><time>2026-05-01T13:19:18.518Z</time></trkpt><trkpt lat="39.5751217" lon="8.6625383"><ele>69.0</ele><time>2026-05-01T13:19:19.525Z</time></trkpt><trkpt lat="39.5751667" lon="8.6623383"><ele>69.0</ele><time>2026-05-01T13:19:20.543Z</time></trkpt><trkpt lat="39.5752067" lon="8.6621433"><ele>69.0</ele><time>2026-05-01T13:19:21.526Z</time></trkpt><trkpt lat="39.5752633" lon="8.6619717"><ele>69.0</ele><time>2026-05-01T13:19:22.523Z</time></trkpt><trkpt lat="39.575315" lon="8.6618117"><ele>69.0</ele><time>2026-05-01T13:19:23.523Z</time></trkpt><trkpt lat="39.57536" lon="8.6616583"><ele>68.75</ele><time>2026-05-01T13:19:24.517Z</time></trkpt><trkpt lat="39.5754017" lon="8.66151"><ele>68.5</ele><time>2026-05-01T13:19:25.519Z</time></trkpt><trkpt lat="39.5754433" lon="8.6613717"><ele>68.25</ele><time>2026-05-01T13:19:26.576Z</time></trkpt><trkpt lat="39.5754767" lon="8.6612367"><ele>68.0</ele><time>2026-05-01T13:19:27.518Z</time></trkpt><trkpt lat="39.5755033" lon="8.6611017"><ele>68.0</ele><time>2026-05-01T13:19:28.52Z</time></trkpt><trkpt lat="39.5755167" lon="8.6609717"><ele>68.0</ele><time>2026-05-01T13:19:29.521Z</time></trkpt><trkpt lat="39.57549" lon="8.6608233"><ele>68.0</ele><time>2026-05-01T13:19:30.522Z</time></trkpt><trkpt lat="39.5754517" lon="8.66069"><ele>68.0</ele><time>2026-05-01T13:19:31.521Z</time></trkpt><trkpt lat="39.5754433" lon="8.66057"><ele>68.0</ele><time>2026-05-01T13:19:32.524Z</time></trkpt><trkpt lat="39.575435" lon="8.66048"><ele>68.0</ele><time>2026-05-01T13:19:33.522Z</time></trkpt><trkpt lat="39.575425" lon="8.6603883"><ele>68.0</ele><time>2026-05-01T13:19:34.52Z</time></trkpt><trkpt lat="39.5754283" lon="8.66028"><ele>68.0</ele><time>2026-05-01T13:19:36.52Z</time></trkpt><trkpt lat="39.5754283" lon="8.6601267"><ele>68.0</ele><time>2026-05-01T13:20:04.521Z</time></trkpt><trkpt lat="39.57542" lon="8.6600283"><ele>68.0</ele><time>2026-05-01T13:20:05.522Z</time></trkpt><trkpt lat="39.57541" lon="8.6599133"><ele>68.0</ele><time>2026-05-01T13:20:06.519Z</time></trkpt><trkpt lat="39.5753783" lon="8.659775"><ele>68.0</ele><time>2026-05-01T13:20:07.517Z</time></trkpt><trkpt lat="39.5753583" lon="8.659635"><ele>68.0</ele><time>2026-05-01T13:20:08.543Z</time></trkpt><trkpt lat="39.5753283" lon="8.65949"><ele>68.0</ele><time>2026-05-01T13:20:09.52Z</time></trkpt><trkpt lat="39.5753083" lon="8.6593333"><ele>68.0</ele><time>2026-05-01T13:20:10.518Z</time></trkpt><trkpt lat="39.5752883" lon="8.6591733"><ele>68.0</ele><time>2026-05-01T13:20:11.521Z</time></trkpt><trkpt lat="39.5752683" lon="8.6590283"><ele>68.0</ele><time>2026-05-01T13:20:12.519Z</time></trkpt><trkpt lat="39.5752483" lon="8.6588867"><ele>68.0</ele><time>2026-05-01T13:20:13.522Z</time></trkpt><trkpt lat="39.5752333" lon="8.6587417"><ele>68.0</ele><time>2026-05-01T13:20:14.542Z</time></trkpt><trkpt lat="39.57522" lon="8.6585933"><ele>67.75</ele><time>2026-05-01T13:20:15.52Z</time></trkpt><trkpt lat="39.575205" lon="8.6584483"><ele>67.5</ele><time>2026-05-01T13:20:16.518Z</time></trkpt><trkpt lat="39.5751817" lon="8.6582983"><ele>67.25</ele><time>2026-05-01T13:20:17.521Z</time></trkpt><trkpt lat="39.5751767" lon="8.6581583"><ele>67.0</ele><time>2026-05-01T13:20:18.52Z</time></trkpt><trkpt lat="39.5751917" lon="8.657975"><ele>67.0</ele><time>2026-05-01T13:20:19.52Z</time></trkpt><trkpt lat="39.5751933" lon="8.6578"><ele>67.0</ele><time>2026-05-01T13:20:20.543Z</time></trkpt><trkpt lat="39.5752017" lon="8.6576333"><ele>67.0</ele><time>2026-05-01T13:20:21.518Z</time></trkpt><trkpt lat="39.5752083" lon="8.6574683"><ele>67.0</ele><time>2026-05-01T13:20:22.517Z</time></trkpt><trkpt lat="39.5752133" lon="8.6573367"><ele>67.0</ele><time>2026-05-01T13:20:23.52Z</time></trkpt><trkpt lat="39.5752167" lon="8.657195"><ele>67.0</ele><time>2026-05-01T13:20:24.52Z</time></trkpt><trkpt lat="39.57521" lon="8.6570367"><ele>67.0</ele><time>2026-05-01T13:20:25.517Z</time></trkpt><trkpt lat="39.5751983" lon="8.6568783"><ele>67.0</ele><time>2026-05-01T13:20:26.568Z</time></trkpt><trkpt lat="39.5751867" lon="8.6567167"><ele>67.2</ele><time>2026-05-01T13:20:27.52Z</time></trkpt><trkpt lat="39.57517" lon="8.6565867"><ele>67.4</ele><time>2026-05-01T13:20:28.52Z</time></trkpt><trkpt lat="39.5751533" lon="8.656465"><ele>67.6</ele><time>2026-05-01T13:20:29.518Z</time></trkpt><trkpt lat="39.57513" lon="8.6563567"><ele>67.8</ele><time>2026-05-01T13:20:30.522Z</time></trkpt><trkpt lat="39.5751283" lon="8.656255"><ele>68.0</ele><time>2026-05-01T13:20:31.519Z</time></trkpt><trkpt lat="39.575145" lon="8.6561283"><ele>68.25</ele><time>2026-05-01T13:20:32.537Z</time></trkpt><trkpt lat="39.5751817" lon="8.656005"><ele>68.5</ele><time>2026-05-01T13:20:33.521Z</time></trkpt><trkpt lat="39.5752183" lon="8.6558867"><ele>68.75</ele><time>2026-05-01T13:20:34.518Z</time></trkpt><trkpt lat="39.5752783" lon="8.6557433"><ele>69.0</ele><time>2026-05-01T13:20:35.519Z</time></trkpt><trkpt lat="39.57534" lon="8.6555967"><ele>68.75</ele><time>2026-05-01T13:20:36.52Z</time></trkpt><trkpt lat="39.5754317" lon="8.6554083"><ele>68.5</ele><time>2026-05-01T13:20:37.519Z</time></trkpt><trkpt lat="39.5754967" lon="8.6552517"><ele>68.25</ele><time>2026-05-01T13:20:38.544Z</time></trkpt><trkpt lat="39.5755683" lon="8.6550967"><ele>68.0</ele><time>2026-05-01T13:20:39.516Z</time></trkpt><trkpt lat="39.575645" lon="8.654935"><ele>68.0</ele><time>2026-05-01T13:20:40.517Z</time></trkpt><trkpt lat="39.5756983" lon="8.6548083"><ele>68.0</ele><time>2026-05-01T13:20:41.518Z</time></trkpt><trkpt lat="39.57574" lon="8.6546933"><ele>68.0</ele><time>2026-05-01T13:20:42.519Z</time></trkpt><trkpt lat="39.57578" lon="8.6545517"><ele>68.0</ele><time>2026-05-01T13:20:43.518Z</time></trkpt><trkpt lat="39.5758167" lon="8.6544333"><ele>68.0</ele><time>2026-05-01T13:20:44.542Z</time></trkpt><trkpt lat="39.575835" lon="8.6543133"><ele>67.8</ele><time>2026-05-01T13:20:45.517Z</time></trkpt><trkpt lat="39.57585" lon="8.6542083"><ele>67.6</ele><time>2026-05-01T13:20:46.516Z</time></trkpt><trkpt lat="39.575865" lon="8.654105"><ele>67.4</ele><time>2026-05-01T13:20:47.518Z</time></trkpt><trkpt lat="39.5758717" lon="8.65402"><ele>67.2</ele><time>2026-05-01T13:20:48.518Z</time></trkpt><trkpt lat="39.5758283" lon="8.6539017"><ele>67.0</ele><time>2026-05-01T13:20:50.542Z</time></trkpt><trkpt lat="39.5757017" lon="8.653855"><ele>67.0</ele><time>2026-05-01T13:20:52.519Z</time></trkpt><trkpt lat="39.5756167" lon="8.6538483"><ele>67.0</ele><time>2026-05-01T13:20:53.518Z</time></trkpt><trkpt lat="39.5755233" lon="8.6538483"><ele>67.0</ele><time>2026-05-01T13:20:54.519Z</time></trkpt><trkpt lat="39.5754117" lon="8.6538483"><ele>67.0</ele><time>2026-05-01T13:20:55.517Z</time></trkpt><trkpt lat="39.5752667" lon="8.65387"><ele>67.0</ele><time>2026-05-01T13:20:56.566Z</time></trkpt><trkpt lat="39.5751283" lon="8.6538733"><ele>67.5</ele><time>2026-05-01T13:20:57.517Z</time></trkpt><trkpt lat="39.5749883" lon="8.653855"><ele>68.0</ele><time>2026-05-01T13:20:58.517Z</time></trkpt><trkpt lat="39.5748583" lon="8.6538117"><ele>68.5</ele><time>2026-05-01T13:20:59.518Z</time></trkpt><trkpt lat="39.5747217" lon="8.6537567"><ele>69.0</ele><time>2026-05-01T13:21:00.514Z</time></trkpt><trkpt lat="39.57459" lon="8.6537017"><ele>68.66666666666667</ele><time>2026-05-01T13:21:01.517Z</time></trkpt><trkpt lat="39.5744533" lon="8.6536233"><ele>68.33333333333334</ele><time>2026-05-01T13:21:02.567Z</time></trkpt><trkpt lat="39.5743167" lon="8.6535283"><ele>68.0</ele><time>2026-05-01T13:21:03.516Z</time></trkpt><trkpt lat="39.57418" lon="8.6534333"><ele>68.0</ele><time>2026-05-01T13:21:04.516Z</time></trkpt><trkpt lat="39.574055" lon="8.653335"><ele>68.0</ele><time>2026-05-01T13:21:05.518Z</time></trkpt><trkpt lat="39.5739183" lon="8.6532317"><ele>68.0</ele><time>2026-05-01T13:21:06.519Z</time></trkpt><trkpt lat="39.5737833" lon="8.6531383"><ele>68.66666666666667</ele><time>2026-05-01T13:21:07.518Z</time></trkpt><trkpt lat="39.573645" lon="8.6530233"><ele>69.33333333333333</ele><time>2026-05-01T13:21:08.542Z</time></trkpt><trkpt lat="39.57353" lon="8.6529033"><ele>70.0</ele><time>2026-05-01T13:21:09.52Z</time></trkpt><trkpt lat="39.5733967" lon="8.652825"><ele>70.25</ele><time>2026-05-01T13:21:10.52Z</time></trkpt><trkpt lat="39.5732883" lon="8.6527167"><ele>70.5</ele><time>2026-05-01T13:21:11.519Z</time></trkpt><trkpt lat="39.5731433" lon="8.65264"><ele>70.75</ele><time>2026-05-01T13:21:12.518Z</time></trkpt><trkpt lat="39.5730133" lon="8.652565"><ele>71.0</ele><time>2026-05-01T13:21:13.515Z</time></trkpt><trkpt lat="39.572915" lon="8.65244"><ele>71.25</ele><time>2026-05-01T13:21:14.542Z</time></trkpt><trkpt lat="39.57279" lon="8.6523367"><ele>71.5</ele><time>2026-05-01T13:21:15.518Z</time></trkpt><trkpt lat="39.5726683" lon="8.6522183"><ele>71.75</ele><time>2026-05-01T13:21:16.516Z</time></trkpt><trkpt lat="39.5725533" lon="8.65212"><ele>72.0</ele><time>2026-05-01T13:21:17.517Z</time></trkpt><trkpt lat="39.5724417" lon="8.6520367"><ele>71.75</ele><time>2026-05-01T13:21:18.519Z</time></trkpt><trkpt lat="39.5723317" lon="8.65191"><ele>71.5</ele><time>2026-05-01T13:21:19.516Z</time></trkpt><trkpt lat="39.572225" lon="8.65178"><ele>71.25</ele><time>2026-05-01T13:21:20.542Z</time></trkpt><trkpt lat="39.57209" lon="8.6516817"><ele>71.0</ele><time>2026-05-01T13:21:21.518Z</time></trkpt><trkpt lat="39.57198" lon="8.6515417"><ele>71.0</ele><time>2026-05-01T13:21:22.517Z</time></trkpt><trkpt lat="39.5718733" lon="8.6513967"><ele>71.0</ele><time>2026-05-01T13:21:23.52Z</time></trkpt><trkpt lat="39.5717717" lon="8.651255"><ele>71.0</ele><time>2026-05-01T13:21:24.519Z</time></trkpt><trkpt lat="39.57166" lon="8.6511583"><ele>71.0</ele><time>2026-05-01T13:21:25.517Z</time></trkpt><trkpt lat="39.5715683" lon="8.651015"><ele>71.0</ele><time>2026-05-01T13:21:26.549Z</time></trkpt><trkpt lat="39.5714683" lon="8.6508733"><ele>71.0</ele><time>2026-05-01T13:21:27.516Z</time></trkpt><trkpt lat="39.5713467" lon="8.650755"><ele>71.0</ele><time>2026-05-01T13:21:28.517Z</time></trkpt><trkpt lat="39.571235" lon="8.6506233"><ele>71.33333333333334</ele><time>2026-05-01T13:21:29.519Z</time></trkpt><trkpt lat="39.5711067" lon="8.650485"><ele>71.66666666666667</ele><time>2026-05-01T13:21:30.519Z</time></trkpt><trkpt lat="39.57098" lon="8.65037"><ele>72.0</ele><time>2026-05-01T13:21:31.518Z</time></trkpt><trkpt lat="39.5708833" lon="8.650245"><ele>72.25</ele><time>2026-05-01T13:21:32.568Z</time></trkpt><trkpt lat="39.57076" lon="8.650145"><ele>72.5</ele><time>2026-05-01T13:21:33.519Z</time></trkpt><trkpt lat="39.570655" lon="8.6500233"><ele>72.75</ele><time>2026-05-01T13:21:34.518Z</time></trkpt><trkpt lat="39.5705517" lon="8.6499083"><ele>73.0</ele><time>2026-05-01T13:21:35.518Z</time></trkpt><trkpt lat="39.5704533" lon="8.6497817"><ele>72.75</ele><time>2026-05-01T13:21:36.52Z</time></trkpt><trkpt lat="39.5703333" lon="8.6496883"><ele>72.5</ele><time>2026-05-01T13:21:37.522Z</time></trkpt><trkpt lat="39.57021" lon="8.6495583"><ele>72.25</ele><time>2026-05-01T13:21:38.541Z</time></trkpt><trkpt lat="39.5701" lon="8.6494433"><ele>72.0</ele><time>2026-05-01T13:21:39.52Z</time></trkpt><trkpt lat="39.570005" lon="8.6493283"><ele>72.0</ele><time>2026-05-01T13:21:40.516Z</time></trkpt><trkpt lat="39.5699217" lon="8.6492217"><ele>72.0</ele><time>2026-05-01T13:21:41.518Z</time></trkpt><trkpt lat="39.569845" lon="8.6491333"><ele>72.0</ele><time>2026-05-01T13:21:42.521Z</time></trkpt><trkpt lat="39.56979" lon="8.6490383"><ele>72.0</ele><time>2026-05-01T13:21:43.519Z</time></trkpt><trkpt lat="39.5697433" lon="8.64896"><ele>72.0</ele><time>2026-05-01T13:21:44.543Z</time></trkpt><trkpt lat="39.5696983" lon="8.6489017"><ele>72.0</ele><time>2026-05-01T13:21:45.52Z</time></trkpt><trkpt lat="39.5696533" lon="8.6488167"><ele>72.0</ele><time>2026-05-01T13:21:47.52Z</time></trkpt><trkpt lat="39.5696283" lon="8.6487117"><ele>72.0</ele><time>2026-05-01T13:21:53.516Z</time></trkpt><trkpt lat="39.5695467" lon="8.6485883"><ele>72.0</ele><time>2026-05-01T13:21:55.519Z</time></trkpt><trkpt lat="39.5695017" lon="8.64852"><ele>72.0</ele><time>2026-05-01T13:21:56.551Z</time></trkpt><trkpt lat="39.5694617" lon="8.6484483"><ele>72.0</ele><time>2026-05-01T13:21:57.521Z</time></trkpt><trkpt lat="39.5694183" lon="8.6483817"><ele>72.5</ele><time>2026-05-01T13:21:58.517Z</time></trkpt><trkpt lat="39.5693767" lon="8.6483183"><ele>73.0</ele><time>2026-05-01T13:21:59.521Z</time></trkpt><trkpt lat="39.569335" lon="8.648255"><ele>73.5</ele><time>2026-05-01T13:22:00.517Z</time></trkpt><trkpt lat="39.5692517" lon="8.648145"><ele>74.0</ele><time>2026-05-01T13:22:02.519Z</time></trkpt><trkpt lat="39.5692017" lon="8.648075"><ele>74.5</ele><time>2026-05-01T13:22:04.519Z</time></trkpt><trkpt lat="39.5691417" lon="8.6480017"><ele>75.0</ele><time>2026-05-01T13:22:29.516Z</time></trkpt><trkpt lat="39.5690117" lon="8.647885"><ele>75.0</ele><time>2026-05-01T13:22:31.519Z</time></trkpt><trkpt lat="39.56892" lon="8.6478167"><ele>75.0</ele><time>2026-05-01T13:22:32.565Z</time></trkpt><trkpt lat="39.5688267" lon="8.6477467"><ele>75.0</ele><time>2026-05-01T13:22:33.518Z</time></trkpt><trkpt lat="39.5687333" lon="8.647665"><ele>75.0</ele><time>2026-05-01T13:22:34.516Z</time></trkpt><trkpt lat="39.56864" lon="8.647615"><ele>75.0</ele><time>2026-05-01T13:22:35.516Z</time></trkpt><trkpt lat="39.5685483" lon="8.6475367"><ele>75.0</ele><time>2026-05-01T13:22:36.518Z</time></trkpt><trkpt lat="39.5684567" lon="8.6474517"><ele>75.0</ele><time>2026-05-01T13:22:37.517Z</time></trkpt><trkpt lat="39.5683833" lon="8.647395"><ele>75.0</ele><time>2026-05-01T13:22:38.542Z</time></trkpt><trkpt lat="39.56831" lon="8.6473333"><ele>75.0</ele><time>2026-05-01T13:22:39.518Z</time></trkpt><trkpt lat="39.5682317" lon="8.6472817"><ele>75.0</ele><time>2026-05-01T13:22:40.518Z</time></trkpt><trkpt lat="39.568155" lon="8.6472333"><ele>75.0</ele><time>2026-05-01T13:22:41.519Z</time></trkpt><trkpt lat="39.568075" lon="8.6471867"><ele>75.0</ele><time>2026-05-01T13:22:42.518Z</time></trkpt><trkpt lat="39.5679967" lon="8.6471317"><ele>75.0</ele><time>2026-05-01T13:22:43.517Z</time></trkpt><trkpt lat="39.5679167" lon="8.6470833"><ele>75.0</ele><time>2026-05-01T13:22:44.543Z</time></trkpt><trkpt lat="39.567845" lon="8.647025"><ele>75.0</ele><time>2026-05-01T13:22:45.52Z</time></trkpt><trkpt lat="39.5677717" lon="8.6469617"><ele>75.0</ele><time>2026-05-01T13:22:46.516Z</time></trkpt><trkpt lat="39.5677" lon="8.6468967"><ele>74.6</ele><time>2026-05-01T13:22:47.518Z</time></trkpt><trkpt lat="39.567625" lon="8.6468317"><ele>74.2</ele><time>2026-05-01T13:22:48.518Z</time></trkpt><trkpt lat="39.5675483" lon="8.64677"><ele>73.8</ele><time>2026-05-01T13:22:49.517Z</time></trkpt><trkpt lat="39.5674683" lon="8.6467067"><ele>73.4</ele><time>2026-05-01T13:22:50.54Z</time></trkpt><trkpt lat="39.5673833" lon="8.6466517"><ele>73.0</ele><time>2026-05-01T13:22:51.519Z</time></trkpt><trkpt lat="39.5672917" lon="8.6465967"><ele>73.0</ele><time>2026-05-01T13:22:52.516Z</time></trkpt><trkpt lat="39.567195" lon="8.6465433"><ele>73.0</ele><time>2026-05-01T13:22:53.518Z</time></trkpt><trkpt lat="39.5670967" lon="8.6465083"><ele>73.0</ele><time>2026-05-01T13:22:54.516Z</time></trkpt><trkpt lat="39.5670133" lon="8.6464567"><ele>73.0</ele><time>2026-05-01T13:22:55.517Z</time></trkpt><trkpt lat="39.5669283" lon="8.6464067"><ele>73.0</ele><time>2026-05-01T13:22:56.564Z</time></trkpt><trkpt lat="39.566845" lon="8.64636"><ele>73.2</ele><time>2026-05-01T13:22:57.521Z</time></trkpt><trkpt lat="39.5667567" lon="8.6463117"><ele>73.4</ele><time>2026-05-01T13:22:58.518Z</time></trkpt><trkpt lat="39.566685" lon="8.6462617"><ele>73.60000000000001</ele><time>2026-05-01T13:22:59.518Z</time></trkpt><trkpt lat="39.5665967" lon="8.6462017"><ele>73.8</ele><time>2026-05-01T13:23:00.518Z</time></trkpt><trkpt lat="39.5665083" lon="8.6461483"><ele>74.0</ele><time>2026-05-01T13:23:01.518Z</time></trkpt><trkpt lat="39.566415" lon="8.646105"><ele>74.0</ele><time>2026-05-01T13:23:02.547Z</time></trkpt><trkpt lat="39.5663317" lon="8.646065"><ele>74.0</ele><time>2026-05-01T13:23:03.519Z</time></trkpt><trkpt lat="39.5662417" lon="8.646015"><ele>74.0</ele><time>2026-05-01T13:23:04.519Z</time></trkpt><trkpt lat="39.5661533" lon="8.6459617"><ele>74.0</ele><time>2026-05-01T13:23:05.519Z</time></trkpt><trkpt lat="39.56607" lon="8.6459167"><ele>74.0</ele><time>2026-05-01T13:23:06.52Z</time></trkpt><trkpt lat="39.565985" lon="8.645865"><ele>74.2</ele><time>2026-05-01T13:23:07.517Z</time></trkpt><trkpt lat="39.5658883" lon="8.64583"><ele>74.4</ele><time>2026-05-01T13:23:08.541Z</time></trkpt><trkpt lat="39.565795" lon="8.6457917"><ele>74.6</ele><time>2026-05-01T13:23:09.516Z</time></trkpt><trkpt lat="39.5657" lon="8.6457367"><ele>74.8</ele><time>2026-05-01T13:23:10.516Z</time></trkpt><trkpt lat="39.56561" lon="8.6456817"><ele>75.0</ele><time>2026-05-01T13:23:11.517Z</time></trkpt><trkpt lat="39.5655217" lon="8.645655"><ele>75.0</ele><time>2026-05-01T13:23:12.516Z</time></trkpt><trkpt lat="39.5654433" lon="8.6456067"><ele>75.0</ele><time>2026-05-01T13:23:13.518Z</time></trkpt><trkpt lat="39.565375" lon="8.6455533"><ele>75.0</ele><time>2026-05-01T13:23:14.54Z</time></trkpt><trkpt lat="39.5653083" lon="8.64551"><ele>75.0</ele><time>2026-05-01T13:23:15.518Z</time></trkpt><trkpt lat="39.5652433" lon="8.6454717"><ele>75.0</ele><time>2026-05-01T13:23:16.519Z</time></trkpt><trkpt lat="39.5651483" lon="8.645395"><ele>75.0</ele><time>2026-05-01T13:23:18.518Z</time></trkpt><trkpt lat="39.5650833" lon="8.6453"><ele>75.6</ele><time>2026-05-01T13:23:20.543Z</time></trkpt><trkpt lat="39.565025" lon="8.64518"><ele>76.2</ele><time>2026-05-01T13:23:22.52Z</time></trkpt><trkpt lat="39.5649583" lon="8.6450617"><ele>76.8</ele><time>2026-05-01T13:23:24.518Z</time></trkpt><trkpt lat="39.5648633" lon="8.644965"><ele>77.4</ele><time>2026-05-01T13:23:26.567Z</time></trkpt><trkpt lat="39.5648067" lon="8.6449233"><ele>78.0</ele><time>2026-05-01T13:23:27.518Z</time></trkpt><trkpt lat="39.564745" lon="8.6448833"><ele>78.0</ele><time>2026-05-01T13:23:28.519Z</time></trkpt><trkpt lat="39.5646783" lon="8.644845"><ele>78.0</ele><time>2026-05-01T13:23:29.517Z</time></trkpt><trkpt lat="39.5646083" lon="8.64481"><ele>78.0</ele><time>2026-05-01T13:23:30.517Z</time></trkpt><trkpt lat="39.5645417" lon="8.6447717"><ele>78.0</ele><time>2026-05-01T13:23:31.518Z</time></trkpt><trkpt lat="39.5644717" lon="8.6447283"><ele>78.0</ele><time>2026-05-01T13:23:32.567Z</time></trkpt><trkpt lat="39.5644017" lon="8.6446867"><ele>78.0</ele><time>2026-05-01T13:23:33.518Z</time></trkpt><trkpt lat="39.5643333" lon="8.644645"><ele>78.0</ele><time>2026-05-01T13:23:34.515Z</time></trkpt><trkpt lat="39.5642633" lon="8.6445883"><ele>78.0</ele><time>2026-05-01T13:23:35.516Z</time></trkpt><trkpt lat="39.5641883" lon="8.64453"><ele>78.0</ele><time>2026-05-01T13:23:36.519Z</time></trkpt><trkpt lat="39.5641133" lon="8.644465"><ele>78.0</ele><time>2026-05-01T13:23:37.517Z</time></trkpt><trkpt lat="39.56404" lon="8.644385"><ele>78.0</ele><time>2026-05-01T13:23:38.542Z</time></trkpt><trkpt lat="39.5639733" lon="8.6443033"><ele>78.0</ele><time>2026-05-01T13:23:39.524Z</time></trkpt><trkpt lat="39.563895" lon="8.6442267"><ele>78.0</ele><time>2026-05-01T13:23:40.517Z</time></trkpt><trkpt lat="39.5638183" lon="8.6441517"><ele>78.0</ele><time>2026-05-01T13:23:41.519Z</time></trkpt><trkpt lat="39.5637367" lon="8.6440733"><ele>78.0</ele><time>2026-05-01T13:23:42.522Z</time></trkpt><trkpt lat="39.563655" lon="8.6439967"><ele>78.0</ele><time>2026-05-01T13:23:43.523Z</time></trkpt><trkpt lat="39.5635767" lon="8.643925"><ele>78.0</ele><time>2026-05-01T13:23:44.542Z</time></trkpt><trkpt lat="39.56349" lon="8.6438467"><ele>78.0</ele><time>2026-05-01T13:23:45.518Z</time></trkpt><trkpt lat="39.5633933" lon="8.6437683"><ele>78.0</ele><time>2026-05-01T13:23:46.516Z</time></trkpt><trkpt lat="39.5632983" lon="8.64368"><ele>78.0</ele><time>2026-05-01T13:23:47.518Z</time></trkpt><trkpt lat="39.5632083" lon="8.643595"><ele>78.0</ele><time>2026-05-01T13:23:48.519Z</time></trkpt><trkpt lat="39.5631217" lon="8.643505"><ele>78.0</ele><time>2026-05-01T13:23:49.516Z</time></trkpt><trkpt lat="39.5630283" lon="8.64344"><ele>78.0</ele><time>2026-05-01T13:23:50.54Z</time></trkpt><trkpt lat="39.56297" lon="8.6433817"><ele>78.0</ele><time>2026-05-01T13:23:51.52Z</time></trkpt><trkpt lat="39.56291" lon="8.643325"><ele>78.0</ele><time>2026-05-01T13:23:52.517Z</time></trkpt><trkpt lat="39.5628533" lon="8.6432667"><ele>78.0</ele><time>2026-05-01T13:23:53.518Z</time></trkpt><trkpt lat="39.5627983" lon="8.6432083"><ele>78.0</ele><time>2026-05-01T13:23:54.52Z</time></trkpt><trkpt lat="39.562705" lon="8.6431567"><ele>78.16666666666667</ele><time>2026-05-01T13:23:56.548Z</time></trkpt><trkpt lat="39.5626417" lon="8.6431217"><ele>78.33333333333333</ele><time>2026-05-01T13:23:58.516Z</time></trkpt><trkpt lat="39.5625833" lon="8.6430683"><ele>78.5</ele><time>2026-05-01T13:24:01.52Z</time></trkpt><trkpt lat="39.5626" lon="8.642965"><ele>78.66666666666666</ele><time>2026-05-01T13:24:05.52Z</time></trkpt><trkpt lat="39.5626233" lon="8.6428483"><ele>78.83333333333333</ele><time>2026-05-01T13:24:08.543Z</time></trkpt><trkpt lat="39.5626117" lon="8.642725"><ele>79.0</ele><time>2026-05-01T13:24:10.517Z</time></trkpt><trkpt lat="39.5625583" lon="8.6425783"><ele>79.16666666666666</ele><time>2026-05-01T13:24:12.518Z</time></trkpt><trkpt lat="39.5625117" lon="8.642505"><ele>79.33333333333333</ele><time>2026-05-01T13:24:13.518Z</time></trkpt><trkpt lat="39.5624633" lon="8.6424267"><ele>79.5</ele><time>2026-05-01T13:24:14.545Z</time></trkpt><trkpt lat="39.56241" lon="8.6423433"><ele>79.66666666666667</ele><time>2026-05-01T13:24:15.523Z</time></trkpt><trkpt lat="39.5623567" lon="8.6422467"><ele>79.83333333333334</ele><time>2026-05-01T13:24:16.518Z</time></trkpt><trkpt lat="39.56231" lon="8.6421433"><ele>80.0</ele><time>2026-05-01T13:24:17.522Z</time></trkpt><trkpt lat="39.562275" lon="8.642015"><ele>79.83333333333334</ele><time>2026-05-01T13:24:18.519Z</time></trkpt><trkpt lat="39.56224" lon="8.641905"><ele>79.66666666666667</ele><time>2026-05-01T13:24:19.519Z</time></trkpt><trkpt lat="39.5621983" lon="8.64181"><ele>79.5</ele><time>2026-05-01T13:24:20.542Z</time></trkpt><trkpt lat="39.5621517" lon="8.6417217"><ele>79.33333333333333</ele><time>2026-05-01T13:24:21.518Z</time></trkpt><trkpt lat="39.5621017" lon="8.6416433"><ele>79.16666666666666</ele><time>2026-05-01T13:24:22.519Z</time></trkpt><trkpt lat="39.5620433" lon="8.6415633"><ele>79.0</ele><time>2026-05-01T13:24:23.516Z</time></trkpt><trkpt lat="39.5619817" lon="8.64148"><ele>78.83333333333333</ele><time>2026-05-01T13:24:24.519Z</time></trkpt><trkpt lat="39.5619217" lon="8.6413917"><ele>78.66666666666666</ele><time>2026-05-01T13:24:25.518Z</time></trkpt><trkpt lat="39.5618683" lon="8.6413017"><ele>78.5</ele><time>2026-05-01T13:24:26.566Z</time></trkpt><trkpt lat="39.5618217" lon="8.6412033"><ele>78.33333333333333</ele><time>2026-05-01T13:24:27.518Z</time></trkpt><trkpt lat="39.56178" lon="8.6411067"><ele>78.16666666666667</ele><time>2026-05-01T13:24:28.517Z</time></trkpt><trkpt lat="39.5617433" lon="8.6410217"><ele>78.0</ele><time>2026-05-01T13:24:29.519Z</time></trkpt><trkpt lat="39.5617083" lon="8.64095"><ele>78.5</ele><time>2026-05-01T13:24:30.52Z</time></trkpt><trkpt lat="39.5616333" lon="8.640825"><ele>79.0</ele><time>2026-05-01T13:24:32.563Z</time></trkpt><trkpt lat="39.561585" lon="8.6407633"><ele>79.5</ele><time>2026-05-01T13:24:33.517Z</time></trkpt><trkpt lat="39.56153" lon="8.6406967"><ele>80.0</ele><time>2026-05-01T13:24:34.517Z</time></trkpt><trkpt lat="39.5614767" lon="8.6406333"><ele>80.5</ele><time>2026-05-01T13:24:35.516Z</time></trkpt><trkpt lat="39.56142" lon="8.6405767"><ele>81.0</ele><time>2026-05-01T13:24:36.518Z</time></trkpt><trkpt lat="39.56136" lon="8.6405267"><ele>81.0</ele><time>2026-05-01T13:24:37.517Z</time></trkpt><trkpt lat="39.5613033" lon="8.640485"><ele>81.0</ele><time>2026-05-01T13:24:38.543Z</time></trkpt><trkpt lat="39.561215" lon="8.6404133"><ele>81.0</ele><time>2026-05-01T13:24:40.517Z</time></trkpt><trkpt lat="39.5611533" lon="8.6403633"><ele>81.0</ele><time>2026-05-01T13:24:42.52Z</time></trkpt><trkpt lat="39.5610617" lon="8.6403133"><ele>81.0</ele><time>2026-05-01T13:24:45.517Z</time></trkpt><trkpt lat="39.560975" lon="8.6402317"><ele>81.0</ele><time>2026-05-01T13:24:47.518Z</time></trkpt><trkpt lat="39.5608883" lon="8.6401567"><ele>82.0</ele><time>2026-05-01T13:24:49.517Z</time></trkpt><trkpt lat="39.5608067" lon="8.6400733"><ele>83.0</ele><time>2026-05-01T13:24:51.519Z</time></trkpt><trkpt lat="39.56074" lon="8.6399817"><ele>84.0</ele><time>2026-05-01T13:24:53.52Z</time></trkpt><trkpt lat="39.5606933" lon="8.6398733"><ele>85.0</ele><time>2026-05-01T13:24:55.52Z</time></trkpt><trkpt lat="39.560655" lon="8.6397617"><ele>86.0</ele><time>2026-05-01T13:24:57.519Z</time></trkpt><trkpt lat="39.5606183" lon="8.6396333"><ele>86.0</ele><time>2026-05-01T13:24:59.517Z</time></trkpt><trkpt lat="39.56057" lon="8.6394983"><ele>86.0</ele><time>2026-05-01T13:25:01.516Z</time></trkpt><trkpt lat="39.560515" lon="8.6393667"><ele>86.0</ele><time>2026-05-01T13:25:03.519Z</time></trkpt><trkpt lat="39.560455" lon="8.6392417"><ele>86.0</ele><time>2026-05-01T13:25:05.518Z</time></trkpt><trkpt lat="39.5603933" lon="8.6391083"><ele>86.33333333333334</ele><time>2026-05-01T13:25:07.516Z</time></trkpt><trkpt lat="39.560335" lon="8.6389733"><ele>86.66666666666667</ele><time>2026-05-01T13:25:09.517Z</time></trkpt><trkpt lat="39.5603" lon="8.6389033"><ele>87.0</ele><time>2026-05-01T13:25:10.517Z</time></trkpt><trkpt lat="39.5602633" lon="8.638835"><ele>87.33333333333333</ele><time>2026-05-01T13:25:11.52Z</time></trkpt><trkpt lat="39.5601983" lon="8.6386917"><ele>87.66666666666666</ele><time>2026-05-01T13:25:13.516Z</time></trkpt><trkpt lat="39.5601667" lon="8.6386183"><ele>88.0</ele><time>2026-05-01T13:25:14.541Z</time></trkpt><trkpt lat="39.5601383" lon="8.63854"><ele>88.28571428571429</ele><time>2026-05-01T13:25:15.52Z</time></trkpt><trkpt lat="39.5601133" lon="8.6384617"><ele>88.57142857142857</ele><time>2026-05-01T13:25:16.516Z</time></trkpt><trkpt lat="39.5600983" lon="8.638375"><ele>88.85714285714286</ele><time>2026-05-01T13:25:17.517Z</time></trkpt><trkpt lat="39.5600867" lon="8.638285"><ele>89.14285714285714</ele><time>2026-05-01T13:25:18.518Z</time></trkpt><trkpt lat="39.5600783" lon="8.6381883"><ele>89.42857142857143</ele><time>2026-05-01T13:25:19.517Z</time></trkpt><trkpt lat="39.5600717" lon="8.63809"><ele>89.71428571428571</ele><time>2026-05-01T13:25:20.543Z</time></trkpt><trkpt lat="39.5600583" lon="8.6379917"><ele>90.0</ele><time>2026-05-01T13:25:21.52Z</time></trkpt><trkpt lat="39.5600533" lon="8.637895"><ele>89.66666666666667</ele><time>2026-05-01T13:25:22.52Z</time></trkpt><trkpt lat="39.5600533" lon="8.6378"><ele>89.33333333333333</ele><time>2026-05-01T13:25:23.517Z</time></trkpt><trkpt lat="39.5600567" lon="8.637705"><ele>89.0</ele><time>2026-05-01T13:25:24.519Z</time></trkpt><trkpt lat="39.560065" lon="8.6376017"><ele>88.66666666666666</ele><time>2026-05-01T13:25:25.52Z</time></trkpt><trkpt lat="39.5600667" lon="8.6374917"><ele>88.33333333333333</ele><time>2026-05-01T13:25:26.57Z</time></trkpt><trkpt lat="39.5600683" lon="8.6373783"><ele>88.0</ele><time>2026-05-01T13:25:27.519Z</time></trkpt><trkpt lat="39.560065" lon="8.6372617"><ele>88.0</ele><time>2026-05-01T13:25:28.516Z</time></trkpt><trkpt lat="39.56006" lon="8.6371417"><ele>88.0</ele><time>2026-05-01T13:25:29.517Z</time></trkpt><trkpt lat="39.56006" lon="8.6369967"><ele>88.0</ele><time>2026-05-01T13:25:30.518Z</time></trkpt><trkpt lat="39.5600617" lon="8.6368517"><ele>88.0</ele><time>2026-05-01T13:25:31.515Z</time></trkpt><trkpt lat="39.5600633" lon="8.6367283"><ele>88.0</ele><time>2026-05-01T13:25:32.565Z</time></trkpt><trkpt lat="39.56007" lon="8.6366233"><ele>88.33333333333333</ele><time>2026-05-01T13:25:33.517Z</time></trkpt><trkpt lat="39.5600717" lon="8.6365233"><ele>88.66666666666666</ele><time>2026-05-01T13:25:34.519Z</time></trkpt><trkpt lat="39.5600783" lon="8.636415"><ele>89.0</ele><time>2026-05-01T13:25:35.519Z</time></trkpt><trkpt lat="39.560075" lon="8.6363067"><ele>89.33333333333333</ele><time>2026-05-01T13:25:36.517Z</time></trkpt><trkpt lat="39.5600717" lon="8.6361967"><ele>89.66666666666667</ele><time>2026-05-01T13:25:37.513Z</time></trkpt><trkpt lat="39.5600667" lon="8.63609"><ele>90.0</ele><time>2026-05-01T13:25:38.54Z</time></trkpt><trkpt lat="39.560065" lon="8.6359867"><ele>90.33333333333333</ele><time>2026-05-01T13:25:39.518Z</time></trkpt><trkpt lat="39.56007" lon="8.6358833"><ele>90.66666666666667</ele><time>2026-05-01T13:25:40.516Z</time></trkpt><trkpt lat="39.5600783" lon="8.635775"><ele>91.0</ele><time>2026-05-01T13:25:41.517Z</time></trkpt><trkpt lat="39.560085" lon="8.63567"><ele>91.33333333333334</ele><time>2026-05-01T13:25:42.515Z</time></trkpt><trkpt lat="39.5600917" lon="8.635555"><ele>91.66666666666667</ele><time>2026-05-01T13:25:43.516Z</time></trkpt><trkpt lat="39.5600983" lon="8.6354383"><ele>92.0</ele><time>2026-05-01T13:25:44.541Z</time></trkpt><trkpt lat="39.560105" lon="8.6353133"><ele>92.0</ele><time>2026-05-01T13:25:45.518Z</time></trkpt><trkpt lat="39.5601183" lon="8.6351633"><ele>92.0</ele><time>2026-05-01T13:25:46.515Z</time></trkpt><trkpt lat="39.5601283" lon="8.635015"><ele>92.0</ele><time>2026-05-01T13:25:47.518Z</time></trkpt><trkpt lat="39.5601417" lon="8.6348633"><ele>92.0</ele><time>2026-05-01T13:25:48.517Z</time></trkpt><trkpt lat="39.560145" lon="8.634735"><ele>92.0</ele><time>2026-05-01T13:25:49.518Z</time></trkpt><trkpt lat="39.5601433" lon="8.6346333"><ele>92.0</ele><time>2026-05-01T13:25:50.541Z</time></trkpt><trkpt lat="39.5601417" lon="8.6345183"><ele>92.0</ele><time>2026-05-01T13:25:51.514Z</time></trkpt><trkpt lat="39.5601383" lon="8.63442"><ele>92.0</ele><time>2026-05-01T13:25:52.515Z</time></trkpt><trkpt lat="39.5601383" lon="8.6343317"><ele>92.0</ele><time>2026-05-01T13:25:53.516Z</time></trkpt><trkpt lat="39.5601483" lon="8.6342383"><ele>92.0</ele><time>2026-05-01T13:25:54.516Z</time></trkpt><trkpt lat="39.5601617" lon="8.6341417"><ele>92.0</ele><time>2026-05-01T13:25:55.515Z</time></trkpt><trkpt lat="39.56018" lon="8.6340467"><ele>92.5</ele><time>2026-05-01T13:25:56.534Z</time></trkpt><trkpt lat="39.5601933" lon="8.63395"><ele>93.0</ele><time>2026-05-01T13:25:57.518Z</time></trkpt><trkpt lat="39.5602067" lon="8.6338533"><ele>93.5</ele><time>2026-05-01T13:25:58.515Z</time></trkpt><trkpt lat="39.5602183" lon="8.633755"><ele>94.0</ele><time>2026-05-01T13:25:59.515Z</time></trkpt><trkpt lat="39.5602333" lon="8.633655"><ele>94.5</ele><time>2026-05-01T13:26:00.515Z</time></trkpt><trkpt lat="39.560245" lon="8.6335617"><ele>95.0</ele><time>2026-05-01T13:26:01.514Z</time></trkpt><trkpt lat="39.560255" lon="8.6334717"><ele>95.33333333333334</ele><time>2026-05-01T13:26:02.566Z</time></trkpt><trkpt lat="39.56027" lon="8.63338"><ele>95.66666666666667</ele><time>2026-05-01T13:26:03.522Z</time></trkpt><trkpt lat="39.560285" lon="8.6332883"><ele>96.0</ele><time>2026-05-01T13:26:04.515Z</time></trkpt><trkpt lat="39.5603017" lon="8.6331933"><ele>96.33333333333334</ele><time>2026-05-01T13:26:05.514Z</time></trkpt><trkpt lat="39.560315" lon="8.633095"><ele>96.66666666666667</ele><time>2026-05-01T13:26:06.516Z</time></trkpt><trkpt lat="39.560325" lon="8.6329933"><ele>97.0</ele><time>2026-05-01T13:26:07.516Z</time></trkpt><trkpt lat="39.560325" lon="8.6328933"><ele>96.83333333333334</ele><time>2026-05-01T13:26:08.539Z</time></trkpt><trkpt lat="39.5603233" lon="8.6327883"><ele>96.66666666666667</ele><time>2026-05-01T13:26:09.518Z</time></trkpt><trkpt lat="39.56032" lon="8.6326833"><ele>96.5</ele><time>2026-05-01T13:26:10.516Z</time></trkpt><trkpt lat="39.560315" lon="8.6325783"><ele>96.33333333333334</ele><time>2026-05-01T13:26:11.519Z</time></trkpt><trkpt lat="39.560315" lon="8.6324733"><ele>96.16666666666667</ele><time>2026-05-01T13:26:12.517Z</time></trkpt><trkpt lat="39.56031" lon="8.63237"><ele>96.0</ele><time>2026-05-01T13:26:13.518Z</time></trkpt><trkpt lat="39.56031" lon="8.63228"><ele>96.0</ele><time>2026-05-01T13:26:14.544Z</time></trkpt><trkpt lat="39.560315" lon="8.6321417"><ele>96.0</ele><time>2026-05-01T13:26:16.516Z</time></trkpt><trkpt lat="39.5603083" lon="8.63206"><ele>96.0</ele><time>2026-05-01T13:26:18.517Z</time></trkpt><trkpt lat="39.5602867" lon="8.6319717"><ele>96.0</ele><time>2026-05-01T13:26:29.517Z</time></trkpt><trkpt lat="39.56027" lon="8.6318467"><ele>96.0</ele><time>2026-05-01T13:26:31.517Z</time></trkpt><trkpt lat="39.5602583" lon="8.6316717"><ele>96.5</ele><time>2026-05-01T13:26:33.518Z</time></trkpt><trkpt lat="39.560265" lon="8.631545"><ele>97.0</ele><time>2026-05-01T13:26:34.516Z</time></trkpt><trkpt lat="39.5602783" lon="8.6314083"><ele>97.5</ele><time>2026-05-01T13:26:35.516Z</time></trkpt><trkpt lat="39.5603033" lon="8.631215"><ele>98.0</ele><time>2026-05-01T13:26:36.518Z</time></trkpt><trkpt lat="39.560325" lon="8.63104"><ele>98.0</ele><time>2026-05-01T13:26:37.515Z</time></trkpt><trkpt lat="39.5603583" lon="8.6308783"><ele>98.0</ele><time>2026-05-01T13:26:38.54Z</time></trkpt><trkpt lat="39.56037" lon="8.6307267"><ele>98.0</ele><time>2026-05-01T13:26:39.515Z</time></trkpt><trkpt lat="39.560385" lon="8.630575"><ele>98.0</ele><time>2026-05-01T13:26:40.519Z</time></trkpt><trkpt lat="39.5603983" lon="8.6304317"><ele>99.0</ele><time>2026-05-01T13:26:41.52Z</time></trkpt><trkpt lat="39.5604167" lon="8.6302817"><ele>100.0</ele><time>2026-05-01T13:26:42.514Z</time></trkpt><trkpt lat="39.5604317" lon="8.6301283"><ele>101.0</ele><time>2026-05-01T13:26:43.517Z</time></trkpt><trkpt lat="39.560445" lon="8.629975"><ele>102.0</ele><time>2026-05-01T13:26:44.538Z</time></trkpt><trkpt lat="39.5604533" lon="8.62982"><ele>102.0</ele><time>2026-05-01T13:26:45.518Z</time></trkpt><trkpt lat="39.560465" lon="8.6296567"><ele>102.0</ele><time>2026-05-01T13:26:46.515Z</time></trkpt><trkpt lat="39.5604767" lon="8.6294933"><ele>102.0</ele><time>2026-05-01T13:26:47.516Z</time></trkpt><trkpt lat="39.560485" lon="8.6293333"><ele>102.0</ele><time>2026-05-01T13:26:48.517Z</time></trkpt><trkpt lat="39.560495" lon="8.6291767"><ele>102.5</ele><time>2026-05-01T13:26:49.516Z</time></trkpt><trkpt lat="39.56051" lon="8.629015"><ele>103.0</ele><time>2026-05-01T13:26:50.538Z</time></trkpt><trkpt lat="39.56053" lon="8.6288567"><ele>103.5</ele><time>2026-05-01T13:26:51.513Z</time></trkpt><trkpt lat="39.5605533" lon="8.6286967"><ele>104.0</ele><time>2026-05-01T13:26:52.515Z</time></trkpt><trkpt lat="39.5605717" lon="8.6285217"><ele>104.0</ele><time>2026-05-01T13:26:53.519Z</time></trkpt><trkpt lat="39.5605867" lon="8.6283533"><ele>104.0</ele><time>2026-05-01T13:26:54.517Z</time></trkpt><trkpt lat="39.560605" lon="8.6281867"><ele>104.0</ele><time>2026-05-01T13:26:55.517Z</time></trkpt><trkpt lat="39.5606317" lon="8.6280283"><ele>104.0</ele><time>2026-05-01T13:26:56.57Z</time></trkpt><trkpt lat="39.5606583" lon="8.62786"><ele>104.5</ele><time>2026-05-01T13:26:57.514Z</time></trkpt><trkpt lat="39.56068" lon="8.6277017"><ele>105.0</ele><time>2026-05-01T13:26:58.515Z</time></trkpt><trkpt lat="39.5607067" lon="8.627545"><ele>105.5</ele><time>2026-05-01T13:26:59.516Z</time></trkpt><trkpt lat="39.560735" lon="8.6273883"><ele>106.0</ele><time>2026-05-01T13:27:00.52Z</time></trkpt><trkpt lat="39.5607583" lon="8.62723"><ele>106.0</ele><time>2026-05-01T13:27:01.519Z</time></trkpt><trkpt lat="39.56078" lon="8.6270683"><ele>106.0</ele><time>2026-05-01T13:27:02.562Z</time></trkpt><trkpt lat="39.5607967" lon="8.6269117"><ele>106.0</ele><time>2026-05-01T13:27:03.514Z</time></trkpt><trkpt lat="39.5608183" lon="8.626755"><ele>106.0</ele><time>2026-05-01T13:27:04.516Z</time></trkpt><trkpt lat="39.560835" lon="8.6266017"><ele>106.5</ele><time>2026-05-01T13:27:05.516Z</time></trkpt><trkpt lat="39.56085" lon="8.6264483"><ele>107.0</ele><time>2026-05-01T13:27:06.52Z</time></trkpt><trkpt lat="39.5608667" lon="8.626295"><ele>107.5</ele><time>2026-05-01T13:27:07.518Z</time></trkpt><trkpt lat="39.5608767" lon="8.6261567"><ele>108.0</ele><time>2026-05-01T13:27:08.541Z</time></trkpt><trkpt lat="39.56089" lon="8.6259933"><ele>108.2</ele><time>2026-05-01T13:27:09.517Z</time></trkpt><trkpt lat="39.5608883" lon="8.6258367"><ele>108.4</ele><time>2026-05-01T13:27:10.516Z</time></trkpt><trkpt lat="39.5608817" lon="8.6257067"><ele>108.60000000000001</ele><time>2026-05-01T13:27:11.518Z</time></trkpt><trkpt lat="39.5608767" lon="8.625585"><ele>108.80000000000001</ele><time>2026-05-01T13:27:12.519Z</time></trkpt><trkpt lat="39.5608583" lon="8.6254733"><ele>109.0</ele><time>2026-05-01T13:27:13.521Z</time></trkpt><trkpt lat="39.56084" lon="8.6253683"><ele>109.2</ele><time>2026-05-01T13:27:14.54Z</time></trkpt><trkpt lat="39.5608283" lon="8.625285"><ele>109.4</ele><time>2026-05-01T13:27:15.521Z</time></trkpt><trkpt lat="39.5607933" lon="8.62516"><ele>109.6</ele><time>2026-05-01T13:27:17.517Z</time></trkpt><trkpt lat="39.5607367" lon="8.625065"><ele>109.8</ele><time>2026-05-01T13:27:19.515Z</time></trkpt><trkpt lat="39.5606483" lon="8.625025"><ele>110.0</ele><time>2026-05-01T13:27:21.519Z</time></trkpt><trkpt lat="39.5605183" lon="8.62501"><ele>109.99999999999999</ele><time>2026-05-01T13:27:23.516Z</time></trkpt><trkpt lat="39.56044" lon="8.6249983"><ele>110.0</ele><time>2026-05-01T13:27:24.52Z</time></trkpt><trkpt lat="39.5603567" lon="8.62499"><ele>110.0</ele><time>2026-05-01T13:27:25.518Z</time></trkpt><trkpt lat="39.5602717" lon="8.62498"><ele>110.0</ele><time>2026-05-01T13:27:26.57Z</time></trkpt><trkpt lat="39.5601817" lon="8.624975"><ele>109.99999999999999</ele><time>2026-05-01T13:27:27.52Z</time></trkpt><trkpt lat="39.560095" lon="8.624965"><ele>110.0</ele><time>2026-05-01T13:27:28.516Z</time></trkpt><trkpt lat="39.560015" lon="8.6249517"><ele>109.66666666666666</ele><time>2026-05-01T13:27:29.513Z</time></trkpt><trkpt lat="39.559945" lon="8.6249317"><ele>109.33333333333333</ele><time>2026-05-01T13:27:30.516Z</time></trkpt><trkpt lat="39.5598817" lon="8.6249117"><ele>109.0</ele><time>2026-05-01T13:27:31.52Z</time></trkpt><trkpt lat="39.5597783" lon="8.6248667"><ele>108.66666666666666</ele><time>2026-05-01T13:27:33.519Z</time></trkpt><trkpt lat="39.559715" lon="8.6248167"><ele>108.33333333333333</ele><time>2026-05-01T13:27:35.521Z</time></trkpt><trkpt lat="39.5597" lon="8.6247133"><ele>108.0</ele><time>2026-05-01T13:27:38.543Z</time></trkpt><trkpt lat="39.559745" lon="8.6246167"><ele>108.0</ele><time>2026-05-01T13:27:40.516Z</time></trkpt><trkpt lat="39.5597833" lon="8.6245467"><ele>108.00000000000001</ele><time>2026-05-01T13:27:41.517Z</time></trkpt><trkpt lat="39.5598317" lon="8.624465"><ele>108.00000000000001</ele><time>2026-05-01T13:27:42.519Z</time></trkpt><trkpt lat="39.5598933" lon="8.6243667"><ele>108.0</ele><time>2026-05-01T13:27:43.517Z</time></trkpt><trkpt lat="39.5599633" lon="8.624255"><ele>108.0</ele><time>2026-05-01T13:27:44.54Z</time></trkpt><trkpt lat="39.56004" lon="8.624135"><ele>108.75</ele><time>2026-05-01T13:27:45.524Z</time></trkpt><trkpt lat="39.5601283" lon="8.6240083"><ele>109.5</ele><time>2026-05-01T13:27:46.515Z</time></trkpt><trkpt lat="39.5602233" lon="8.62388"><ele>110.25</ele><time>2026-05-01T13:27:47.516Z</time></trkpt><trkpt lat="39.56031" lon="8.6237467"><ele>111.0</ele><time>2026-05-01T13:27:48.521Z</time></trkpt><trkpt lat="39.5603967" lon="8.6236083"><ele>111.0</ele><time>2026-05-01T13:27:49.517Z</time></trkpt><trkpt lat="39.5604833" lon="8.623475"><ele>111.0</ele><time>2026-05-01T13:27:50.54Z</time></trkpt><trkpt lat="39.56058" lon="8.6233333"><ele>111.0</ele><time>2026-05-01T13:27:51.517Z</time></trkpt><trkpt lat="39.56067" lon="8.62319"><ele>111.0</ele><time>2026-05-01T13:27:52.517Z</time></trkpt><trkpt lat="39.5607733" lon="8.6230333"><ele>111.0</ele><time>2026-05-01T13:27:53.517Z</time></trkpt><trkpt lat="39.5608717" lon="8.6228733"><ele>111.0</ele><time>2026-05-01T13:27:54.517Z</time></trkpt><trkpt lat="39.560945" lon="8.6227433"><ele>111.0</ele><time>2026-05-01T13:27:55.517Z</time></trkpt><trkpt lat="39.5610117" lon="8.6226117"><ele>111.0</ele><time>2026-05-01T13:27:56.571Z</time></trkpt><trkpt lat="39.56107" lon="8.6224583"><ele>110.75</ele><time>2026-05-01T13:27:57.519Z</time></trkpt><trkpt lat="39.56113" lon="8.6223183"><ele>110.5</ele><time>2026-05-01T13:27:58.519Z</time></trkpt><trkpt lat="39.5612017" lon="8.62218"><ele>110.25</ele><time>2026-05-01T13:27:59.513Z</time></trkpt><trkpt lat="39.5612567" lon="8.622065"><ele>110.0</ele><time>2026-05-01T13:28:00.522Z</time></trkpt><trkpt lat="39.5612933" lon="8.6219517"><ele>110.33333333333333</ele><time>2026-05-01T13:28:01.518Z</time></trkpt><trkpt lat="39.5613367" lon="8.62186"><ele>110.66666666666666</ele><time>2026-05-01T13:28:02.565Z</time></trkpt><trkpt lat="39.5613567" lon="8.62178"><ele>111.0</ele><time>2026-05-01T13:28:03.517Z</time></trkpt><trkpt lat="39.5613867" lon="8.62167"><ele>111.33333333333334</ele><time>2026-05-01T13:28:05.518Z</time></trkpt><trkpt lat="39.5614" lon="8.621555"><ele>111.66666666666667</ele><time>2026-05-01T13:28:07.515Z</time></trkpt><trkpt lat="39.5614067" lon="8.6214667"><ele>112.0</ele><time>2026-05-01T13:28:08.542Z</time></trkpt><trkpt lat="39.5614233" lon="8.621375"><ele>112.0</ele><time>2026-05-01T13:28:09.518Z</time></trkpt><trkpt lat="39.56145" lon="8.62127"><ele>111.99999999999999</ele><time>2026-05-01T13:28:10.517Z</time></trkpt><trkpt lat="39.5614767" lon="8.6211517"><ele>111.99999999999999</ele><time>2026-05-01T13:28:11.517Z</time></trkpt><trkpt lat="39.5614933" lon="8.6210283"><ele>112.0</ele><time>2026-05-01T13:28:12.518Z</time></trkpt><trkpt lat="39.5615267" lon="8.6208817"><ele>112.0</ele><time>2026-05-01T13:28:13.518Z</time></trkpt><trkpt lat="39.5615633" lon="8.620755"><ele>112.5</ele><time>2026-05-01T13:28:14.541Z</time></trkpt><trkpt lat="39.56159" lon="8.6206067"><ele>113.0</ele><time>2026-05-01T13:28:15.515Z</time></trkpt><trkpt lat="39.5616117" lon="8.6204317"><ele>113.5</ele><time>2026-05-01T13:28:16.516Z</time></trkpt><trkpt lat="39.56163" lon="8.6202567"><ele>114.0</ele><time>2026-05-01T13:28:17.519Z</time></trkpt><trkpt lat="39.5616417" lon="8.6200883"><ele>114.25</ele><time>2026-05-01T13:28:18.517Z</time></trkpt><trkpt lat="39.5616433" lon="8.6198983"><ele>114.5</ele><time>2026-05-01T13:28:19.516Z</time></trkpt><trkpt lat="39.5616533" lon="8.6197167"><ele>114.75</ele><time>2026-05-01T13:28:20.539Z</time></trkpt><trkpt lat="39.56166" lon="8.619545"><ele>115.0</ele><time>2026-05-01T13:28:21.518Z</time></trkpt><trkpt lat="39.561655" lon="8.61937"><ele>115.33333333333334</ele><time>2026-05-01T13:28:22.517Z</time></trkpt><trkpt lat="39.5616233" lon="8.6191717"><ele>115.66666666666666</ele><time>2026-05-01T13:28:23.52Z</time></trkpt><trkpt lat="39.5615933" lon="8.6189767"><ele>116.0</ele><time>2026-05-01T13:28:24.52Z</time></trkpt><trkpt lat="39.5615833" lon="8.6187583"><ele>116.33333333333333</ele><time>2026-05-01T13:28:25.517Z</time></trkpt><trkpt lat="39.5615483" lon="8.6185517"><ele>116.66666666666666</ele><time>2026-05-01T13:28:26.529Z</time></trkpt><trkpt lat="39.5615367" lon="8.61834"><ele>117.0</ele><time>2026-05-01T13:28:27.515Z</time></trkpt><trkpt lat="39.5615133" lon="8.6181267"><ele>117.0</ele><time>2026-05-01T13:28:28.516Z</time></trkpt><trkpt lat="39.5614883" lon="8.6179333"><ele>117.0</ele><time>2026-05-01T13:28:29.519Z</time></trkpt><trkpt lat="39.5614733" lon="8.617735"><ele>117.0</ele><time>2026-05-01T13:28:30.515Z</time></trkpt><trkpt lat="39.561455" lon="8.61753"><ele>117.25</ele><time>2026-05-01T13:28:31.514Z</time></trkpt><trkpt lat="39.5614267" lon="8.61734"><ele>117.5</ele><time>2026-05-01T13:28:32.566Z</time></trkpt><trkpt lat="39.5613733" lon="8.6171483"><ele>117.75</ele><time>2026-05-01T13:28:33.518Z</time></trkpt><trkpt lat="39.56134" lon="8.6169883"><ele>118.0</ele><time>2026-05-01T13:28:34.515Z</time></trkpt><trkpt lat="39.56133" lon="8.6168517"><ele>118.16666666666667</ele><time>2026-05-01T13:28:35.522Z</time></trkpt><trkpt lat="39.5613167" lon="8.61675"><ele>118.33333333333334</ele><time>2026-05-01T13:28:36.519Z</time></trkpt><trkpt lat="39.5613167" lon="8.616635"><ele>118.5</ele><time>2026-05-01T13:28:37.515Z</time></trkpt><trkpt lat="39.5613083" lon="8.6165433"><ele>118.66666666666666</ele><time>2026-05-01T13:28:38.539Z</time></trkpt><trkpt lat="39.561285" lon="8.6164267"><ele>118.83333333333333</ele><time>2026-05-01T13:28:40.518Z</time></trkpt><trkpt lat="39.56126" lon="8.61632"><ele>119.0</ele><time>2026-05-01T13:28:42.517Z</time></trkpt><trkpt lat="39.56123" lon="8.6162067"><ele>119.16666666666666</ele><time>2026-05-01T13:28:44.546Z</time></trkpt><trkpt lat="39.56121" lon="8.61609"><ele>119.33333333333333</ele><time>2026-05-01T13:28:46.516Z</time></trkpt><trkpt lat="39.5611933" lon="8.6159817"><ele>119.5</ele><time>2026-05-01T13:28:48.519Z</time></trkpt><trkpt lat="39.5611783" lon="8.6158883"><ele>119.66666666666666</ele><time>2026-05-01T13:28:50.541Z</time></trkpt><trkpt lat="39.5611617" lon="8.615795"><ele>119.83333333333333</ele><time>2026-05-01T13:28:52.517Z</time></trkpt><trkpt lat="39.561145" lon="8.61569"><ele>120.0</ele><time>2026-05-01T13:28:54.515Z</time></trkpt><trkpt lat="39.5611217" lon="8.615585"><ele>120.4</ele><time>2026-05-01T13:28:56.572Z</time></trkpt><trkpt lat="39.56109" lon="8.6154767"><ele>120.8</ele><time>2026-05-01T13:28:58.517Z</time></trkpt><trkpt lat="39.5610667" lon="8.6153583"><ele>121.19999999999999</ele><time>2026-05-01T13:29:00.518Z</time></trkpt><trkpt lat="39.5610483" lon="8.61524"><ele>121.6</ele><time>2026-05-01T13:29:02.565Z</time></trkpt><trkpt lat="39.5610333" lon="8.6151217"><ele>122.0</ele><time>2026-05-01T13:29:04.517Z</time></trkpt><trkpt lat="39.5610183" lon="8.6150067"><ele>122.19999999999999</ele><time>2026-05-01T13:29:06.519Z</time></trkpt><trkpt lat="39.5610033" lon="8.61488"><ele>122.39999999999999</ele><time>2026-05-01T13:29:08.542Z</time></trkpt><trkpt lat="39.5609833" lon="8.6147383"><ele>122.60000000000001</ele><time>2026-05-01T13:29:10.516Z</time></trkpt><trkpt lat="39.5609583" lon="8.61458"><ele>122.80000000000001</ele><time>2026-05-01T13:29:12.516Z</time></trkpt><trkpt lat="39.560945" lon="8.614495"><ele>123.0</ele><time>2026-05-01T13:29:13.517Z</time></trkpt><trkpt lat="39.5609333" lon="8.61441"><ele>123.00000000000001</ele><time>2026-05-01T13:29:14.542Z</time></trkpt><trkpt lat="39.56092" lon="8.6143233"><ele>123.0</ele><time>2026-05-01T13:29:15.515Z</time></trkpt><trkpt lat="39.560905" lon="8.6142317"><ele>123.00000000000001</ele><time>2026-05-01T13:29:16.516Z</time></trkpt><trkpt lat="39.56089" lon="8.6141367"><ele>123.00000000000001</ele><time>2026-05-01T13:29:17.517Z</time></trkpt><trkpt lat="39.5608767" lon="8.6140383"><ele>123.0</ele><time>2026-05-01T13:29:18.517Z</time></trkpt><trkpt lat="39.5608633" lon="8.61394"><ele>123.00000000000001</ele><time>2026-05-01T13:29:19.518Z</time></trkpt><trkpt lat="39.5608483" lon="8.6138383"><ele>123.00000000000001</ele><time>2026-05-01T13:29:20.538Z</time></trkpt><trkpt lat="39.5608333" lon="8.613735"><ele>123.16666666666667</ele><time>2026-05-01T13:29:21.519Z</time></trkpt><trkpt lat="39.5608183" lon="8.6136333"><ele>123.33333333333334</ele><time>2026-05-01T13:29:22.517Z</time></trkpt><trkpt lat="39.560805" lon="8.6135317"><ele>123.5</ele><time>2026-05-01T13:29:23.515Z</time></trkpt><trkpt lat="39.5607917" lon="8.6134267"><ele>123.66666666666667</ele><time>2026-05-01T13:29:24.52Z</time></trkpt><trkpt lat="39.5607783" lon="8.6133217"><ele>123.83333333333334</ele><time>2026-05-01T13:29:25.517Z</time></trkpt><trkpt lat="39.5607633" lon="8.6132183"><ele>124.0</ele><time>2026-05-01T13:29:26.57Z</time></trkpt><trkpt lat="39.56075" lon="8.61311"><ele>124.0</ele><time>2026-05-01T13:29:27.516Z</time></trkpt><trkpt lat="39.560735" lon="8.613005"><ele>124.00000000000001</ele><time>2026-05-01T13:29:28.519Z</time></trkpt><trkpt lat="39.56072" lon="8.6129083"><ele>124.0</ele><time>2026-05-01T13:29:29.518Z</time></trkpt><trkpt lat="39.5607067" lon="8.61281"><ele>124.0</ele><time>2026-05-01T13:29:30.514Z</time></trkpt><trkpt lat="39.560695" lon="8.6127183"><ele>124.00000000000001</ele><time>2026-05-01T13:29:31.516Z</time></trkpt><trkpt lat="39.5606817" lon="8.6126283"><ele>124.0</ele><time>2026-05-01T13:29:32.516Z</time></trkpt><trkpt lat="39.5606683" lon="8.6125433"><ele>124.0</ele><time>2026-05-01T13:29:33.519Z</time></trkpt><trkpt lat="39.5606533" lon="8.6124533"><ele>124.28571428571429</ele><time>2026-05-01T13:29:34.512Z</time></trkpt><trkpt lat="39.56064" lon="8.6123667"><ele>124.57142857142858</ele><time>2026-05-01T13:29:35.516Z</time></trkpt><trkpt lat="39.5606217" lon="8.6122733"><ele>124.85714285714286</ele><time>2026-05-01T13:29:36.52Z</time></trkpt><trkpt lat="39.5606033" lon="8.6121833"><ele>125.14285714285714</ele><time>2026-05-01T13:29:37.517Z</time></trkpt><trkpt lat="39.560585" lon="8.6120883"><ele>125.42857142857143</ele><time>2026-05-01T13:29:38.541Z</time></trkpt><trkpt lat="39.56057" lon="8.6119933"><ele>125.71428571428572</ele><time>2026-05-01T13:29:39.518Z</time></trkpt><trkpt lat="39.5605567" lon="8.6118917"><ele>126.0</ele><time>2026-05-01T13:29:40.515Z</time></trkpt><trkpt lat="39.56054" lon="8.611785"><ele>126.16666666666667</ele><time>2026-05-01T13:29:41.517Z</time></trkpt><trkpt lat="39.56052" lon="8.6116717"><ele>126.33333333333334</ele><time>2026-05-01T13:29:42.516Z</time></trkpt><trkpt lat="39.5605033" lon="8.61156"><ele>126.5</ele><time>2026-05-01T13:29:43.514Z</time></trkpt><trkpt lat="39.56049" lon="8.6114467"><ele>126.66666666666667</ele><time>2026-05-01T13:29:44.542Z</time></trkpt><trkpt lat="39.5604733" lon="8.6113383"><ele>126.83333333333334</ele><time>2026-05-01T13:29:45.516Z</time></trkpt><trkpt lat="39.5604583" lon="8.6112267"><ele>127.0</ele><time>2026-05-01T13:29:46.517Z</time></trkpt><trkpt lat="39.5604517" lon="8.611115"><ele>127.19999999999999</ele><time>2026-05-01T13:29:47.519Z</time></trkpt><trkpt lat="39.5604283" lon="8.6109783"><ele>127.39999999999999</ele><time>2026-05-01T13:29:48.517Z</time></trkpt><trkpt lat="39.5604083" lon="8.6108483"><ele>127.60000000000001</ele><time>2026-05-01T13:29:49.517Z</time></trkpt><trkpt lat="39.5603883" lon="8.6107033"><ele>127.80000000000001</ele><time>2026-05-01T13:29:50.542Z</time></trkpt><trkpt lat="39.5603483" lon="8.6105717"><ele>128.0</ele><time>2026-05-01T13:29:51.52Z</time></trkpt><trkpt lat="39.56031" lon="8.6104033"><ele>128.5</ele><time>2026-05-01T13:29:52.515Z</time></trkpt><trkpt lat="39.560285" lon="8.610245"><ele>129.0</ele><time>2026-05-01T13:29:53.515Z</time></trkpt><trkpt lat="39.560245" lon="8.6100967"><ele>129.5</ele><time>2026-05-01T13:29:54.516Z</time></trkpt><trkpt lat="39.5602167" lon="8.6099133"><ele>130.0</ele><time>2026-05-01T13:29:55.516Z</time></trkpt><trkpt lat="39.560195" lon="8.60974"><ele>130.0</ele><time>2026-05-01T13:29:56.574Z</time></trkpt><trkpt lat="39.5601633" lon="8.6095683"><ele>130.0</ele><time>2026-05-01T13:29:57.517Z</time></trkpt><trkpt lat="39.560155" lon="8.6093667"><ele>130.0</ele><time>2026-05-01T13:29:58.517Z</time></trkpt><trkpt lat="39.5601317" lon="8.6091833"><ele>130.0</ele><time>2026-05-01T13:29:59.518Z</time></trkpt><trkpt lat="39.5600967" lon="8.6089933"><ele>130.25</ele><time>2026-05-01T13:30:00.514Z</time></trkpt><trkpt lat="39.5600567" lon="8.6088183"><ele>130.5</ele><time>2026-05-01T13:30:01.518Z</time></trkpt><trkpt lat="39.56003" lon="8.60863"><ele>130.75</ele><time>2026-05-01T13:30:02.545Z</time></trkpt><trkpt lat="39.5600017" lon="8.6084467"><ele>131.0</ele><time>2026-05-01T13:30:03.518Z</time></trkpt><trkpt lat="39.5599717" lon="8.6082867"><ele>131.0</ele><time>2026-05-01T13:30:04.515Z</time></trkpt><trkpt lat="39.5599533" lon="8.608155"><ele>131.0</ele><time>2026-05-01T13:30:05.516Z</time></trkpt><trkpt lat="39.559945" lon="8.6080267"><ele>131.0</ele><time>2026-05-01T13:30:06.517Z</time></trkpt><trkpt lat="39.5599333" lon="8.607905"><ele>131.0</ele><time>2026-05-01T13:30:07.517Z</time></trkpt><trkpt lat="39.5599183" lon="8.6077983"><ele>131.0</ele><time>2026-05-01T13:30:08.539Z</time></trkpt><trkpt lat="39.5599167" lon="8.60768"><ele>131.4</ele><time>2026-05-01T13:30:09.515Z</time></trkpt><trkpt lat="39.5599233" lon="8.6075433"><ele>131.8</ele><time>2026-05-01T13:30:10.518Z</time></trkpt><trkpt lat="39.5599267" lon="8.6074167"><ele>132.20000000000002</ele><time>2026-05-01T13:30:11.517Z</time></trkpt><trkpt lat="39.5599217" lon="8.6072817"><ele>132.6</ele><time>2026-05-01T13:30:12.516Z</time></trkpt><trkpt lat="39.5599133" lon="8.6071433"><ele>133.0</ele><time>2026-05-01T13:30:13.516Z</time></trkpt><trkpt lat="39.559915" lon="8.6070083"><ele>133.5</ele><time>2026-05-01T13:30:14.54Z</time></trkpt><trkpt lat="39.5599167" lon="8.6068583"><ele>134.0</ele><time>2026-05-01T13:30:15.513Z</time></trkpt><trkpt lat="39.5599167" lon="8.60671"><ele>134.5</ele><time>2026-05-01T13:30:16.515Z</time></trkpt><trkpt lat="39.5599267" lon="8.606555"><ele>135.0</ele><time>2026-05-01T13:30:17.518Z</time></trkpt><trkpt lat="39.5599233" lon="8.6063983"><ele>135.0</ele><time>2026-05-01T13:30:18.517Z</time></trkpt><trkpt lat="39.5599233" lon="8.6062483"><ele>135.0</ele><time>2026-05-01T13:30:19.518Z</time></trkpt><trkpt lat="39.5599333" lon="8.6061033"><ele>135.0</ele><time>2026-05-01T13:30:20.541Z</time></trkpt><trkpt lat="39.5599333" lon="8.6059533"><ele>135.0</ele><time>2026-05-01T13:30:21.516Z</time></trkpt><trkpt lat="39.5599433" lon="8.6058017"><ele>135.4</ele><time>2026-05-01T13:30:22.515Z</time></trkpt><trkpt lat="39.5599617" lon="8.6056483"><ele>135.8</ele><time>2026-05-01T13:30:23.518Z</time></trkpt><trkpt lat="39.5599717" lon="8.6055067"><ele>136.2</ele><time>2026-05-01T13:30:24.517Z</time></trkpt><trkpt lat="39.55999" lon="8.60538"><ele>136.6</ele><time>2026-05-01T13:30:25.519Z</time></trkpt><trkpt lat="39.5600083" lon="8.6052467"><ele>137.0</ele><time>2026-05-01T13:30:26.57Z</time></trkpt><trkpt lat="39.560015" lon="8.60511"><ele>137.2</ele><time>2026-05-01T13:30:27.517Z</time></trkpt><trkpt lat="39.5600217" lon="8.604975"><ele>137.39999999999998</ele><time>2026-05-01T13:30:28.517Z</time></trkpt><trkpt lat="39.5600367" lon="8.604835"><ele>137.60000000000002</ele><time>2026-05-01T13:30:29.515Z</time></trkpt><trkpt lat="39.5600583" lon="8.6047"><ele>137.8</ele><time>2026-05-01T13:30:30.513Z</time></trkpt><trkpt lat="39.56008" lon="8.604575"><ele>138.0</ele><time>2026-05-01T13:30:31.516Z</time></trkpt><trkpt lat="39.5601033" lon="8.6044433"><ele>138.8</ele><time>2026-05-01T13:30:32.57Z</time></trkpt><trkpt lat="39.5601283" lon="8.60432"><ele>139.60000000000002</ele><time>2026-05-01T13:30:33.517Z</time></trkpt><trkpt lat="39.5601583" lon="8.604185"><ele>140.39999999999998</ele><time>2026-05-01T13:30:34.516Z</time></trkpt><trkpt lat="39.560185" lon="8.6040467"><ele>141.2</ele><time>2026-05-01T13:30:35.518Z</time></trkpt><trkpt lat="39.56021" lon="8.6039033"><ele>142.0</ele><time>2026-05-01T13:30:36.517Z</time></trkpt><trkpt lat="39.5602367" lon="8.6037717"><ele>142.6</ele><time>2026-05-01T13:30:37.515Z</time></trkpt><trkpt lat="39.5602717" lon="8.603655"><ele>143.2</ele><time>2026-05-01T13:30:38.538Z</time></trkpt><trkpt lat="39.560305" lon="8.603515"><ele>143.8</ele><time>2026-05-01T13:30:39.519Z</time></trkpt><trkpt lat="39.560345" lon="8.6033683"><ele>144.4</ele><time>2026-05-01T13:30:40.515Z</time></trkpt><trkpt lat="39.56038" lon="8.60324"><ele>145.0</ele><time>2026-05-01T13:30:41.517Z</time></trkpt><trkpt lat="39.5604183" lon="8.6030883"><ele>145.75</ele><time>2026-05-01T13:30:42.515Z</time></trkpt><trkpt lat="39.5604633" lon="8.6029417"><ele>146.5</ele><time>2026-05-01T13:30:43.515Z</time></trkpt><trkpt lat="39.5605067" lon="8.6027917"><ele>147.25</ele><time>2026-05-01T13:30:44.539Z</time></trkpt><trkpt lat="39.5605583" lon="8.6026367"><ele>148.0</ele><time>2026-05-01T13:30:45.517Z</time></trkpt><trkpt lat="39.5606067" lon="8.602485"><ele>148.0</ele><time>2026-05-01T13:30:46.513Z</time></trkpt><trkpt lat="39.56066" lon="8.602345"><ele>148.0</ele><time>2026-05-01T13:30:47.516Z</time></trkpt><trkpt lat="39.560705" lon="8.6022067"><ele>148.0</ele><time>2026-05-01T13:30:48.516Z</time></trkpt><trkpt lat="39.5607467" lon="8.6020883"><ele>148.0</ele><time>2026-05-01T13:30:49.518Z</time></trkpt><trkpt lat="39.5607833" lon="8.6019817"><ele>148.0</ele><time>2026-05-01T13:30:50.541Z</time></trkpt><trkpt lat="39.5608117" lon="8.6018933"><ele>148.16666666666669</ele><time>2026-05-01T13:30:51.517Z</time></trkpt><trkpt lat="39.56084" lon="8.6018083"><ele>148.33333333333334</ele><time>2026-05-01T13:30:52.516Z</time></trkpt><trkpt lat="39.5608683" lon="8.6017267"><ele>148.5</ele><time>2026-05-01T13:30:53.523Z</time></trkpt><trkpt lat="39.5608983" lon="8.6016433"><ele>148.66666666666666</ele><time>2026-05-01T13:30:54.517Z</time></trkpt><trkpt lat="39.5609317" lon="8.6015517"><ele>148.83333333333331</ele><time>2026-05-01T13:30:55.516Z</time></trkpt><trkpt lat="39.5609667" lon="8.601455"><ele>149.0</ele><time>2026-05-01T13:30:56.584Z</time></trkpt><trkpt lat="39.5610467" lon="8.60124"><ele>149.2</ele><time>2026-05-01T13:30:58.516Z</time></trkpt><trkpt lat="39.56109" lon="8.6011217"><ele>149.4</ele><time>2026-05-01T13:30:59.515Z</time></trkpt><trkpt lat="39.561135" lon="8.600995"><ele>149.6</ele><time>2026-05-01T13:31:00.513Z</time></trkpt><trkpt lat="39.56118" lon="8.6008633"><ele>149.8</ele><time>2026-05-01T13:31:01.516Z</time></trkpt><trkpt lat="39.56121" lon="8.6007183"><ele>150.0</ele><time>2026-05-01T13:31:02.545Z</time></trkpt><trkpt lat="39.5612517" lon="8.6005833"><ele>151.6</ele><time>2026-05-01T13:31:03.515Z</time></trkpt><trkpt lat="39.5612883" lon="8.6004533"><ele>153.2</ele><time>2026-05-01T13:31:04.518Z</time></trkpt><trkpt lat="39.5613233" lon="8.6003383"><ele>154.8</ele><time>2026-05-01T13:31:05.515Z</time></trkpt><trkpt lat="39.5613517" lon="8.6002417"><ele>156.4</ele><time>2026-05-01T13:31:06.517Z</time></trkpt><trkpt lat="39.561395" lon="8.6001167"><ele>158.0</ele><time>2026-05-01T13:31:07.516Z</time></trkpt><trkpt lat="39.561445" lon="8.6000033"><ele>158.0</ele><time>2026-05-01T13:31:08.538Z</time></trkpt><trkpt lat="39.56148" lon="8.59987"><ele>158.0</ele><time>2026-05-01T13:31:09.514Z</time></trkpt><trkpt lat="39.5615133" lon="8.59974"><ele>158.0</ele><time>2026-05-01T13:31:10.514Z</time></trkpt><trkpt lat="39.5615483" lon="8.599625"><ele>158.0</ele><time>2026-05-01T13:31:11.516Z</time></trkpt><trkpt lat="39.5615767" lon="8.599495"><ele>158.0</ele><time>2026-05-01T13:31:12.519Z</time></trkpt><trkpt lat="39.5616067" lon="8.5993683"><ele>157.6</ele><time>2026-05-01T13:31:13.515Z</time></trkpt><trkpt lat="39.56163" lon="8.5992383"><ele>157.20000000000002</ele><time>2026-05-01T13:31:14.541Z</time></trkpt><trkpt lat="39.5616433" lon="8.599105"><ele>156.8</ele><time>2026-05-01T13:31:15.515Z</time></trkpt><trkpt lat="39.5616583" lon="8.598965"><ele>156.4</ele><time>2026-05-01T13:31:16.516Z</time></trkpt><trkpt lat="39.5616667" lon="8.5988067"><ele>156.0</ele><time>2026-05-01T13:31:17.512Z</time></trkpt><trkpt lat="39.5616683" lon="8.5986333"><ele>156.0</ele><time>2026-05-01T13:31:18.517Z</time></trkpt><trkpt lat="39.5616783" lon="8.59847"><ele>156.0</ele><time>2026-05-01T13:31:19.513Z</time></trkpt><trkpt lat="39.5616733" lon="8.5983083"><ele>156.0</ele><time>2026-05-01T13:31:20.537Z</time></trkpt><trkpt lat="39.5616617" lon="8.5981567"><ele>156.0</ele><time>2026-05-01T13:31:21.515Z</time></trkpt><trkpt lat="39.5616533" lon="8.59801"><ele>156.0</ele><time>2026-05-01T13:31:22.517Z</time></trkpt><trkpt lat="39.5616433" lon="8.5978767"><ele>156.0</ele><time>2026-05-01T13:31:23.514Z</time></trkpt><trkpt lat="39.5616283" lon="8.5977267"><ele>156.0</ele><time>2026-05-01T13:31:24.516Z</time></trkpt><trkpt lat="39.5615967" lon="8.5975917"><ele>156.0</ele><time>2026-05-01T13:31:25.514Z</time></trkpt><trkpt lat="39.5615617" lon="8.59745"><ele>156.0</ele><time>2026-05-01T13:31:26.566Z</time></trkpt><trkpt lat="39.5615183" lon="8.5973183"><ele>157.0</ele><time>2026-05-01T13:31:27.513Z</time></trkpt><trkpt lat="39.5614733" lon="8.597165"><ele>158.0</ele><time>2026-05-01T13:31:28.515Z</time></trkpt><trkpt lat="39.5614267" lon="8.597005"><ele>159.0</ele><time>2026-05-01T13:31:29.517Z</time></trkpt><trkpt lat="39.5613767" lon="8.5968333"><ele>160.0</ele><time>2026-05-01T13:31:30.517Z</time></trkpt><trkpt lat="39.561325" lon="8.59668"><ele>159.75</ele><time>2026-05-01T13:31:31.515Z</time></trkpt><trkpt lat="39.5612683" lon="8.59652"><ele>159.5</ele><time>2026-05-01T13:31:32.544Z</time></trkpt><trkpt lat="39.5611983" lon="8.5963583"><ele>159.25</ele><time>2026-05-01T13:31:33.517Z</time></trkpt><trkpt lat="39.5611333" lon="8.5962233"><ele>159.0</ele><time>2026-05-01T13:31:34.515Z</time></trkpt><trkpt lat="39.5610717" lon="8.5961167"><ele>159.8</ele><time>2026-05-01T13:31:35.517Z</time></trkpt><trkpt lat="39.561015" lon="8.59601"><ele>160.60000000000002</ele><time>2026-05-01T13:31:36.515Z</time></trkpt><trkpt lat="39.5609617" lon="8.5959117"><ele>161.4</ele><time>2026-05-01T13:31:37.516Z</time></trkpt><trkpt lat="39.5609033" lon="8.5958117"><ele>162.20000000000002</ele><time>2026-05-01T13:31:38.539Z</time></trkpt><trkpt lat="39.56085" lon="8.5957017"><ele>163.0</ele><time>2026-05-01T13:31:39.517Z</time></trkpt><trkpt lat="39.5607867" lon="8.59558"><ele>163.0</ele><time>2026-05-01T13:31:40.513Z</time></trkpt><trkpt lat="39.56072" lon="8.59544"><ele>163.0</ele><time>2026-05-01T13:31:41.514Z</time></trkpt><trkpt lat="39.5606583" lon="8.5952983"><ele>163.0</ele><time>2026-05-01T13:31:42.515Z</time></trkpt><trkpt lat="39.560595" lon="8.5951467"><ele>163.0</ele><time>2026-05-01T13:31:43.516Z</time></trkpt><trkpt lat="39.56053" lon="8.5950017"><ele>163.75</ele><time>2026-05-01T13:31:44.539Z</time></trkpt><trkpt lat="39.5604633" lon="8.5948533"><ele>164.5</ele><time>2026-05-01T13:31:45.514Z</time></trkpt><trkpt lat="39.560405" lon="8.5947017"><ele>165.25</ele><time>2026-05-01T13:31:46.516Z</time></trkpt><trkpt lat="39.5603383" lon="8.59456"><ele>166.0</ele><time>2026-05-01T13:31:47.514Z</time></trkpt><trkpt lat="39.560265" lon="8.5944233"><ele>167.25</ele><time>2026-05-01T13:31:48.518Z</time></trkpt><trkpt lat="39.560195" lon="8.594305"><ele>168.5</ele><time>2026-05-01T13:31:49.516Z</time></trkpt><trkpt lat="39.5601283" lon="8.5941683"><ele>169.75</ele><time>2026-05-01T13:31:50.539Z</time></trkpt><trkpt lat="39.5600583" lon="8.5940483"><ele>171.0</ele><time>2026-05-01T13:31:51.517Z</time></trkpt><trkpt lat="39.5599733" lon="8.5939333"><ele>171.0</ele><time>2026-05-01T13:31:52.516Z</time></trkpt><trkpt lat="39.5599117" lon="8.593785"><ele>171.0</ele><time>2026-05-01T13:31:53.518Z</time></trkpt><trkpt lat="39.5598483" lon="8.5936483"><ele>171.0</ele><time>2026-05-01T13:31:54.514Z</time></trkpt><trkpt lat="39.5597717" lon="8.5935117"><ele>171.0</ele><time>2026-05-01T13:31:55.516Z</time></trkpt><trkpt lat="39.559715" lon="8.5933517"><ele>171.0</ele><time>2026-05-01T13:31:56.57Z</time></trkpt><trkpt lat="39.55965" lon="8.5932"><ele>171.0</ele><time>2026-05-01T13:31:57.517Z</time></trkpt><trkpt lat="39.5595767" lon="8.5930783"><ele>171.0</ele><time>2026-05-01T13:31:58.516Z</time></trkpt><trkpt lat="39.559515" lon="8.59294"><ele>171.0</ele><time>2026-05-01T13:31:59.516Z</time></trkpt><trkpt lat="39.5594567" lon="8.5927867"><ele>171.75</ele><time>2026-05-01T13:32:00.516Z</time></trkpt><trkpt lat="39.5593933" lon="8.5926383"><ele>172.5</ele><time>2026-05-01T13:32:01.517Z</time></trkpt><trkpt lat="39.5593233" lon="8.5924783"><ele>173.25</ele><time>2026-05-01T13:32:02.57Z</time></trkpt><trkpt lat="39.5592483" lon="8.59233"><ele>174.0</ele><time>2026-05-01T13:32:03.513Z</time></trkpt><trkpt lat="39.5591833" lon="8.5921733"><ele>174.0</ele><time>2026-05-01T13:32:04.516Z</time></trkpt><trkpt lat="39.559115" lon="8.5920217"><ele>174.0</ele><time>2026-05-01T13:32:05.515Z</time></trkpt><trkpt lat="39.5590483" lon="8.59187"><ele>174.0</ele><time>2026-05-01T13:32:06.514Z</time></trkpt><trkpt lat="39.5589833" lon="8.5917217"><ele>174.0</ele><time>2026-05-01T13:32:07.515Z</time></trkpt><trkpt lat="39.5589183" lon="8.5915817"><ele>175.0</ele><time>2026-05-01T13:32:08.543Z</time></trkpt><trkpt lat="39.5588583" lon="8.5914567"><ele>176.0</ele><time>2026-05-01T13:32:09.518Z</time></trkpt><trkpt lat="39.5587967" lon="8.591315"><ele>177.0</ele><time>2026-05-01T13:32:10.513Z</time></trkpt><trkpt lat="39.5587433" lon="8.5911667"><ele>178.0</ele><time>2026-05-01T13:32:11.516Z</time></trkpt><trkpt lat="39.5586783" lon="8.591045"><ele>179.0</ele><time>2026-05-01T13:32:12.52Z</time></trkpt><trkpt lat="39.5586117" lon="8.5909217"><ele>180.0</ele><time>2026-05-01T13:32:13.513Z</time></trkpt><trkpt lat="39.55855" lon="8.5908"><ele>181.0</ele><time>2026-05-01T13:32:14.538Z</time></trkpt><trkpt lat="39.5584983" lon="8.5907183"><ele>182.0</ele><time>2026-05-01T13:32:15.513Z</time></trkpt><trkpt lat="39.55846" lon="8.59063"><ele>183.0</ele><time>2026-05-01T13:32:16.515Z</time></trkpt><trkpt lat="39.558435" lon="8.5905233"><ele>183.0</ele><time>2026-05-01T13:32:17.517Z</time></trkpt><trkpt lat="39.558395" lon="8.5904567"><ele>183.0</ele><time>2026-05-01T13:32:18.516Z</time></trkpt><trkpt lat="39.5583617" lon="8.5903867"><ele>183.0</ele><time>2026-05-01T13:32:19.518Z</time></trkpt><trkpt lat="39.5583017" lon="8.5903267"><ele>183.0</ele><time>2026-05-01T13:32:21.517Z</time></trkpt><trkpt lat="39.5582267" lon="8.5903483"><ele>183.0</ele><time>2026-05-01T13:32:23.519Z</time></trkpt><trkpt lat="39.558185" lon="8.5904133"><ele>183.0</ele><time>2026-05-01T13:32:25.515Z</time></trkpt><trkpt lat="39.5581483" lon="8.5904833"><ele>183.0</ele><time>2026-05-01T13:32:27.515Z</time></trkpt><trkpt lat="39.5580967" lon="8.5905617"><ele>183.0</ele><time>2026-05-01T13:32:29.513Z</time></trkpt><trkpt lat="39.5580283" lon="8.5905767"><ele>183.0</ele><time>2026-05-01T13:32:34.516Z</time></trkpt><trkpt lat="39.5579717" lon="8.5904433"><ele>183.0</ele><time>2026-05-01T13:32:37.517Z</time></trkpt><trkpt lat="39.557945" lon="8.5903533"><ele>183.0</ele><time>2026-05-01T13:32:38.541Z</time></trkpt><trkpt lat="39.557915" lon="8.5902533"><ele>183.0</ele><time>2026-05-01T13:32:39.516Z</time></trkpt><trkpt lat="39.55788" lon="8.5901417"><ele>183.0</ele><time>2026-05-01T13:32:40.516Z</time></trkpt><trkpt lat="39.5578417" lon="8.59002"><ele>186.25</ele><time>2026-05-01T13:32:41.514Z</time></trkpt><trkpt lat="39.5578" lon="8.5898933"><ele>189.5</ele><time>2026-05-01T13:32:42.515Z</time></trkpt><trkpt lat="39.5577567" lon="8.58976"><ele>192.75</ele><time>2026-05-01T13:32:43.516Z</time></trkpt><trkpt lat="39.5577067" lon="8.5896117"><ele>196.0</ele><time>2026-05-01T13:32:44.535Z</time></trkpt><trkpt lat="39.5576467" lon="8.58947"><ele>196.0</ele><time>2026-05-01T13:32:45.518Z</time></trkpt><trkpt lat="39.5575833" lon="8.5892983"><ele>196.0</ele><time>2026-05-01T13:32:46.517Z</time></trkpt><trkpt lat="39.5575367" lon="8.58916"><ele>196.0</ele><time>2026-05-01T13:32:47.515Z</time></trkpt><trkpt lat="39.557485" lon="8.589025"><ele>196.0</ele><time>2026-05-01T13:32:48.514Z</time></trkpt><trkpt lat="39.5574267" lon="8.5888967"><ele>196.0</ele><time>2026-05-01T13:32:49.515Z</time></trkpt><trkpt lat="39.55737" lon="8.5887733"><ele>196.0</ele><time>2026-05-01T13:32:50.539Z</time></trkpt><trkpt lat="39.55731" lon="8.5886683"><ele>196.0</ele><time>2026-05-01T13:32:51.516Z</time></trkpt><trkpt lat="39.5572517" lon="8.5885683"><ele>196.0</ele><time>2026-05-01T13:32:52.516Z</time></trkpt><trkpt lat="39.5571783" lon="8.5884717"><ele>196.0</ele><time>2026-05-01T13:32:53.514Z</time></trkpt><trkpt lat="39.5571133" lon="8.5883683"><ele>195.60000000000002</ele><time>2026-05-01T13:32:54.517Z</time></trkpt><trkpt lat="39.5570533" lon="8.5883083"><ele>195.2</ele><time>2026-05-01T13:32:55.519Z</time></trkpt><trkpt lat="39.5569733" lon="8.5882117"><ele>194.8</ele><time>2026-05-01T13:32:56.564Z</time></trkpt><trkpt lat="39.5568867" lon="8.5881183"><ele>194.39999999999998</ele><time>2026-05-01T13:32:57.519Z</time></trkpt><trkpt lat="39.5568033" lon="8.5880167"><ele>194.0</ele><time>2026-05-01T13:32:58.516Z</time></trkpt><trkpt lat="39.556725" lon="8.5879083"><ele>197.25</ele><time>2026-05-01T13:32:59.518Z</time></trkpt><trkpt lat="39.5566717" lon="8.5877833"><ele>200.5</ele><time>2026-05-01T13:33:00.513Z</time></trkpt><trkpt lat="39.5566883" lon="8.58756"><ele>203.75</ele><time>2026-05-01T13:33:01.516Z</time></trkpt><trkpt lat="39.5566933" lon="8.5873783"><ele>207.0</ele><time>2026-05-01T13:33:02.532Z</time></trkpt><trkpt lat="39.5567" lon="8.5872217"><ele>207.0</ele><time>2026-05-01T13:33:03.515Z</time></trkpt><trkpt lat="39.5567" lon="8.5870617"><ele>207.0</ele><time>2026-05-01T13:33:04.517Z</time></trkpt><trkpt lat="39.5566867" lon="8.5869217"><ele>207.0</ele><time>2026-05-01T13:33:05.516Z</time></trkpt><trkpt lat="39.5567067" lon="8.5867633"><ele>207.0</ele><time>2026-05-01T13:33:06.516Z</time></trkpt><trkpt lat="39.55673" lon="8.58659"><ele>207.5</ele><time>2026-05-01T13:33:07.517Z</time></trkpt><trkpt lat="39.5567333" lon="8.586435"><ele>208.0</ele><time>2026-05-01T13:33:08.538Z</time></trkpt><trkpt lat="39.5567533" lon="8.5862683"><ele>208.5</ele><time>2026-05-01T13:33:09.527Z</time></trkpt><trkpt lat="39.5567633" lon="8.5861167"><ele>209.0</ele><time>2026-05-01T13:33:10.511Z</time></trkpt><trkpt lat="39.556765" lon="8.58597"><ele>210.25</ele><time>2026-05-01T13:33:11.518Z</time></trkpt><trkpt lat="39.5567733" lon="8.5858167"><ele>211.5</ele><time>2026-05-01T13:33:12.515Z</time></trkpt><trkpt lat="39.5567767" lon="8.585665"><ele>212.75</ele><time>2026-05-01T13:33:13.514Z</time></trkpt><trkpt lat="39.5567967" lon="8.5855267"><ele>214.0</ele><time>2026-05-01T13:33:14.543Z</time></trkpt><trkpt lat="39.5568167" lon="8.5853817"><ele>215.39999999999998</ele><time>2026-05-01T13:33:15.517Z</time></trkpt><trkpt lat="39.5568333" lon="8.5852417"><ele>216.79999999999998</ele><time>2026-05-01T13:33:16.517Z</time></trkpt><trkpt lat="39.5568517" lon="8.58509"><ele>218.20000000000002</ele><time>2026-05-01T13:33:17.516Z</time></trkpt><trkpt lat="39.5568717" lon="8.5849483"><ele>219.60000000000002</ele><time>2026-05-01T13:33:18.519Z</time></trkpt><trkpt lat="39.556885" lon="8.5848083"><ele>221.0</ele><time>2026-05-01T13:33:19.518Z</time></trkpt><trkpt lat="39.5568983" lon="8.58467"><ele>221.0</ele><time>2026-05-01T13:33:20.54Z</time></trkpt><trkpt lat="39.55692" lon="8.58452"><ele>221.00000000000003</ele><time>2026-05-01T13:33:21.513Z</time></trkpt><trkpt lat="39.5569367" lon="8.5843733"><ele>221.00000000000003</ele><time>2026-05-01T13:33:22.514Z</time></trkpt><trkpt lat="39.5569517" lon="8.584255"><ele>221.0</ele><time>2026-05-01T13:33:23.517Z</time></trkpt><trkpt lat="39.5569683" lon="8.584155"><ele>221.0</ele><time>2026-05-01T13:33:24.516Z</time></trkpt><trkpt lat="39.55699" lon="8.5840633"><ele>222.75</ele><time>2026-05-01T13:33:25.517Z</time></trkpt><trkpt lat="39.557015" lon="8.5839167"><ele>224.5</ele><time>2026-05-01T13:33:27.523Z</time></trkpt><trkpt lat="39.55701" lon="8.583825"><ele>226.25</ele><time>2026-05-01T13:33:29.518Z</time></trkpt><trkpt lat="39.5568833" lon="8.58395"><ele>228.0</ele><time>2026-05-01T13:38:44.542Z</time></trkpt><trkpt lat="39.5568467" lon="8.58408"><ele>228.0</ele><time>2026-05-01T13:38:46.517Z</time></trkpt><trkpt lat="39.556835" lon="8.5841733"><ele>228.0</ele><time>2026-05-01T13:38:47.515Z</time></trkpt><trkpt lat="39.5568233" lon="8.58428"><ele>228.0</ele><time>2026-05-01T13:38:48.515Z</time></trkpt><trkpt lat="39.5568067" lon="8.5844"><ele>228.0</ele><time>2026-05-01T13:38:49.513Z</time></trkpt><trkpt lat="39.5567933" lon="8.584535"><ele>228.0</ele><time>2026-05-01T13:38:50.544Z</time></trkpt><trkpt lat="39.556785" lon="8.58466"><ele>226.25</ele><time>2026-05-01T13:38:51.518Z</time></trkpt><trkpt lat="39.556745" lon="8.5848167"><ele>224.5</ele><time>2026-05-01T13:38:52.512Z</time></trkpt><trkpt lat="39.5566733" lon="8.5849633"><ele>222.75</ele><time>2026-05-01T13:38:53.516Z</time></trkpt><trkpt lat="39.556585" lon="8.5851133"><ele>221.0</ele><time>2026-05-01T13:38:54.518Z</time></trkpt><trkpt lat="39.556505" lon="8.58526"><ele>219.25</ele><time>2026-05-01T13:38:55.515Z</time></trkpt><trkpt lat="39.5564317" lon="8.585415"><ele>217.5</ele><time>2026-05-01T13:38:56.575Z</time></trkpt><trkpt lat="39.5563633" lon="8.5855733"><ele>215.75</ele><time>2026-05-01T13:38:57.519Z</time></trkpt><trkpt lat="39.5562967" lon="8.5857433"><ele>214.0</ele><time>2026-05-01T13:38:58.514Z</time></trkpt><trkpt lat="39.5562283" lon="8.5859183"><ele>220.75</ele><time>2026-05-01T13:38:59.517Z</time></trkpt><trkpt lat="39.55617" lon="8.5860917"><ele>227.5</ele><time>2026-05-01T13:39:00.517Z</time></trkpt><trkpt lat="39.5561167" lon="8.586275"><ele>234.25</ele><time>2026-05-01T13:39:01.515Z</time></trkpt><trkpt lat="39.5560817" lon="8.5864383"><ele>241.0</ele><time>2026-05-01T13:39:02.563Z</time></trkpt><trkpt lat="39.5560567" lon="8.58658"><ele>241.0</ele><time>2026-05-01T13:39:03.516Z</time></trkpt><trkpt lat="39.5560417" lon="8.5866867"><ele>241.00000000000003</ele><time>2026-05-01T13:39:04.514Z</time></trkpt><trkpt lat="39.55604" lon="8.586845"><ele>241.00000000000003</ele><time>2026-05-01T13:39:06.518Z</time></trkpt><trkpt lat="39.5560267" lon="8.58698"><ele>241.0</ele><time>2026-05-01T13:39:08.546Z</time></trkpt><trkpt lat="39.555975" lon="8.5868567"><ele>241.0</ele><time>2026-05-01T13:39:12.514Z</time></trkpt><trkpt lat="39.5559583" lon="8.5866217"><ele>241.0</ele><time>2026-05-01T13:39:13.517Z</time></trkpt><trkpt lat="39.5559517" lon="8.586455"><ele>241.0</ele><time>2026-05-01T13:39:14.545Z</time></trkpt><trkpt lat="39.555945" lon="8.5862667"><ele>241.0</ele><time>2026-05-01T13:39:15.515Z</time></trkpt><trkpt lat="39.55594" lon="8.586055"><ele>241.0</ele><time>2026-05-01T13:39:16.514Z</time></trkpt><trkpt lat="39.5559383" lon="8.5858433"><ele>243.0</ele><time>2026-05-01T13:39:17.516Z</time></trkpt><trkpt lat="39.555935" lon="8.5856367"><ele>245.0</ele><time>2026-05-01T13:39:18.516Z</time></trkpt><trkpt lat="39.555935" lon="8.5854317"><ele>247.0</ele><time>2026-05-01T13:39:19.517Z</time></trkpt><trkpt lat="39.5559533" lon="8.585245"><ele>249.0</ele><time>2026-05-01T13:39:20.544Z</time></trkpt><trkpt lat="39.555975" lon="8.585075"><ele>251.0</ele><time>2026-05-01T13:39:21.514Z</time></trkpt><trkpt lat="39.5560217" lon="8.5849133"><ele>253.0</ele><time>2026-05-01T13:39:22.516Z</time></trkpt><trkpt lat="39.556085" lon="8.58478"><ele>255.0</ele><time>2026-05-01T13:39:23.515Z</time></trkpt><trkpt lat="39.5561333" lon="8.5846467"><ele>255.0</ele><time>2026-05-01T13:39:24.516Z</time></trkpt><trkpt lat="39.5561633" lon="8.584515"><ele>255.0</ele><time>2026-05-01T13:39:25.515Z</time></trkpt><trkpt lat="39.5561817" lon="8.5843917"><ele>255.0</ele><time>2026-05-01T13:39:26.572Z</time></trkpt><trkpt lat="39.5561933" lon="8.5842717"><ele>255.0</ele><time>2026-05-01T13:39:27.516Z</time></trkpt><trkpt lat="39.5562083" lon="8.5841567"><ele>255.0</ele><time>2026-05-01T13:39:28.514Z</time></trkpt><trkpt lat="39.5561967" lon="8.58404"><ele>255.5</ele><time>2026-05-01T13:39:29.515Z</time></trkpt><trkpt lat="39.556175" lon="8.5839383"><ele>256.0</ele><time>2026-05-01T13:39:30.517Z</time></trkpt><trkpt lat="39.5561467" lon="8.5838333"><ele>256.5</ele><time>2026-05-01T13:39:31.514Z</time></trkpt><trkpt lat="39.5561167" lon="8.5837283"><ele>257.0</ele><time>2026-05-01T13:39:32.562Z</time></trkpt><trkpt lat="39.5560817" lon="8.583615"><ele>257.5</ele><time>2026-05-01T13:39:33.515Z</time></trkpt><trkpt lat="39.556035" lon="8.58351"><ele>258.0</ele><time>2026-05-01T13:39:34.516Z</time></trkpt><trkpt lat="39.5559767" lon="8.5834033"><ele>258.0</ele><time>2026-05-01T13:39:35.514Z</time></trkpt><trkpt lat="39.5559033" lon="8.583295"><ele>258.0</ele><time>2026-05-01T13:39:36.518Z</time></trkpt><trkpt lat="39.5558383" lon="8.5831817"><ele>258.0</ele><time>2026-05-01T13:39:37.518Z</time></trkpt><trkpt lat="39.555785" lon="8.5830783"><ele>258.0</ele><time>2026-05-01T13:39:38.545Z</time></trkpt><trkpt lat="39.5557433" lon="8.5829533"><ele>258.0</ele><time>2026-05-01T13:39:39.515Z</time></trkpt><trkpt lat="39.5557133" lon="8.5828433"><ele>256.6</ele><time>2026-05-01T13:39:40.515Z</time></trkpt><trkpt lat="39.55572" lon="8.582715"><ele>255.20000000000002</ele><time>2026-05-01T13:39:41.518Z</time></trkpt><trkpt lat="39.5557067" lon="8.5825883"><ele>253.8</ele><time>2026-05-01T13:39:42.515Z</time></trkpt><trkpt lat="39.5556667" lon="8.5824733"><ele>252.4</ele><time>2026-05-01T13:39:43.515Z</time></trkpt><trkpt lat="39.5556217" lon="8.5823617"><ele>251.0</ele><time>2026-05-01T13:39:44.541Z</time></trkpt><trkpt lat="39.5555633" lon="8.58225"><ele>251.0</ele><time>2026-05-01T13:39:45.516Z</time></trkpt><trkpt lat="39.5555083" lon="8.582165"><ele>251.00000000000003</ele><time>2026-05-01T13:39:46.515Z</time></trkpt><trkpt lat="39.5554567" lon="8.58207"><ele>251.00000000000003</ele><time>2026-05-01T13:39:47.516Z</time></trkpt><trkpt lat="39.5554017" lon="8.5819517"><ele>251.0</ele><time>2026-05-01T13:39:48.518Z</time></trkpt><trkpt lat="39.55537" lon="8.581815"><ele>251.0</ele><time>2026-05-01T13:39:49.516Z</time></trkpt><trkpt lat="39.5553683" lon="8.5816883"><ele>255.33333333333334</ele><time>2026-05-01T13:39:50.545Z</time></trkpt><trkpt lat="39.5553567" lon="8.5815833"><ele>259.6666666666667</ele><time>2026-05-01T13:39:51.516Z</time></trkpt><trkpt lat="39.55534" lon="8.5814833"><ele>264.0</ele><time>2026-05-01T13:39:52.516Z</time></trkpt><trkpt lat="39.5553017" lon="8.5813917"><ele>268.3333333333333</ele><time>2026-05-01T13:39:53.518Z</time></trkpt><trkpt lat="39.55526" lon="8.58131"><ele>272.66666666666663</ele><time>2026-05-01T13:39:54.515Z</time></trkpt><trkpt lat="39.555215" lon="8.581225"><ele>277.0</ele><time>2026-05-01T13:39:55.517Z</time></trkpt><trkpt lat="39.5551767" lon="8.5811317"><ele>277.0</ele><time>2026-05-01T13:39:56.575Z</time></trkpt><trkpt lat="39.55514" lon="8.5810367"><ele>277.0</ele><time>2026-05-01T13:39:57.517Z</time></trkpt><trkpt lat="39.5551133" lon="8.5809383"><ele>277.0</ele><time>2026-05-01T13:39:58.516Z</time></trkpt><trkpt lat="39.5551017" lon="8.5808383"><ele>277.0</ele><time>2026-05-01T13:39:59.514Z</time></trkpt><trkpt lat="39.555105" lon="8.5807383"><ele>277.0</ele><time>2026-05-01T13:40:00.515Z</time></trkpt><trkpt lat="39.55513" lon="8.5806417"><ele>277.0</ele><time>2026-05-01T13:40:01.517Z</time></trkpt><trkpt lat="39.5551833" lon="8.5805533"><ele>277.0</ele><time>2026-05-01T13:40:02.563Z</time></trkpt><trkpt lat="39.555235" lon="8.5804733"><ele>277.0</ele><time>2026-05-01T13:40:03.518Z</time></trkpt><trkpt lat="39.555285" lon="8.58039"><ele>277.0</ele><time>2026-05-01T13:40:04.516Z</time></trkpt><trkpt lat="39.5553267" lon="8.5802983"><ele>277.0</ele><time>2026-05-01T13:40:05.516Z</time></trkpt><trkpt lat="39.5553567" lon="8.5802"><ele>277.0</ele><time>2026-05-01T13:40:06.514Z</time></trkpt><trkpt lat="39.5553783" lon="8.5800983"><ele>277.0</ele><time>2026-05-01T13:40:07.518Z</time></trkpt><trkpt lat="39.55539" lon="8.5799917"><ele>276.8333333333333</ele><time>2026-05-01T13:40:08.544Z</time></trkpt><trkpt lat="39.555395" lon="8.5798833"><ele>276.66666666666663</ele><time>2026-05-01T13:40:09.513Z</time></trkpt><trkpt lat="39.55539" lon="8.5797733"><ele>276.5</ele><time>2026-05-01T13:40:10.516Z</time></trkpt><trkpt lat="39.55538" lon="8.5796683"><ele>276.3333333333333</ele><time>2026-05-01T13:40:11.517Z</time></trkpt><trkpt lat="39.555365" lon="8.57956"><ele>276.1666666666667</ele><time>2026-05-01T13:40:12.515Z</time></trkpt><trkpt lat="39.5553417" lon="8.5794567"><ele>276.0</ele><time>2026-05-01T13:40:13.516Z</time></trkpt><trkpt lat="39.5553133" lon="8.57936"><ele>276.0</ele><time>2026-05-01T13:40:14.548Z</time></trkpt><trkpt lat="39.55528" lon="8.579265"><ele>276.0</ele><time>2026-05-01T13:40:15.516Z</time></trkpt><trkpt lat="39.5552383" lon="8.5791767"><ele>276.0</ele><time>2026-05-01T13:40:16.516Z</time></trkpt><trkpt lat="39.555195" lon="8.57909"><ele>276.0</ele><time>2026-05-01T13:40:17.516Z</time></trkpt><trkpt lat="39.55514" lon="8.5790117"><ele>276.0</ele><time>2026-05-01T13:40:18.515Z</time></trkpt><trkpt lat="39.5550783" lon="8.5789433"><ele>276.0</ele><time>2026-05-01T13:40:19.516Z</time></trkpt><trkpt lat="39.5550167" lon="8.5788833"><ele>276.0</ele><time>2026-05-01T13:40:20.545Z</time></trkpt><trkpt lat="39.5549517" lon="8.5788283"><ele>276.0</ele><time>2026-05-01T13:40:21.517Z</time></trkpt><trkpt lat="39.5548867" lon="8.5787783"><ele>276.0</ele><time>2026-05-01T13:40:22.512Z</time></trkpt><trkpt lat="39.554825" lon="8.5787283"><ele>276.0</ele><time>2026-05-01T13:40:23.514Z</time></trkpt><trkpt lat="39.5547633" lon="8.57868"><ele>276.0</ele><time>2026-05-01T13:40:24.517Z</time></trkpt><trkpt lat="39.5547117" lon="8.578625"><ele>276.0</ele><time>2026-05-01T13:40:25.514Z</time></trkpt><trkpt lat="39.55466" lon="8.578485"><ele>275.40000000000003</ele><time>2026-05-01T13:40:27.518Z</time></trkpt><trkpt lat="39.55466" lon="8.578395"><ele>274.8</ele><time>2026-05-01T13:40:28.514Z</time></trkpt><trkpt lat="39.5546733" lon="8.57829"><ele>274.20000000000005</ele><time>2026-05-01T13:40:29.511Z</time></trkpt><trkpt lat="39.5546983" lon="8.5781633"><ele>273.6</ele><time>2026-05-01T13:40:30.511Z</time></trkpt><trkpt lat="39.5547433" lon="8.5780133"><ele>273.0</ele><time>2026-05-01T13:40:31.511Z</time></trkpt><trkpt lat="39.5548083" lon="8.5778583"><ele>276.0</ele><time>2026-05-01T13:40:32.561Z</time></trkpt><trkpt lat="39.5548917" lon="8.5776967"><ele>279.0</ele><time>2026-05-01T13:40:33.511Z</time></trkpt><trkpt lat="39.5549917" lon="8.5775467"><ele>282.0</ele><time>2026-05-01T13:40:34.515Z</time></trkpt><trkpt lat="39.5551167" lon="8.5774033"><ele>282.0</ele><time>2026-05-01T13:40:35.513Z</time></trkpt><trkpt lat="39.555245" lon="8.5772833"><ele>282.0</ele><time>2026-05-01T13:40:36.515Z</time></trkpt><trkpt lat="39.5553583" lon="8.5771317"><ele>282.0</ele><time>2026-05-01T13:40:37.517Z</time></trkpt><trkpt lat="39.5554483" lon="8.5769683"><ele>286.0</ele><time>2026-05-01T13:40:38.548Z</time></trkpt><trkpt lat="39.55553" lon="8.5768"><ele>290.0</ele><time>2026-05-01T13:40:39.512Z</time></trkpt><trkpt lat="39.55561" lon="8.57666"><ele>294.0</ele><time>2026-05-01T13:40:40.517Z</time></trkpt><trkpt lat="39.5557" lon="8.5765367"><ele>298.0</ele><time>2026-05-01T13:40:41.519Z</time></trkpt><trkpt lat="39.5558017" lon="8.5764433"><ele>298.0</ele><time>2026-05-01T13:40:42.51Z</time></trkpt><trkpt lat="39.5559067" lon="8.5764217"><ele>298.0</ele><time>2026-05-01T13:40:43.518Z</time></trkpt><trkpt lat="39.55603" lon="8.576405"><ele>298.0</ele><time>2026-05-01T13:40:44.54Z</time></trkpt><trkpt lat="39.5561333" lon="8.5763483"><ele>298.0</ele><time>2026-05-01T13:40:45.513Z</time></trkpt><trkpt lat="39.5562133" lon="8.5763233"><ele>298.0</ele><time>2026-05-01T13:40:46.514Z</time></trkpt><trkpt lat="39.55629" lon="8.576305"><ele>300.2</ele><time>2026-05-01T13:40:47.512Z</time></trkpt><trkpt lat="39.5563567" lon="8.5762667"><ele>302.4</ele><time>2026-05-01T13:40:48.514Z</time></trkpt><trkpt lat="39.5564217" lon="8.57623"><ele>304.59999999999997</ele><time>2026-05-01T13:40:49.516Z</time></trkpt><trkpt lat="39.556415" lon="8.5764533"><ele>306.8</ele><time>2026-05-01T13:40:52.517Z</time></trkpt><trkpt lat="39.5564167" lon="8.5765983"><ele>309.0</ele><time>2026-05-01T13:40:53.515Z</time></trkpt><trkpt lat="39.5564017" lon="8.576725"><ele>309.0</ele><time>2026-05-01T13:40:54.513Z</time></trkpt><trkpt lat="39.5563883" lon="8.5768533"><ele>309.0</ele><time>2026-05-01T13:40:55.515Z</time></trkpt><trkpt lat="39.55638" lon="8.5770133"><ele>309.0</ele><time>2026-05-01T13:40:56.525Z</time></trkpt><trkpt lat="39.556395" lon="8.5771767"><ele>309.0</ele><time>2026-05-01T13:40:58.514Z</time></trkpt><trkpt lat="39.5564317" lon="8.5770583"><ele>309.0</ele><time>2026-05-01T13:41:04.514Z</time></trkpt><trkpt lat="39.5564583" lon="8.576955"><ele>309.0</ele><time>2026-05-01T13:41:05.513Z</time></trkpt><trkpt lat="39.5565083" lon="8.576845"><ele>309.0</ele><time>2026-05-01T13:41:06.513Z</time></trkpt><trkpt lat="39.556555" lon="8.576755"><ele>309.0</ele><time>2026-05-01T13:41:07.512Z</time></trkpt><trkpt lat="39.556615" lon="8.5766667"><ele>309.0</ele><time>2026-05-01T13:41:08.541Z</time></trkpt><trkpt lat="39.55668" lon="8.5765633"><ele>309.0</ele><time>2026-05-01T13:41:09.514Z</time></trkpt><trkpt lat="39.5567267" lon="8.576445"><ele>309.0</ele><time>2026-05-01T13:41:10.512Z</time></trkpt><trkpt lat="39.5567767" lon="8.5763183"><ele>309.0</ele><time>2026-05-01T13:41:11.518Z</time></trkpt><trkpt lat="39.556835" lon="8.5761817"><ele>309.0</ele><time>2026-05-01T13:41:12.515Z</time></trkpt><trkpt lat="39.5568933" lon="8.5760567"><ele>309.0</ele><time>2026-05-01T13:41:13.514Z</time></trkpt><trkpt lat="39.5569467" lon="8.5759217"><ele>309.5</ele><time>2026-05-01T13:41:14.543Z</time></trkpt><trkpt lat="39.5570233" lon="8.57583"><ele>310.0</ele><time>2026-05-01T13:41:15.514Z</time></trkpt><trkpt lat="39.557075" lon="8.5757083"><ele>310.5</ele><time>2026-05-01T13:41:16.514Z</time></trkpt><trkpt lat="39.5571483" lon="8.5755817"><ele>311.0</ele><time>2026-05-01T13:41:17.515Z</time></trkpt><trkpt lat="39.5572267" lon="8.5754667"><ele>309.75</ele><time>2026-05-01T13:41:18.514Z</time></trkpt><trkpt lat="39.5572833" lon="8.57531"><ele>308.5</ele><time>2026-05-01T13:41:19.517Z</time></trkpt><trkpt lat="39.55734" lon="8.575165"><ele>307.25</ele><time>2026-05-01T13:41:20.543Z</time></trkpt><trkpt lat="39.557355" lon="8.5750183"><ele>306.0</ele><time>2026-05-01T13:41:21.519Z</time></trkpt><trkpt lat="39.5573567" lon="8.57488"><ele>306.0</ele><time>2026-05-01T13:41:22.516Z</time></trkpt><trkpt lat="39.5573333" lon="8.5747483"><ele>306.0</ele><time>2026-05-01T13:41:23.516Z</time></trkpt><trkpt lat="39.55731" lon="8.5746033"><ele>306.0</ele><time>2026-05-01T13:41:24.511Z</time></trkpt><trkpt lat="39.5572817" lon="8.57448"><ele>306.0</ele><time>2026-05-01T13:41:25.515Z</time></trkpt><trkpt lat="39.5572333" lon="8.57435"><ele>306.0</ele><time>2026-05-01T13:41:26.574Z</time></trkpt><trkpt lat="39.5571467" lon="8.574205"><ele>307.5</ele><time>2026-05-01T13:41:27.514Z</time></trkpt><trkpt lat="39.557075" lon="8.5741417"><ele>309.0</ele><time>2026-05-01T13:41:28.513Z</time></trkpt><trkpt lat="39.557005" lon="8.574085"><ele>310.5</ele><time>2026-05-01T13:41:29.513Z</time></trkpt><trkpt lat="39.55692" lon="8.5740217"><ele>312.0</ele><time>2026-05-01T13:41:31.515Z</time></trkpt><trkpt lat="39.55683" lon="8.5740017"><ele>313.5</ele><time>2026-05-01T13:41:33.513Z</time></trkpt><trkpt lat="39.556755" lon="8.5740483"><ele>315.0</ele><time>2026-05-01T13:41:34.514Z</time></trkpt><trkpt lat="39.5566667" lon="8.574115"><ele>318.0</ele><time>2026-05-01T13:41:35.513Z</time></trkpt><trkpt lat="39.5565633" lon="8.5742217"><ele>321.0</ele><time>2026-05-01T13:41:36.513Z</time></trkpt><trkpt lat="39.556445" lon="8.5743217"><ele>324.0</ele><time>2026-05-01T13:41:37.514Z</time></trkpt><trkpt lat="39.5563183" lon="8.5744617"><ele>327.0</ele><time>2026-05-01T13:41:38.545Z</time></trkpt><trkpt lat="39.5561867" lon="8.574635"><ele>332.3333333333333</ele><time>2026-05-01T13:41:39.515Z</time></trkpt><trkpt lat="39.5560467" lon="8.5748217"><ele>337.66666666666663</ele><time>2026-05-01T13:41:40.515Z</time></trkpt><trkpt lat="39.555915" lon="8.5749433"><ele>343.0</ele><time>2026-05-01T13:41:41.512Z</time></trkpt><trkpt lat="39.5557733" lon="8.5750533"><ele>343.0</ele><time>2026-05-01T13:41:42.513Z</time></trkpt><trkpt lat="39.5556433" lon="8.5751617"><ele>343.0</ele><time>2026-05-01T13:41:43.515Z</time></trkpt><trkpt lat="39.5555117" lon="8.57523"><ele>343.0</ele><time>2026-05-01T13:41:44.544Z</time></trkpt><trkpt lat="39.5553817" lon="8.5753033"><ele>343.0</ele><time>2026-05-01T13:41:45.516Z</time></trkpt><trkpt lat="39.5552633" lon="8.5754317"><ele>338.3333333333333</ele><time>2026-05-01T13:41:46.514Z</time></trkpt><trkpt lat="39.5551267" lon="8.5756183"><ele>333.6666666666667</ele><time>2026-05-01T13:41:47.514Z</time></trkpt><trkpt lat="39.5550067" lon="8.5757533"><ele>329.0</ele><time>2026-05-01T13:41:48.518Z</time></trkpt><trkpt lat="39.5549117" lon="8.57588"><ele>329.0</ele><time>2026-05-01T13:41:49.517Z</time></trkpt><trkpt lat="39.55484" lon="8.5759533"><ele>329.0</ele><time>2026-05-01T13:41:50.542Z</time></trkpt><trkpt lat="39.55494" lon="8.5758467"><ele>329.0</ele><time>2026-05-01T13:41:54.514Z</time></trkpt><trkpt lat="39.5550567" lon="8.57576"><ele>329.0</ele><time>2026-05-01T13:41:55.515Z</time></trkpt><trkpt lat="39.5551567" lon="8.5756883"><ele>329.0</ele><time>2026-05-01T13:41:56.574Z</time></trkpt><trkpt lat="39.55525" lon="8.5755883"><ele>329.0</ele><time>2026-05-01T13:41:57.515Z</time></trkpt><trkpt lat="39.5553833" lon="8.5754583"><ele>329.0</ele><time>2026-05-01T13:41:58.514Z</time></trkpt><trkpt lat="39.555525" lon="8.5753233"><ele>333.6666666666667</ele><time>2026-05-01T13:41:59.515Z</time></trkpt><trkpt lat="39.5556483" lon="8.575195"><ele>338.3333333333333</ele><time>2026-05-01T13:42:00.513Z</time></trkpt><trkpt lat="39.555775" lon="8.57507"><ele>343.0</ele><time>2026-05-01T13:42:01.513Z</time></trkpt><trkpt lat="39.5558767" lon="8.5749383"><ele>343.0</ele><time>2026-05-01T13:42:02.516Z</time></trkpt><trkpt lat="39.55601" lon="8.5747917"><ele>343.0</ele><time>2026-05-01T13:42:03.515Z</time></trkpt><trkpt lat="39.55613" lon="8.5746533"><ele>343.0</ele><time>2026-05-01T13:42:04.511Z</time></trkpt><trkpt lat="39.5562067" lon="8.574535"><ele>339.79999999999995</ele><time>2026-05-01T13:42:05.517Z</time></trkpt><trkpt lat="39.5562517" lon="8.5743933"><ele>336.6</ele><time>2026-05-01T13:42:06.515Z</time></trkpt><trkpt lat="39.556295" lon="8.5742633"><ele>333.4</ele><time>2026-05-01T13:42:07.516Z</time></trkpt><trkpt lat="39.5562917" lon="8.5741267"><ele>330.20000000000005</ele><time>2026-05-01T13:42:08.545Z</time></trkpt><trkpt lat="39.5562983" lon="8.5739833"><ele>327.0</ele><time>2026-05-01T13:42:09.513Z</time></trkpt><trkpt lat="39.5563033" lon="8.5738383"><ele>328.75</ele><time>2026-05-01T13:42:10.514Z</time></trkpt><trkpt lat="39.5563067" lon="8.5736817"><ele>330.5</ele><time>2026-05-01T13:42:11.513Z</time></trkpt><trkpt lat="39.5563267" lon="8.5735083"><ele>332.25</ele><time>2026-05-01T13:42:12.516Z</time></trkpt><trkpt lat="39.556355" lon="8.5733333"><ele>334.0</ele><time>2026-05-01T13:42:13.519Z</time></trkpt><trkpt lat="39.5563867" lon="8.5731617"><ele>334.0</ele><time>2026-05-01T13:42:14.545Z</time></trkpt><trkpt lat="39.5564117" lon="8.5729833"><ele>334.0</ele><time>2026-05-01T13:42:15.516Z</time></trkpt><trkpt lat="39.55643" lon="8.5727933"><ele>334.0</ele><time>2026-05-01T13:42:16.515Z</time></trkpt><trkpt lat="39.5564367" lon="8.5726033"><ele>334.0</ele><time>2026-05-01T13:42:17.516Z</time></trkpt><trkpt lat="39.55643" lon="8.5724217"><ele>336.5</ele><time>2026-05-01T13:42:18.516Z</time></trkpt><trkpt lat="39.5564217" lon="8.57225"><ele>339.0</ele><time>2026-05-01T13:42:19.515Z</time></trkpt><trkpt lat="39.55641" lon="8.5720867"><ele>341.5</ele><time>2026-05-01T13:42:20.543Z</time></trkpt><trkpt lat="39.5563917" lon="8.5719217"><ele>344.0</ele><time>2026-05-01T13:42:21.511Z</time></trkpt><trkpt lat="39.5563733" lon="8.5717533"><ele>348.25</ele><time>2026-05-01T13:42:22.513Z</time></trkpt><trkpt lat="39.5563633" lon="8.57161"><ele>352.5</ele><time>2026-05-01T13:42:23.514Z</time></trkpt><trkpt lat="39.5563567" lon="8.5714617"><ele>356.75</ele><time>2026-05-01T13:42:24.514Z</time></trkpt><trkpt lat="39.5563483" lon="8.5713033"><ele>361.0</ele><time>2026-05-01T13:42:25.516Z</time></trkpt><trkpt lat="39.55634" lon="8.5711567"><ele>363.75</ele><time>2026-05-01T13:42:26.569Z</time></trkpt><trkpt lat="39.5563283" lon="8.5710167"><ele>366.5</ele><time>2026-05-01T13:42:27.512Z</time></trkpt><trkpt lat="39.5563217" lon="8.5708817"><ele>369.25</ele><time>2026-05-01T13:42:28.519Z</time></trkpt><trkpt lat="39.556335" lon="8.5707733"><ele>372.0</ele><time>2026-05-01T13:42:29.51Z</time></trkpt><trkpt lat="39.5564433" lon="8.57063"><ele>372.0</ele><time>2026-05-01T13:42:30.512Z</time></trkpt><trkpt lat="39.5565217" lon="8.5706"><ele>372.0</ele><time>2026-05-01T13:42:31.514Z</time></trkpt><trkpt lat="39.556605" lon="8.5705817"><ele>372.0</ele><time>2026-05-01T13:42:32.547Z</time></trkpt><trkpt lat="39.5567617" lon="8.5707667"><ele>372.0</ele><time>2026-05-01T13:42:33.511Z</time></trkpt><trkpt lat="39.5568533" lon="8.5707633"><ele>372.00000000000006</ele><time>2026-05-01T13:42:34.514Z</time></trkpt><trkpt lat="39.5569267" lon="8.5707317"><ele>372.0</ele><time>2026-05-01T13:42:35.517Z</time></trkpt><trkpt lat="39.5570033" lon="8.5706867"><ele>372.0</ele><time>2026-05-01T13:42:36.517Z</time></trkpt><trkpt lat="39.55707" lon="8.5706317"><ele>372.0</ele><time>2026-05-01T13:42:37.517Z</time></trkpt><trkpt lat="39.5571333" lon="8.5705833"><ele>372.0</ele><time>2026-05-01T13:42:38.543Z</time></trkpt><trkpt lat="39.5571867" lon="8.570525"><ele>372.00000000000006</ele><time>2026-05-01T13:42:39.512Z</time></trkpt><trkpt lat="39.557225" lon="8.5704583"><ele>372.0</ele><time>2026-05-01T13:42:40.514Z</time></trkpt><trkpt lat="39.5572433" lon="8.5703633"><ele>372.6666666666667</ele><time>2026-05-01T13:42:41.515Z</time></trkpt><trkpt lat="39.5572617" lon="8.5702733"><ele>373.3333333333333</ele><time>2026-05-01T13:42:42.517Z</time></trkpt><trkpt lat="39.55724" lon="8.5701"><ele>374.0</ele><time>2026-05-01T13:42:44.548Z</time></trkpt><trkpt lat="39.5571933" lon="8.5700167"><ele>374.66666666666663</ele><time>2026-05-01T13:42:45.514Z</time></trkpt><trkpt lat="39.5571567" lon="8.5699383"><ele>375.3333333333333</ele><time>2026-05-01T13:42:46.516Z</time></trkpt><trkpt lat="39.5571217" lon="8.5698533"><ele>376.0</ele><time>2026-05-01T13:42:47.511Z</time></trkpt><trkpt lat="39.5570683" lon="8.5697667"><ele>375.5</ele><time>2026-05-01T13:42:48.511Z</time></trkpt><trkpt lat="39.556995" lon="8.5696783"><ele>375.0</ele><time>2026-05-01T13:42:49.512Z</time></trkpt><trkpt lat="39.5569183" lon="8.569595"><ele>374.5</ele><time>2026-05-01T13:42:50.544Z</time></trkpt><trkpt lat="39.556855" lon="8.5695233"><ele>374.0</ele><time>2026-05-01T13:42:51.514Z</time></trkpt><trkpt lat="39.556795" lon="8.5694517"><ele>373.5</ele><time>2026-05-01T13:42:52.516Z</time></trkpt><trkpt lat="39.5567417" lon="8.569375"><ele>373.0</ele><time>2026-05-01T13:42:53.512Z</time></trkpt><trkpt lat="39.5566767" lon="8.5693067"><ele>372.5</ele><time>2026-05-01T13:42:54.516Z</time></trkpt><trkpt lat="39.5566067" lon="8.569235"><ele>372.0</ele><time>2026-05-01T13:42:55.517Z</time></trkpt><trkpt lat="39.5565517" lon="8.5691633"><ele>371.5</ele><time>2026-05-01T13:42:56.575Z</time></trkpt><trkpt lat="39.556495" lon="8.5690867"><ele>371.0</ele><time>2026-05-01T13:42:57.512Z</time></trkpt><trkpt lat="39.55643" lon="8.5690283"><ele>370.5</ele><time>2026-05-01T13:42:58.513Z</time></trkpt><trkpt lat="39.5563717" lon="8.5689433"><ele>370.0</ele><time>2026-05-01T13:42:59.517Z</time></trkpt><trkpt lat="39.5563083" lon="8.568855"><ele>370.0</ele><time>2026-05-01T13:43:00.514Z</time></trkpt><trkpt lat="39.5562433" lon="8.5687817"><ele>370.0</ele><time>2026-05-01T13:43:01.517Z</time></trkpt><trkpt lat="39.5561833" lon="8.568715"><ele>370.0</ele><time>2026-05-01T13:43:02.565Z</time></trkpt><trkpt lat="39.55612" lon="8.5686583"><ele>370.0</ele><time>2026-05-01T13:43:03.517Z</time></trkpt><trkpt lat="39.556055" lon="8.5686033"><ele>370.0</ele><time>2026-05-01T13:43:04.516Z</time></trkpt><trkpt lat="39.555945" lon="8.5685367"><ele>370.0</ele><time>2026-05-01T13:43:06.515Z</time></trkpt><trkpt lat="39.5558817" lon="8.5685317"><ele>369.5</ele><time>2026-05-01T13:43:07.52Z</time></trkpt><trkpt lat="39.5557817" lon="8.568615"><ele>369.0</ele><time>2026-05-01T13:43:09.513Z</time></trkpt><trkpt lat="39.5557233" lon="8.5687083"><ele>368.5</ele><time>2026-05-01T13:43:10.514Z</time></trkpt><trkpt lat="39.5556633" lon="8.5688683"><ele>368.0</ele><time>2026-05-01T13:43:11.512Z</time></trkpt><trkpt lat="39.555615" lon="8.56903"><ele>369.0</ele><time>2026-05-01T13:43:12.515Z</time></trkpt><trkpt lat="39.55557" lon="8.56913"><ele>370.0</ele><time>2026-05-01T13:43:13.516Z</time></trkpt><trkpt lat="39.55552" lon="8.5692"><ele>371.0</ele><time>2026-05-01T13:43:14.545Z</time></trkpt><trkpt lat="39.55547" lon="8.569255"><ele>372.0</ele><time>2026-05-01T13:43:15.515Z</time></trkpt><trkpt lat="39.555425" lon="8.56932"><ele>373.0</ele><time>2026-05-01T13:43:16.514Z</time></trkpt><trkpt lat="39.5553617" lon="8.5694217"><ele>374.0</ele><time>2026-05-01T13:43:18.516Z</time></trkpt><trkpt lat="39.5552467" lon="8.56948"><ele>374.0</ele><time>2026-05-01T13:43:20.546Z</time></trkpt><trkpt lat="39.5551767" lon="8.569505"><ele>374.0</ele><time>2026-05-01T13:43:21.514Z</time></trkpt><trkpt lat="39.5551083" lon="8.5694867"><ele>374.0</ele><time>2026-05-01T13:43:22.512Z</time></trkpt><trkpt lat="39.5550483" lon="8.5694333"><ele>374.0</ele><time>2026-05-01T13:43:23.512Z</time></trkpt><trkpt lat="39.5549817" lon="8.5693617"><ele>374.0</ele><time>2026-05-01T13:43:24.515Z</time></trkpt><trkpt lat="39.5549067" lon="8.5692733"><ele>374.0</ele><time>2026-05-01T13:43:25.513Z</time></trkpt><trkpt lat="39.55483" lon="8.5691433"><ele>374.0</ele><time>2026-05-01T13:43:26.577Z</time></trkpt><trkpt lat="39.5547567" lon="8.5690167"><ele>374.0</ele><time>2026-05-01T13:43:27.512Z</time></trkpt><trkpt lat="39.5546667" lon="8.5688817"><ele>374.0</ele><time>2026-05-01T13:43:28.515Z</time></trkpt><trkpt lat="39.5545833" lon="8.5687933"><ele>374.0</ele><time>2026-05-01T13:43:29.512Z</time></trkpt><trkpt lat="39.554515" lon="8.568695"><ele>373.79999999999995</ele><time>2026-05-01T13:43:30.516Z</time></trkpt><trkpt lat="39.5544583" lon="8.568565"><ele>373.59999999999997</ele><time>2026-05-01T13:43:31.52Z</time></trkpt><trkpt lat="39.5544233" lon="8.568425"><ele>373.4</ele><time>2026-05-01T13:43:32.562Z</time></trkpt><trkpt lat="39.5543933" lon="8.5683317"><ele>373.2</ele><time>2026-05-01T13:43:33.512Z</time></trkpt><trkpt lat="39.55436" lon="8.5682417"><ele>373.0</ele><time>2026-05-01T13:43:34.513Z</time></trkpt><trkpt lat="39.5543417" lon="8.568155"><ele>373.0</ele><time>2026-05-01T13:43:35.513Z</time></trkpt><trkpt lat="39.5543433" lon="8.568005"><ele>373.0</ele><time>2026-05-01T13:43:37.515Z</time></trkpt><trkpt lat="39.5543483" lon="8.5678717"><ele>373.0</ele><time>2026-05-01T13:43:39.515Z</time></trkpt><trkpt lat="39.5543667" lon="8.56777"><ele>373.0</ele><time>2026-05-01T13:43:41.515Z</time></trkpt><trkpt lat="39.55441" lon="8.567665"><ele>373.0</ele><time>2026-05-01T13:43:44.543Z</time></trkpt><trkpt lat="39.55445" lon="8.5675733"><ele>372.79999999999995</ele><time>2026-05-01T13:43:46.514Z</time></trkpt><trkpt lat="39.5544983" lon="8.5674767"><ele>372.6</ele><time>2026-05-01T13:43:48.512Z</time></trkpt><trkpt lat="39.554535" lon="8.567375"><ele>372.4</ele><time>2026-05-01T13:43:50.544Z</time></trkpt><trkpt lat="39.5545617" lon="8.5672567"><ele>372.20000000000005</ele><time>2026-05-01T13:43:52.514Z</time></trkpt><trkpt lat="39.55458" lon="8.5671267"><ele>372.0</ele><time>2026-05-01T13:43:54.513Z</time></trkpt><trkpt lat="39.5545733" lon="8.566955"><ele>371.3333333333333</ele><time>2026-05-01T13:43:56.576Z</time></trkpt><trkpt lat="39.5545667" lon="8.5668617"><ele>370.6666666666667</ele><time>2026-05-01T13:43:57.517Z</time></trkpt><trkpt lat="39.5545533" lon="8.5667617"><ele>370.0</ele><time>2026-05-01T13:43:58.515Z</time></trkpt><trkpt lat="39.55454" lon="8.5666583"><ele>369.33333333333337</ele><time>2026-05-01T13:43:59.514Z</time></trkpt><trkpt lat="39.55453" lon="8.566555"><ele>368.6666666666667</ele><time>2026-05-01T13:44:00.516Z</time></trkpt><trkpt lat="39.554515" lon="8.5664583"><ele>368.0</ele><time>2026-05-01T13:44:01.514Z</time></trkpt><trkpt lat="39.5545" lon="8.56636"><ele>368.0</ele><time>2026-05-01T13:44:02.54Z</time></trkpt><trkpt lat="39.5544867" lon="8.5662667"><ele>368.0</ele><time>2026-05-01T13:44:03.515Z</time></trkpt><trkpt lat="39.554475" lon="8.5661767"><ele>368.0</ele><time>2026-05-01T13:44:04.514Z</time></trkpt><trkpt lat="39.554465" lon="8.5660933"><ele>368.0</ele><time>2026-05-01T13:44:05.517Z</time></trkpt><trkpt lat="39.5544533" lon="8.5660117"><ele>368.0</ele><time>2026-05-01T13:44:06.513Z</time></trkpt><trkpt lat="39.554415" lon="8.5658567"><ele>368.0</ele><time>2026-05-01T13:44:08.544Z</time></trkpt><trkpt lat="39.5543417" lon="8.56572"><ele>366.14285714285717</ele><time>2026-05-01T13:44:10.512Z</time></trkpt><trkpt lat="39.554295" lon="8.5656583"><ele>364.2857142857143</ele><time>2026-05-01T13:44:11.514Z</time></trkpt><trkpt lat="39.5542417" lon="8.565605"><ele>362.42857142857144</ele><time>2026-05-01T13:44:12.517Z</time></trkpt><trkpt lat="39.5541817" lon="8.56556"><ele>360.57142857142856</ele><time>2026-05-01T13:44:13.513Z</time></trkpt><trkpt lat="39.5541167" lon="8.56552"><ele>358.7142857142857</ele><time>2026-05-01T13:44:14.544Z</time></trkpt><trkpt lat="39.5540483" lon="8.56549"><ele>356.85714285714283</ele><time>2026-05-01T13:44:15.515Z</time></trkpt><trkpt lat="39.5539767" lon="8.5654683"><ele>355.0</ele><time>2026-05-01T13:44:16.515Z</time></trkpt><trkpt lat="39.5539017" lon="8.5654533"><ele>355.0</ele><time>2026-05-01T13:44:17.513Z</time></trkpt><trkpt lat="39.5538283" lon="8.56544"><ele>355.0</ele><time>2026-05-01T13:44:18.515Z</time></trkpt><trkpt lat="39.5537567" lon="8.5654333"><ele>355.0</ele><time>2026-05-01T13:44:19.513Z</time></trkpt><trkpt lat="39.5536917" lon="8.565425"><ele>355.0</ele><time>2026-05-01T13:44:20.545Z</time></trkpt><trkpt lat="39.553625" lon="8.565415"><ele>355.0</ele><time>2026-05-01T13:44:21.513Z</time></trkpt><trkpt lat="39.5535083" lon="8.5654167"><ele>355.0</ele><time>2026-05-01T13:44:23.514Z</time></trkpt><trkpt lat="39.5534067" lon="8.565425"><ele>356.2</ele><time>2026-05-01T13:44:25.514Z</time></trkpt><trkpt lat="39.5533217" lon="8.5653933"><ele>357.4</ele><time>2026-05-01T13:44:27.513Z</time></trkpt><trkpt lat="39.5532517" lon="8.5653033"><ele>358.6</ele><time>2026-05-01T13:44:29.514Z</time></trkpt><trkpt lat="39.553215" lon="8.56517"><ele>359.8</ele><time>2026-05-01T13:44:31.516Z</time></trkpt><trkpt lat="39.5532317" lon="8.564985"><ele>361.0</ele><time>2026-05-01T13:44:33.513Z</time></trkpt><trkpt lat="39.5532717" lon="8.5648783"><ele>359.0</ele><time>2026-05-01T13:44:34.513Z</time></trkpt><trkpt lat="39.5533133" lon="8.56479"><ele>357.0</ele><time>2026-05-01T13:44:35.513Z</time></trkpt><trkpt lat="39.553365" lon="8.56471"><ele>355.0</ele><time>2026-05-01T13:44:36.514Z</time></trkpt><trkpt lat="39.55342" lon="8.56464"><ele>353.0</ele><time>2026-05-01T13:44:37.515Z</time></trkpt><trkpt lat="39.5534783" lon="8.5645783"><ele>351.0</ele><time>2026-05-01T13:44:38.544Z</time></trkpt><trkpt lat="39.55354" lon="8.5645167"><ele>349.0</ele><time>2026-05-01T13:44:39.515Z</time></trkpt><trkpt lat="39.5536" lon="8.5644567"><ele>349.0</ele><time>2026-05-01T13:44:40.513Z</time></trkpt><trkpt lat="39.5536583" lon="8.5643983"><ele>349.0</ele><time>2026-05-01T13:44:41.514Z</time></trkpt><trkpt lat="39.5537117" lon="8.5643483"><ele>349.0</ele><time>2026-05-01T13:44:42.516Z</time></trkpt><trkpt lat="39.553805" lon="8.564245"><ele>349.0</ele><time>2026-05-01T13:44:44.539Z</time></trkpt><trkpt lat="39.5538633" lon="8.5641167"><ele>349.0</ele><time>2026-05-01T13:44:46.513Z</time></trkpt><trkpt lat="39.5538817" lon="8.56397"><ele>344.0</ele><time>2026-05-01T13:44:48.517Z</time></trkpt><trkpt lat="39.5538667" lon="8.5638"><ele>339.0</ele><time>2026-05-01T13:44:50.542Z</time></trkpt><trkpt lat="39.5538583" lon="8.5637117"><ele>334.0</ele><time>2026-05-01T13:44:51.515Z</time></trkpt><trkpt lat="39.5538467" lon="8.5636167"><ele>329.0</ele><time>2026-05-01T13:44:52.515Z</time></trkpt><trkpt lat="39.5538317" lon="8.5635217"><ele>324.0</ele><time>2026-05-01T13:44:53.512Z</time></trkpt><trkpt lat="39.5538083" lon="8.563435"><ele>319.0</ele><time>2026-05-01T13:44:54.518Z</time></trkpt><trkpt lat="39.5537717" lon="8.5633533"><ele>319.7142857142857</ele><time>2026-05-01T13:44:55.515Z</time></trkpt><trkpt lat="39.5537283" lon="8.5632733"><ele>320.4285714285714</ele><time>2026-05-01T13:44:56.572Z</time></trkpt><trkpt lat="39.5536783" lon="8.5631983"><ele>321.1428571428571</ele><time>2026-05-01T13:44:57.519Z</time></trkpt><trkpt lat="39.55363" lon="8.563125"><ele>321.8571428571429</ele><time>2026-05-01T13:44:58.515Z</time></trkpt><trkpt lat="39.5535833" lon="8.5630517"><ele>322.57142857142856</ele><time>2026-05-01T13:44:59.511Z</time></trkpt><trkpt lat="39.5535433" lon="8.562975"><ele>323.2857142857143</ele><time>2026-05-01T13:45:00.515Z</time></trkpt><trkpt lat="39.5535117" lon="8.5628933"><ele>324.0</ele><time>2026-05-01T13:45:01.515Z</time></trkpt><trkpt lat="39.553485" lon="8.5628033"><ele>324.0</ele><time>2026-05-01T13:45:02.562Z</time></trkpt><trkpt lat="39.5534683" lon="8.56271"><ele>324.0</ele><time>2026-05-01T13:45:03.515Z</time></trkpt><trkpt lat="39.5534567" lon="8.562615"><ele>324.0</ele><time>2026-05-01T13:45:04.516Z</time></trkpt><trkpt lat="39.5534533" lon="8.5625167"><ele>324.0</ele><time>2026-05-01T13:45:05.51Z</time></trkpt><trkpt lat="39.5534533" lon="8.5624267"><ele>324.0</ele><time>2026-05-01T13:45:06.514Z</time></trkpt><trkpt lat="39.5534567" lon="8.5623417"><ele>324.0</ele><time>2026-05-01T13:45:07.514Z</time></trkpt><trkpt lat="39.5534233" lon="8.5621917"><ele>324.0</ele><time>2026-05-01T13:45:09.512Z</time></trkpt><trkpt lat="39.55334" lon="8.5620783"><ele>324.0</ele><time>2026-05-01T13:45:11.513Z</time></trkpt><trkpt lat="39.5532833" lon="8.56204"><ele>324.0</ele><time>2026-05-01T13:45:12.516Z</time></trkpt><trkpt lat="39.5532117" lon="8.5620217"><ele>324.0</ele><time>2026-05-01T13:45:13.514Z</time></trkpt><trkpt lat="39.5531267" lon="8.5620183"><ele>324.0</ele><time>2026-05-01T13:45:14.544Z</time></trkpt><trkpt lat="39.5530367" lon="8.56203"><ele>324.0</ele><time>2026-05-01T13:45:15.514Z</time></trkpt><trkpt lat="39.5529483" lon="8.5620583"><ele>324.6666666666667</ele><time>2026-05-01T13:45:16.512Z</time></trkpt><trkpt lat="39.5528667" lon="8.5620933"><ele>325.3333333333333</ele><time>2026-05-01T13:45:17.514Z</time></trkpt><trkpt lat="39.5527883" lon="8.5621217"><ele>326.0</ele><time>2026-05-01T13:45:18.517Z</time></trkpt><trkpt lat="39.5527117" lon="8.5621567"><ele>326.66666666666663</ele><time>2026-05-01T13:45:19.514Z</time></trkpt><trkpt lat="39.5526317" lon="8.56218"><ele>327.3333333333333</ele><time>2026-05-01T13:45:20.543Z</time></trkpt><trkpt lat="39.5525533" lon="8.56219"><ele>328.0</ele><time>2026-05-01T13:45:21.516Z</time></trkpt><trkpt lat="39.5524767" lon="8.56219"><ele>328.0</ele><time>2026-05-01T13:45:22.514Z</time></trkpt><trkpt lat="39.552395" lon="8.5621733"><ele>328.0</ele><time>2026-05-01T13:45:23.515Z</time></trkpt><trkpt lat="39.55232" lon="8.5621433"><ele>328.0</ele><time>2026-05-01T13:45:24.515Z</time></trkpt><trkpt lat="39.5522483" lon="8.5621"><ele>328.0</ele><time>2026-05-01T13:45:25.515Z</time></trkpt><trkpt lat="39.5521817" lon="8.562045"><ele>328.0</ele><time>2026-05-01T13:45:26.563Z</time></trkpt><trkpt lat="39.552125" lon="8.5619883"><ele>328.0</ele><time>2026-05-01T13:45:27.515Z</time></trkpt><trkpt lat="39.5520767" lon="8.561925"><ele>329.16666666666663</ele><time>2026-05-01T13:45:28.518Z</time></trkpt><trkpt lat="39.5520383" lon="8.56185"><ele>330.3333333333333</ele><time>2026-05-01T13:45:29.513Z</time></trkpt><trkpt lat="39.55201" lon="8.561775"><ele>331.5</ele><time>2026-05-01T13:45:30.518Z</time></trkpt><trkpt lat="39.552025" lon="8.5616"><ele>332.6666666666667</ele><time>2026-05-01T13:45:32.531Z</time></trkpt><trkpt lat="39.5520383" lon="8.5615017"><ele>333.83333333333337</ele><time>2026-05-01T13:45:33.51Z</time></trkpt><trkpt lat="39.55207" lon="8.5613883"><ele>335.0</ele><time>2026-05-01T13:45:34.513Z</time></trkpt><trkpt lat="39.5521033" lon="8.5612817"><ele>329.33333333333337</ele><time>2026-05-01T13:45:35.516Z</time></trkpt><trkpt lat="39.552145" lon="8.561175"><ele>323.6666666666667</ele><time>2026-05-01T13:45:36.516Z</time></trkpt><trkpt lat="39.5521817" lon="8.56107"><ele>318.0</ele><time>2026-05-01T13:45:37.513Z</time></trkpt><trkpt lat="39.552225" lon="8.5609733"><ele>312.3333333333333</ele><time>2026-05-01T13:45:38.544Z</time></trkpt><trkpt lat="39.55225" lon="8.5608683"><ele>306.66666666666663</ele><time>2026-05-01T13:45:39.515Z</time></trkpt><trkpt lat="39.55227" lon="8.5607667"><ele>301.0</ele><time>2026-05-01T13:45:40.514Z</time></trkpt><trkpt lat="39.5522667" lon="8.56066"><ele>301.0</ele><time>2026-05-01T13:45:41.511Z</time></trkpt><trkpt lat="39.55225" lon="8.560555"><ele>301.0</ele><time>2026-05-01T13:45:42.515Z</time></trkpt><trkpt lat="39.5522217" lon="8.56046"><ele>301.0</ele><time>2026-05-01T13:45:43.514Z</time></trkpt><trkpt lat="39.552195" lon="8.5603767"><ele>301.0</ele><time>2026-05-01T13:45:44.541Z</time></trkpt><trkpt lat="39.5521667" lon="8.5603"><ele>301.0</ele><time>2026-05-01T13:45:45.511Z</time></trkpt><trkpt lat="39.552125" lon="8.560235"><ele>301.0</ele><time>2026-05-01T13:45:46.513Z</time></trkpt><trkpt lat="39.55201" lon="8.5601933"><ele>301.5</ele><time>2026-05-01T13:45:48.513Z</time></trkpt><trkpt lat="39.551935" lon="8.5601983"><ele>302.0</ele><time>2026-05-01T13:45:49.51Z</time></trkpt><trkpt lat="39.5518617" lon="8.5602017"><ele>302.5</ele><time>2026-05-01T13:45:50.54Z</time></trkpt><trkpt lat="39.551755" lon="8.5602267"><ele>303.0</ele><time>2026-05-01T13:45:52.518Z</time></trkpt><trkpt lat="39.55167" lon="8.5602067"><ele>303.5</ele><time>2026-05-01T13:45:54.509Z</time></trkpt><trkpt lat="39.5515933" lon="8.56012"><ele>304.0</ele><time>2026-05-01T13:45:56.559Z</time></trkpt><trkpt lat="39.5515533" lon="8.5599783"><ele>304.0</ele><time>2026-05-01T13:45:58.509Z</time></trkpt><trkpt lat="39.5515533" lon="8.5598867"><ele>304.0</ele><time>2026-05-01T13:45:59.513Z</time></trkpt><trkpt lat="39.5515717" lon="8.5597783"><ele>304.0</ele><time>2026-05-01T13:46:00.512Z</time></trkpt><trkpt lat="39.5515883" lon="8.559665"><ele>304.0</ele><time>2026-05-01T13:46:01.511Z</time></trkpt><trkpt lat="39.5516" lon="8.5595383"><ele>304.0</ele><time>2026-05-01T13:46:02.561Z</time></trkpt><trkpt lat="39.5516017" lon="8.5594167"><ele>304.0</ele><time>2026-05-01T13:46:03.515Z</time></trkpt><trkpt lat="39.5516017" lon="8.5592933"><ele>304.3333333333333</ele><time>2026-05-01T13:46:04.516Z</time></trkpt><trkpt lat="39.5515983" lon="8.559175"><ele>304.66666666666663</ele><time>2026-05-01T13:46:05.515Z</time></trkpt><trkpt lat="39.5515917" lon="8.5590583"><ele>305.0</ele><time>2026-05-01T13:46:06.514Z</time></trkpt><trkpt lat="39.551575" lon="8.55894"><ele>305.3333333333333</ele><time>2026-05-01T13:46:07.517Z</time></trkpt><trkpt lat="39.5515567" lon="8.55883"><ele>305.6666666666667</ele><time>2026-05-01T13:46:08.543Z</time></trkpt><trkpt lat="39.55153" lon="8.558725"><ele>306.0</ele><time>2026-05-01T13:46:09.513Z</time></trkpt><trkpt lat="39.5515067" lon="8.5586283"><ele>304.8</ele><time>2026-05-01T13:46:10.512Z</time></trkpt><trkpt lat="39.5514633" lon="8.5585267"><ele>303.6</ele><time>2026-05-01T13:46:11.513Z</time></trkpt><trkpt lat="39.551415" lon="8.5584283"><ele>302.4</ele><time>2026-05-01T13:46:12.514Z</time></trkpt><trkpt lat="39.5513633" lon="8.5583283"><ele>301.2</ele><time>2026-05-01T13:46:13.512Z</time></trkpt><trkpt lat="39.551305" lon="8.5582367"><ele>300.0</ele><time>2026-05-01T13:46:14.541Z</time></trkpt><trkpt lat="39.5512533" lon="8.55811"><ele>300.5</ele><time>2026-05-01T13:46:15.511Z</time></trkpt><trkpt lat="39.5511783" lon="8.5580367"><ele>301.0</ele><time>2026-05-01T13:46:16.513Z</time></trkpt><trkpt lat="39.5511033" lon="8.55797"><ele>301.5</ele><time>2026-05-01T13:46:17.513Z</time></trkpt><trkpt lat="39.5510267" lon="8.55791"><ele>302.0</ele><time>2026-05-01T13:46:18.513Z</time></trkpt><trkpt lat="39.550965" lon="8.5578367"><ele>302.5</ele><time>2026-05-01T13:46:19.513Z</time></trkpt><trkpt lat="39.5509117" lon="8.557755"><ele>303.0</ele><time>2026-05-01T13:46:20.546Z</time></trkpt><trkpt lat="39.550865" lon="8.5576683"><ele>303.0</ele><time>2026-05-01T13:46:21.517Z</time></trkpt><trkpt lat="39.5508367" lon="8.5575733"><ele>303.0</ele><time>2026-05-01T13:46:22.514Z</time></trkpt><trkpt lat="39.5508217" lon="8.5574633"><ele>303.0</ele><time>2026-05-01T13:46:23.516Z</time></trkpt><trkpt lat="39.5507983" lon="8.5573517"><ele>303.0</ele><time>2026-05-01T13:46:24.512Z</time></trkpt><trkpt lat="39.5507767" lon="8.5572617"><ele>303.0</ele><time>2026-05-01T13:46:25.51Z</time></trkpt><trkpt lat="39.55074" lon="8.5571783"><ele>303.0</ele><time>2026-05-01T13:46:26.559Z</time></trkpt><trkpt lat="39.55068" lon="8.5571133"><ele>303.0</ele><time>2026-05-01T13:46:27.518Z</time></trkpt><trkpt lat="39.5506017" lon="8.5570617"><ele>303.0</ele><time>2026-05-01T13:46:28.514Z</time></trkpt><trkpt lat="39.5505067" lon="8.557015"><ele>303.0</ele><time>2026-05-01T13:46:29.514Z</time></trkpt><trkpt lat="39.550405" lon="8.556985"><ele>303.0</ele><time>2026-05-01T13:46:30.512Z</time></trkpt><trkpt lat="39.5503033" lon="8.556955"><ele>303.0</ele><time>2026-05-01T13:46:31.514Z</time></trkpt><trkpt lat="39.5518617" lon="8.5602017"><ele>303.2</ele><time>2026-05-01T13:45:50.54Z</time></trkpt><trkpt lat="39.551755" lon="8.5602267"><ele>303.4</ele><time>2026-05-01T13:45:52.518Z</time></trkpt><trkpt lat="39.55167" lon="8.5602067"><ele>303.59999999999997</ele><time>2026-05-01T13:45:54.509Z</time></trkpt><trkpt lat="39.5515933" lon="8.56012"><ele>303.8</ele><time>2026-05-01T13:45:56.559Z</time></trkpt><trkpt lat="39.5515533" lon="8.5599783"><ele>304.0</ele><time>2026-05-01T13:45:58.509Z</time></trkpt><trkpt lat="39.5515533" lon="8.5598867"><ele>304.0</ele><time>2026-05-01T13:45:59.513Z</time></trkpt><trkpt lat="39.5515717" lon="8.5597783"><ele>304.0</ele><time>2026-05-01T13:46:00.512Z</time></trkpt><trkpt lat="39.5515883" lon="8.559665"><ele>304.0</ele><time>2026-05-01T13:46:01.511Z</time></trkpt><trkpt lat="39.5516" lon="8.5595383"><ele>304.0</ele><time>2026-05-01T13:46:02.561Z</time></trkpt><trkpt lat="39.5516017" lon="8.5594167"><ele>304.0</ele><time>2026-05-01T13:46:03.515Z</time></trkpt><trkpt lat="39.5516017" lon="8.5592933"><ele>304.3333333333333</ele><time>2026-05-01T13:46:04.516Z</time></trkpt><trkpt lat="39.5515983" lon="8.559175"><ele>304.66666666666663</ele><time>2026-05-01T13:46:05.515Z</time></trkpt><trkpt lat="39.5515917" lon="8.5590583"><ele>305.0</ele><time>2026-05-01T13:46:06.514Z</time></trkpt><trkpt lat="39.551575" lon="8.55894"><ele>305.3333333333333</ele><time>2026-05-01T13:46:07.517Z</time></trkpt><trkpt lat="39.5515567" lon="8.55883"><ele>305.6666666666667</ele><time>2026-05-01T13:46:08.543Z</time></trkpt><trkpt lat="39.55153" lon="8.558725"><ele>306.0</ele><time>2026-05-01T13:46:09.513Z</time></trkpt><trkpt lat="39.5515067" lon="8.5586283"><ele>304.8</ele><time>2026-05-01T13:46:10.512Z</time></trkpt><trkpt lat="39.5514633" lon="8.5585267"><ele>303.6</ele><time>2026-05-01T13:46:11.513Z</time></trkpt><trkpt lat="39.551415" lon="8.5584283"><ele>302.4</ele><time>2026-05-01T13:46:12.514Z</time></trkpt><trkpt lat="39.5513633" lon="8.5583283"><ele>301.2</ele><time>2026-05-01T13:46:13.512Z</time></trkpt><trkpt lat="39.551305" lon="8.5582367"><ele>300.0</ele><time>2026-05-01T13:46:14.541Z</time></trkpt><trkpt lat="39.5512533" lon="8.55811"><ele>300.5</ele><time>2026-05-01T13:46:15.511Z</time></trkpt><trkpt lat="39.5511783" lon="8.5580367"><ele>301.0</ele><time>2026-05-01T13:46:16.513Z</time></trkpt><trkpt lat="39.5511033" lon="8.55797"><ele>301.5</ele><time>2026-05-01T13:46:17.513Z</time></trkpt><trkpt lat="39.5510267" lon="8.55791"><ele>302.0</ele><time>2026-05-01T13:46:18.513Z</time></trkpt><trkpt lat="39.550965" lon="8.5578367"><ele>302.5</ele><time>2026-05-01T13:46:19.513Z</time></trkpt><trkpt lat="39.5509117" lon="8.557755"><ele>303.0</ele><time>2026-05-01T13:46:20.546Z</time></trkpt><trkpt lat="39.550865" lon="8.5576683"><ele>303.0</ele><time>2026-05-01T13:46:21.517Z</time></trkpt><trkpt lat="39.5508367" lon="8.5575733"><ele>303.0</ele><time>2026-05-01T13:46:22.514Z</time></trkpt><trkpt lat="39.5508217" lon="8.5574633"><ele>303.0</ele><time>2026-05-01T13:46:23.516Z</time></trkpt><trkpt lat="39.5507983" lon="8.5573517"><ele>303.0</ele><time>2026-05-01T13:46:24.512Z</time></trkpt><trkpt lat="39.5507767" lon="8.5572617"><ele>303.0</ele><time>2026-05-01T13:46:25.51Z</time></trkpt><trkpt lat="39.55074" lon="8.5571783"><ele>303.0</ele><time>2026-05-01T13:46:26.559Z</time></trkpt><trkpt lat="39.55068" lon="8.5571133"><ele>303.0</ele><time>2026-05-01T13:46:27.518Z</time></trkpt><trkpt lat="39.5506017" lon="8.5570617"><ele>303.0</ele><time>2026-05-01T13:46:28.514Z</time></trkpt><trkpt lat="39.5505067" lon="8.557015"><ele>303.0</ele><time>2026-05-01T13:46:29.514Z</time></trkpt><trkpt lat="39.550405" lon="8.556985"><ele>303.0</ele><time>2026-05-01T13:46:30.512Z</time></trkpt><trkpt lat="39.5503033" lon="8.556955"><ele>303.0</ele><time>2026-05-01T13:46:31.514Z</time></trkpt><trkpt lat="39.5502133" lon="8.5569317"><ele>302.6666666666667</ele><time>2026-05-01T13:46:32.569Z</time></trkpt><trkpt lat="39.550125" lon="8.5569067"><ele>302.3333333333333</ele><time>2026-05-01T13:46:33.517Z</time></trkpt><trkpt lat="39.550045" lon="8.5568717"><ele>302.0</ele><time>2026-05-01T13:46:34.516Z</time></trkpt><trkpt lat="39.5499717" lon="8.55683"><ele>301.66666666666663</ele><time>2026-05-01T13:46:35.514Z</time></trkpt><trkpt lat="39.5499" lon="8.556775"><ele>301.3333333333333</ele><time>2026-05-01T13:46:36.515Z</time></trkpt><trkpt lat="39.5498467" lon="8.556695"><ele>301.0</ele><time>2026-05-01T13:46:37.518Z</time></trkpt><trkpt lat="39.5498017" lon="8.5565967"><ele>301.0</ele><time>2026-05-01T13:46:38.542Z</time></trkpt><trkpt lat="39.549775" lon="8.55648"><ele>301.0</ele><time>2026-05-01T13:46:39.514Z</time></trkpt><trkpt lat="39.54976" lon="8.5563467"><ele>301.0</ele><time>2026-05-01T13:46:40.515Z</time></trkpt><trkpt lat="39.5497583" lon="8.5562017"><ele>301.0</ele><time>2026-05-01T13:46:41.516Z</time></trkpt><trkpt lat="39.5497167" lon="8.5560883"><ele>301.0</ele><time>2026-05-01T13:46:42.512Z</time></trkpt><trkpt lat="39.54967" lon="8.5559867"><ele>299.66666666666663</ele><time>2026-05-01T13:46:43.515Z</time></trkpt><trkpt lat="39.549625" lon="8.5558933"><ele>298.3333333333333</ele><time>2026-05-01T13:46:44.547Z</time></trkpt><trkpt lat="39.549595" lon="8.5558033"><ele>297.0</ele><time>2026-05-01T13:46:45.515Z</time></trkpt><trkpt lat="39.5495833" lon="8.5557017"><ele>295.6666666666667</ele><time>2026-05-01T13:46:46.513Z</time></trkpt><trkpt lat="39.5495883" lon="8.555595"><ele>294.33333333333337</ele><time>2026-05-01T13:46:47.518Z</time></trkpt><trkpt lat="39.5496017" lon="8.5554833"><ele>293.0</ele><time>2026-05-01T13:46:48.512Z</time></trkpt><trkpt lat="39.5496183" lon="8.5553617"><ele>293.0</ele><time>2026-05-01T13:46:49.515Z</time></trkpt><trkpt lat="39.5496217" lon="8.55525"><ele>293.0</ele><time>2026-05-01T13:46:50.543Z</time></trkpt><trkpt lat="39.5496067" lon="8.5551283"><ele>293.0</ele><time>2026-05-01T13:46:51.512Z</time></trkpt><trkpt lat="39.5495933" lon="8.5549967"><ele>293.0</ele><time>2026-05-01T13:46:52.511Z</time></trkpt><trkpt lat="39.5495717" lon="8.554855"><ele>293.0</ele><time>2026-05-01T13:46:53.512Z</time></trkpt><trkpt lat="39.549535" lon="8.5547217"><ele>296.4</ele><time>2026-05-01T13:46:54.512Z</time></trkpt><trkpt lat="39.5494917" lon="8.554575"><ele>299.8</ele><time>2026-05-01T13:46:55.512Z</time></trkpt><trkpt lat="39.5494467" lon="8.55446"><ele>303.2</ele><time>2026-05-01T13:46:56.564Z</time></trkpt><trkpt lat="39.54942" lon="8.5543333"><ele>306.6</ele><time>2026-05-01T13:46:57.517Z</time></trkpt><trkpt lat="39.5493633" lon="8.5542317"><ele>310.0</ele><time>2026-05-01T13:46:58.514Z</time></trkpt><trkpt lat="39.5493233" lon="8.554165"><ele>310.0</ele><time>2026-05-01T13:46:59.512Z</time></trkpt><trkpt lat="39.5492583" lon="8.554105"><ele>310.0</ele><time>2026-05-01T13:47:00.515Z</time></trkpt><trkpt lat="39.5491817" lon="8.5540633"><ele>310.0</ele><time>2026-05-01T13:47:01.513Z</time></trkpt><trkpt lat="39.5491" lon="8.5540117"><ele>310.0</ele><time>2026-05-01T13:47:02.56Z</time></trkpt><trkpt lat="39.5490233" lon="8.5539517"><ele>310.0</ele><time>2026-05-01T13:47:03.514Z</time></trkpt><trkpt lat="39.5489483" lon="8.55388"><ele>310.0</ele><time>2026-05-01T13:47:04.514Z</time></trkpt><trkpt lat="39.548885" lon="8.5537917"><ele>307.2</ele><time>2026-05-01T13:47:05.511Z</time></trkpt><trkpt lat="39.5488317" lon="8.5536967"><ele>304.4</ele><time>2026-05-01T13:47:06.515Z</time></trkpt><trkpt lat="39.54879" lon="8.5535917"><ele>301.6</ele><time>2026-05-01T13:47:07.513Z</time></trkpt><trkpt lat="39.5487567" lon="8.5534833"><ele>298.8</ele><time>2026-05-01T13:47:08.542Z</time></trkpt><trkpt lat="39.5487283" lon="8.55337"><ele>296.0</ele><time>2026-05-01T13:47:09.518Z</time></trkpt><trkpt lat="39.5487117" lon="8.55325"><ele>296.0</ele><time>2026-05-01T13:47:10.513Z</time></trkpt><trkpt lat="39.5486933" lon="8.5531067"><ele>296.0</ele><time>2026-05-01T13:47:11.512Z</time></trkpt><trkpt lat="39.5487133" lon="8.5529867"><ele>296.0</ele><time>2026-05-01T13:47:12.514Z</time></trkpt><trkpt lat="39.548735" lon="8.552855"><ele>296.0</ele><time>2026-05-01T13:47:13.516Z</time></trkpt><trkpt lat="39.5487517" lon="8.5527283"><ele>296.0</ele><time>2026-05-01T13:47:14.545Z</time></trkpt><trkpt lat="39.54877" lon="8.552605"><ele>295.5</ele><time>2026-05-01T13:47:15.514Z</time></trkpt><trkpt lat="39.5487817" lon="8.5525117"><ele>295.0</ele><time>2026-05-01T13:47:16.515Z</time></trkpt><trkpt lat="39.54877" lon="8.55243"><ele>294.5</ele><time>2026-05-01T13:47:17.512Z</time></trkpt><trkpt lat="39.54868" lon="8.552335"><ele>294.0</ele><time>2026-05-01T13:47:19.514Z</time></trkpt><trkpt lat="39.5486133" lon="8.5523217"><ele>293.5</ele><time>2026-05-01T13:47:20.541Z</time></trkpt><trkpt lat="39.5485267" lon="8.5523167"><ele>293.0</ele><time>2026-05-01T13:47:21.512Z</time></trkpt><trkpt lat="39.5484233" lon="8.552315"><ele>297.2</ele><time>2026-05-01T13:47:22.515Z</time></trkpt><trkpt lat="39.5483167" lon="8.5523133"><ele>301.4</ele><time>2026-05-01T13:47:23.513Z</time></trkpt><trkpt lat="39.5482117" lon="8.5523083"><ele>305.59999999999997</ele><time>2026-05-01T13:47:24.515Z</time></trkpt><trkpt lat="39.5481" lon="8.5523033"><ele>309.8</ele><time>2026-05-01T13:47:25.512Z</time></trkpt><trkpt lat="39.5479917" lon="8.55229"><ele>314.0</ele><time>2026-05-01T13:47:26.574Z</time></trkpt><trkpt lat="39.54789" lon="8.5522917"><ele>314.4</ele><time>2026-05-01T13:47:27.514Z</time></trkpt><trkpt lat="39.5477933" lon="8.5522617"><ele>314.79999999999995</ele><time>2026-05-01T13:47:28.513Z</time></trkpt><trkpt lat="39.5476833" lon="8.5522233"><ele>315.20000000000005</ele><time>2026-05-01T13:47:29.515Z</time></trkpt><trkpt lat="39.5475733" lon="8.5521683"><ele>315.6</ele><time>2026-05-01T13:47:30.515Z</time></trkpt><trkpt lat="39.5474967" lon="8.5520983"><ele>316.0</ele><time>2026-05-01T13:47:31.511Z</time></trkpt><trkpt lat="39.5474417" lon="8.55201"><ele>316.0</ele><time>2026-05-01T13:47:32.564Z</time></trkpt><trkpt lat="39.5473933" lon="8.5518933"><ele>316.0</ele><time>2026-05-01T13:47:33.51Z</time></trkpt><trkpt lat="39.54734" lon="8.55174"><ele>316.0</ele><time>2026-05-01T13:47:34.513Z</time></trkpt><trkpt lat="39.5473017" lon="8.5515717"><ele>316.0</ele><time>2026-05-01T13:47:35.513Z</time></trkpt><trkpt lat="39.5472633" lon="8.5514417"><ele>316.0</ele><time>2026-05-01T13:47:36.512Z</time></trkpt><trkpt lat="39.5472367" lon="8.5512783"><ele>316.0</ele><time>2026-05-01T13:47:37.511Z</time></trkpt><trkpt lat="39.547215" lon="8.5511333"><ele>316.0</ele><time>2026-05-01T13:47:38.54Z</time></trkpt><trkpt lat="39.5471917" lon="8.550935"><ele>316.0</ele><time>2026-05-01T13:47:39.515Z</time></trkpt><trkpt lat="39.5471733" lon="8.5507517"><ele>316.2</ele><time>2026-05-01T13:47:40.508Z</time></trkpt><trkpt lat="39.5471883" lon="8.550615"><ele>316.40000000000003</ele><time>2026-05-01T13:47:41.512Z</time></trkpt><trkpt lat="39.5472133" lon="8.550475"><ele>316.6</ele><time>2026-05-01T13:47:42.516Z</time></trkpt><trkpt lat="39.5472383" lon="8.550335"><ele>316.8</ele><time>2026-05-01T13:47:43.513Z</time></trkpt><trkpt lat="39.5472617" lon="8.550195"><ele>317.0</ele><time>2026-05-01T13:47:44.544Z</time></trkpt><trkpt lat="39.5472817" lon="8.5500767"><ele>318.1666666666667</ele><time>2026-05-01T13:47:45.51Z</time></trkpt><trkpt lat="39.54728" lon="8.5499633"><ele>319.33333333333337</ele><time>2026-05-01T13:47:46.513Z</time></trkpt><trkpt lat="39.5472683" lon="8.549865"><ele>320.5</ele><time>2026-05-01T13:47:47.511Z</time></trkpt><trkpt lat="39.5472483" lon="8.5497767"><ele>321.6666666666667</ele><time>2026-05-01T13:47:48.51Z</time></trkpt><trkpt lat="39.547215" lon="8.549705"><ele>322.8333333333333</ele><time>2026-05-01T13:47:49.51Z</time></trkpt><trkpt lat="39.5471683" lon="8.549635"><ele>324.0</ele><time>2026-05-01T13:47:50.544Z</time></trkpt><trkpt lat="39.547075" lon="8.5496067"><ele>325.0</ele><time>2026-05-01T13:47:51.513Z</time></trkpt><trkpt lat="39.5469783" lon="8.5496017"><ele>326.0</ele><time>2026-05-01T13:47:52.513Z</time></trkpt><trkpt lat="39.5468833" lon="8.5495683"><ele>327.0</ele><time>2026-05-01T13:47:53.516Z</time></trkpt><trkpt lat="39.5468" lon="8.54951"><ele>328.0</ele><time>2026-05-01T13:47:54.514Z</time></trkpt><trkpt lat="39.54672" lon="8.54944"><ele>329.0</ele><time>2026-05-01T13:47:55.514Z</time></trkpt><trkpt lat="39.5466517" lon="8.5493517"><ele>329.0</ele><time>2026-05-01T13:47:56.562Z</time></trkpt><trkpt lat="39.5466" lon="8.5492383"><ele>329.0</ele><time>2026-05-01T13:47:57.516Z</time></trkpt><trkpt lat="39.5465633" lon="8.5491133"><ele>329.0</ele><time>2026-05-01T13:47:58.514Z</time></trkpt><trkpt lat="39.54653" lon="8.5489817"><ele>329.0</ele><time>2026-05-01T13:47:59.51Z</time></trkpt><trkpt lat="39.54652" lon="8.5488133"><ele>329.0</ele><time>2026-05-01T13:48:00.516Z</time></trkpt><trkpt lat="39.546495" lon="8.5486517"><ele>328.2</ele><time>2026-05-01T13:48:01.511Z</time></trkpt><trkpt lat="39.54646" lon="8.548505"><ele>327.4</ele><time>2026-05-01T13:48:02.561Z</time></trkpt><trkpt lat="39.546425" lon="8.5483733"><ele>326.6</ele><time>2026-05-01T13:48:03.515Z</time></trkpt><trkpt lat="39.5463683" lon="8.54826"><ele>325.8</ele><time>2026-05-01T13:48:04.513Z</time></trkpt><trkpt lat="39.5463083" lon="8.5481617"><ele>325.0</ele><time>2026-05-01T13:48:05.515Z</time></trkpt><trkpt lat="39.54625" lon="8.548085"><ele>326.4</ele><time>2026-05-01T13:48:06.514Z</time></trkpt><trkpt lat="39.5461817" lon="8.548"><ele>327.8</ele><time>2026-05-01T13:48:07.515Z</time></trkpt><trkpt lat="39.5461017" lon="8.547925"><ele>329.20000000000005</ele><time>2026-05-01T13:48:08.545Z</time></trkpt><trkpt lat="39.5460167" lon="8.5478617"><ele>330.6</ele><time>2026-05-01T13:48:09.509Z</time></trkpt><trkpt lat="39.545925" lon="8.54781"><ele>332.0</ele><time>2026-05-01T13:48:10.514Z</time></trkpt><trkpt lat="39.54583" lon="8.547775"><ele>332.0</ele><time>2026-05-01T13:48:11.511Z</time></trkpt><trkpt lat="39.5457367" lon="8.54773"><ele>332.0</ele><time>2026-05-01T13:48:12.512Z</time></trkpt><trkpt lat="39.54565" lon="8.5476767"><ele>332.0</ele><time>2026-05-01T13:48:13.512Z</time></trkpt><trkpt lat="39.5455733" lon="8.5476233"><ele>332.0</ele><time>2026-05-01T13:48:14.542Z</time></trkpt><trkpt lat="39.5454967" lon="8.5475583"><ele>332.0</ele><time>2026-05-01T13:48:15.514Z</time></trkpt><trkpt lat="39.5454217" lon="8.547485"><ele>333.33333333333337</ele><time>2026-05-01T13:48:16.512Z</time></trkpt><trkpt lat="39.5453733" lon="8.5473883"><ele>334.6666666666667</ele><time>2026-05-01T13:48:17.517Z</time></trkpt><trkpt lat="39.54534" lon="8.547285"><ele>336.0</ele><time>2026-05-01T13:48:18.514Z</time></trkpt><trkpt lat="39.5453267" lon="8.5471633"><ele>337.3333333333333</ele><time>2026-05-01T13:48:19.512Z</time></trkpt><trkpt lat="39.5453" lon="8.5470517"><ele>338.66666666666663</ele><time>2026-05-01T13:48:20.544Z</time></trkpt><trkpt lat="39.545255" lon="8.546965"><ele>340.0</ele><time>2026-05-01T13:48:21.516Z</time></trkpt><trkpt lat="39.5451667" lon="8.5469283"><ele>340.0</ele><time>2026-05-01T13:48:22.515Z</time></trkpt><trkpt lat="39.5450833" lon="8.54685"><ele>340.0</ele><time>2026-05-01T13:48:23.517Z</time></trkpt><trkpt lat="39.5449767" lon="8.5467983"><ele>340.0</ele><time>2026-05-01T13:48:24.513Z</time></trkpt><trkpt lat="39.54486" lon="8.546765"><ele>340.0</ele><time>2026-05-01T13:48:25.514Z</time></trkpt><trkpt lat="39.5447483" lon="8.5467283"><ele>340.0</ele><time>2026-05-01T13:48:26.562Z</time></trkpt><trkpt lat="39.5446317" lon="8.546705"><ele>340.0</ele><time>2026-05-01T13:48:27.515Z</time></trkpt><trkpt lat="39.5445317" lon="8.546685"><ele>340.0</ele><time>2026-05-01T13:48:28.511Z</time></trkpt><trkpt lat="39.54446" lon="8.5466483"><ele>340.0</ele><time>2026-05-01T13:48:29.515Z</time></trkpt><trkpt lat="39.5443967" lon="8.546615"><ele>340.0</ele><time>2026-05-01T13:48:30.519Z</time></trkpt><trkpt lat="39.5443" lon="8.546525"><ele>339.75</ele><time>2026-05-01T13:48:32.565Z</time></trkpt><trkpt lat="39.5442417" lon="8.546395"><ele>339.5</ele><time>2026-05-01T13:48:34.515Z</time></trkpt><trkpt lat="39.5441883" lon="8.5462683"><ele>339.25</ele><time>2026-05-01T13:48:36.513Z</time></trkpt><trkpt lat="39.54412" lon="8.5461533"><ele>339.0</ele><time>2026-05-01T13:48:38.542Z</time></trkpt><trkpt lat="39.544045" lon="8.5460233"><ele>339.0</ele><time>2026-05-01T13:48:40.512Z</time></trkpt><trkpt lat="39.544" lon="8.5459567"><ele>339.0</ele><time>2026-05-01T13:48:41.514Z</time></trkpt><trkpt lat="39.54394" lon="8.54589"><ele>339.0</ele><time>2026-05-01T13:48:42.514Z</time></trkpt><trkpt lat="39.5438733" lon="8.5458217"><ele>339.0</ele><time>2026-05-01T13:48:43.513Z</time></trkpt><trkpt lat="39.5438033" lon="8.5457567"><ele>339.0</ele><time>2026-05-01T13:48:44.544Z</time></trkpt><trkpt lat="39.5437233" lon="8.545715"><ele>339.0</ele><time>2026-05-01T13:48:45.513Z</time></trkpt><trkpt lat="39.5436467" lon="8.54568"><ele>335.6666666666667</ele><time>2026-05-01T13:48:46.513Z</time></trkpt><trkpt lat="39.5435667" lon="8.5456467"><ele>332.3333333333333</ele><time>2026-05-01T13:48:47.512Z</time></trkpt><trkpt lat="39.5434967" lon="8.5456067"><ele>329.0</ele><time>2026-05-01T13:48:48.51Z</time></trkpt><trkpt lat="39.5434317" lon="8.5455617"><ele>325.66666666666663</ele><time>2026-05-01T13:48:49.51Z</time></trkpt><trkpt lat="39.543375" lon="8.5455133"><ele>322.3333333333333</ele><time>2026-05-01T13:48:50.541Z</time></trkpt><trkpt lat="39.5432983" lon="8.5454067"><ele>319.0</ele><time>2026-05-01T13:48:52.515Z</time></trkpt><trkpt lat="39.543285" lon="8.5452917"><ele>319.0</ele><time>2026-05-01T13:48:54.513Z</time></trkpt><trkpt lat="39.5433283" lon="8.54522"><ele>319.0</ele><time>2026-05-01T13:48:56.561Z</time></trkpt><trkpt lat="39.543415" lon="8.54523"><ele>319.0</ele><time>2026-05-01T13:48:57.516Z</time></trkpt><trkpt lat="39.54348" lon="8.54523"><ele>319.0</ele><time>2026-05-01T13:48:58.514Z</time></trkpt><trkpt lat="39.543545" lon="8.5452167"><ele>319.0</ele><time>2026-05-01T13:48:59.514Z</time></trkpt><trkpt lat="39.5436083" lon="8.5451883"><ele>319.0</ele><time>2026-05-01T13:49:00.515Z</time></trkpt><trkpt lat="39.5436733" lon="8.545145"><ele>319.0</ele><time>2026-05-01T13:49:01.517Z</time></trkpt><trkpt lat="39.5437217" lon="8.545065"><ele>323.4</ele><time>2026-05-01T13:49:02.558Z</time></trkpt><trkpt lat="39.5437567" lon="8.5449833"><ele>327.79999999999995</ele><time>2026-05-01T13:49:03.511Z</time></trkpt><trkpt lat="39.5437783" lon="8.5448967"><ele>332.20000000000005</ele><time>2026-05-01T13:49:04.512Z</time></trkpt><trkpt lat="39.5438067" lon="8.544755"><ele>336.6</ele><time>2026-05-01T13:49:06.514Z</time></trkpt><trkpt lat="39.5438217" lon="8.5446267"><ele>341.0</ele><time>2026-05-01T13:49:08.544Z</time></trkpt><trkpt lat="39.5438083" lon="8.544495"><ele>341.20000000000005</ele><time>2026-05-01T13:49:10.513Z</time></trkpt><trkpt lat="39.5437733" lon="8.5443417"><ele>341.40000000000003</ele><time>2026-05-01T13:49:12.514Z</time></trkpt><trkpt lat="39.5437383" lon="8.5442517"><ele>341.6</ele><time>2026-05-01T13:49:13.515Z</time></trkpt><trkpt lat="39.5436983" lon="8.5441567"><ele>341.8</ele><time>2026-05-01T13:49:14.539Z</time></trkpt><trkpt lat="39.5436517" lon="8.5440483"><ele>342.0</ele><time>2026-05-01T13:49:15.511Z</time></trkpt><trkpt lat="39.5435983" lon="8.5439383"><ele>337.25</ele><time>2026-05-01T13:49:16.512Z</time></trkpt><trkpt lat="39.5435283" lon="8.5438233"><ele>332.5</ele><time>2026-05-01T13:49:17.511Z</time></trkpt><trkpt lat="39.543445" lon="8.543695"><ele>327.75</ele><time>2026-05-01T13:49:18.513Z</time></trkpt><trkpt lat="39.54336" lon="8.5435417"><ele>323.0</ele><time>2026-05-01T13:49:19.514Z</time></trkpt><trkpt lat="39.5432733" lon="8.5434167"><ele>323.0</ele><time>2026-05-01T13:49:20.544Z</time></trkpt><trkpt lat="39.5431983" lon="8.543305"><ele>323.0</ele><time>2026-05-01T13:49:21.515Z</time></trkpt><trkpt lat="39.5430933" lon="8.5431567"><ele>323.0</ele><time>2026-05-01T13:49:23.513Z</time></trkpt><trkpt lat="39.5430233" lon="8.5430583"><ele>323.0</ele><time>2026-05-01T13:49:24.513Z</time></trkpt><trkpt lat="39.54294" lon="8.5429933"><ele>323.83333333333337</ele><time>2026-05-01T13:49:25.513Z</time></trkpt><trkpt lat="39.5428733" lon="8.5429283"><ele>324.6666666666667</ele><time>2026-05-01T13:49:26.558Z</time></trkpt><trkpt lat="39.5427933" lon="8.5429017"><ele>325.5</ele><time>2026-05-01T13:49:27.515Z</time></trkpt><trkpt lat="39.5427083" lon="8.54288"><ele>326.3333333333333</ele><time>2026-05-01T13:49:28.513Z</time></trkpt><trkpt lat="39.542625" lon="8.5428867"><ele>327.16666666666663</ele><time>2026-05-01T13:49:29.513Z</time></trkpt><trkpt lat="39.5425417" lon="8.5429017"><ele>328.0</ele><time>2026-05-01T13:49:30.516Z</time></trkpt><trkpt lat="39.5424467" lon="8.5429467"><ele>323.59999999999997</ele><time>2026-05-01T13:49:31.51Z</time></trkpt><trkpt lat="39.5423533" lon="8.5429983"><ele>319.2</ele><time>2026-05-01T13:49:32.563Z</time></trkpt><trkpt lat="39.5422483" lon="8.543075"><ele>314.8</ele><time>2026-05-01T13:49:33.51Z</time></trkpt><trkpt lat="39.542155" lon="8.543155"><ele>310.4</ele><time>2026-05-01T13:49:34.509Z</time></trkpt><trkpt lat="39.5420683" lon="8.5432183"><ele>306.0</ele><time>2026-05-01T13:49:35.513Z</time></trkpt><trkpt lat="39.5419867" lon="8.5432733"><ele>305.3333333333333</ele><time>2026-05-01T13:49:36.514Z</time></trkpt><trkpt lat="39.5419067" lon="8.543315"><ele>304.6666666666667</ele><time>2026-05-01T13:49:37.512Z</time></trkpt><trkpt lat="39.5418283" lon="8.5433433"><ele>304.0</ele><time>2026-05-01T13:49:38.541Z</time></trkpt><trkpt lat="39.541745" lon="8.543355"><ele>303.33333333333337</ele><time>2026-05-01T13:49:39.519Z</time></trkpt><trkpt lat="39.5416583" lon="8.5433483"><ele>302.6666666666667</ele><time>2026-05-01T13:49:40.508Z</time></trkpt><trkpt lat="39.5415667" lon="8.543325"><ele>302.0</ele><time>2026-05-01T13:49:41.51Z</time></trkpt><trkpt lat="39.5414833" lon="8.543295"><ele>302.0</ele><time>2026-05-01T13:49:42.511Z</time></trkpt><trkpt lat="39.5414067" lon="8.5432617"><ele>302.0</ele><time>2026-05-01T13:49:43.514Z</time></trkpt><trkpt lat="39.5413317" lon="8.5432267"><ele>302.0</ele><time>2026-05-01T13:49:44.543Z</time></trkpt><trkpt lat="39.5412617" lon="8.54318"><ele>302.0</ele><time>2026-05-01T13:49:45.512Z</time></trkpt><trkpt lat="39.5411983" lon="8.5431233"><ele>302.0</ele><time>2026-05-01T13:49:46.513Z</time></trkpt><trkpt lat="39.5411383" lon="8.5430417"><ele>302.0</ele><time>2026-05-01T13:49:47.514Z</time></trkpt><trkpt lat="39.541075" lon="8.5429567"><ele>299.4</ele><time>2026-05-01T13:49:48.516Z</time></trkpt><trkpt lat="39.5410217" lon="8.5428367"><ele>296.79999999999995</ele><time>2026-05-01T13:49:49.511Z</time></trkpt><trkpt lat="39.5409717" lon="8.5427333"><ele>294.2</ele><time>2026-05-01T13:49:50.544Z</time></trkpt><trkpt lat="39.5409217" lon="8.5426017"><ele>291.59999999999997</ele><time>2026-05-01T13:49:51.514Z</time></trkpt><trkpt lat="39.54086" lon="8.5424617"><ele>289.0</ele><time>2026-05-01T13:49:52.511Z</time></trkpt><trkpt lat="39.5408133" lon="8.542355"><ele>289.0</ele><time>2026-05-01T13:49:53.514Z</time></trkpt><trkpt lat="39.5407617" lon="8.5422517"><ele>289.0</ele><time>2026-05-01T13:49:54.511Z</time></trkpt><trkpt lat="39.5407267" lon="8.54215"><ele>289.0</ele><time>2026-05-01T13:49:55.511Z</time></trkpt><trkpt lat="39.540685" lon="8.5420583"><ele>289.0</ele><time>2026-05-01T13:49:56.574Z</time></trkpt><trkpt lat="39.540645" lon="8.54198"><ele>289.0</ele><time>2026-05-01T13:49:57.512Z</time></trkpt><trkpt lat="39.5406133" lon="8.5419017"><ele>289.0</ele><time>2026-05-01T13:49:58.508Z</time></trkpt><trkpt lat="39.540575" lon="8.5417567"><ele>290.0</ele><time>2026-05-01T13:50:00.514Z</time></trkpt><trkpt lat="39.5405933" lon="8.5416017"><ele>291.0</ele><time>2026-05-01T13:50:02.561Z</time></trkpt><trkpt lat="39.5406283" lon="8.541515"><ele>292.0</ele><time>2026-05-01T13:50:03.513Z</time></trkpt><trkpt lat="39.5406683" lon="8.5414233"><ele>293.0</ele><time>2026-05-01T13:50:04.512Z</time></trkpt><trkpt lat="39.5407017" lon="8.541325"><ele>294.0</ele><time>2026-05-01T13:50:05.52Z</time></trkpt><trkpt lat="39.5407283" lon="8.54121"><ele>291.4</ele><time>2026-05-01T13:50:06.519Z</time></trkpt><trkpt lat="39.5407517" lon="8.5410933"><ele>288.79999999999995</ele><time>2026-05-01T13:50:07.513Z</time></trkpt><trkpt lat="39.5407783" lon="8.5409767"><ele>286.20000000000005</ele><time>2026-05-01T13:50:08.54Z</time></trkpt><trkpt lat="39.5408067" lon="8.5408567"><ele>283.6</ele><time>2026-05-01T13:50:09.511Z</time></trkpt><trkpt lat="39.54085" lon="8.5407333"><ele>281.0</ele><time>2026-05-01T13:50:10.511Z</time></trkpt><trkpt lat="39.540895" lon="8.5406233"><ele>281.00000000000006</ele><time>2026-05-01T13:50:11.51Z</time></trkpt><trkpt lat="39.5409383" lon="8.54053"><ele>281.0</ele><time>2026-05-01T13:50:12.514Z</time></trkpt><trkpt lat="39.5409817" lon="8.5404567"><ele>281.0</ele><time>2026-05-01T13:50:13.514Z</time></trkpt><trkpt lat="39.5410183" lon="8.5403817"><ele>281.0</ele><time>2026-05-01T13:50:14.542Z</time></trkpt><trkpt lat="39.541055" lon="8.5403117"><ele>281.0</ele><time>2026-05-01T13:50:15.509Z</time></trkpt><trkpt lat="39.5411" lon="8.5402467"><ele>281.00000000000006</ele><time>2026-05-01T13:50:16.511Z</time></trkpt><trkpt lat="39.5411483" lon="8.540185"><ele>281.0</ele><time>2026-05-01T13:50:17.513Z</time></trkpt><trkpt lat="39.541205" lon="8.54013"><ele>283.1666666666667</ele><time>2026-05-01T13:50:18.512Z</time></trkpt><trkpt lat="39.5412767" lon="8.54009"><ele>285.33333333333337</ele><time>2026-05-01T13:50:19.509Z</time></trkpt><trkpt lat="39.5413483" lon="8.54006"><ele>287.5</ele><time>2026-05-01T13:50:20.54Z</time></trkpt><trkpt lat="39.541415" lon="8.5400367"><ele>289.6666666666667</ele><time>2026-05-01T13:50:21.511Z</time></trkpt><trkpt lat="39.54147" lon="8.5399833"><ele>291.8333333333333</ele><time>2026-05-01T13:50:22.511Z</time></trkpt><trkpt lat="39.5415167" lon="8.5399217"><ele>294.0</ele><time>2026-05-01T13:50:23.51Z</time></trkpt><trkpt lat="39.5415417" lon="8.539775"><ele>294.0</ele><time>2026-05-01T13:50:25.509Z</time></trkpt><trkpt lat="39.5415117" lon="8.53963"><ele>294.0</ele><time>2026-05-01T13:50:27.511Z</time></trkpt><trkpt lat="39.5414467" lon="8.5395767"><ele>294.0</ele><time>2026-05-01T13:50:28.511Z</time></trkpt><trkpt lat="39.5413733" lon="8.5395217"><ele>294.0</ele><time>2026-05-01T13:50:29.51Z</time></trkpt><trkpt lat="39.5412817" lon="8.5394717"><ele>294.0</ele><time>2026-05-01T13:50:30.515Z</time></trkpt><trkpt lat="39.5411683" lon="8.53941"><ele>293.5</ele><time>2026-05-01T13:50:31.511Z</time></trkpt><trkpt lat="39.5410533" lon="8.53939"><ele>293.0</ele><time>2026-05-01T13:50:32.56Z</time></trkpt><trkpt lat="39.5409283" lon="8.5393817"><ele>292.5</ele><time>2026-05-01T13:50:33.513Z</time></trkpt><trkpt lat="39.5408067" lon="8.539375"><ele>292.0</ele><time>2026-05-01T13:50:34.514Z</time></trkpt><trkpt lat="39.54068" lon="8.53939"><ele>292.0</ele><time>2026-05-01T13:50:35.513Z</time></trkpt><trkpt lat="39.5405483" lon="8.5394417"><ele>292.0</ele><time>2026-05-01T13:50:36.513Z</time></trkpt><trkpt lat="39.5404383" lon="8.5394483"><ele>292.0</ele><time>2026-05-01T13:50:37.514Z</time></trkpt><trkpt lat="39.5403233" lon="8.5394617"><ele>292.0</ele><time>2026-05-01T13:50:38.541Z</time></trkpt><trkpt lat="39.54021" lon="8.53946"><ele>288.4</ele><time>2026-05-01T13:50:39.513Z</time></trkpt><trkpt lat="39.5401033" lon="8.5394683"><ele>284.79999999999995</ele><time>2026-05-01T13:50:40.514Z</time></trkpt><trkpt lat="39.5400083" lon="8.53948"><ele>281.2</ele><time>2026-05-01T13:50:41.512Z</time></trkpt><trkpt lat="39.5399233" lon="8.539465"><ele>277.59999999999997</ele><time>2026-05-01T13:50:42.515Z</time></trkpt><trkpt lat="39.539825" lon="8.539435"><ele>274.0</ele><time>2026-05-01T13:50:43.516Z</time></trkpt><trkpt lat="39.5397417" lon="8.539385"><ele>274.0</ele><time>2026-05-01T13:50:44.54Z</time></trkpt><trkpt lat="39.539675" lon="8.5392967"><ele>274.0</ele><time>2026-05-01T13:50:45.507Z</time></trkpt><trkpt lat="39.5396" lon="8.53921"><ele>274.0</ele><time>2026-05-01T13:50:46.513Z</time></trkpt><trkpt lat="39.5395417" lon="8.5391133"><ele>274.0</ele><time>2026-05-01T13:50:47.511Z</time></trkpt><trkpt lat="39.5394517" lon="8.5390667"><ele>274.0</ele><time>2026-05-01T13:50:48.512Z</time></trkpt><trkpt lat="39.5394017" lon="8.5390083"><ele>272.0</ele><time>2026-05-01T13:50:49.514Z</time></trkpt><trkpt lat="39.539335" lon="8.5389667"><ele>270.0</ele><time>2026-05-01T13:50:50.544Z</time></trkpt><trkpt lat="39.5392517" lon="8.5388583"><ele>268.0</ele><time>2026-05-01T13:50:52.512Z</time></trkpt><trkpt lat="39.5392117" lon="8.5387267"><ele>266.0</ele><time>2026-05-01T13:50:54.509Z</time></trkpt><trkpt lat="39.53925" lon="8.5385633"><ele>264.0</ele><time>2026-05-01T13:50:56.537Z</time></trkpt><trkpt lat="39.5392817" lon="8.53847"><ele>264.0</ele><time>2026-05-01T13:50:57.511Z</time></trkpt><trkpt lat="39.5392967" lon="8.5383883"><ele>264.0</ele><time>2026-05-01T13:50:58.512Z</time></trkpt><trkpt lat="39.5392617" lon="8.5382483"><ele>264.0</ele><time>2026-05-01T13:51:00.512Z</time></trkpt><trkpt lat="39.5391533" lon="8.538145"><ele>264.0</ele><time>2026-05-01T13:51:02.56Z</time></trkpt><trkpt lat="39.5390817" lon="8.5381083"><ele>264.0</ele><time>2026-05-01T13:51:03.508Z</time></trkpt><trkpt lat="39.53901" lon="8.53807"><ele>264.0</ele><time>2026-05-01T13:51:04.511Z</time></trkpt><trkpt lat="39.53894" lon="8.5380333"><ele>264.0</ele><time>2026-05-01T13:51:05.51Z</time></trkpt><trkpt lat="39.5388767" lon="8.5379917"><ele>264.0</ele><time>2026-05-01T13:51:06.513Z</time></trkpt><trkpt lat="39.53882" lon="8.5379467"><ele>264.0</ele><time>2026-05-01T13:51:07.515Z</time></trkpt><trkpt lat="39.5387833" lon="8.53788"><ele>264.0</ele><time>2026-05-01T13:51:08.541Z</time></trkpt><trkpt lat="39.53874" lon="8.537745"><ele>264.0</ele><time>2026-05-01T13:51:10.508Z</time></trkpt><trkpt lat="39.53873" lon="8.537605"><ele>262.8333333333333</ele><time>2026-05-01T13:51:12.511Z</time></trkpt><trkpt lat="39.5387017" lon="8.53751"><ele>261.6666666666667</ele><time>2026-05-01T13:51:14.538Z</time></trkpt><trkpt lat="39.5386417" lon="8.537485"><ele>260.5</ele><time>2026-05-01T13:51:16.515Z</time></trkpt><trkpt lat="39.538565" lon="8.5375217"><ele>259.33333333333337</ele><time>2026-05-01T13:51:18.519Z</time></trkpt><trkpt lat="39.5384883" lon="8.537595"><ele>258.1666666666667</ele><time>2026-05-01T13:51:20.545Z</time></trkpt><trkpt lat="39.53841" lon="8.53768"><ele>257.0</ele><time>2026-05-01T13:51:22.515Z</time></trkpt><trkpt lat="39.538315" lon="8.53775"><ele>257.0</ele><time>2026-05-01T13:51:24.513Z</time></trkpt><trkpt lat="39.5382067" lon="8.537785"><ele>257.0</ele><time>2026-05-01T13:51:26.573Z</time></trkpt><trkpt lat="39.5380967" lon="8.53775"><ele>257.0</ele><time>2026-05-01T13:51:28.514Z</time></trkpt><trkpt lat="39.53805" lon="8.5376717"><ele>257.0</ele><time>2026-05-01T13:51:29.514Z</time></trkpt><trkpt lat="39.5380017" lon="8.5375783"><ele>257.0</ele><time>2026-05-01T13:51:30.512Z</time></trkpt><trkpt lat="39.5379417" lon="8.5374883"><ele>254.2</ele><time>2026-05-01T13:51:31.512Z</time></trkpt><trkpt lat="39.537875" lon="8.5373883"><ele>251.39999999999998</ele><time>2026-05-01T13:51:32.56Z</time></trkpt><trkpt lat="39.5378017" lon="8.5372817"><ele>248.60000000000002</ele><time>2026-05-01T13:51:33.515Z</time></trkpt><trkpt lat="39.5377333" lon="8.5371817"><ele>245.8</ele><time>2026-05-01T13:51:34.515Z</time></trkpt><trkpt lat="39.53767" lon="8.5370817"><ele>243.0</ele><time>2026-05-01T13:51:35.513Z</time></trkpt><trkpt lat="39.537605" lon="8.53699"><ele>242.66666666666666</ele><time>2026-05-01T13:51:36.511Z</time></trkpt><trkpt lat="39.5375417" lon="8.5369133"><ele>242.33333333333331</ele><time>2026-05-01T13:51:37.512Z</time></trkpt><trkpt lat="39.53748" lon="8.5368367"><ele>242.0</ele><time>2026-05-01T13:51:38.543Z</time></trkpt><trkpt lat="39.5374317" lon="8.5367633"><ele>241.66666666666666</ele><time>2026-05-01T13:51:39.513Z</time></trkpt><trkpt lat="39.5373917" lon="8.5366883"><ele>241.33333333333331</ele><time>2026-05-01T13:51:40.51Z</time></trkpt><trkpt lat="39.5373533" lon="8.5365383"><ele>241.0</ele><time>2026-05-01T13:51:42.514Z</time></trkpt><trkpt lat="39.5373817" lon="8.5364433"><ele>240.99999999999997</ele><time>2026-05-01T13:51:43.51Z</time></trkpt><trkpt lat="39.5374033" lon="8.53636"><ele>241.0</ele><time>2026-05-01T13:51:44.542Z</time></trkpt><trkpt lat="39.5374383" lon="8.5362683"><ele>241.0</ele><time>2026-05-01T13:51:45.511Z</time></trkpt><trkpt lat="39.537495" lon="8.5361733"><ele>241.0</ele><time>2026-05-01T13:51:46.512Z</time></trkpt><trkpt lat="39.537545" lon="8.5360883"><ele>240.99999999999997</ele><time>2026-05-01T13:51:47.513Z</time></trkpt><trkpt lat="39.5375917" lon="8.536005"><ele>241.0</ele><time>2026-05-01T13:51:48.512Z</time></trkpt><trkpt lat="39.537635" lon="8.5359233"><ele>241.66666666666666</ele><time>2026-05-01T13:51:49.512Z</time></trkpt><trkpt lat="39.5376683" lon="8.5358467"><ele>242.33333333333331</ele><time>2026-05-01T13:51:50.541Z</time></trkpt><trkpt lat="39.5376517" lon="8.5357317"><ele>243.0</ele><time>2026-05-01T13:51:52.513Z</time></trkpt><trkpt lat="39.537585" lon="8.5357"><ele>243.66666666666669</ele><time>2026-05-01T13:51:54.512Z</time></trkpt><trkpt lat="39.5374917" lon="8.535725"><ele>244.33333333333334</ele><time>2026-05-01T13:51:56.57Z</time></trkpt><trkpt lat="39.5374217" lon="8.5357617"><ele>245.0</ele><time>2026-05-01T13:51:57.512Z</time></trkpt><trkpt lat="39.53735" lon="8.5358183"><ele>245.00000000000003</ele><time>2026-05-01T13:51:58.512Z</time></trkpt><trkpt lat="39.5372767" lon="8.53589"><ele>245.0</ele><time>2026-05-01T13:51:59.517Z</time></trkpt><trkpt lat="39.537205" lon="8.5359667"><ele>245.0</ele><time>2026-05-01T13:52:00.508Z</time></trkpt><trkpt lat="39.5371367" lon="8.5360467"><ele>245.0</ele><time>2026-05-01T13:52:01.508Z</time></trkpt><trkpt lat="39.5370733" lon="8.536115"><ele>245.00000000000003</ele><time>2026-05-01T13:52:02.558Z</time></trkpt><trkpt lat="39.5370117" lon="8.5361733"><ele>245.0</ele><time>2026-05-01T13:52:03.51Z</time></trkpt><trkpt lat="39.5369533" lon="8.5362183"><ele>244.00000000000003</ele><time>2026-05-01T13:52:04.512Z</time></trkpt><trkpt lat="39.5368333" lon="8.53626"><ele>243.0</ele><time>2026-05-01T13:52:06.512Z</time></trkpt><trkpt lat="39.5367633" lon="8.536255"><ele>242.0</ele><time>2026-05-01T13:52:07.513Z</time></trkpt><trkpt lat="39.5366833" lon="8.53622"><ele>241.0</ele><time>2026-05-01T13:52:08.543Z</time></trkpt><trkpt lat="39.536615" lon="8.5361967"><ele>240.00000000000003</ele><time>2026-05-01T13:52:09.506Z</time></trkpt><trkpt lat="39.5365417" lon="8.5361617"><ele>239.0</ele><time>2026-05-01T13:52:10.506Z</time></trkpt><trkpt lat="39.5364733" lon="8.5361017"><ele>239.00000000000003</ele><time>2026-05-01T13:52:11.511Z</time></trkpt><trkpt lat="39.53641" lon="8.53603"><ele>239.0</ele><time>2026-05-01T13:52:12.511Z</time></trkpt><trkpt lat="39.53635" lon="8.5359533"><ele>239.00000000000003</ele><time>2026-05-01T13:52:13.511Z</time></trkpt><trkpt lat="39.5362883" lon="8.5358967"><ele>239.00000000000003</ele><time>2026-05-01T13:52:14.54Z</time></trkpt><trkpt lat="39.53623" lon="8.5358517"><ele>239.0</ele><time>2026-05-01T13:52:15.512Z</time></trkpt><trkpt lat="39.5361683" lon="8.53582"><ele>239.00000000000003</ele><time>2026-05-01T13:52:16.513Z</time></trkpt><trkpt lat="39.53611" lon="8.5357883"><ele>239.00000000000003</ele><time>2026-05-01T13:52:17.51Z</time></trkpt><trkpt lat="39.5360083" lon="8.5357017"><ele>233.79999999999998</ele><time>2026-05-01T13:52:19.512Z</time></trkpt><trkpt lat="39.5359833" lon="8.5355483"><ele>228.59999999999997</ele><time>2026-05-01T13:52:21.508Z</time></trkpt><trkpt lat="39.53599" lon="8.5354533"><ele>223.4</ele><time>2026-05-01T13:52:22.512Z</time></trkpt><trkpt lat="39.5360217" lon="8.5353283"><ele>218.2</ele><time>2026-05-01T13:52:23.512Z</time></trkpt><trkpt lat="39.5360283" lon="8.535215"><ele>213.0</ele><time>2026-05-01T13:52:24.512Z</time></trkpt><trkpt lat="39.5360317" lon="8.5350917"><ele>213.0</ele><time>2026-05-01T13:52:25.509Z</time></trkpt><trkpt lat="39.5360417" lon="8.53497"><ele>213.0</ele><time>2026-05-01T13:52:26.571Z</time></trkpt><trkpt lat="39.5360317" lon="8.5348517"><ele>213.0</ele><time>2026-05-01T13:52:27.512Z</time></trkpt><trkpt lat="39.5360033" lon="8.534725"><ele>213.0</ele><time>2026-05-01T13:52:28.515Z</time></trkpt><trkpt lat="39.5359683" lon="8.5346533"><ele>213.0</ele><time>2026-05-01T13:52:29.512Z</time></trkpt><trkpt lat="39.5359333" lon="8.534585"><ele>213.0</ele><time>2026-05-01T13:52:30.51Z</time></trkpt><trkpt lat="39.535895" lon="8.5345083"><ele>212.8</ele><time>2026-05-01T13:52:31.511Z</time></trkpt><trkpt lat="39.5358533" lon="8.5343633"><ele>212.60000000000002</ele><time>2026-05-01T13:52:33.508Z</time></trkpt><trkpt lat="39.53587" lon="8.5342067"><ele>212.39999999999998</ele><time>2026-05-01T13:52:35.512Z</time></trkpt><trkpt lat="39.5358967" lon="8.534125"><ele>212.2</ele><time>2026-05-01T13:52:36.511Z</time></trkpt><trkpt lat="39.5359383" lon="8.5340333"><ele>212.0</ele><time>2026-05-01T13:52:37.511Z</time></trkpt><trkpt lat="39.5359783" lon="8.53395"><ele>212.00000000000003</ele><time>2026-05-01T13:52:38.543Z</time></trkpt><trkpt lat="39.5360133" lon="8.5338733"><ele>212.0</ele><time>2026-05-01T13:52:39.511Z</time></trkpt><trkpt lat="39.5360483" lon="8.533805"><ele>212.0</ele><time>2026-05-01T13:52:40.51Z</time></trkpt><trkpt lat="39.5361083" lon="8.5336783"><ele>212.0</ele><time>2026-05-01T13:52:42.509Z</time></trkpt><trkpt lat="39.5361733" lon="8.5335633"><ele>212.00000000000003</ele><time>2026-05-01T13:52:44.545Z</time></trkpt><trkpt lat="39.5362133" lon="8.5335"><ele>212.0</ele><time>2026-05-01T13:52:45.513Z</time></trkpt><trkpt lat="39.536255" lon="8.533435"><ele>214.33333333333334</ele><time>2026-05-01T13:52:46.512Z</time></trkpt><trkpt lat="39.5362967" lon="8.5333733"><ele>216.66666666666669</ele><time>2026-05-01T13:52:47.513Z</time></trkpt><trkpt lat="39.5363817" lon="8.5332733"><ele>219.0</ele><time>2026-05-01T13:52:49.51Z</time></trkpt><trkpt lat="39.5364317" lon="8.53317"><ele>221.33333333333331</ele><time>2026-05-01T13:52:51.51Z</time></trkpt><trkpt lat="39.5364283" lon="8.533065"><ele>223.66666666666666</ele><time>2026-05-01T13:52:53.513Z</time></trkpt><trkpt lat="39.536365" lon="8.532995"><ele>226.0</ele><time>2026-05-01T13:52:55.507Z</time></trkpt><trkpt lat="39.536235" lon="8.5329933"><ele>224.57142857142858</ele><time>2026-05-01T13:52:57.509Z</time></trkpt><trkpt lat="39.5361617" lon="8.5329967"><ele>223.14285714285714</ele><time>2026-05-01T13:52:58.513Z</time></trkpt><trkpt lat="39.53609" lon="8.5330033"><ele>221.71428571428572</ele><time>2026-05-01T13:52:59.509Z</time></trkpt><trkpt lat="39.5360217" lon="8.5330017"><ele>220.28571428571428</ele><time>2026-05-01T13:53:00.511Z</time></trkpt><trkpt lat="39.535955" lon="8.5329867"><ele>218.85714285714283</ele><time>2026-05-01T13:53:01.511Z</time></trkpt><trkpt lat="39.535885" lon="8.53296"><ele>217.42857142857142</ele><time>2026-05-01T13:53:02.559Z</time></trkpt><trkpt lat="39.5358117" lon="8.5329233"><ele>216.0</ele><time>2026-05-01T13:53:03.509Z</time></trkpt><trkpt lat="39.535735" lon="8.5328683"><ele>216.0</ele><time>2026-05-01T13:53:04.509Z</time></trkpt><trkpt lat="39.5356483" lon="8.5328117"><ele>216.00000000000003</ele><time>2026-05-01T13:53:05.514Z</time></trkpt><trkpt lat="39.5355517" lon="8.532755"><ele>216.00000000000003</ele><time>2026-05-01T13:53:06.511Z</time></trkpt><trkpt lat="39.5354783" lon="8.5326933"><ele>216.0</ele><time>2026-05-01T13:53:07.515Z</time></trkpt><trkpt lat="39.5353967" lon="8.532605"><ele>216.0</ele><time>2026-05-01T13:53:08.54Z</time></trkpt><trkpt lat="39.535325" lon="8.5324967"><ele>211.20000000000002</ele><time>2026-05-01T13:53:09.513Z</time></trkpt><trkpt lat="39.53526" lon="8.5324017"><ele>206.40000000000003</ele><time>2026-05-01T13:53:10.512Z</time></trkpt><trkpt lat="39.53522" lon="8.5322917"><ele>201.6</ele><time>2026-05-01T13:53:11.512Z</time></trkpt><trkpt lat="39.5351817" lon="8.5321983"><ele>196.8</ele><time>2026-05-01T13:53:12.508Z</time></trkpt><trkpt lat="39.5351517" lon="8.5320883"><ele>192.0</ele><time>2026-05-01T13:53:13.511Z</time></trkpt><trkpt lat="39.5351267" lon="8.5319717"><ele>192.0</ele><time>2026-05-01T13:53:14.541Z</time></trkpt><trkpt lat="39.5351117" lon="8.5318483"><ele>192.0</ele><time>2026-05-01T13:53:15.509Z</time></trkpt><trkpt lat="39.53509" lon="8.5317283"><ele>192.0</ele><time>2026-05-01T13:53:16.513Z</time></trkpt><trkpt lat="39.5350983" lon="8.531585"><ele>192.0</ele><time>2026-05-01T13:53:17.51Z</time></trkpt><trkpt lat="39.5350933" lon="8.531445"><ele>192.0</ele><time>2026-05-01T13:53:18.512Z</time></trkpt><trkpt lat="39.5350867" lon="8.53131"><ele>191.8</ele><time>2026-05-01T13:53:19.513Z</time></trkpt><trkpt lat="39.5350867" lon="8.5311783"><ele>191.6</ele><time>2026-05-01T13:53:20.541Z</time></trkpt><trkpt lat="39.535085" lon="8.5310517"><ele>191.4</ele><time>2026-05-01T13:53:21.512Z</time></trkpt><trkpt lat="39.5350667" lon="8.5309167"><ele>191.20000000000002</ele><time>2026-05-01T13:53:22.512Z</time></trkpt><trkpt lat="39.53504" lon="8.53079"><ele>191.0</ele><time>2026-05-01T13:53:23.51Z</time></trkpt><trkpt lat="39.5350167" lon="8.5306767"><ele>191.0</ele><time>2026-05-01T13:53:24.513Z</time></trkpt><trkpt lat="39.5349883" lon="8.5305683"><ele>191.0</ele><time>2026-05-01T13:53:25.509Z</time></trkpt><trkpt lat="39.5349633" lon="8.5304583"><ele>191.0</ele><time>2026-05-01T13:53:26.522Z</time></trkpt><trkpt lat="39.53494" lon="8.5303583"><ele>191.0</ele><time>2026-05-01T13:53:27.511Z</time></trkpt><trkpt lat="39.5349083" lon="8.53027"><ele>191.0</ele><time>2026-05-01T13:53:28.512Z</time></trkpt><trkpt lat="39.5348233" lon="8.53014"><ele>190.5</ele><time>2026-05-01T13:53:30.516Z</time></trkpt><trkpt lat="39.5347533" lon="8.5300817"><ele>190.0</ele><time>2026-05-01T13:53:31.512Z</time></trkpt><trkpt lat="39.5346867" lon="8.5300433"><ele>189.5</ele><time>2026-05-01T13:53:32.562Z</time></trkpt><trkpt lat="39.5346217" lon="8.5300133"><ele>189.0</ele><time>2026-05-01T13:53:33.518Z</time></trkpt><trkpt lat="39.5345583" lon="8.5299867"><ele>188.5</ele><time>2026-05-01T13:53:34.513Z</time></trkpt><trkpt lat="39.534495" lon="8.52997"><ele>188.0</ele><time>2026-05-01T13:53:35.515Z</time></trkpt><trkpt lat="39.5343867" lon="8.5299467"><ele>186.8</ele><time>2026-05-01T13:53:37.511Z</time></trkpt><trkpt lat="39.5343133" lon="8.5298833"><ele>185.60000000000002</ele><time>2026-05-01T13:53:39.513Z</time></trkpt><trkpt lat="39.53428" lon="8.5297833"><ele>184.39999999999998</ele><time>2026-05-01T13:53:41.512Z</time></trkpt><trkpt lat="39.534305" lon="8.5296683"><ele>183.2</ele><time>2026-05-01T13:53:43.515Z</time></trkpt><trkpt lat="39.53439" lon="8.5295283"><ele>182.0</ele><time>2026-05-01T13:53:45.513Z</time></trkpt><trkpt lat="39.5344283" lon="8.529445"><ele>181.83333333333331</ele><time>2026-05-01T13:53:46.513Z</time></trkpt><trkpt lat="39.534455" lon="8.5293567"><ele>181.66666666666666</ele><time>2026-05-01T13:53:47.51Z</time></trkpt><trkpt lat="39.5344633" lon="8.52926"><ele>181.5</ele><time>2026-05-01T13:53:48.508Z</time></trkpt><trkpt lat="39.5344617" lon="8.5291617"><ele>181.33333333333334</ele><time>2026-05-01T13:53:49.512Z</time></trkpt><trkpt lat="39.53445" lon="8.52906"><ele>181.16666666666669</ele><time>2026-05-01T13:53:50.542Z</time></trkpt><trkpt lat="39.5344183" lon="8.5289483"><ele>181.0</ele><time>2026-05-01T13:53:51.513Z</time></trkpt><trkpt lat="39.53438" lon="8.52883"><ele>179.60000000000002</ele><time>2026-05-01T13:53:52.513Z</time></trkpt><trkpt lat="39.5343483" lon="8.52871"><ele>178.2</ele><time>2026-05-01T13:53:53.511Z</time></trkpt><trkpt lat="39.5343033" lon="8.5285733"><ele>176.8</ele><time>2026-05-01T13:53:54.51Z</time></trkpt><trkpt lat="39.53425" lon="8.5284533"><ele>175.39999999999998</ele><time>2026-05-01T13:53:55.51Z</time></trkpt><trkpt lat="39.5341917" lon="8.52835"><ele>174.0</ele><time>2026-05-01T13:53:56.57Z</time></trkpt><trkpt lat="39.5341567" lon="8.5282433"><ele>174.0</ele><time>2026-05-01T13:53:57.512Z</time></trkpt><trkpt lat="39.5341217" lon="8.528135"><ele>174.0</ele><time>2026-05-01T13:53:58.511Z</time></trkpt><trkpt lat="39.5340833" lon="8.52802"><ele>174.0</ele><time>2026-05-01T13:53:59.512Z</time></trkpt><trkpt lat="39.5340567" lon="8.527895"><ele>174.0</ele><time>2026-05-01T13:54:00.512Z</time></trkpt><trkpt lat="39.5340183" lon="8.5277817"><ele>174.0</ele><time>2026-05-01T13:54:01.513Z</time></trkpt><trkpt lat="39.53398" lon="8.5276467"><ele>175.25</ele><time>2026-05-01T13:54:02.562Z</time></trkpt><trkpt lat="39.53395" lon="8.5275067"><ele>176.5</ele><time>2026-05-01T13:54:03.512Z</time></trkpt><trkpt lat="39.53392" lon="8.527365"><ele>177.75</ele><time>2026-05-01T13:54:04.513Z</time></trkpt><trkpt lat="39.5338867" lon="8.527225"><ele>179.0</ele><time>2026-05-01T13:54:05.507Z</time></trkpt><trkpt lat="39.5338483" lon="8.52708"><ele>177.75</ele><time>2026-05-01T13:54:06.509Z</time></trkpt><trkpt lat="39.5338133" lon="8.5269217"><ele>176.5</ele><time>2026-05-01T13:54:07.511Z</time></trkpt><trkpt lat="39.5337683" lon="8.5267583"><ele>175.25</ele><time>2026-05-01T13:54:08.543Z</time></trkpt><trkpt lat="39.5337217" lon="8.5266017"><ele>174.0</ele><time>2026-05-01T13:54:09.51Z</time></trkpt><trkpt lat="39.5336783" lon="8.52643"><ele>174.0</ele><time>2026-05-01T13:54:10.51Z</time></trkpt><trkpt lat="39.5336417" lon="8.5262733"><ele>174.0</ele><time>2026-05-01T13:54:11.512Z</time></trkpt><trkpt lat="39.5335983" lon="8.5260867"><ele>174.0</ele><time>2026-05-01T13:54:12.512Z</time></trkpt><trkpt lat="39.5335483" lon="8.5258867"><ele>174.0</ele><time>2026-05-01T13:54:13.517Z</time></trkpt><trkpt lat="39.5335017" lon="8.5256717"><ele>172.33333333333334</ele><time>2026-05-01T13:54:14.54Z</time></trkpt><trkpt lat="39.5334483" lon="8.525465"><ele>170.66666666666669</ele><time>2026-05-01T13:54:15.513Z</time></trkpt><trkpt lat="39.5333867" lon="8.525235"><ele>169.0</ele><time>2026-05-01T13:54:16.516Z</time></trkpt><trkpt lat="39.5333367" lon="8.5250367"><ele>168.75</ele><time>2026-05-01T13:54:17.51Z</time></trkpt><trkpt lat="39.53328" lon="8.524855"><ele>168.5</ele><time>2026-05-01T13:54:18.512Z</time></trkpt><trkpt lat="39.5332233" lon="8.5246767"><ele>168.25</ele><time>2026-05-01T13:54:19.512Z</time></trkpt><trkpt lat="39.5331683" lon="8.5245067"><ele>168.0</ele><time>2026-05-01T13:54:20.543Z</time></trkpt><trkpt lat="39.5331183" lon="8.5243417"><ele>169.75</ele><time>2026-05-01T13:54:21.512Z</time></trkpt><trkpt lat="39.5330667" lon="8.5241883"><ele>171.5</ele><time>2026-05-01T13:54:22.514Z</time></trkpt><trkpt lat="39.53302" lon="8.5240433"><ele>173.25</ele><time>2026-05-01T13:54:23.513Z</time></trkpt><trkpt lat="39.532975" lon="8.5239033"><ele>175.0</ele><time>2026-05-01T13:54:24.508Z</time></trkpt><trkpt lat="39.5329283" lon="8.5237717"><ele>172.6</ele><time>2026-05-01T13:54:25.511Z</time></trkpt><trkpt lat="39.5328833" lon="8.5236467"><ele>170.2</ele><time>2026-05-01T13:54:26.571Z</time></trkpt><trkpt lat="39.5328317" lon="8.5235367"><ele>167.8</ele><time>2026-05-01T13:54:27.511Z</time></trkpt><trkpt lat="39.5327683" lon="8.5234383"><ele>165.4</ele><time>2026-05-01T13:54:28.512Z</time></trkpt><trkpt lat="39.5326983" lon="8.5233467"><ele>163.0</ele><time>2026-05-01T13:54:29.509Z</time></trkpt><trkpt lat="39.532615" lon="8.5232933"><ele>163.0</ele><time>2026-05-01T13:54:30.511Z</time></trkpt><trkpt lat="39.5325167" lon="8.52322"><ele>163.0</ele><time>2026-05-01T13:54:31.513Z</time></trkpt><trkpt lat="39.5324067" lon="8.5231933"><ele>163.0</ele><time>2026-05-01T13:54:32.511Z</time></trkpt><trkpt lat="39.5323133" lon="8.523125"><ele>163.0</ele><time>2026-05-01T13:54:33.513Z</time></trkpt><trkpt lat="39.5322517" lon="8.52301"><ele>163.0</ele><time>2026-05-01T13:54:34.51Z</time></trkpt><trkpt lat="39.5321817" lon="8.5229333"><ele>163.60000000000002</ele><time>2026-05-01T13:54:35.511Z</time></trkpt><trkpt lat="39.53212" lon="8.5228617"><ele>164.20000000000002</ele><time>2026-05-01T13:54:36.513Z</time></trkpt><trkpt lat="39.5320683" lon="8.5227733"><ele>164.8</ele><time>2026-05-01T13:54:37.51Z</time></trkpt><trkpt lat="39.53204" lon="8.5226617"><ele>165.4</ele><time>2026-05-01T13:54:38.543Z</time></trkpt><trkpt lat="39.53201" lon="8.5225317"><ele>166.0</ele><time>2026-05-01T13:54:39.51Z</time></trkpt><trkpt lat="39.5319767" lon="8.5224217"><ele>166.8</ele><time>2026-05-01T13:54:40.512Z</time></trkpt><trkpt lat="39.5319517" lon="8.5222933"><ele>167.60000000000002</ele><time>2026-05-01T13:54:41.509Z</time></trkpt><trkpt lat="39.53194" lon="8.522155"><ele>168.4</ele><time>2026-05-01T13:54:42.509Z</time></trkpt><trkpt lat="39.5319317" lon="8.52202"><ele>169.2</ele><time>2026-05-01T13:54:43.511Z</time></trkpt><trkpt lat="39.5319167" lon="8.5218917"><ele>170.0</ele><time>2026-05-01T13:54:44.539Z</time></trkpt><trkpt lat="39.5319033" lon="8.5217633"><ele>170.0</ele><time>2026-05-01T13:54:45.513Z</time></trkpt><trkpt lat="39.53188" lon="8.5216367"><ele>170.0</ele><time>2026-05-01T13:54:46.51Z</time></trkpt><trkpt lat="39.5318567" lon="8.5215233"><ele>170.0</ele><time>2026-05-01T13:54:47.511Z</time></trkpt><trkpt lat="39.5318283" lon="8.5214267"><ele>170.0</ele><time>2026-05-01T13:54:48.512Z</time></trkpt><trkpt lat="39.53178" lon="8.52135"><ele>170.0</ele><time>2026-05-01T13:54:50.54Z</time></trkpt><trkpt lat="39.5317033" lon="8.521355"><ele>170.0</ele><time>2026-05-01T13:54:53.511Z</time></trkpt><trkpt lat="39.5316133" lon="8.52142"><ele>170.0</ele><time>2026-05-01T13:54:56.568Z</time></trkpt><trkpt lat="39.5315267" lon="8.5214883"><ele>170.0</ele><time>2026-05-01T13:54:58.511Z</time></trkpt><trkpt lat="39.5314483" lon="8.5215567"><ele>170.0</ele><time>2026-05-01T13:55:00.512Z</time></trkpt><trkpt lat="39.531535" lon="8.521565"><ele>170.0</ele><time>2026-05-01T13:55:08.54Z</time></trkpt><trkpt lat="39.531625" lon="8.521505"><ele>170.0</ele><time>2026-05-01T13:55:10.513Z</time></trkpt><trkpt lat="39.5317217" lon="8.52146"><ele>170.0</ele><time>2026-05-01T13:55:12.511Z</time></trkpt><trkpt lat="39.53183" lon="8.521465"><ele>170.0</ele><time>2026-05-01T13:55:14.541Z</time></trkpt><trkpt lat="39.5319283" lon="8.5215067"><ele>170.0</ele><time>2026-05-01T13:55:16.511Z</time></trkpt><trkpt lat="39.5320167" lon="8.5215783"><ele>170.0</ele><time>2026-05-01T13:55:18.509Z</time></trkpt><trkpt lat="39.5320917" lon="8.5216783"><ele>170.0</ele><time>2026-05-01T13:55:20.54Z</time></trkpt><trkpt lat="39.5321533" lon="8.5218117"><ele>169.42857142857144</ele><time>2026-05-01T13:55:22.511Z</time></trkpt><trkpt lat="39.5321817" lon="8.5218917"><ele>168.85714285714283</ele><time>2026-05-01T13:55:23.514Z</time></trkpt><trkpt lat="39.5322083" lon="8.5219717"><ele>168.28571428571428</ele><time>2026-05-01T13:55:24.513Z</time></trkpt><trkpt lat="39.53224" lon="8.5220467"><ele>167.71428571428572</ele><time>2026-05-01T13:55:25.512Z</time></trkpt><trkpt lat="39.5322617" lon="8.5221283"><ele>167.14285714285717</ele><time>2026-05-01T13:55:26.572Z</time></trkpt><trkpt lat="39.5322633" lon="8.5222233"><ele>166.57142857142856</ele><time>2026-05-01T13:55:27.512Z</time></trkpt><trkpt lat="39.5322583" lon="8.52234"><ele>166.0</ele><time>2026-05-01T13:55:28.512Z</time></trkpt><trkpt lat="39.53226" lon="8.5224333"><ele>166.0</ele><time>2026-05-01T13:55:29.51Z</time></trkpt><trkpt lat="39.53228" lon="8.5225167"><ele>166.0</ele><time>2026-05-01T13:55:30.512Z</time></trkpt><trkpt lat="39.5323133" lon="8.5225933"><ele>166.0</ele><time>2026-05-01T13:55:31.513Z</time></trkpt><trkpt lat="39.5323517" lon="8.5226667"><ele>166.0</ele><time>2026-05-01T13:55:32.56Z</time></trkpt><trkpt lat="39.5323983" lon="8.5227383"><ele>166.0</ele><time>2026-05-01T13:55:33.512Z</time></trkpt><trkpt lat="39.5324417" lon="8.5228217"><ele>166.0</ele><time>2026-05-01T13:55:34.513Z</time></trkpt><trkpt lat="39.532485" lon="8.5229033"><ele>166.0</ele><time>2026-05-01T13:55:35.513Z</time></trkpt><trkpt lat="39.5325267" lon="8.5229717"><ele>166.0</ele><time>2026-05-01T13:55:36.511Z</time></trkpt><trkpt lat="39.5326083" lon="8.5230717"><ele>166.0</ele><time>2026-05-01T13:55:38.54Z</time></trkpt><trkpt lat="39.5326733" lon="8.5231333"><ele>166.0</ele><time>2026-05-01T13:55:40.511Z</time></trkpt><trkpt lat="39.5326367" lon="8.5230467"><ele>166.0</ele><time>2026-05-01T13:55:44.539Z</time></trkpt><trkpt lat="39.5325667" lon="8.52296"><ele>166.0</ele><time>2026-05-01T13:55:46.512Z</time></trkpt><trkpt lat="39.532495" lon="8.5228383"><ele>166.0</ele><time>2026-05-01T13:55:48.511Z</time></trkpt><trkpt lat="39.5324267" lon="8.5227133"><ele>166.0</ele><time>2026-05-01T13:55:50.542Z</time></trkpt><trkpt lat="39.5323767" lon="8.5225983"><ele>166.0</ele><time>2026-05-01T13:55:52.509Z</time></trkpt><trkpt lat="39.5323633" lon="8.5224533"><ele>166.0</ele><time>2026-05-01T13:55:54.51Z</time></trkpt><trkpt lat="39.532365" lon="8.5223617"><ele>166.0</ele><time>2026-05-01T13:55:55.513Z</time></trkpt><trkpt lat="39.5323717" lon="8.5222533"><ele>166.0</ele><time>2026-05-01T13:55:56.572Z</time></trkpt><trkpt lat="39.5323833" lon="8.5221333"><ele>166.0</ele><time>2026-05-01T13:55:57.512Z</time></trkpt><trkpt lat="39.5323967" lon="8.5220117"><ele>166.0</ele><time>2026-05-01T13:55:58.51Z</time></trkpt><trkpt lat="39.532405" lon="8.5218983"><ele>166.0</ele><time>2026-05-01T13:55:59.513Z</time></trkpt><trkpt lat="39.5324167" lon="8.5217917"><ele>166.0</ele><time>2026-05-01T13:56:00.515Z</time></trkpt><trkpt lat="39.5324283" lon="8.5216933"><ele>166.0</ele><time>2026-05-01T13:56:01.512Z</time></trkpt><trkpt lat="39.5324433" lon="8.5216067"><ele>165.0</ele><time>2026-05-01T13:56:02.556Z</time></trkpt><trkpt lat="39.5324533" lon="8.521525"><ele>164.0</ele><time>2026-05-01T13:56:03.508Z</time></trkpt><trkpt lat="39.532455" lon="8.5213733"><ele>163.0</ele><time>2026-05-01T13:56:05.51Z</time></trkpt><trkpt lat="39.5324567" lon="8.5212583"><ele>162.0</ele><time>2026-05-01T13:56:07.511Z</time></trkpt><trkpt lat="39.532485" lon="8.52111"><ele>161.0</ele><time>2026-05-01T13:56:09.514Z</time></trkpt><trkpt lat="39.532515" lon="8.5210233"><ele>159.83333333333331</ele><time>2026-05-01T13:56:10.51Z</time></trkpt><trkpt lat="39.5325517" lon="8.5209333"><ele>158.66666666666666</ele><time>2026-05-01T13:56:11.511Z</time></trkpt><trkpt lat="39.5325933" lon="8.5208433"><ele>157.5</ele><time>2026-05-01T13:56:12.513Z</time></trkpt><trkpt lat="39.532625" lon="8.5207217"><ele>156.33333333333334</ele><time>2026-05-01T13:56:13.514Z</time></trkpt><trkpt lat="39.53267" lon="8.5206267"><ele>155.16666666666669</ele><time>2026-05-01T13:56:14.539Z</time></trkpt><trkpt lat="39.5327067" lon="8.5205333"><ele>154.0</ele><time>2026-05-01T13:56:15.509Z</time></trkpt><trkpt lat="39.53274" lon="8.5204417"><ele>154.33333333333334</ele><time>2026-05-01T13:56:16.512Z</time></trkpt><trkpt lat="39.5327633" lon="8.520345"><ele>154.66666666666669</ele><time>2026-05-01T13:56:17.509Z</time></trkpt><trkpt lat="39.5327867" lon="8.5202633"><ele>155.0</ele><time>2026-05-01T13:56:18.511Z</time></trkpt><trkpt lat="39.5328067" lon="8.520185"><ele>155.33333333333334</ele><time>2026-05-01T13:56:19.511Z</time></trkpt><trkpt lat="39.5328283" lon="8.5201083"><ele>155.66666666666666</ele><time>2026-05-01T13:56:20.542Z</time></trkpt><trkpt lat="39.5328667" lon="8.519955"><ele>156.0</ele><time>2026-05-01T13:56:22.509Z</time></trkpt><trkpt lat="39.5328783" lon="8.5198217"><ele>156.0</ele><time>2026-05-01T13:56:24.511Z</time></trkpt><trkpt lat="39.5328733" lon="8.5196867"><ele>156.0</ele><time>2026-05-01T13:56:26.568Z</time></trkpt><trkpt lat="39.5328433" lon="8.5195483"><ele>156.0</ele><time>2026-05-01T13:56:28.507Z</time></trkpt><trkpt lat="39.5328083" lon="8.5194033"><ele>156.0</ele><time>2026-05-01T13:56:30.511Z</time></trkpt><trkpt lat="39.5327783" lon="8.5192417"><ele>156.8</ele><time>2026-05-01T13:56:32.539Z</time></trkpt><trkpt lat="39.5327683" lon="8.51916"><ele>157.6</ele><time>2026-05-01T13:56:33.512Z</time></trkpt><trkpt lat="39.53276" lon="8.519015"><ele>158.4</ele><time>2026-05-01T13:56:35.509Z</time></trkpt><trkpt lat="39.5327583" lon="8.518895"><ele>159.2</ele><time>2026-05-01T13:56:37.507Z</time></trkpt><trkpt lat="39.5328" lon="8.5187667"><ele>160.0</ele><time>2026-05-01T13:56:39.507Z</time></trkpt><trkpt lat="39.5328667" lon="8.51867"><ele>159.0</ele><time>2026-05-01T13:56:41.513Z</time></trkpt><trkpt lat="39.5329183" lon="8.5186017"><ele>158.0</ele><time>2026-05-01T13:56:43.51Z</time></trkpt><trkpt lat="39.5329683" lon="8.51855"><ele>157.0</ele><time>2026-05-01T13:56:45.512Z</time></trkpt><trkpt lat="39.53301" lon="8.518475"><ele>156.0</ele><time>2026-05-01T13:56:49.513Z</time></trkpt><trkpt lat="39.5330433" lon="8.5183867"><ele>155.0</ele><time>2026-05-01T13:56:51.507Z</time></trkpt><trkpt lat="39.5330867" lon="8.5182767"><ele>154.0</ele><time>2026-05-01T13:56:53.508Z</time></trkpt><trkpt lat="39.5331133" lon="8.518185"><ele>154.0</ele><time>2026-05-01T13:56:55.512Z</time></trkpt><trkpt lat="39.5331183" lon="8.5181"><ele>154.0</ele><time>2026-05-01T13:56:58.512Z</time></trkpt><trkpt lat="39.533065" lon="8.51799"><ele>154.0</ele><time>2026-05-01T14:15:30.504Z</time></trkpt><trkpt lat="39.5330333" lon="8.5178667"><ele>154.0</ele><time>2026-05-01T14:15:34.506Z</time></trkpt><trkpt lat="39.5330083" lon="8.5177717"><ele>154.0</ele><time>2026-05-01T14:15:37.506Z</time></trkpt><trkpt lat="39.5330083" lon="8.5176717"><ele>154.0</ele><time>2026-05-01T14:15:40.507Z</time></trkpt><trkpt lat="39.533065" lon="8.5176067"><ele>152.4</ele><time>2026-05-01T14:15:52.509Z</time></trkpt><trkpt lat="39.533225" lon="8.5175867"><ele>150.8</ele><time>2026-05-01T14:15:56.531Z</time></trkpt><trkpt lat="39.5333167" lon="8.51759"><ele>149.2</ele><time>2026-05-01T14:15:58.507Z</time></trkpt><trkpt lat="39.5334" lon="8.51761"><ele>147.6</ele><time>2026-05-01T14:16:00.505Z</time></trkpt><trkpt lat="39.5334933" lon="8.5175867"><ele>146.0</ele><time>2026-05-01T14:16:02.569Z</time></trkpt><trkpt lat="39.5335567" lon="8.517565"><ele>146.0</ele><time>2026-05-01T14:16:04.51Z</time></trkpt><trkpt lat="39.5335883" lon="8.5174833"><ele>146.0</ele><time>2026-05-01T14:16:06.506Z</time></trkpt><trkpt lat="39.5336033" lon="8.51736"><ele>146.0</ele><time>2026-05-01T14:16:08.533Z</time></trkpt><trkpt lat="39.5336167" lon="8.51721"><ele>146.0</ele><time>2026-05-01T14:16:10.509Z</time></trkpt><trkpt lat="39.5336433" lon="8.5170833"><ele>146.0</ele><time>2026-05-01T14:16:12.507Z</time></trkpt><trkpt lat="39.5336667" lon="8.5169667"><ele>146.33333333333331</ele><time>2026-05-01T14:16:14.533Z</time></trkpt><trkpt lat="39.5336867" lon="8.5168433"><ele>146.66666666666666</ele><time>2026-05-01T14:16:16.508Z</time></trkpt><trkpt lat="39.5337083" lon="8.5167167"><ele>147.0</ele><time>2026-05-01T14:16:18.509Z</time></trkpt><trkpt lat="39.5337267" lon="8.5166367"><ele>147.33333333333334</ele><time>2026-05-01T14:16:19.508Z</time></trkpt><trkpt lat="39.5337467" lon="8.5165467"><ele>147.66666666666669</ele><time>2026-05-01T14:16:20.531Z</time></trkpt><trkpt lat="39.5337633" lon="8.5164517"><ele>148.0</ele><time>2026-05-01T14:16:21.509Z</time></trkpt><trkpt lat="39.533785" lon="8.5163533"><ele>148.71428571428572</ele><time>2026-05-01T14:16:22.51Z</time></trkpt><trkpt lat="39.5338033" lon="8.5162633"><ele>149.42857142857142</ele><time>2026-05-01T14:16:23.511Z</time></trkpt><trkpt lat="39.533825" lon="8.516175"><ele>150.14285714285714</ele><time>2026-05-01T14:16:24.506Z</time></trkpt><trkpt lat="39.53385" lon="8.516095"><ele>150.85714285714286</ele><time>2026-05-01T14:16:25.507Z</time></trkpt><trkpt lat="39.5338833" lon="8.5160183"><ele>151.57142857142858</ele><time>2026-05-01T14:16:26.574Z</time></trkpt><trkpt lat="39.533925" lon="8.5159333"><ele>152.28571428571428</ele><time>2026-05-01T14:16:27.512Z</time></trkpt><trkpt lat="39.5339667" lon="8.515855"><ele>153.0</ele><time>2026-05-01T14:16:28.508Z</time></trkpt><trkpt lat="39.534005" lon="8.5157783"><ele>151.0</ele><time>2026-05-01T14:16:29.509Z</time></trkpt><trkpt lat="39.534085" lon="8.5156533"><ele>149.0</ele><time>2026-05-01T14:16:31.509Z</time></trkpt><trkpt lat="39.5341717" lon="8.5155467"><ele>147.0</ele><time>2026-05-01T14:16:33.505Z</time></trkpt><trkpt lat="39.5342617" lon="8.5154733"><ele>145.0</ele><time>2026-05-01T14:16:35.505Z</time></trkpt><trkpt lat="39.5343367" lon="8.5154317"><ele>143.0</ele><time>2026-05-01T14:16:37.508Z</time></trkpt><trkpt lat="39.534405" lon="8.515385"><ele>142.99999999999997</ele><time>2026-05-01T14:16:40.505Z</time></trkpt><trkpt lat="39.53446" lon="8.515335"><ele>143.0</ele><time>2026-05-01T14:16:43.507Z</time></trkpt><trkpt lat="39.53454" lon="8.5152867"><ele>143.0</ele><time>2026-05-01T14:16:46.508Z</time></trkpt><trkpt lat="39.5346083" lon="8.515265"><ele>143.0</ele><time>2026-05-01T14:16:49.509Z</time></trkpt><trkpt lat="39.534665" lon="8.51518"><ele>143.0</ele><time>2026-05-01T14:17:27.509Z</time></trkpt><trkpt lat="39.53472" lon="8.51514"><ele>142.99999999999997</ele><time>2026-05-01T14:17:30.514Z</time></trkpt><trkpt lat="39.5347483" lon="8.5150667"><ele>143.0</ele><time>2026-05-01T14:17:33.507Z</time></trkpt><trkpt lat="39.534745" lon="8.514955"><ele>142.16666666666666</ele><time>2026-05-01T14:17:36.507Z</time></trkpt><trkpt lat="39.5347217" lon="8.514855"><ele>141.33333333333331</ele><time>2026-05-01T14:17:39.508Z</time></trkpt><trkpt lat="39.5346883" lon="8.51478"><ele>140.5</ele><time>2026-05-01T14:17:41.505Z</time></trkpt><trkpt lat="39.5346433" lon="8.5146783"><ele>139.66666666666666</ele><time>2026-05-01T14:17:44.534Z</time></trkpt><trkpt lat="39.53464" lon="8.514585"><ele>138.83333333333334</ele><time>2026-05-01T14:17:46.508Z</time></trkpt><trkpt lat="39.5346967" lon="8.5144567"><ele>138.0</ele><time>2026-05-01T14:17:48.508Z</time></trkpt><trkpt lat="39.53474" lon="8.514395"><ele>137.16666666666666</ele><time>2026-05-01T14:17:49.508Z</time></trkpt><trkpt lat="39.53479" lon="8.5143383"><ele>136.33333333333334</ele><time>2026-05-01T14:17:50.53Z</time></trkpt><trkpt lat="39.5348467" lon="8.5142867"><ele>135.5</ele><time>2026-05-01T14:17:51.505Z</time></trkpt><trkpt lat="39.5349" lon="8.51424"><ele>134.66666666666669</ele><time>2026-05-01T14:17:52.508Z</time></trkpt><trkpt lat="39.5349767" lon="8.514125"><ele>133.83333333333334</ele><time>2026-05-01T14:17:54.507Z</time></trkpt><trkpt lat="39.53504" lon="8.5140017"><ele>133.0</ele><time>2026-05-01T14:17:56.574Z</time></trkpt><trkpt lat="39.5350767" lon="8.51393"><ele>133.0</ele><time>2026-05-01T14:17:57.504Z</time></trkpt><trkpt lat="39.5351167" lon="8.513865"><ele>133.0</ele><time>2026-05-01T14:17:58.508Z</time></trkpt><trkpt lat="39.5351517" lon="8.5137967"><ele>133.0</ele><time>2026-05-01T14:17:59.505Z</time></trkpt><trkpt lat="39.5352017" lon="8.5136817"><ele>133.0</ele><time>2026-05-01T14:18:01.508Z</time></trkpt><trkpt lat="39.5352417" lon="8.51359"><ele>133.0</ele><time>2026-05-01T14:18:03.51Z</time></trkpt><trkpt lat="39.5352917" lon="8.5134767"><ele>133.0</ele><time>2026-05-01T14:18:05.509Z</time></trkpt><trkpt lat="39.5353467" lon="8.5133667"><ele>132.20000000000002</ele><time>2026-05-01T14:18:07.509Z</time></trkpt><trkpt lat="39.535405" lon="8.513265"><ele>131.4</ele><time>2026-05-01T14:18:09.506Z</time></trkpt><trkpt lat="39.5354733" lon="8.5131567"><ele>130.60000000000002</ele><time>2026-05-01T14:18:11.508Z</time></trkpt><trkpt lat="39.5355267" lon="8.5130417"><ele>129.8</ele><time>2026-05-01T14:18:13.506Z</time></trkpt><trkpt lat="39.5355533" lon="8.5129233"><ele>129.0</ele><time>2026-05-01T14:18:15.51Z</time></trkpt><trkpt lat="39.5355633" lon="8.51282"><ele>129.0</ele><time>2026-05-01T14:18:17.506Z</time></trkpt><trkpt lat="39.5355883" lon="8.5127367"><ele>129.0</ele><time>2026-05-01T14:18:19.51Z</time></trkpt><trkpt lat="39.535635" lon="8.51264"><ele>129.0</ele><time>2026-05-01T14:18:21.508Z</time></trkpt><trkpt lat="39.5356783" lon="8.5125367"><ele>129.0</ele><time>2026-05-01T14:18:23.506Z</time></trkpt><trkpt lat="39.535715" lon="8.5124367"><ele>129.0</ele><time>2026-05-01T14:18:25.507Z</time></trkpt><trkpt lat="39.5357583" lon="8.5123617"><ele>129.0</ele><time>2026-05-01T14:18:27.507Z</time></trkpt><trkpt lat="39.5358133" lon="8.512305"><ele>129.0</ele><time>2026-05-01T14:18:29.508Z</time></trkpt><trkpt lat="39.5358833" lon="8.5122667"><ele>129.0</ele><time>2026-05-01T14:18:31.507Z</time></trkpt><trkpt lat="39.535965" lon="8.5122483"><ele>129.0</ele><time>2026-05-01T14:18:33.505Z</time></trkpt><trkpt lat="39.53604" lon="8.5122217"><ele>129.0</ele><time>2026-05-01T14:18:35.507Z</time></trkpt><trkpt lat="39.5361283" lon="8.5122167"><ele>129.0</ele><time>2026-05-01T14:18:38.531Z</time></trkpt><trkpt lat="39.5362117" lon="8.5122383"><ele>129.0</ele><time>2026-05-01T14:18:41.51Z</time></trkpt><trkpt lat="39.5362967" lon="8.5122617"><ele>129.16666666666666</ele><time>2026-05-01T14:18:44.53Z</time></trkpt><trkpt lat="39.5363617" lon="8.5122617"><ele>129.33333333333334</ele><time>2026-05-01T14:18:46.508Z</time></trkpt><trkpt lat="39.5364367" lon="8.5122633"><ele>129.5</ele><time>2026-05-01T14:18:48.508Z</time></trkpt><trkpt lat="39.5365167" lon="8.5122783"><ele>129.66666666666669</ele><time>2026-05-01T14:18:50.532Z</time></trkpt><trkpt lat="39.5366133" lon="8.5122417"><ele>129.83333333333334</ele><time>2026-05-01T14:18:52.506Z</time></trkpt><trkpt lat="39.5366933" lon="8.5121733"><ele>130.0</ele><time>2026-05-01T14:18:54.507Z</time></trkpt><trkpt lat="39.5367233" lon="8.5120733"><ele>129.4</ele><time>2026-05-01T14:18:57.508Z</time></trkpt><trkpt lat="39.5367433" lon="8.5119867"><ele>128.8</ele><time>2026-05-01T14:18:59.508Z</time></trkpt><trkpt lat="39.53679" lon="8.511815"><ele>128.2</ele><time>2026-05-01T14:19:17.508Z</time></trkpt><trkpt lat="39.5368733" lon="8.5117383"><ele>127.6</ele><time>2026-05-01T14:19:22.51Z</time></trkpt><trkpt lat="39.5369533" lon="8.5116567"><ele>127.0</ele><time>2026-05-01T14:19:33.504Z</time></trkpt><trkpt lat="39.5370033" lon="8.5115683"><ele>127.00000000000001</ele><time>2026-05-01T14:19:35.508Z</time></trkpt><trkpt lat="39.5370233" lon="8.511435"><ele>127.0</ele><time>2026-05-01T14:19:37.509Z</time></trkpt><trkpt lat="39.53703" lon="8.5113533"><ele>127.0</ele><time>2026-05-01T14:19:38.531Z</time></trkpt><trkpt lat="39.5370333" lon="8.51127"><ele>127.0</ele><time>2026-05-01T14:19:39.508Z</time></trkpt><trkpt lat="39.5370333" lon="8.5111867"><ele>127.00000000000001</ele><time>2026-05-01T14:19:40.508Z</time></trkpt><trkpt lat="39.5370417" lon="8.5110783"><ele>127.0</ele><time>2026-05-01T14:19:41.508Z</time></trkpt><trkpt lat="39.5370617" lon="8.510965"><ele>126.16666666666667</ele><time>2026-05-01T14:19:42.507Z</time></trkpt><trkpt lat="39.537085" lon="8.5108483"><ele>125.33333333333334</ele><time>2026-05-01T14:19:43.505Z</time></trkpt><trkpt lat="39.53711" lon="8.51073"><ele>124.5</ele><time>2026-05-01T14:19:44.535Z</time></trkpt><trkpt lat="39.5371483" lon="8.510615"><ele>123.66666666666666</ele><time>2026-05-01T14:19:45.506Z</time></trkpt><trkpt lat="39.5371833" lon="8.5105117"><ele>122.83333333333333</ele><time>2026-05-01T14:19:46.505Z</time></trkpt><trkpt lat="39.5372133" lon="8.5104267"><ele>122.0</ele><time>2026-05-01T14:19:47.506Z</time></trkpt><trkpt lat="39.53724" lon="8.51035"><ele>121.99999999999999</ele><time>2026-05-01T14:19:48.508Z</time></trkpt><trkpt lat="39.53731" lon="8.5102133"><ele>122.0</ele><time>2026-05-01T14:19:50.534Z</time></trkpt><trkpt lat="39.5373483" lon="8.5101483"><ele>122.0</ele><time>2026-05-01T14:19:51.508Z</time></trkpt><trkpt lat="39.5373883" lon="8.51008"><ele>122.0</ele><time>2026-05-01T14:19:52.509Z</time></trkpt><trkpt lat="39.5374317" lon="8.5100067"><ele>121.99999999999999</ele><time>2026-05-01T14:19:53.505Z</time></trkpt><trkpt lat="39.5374733" lon="8.5099317"><ele>122.0</ele><time>2026-05-01T14:19:54.508Z</time></trkpt><trkpt lat="39.5375183" lon="8.5098567"><ele>122.0</ele><time>2026-05-01T14:19:55.508Z</time></trkpt><trkpt lat="39.537555" lon="8.5097817"><ele>121.99999999999999</ele><time>2026-05-01T14:19:56.575Z</time></trkpt><trkpt lat="39.53763" lon="8.5096567"><ele>121.99999999999999</ele><time>2026-05-01T14:19:58.506Z</time></trkpt><trkpt lat="39.5376983" lon="8.5095883"><ele>122.0</ele><time>2026-05-01T14:20:00.508Z</time></trkpt><trkpt lat="39.5377533" lon="8.5095067"><ele>122.0</ele><time>2026-05-01T14:20:02.572Z</time></trkpt><trkpt lat="39.5378217" lon="8.5093967"><ele>120.33333333333333</ele><time>2026-05-01T14:20:04.507Z</time></trkpt><trkpt lat="39.537895" lon="8.5092683"><ele>118.66666666666666</ele><time>2026-05-01T14:20:06.506Z</time></trkpt><trkpt lat="39.537925" lon="8.509195"><ele>117.0</ele><time>2026-05-01T14:20:07.508Z</time></trkpt><trkpt lat="39.5379567" lon="8.50912"><ele>115.33333333333334</ele><time>2026-05-01T14:20:08.532Z</time></trkpt><trkpt lat="39.5379867" lon="8.5090433"><ele>113.66666666666667</ele><time>2026-05-01T14:20:09.508Z</time></trkpt><trkpt lat="39.53801" lon="8.508965"><ele>112.0</ele><time>2026-05-01T14:20:10.506Z</time></trkpt><trkpt lat="39.53803" lon="8.5088817"><ele>112.00000000000001</ele><time>2026-05-01T14:20:11.506Z</time></trkpt><trkpt lat="39.53804" lon="8.508795"><ele>112.0</ele><time>2026-05-01T14:20:12.508Z</time></trkpt><trkpt lat="39.5380483" lon="8.508705"><ele>112.0</ele><time>2026-05-01T14:20:13.504Z</time></trkpt><trkpt lat="39.5380583" lon="8.508615"><ele>112.0</ele><time>2026-05-01T14:20:14.532Z</time></trkpt><trkpt lat="39.5380717" lon="8.5085333"><ele>112.00000000000001</ele><time>2026-05-01T14:20:15.506Z</time></trkpt><trkpt lat="39.5381083" lon="8.5083817"><ele>112.0</ele><time>2026-05-01T14:20:17.511Z</time></trkpt><trkpt lat="39.53813" lon="8.508305"><ele>111.8</ele><time>2026-05-01T14:20:18.507Z</time></trkpt><trkpt lat="39.53816" lon="8.5081467"><ele>111.6</ele><time>2026-05-01T14:20:20.532Z</time></trkpt><trkpt lat="39.53819" lon="8.5080033"><ele>111.39999999999999</ele><time>2026-05-01T14:20:22.506Z</time></trkpt><trkpt lat="39.5381983" lon="8.5078867"><ele>111.19999999999999</ele><time>2026-05-01T14:20:24.506Z</time></trkpt><trkpt lat="39.5382117" lon="8.507785"><ele>111.0</ele><time>2026-05-01T14:20:26.573Z</time></trkpt><trkpt lat="39.5382367" lon="8.5076783"><ele>110.6</ele><time>2026-05-01T14:20:28.507Z</time></trkpt><trkpt lat="39.5382517" lon="8.5075617"><ele>110.19999999999999</ele><time>2026-05-01T14:20:30.505Z</time></trkpt><trkpt lat="39.5382567" lon="8.5074133"><ele>109.80000000000001</ele><time>2026-05-01T14:20:32.565Z</time></trkpt><trkpt lat="39.5382517" lon="8.5073033"><ele>109.4</ele><time>2026-05-01T14:20:34.509Z</time></trkpt><trkpt lat="39.538225" lon="8.507205"><ele>109.0</ele><time>2026-05-01T14:20:36.507Z</time></trkpt><trkpt lat="39.538175" lon="8.50712"><ele>108.83333333333334</ele><time>2026-05-01T14:20:38.531Z</time></trkpt><trkpt lat="39.5381083" lon="8.5070217"><ele>108.66666666666667</ele><time>2026-05-01T14:20:40.505Z</time></trkpt><trkpt lat="39.5380233" lon="8.506905"><ele>108.5</ele><time>2026-05-01T14:20:42.506Z</time></trkpt><trkpt lat="39.53798" lon="8.506845"><ele>108.33333333333334</ele><time>2026-05-01T14:20:43.51Z</time></trkpt><trkpt lat="39.537925" lon="8.5067917"><ele>108.16666666666667</ele><time>2026-05-01T14:20:44.53Z</time></trkpt><trkpt lat="39.5378667" lon="8.5067433"><ele>108.0</ele><time>2026-05-01T14:20:45.509Z</time></trkpt><trkpt lat="39.53781" lon="8.5066983"><ele>108.0</ele><time>2026-05-01T14:20:46.508Z</time></trkpt><trkpt lat="39.5377133" lon="8.5066283"><ele>108.00000000000001</ele><time>2026-05-01T14:20:48.504Z</time></trkpt><trkpt lat="39.53763" lon="8.5065667"><ele>108.00000000000001</ele><time>2026-05-01T14:20:50.535Z</time></trkpt><trkpt lat="39.537535" lon="8.5065083"><ele>108.0</ele><time>2026-05-01T14:20:52.507Z</time></trkpt><trkpt lat="39.53742" lon="8.50647"><ele>108.0</ele><time>2026-05-01T14:20:54.507Z</time></trkpt><trkpt lat="39.5373133" lon="8.5064383"><ele>108.0</ele><time>2026-05-01T14:20:56.572Z</time></trkpt><trkpt lat="39.5372383" lon="8.5063867"><ele>108.0</ele><time>2026-05-01T14:20:58.508Z</time></trkpt><trkpt lat="39.5371867" lon="8.5062933"><ele>108.0</ele><time>2026-05-01T14:21:00.508Z</time></trkpt><trkpt lat="39.5371733" lon="8.50615"><ele>108.0</ele><time>2026-05-01T14:21:02.569Z</time></trkpt><trkpt lat="39.53718" lon="8.5060683"><ele>108.0</ele><time>2026-05-01T14:21:03.504Z</time></trkpt><trkpt lat="39.53719" lon="8.5059733"><ele>108.0</ele><time>2026-05-01T14:21:04.506Z</time></trkpt><trkpt lat="39.5372" lon="8.5058633"><ele>106.4</ele><time>2026-05-01T14:21:05.505Z</time></trkpt><trkpt lat="39.5372083" lon="8.50575"><ele>104.80000000000001</ele><time>2026-05-01T14:21:06.505Z</time></trkpt><trkpt lat="39.53721" lon="8.5056283"><ele>103.2</ele><time>2026-05-01T14:21:07.507Z</time></trkpt><trkpt lat="39.537215" lon="8.5055083"><ele>101.6</ele><time>2026-05-01T14:21:08.53Z</time></trkpt><trkpt lat="39.5372267" lon="8.50539"><ele>100.0</ele><time>2026-05-01T14:21:09.506Z</time></trkpt><trkpt lat="39.53724" lon="8.5052817"><ele>99.4</ele><time>2026-05-01T14:21:10.508Z</time></trkpt><trkpt lat="39.5372767" lon="8.505175"><ele>98.8</ele><time>2026-05-01T14:21:11.504Z</time></trkpt><trkpt lat="39.5373267" lon="8.5050667"><ele>98.19999999999999</ele><time>2026-05-01T14:21:12.506Z</time></trkpt><trkpt lat="39.53738" lon="8.5049633"><ele>97.6</ele><time>2026-05-01T14:21:13.508Z</time></trkpt><trkpt lat="39.5374317" lon="8.5048583"><ele>97.0</ele><time>2026-05-01T14:21:14.531Z</time></trkpt><trkpt lat="39.5374767" lon="8.504755"><ele>97.00000000000001</ele><time>2026-05-01T14:21:15.506Z</time></trkpt><trkpt lat="39.5375167" lon="8.5046467"><ele>97.0</ele><time>2026-05-01T14:21:16.507Z</time></trkpt><trkpt lat="39.537545" lon="8.5045433"><ele>97.0</ele><time>2026-05-01T14:21:17.511Z</time></trkpt><trkpt lat="39.5375667" lon="8.5044433"><ele>97.0</ele><time>2026-05-01T14:21:18.508Z</time></trkpt><trkpt lat="39.53758" lon="8.5043417"><ele>97.00000000000001</ele><time>2026-05-01T14:21:19.51Z</time></trkpt><trkpt lat="39.5375817" lon="8.50424"><ele>97.0</ele><time>2026-05-01T14:21:20.53Z</time></trkpt><trkpt lat="39.5375767" lon="8.504135"><ele>97.0</ele><time>2026-05-01T14:21:21.509Z</time></trkpt><trkpt lat="39.5375633" lon="8.50402"><ele>97.0</ele><time>2026-05-01T14:21:22.508Z</time></trkpt><trkpt lat="39.5375467" lon="8.5039017"><ele>97.0</ele><time>2026-05-01T14:21:23.504Z</time></trkpt><trkpt lat="39.537525" lon="8.5037883"><ele>97.0</ele><time>2026-05-01T14:21:24.509Z</time></trkpt><trkpt lat="39.5375133" lon="8.5036517"><ele>97.0</ele><time>2026-05-01T14:21:25.508Z</time></trkpt><trkpt lat="39.537475" lon="8.5035367"><ele>97.0</ele><time>2026-05-01T14:21:26.572Z</time></trkpt><trkpt lat="39.537445" lon="8.5034217"><ele>97.0</ele><time>2026-05-01T14:21:27.509Z</time></trkpt><trkpt lat="39.5374117" lon="8.5033167"><ele>97.0</ele><time>2026-05-01T14:21:28.507Z</time></trkpt><trkpt lat="39.5373817" lon="8.50322"><ele>97.0</ele><time>2026-05-01T14:21:29.508Z</time></trkpt><trkpt lat="39.537355" lon="8.503125"><ele>97.0</ele><time>2026-05-01T14:21:30.508Z</time></trkpt><trkpt lat="39.5373117" lon="8.5029883"><ele>97.0</ele><time>2026-05-01T14:21:32.568Z</time></trkpt><trkpt lat="39.53727" lon="8.5028683"><ele>97.0</ele><time>2026-05-01T14:21:34.509Z</time></trkpt><trkpt lat="39.5372433" lon="8.502745"><ele>97.0</ele><time>2026-05-01T14:21:36.506Z</time></trkpt><trkpt lat="39.53722" lon="8.5026467"><ele>97.0</ele><time>2026-05-01T14:21:39.507Z</time></trkpt><trkpt lat="39.537215" lon="8.50252"><ele>97.0</ele><time>2026-05-01T14:22:37.507Z</time></trkpt><trkpt lat="39.5371933" lon="8.502365"><ele>97.00000000000001</ele><time>2026-05-01T14:22:39.507Z</time></trkpt><trkpt lat="39.5371717" lon="8.502285"><ele>97.0</ele><time>2026-05-01T14:22:40.509Z</time></trkpt><trkpt lat="39.5371533" lon="8.502205"><ele>97.0</ele><time>2026-05-01T14:22:41.504Z</time></trkpt><trkpt lat="39.5371217" lon="8.50212"><ele>97.0</ele><time>2026-05-01T14:22:42.506Z</time></trkpt><trkpt lat="39.5370933" lon="8.50204"><ele>97.00000000000001</ele><time>2026-05-01T14:22:43.508Z</time></trkpt><trkpt lat="39.5370567" lon="8.501865"><ele>97.0</ele><time>2026-05-01T14:22:45.507Z</time></trkpt><trkpt lat="39.5370533" lon="8.5017567"><ele>97.00000000000001</ele><time>2026-05-01T14:22:46.505Z</time></trkpt><trkpt lat="39.5370667" lon="8.5016633"><ele>97.0</ele><time>2026-05-01T14:22:47.504Z</time></trkpt><trkpt lat="39.5370867" lon="8.5015683"><ele>97.0</ele><time>2026-05-01T14:22:48.507Z</time></trkpt><trkpt lat="39.5371217" lon="8.5014617"><ele>97.0</ele><time>2026-05-01T14:22:49.508Z</time></trkpt><trkpt lat="39.5371567" lon="8.5013583"><ele>97.00000000000001</ele><time>2026-05-01T14:22:50.529Z</time></trkpt><trkpt lat="39.53719" lon="8.501255"><ele>97.0</ele><time>2026-05-01T14:22:51.506Z</time></trkpt><trkpt lat="39.537225" lon="8.5011617"><ele>97.00000000000001</ele><time>2026-05-01T14:22:52.505Z</time></trkpt><trkpt lat="39.5372633" lon="8.5010883"><ele>97.0</ele><time>2026-05-01T14:22:53.508Z</time></trkpt><trkpt lat="39.5373117" lon="8.50102"><ele>97.0</ele><time>2026-05-01T14:22:54.515Z</time></trkpt><trkpt lat="39.537365" lon="8.5009517"><ele>97.0</ele><time>2026-05-01T14:22:55.51Z</time></trkpt><trkpt lat="39.53743" lon="8.500875"><ele>97.00000000000001</ele><time>2026-05-01T14:22:56.561Z</time></trkpt><trkpt lat="39.5375" lon="8.5007967"><ele>97.0</ele><time>2026-05-01T14:22:57.504Z</time></trkpt><trkpt lat="39.5375733" lon="8.500725"><ele>97.00000000000001</ele><time>2026-05-01T14:22:58.505Z</time></trkpt><trkpt lat="39.5376433" lon="8.50066"><ele>97.0</ele><time>2026-05-01T14:22:59.505Z</time></trkpt><trkpt lat="39.53772" lon="8.50061"><ele>97.0</ele><time>2026-05-01T14:23:00.504Z</time></trkpt><trkpt lat="39.537795" lon="8.50056"><ele>97.0</ele><time>2026-05-01T14:23:01.507Z</time></trkpt><trkpt lat="39.5378667" lon="8.50051"><ele>97.00000000000001</ele><time>2026-05-01T14:23:02.559Z</time></trkpt><trkpt lat="39.5379333" lon="8.5004617"><ele>97.0</ele><time>2026-05-01T14:23:03.507Z</time></trkpt><trkpt lat="39.53799" lon="8.5004117"><ele>97.14285714285714</ele><time>2026-05-01T14:23:04.503Z</time></trkpt><trkpt lat="39.53804" lon="8.5003533"><ele>97.28571428571429</ele><time>2026-05-01T14:23:05.504Z</time></trkpt><trkpt lat="39.5380867" lon="8.5002967"><ele>97.42857142857143</ele><time>2026-05-01T14:23:06.508Z</time></trkpt><trkpt lat="39.5381417" lon="8.5002333"><ele>97.57142857142857</ele><time>2026-05-01T14:23:07.508Z</time></trkpt><trkpt lat="39.5381917" lon="8.5001717"><ele>97.71428571428572</ele><time>2026-05-01T14:23:08.532Z</time></trkpt><trkpt lat="39.5382367" lon="8.5001033"><ele>97.85714285714286</ele><time>2026-05-01T14:23:09.511Z</time></trkpt><trkpt lat="39.53828" lon="8.5000283"><ele>98.0</ele><time>2026-05-01T14:23:10.507Z</time></trkpt><trkpt lat="39.5383233" lon="8.4999433"><ele>98.0</ele><time>2026-05-01T14:23:11.505Z</time></trkpt><trkpt lat="39.5383633" lon="8.499845"><ele>98.0</ele><time>2026-05-01T14:23:12.508Z</time></trkpt><trkpt lat="39.5384017" lon="8.4997367"><ele>98.0</ele><time>2026-05-01T14:23:13.506Z</time></trkpt><trkpt lat="39.53843" lon="8.49961"><ele>98.0</ele><time>2026-05-01T14:23:14.531Z</time></trkpt><trkpt lat="39.5384633" lon="8.4994917"><ele>98.0</ele><time>2026-05-01T14:23:15.508Z</time></trkpt><trkpt lat="39.5385" lon="8.4993833"><ele>97.49999999999999</ele><time>2026-05-01T14:23:16.505Z</time></trkpt><trkpt lat="39.5385333" lon="8.49928"><ele>97.0</ele><time>2026-05-01T14:23:17.515Z</time></trkpt><trkpt lat="39.53857" lon="8.499195"><ele>96.5</ele><time>2026-05-01T14:23:18.506Z</time></trkpt><trkpt lat="39.5386" lon="8.4990967"><ele>96.0</ele><time>2026-05-01T14:23:19.506Z</time></trkpt><trkpt lat="39.5386233" lon="8.4989917"><ele>95.5</ele><time>2026-05-01T14:23:20.537Z</time></trkpt><trkpt lat="39.5386433" lon="8.4988817"><ele>95.0</ele><time>2026-05-01T14:23:21.506Z</time></trkpt><trkpt lat="39.5386617" lon="8.4987767"><ele>94.33333333333334</ele><time>2026-05-01T14:23:22.506Z</time></trkpt><trkpt lat="39.5386567" lon="8.498675"><ele>93.66666666666667</ele><time>2026-05-01T14:23:23.503Z</time></trkpt><trkpt lat="39.5386533" lon="8.4985817"><ele>93.0</ele><time>2026-05-01T14:23:24.506Z</time></trkpt><trkpt lat="39.5386467" lon="8.498485"><ele>92.33333333333333</ele><time>2026-05-01T14:23:25.506Z</time></trkpt><trkpt lat="39.5386283" lon="8.498405"><ele>91.66666666666666</ele><time>2026-05-01T14:23:26.56Z</time></trkpt><trkpt lat="39.538575" lon="8.4982967"><ele>91.0</ele><time>2026-05-01T14:23:28.503Z</time></trkpt><trkpt lat="39.538505" lon="8.498255"><ele>91.0</ele><time>2026-05-01T14:23:30.506Z</time></trkpt><trkpt lat="39.5384117" lon="8.498205"><ele>91.0</ele><time>2026-05-01T14:23:32.559Z</time></trkpt><trkpt lat="39.538255" lon="8.4982017"><ele>91.0</ele><time>2026-05-01T14:23:34.505Z</time></trkpt><trkpt lat="39.5381317" lon="8.4982233"><ele>91.0</ele><time>2026-05-01T14:23:36.506Z</time></trkpt><trkpt lat="39.5380567" lon="8.4982267"><ele>91.0</ele><time>2026-05-01T14:23:38.531Z</time></trkpt><trkpt lat="39.537955" lon="8.49821"><ele>91.0</ele><time>2026-05-01T14:23:46.503Z</time></trkpt><trkpt lat="39.5379" lon="8.4981467"><ele>91.0</ele><time>2026-05-01T14:23:48.506Z</time></trkpt><trkpt lat="39.537845" lon="8.4980767"><ele>91.0</ele><time>2026-05-01T14:23:50.532Z</time></trkpt><trkpt lat="39.537805" lon="8.4980133"><ele>91.0</ele><time>2026-05-01T14:23:52.507Z</time></trkpt><trkpt lat="39.5377617" lon="8.4979433"><ele>91.0</ele><time>2026-05-01T14:23:54.505Z</time></trkpt><trkpt lat="39.5377567" lon="8.49782"><ele>90.6</ele><time>2026-05-01T14:23:56.561Z</time></trkpt><trkpt lat="39.5377867" lon="8.4976983"><ele>90.19999999999999</ele><time>2026-05-01T14:23:58.508Z</time></trkpt><trkpt lat="39.53785" lon="8.4975433"><ele>89.80000000000001</ele><time>2026-05-01T14:24:00.506Z</time></trkpt><trkpt lat="39.5378967" lon="8.4974567"><ele>89.4</ele><time>2026-05-01T14:24:01.507Z</time></trkpt><trkpt lat="39.5379567" lon="8.4973517"><ele>89.0</ele><time>2026-05-01T14:24:02.557Z</time></trkpt><trkpt lat="39.5380067" lon="8.4972633"><ele>89.0</ele><time>2026-05-01T14:24:03.507Z</time></trkpt><trkpt lat="39.5380583" lon="8.4971667"><ele>89.0</ele><time>2026-05-01T14:24:04.505Z</time></trkpt><trkpt lat="39.5381017" lon="8.49707"><ele>89.0</ele><time>2026-05-01T14:24:05.506Z</time></trkpt><trkpt lat="39.5381433" lon="8.4969667"><ele>89.0</ele><time>2026-05-01T14:24:06.508Z</time></trkpt><trkpt lat="39.53818" lon="8.4968567"><ele>89.0</ele><time>2026-05-01T14:24:07.508Z</time></trkpt><trkpt lat="39.53821" lon="8.4967533"><ele>89.0</ele><time>2026-05-01T14:24:08.528Z</time></trkpt><trkpt lat="39.5382267" lon="8.4966517"><ele>88.33333333333334</ele><time>2026-05-01T14:24:09.509Z</time></trkpt><trkpt lat="39.53823" lon="8.49655"><ele>87.66666666666667</ele><time>2026-05-01T14:24:10.503Z</time></trkpt><trkpt lat="39.5382233" lon="8.4964533"><ele>87.0</ele><time>2026-05-01T14:24:11.506Z</time></trkpt><trkpt lat="39.53821" lon="8.49636"><ele>86.33333333333333</ele><time>2026-05-01T14:24:12.504Z</time></trkpt><trkpt lat="39.53819" lon="8.4962767"><ele>85.66666666666666</ele><time>2026-05-01T14:24:13.509Z</time></trkpt><trkpt lat="39.5381583" lon="8.4961367"><ele>85.0</ele><time>2026-05-01T14:24:15.504Z</time></trkpt><trkpt lat="39.538145" lon="8.496045"><ele>83.6</ele><time>2026-05-01T14:24:17.506Z</time></trkpt><trkpt lat="39.5381217" lon="8.4959383"><ele>82.2</ele><time>2026-05-01T14:24:19.506Z</time></trkpt><trkpt lat="39.5381033" lon="8.495815"><ele>80.8</ele><time>2026-05-01T14:24:21.506Z</time></trkpt><trkpt lat="39.538095" lon="8.4956917"><ele>79.4</ele><time>2026-05-01T14:24:23.506Z</time></trkpt><trkpt lat="39.53816" lon="8.4955917"><ele>78.0</ele><time>2026-05-01T14:24:26.559Z</time></trkpt><trkpt lat="39.53824" lon="8.49553"><ele>78.0</ele><time>2026-05-01T14:24:28.505Z</time></trkpt><trkpt lat="39.5383183" lon="8.49547"><ele>78.0</ele><time>2026-05-01T14:24:30.506Z</time></trkpt><trkpt lat="39.538395" lon="8.4954433"><ele>78.0</ele><time>2026-05-01T14:24:32.562Z</time></trkpt><trkpt lat="39.53847" lon="8.4954167"><ele>78.0</ele><time>2026-05-01T14:24:34.505Z</time></trkpt><trkpt lat="39.53854" lon="8.4953633"><ele>78.0</ele><time>2026-05-01T14:24:36.504Z</time></trkpt><trkpt lat="39.5386133" lon="8.4952983"><ele>78.0</ele><time>2026-05-01T14:24:38.531Z</time></trkpt><trkpt lat="39.5386383" lon="8.4952233"><ele>77.6</ele><time>2026-05-01T14:24:40.507Z</time></trkpt><trkpt lat="39.53861" lon="8.49511"><ele>77.19999999999999</ele><time>2026-05-01T14:24:42.505Z</time></trkpt><trkpt lat="39.5385533" lon="8.494975"><ele>76.8</ele><time>2026-05-01T14:24:44.528Z</time></trkpt><trkpt lat="39.5384717" lon="8.4948717"><ele>76.39999999999999</ele><time>2026-05-01T14:24:46.505Z</time></trkpt><trkpt lat="39.5383933" lon="8.4947717"><ele>76.0</ele><time>2026-05-01T14:24:48.506Z</time></trkpt><trkpt lat="39.5383033" lon="8.4947233"><ele>76.0</ele><time>2026-05-01T14:24:50.529Z</time></trkpt><trkpt lat="39.5382283" lon="8.494705"><ele>76.0</ele><time>2026-05-01T14:24:52.506Z</time></trkpt><trkpt lat="39.5381767" lon="8.494635"><ele>76.0</ele><time>2026-05-01T14:24:54.504Z</time></trkpt><trkpt lat="39.53811" lon="8.4945667"><ele>76.0</ele><time>2026-05-01T14:24:56.572Z</time></trkpt><trkpt lat="39.5380467" lon="8.4944733"><ele>76.0</ele><time>2026-05-01T14:24:58.505Z</time></trkpt><trkpt lat="39.5380067" lon="8.494355"><ele>76.0</ele><time>2026-05-01T14:25:00.507Z</time></trkpt><trkpt lat="39.538" lon="8.4942217"><ele>77.4</ele><time>2026-05-01T14:25:02.56Z</time></trkpt><trkpt lat="39.5379767" lon="8.49411"><ele>78.8</ele><time>2026-05-01T14:25:04.51Z</time></trkpt><trkpt lat="39.5379267" lon="8.4939933"><ele>80.2</ele><time>2026-05-01T14:25:06.505Z</time></trkpt><trkpt lat="39.53787" lon="8.49385"><ele>81.60000000000001</ele><time>2026-05-01T14:25:08.531Z</time></trkpt><trkpt lat="39.53779" lon="8.493735"><ele>83.0</ele><time>2026-05-01T14:25:10.506Z</time></trkpt><trkpt lat="39.5377817" lon="8.4936433"><ele>83.0</ele><time>2026-05-01T14:25:11.502Z</time></trkpt><trkpt lat="39.5377717" lon="8.4935517"><ele>83.0</ele><time>2026-05-01T14:25:12.506Z</time></trkpt><trkpt lat="39.5377583" lon="8.49347"><ele>83.0</ele><time>2026-05-01T14:25:13.508Z</time></trkpt><trkpt lat="39.5377483" lon="8.4933417"><ele>83.0</ele><time>2026-05-01T14:25:15.506Z</time></trkpt><trkpt lat="39.5377283" lon="8.4932633"><ele>83.0</ele><time>2026-05-01T14:25:17.509Z</time></trkpt><trkpt lat="39.5377" lon="8.4931817"><ele>83.0</ele><time>2026-05-01T14:25:19.503Z</time></trkpt><trkpt lat="39.53772" lon="8.49299"><ele>82.0</ele><time>2026-05-01T14:25:31.506Z</time></trkpt><trkpt lat="39.5377533" lon="8.49284"><ele>81.0</ele><time>2026-05-01T14:25:33.505Z</time></trkpt><trkpt lat="39.537785" lon="8.4926833"><ele>80.0</ele><time>2026-05-01T14:25:35.507Z</time></trkpt><trkpt lat="39.5378133" lon="8.492535"><ele>79.0</ele><time>2026-05-01T14:25:37.508Z</time></trkpt><trkpt lat="39.53783" lon="8.49242"><ele>79.0</ele><time>2026-05-01T14:25:39.503Z</time></trkpt><trkpt lat="39.537835" lon="8.4923317"><ele>79.0</ele><time>2026-05-01T14:25:41.504Z</time></trkpt><trkpt lat="39.5378283" lon="8.4922317"><ele>79.0</ele><time>2026-05-01T14:25:44.529Z</time></trkpt><trkpt lat="39.5378183" lon="8.4921283"><ele>79.0</ele><time>2026-05-01T14:25:47.508Z</time></trkpt><trkpt lat="39.537795" lon="8.4920083"><ele>79.0</ele><time>2026-05-01T14:25:50.532Z</time></trkpt><trkpt lat="39.537775" lon="8.4919283"><ele>79.0</ele><time>2026-05-01T14:25:52.505Z</time></trkpt><trkpt lat="39.5377533" lon="8.49185"><ele>77.0</ele><time>2026-05-01T14:25:54.506Z</time></trkpt><trkpt lat="39.5377217" lon="8.491775"><ele>75.0</ele><time>2026-05-01T14:25:57.508Z</time></trkpt><trkpt lat="39.5378533" lon="8.4918133"><ele>73.0</ele><time>2026-05-01T14:27:10.503Z</time></trkpt><trkpt lat="39.5377983" lon="8.4917317"><ele>71.0</ele><time>2026-05-01T14:27:58.504Z</time></trkpt><trkpt lat="39.5378317" lon="8.4918233"><ele>69.0</ele><time>2026-05-01T14:29:22.506Z</time></trkpt><trkpt lat="39.5377867" lon="8.4917317"><ele>67.0</ele><time>2026-05-01T14:30:19.506Z</time></trkpt><trkpt lat="39.537755" lon="8.491605"><ele>67.0</ele><time>2026-05-01T14:30:39.502Z</time></trkpt><trkpt lat="39.53769" lon="8.4915733"><ele>67.0</ele><time>2026-05-01T14:30:41.508Z</time></trkpt><trkpt lat="39.53759" lon="8.4915167"><ele>67.0</ele><time>2026-05-01T14:30:43.509Z</time></trkpt><trkpt lat="39.5374783" lon="8.4914617"><ele>67.0</ele><time>2026-05-01T14:30:45.505Z</time></trkpt><trkpt lat="39.5373917" lon="8.4913783"><ele>67.0</ele><time>2026-05-01T14:30:47.507Z</time></trkpt><trkpt lat="39.53731" lon="8.4913067"><ele>67.0</ele><time>2026-05-01T14:30:49.505Z</time></trkpt><trkpt lat="39.53722" lon="8.4912267"><ele>67.0</ele><time>2026-05-01T14:30:51.506Z</time></trkpt><trkpt lat="39.5371483" lon="8.49116"><ele>67.0</ele><time>2026-05-01T14:30:53.508Z</time></trkpt><trkpt lat="39.5370717" lon="8.4911167"><ele>67.0</ele><time>2026-05-01T14:30:55.506Z</time></trkpt><trkpt lat="39.5370083" lon="8.4910833"><ele>67.0</ele><time>2026-05-01T14:30:57.503Z</time></trkpt><trkpt lat="39.53695" lon="8.4910067"><ele>67.0</ele><time>2026-05-01T14:31:00.502Z</time></trkpt><trkpt lat="39.536925" lon="8.4908967"><ele>67.0</ele><time>2026-05-01T14:31:03.508Z</time></trkpt><trkpt lat="39.5368817" lon="8.4908233"><ele>67.0</ele><time>2026-05-01T14:31:05.507Z</time></trkpt><trkpt lat="39.53684" lon="8.4907533"><ele>67.0</ele><time>2026-05-01T14:31:07.503Z</time></trkpt><trkpt lat="39.53678" lon="8.4906867"><ele>67.0</ele><time>2026-05-01T14:31:09.503Z</time></trkpt><trkpt lat="39.53672" lon="8.4905817"><ele>67.0</ele><time>2026-05-01T14:31:11.504Z</time></trkpt><trkpt lat="39.536665" lon="8.49048"><ele>67.0</ele><time>2026-05-01T14:31:13.504Z</time></trkpt><trkpt lat="39.536645" lon="8.490365"><ele>68.0</ele><time>2026-05-01T14:31:15.506Z</time></trkpt><trkpt lat="39.53667" lon="8.490245"><ele>69.0</ele><time>2026-05-01T14:31:18.508Z</time></trkpt><trkpt lat="39.5367483" lon="8.49018"><ele>70.0</ele><time>2026-05-01T14:31:20.529Z</time></trkpt><trkpt lat="39.5368417" lon="8.4901383"><ele>71.0</ele><time>2026-05-01T14:31:22.503Z</time></trkpt><trkpt lat="39.5369367" lon="8.4901067"><ele>72.0</ele><time>2026-05-01T14:31:24.505Z</time></trkpt><trkpt lat="39.5370333" lon="8.4901233"><ele>69.66666666666667</ele><time>2026-05-01T14:31:26.572Z</time></trkpt><trkpt lat="39.5370833" lon="8.49019"><ele>67.33333333333333</ele><time>2026-05-01T14:31:28.506Z</time></trkpt><trkpt lat="39.5371567" lon="8.4902317"><ele>65.0</ele><time>2026-05-01T14:31:30.504Z</time></trkpt><trkpt lat="39.5372433" lon="8.4902267"><ele>62.666666666666664</ele><time>2026-05-01T14:31:32.561Z</time></trkpt><trkpt lat="39.5373583" lon="8.4901517"><ele>60.33333333333333</ele><time>2026-05-01T14:31:34.506Z</time></trkpt><trkpt lat="39.5374217" lon="8.4900983"><ele>58.0</ele><time>2026-05-01T14:31:35.508Z</time></trkpt><trkpt lat="39.53749" lon="8.4900333"><ele>57.99999999999999</ele><time>2026-05-01T14:31:36.505Z</time></trkpt><trkpt lat="39.537565" lon="8.4899583"><ele>58.0</ele><time>2026-05-01T14:31:37.504Z</time></trkpt><trkpt lat="39.5376267" lon="8.489895"><ele>58.0</ele><time>2026-05-01T14:31:38.528Z</time></trkpt><trkpt lat="39.5376883" lon="8.4898317"><ele>58.0</ele><time>2026-05-01T14:31:39.508Z</time></trkpt><trkpt lat="39.5377467" lon="8.48977"><ele>57.99999999999999</ele><time>2026-05-01T14:31:40.505Z</time></trkpt><trkpt lat="39.5378033" lon="8.4897067"><ele>58.0</ele><time>2026-05-01T14:31:41.506Z</time></trkpt><trkpt lat="39.5378617" lon="8.4896483"><ele>58.85714285714286</ele><time>2026-05-01T14:31:42.505Z</time></trkpt><trkpt lat="39.5379233" lon="8.4896017"><ele>59.714285714285715</ele><time>2026-05-01T14:31:43.504Z</time></trkpt><trkpt lat="39.5379867" lon="8.4895583"><ele>60.57142857142857</ele><time>2026-05-01T14:31:44.529Z</time></trkpt><trkpt lat="39.5380533" lon="8.4895283"><ele>61.42857142857143</ele><time>2026-05-01T14:31:45.502Z</time></trkpt><trkpt lat="39.538125" lon="8.4895067"><ele>62.28571428571428</ele><time>2026-05-01T14:31:46.505Z</time></trkpt><trkpt lat="39.5382017" lon="8.4895017"><ele>63.14285714285714</ele><time>2026-05-01T14:31:47.503Z</time></trkpt><trkpt lat="39.5382833" lon="8.4895083"><ele>64.0</ele><time>2026-05-01T14:31:48.504Z</time></trkpt><trkpt lat="39.5383617" lon="8.4895283"><ele>64.33333333333333</ele><time>2026-05-01T14:31:49.504Z</time></trkpt><trkpt lat="39.53845" lon="8.4895317"><ele>64.66666666666666</ele><time>2026-05-01T14:31:50.527Z</time></trkpt><trkpt lat="39.53854" lon="8.4895317"><ele>65.0</ele><time>2026-05-01T14:31:51.504Z</time></trkpt><trkpt lat="39.5386267" lon="8.4895317"><ele>65.33333333333333</ele><time>2026-05-01T14:31:52.503Z</time></trkpt><trkpt lat="39.538705" lon="8.48955"><ele>65.66666666666667</ele><time>2026-05-01T14:31:53.503Z</time></trkpt><trkpt lat="39.5387733" lon="8.4895583"><ele>66.0</ele><time>2026-05-01T14:31:54.505Z</time></trkpt><trkpt lat="39.5388917" lon="8.4895767"><ele>66.0</ele><time>2026-05-01T14:31:56.568Z</time></trkpt><trkpt lat="39.5389967" lon="8.489575"><ele>66.0</ele><time>2026-05-01T14:31:58.503Z</time></trkpt><trkpt lat="39.53908" lon="8.4895767"><ele>66.0</ele><time>2026-05-01T14:32:00.505Z</time></trkpt><trkpt lat="39.5391667" lon="8.4895833"><ele>66.0</ele><time>2026-05-01T14:32:02.557Z</time></trkpt><trkpt lat="39.5392533" lon="8.4895917"><ele>66.0</ele><time>2026-05-01T14:32:04.506Z</time></trkpt><trkpt lat="39.5393483" lon="8.4895883"><ele>66.0</ele><time>2026-05-01T14:32:06.506Z</time></trkpt><trkpt lat="39.539475" lon="8.4895667"><ele>66.0</ele><time>2026-05-01T14:32:08.528Z</time></trkpt><trkpt lat="39.5395417" lon="8.489555"><ele>66.0</ele><time>2026-05-01T14:32:09.504Z</time></trkpt><trkpt lat="39.5396083" lon="8.4895383"><ele>66.0</ele><time>2026-05-01T14:32:10.505Z</time></trkpt><trkpt lat="39.53967" lon="8.4895167"><ele>66.0</ele><time>2026-05-01T14:32:11.504Z</time></trkpt><trkpt lat="39.539795" lon="8.4894917"><ele>64.5</ele><time>2026-05-01T14:32:13.504Z</time></trkpt><trkpt lat="39.53992" lon="8.48949"><ele>63.0</ele><time>2026-05-01T14:32:15.501Z</time></trkpt><trkpt lat="39.5400417" lon="8.4894783"><ele>61.5</ele><time>2026-05-01T14:32:17.501Z</time></trkpt><trkpt lat="39.54016" lon="8.48945"><ele>60.0</ele><time>2026-05-01T14:32:19.504Z</time></trkpt><trkpt lat="39.540265" lon="8.48941"><ele>60.0</ele><time>2026-05-01T14:32:21.504Z</time></trkpt><trkpt lat="39.5403317" lon="8.4893717"><ele>60.0</ele><time>2026-05-01T14:32:23.503Z</time></trkpt><trkpt lat="39.5404267" lon="8.48936"><ele>60.0</ele><time>2026-05-01T14:32:42.502Z</time></trkpt><trkpt lat="39.5405483" lon="8.4892017"><ele>60.0</ele><time>2026-05-01T14:32:45.503Z</time></trkpt><trkpt lat="39.540585" lon="8.4891233"><ele>60.0</ele><time>2026-05-01T14:32:46.504Z</time></trkpt><trkpt lat="39.5406167" lon="8.48903"><ele>59.166666666666664</ele><time>2026-05-01T14:32:47.504Z</time></trkpt><trkpt lat="39.5406417" lon="8.4889433"><ele>58.33333333333333</ele><time>2026-05-01T14:32:48.501Z</time></trkpt><trkpt lat="39.5406667" lon="8.4888633"><ele>57.5</ele><time>2026-05-01T14:32:49.505Z</time></trkpt><trkpt lat="39.540695" lon="8.4887833"><ele>56.666666666666664</ele><time>2026-05-01T14:32:50.526Z</time></trkpt><trkpt lat="39.5407267" lon="8.4886417"><ele>55.83333333333333</ele><time>2026-05-01T14:32:52.505Z</time></trkpt><trkpt lat="39.54076" lon="8.488515"><ele>55.0</ele><time>2026-05-01T14:32:54.503Z</time></trkpt><trkpt lat="39.5408033" lon="8.4884133"><ele>54.83333333333333</ele><time>2026-05-01T14:32:56.57Z</time></trkpt><trkpt lat="39.54083" lon="8.4883017"><ele>54.666666666666664</ele><time>2026-05-01T14:32:58.504Z</time></trkpt><trkpt lat="39.5408367" lon="8.4881717"><ele>54.5</ele><time>2026-05-01T14:33:00.502Z</time></trkpt><trkpt lat="39.5408667" lon="8.4880817"><ele>54.33333333333333</ele><time>2026-05-01T14:33:01.504Z</time></trkpt><trkpt lat="39.5409083" lon="8.48799"><ele>54.166666666666664</ele><time>2026-05-01T14:33:02.558Z</time></trkpt><trkpt lat="39.540965" lon="8.4878967"><ele>54.0</ele><time>2026-05-01T14:33:03.506Z</time></trkpt><trkpt lat="39.541015" lon="8.4878167"><ele>54.0</ele><time>2026-05-01T14:33:04.504Z</time></trkpt><trkpt lat="39.54107" lon="8.4877433"><ele>54.0</ele><time>2026-05-01T14:33:05.503Z</time></trkpt><trkpt lat="39.541135" lon="8.4876767"><ele>54.0</ele><time>2026-05-01T14:33:06.503Z</time></trkpt><trkpt lat="39.541205" lon="8.48762"><ele>54.0</ele><time>2026-05-01T14:33:07.504Z</time></trkpt><trkpt lat="39.541275" lon="8.487585"><ele>54.0</ele><time>2026-05-01T14:33:08.527Z</time></trkpt><trkpt lat="39.5413483" lon="8.487555"><ele>54.0</ele><time>2026-05-01T14:33:09.506Z</time></trkpt><trkpt lat="39.5414633" lon="8.4875267"><ele>53.0</ele><time>2026-05-01T14:33:11.502Z</time></trkpt><trkpt lat="39.54156" lon="8.4875133"><ele>52.0</ele><time>2026-05-01T14:33:13.504Z</time></trkpt><trkpt lat="39.5416767" lon="8.48753"><ele>51.0</ele><time>2026-05-01T14:33:15.504Z</time></trkpt><trkpt lat="39.541745" lon="8.4875467"><ele>50.0</ele><time>2026-05-01T14:33:16.502Z</time></trkpt><trkpt lat="39.5418083" lon="8.4875667"><ele>49.0</ele><time>2026-05-01T14:33:17.502Z</time></trkpt><trkpt lat="39.5418733" lon="8.487585"><ele>48.0</ele><time>2026-05-01T14:33:18.505Z</time></trkpt><trkpt lat="39.541945" lon="8.487595"><ele>48.0</ele><time>2026-05-01T14:33:19.505Z</time></trkpt><trkpt lat="39.54201" lon="8.4876033"><ele>48.0</ele><time>2026-05-01T14:33:20.527Z</time></trkpt><trkpt lat="39.542135" lon="8.4875867"><ele>48.0</ele><time>2026-05-01T14:33:22.501Z</time></trkpt><trkpt lat="39.542255" lon="8.4875617"><ele>48.0</ele><time>2026-05-01T14:33:24.502Z</time></trkpt><trkpt lat="39.54237" lon="8.487535"><ele>48.0</ele><time>2026-05-01T14:33:26.571Z</time></trkpt><trkpt lat="39.5424417" lon="8.4874767"><ele>47.2</ele><time>2026-05-01T14:33:27.502Z</time></trkpt><trkpt lat="39.542525" lon="8.4874033"><ele>46.4</ele><time>2026-05-01T14:33:28.504Z</time></trkpt><trkpt lat="39.542595" lon="8.4873317"><ele>45.6</ele><time>2026-05-01T14:33:29.505Z</time></trkpt><trkpt lat="39.5426567" lon="8.4872633"><ele>44.800000000000004</ele><time>2026-05-01T14:33:30.503Z</time></trkpt><trkpt lat="39.5427267" lon="8.487185"><ele>44.0</ele><time>2026-05-01T14:33:31.506Z</time></trkpt><trkpt lat="39.5428017" lon="8.487115"><ele>43.166666666666664</ele><time>2026-05-01T14:33:32.558Z</time></trkpt><trkpt lat="39.54287" lon="8.48705"><ele>42.33333333333333</ele><time>2026-05-01T14:33:33.503Z</time></trkpt><trkpt lat="39.54294" lon="8.4869833"><ele>41.5</ele><time>2026-05-01T14:33:34.503Z</time></trkpt><trkpt lat="39.5430133" lon="8.486915"><ele>40.666666666666664</ele><time>2026-05-01T14:33:35.503Z</time></trkpt><trkpt lat="39.543085" lon="8.4868417"><ele>39.833333333333336</ele><time>2026-05-01T14:33:36.504Z</time></trkpt><trkpt lat="39.54314" lon="8.48675"><ele>39.0</ele><time>2026-05-01T14:33:37.504Z</time></trkpt><trkpt lat="39.5431967" lon="8.486645"><ele>39.0</ele><time>2026-05-01T14:33:38.527Z</time></trkpt><trkpt lat="39.54324" lon="8.4865333"><ele>39.0</ele><time>2026-05-01T14:33:39.506Z</time></trkpt><trkpt lat="39.543285" lon="8.4864183"><ele>39.0</ele><time>2026-05-01T14:33:40.503Z</time></trkpt><trkpt lat="39.5433383" lon="8.4862867"><ele>39.0</ele><time>2026-05-01T14:33:41.503Z</time></trkpt><trkpt lat="39.543395" lon="8.486155"><ele>39.0</ele><time>2026-05-01T14:33:42.505Z</time></trkpt><trkpt lat="39.543445" lon="8.4860433"><ele>39.8</ele><time>2026-05-01T14:33:43.505Z</time></trkpt><trkpt lat="39.5434733" lon="8.4859133"><ele>40.599999999999994</ele><time>2026-05-01T14:33:44.524Z</time></trkpt><trkpt lat="39.5435133" lon="8.4858"><ele>41.4</ele><time>2026-05-01T14:33:45.503Z</time></trkpt><trkpt lat="39.5435633" lon="8.4857033"><ele>42.199999999999996</ele><time>2026-05-01T14:33:46.505Z</time></trkpt><trkpt lat="39.5436167" lon="8.4856033"><ele>43.0</ele><time>2026-05-01T14:33:47.502Z</time></trkpt><trkpt lat="39.5436683" lon="8.4854933"><ele>42.16666666666667</ele><time>2026-05-01T14:33:48.502Z</time></trkpt><trkpt lat="39.5437267" lon="8.48538"><ele>41.333333333333336</ele><time>2026-05-01T14:33:49.502Z</time></trkpt><trkpt lat="39.5437817" lon="8.4852917"><ele>40.5</ele><time>2026-05-01T14:33:50.528Z</time></trkpt><trkpt lat="39.5438367" lon="8.48521"><ele>39.666666666666664</ele><time>2026-05-01T14:33:51.502Z</time></trkpt><trkpt lat="39.54389" lon="8.4851333"><ele>38.83333333333333</ele><time>2026-05-01T14:33:52.502Z</time></trkpt><trkpt lat="39.5439467" lon="8.4850617"><ele>38.0</ele><time>2026-05-01T14:33:53.504Z</time></trkpt><trkpt lat="39.5440017" lon="8.4850017"><ele>38.0</ele><time>2026-05-01T14:33:54.508Z</time></trkpt><trkpt lat="39.5440467" lon="8.48494"><ele>38.0</ele><time>2026-05-01T14:33:55.503Z</time></trkpt><trkpt lat="39.5441317" lon="8.484805"><ele>38.0</ele><time>2026-05-01T14:33:57.502Z</time></trkpt><trkpt lat="39.5441783" lon="8.4847367"><ele>38.0</ele><time>2026-05-01T14:33:58.503Z</time></trkpt><trkpt lat="39.5442367" lon="8.4846683"><ele>38.0</ele><time>2026-05-01T14:33:59.503Z</time></trkpt><trkpt lat="39.5443" lon="8.4846083"><ele>38.0</ele><time>2026-05-01T14:34:00.502Z</time></trkpt><trkpt lat="39.5443717" lon="8.4845433"><ele>37.166666666666664</ele><time>2026-05-01T14:34:01.505Z</time></trkpt><trkpt lat="39.5444433" lon="8.4844867"><ele>36.33333333333333</ele><time>2026-05-01T14:34:02.557Z</time></trkpt><trkpt lat="39.544515" lon="8.4844333"><ele>35.5</ele><time>2026-05-01T14:34:03.502Z</time></trkpt><trkpt lat="39.5445917" lon="8.48438"><ele>34.666666666666664</ele><time>2026-05-01T14:34:04.503Z</time></trkpt><trkpt lat="39.544665" lon="8.4843167"><ele>33.833333333333336</ele><time>2026-05-01T14:34:05.503Z</time></trkpt><trkpt lat="39.5447467" lon="8.4842533"><ele>33.0</ele><time>2026-05-01T14:34:06.504Z</time></trkpt><trkpt lat="39.54481" lon="8.4841967"><ele>33.0</ele><time>2026-05-01T14:34:07.505Z</time></trkpt><trkpt lat="39.5448683" lon="8.484145"><ele>33.0</ele><time>2026-05-01T14:34:08.528Z</time></trkpt><trkpt lat="39.5449217" lon="8.4840933"><ele>33.0</ele><time>2026-05-01T14:34:09.511Z</time></trkpt><trkpt lat="39.544995" lon="8.4840033"><ele>33.0</ele><time>2026-05-01T14:34:11.504Z</time></trkpt><trkpt lat="39.5450383" lon="8.48384"><ele>33.0</ele><time>2026-05-01T14:34:13.506Z</time></trkpt><trkpt lat="39.5450633" lon="8.4837483"><ele>33.0</ele><time>2026-05-01T14:34:14.528Z</time></trkpt><trkpt lat="39.5450833" lon="8.4836483"><ele>32.833333333333336</ele><time>2026-05-01T14:34:15.507Z</time></trkpt><trkpt lat="39.5450933" lon="8.483545"><ele>32.666666666666664</ele><time>2026-05-01T14:34:16.507Z</time></trkpt><trkpt lat="39.5450967" lon="8.4834417"><ele>32.5</ele><time>2026-05-01T14:34:17.506Z</time></trkpt><trkpt lat="39.5450983" lon="8.4833383"><ele>32.33333333333333</ele><time>2026-05-01T14:34:18.506Z</time></trkpt><trkpt lat="39.545105" lon="8.4832317"><ele>32.166666666666664</ele><time>2026-05-01T14:34:19.503Z</time></trkpt><trkpt lat="39.5451183" lon="8.48313"><ele>32.0</ele><time>2026-05-01T14:34:20.528Z</time></trkpt><trkpt lat="39.5451267" lon="8.4830317"><ele>31.999999999999996</ele><time>2026-05-01T14:34:21.505Z</time></trkpt><trkpt lat="39.54513" lon="8.4829367"><ele>32.0</ele><time>2026-05-01T14:34:22.503Z</time></trkpt><trkpt lat="39.545125" lon="8.48285"><ele>32.0</ele><time>2026-05-01T14:34:23.503Z</time></trkpt><trkpt lat="39.5451133" lon="8.4827633"><ele>32.0</ele><time>2026-05-01T14:34:24.506Z</time></trkpt><trkpt lat="39.5451017" lon="8.48268"><ele>31.999999999999996</ele><time>2026-05-01T14:34:25.504Z</time></trkpt><trkpt lat="39.54509" lon="8.4825233"><ele>32.0</ele><time>2026-05-01T14:34:27.5Z</time></trkpt><trkpt lat="39.545085" lon="8.4823583"><ele>31.999999999999996</ele><time>2026-05-01T14:34:29.503Z</time></trkpt><trkpt lat="39.545085" lon="8.482275"><ele>32.0</ele><time>2026-05-01T14:34:30.505Z</time></trkpt><trkpt lat="39.5450933" lon="8.4821883"><ele>32.0</ele><time>2026-05-01T14:34:31.505Z</time></trkpt><trkpt lat="39.5451083" lon="8.48206"><ele>32.0</ele><time>2026-05-01T14:34:33.502Z</time></trkpt><trkpt lat="39.545145" lon="8.4819567"><ele>31.999999999999996</ele><time>2026-05-01T14:34:35.502Z</time></trkpt><trkpt lat="39.54522" lon="8.4818667"><ele>32.0</ele><time>2026-05-01T14:34:37.506Z</time></trkpt><trkpt lat="39.5453017" lon="8.4817867"><ele>31.833333333333332</ele><time>2026-05-01T14:34:39.503Z</time></trkpt><trkpt lat="39.545375" lon="8.4817117"><ele>31.666666666666664</ele><time>2026-05-01T14:34:41.502Z</time></trkpt><trkpt lat="39.5454333" lon="8.4816383"><ele>31.5</ele><time>2026-05-01T14:34:43.505Z</time></trkpt><trkpt lat="39.5454767" lon="8.48156"><ele>31.333333333333336</ele><time>2026-05-01T14:34:45.502Z</time></trkpt><trkpt lat="39.5455167" lon="8.481465"><ele>31.166666666666668</ele><time>2026-05-01T14:34:47.505Z</time></trkpt><trkpt lat="39.5455817" lon="8.48138"><ele>31.0</ele><time>2026-05-01T14:34:49.504Z</time></trkpt><trkpt lat="39.545665" lon="8.48131"><ele>31.8</ele><time>2026-05-01T14:34:51.505Z</time></trkpt><trkpt lat="39.5457533" lon="8.4812417"><ele>32.6</ele><time>2026-05-01T14:34:53.504Z</time></trkpt><trkpt lat="39.5458417" lon="8.481155"><ele>33.4</ele><time>2026-05-01T14:34:55.503Z</time></trkpt><trkpt lat="39.5459183" lon="8.4810733"><ele>34.2</ele><time>2026-05-01T14:34:57.502Z</time></trkpt><trkpt lat="39.5459783" lon="8.48101"><ele>35.0</ele><time>2026-05-01T14:34:59.505Z</time></trkpt><trkpt lat="39.5460483" lon="8.4809367"><ele>35.0</ele><time>2026-05-01T14:35:01.51Z</time></trkpt><trkpt lat="39.5461317" lon="8.4808483"><ele>35.0</ele><time>2026-05-01T14:35:03.502Z</time></trkpt><trkpt lat="39.546195" lon="8.4807817"><ele>35.0</ele><time>2026-05-01T14:35:05.503Z</time></trkpt><trkpt lat="39.546255" lon="8.480725"><ele>35.0</ele><time>2026-05-01T14:35:07.505Z</time></trkpt><trkpt lat="39.5463383" lon="8.4806767"><ele>35.0</ele><time>2026-05-01T14:35:10.504Z</time></trkpt><trkpt lat="39.5464183" lon="8.48062"><ele>35.0</ele><time>2026-05-01T14:35:13.503Z</time></trkpt><trkpt lat="39.5464883" lon="8.4805533"><ele>34.33333333333333</ele><time>2026-05-01T14:35:16.506Z</time></trkpt><trkpt lat="39.5465433" lon="8.4804933"><ele>33.666666666666664</ele><time>2026-05-01T14:35:19.504Z</time></trkpt><trkpt lat="39.5465983" lon="8.4803833"><ele>33.0</ele><time>2026-05-01T14:35:22.503Z</time></trkpt><trkpt lat="39.5466367" lon="8.4802733"><ele>32.333333333333336</ele><time>2026-05-01T14:35:24.502Z</time></trkpt><trkpt lat="39.54664" lon="8.4801417"><ele>31.666666666666668</ele><time>2026-05-01T14:35:26.557Z</time></trkpt><trkpt lat="39.5466217" lon="8.4800617"><ele>31.0</ele><time>2026-05-01T14:35:27.505Z</time></trkpt><trkpt lat="39.546595" lon="8.4799683"><ele>30.4</ele><time>2026-05-01T14:35:28.503Z</time></trkpt><trkpt lat="39.546555" lon="8.4798633"><ele>29.8</ele><time>2026-05-01T14:35:29.504Z</time></trkpt><trkpt lat="39.5465183" lon="8.4797517"><ele>29.199999999999996</ele><time>2026-05-01T14:35:30.504Z</time></trkpt><trkpt lat="39.5464667" lon="8.4796"><ele>28.599999999999998</ele><time>2026-05-01T14:35:31.504Z</time></trkpt><trkpt lat="39.5464367" lon="8.4794833"><ele>28.0</ele><time>2026-05-01T14:35:32.557Z</time></trkpt><trkpt lat="39.546425" lon="8.4793783"><ele>27.666666666666668</ele><time>2026-05-01T14:35:33.502Z</time></trkpt><trkpt lat="39.5464117" lon="8.4792883"><ele>27.333333333333336</ele><time>2026-05-01T14:35:34.504Z</time></trkpt><trkpt lat="39.5464083" lon="8.4791667"><ele>27.0</ele><time>2026-05-01T14:35:36.506Z</time></trkpt><trkpt lat="39.5464567" lon="8.4790833"><ele>26.666666666666664</ele><time>2026-05-01T14:35:38.525Z</time></trkpt><trkpt lat="39.546545" lon="8.478985"><ele>26.333333333333332</ele><time>2026-05-01T14:35:40.503Z</time></trkpt><trkpt lat="39.5465917" lon="8.4789067"><ele>26.0</ele><time>2026-05-01T14:35:41.505Z</time></trkpt><trkpt lat="39.5466417" lon="8.4788133"><ele>25.8</ele><time>2026-05-01T14:35:42.507Z</time></trkpt><trkpt lat="39.5467067" lon="8.47871"><ele>25.6</ele><time>2026-05-01T14:35:43.504Z</time></trkpt><trkpt lat="39.5467767" lon="8.47861"><ele>25.4</ele><time>2026-05-01T14:35:44.528Z</time></trkpt><trkpt lat="39.5468567" lon="8.4784983"><ele>25.2</ele><time>2026-05-01T14:35:45.503Z</time></trkpt><trkpt lat="39.5469367" lon="8.4783983"><ele>25.0</ele><time>2026-05-01T14:35:46.505Z</time></trkpt><trkpt lat="39.5470183" lon="8.4782783"><ele>24.6</ele><time>2026-05-01T14:35:47.505Z</time></trkpt><trkpt lat="39.5470967" lon="8.4781667"><ele>24.2</ele><time>2026-05-01T14:35:48.504Z</time></trkpt><trkpt lat="39.54716" lon="8.47804"><ele>23.799999999999997</ele><time>2026-05-01T14:35:49.504Z</time></trkpt><trkpt lat="39.5472033" lon="8.4779283"><ele>23.4</ele><time>2026-05-01T14:35:50.526Z</time></trkpt><trkpt lat="39.5472817" lon="8.4778167"><ele>23.0</ele><time>2026-05-01T14:35:51.5Z</time></trkpt><trkpt lat="39.5473283" lon="8.4777433"><ele>23.0</ele><time>2026-05-01T14:35:52.507Z</time></trkpt><trkpt lat="39.547365" lon="8.4775967"><ele>23.0</ele><time>2026-05-01T14:35:54.504Z</time></trkpt><trkpt lat="39.5473767" lon="8.477515"><ele>23.0</ele><time>2026-05-01T14:35:55.503Z</time></trkpt><trkpt lat="39.5473917" lon="8.477425"><ele>23.0</ele><time>2026-05-01T14:35:56.558Z</time></trkpt><trkpt lat="39.547405" lon="8.4773283"><ele>23.0</ele><time>2026-05-01T14:35:57.502Z</time></trkpt><trkpt lat="39.54742" lon="8.4772367"><ele>23.0</ele><time>2026-05-01T14:35:58.503Z</time></trkpt><trkpt lat="39.5474333" lon="8.47714"><ele>22.666666666666668</ele><time>2026-05-01T14:35:59.503Z</time></trkpt><trkpt lat="39.5474417" lon="8.4770333"><ele>22.333333333333336</ele><time>2026-05-01T14:36:00.503Z</time></trkpt><trkpt lat="39.5474533" lon="8.476925"><ele>22.0</ele><time>2026-05-01T14:36:01.504Z</time></trkpt><trkpt lat="39.547475" lon="8.4768183"><ele>21.666666666666668</ele><time>2026-05-01T14:36:02.559Z</time></trkpt><trkpt lat="39.5475033" lon="8.4767233"><ele>21.333333333333332</ele><time>2026-05-01T14:36:03.508Z</time></trkpt><trkpt lat="39.54754" lon="8.4766433"><ele>21.0</ele><time>2026-05-01T14:36:04.503Z</time></trkpt><trkpt lat="39.5476" lon="8.4765333"><ele>21.0</ele><time>2026-05-01T14:36:06.505Z</time></trkpt><trkpt lat="39.5476567" lon="8.47644"><ele>21.0</ele><time>2026-05-01T14:36:08.527Z</time></trkpt><trkpt lat="39.5477017" lon="8.4763233"><ele>21.0</ele><time>2026-05-01T14:36:10.5Z</time></trkpt><trkpt lat="39.5477383" lon="8.4761583"><ele>21.0</ele><time>2026-05-01T14:36:12.503Z</time></trkpt><trkpt lat="39.547755" lon="8.4760517"><ele>21.0</ele><time>2026-05-01T14:36:13.505Z</time></trkpt><trkpt lat="39.5477667" lon="8.475935"><ele>20.833333333333332</ele><time>2026-05-01T14:36:14.529Z</time></trkpt><trkpt lat="39.5477667" lon="8.4758217"><ele>20.666666666666668</ele><time>2026-05-01T14:36:15.503Z</time></trkpt><trkpt lat="39.547775" lon="8.4757033"><ele>20.5</ele><time>2026-05-01T14:36:16.501Z</time></trkpt><trkpt lat="39.5478033" lon="8.4756067"><ele>20.333333333333336</ele><time>2026-05-01T14:36:17.506Z</time></trkpt><trkpt lat="39.54784" lon="8.475505"><ele>20.166666666666668</ele><time>2026-05-01T14:36:18.505Z</time></trkpt><trkpt lat="39.5478833" lon="8.475405"><ele>20.0</ele><time>2026-05-01T14:36:19.506Z</time></trkpt><trkpt lat="39.54793" lon="8.4753117"><ele>20.0</ele><time>2026-05-01T14:36:20.529Z</time></trkpt><trkpt lat="39.54798" lon="8.4752233"><ele>20.0</ele><time>2026-05-01T14:36:21.503Z</time></trkpt><trkpt lat="39.5480267" lon="8.475135"><ele>20.0</ele><time>2026-05-01T14:36:22.505Z</time></trkpt><trkpt lat="39.5480667" lon="8.4750367"><ele>20.0</ele><time>2026-05-01T14:36:23.507Z</time></trkpt><trkpt lat="39.54811" lon="8.4749217"><ele>20.0</ele><time>2026-05-01T14:36:24.508Z</time></trkpt><trkpt lat="39.54815" lon="8.47479"><ele>20.0</ele><time>2026-05-01T14:36:25.507Z</time></trkpt><trkpt lat="39.548185" lon="8.4746533"><ele>20.0</ele><time>2026-05-01T14:36:26.558Z</time></trkpt><trkpt lat="39.5482233" lon="8.4745083"><ele>20.0</ele><time>2026-05-01T14:36:27.504Z</time></trkpt><trkpt lat="39.5482667" lon="8.4743633"><ele>20.0</ele><time>2026-05-01T14:36:28.504Z</time></trkpt><trkpt lat="39.5483117" lon="8.474245"><ele>19.6</ele><time>2026-05-01T14:36:29.504Z</time></trkpt><trkpt lat="39.5483667" lon="8.4741317"><ele>19.2</ele><time>2026-05-01T14:36:30.506Z</time></trkpt><trkpt lat="39.5484183" lon="8.4740133"><ele>18.8</ele><time>2026-05-01T14:36:31.505Z</time></trkpt><trkpt lat="39.54845" lon="8.4738917"><ele>18.4</ele><time>2026-05-01T14:36:32.557Z</time></trkpt><trkpt lat="39.5484667" lon="8.4737883"><ele>18.0</ele><time>2026-05-01T14:36:33.504Z</time></trkpt><trkpt lat="39.5484867" lon="8.4737017"><ele>17.6</ele><time>2026-05-01T14:36:34.502Z</time></trkpt><trkpt lat="39.5485017" lon="8.473575"><ele>17.200000000000003</ele><time>2026-05-01T14:36:36.505Z</time></trkpt><trkpt lat="39.5484883" lon="8.4734617"><ele>16.8</ele><time>2026-05-01T14:36:38.529Z</time></trkpt><trkpt lat="39.5484667" lon="8.473345"><ele>16.400000000000002</ele><time>2026-05-01T14:36:40.505Z</time></trkpt><trkpt lat="39.5484483" lon="8.4732267"><ele>16.0</ele><time>2026-05-01T14:36:42.502Z</time></trkpt><trkpt lat="39.54845" lon="8.473115"><ele>16.0</ele><time>2026-05-01T14:36:44.527Z</time></trkpt><trkpt lat="39.5484833" lon="8.4729917"><ele>16.0</ele><time>2026-05-01T14:36:46.502Z</time></trkpt><trkpt lat="39.5485367" lon="8.4728617"><ele>16.0</ele><time>2026-05-01T14:36:48.505Z</time></trkpt><trkpt lat="39.5485817" lon="8.4727517"><ele>16.0</ele><time>2026-05-01T14:36:50.53Z</time></trkpt><trkpt lat="39.548595" lon="8.4726333"><ele>16.0</ele><time>2026-05-01T14:36:52.504Z</time></trkpt><trkpt lat="39.5485783" lon="8.47249"><ele>15.833333333333332</ele><time>2026-05-01T14:36:54.503Z</time></trkpt><trkpt lat="39.5485317" lon="8.4723483"><ele>15.666666666666666</ele><time>2026-05-01T14:36:56.557Z</time></trkpt><trkpt lat="39.54849" lon="8.4722717"><ele>15.5</ele><time>2026-05-01T14:36:57.501Z</time></trkpt><trkpt lat="39.54844" lon="8.4721967"><ele>15.333333333333332</ele><time>2026-05-01T14:36:58.503Z</time></trkpt><trkpt lat="39.54839" lon="8.4721067"><ele>15.166666666666666</ele><time>2026-05-01T14:36:59.5Z</time></trkpt><trkpt lat="39.54834" lon="8.47201"><ele>15.0</ele><time>2026-05-01T14:37:00.503Z</time></trkpt><trkpt lat="39.54829" lon="8.4719067"><ele>15.8</ele><time>2026-05-01T14:37:01.501Z</time></trkpt><trkpt lat="39.5482367" lon="8.4718"><ele>16.6</ele><time>2026-05-01T14:37:02.559Z</time></trkpt><trkpt lat="39.5481783" lon="8.4716967"><ele>17.4</ele><time>2026-05-01T14:37:03.503Z</time></trkpt><trkpt lat="39.548115" lon="8.4716"><ele>18.2</ele><time>2026-05-01T14:37:04.502Z</time></trkpt><trkpt lat="39.5480383" lon="8.4715183"><ele>19.0</ele><time>2026-05-01T14:37:05.501Z</time></trkpt><trkpt lat="39.547955" lon="8.47144"><ele>18.4</ele><time>2026-05-01T14:37:06.503Z</time></trkpt><trkpt lat="39.5478533" lon="8.4713333"><ele>17.799999999999997</ele><time>2026-05-01T14:37:07.504Z</time></trkpt><trkpt lat="39.5477733" lon="8.4712233"><ele>17.200000000000003</ele><time>2026-05-01T14:37:08.53Z</time></trkpt><trkpt lat="39.547715" lon="8.4711133"><ele>16.6</ele><time>2026-05-01T14:37:09.502Z</time></trkpt><trkpt lat="39.54768" lon="8.4710283"><ele>16.0</ele><time>2026-05-01T14:37:10.5Z</time></trkpt><trkpt lat="39.5476533" lon="8.4709483"><ele>15.999999999999998</ele><time>2026-05-01T14:37:11.501Z</time></trkpt><trkpt lat="39.5476217" lon="8.47083"><ele>16.0</ele><time>2026-05-01T14:37:13.5Z</time></trkpt><trkpt lat="39.5475933" lon="8.4706867"><ele>16.0</ele><time>2026-05-01T14:37:15.506Z</time></trkpt><trkpt lat="39.54758" lon="8.470605"><ele>16.0</ele><time>2026-05-01T14:37:16.502Z</time></trkpt><trkpt lat="39.54757" lon="8.47052"><ele>15.999999999999998</ele><time>2026-05-01T14:37:17.501Z</time></trkpt><trkpt lat="39.5475633" lon="8.4704283"><ele>16.0</ele><time>2026-05-01T14:37:18.504Z</time></trkpt><trkpt lat="39.54756" lon="8.47033"><ele>15.8</ele><time>2026-05-01T14:37:19.502Z</time></trkpt><trkpt lat="39.5475617" lon="8.4702183"><ele>15.600000000000001</ele><time>2026-05-01T14:37:20.526Z</time></trkpt><trkpt lat="39.5475717" lon="8.470095"><ele>15.4</ele><time>2026-05-01T14:37:21.506Z</time></trkpt><trkpt lat="39.5475783" lon="8.4699483"><ele>15.2</ele><time>2026-05-01T14:37:22.503Z</time></trkpt><trkpt lat="39.54758" lon="8.4698333"><ele>15.0</ele><time>2026-05-01T14:37:23.503Z</time></trkpt><trkpt lat="39.5475767" lon="8.46972"><ele>15.0</ele><time>2026-05-01T14:37:24.505Z</time></trkpt><trkpt lat="39.5475667" lon="8.4696067"><ele>15.0</ele><time>2026-05-01T14:37:25.506Z</time></trkpt><trkpt lat="39.54755" lon="8.4694967"><ele>15.0</ele><time>2026-05-01T14:37:26.569Z</time></trkpt><trkpt lat="39.5475233" lon="8.4693917"><ele>15.0</ele><time>2026-05-01T14:37:27.508Z</time></trkpt><trkpt lat="39.5474933" lon="8.4692833"><ele>15.0</ele><time>2026-05-01T14:37:28.504Z</time></trkpt><trkpt lat="39.5474617" lon="8.4691733"><ele>15.0</ele><time>2026-05-01T14:37:29.505Z</time></trkpt><trkpt lat="39.5474317" lon="8.4690533"><ele>15.0</ele><time>2026-05-01T14:37:30.502Z</time></trkpt><trkpt lat="39.5474067" lon="8.4689183"><ele>15.0</ele><time>2026-05-01T14:37:31.502Z</time></trkpt><trkpt lat="39.54739" lon="8.4687717"><ele>15.0</ele><time>2026-05-01T14:37:32.557Z</time></trkpt><trkpt lat="39.547395" lon="8.468625"><ele>15.0</ele><time>2026-05-01T14:37:33.501Z</time></trkpt><trkpt lat="39.5473767" lon="8.4684817"><ele>15.0</ele><time>2026-05-01T14:37:34.503Z</time></trkpt><trkpt lat="39.547345" lon="8.4683667"><ele>14.6</ele><time>2026-05-01T14:37:35.505Z</time></trkpt><trkpt lat="39.5473" lon="8.4682333"><ele>14.2</ele><time>2026-05-01T14:37:36.502Z</time></trkpt><trkpt lat="39.5472517" lon="8.46813"><ele>13.8</ele><time>2026-05-01T14:37:37.503Z</time></trkpt><trkpt lat="39.5472017" lon="8.4680333"><ele>13.4</ele><time>2026-05-01T14:37:38.531Z</time></trkpt><trkpt lat="39.5471383" lon="8.4679383"><ele>13.0</ele><time>2026-05-01T14:37:39.504Z</time></trkpt><trkpt lat="39.547065" lon="8.467845"><ele>13.600000000000001</ele><time>2026-05-01T14:37:40.503Z</time></trkpt><trkpt lat="39.5469867" lon="8.4677483"><ele>14.200000000000001</ele><time>2026-05-01T14:37:41.504Z</time></trkpt><trkpt lat="39.5469033" lon="8.4676517"><ele>14.8</ele><time>2026-05-01T14:37:42.506Z</time></trkpt><trkpt lat="39.5468383" lon="8.46757"><ele>15.4</ele><time>2026-05-01T14:37:43.504Z</time></trkpt><trkpt lat="39.5467933" lon="8.467485"><ele>16.0</ele><time>2026-05-01T14:37:44.526Z</time></trkpt><trkpt lat="39.546735" lon="8.467395"><ele>16.0</ele><time>2026-05-01T14:37:45.507Z</time></trkpt><trkpt lat="39.5466633" lon="8.4673133"><ele>16.0</ele><time>2026-05-01T14:37:46.505Z</time></trkpt><trkpt lat="39.5465833" lon="8.46723"><ele>16.0</ele><time>2026-05-01T14:37:47.504Z</time></trkpt><trkpt lat="39.54651" lon="8.467145"><ele>16.0</ele><time>2026-05-01T14:37:48.506Z</time></trkpt><trkpt lat="39.546455" lon="8.46705"><ele>16.0</ele><time>2026-05-01T14:37:49.508Z</time></trkpt><trkpt lat="39.5464017" lon="8.4669467"><ele>15.200000000000001</ele><time>2026-05-01T14:37:50.527Z</time></trkpt><trkpt lat="39.5463483" lon="8.466845"><ele>14.400000000000002</ele><time>2026-05-01T14:37:51.504Z</time></trkpt><trkpt lat="39.546295" lon="8.4667467"><ele>13.6</ele><time>2026-05-01T14:37:52.504Z</time></trkpt><trkpt lat="39.5462267" lon="8.4666433"><ele>12.8</ele><time>2026-05-01T14:37:53.505Z</time></trkpt><trkpt lat="39.546155" lon="8.4665633"><ele>12.0</ele><time>2026-05-01T14:37:54.503Z</time></trkpt><trkpt lat="39.5460783" lon="8.4664667"><ele>11.833333333333334</ele><time>2026-05-01T14:37:55.506Z</time></trkpt><trkpt lat="39.5460233" lon="8.4663733"><ele>11.666666666666666</ele><time>2026-05-01T14:37:56.558Z</time></trkpt><trkpt lat="39.5459683" lon="8.466295"><ele>11.5</ele><time>2026-05-01T14:37:57.503Z</time></trkpt><trkpt lat="39.5459117" lon="8.4662217"><ele>11.333333333333332</ele><time>2026-05-01T14:37:58.508Z</time></trkpt><trkpt lat="39.5458567" lon="8.4661533"><ele>11.166666666666666</ele><time>2026-05-01T14:37:59.511Z</time></trkpt><trkpt lat="39.5458067" lon="8.466095"><ele>11.0</ele><time>2026-05-01T14:38:00.504Z</time></trkpt><trkpt lat="39.5457217" lon="8.4660033"><ele>11.0</ele><time>2026-05-01T14:38:02.562Z</time></trkpt><trkpt lat="39.5456183" lon="8.4659417"><ele>11.0</ele><time>2026-05-01T14:38:04.504Z</time></trkpt><trkpt lat="39.545545" lon="8.46591"><ele>11.0</ele><time>2026-05-01T14:38:05.503Z</time></trkpt><trkpt lat="39.54547" lon="8.4658683"><ele>11.0</ele><time>2026-05-01T14:38:06.503Z</time></trkpt><trkpt lat="39.5453883" lon="8.4658217"><ele>11.0</ele><time>2026-05-01T14:38:07.504Z</time></trkpt><trkpt lat="39.5452967" lon="8.4657733"><ele>10.200000000000001</ele><time>2026-05-01T14:38:08.529Z</time></trkpt><trkpt lat="39.5452117" lon="8.4657167"><ele>9.4</ele><time>2026-05-01T14:38:09.503Z</time></trkpt><trkpt lat="39.5451283" lon="8.4656233"><ele>8.6</ele><time>2026-05-01T14:38:10.504Z</time></trkpt><trkpt lat="39.5450583" lon="8.46553"><ele>7.8</ele><time>2026-05-01T14:38:11.507Z</time></trkpt><trkpt lat="39.5450117" lon="8.4654117"><ele>7.0</ele><time>2026-05-01T14:38:12.502Z</time></trkpt><trkpt lat="39.5449467" lon="8.4653"><ele>7.0</ele><time>2026-05-01T14:38:13.504Z</time></trkpt><trkpt lat="39.5448733" lon="8.4652"><ele>6.999999999999999</ele><time>2026-05-01T14:38:14.528Z</time></trkpt><trkpt lat="39.5448167" lon="8.46509"><ele>6.999999999999999</ele><time>2026-05-01T14:38:15.507Z</time></trkpt><trkpt lat="39.5447717" lon="8.464965"><ele>7.0</ele><time>2026-05-01T14:38:16.501Z</time></trkpt><trkpt lat="39.544715" lon="8.4648283"><ele>7.0</ele><time>2026-05-01T14:38:17.503Z</time></trkpt><trkpt lat="39.54468" lon="8.4647167"><ele>7.000000000000001</ele><time>2026-05-01T14:38:18.503Z</time></trkpt><trkpt lat="39.5446567" lon="8.4646183"><ele>7.0</ele><time>2026-05-01T14:38:19.503Z</time></trkpt><trkpt lat="39.5446483" lon="8.4645283"><ele>7.0</ele><time>2026-05-01T14:38:20.526Z</time></trkpt><trkpt lat="39.5446267" lon="8.4644417"><ele>7.0</ele><time>2026-05-01T14:38:21.501Z</time></trkpt><trkpt lat="39.5445833" lon="8.4643183"><ele>7.000000000000001</ele><time>2026-05-01T14:38:23.505Z</time></trkpt><trkpt lat="39.5445567" lon="8.46423"><ele>7.0</ele><time>2026-05-01T14:38:25.507Z</time></trkpt><trkpt lat="39.544625" lon="8.4643133"><ele>7.0</ele><time>2026-05-01T14:38:56.56Z</time></trkpt><trkpt lat="39.5446933" lon="8.4644267"><ele>6.999999999999999</ele><time>2026-05-01T14:38:58.502Z</time></trkpt><trkpt lat="39.5447333" lon="8.4645267"><ele>6.999999999999999</ele><time>2026-05-01T14:38:59.501Z</time></trkpt><trkpt lat="39.5447667" lon="8.4646333"><ele>7.0</ele><time>2026-05-01T14:39:00.501Z</time></trkpt><trkpt lat="39.5448017" lon="8.464745"><ele>7.0</ele><time>2026-05-01T14:39:01.501Z</time></trkpt><trkpt lat="39.544845" lon="8.464845"><ele>7.0</ele><time>2026-05-01T14:39:02.561Z</time></trkpt><trkpt lat="39.5448917" lon="8.4649417"><ele>6.999999999999999</ele><time>2026-05-01T14:39:03.502Z</time></trkpt><trkpt lat="39.544945" lon="8.46504"><ele>6.999999999999999</ele><time>2026-05-01T14:39:04.503Z</time></trkpt><trkpt lat="39.5450017" lon="8.4651367"><ele>7.0</ele><time>2026-05-01T14:39:05.504Z</time></trkpt><trkpt lat="39.5450633" lon="8.4652333"><ele>7.0</ele><time>2026-05-01T14:39:06.505Z</time></trkpt><trkpt lat="39.545125" lon="8.4653233"><ele>7.0</ele><time>2026-05-01T14:39:07.503Z</time></trkpt><trkpt lat="39.5451883" lon="8.4654167"><ele>6.999999999999999</ele><time>2026-05-01T14:39:08.528Z</time></trkpt><trkpt lat="39.5452533" lon="8.4655"><ele>6.999999999999999</ele><time>2026-05-01T14:39:09.51Z</time></trkpt><trkpt lat="39.545325" lon="8.4655883"><ele>7.0</ele><time>2026-05-01T14:39:10.51Z</time></trkpt><trkpt lat="39.5453967" lon="8.46567"><ele>7.0</ele><time>2026-05-01T14:39:11.507Z</time></trkpt><trkpt lat="39.5454683" lon="8.4657433"><ele>7.666666666666667</ele><time>2026-05-01T14:39:12.505Z</time></trkpt><trkpt lat="39.545535" lon="8.4658067"><ele>8.333333333333334</ele><time>2026-05-01T14:39:13.502Z</time></trkpt><trkpt lat="39.5455967" lon="8.4658617"><ele>9.0</ele><time>2026-05-01T14:39:14.529Z</time></trkpt><trkpt lat="39.5456517" lon="8.46591"><ele>9.666666666666666</ele><time>2026-05-01T14:39:15.504Z</time></trkpt><trkpt lat="39.5457517" lon="8.4659667"><ele>10.333333333333332</ele><time>2026-05-01T14:39:17.506Z</time></trkpt><trkpt lat="39.5458483" lon="8.4659617"><ele>11.0</ele><time>2026-05-01T14:39:19.506Z</time></trkpt><trkpt lat="39.5459483" lon="8.465885"><ele>11.0</ele><time>2026-05-01T14:39:21.503Z</time></trkpt><trkpt lat="39.54601" lon="8.4657517"><ele>11.0</ele><time>2026-05-01T14:39:23.505Z</time></trkpt><trkpt lat="39.5460233" lon="8.4656683"><ele>11.0</ele><time>2026-05-01T14:39:24.504Z</time></trkpt><trkpt lat="39.5460283" lon="8.4655783"><ele>11.0</ele><time>2026-05-01T14:39:25.504Z</time></trkpt><trkpt lat="39.546035" lon="8.4654833"><ele>11.0</ele><time>2026-05-01T14:39:26.557Z</time></trkpt><trkpt lat="39.5460417" lon="8.46539"><ele>11.0</ele><time>2026-05-01T14:39:27.505Z</time></trkpt><trkpt lat="39.546045" lon="8.465305"><ele>10.833333333333332</ele><time>2026-05-01T14:39:28.505Z</time></trkpt><trkpt lat="39.5460467" lon="8.4652233"><ele>10.666666666666666</ele><time>2026-05-01T14:39:29.506Z</time></trkpt><trkpt lat="39.5460183" lon="8.465105"><ele>10.5</ele><time>2026-05-01T14:39:31.505Z</time></trkpt><trkpt lat="39.5459767" lon="8.465025"><ele>10.333333333333334</ele><time>2026-05-01T14:39:33.504Z</time></trkpt><trkpt lat="39.545915" lon="8.4649383"><ele>10.166666666666668</ele><time>2026-05-01T14:39:35.502Z</time></trkpt><trkpt lat="39.54584" lon="8.464825"><ele>10.0</ele><time>2026-05-01T14:39:37.503Z</time></trkpt><trkpt lat="39.5458017" lon="8.4647567"><ele>10.0</ele><time>2026-05-01T14:39:38.528Z</time></trkpt><trkpt lat="39.5457617" lon="8.4646867"><ele>10.0</ele><time>2026-05-01T14:39:39.505Z</time></trkpt><trkpt lat="39.5457267" lon="8.4646167"><ele>10.0</ele><time>2026-05-01T14:39:40.501Z</time></trkpt><trkpt lat="39.5456583" lon="8.4644917"><ele>10.0</ele><time>2026-05-01T14:39:42.506Z</time></trkpt><trkpt lat="39.5455883" lon="8.464385"><ele>10.0</ele><time>2026-05-01T14:39:44.527Z</time></trkpt><trkpt lat="39.5455133" lon="8.4642667"><ele>10.8</ele><time>2026-05-01T14:39:46.504Z</time></trkpt><trkpt lat="39.54545" lon="8.464145"><ele>11.6</ele><time>2026-05-01T14:39:48.502Z</time></trkpt><trkpt lat="39.5453983" lon="8.464"><ele>12.399999999999999</ele><time>2026-05-01T14:39:50.526Z</time></trkpt><trkpt lat="39.54539" lon="8.4638933"><ele>13.2</ele><time>2026-05-01T14:39:52.502Z</time></trkpt><trkpt lat="39.5454967" lon="8.4638667"><ele>14.0</ele><time>2026-05-01T14:40:04.507Z</time></trkpt><trkpt lat="39.5455217" lon="8.463945"><ele>14.0</ele><time>2026-05-01T14:40:05.5Z</time></trkpt><trkpt lat="39.54555" lon="8.46404"><ele>13.999999999999998</ele><time>2026-05-01T14:40:06.503Z</time></trkpt><trkpt lat="39.5455933" lon="8.464145"><ele>13.999999999999998</ele><time>2026-05-01T14:40:07.504Z</time></trkpt><trkpt lat="39.545645" lon="8.4642633"><ele>14.0</ele><time>2026-05-01T14:40:08.526Z</time></trkpt><trkpt lat="39.5456967" lon="8.464375"><ele>14.0</ele><time>2026-05-01T14:40:09.504Z</time></trkpt><trkpt lat="39.545745" lon="8.4644933"><ele>14.0</ele><time>2026-05-01T14:40:10.505Z</time></trkpt><trkpt lat="39.5457883" lon="8.4646033"><ele>13.999999999999998</ele><time>2026-05-01T14:40:11.504Z</time></trkpt><trkpt lat="39.54583" lon="8.4647"><ele>13.999999999999998</ele><time>2026-05-01T14:40:12.503Z</time></trkpt><trkpt lat="39.545865" lon="8.4648"><ele>14.0</ele><time>2026-05-01T14:40:13.503Z</time></trkpt><trkpt lat="39.5458917" lon="8.46489"><ele>14.0</ele><time>2026-05-01T14:40:14.525Z</time></trkpt><trkpt lat="39.5459317" lon="8.4650267"><ele>13.333333333333334</ele><time>2026-05-01T14:40:16.501Z</time></trkpt><trkpt lat="39.545915" lon="8.4651283"><ele>12.666666666666668</ele><time>2026-05-01T14:40:19.505Z</time></trkpt><trkpt lat="39.54582" lon="8.46517"><ele>12.0</ele><time>2026-05-01T14:40:21.505Z</time></trkpt><trkpt lat="39.5457517" lon="8.4651733"><ele>11.333333333333334</ele><time>2026-05-01T14:40:22.502Z</time></trkpt><trkpt lat="39.5456883" lon="8.4651683"><ele>10.666666666666668</ele><time>2026-05-01T14:40:23.504Z</time></trkpt><trkpt lat="39.5456267" lon="8.46514"><ele>10.0</ele><time>2026-05-01T14:40:24.506Z</time></trkpt><trkpt lat="39.5455167" lon="8.465045"><ele>10.0</ele><time>2026-05-01T14:40:26.569Z</time></trkpt><trkpt lat="39.5454583" lon="8.4649733"><ele>10.0</ele><time>2026-05-01T14:40:27.502Z</time></trkpt><trkpt lat="39.5454067" lon="8.46488"><ele>10.0</ele><time>2026-05-01T14:40:28.504Z</time></trkpt><trkpt lat="39.54536" lon="8.464775"><ele>10.0</ele><time>2026-05-01T14:40:29.506Z</time></trkpt><trkpt lat="39.545315" lon="8.464665"><ele>10.0</ele><time>2026-05-01T14:40:30.505Z</time></trkpt><trkpt lat="39.5452583" lon="8.46455"><ele>9.8</ele><time>2026-05-01T14:40:31.503Z</time></trkpt><trkpt lat="39.5452117" lon="8.4644283"><ele>9.6</ele><time>2026-05-01T14:40:32.557Z</time></trkpt><trkpt lat="39.5451583" lon="8.4643283"><ele>9.4</ele><time>2026-05-01T14:40:33.506Z</time></trkpt><trkpt lat="39.54511" lon="8.4642367"><ele>9.2</ele><time>2026-05-01T14:40:34.505Z</time></trkpt><trkpt lat="39.5450633" lon="8.4641483"><ele>9.0</ele><time>2026-05-01T14:40:35.502Z</time></trkpt><trkpt lat="39.5450117" lon="8.4640383"><ele>9.0</ele><time>2026-05-01T14:40:36.5Z</time></trkpt><trkpt lat="39.5449717" lon="8.4639433"><ele>9.0</ele><time>2026-05-01T14:40:37.504Z</time></trkpt><trkpt lat="39.544935" lon="8.4638483"><ele>9.0</ele><time>2026-05-01T14:40:38.53Z</time></trkpt><trkpt lat="39.54491" lon="8.46376"><ele>9.0</ele><time>2026-05-01T14:40:39.501Z</time></trkpt><trkpt lat="39.5448933" lon="8.46366"><ele>9.0</ele><time>2026-05-01T14:40:40.503Z</time></trkpt><trkpt lat="39.544885" lon="8.463545"><ele>9.0</ele><time>2026-05-01T14:40:41.502Z</time></trkpt><trkpt lat="39.5448817" lon="8.463415"><ele>9.0</ele><time>2026-05-01T14:40:42.505Z</time></trkpt><trkpt lat="39.5448817" lon="8.4632917"><ele>9.0</ele><time>2026-05-01T14:40:43.501Z</time></trkpt><trkpt lat="39.5448867" lon="8.4631717"><ele>9.0</ele><time>2026-05-01T14:40:44.528Z</time></trkpt><trkpt lat="39.5448933" lon="8.46306"><ele>9.0</ele><time>2026-05-01T14:40:45.507Z</time></trkpt><trkpt lat="39.5448967" lon="8.4629517"><ele>9.0</ele><time>2026-05-01T14:40:46.503Z</time></trkpt><trkpt lat="39.5448917" lon="8.4628483"><ele>9.0</ele><time>2026-05-01T14:40:47.505Z</time></trkpt><trkpt lat="39.544885" lon="8.4627417"><ele>9.0</ele><time>2026-05-01T14:40:48.507Z</time></trkpt><trkpt lat="39.5448717" lon="8.4626367"><ele>9.0</ele><time>2026-05-01T14:40:49.508Z</time></trkpt><trkpt lat="39.5448517" lon="8.462535"><ele>9.0</ele><time>2026-05-01T14:40:50.527Z</time></trkpt><trkpt lat="39.544825" lon="8.46244"><ele>9.0</ele><time>2026-05-01T14:40:51.506Z</time></trkpt><trkpt lat="39.5448" lon="8.4623533"><ele>9.0</ele><time>2026-05-01T14:40:52.504Z</time></trkpt><trkpt lat="39.544775" lon="8.462275"><ele>9.0</ele><time>2026-05-01T14:40:53.502Z</time></trkpt><trkpt lat="39.54474" lon="8.46216"><ele>8.8</ele><time>2026-05-01T14:40:55.503Z</time></trkpt><trkpt lat="39.5447283" lon="8.46204"><ele>8.600000000000001</ele><time>2026-05-01T14:40:59.504Z</time></trkpt><trkpt lat="39.5447283" lon="8.4619083"><ele>8.4</ele><time>2026-05-01T14:41:01.504Z</time></trkpt><trkpt lat="39.54474" lon="8.461755"><ele>8.200000000000001</ele><time>2026-05-01T14:41:03.501Z</time></trkpt><trkpt lat="39.5447583" lon="8.46159"><ele>8.0</ele><time>2026-05-01T14:41:05.501Z</time></trkpt><trkpt lat="39.5447617" lon="8.4614967"><ele>7.999999999999999</ele><time>2026-05-01T14:41:06.506Z</time></trkpt><trkpt lat="39.5447633" lon="8.461405"><ele>8.0</ele><time>2026-05-01T14:41:07.504Z</time></trkpt><trkpt lat="39.54476" lon="8.4613167"><ele>8.0</ele><time>2026-05-01T14:41:08.529Z</time></trkpt><trkpt lat="39.5447483" lon="8.4612317"><ele>8.0</ele><time>2026-05-01T14:41:09.504Z</time></trkpt><trkpt lat="39.54473" lon="8.46114"><ele>7.999999999999999</ele><time>2026-05-01T14:41:10.503Z</time></trkpt><trkpt lat="39.5447117" lon="8.46106"><ele>8.0</ele><time>2026-05-01T14:41:11.5Z</time></trkpt><trkpt lat="39.5446717" lon="8.46092"><ele>7.833333333333333</ele><time>2026-05-01T14:41:13.501Z</time></trkpt><trkpt lat="39.5446233" lon="8.4607717"><ele>7.666666666666666</ele><time>2026-05-01T14:41:15.502Z</time></trkpt><trkpt lat="39.5445933" lon="8.4606917"><ele>7.5</ele><time>2026-05-01T14:41:16.505Z</time></trkpt><trkpt lat="39.5445683" lon="8.4606083"><ele>7.333333333333334</ele><time>2026-05-01T14:41:17.505Z</time></trkpt><trkpt lat="39.5445483" lon="8.4605183"><ele>7.166666666666667</ele><time>2026-05-01T14:41:18.504Z</time></trkpt><trkpt lat="39.5445283" lon="8.4604217"><ele>7.0</ele><time>2026-05-01T14:41:19.502Z</time></trkpt><trkpt lat="39.544515" lon="8.46032"><ele>7.000000000000001</ele><time>2026-05-01T14:41:20.527Z</time></trkpt><trkpt lat="39.5444983" lon="8.4602167"><ele>7.0</ele><time>2026-05-01T14:41:21.502Z</time></trkpt><trkpt lat="39.54448" lon="8.460125"><ele>7.0</ele><time>2026-05-01T14:41:22.502Z</time></trkpt><trkpt lat="39.5444633" lon="8.460045"><ele>7.0</ele><time>2026-05-01T14:41:23.503Z</time></trkpt><trkpt lat="39.5444333" lon="8.459905"><ele>7.000000000000001</ele><time>2026-05-01T14:41:25.503Z</time></trkpt><trkpt lat="39.5444133" lon="8.45979"><ele>7.0</ele><time>2026-05-01T14:41:27.505Z</time></trkpt><trkpt lat="39.5443733" lon="8.459715"><ele>7.000000000000001</ele><time>2026-05-01T14:41:29.506Z</time></trkpt><trkpt lat="39.5443017" lon="8.4596683"><ele>7.0</ele><time>2026-05-01T14:41:31.502Z</time></trkpt><trkpt lat="39.5442383" lon="8.459625"><ele>7.0</ele><time>2026-05-01T14:41:33.502Z</time></trkpt><trkpt lat="39.5441767" lon="8.4595417"><ele>7.0</ele><time>2026-05-01T14:41:35.502Z</time></trkpt><trkpt lat="39.544145" lon="8.459425"><ele>7.000000000000001</ele><time>2026-05-01T14:41:37.502Z</time></trkpt><trkpt lat="39.54414" lon="8.459285"><ele>7.0</ele><time>2026-05-01T14:41:39.501Z</time></trkpt><trkpt lat="39.54414" lon="8.4592"><ele>6.833333333333334</ele><time>2026-05-01T14:41:40.504Z</time></trkpt><trkpt lat="39.5441383" lon="8.45911"><ele>6.666666666666667</ele><time>2026-05-01T14:41:41.504Z</time></trkpt><trkpt lat="39.5441317" lon="8.4590133"><ele>6.5</ele><time>2026-05-01T14:41:42.503Z</time></trkpt><trkpt lat="39.544125" lon="8.4589117"><ele>6.333333333333334</ele><time>2026-05-01T14:41:43.499Z</time></trkpt><trkpt lat="39.5441183" lon="8.4588"><ele>6.166666666666667</ele><time>2026-05-01T14:41:44.525Z</time></trkpt><trkpt lat="39.5441167" lon="8.45868"><ele>6.0</ele><time>2026-05-01T14:41:45.501Z</time></trkpt><trkpt lat="39.5441033" lon="8.4585317"><ele>5.75</ele><time>2026-05-01T14:41:46.502Z</time></trkpt><trkpt lat="39.54409" lon="8.45837"><ele>5.5</ele><time>2026-05-01T14:41:47.503Z</time></trkpt><trkpt lat="39.5441083" lon="8.4582217"><ele>5.25</ele><time>2026-05-01T14:41:48.504Z</time></trkpt><trkpt lat="39.54414" lon="8.4580583"><ele>5.0</ele><time>2026-05-01T14:41:49.503Z</time></trkpt><trkpt lat="39.5441733" lon="8.45791"><ele>4.75</ele><time>2026-05-01T14:41:50.526Z</time></trkpt><trkpt lat="39.5442233" lon="8.4577467"><ele>4.5</ele><time>2026-05-01T14:41:51.503Z</time></trkpt><trkpt lat="39.5442533" lon="8.4576"><ele>4.25</ele><time>2026-05-01T14:41:52.501Z</time></trkpt><trkpt lat="39.5442683" lon="8.4574583"><ele>4.0</ele><time>2026-05-01T14:41:53.506Z</time></trkpt><trkpt lat="39.5442633" lon="8.45731"><ele>4.0</ele><time>2026-05-01T14:41:54.502Z</time></trkpt><trkpt lat="39.5442867" lon="8.457175"><ele>4.0</ele><time>2026-05-01T14:41:55.505Z</time></trkpt><trkpt lat="39.5443233" lon="8.4570517"><ele>4.0</ele><time>2026-05-01T14:41:56.568Z</time></trkpt><trkpt lat="39.5443717" lon="8.4569333"><ele>4.0</ele><time>2026-05-01T14:41:57.503Z</time></trkpt><trkpt lat="39.5444267" lon="8.4568133"><ele>4.0</ele><time>2026-05-01T14:41:58.5Z</time></trkpt><trkpt lat="39.5445" lon="8.45669"><ele>5.0</ele><time>2026-05-01T14:41:59.503Z</time></trkpt><trkpt lat="39.5445767" lon="8.4565717"><ele>6.0</ele><time>2026-05-01T14:42:00.502Z</time></trkpt><trkpt lat="39.544645" lon="8.4564617"><ele>7.0</ele><time>2026-05-01T14:42:01.501Z</time></trkpt><trkpt lat="39.5446983" lon="8.456355"><ele>8.0</ele><time>2026-05-01T14:42:02.56Z</time></trkpt><trkpt lat="39.5447567" lon="8.4562533"><ele>9.0</ele><time>2026-05-01T14:42:03.504Z</time></trkpt><trkpt lat="39.5447867" lon="8.456155"><ele>9.0</ele><time>2026-05-01T14:42:04.504Z</time></trkpt><trkpt lat="39.5448083" lon="8.4560467"><ele>9.0</ele><time>2026-05-01T14:42:05.504Z</time></trkpt><trkpt lat="39.544825" lon="8.4559517"><ele>9.0</ele><time>2026-05-01T14:42:06.505Z</time></trkpt><trkpt lat="39.5448217" lon="8.4558017"><ele>9.0</ele><time>2026-05-01T14:42:08.523Z</time></trkpt><trkpt lat="39.5447817" lon="8.455635"><ele>9.0</ele><time>2026-05-01T14:42:10.503Z</time></trkpt><trkpt lat="39.5447483" lon="8.455545"><ele>9.0</ele><time>2026-05-01T14:42:11.503Z</time></trkpt><trkpt lat="39.544715" lon="8.4554417"><ele>9.0</ele><time>2026-05-01T14:42:12.502Z</time></trkpt><trkpt lat="39.544675" lon="8.4553417"><ele>9.0</ele><time>2026-05-01T14:42:13.503Z</time></trkpt><trkpt lat="39.5446317" lon="8.4552283"><ele>9.0</ele><time>2026-05-01T14:42:14.528Z</time></trkpt><trkpt lat="39.54461" lon="8.4551217"><ele>9.0</ele><time>2026-05-01T14:42:15.502Z</time></trkpt><trkpt lat="39.5445933" lon="8.455025"><ele>9.0</ele><time>2026-05-01T14:42:16.524Z</time></trkpt><trkpt lat="39.5445817" lon="8.4549333"><ele>9.0</ele><time>2026-05-01T14:42:17.504Z</time></trkpt><trkpt lat="39.544575" lon="8.4548483"><ele>9.0</ele><time>2026-05-01T14:42:18.502Z</time></trkpt><trkpt lat="39.5445783" lon="8.4547617"><ele>9.0</ele><time>2026-05-01T14:42:19.504Z</time></trkpt><trkpt lat="39.5446017" lon="8.454635"><ele>9.0</ele><time>2026-05-01T14:42:21.501Z</time></trkpt><trkpt lat="39.5446467" lon="8.4545733"><ele>9.0</ele><time>2026-05-01T14:42:23.502Z</time></trkpt><trkpt lat="39.54474" lon="8.4546167"><ele>9.0</ele><time>2026-05-01T14:42:26.569Z</time></trkpt><trkpt lat="39.5448067" lon="8.4546567"><ele>9.0</ele><time>2026-05-01T14:42:28.503Z</time></trkpt><trkpt lat="39.5449033" lon="8.45464"><ele>9.0</ele><time>2026-05-01T14:42:31.504Z</time></trkpt><trkpt lat="39.5449667" lon="8.45457"><ele>9.0</ele><time>2026-05-01T14:42:33.503Z</time></trkpt><trkpt lat="39.5449967" lon="8.45449"><ele>9.0</ele><time>2026-05-01T14:42:35.505Z</time></trkpt><trkpt lat="39.5450167" lon="8.454385"><ele>9.0</ele><time>2026-05-01T14:42:38.526Z</time></trkpt><trkpt lat="39.5449967" lon="8.4542533"><ele>9.0</ele><time>2026-05-01T14:48:19.499Z</time></trkpt><trkpt lat="39.5449117" lon="8.4542633"><ele>9.0</ele><time>2026-05-01T14:48:22.501Z</time></trkpt><trkpt lat="39.544835" lon="8.45433"><ele>9.0</ele><time>2026-05-01T14:48:25.501Z</time></trkpt><trkpt lat="39.5447817" lon="8.4544317"><ele>9.0</ele><time>2026-05-01T14:48:28.501Z</time></trkpt><trkpt lat="39.5447333" lon="8.454535"><ele>9.0</ele><time>2026-05-01T14:48:31.504Z</time></trkpt><trkpt lat="39.5446767" lon="8.4546717"><ele>9.0</ele><time>2026-05-01T14:48:57.501Z</time></trkpt><trkpt lat="39.5446317" lon="8.4547683"><ele>9.0</ele><time>2026-05-01T14:49:00.503Z</time></trkpt><trkpt lat="39.5446317" lon="8.4548933"><ele>9.0</ele><time>2026-05-01T14:49:03.503Z</time></trkpt><trkpt lat="39.544645" lon="8.4550333"><ele>9.0</ele><time>2026-05-01T14:49:05.506Z</time></trkpt><trkpt lat="39.5446583" lon="8.45516"><ele>9.0</ele><time>2026-05-01T14:49:07.502Z</time></trkpt><trkpt lat="39.5446733" lon="8.4552883"><ele>9.0</ele><time>2026-05-01T14:49:09.503Z</time></trkpt><trkpt lat="39.5446917" lon="8.4554133"><ele>9.0</ele><time>2026-05-01T14:49:11.498Z</time></trkpt><trkpt lat="39.54472" lon="8.4555367"><ele>9.0</ele><time>2026-05-01T14:49:13.501Z</time></trkpt><trkpt lat="39.5447617" lon="8.4556583"><ele>9.0</ele><time>2026-05-01T14:49:15.503Z</time></trkpt><trkpt lat="39.5448167" lon="8.45579"><ele>9.0</ele><time>2026-05-01T14:49:17.501Z</time></trkpt><trkpt lat="39.54487" lon="8.4559233"><ele>9.0</ele><time>2026-05-01T14:49:19.5Z</time></trkpt><trkpt lat="39.5448917" lon="8.45604"><ele>9.0</ele><time>2026-05-01T14:49:21.498Z</time></trkpt><trkpt lat="39.5449083" lon="8.4561583"><ele>9.0</ele><time>2026-05-01T14:49:23.5Z</time></trkpt><trkpt lat="39.5448867" lon="8.45631"><ele>9.0</ele><time>2026-05-01T14:49:25.504Z</time></trkpt><trkpt lat="39.54484" lon="8.456455"><ele>9.0</ele><time>2026-05-01T14:49:27.505Z</time></trkpt><trkpt lat="39.5447983" lon="8.4565317"><ele>9.0</ele><time>2026-05-01T14:49:28.501Z</time></trkpt><trkpt lat="39.544745" lon="8.4566117"><ele>9.166666666666666</ele><time>2026-05-01T14:49:29.501Z</time></trkpt><trkpt lat="39.54469" lon="8.4566917"><ele>9.333333333333334</ele><time>2026-05-01T14:49:30.505Z</time></trkpt><trkpt lat="39.544635" lon="8.4567717"><ele>9.5</ele><time>2026-05-01T14:49:31.499Z</time></trkpt><trkpt lat="39.5445833" lon="8.4568483"><ele>9.666666666666668</ele><time>2026-05-01T14:49:32.556Z</time></trkpt><trkpt lat="39.54453" lon="8.45693"><ele>9.833333333333334</ele><time>2026-05-01T14:49:33.5Z</time></trkpt><trkpt lat="39.544485" lon="8.4570267"><ele>10.0</ele><time>2026-05-01T14:49:34.502Z</time></trkpt><trkpt lat="39.5444467" lon="8.457125"><ele>8.8</ele><time>2026-05-01T14:49:35.502Z</time></trkpt><trkpt lat="39.5444133" lon="8.45724"><ele>7.6</ele><time>2026-05-01T14:49:36.502Z</time></trkpt><trkpt lat="39.5443867" lon="8.4573567"><ele>6.4</ele><time>2026-05-01T14:49:37.499Z</time></trkpt><trkpt lat="39.544365" lon="8.4574767"><ele>5.2</ele><time>2026-05-01T14:49:38.532Z</time></trkpt><trkpt lat="39.5443433" lon="8.4575967"><ele>4.0</ele><time>2026-05-01T14:49:39.508Z</time></trkpt><trkpt lat="39.5443183" lon="8.4577317"><ele>4.0</ele><time>2026-05-01T14:49:40.501Z</time></trkpt><trkpt lat="39.5442867" lon="8.4578767"><ele>4.0</ele><time>2026-05-01T14:49:41.499Z</time></trkpt><trkpt lat="39.5442583" lon="8.45801"><ele>4.0</ele><time>2026-05-01T14:49:42.5Z</time></trkpt><trkpt lat="39.5442267" lon="8.458135"><ele>4.0</ele><time>2026-05-01T14:49:43.5Z</time></trkpt><trkpt lat="39.5442033" lon="8.458225"><ele>4.0</ele><time>2026-05-01T14:49:44.532Z</time></trkpt><trkpt lat="39.5441767" lon="8.458345"><ele>4.2</ele><time>2026-05-01T14:49:45.502Z</time></trkpt><trkpt lat="39.54416" lon="8.4584833"><ele>4.4</ele><time>2026-05-01T14:49:46.5Z</time></trkpt><trkpt lat="39.54415" lon="8.4586267"><ele>4.6</ele><time>2026-05-01T14:49:47.501Z</time></trkpt><trkpt lat="39.5441433" lon="8.4587467"><ele>4.8</ele><time>2026-05-01T14:49:48.502Z</time></trkpt><trkpt lat="39.5441467" lon="8.4588683"><ele>5.0</ele><time>2026-05-01T14:49:49.5Z</time></trkpt><trkpt lat="39.5441567" lon="8.4589733"><ele>5.166666666666667</ele><time>2026-05-01T14:49:50.535Z</time></trkpt><trkpt lat="39.5441717" lon="8.4590733"><ele>5.333333333333334</ele><time>2026-05-01T14:49:51.503Z</time></trkpt><trkpt lat="39.5441867" lon="8.4591717"><ele>5.5</ele><time>2026-05-01T14:49:52.501Z</time></trkpt><trkpt lat="39.5441983" lon="8.459265"><ele>5.666666666666667</ele><time>2026-05-01T14:49:53.498Z</time></trkpt><trkpt lat="39.5442033" lon="8.4593517"><ele>5.833333333333333</ele><time>2026-05-01T14:49:54.502Z</time></trkpt><trkpt lat="39.5442" lon="8.45951"><ele>6.0</ele><time>2026-05-01T14:49:56.565Z</time></trkpt><trkpt lat="39.544215" lon="8.4596333"><ele>6.166666666666667</ele><time>2026-05-01T14:49:58.507Z</time></trkpt><trkpt lat="39.5442533" lon="8.4597267"><ele>6.333333333333334</ele><time>2026-05-01T14:50:00.504Z</time></trkpt><trkpt lat="39.5442917" lon="8.4597933"><ele>6.5</ele><time>2026-05-01T14:50:02.556Z</time></trkpt><trkpt lat="39.5443167" lon="8.459895"><ele>6.666666666666667</ele><time>2026-05-01T14:50:05.5Z</time></trkpt><trkpt lat="39.544265" lon="8.4599683"><ele>6.833333333333334</ele><time>2026-05-01T14:50:08.53Z</time></trkpt><trkpt lat="39.5441967" lon="8.4600067"><ele>7.0</ele><time>2026-05-01T14:50:10.503Z</time></trkpt><trkpt lat="39.5441233" lon="8.4600233"><ele>7.0</ele><time>2026-05-01T14:50:13.499Z</time></trkpt><trkpt lat="39.544085" lon="8.4599383"><ele>6.999999999999999</ele><time>2026-05-01T14:50:16.504Z</time></trkpt><trkpt lat="39.5440083" lon="8.45982"><ele>6.999999999999999</ele><time>2026-05-01T14:50:47.503Z</time></trkpt><trkpt lat="39.5441167" lon="8.45982"><ele>7.0</ele><time>2026-05-01T14:51:57.506Z</time></trkpt><trkpt lat="39.5441617" lon="8.45992"><ele>7.0</ele><time>2026-05-01T14:53:48.501Z</time></trkpt><trkpt lat="39.5442267" lon="8.459915"><ele>7.0</ele><time>2026-05-01T14:53:53.498Z</time></trkpt><trkpt lat="39.5443" lon="8.4599"><ele>6.999999999999999</ele><time>2026-05-01T14:53:56.572Z</time></trkpt><trkpt lat="39.5443667" lon="8.4599567"><ele>6.999999999999999</ele><time>2026-05-01T14:53:58.5Z</time></trkpt><trkpt lat="39.544415" lon="8.4600817"><ele>7.0</ele><time>2026-05-01T14:54:00.501Z</time></trkpt><trkpt lat="39.5444683" lon="8.4602283"><ele>7.0</ele><time>2026-05-01T14:54:02.557Z</time></trkpt><trkpt lat="39.54453" lon="8.4603717"><ele>8.6</ele><time>2026-05-01T14:54:04.5Z</time></trkpt><trkpt lat="39.5445733" lon="8.4604383"><ele>10.2</ele><time>2026-05-01T14:54:05.499Z</time></trkpt><trkpt lat="39.5446467" lon="8.460555"><ele>11.8</ele><time>2026-05-01T14:54:07.5Z</time></trkpt><trkpt lat="39.5447133" lon="8.4607"><ele>13.4</ele><time>2026-05-01T14:54:09.501Z</time></trkpt><trkpt lat="39.54474" lon="8.4607967"><ele>15.0</ele><time>2026-05-01T14:54:10.503Z</time></trkpt><trkpt lat="39.5447667" lon="8.460895"><ele>15.0</ele><time>2026-05-01T14:54:11.503Z</time></trkpt><trkpt lat="39.5447933" lon="8.460995"><ele>15.0</ele><time>2026-05-01T14:54:12.506Z</time></trkpt><trkpt lat="39.54482" lon="8.461095"><ele>15.0</ele><time>2026-05-01T14:54:13.501Z</time></trkpt><trkpt lat="39.5448467" lon="8.4611917"><ele>15.0</ele><time>2026-05-01T14:54:14.538Z</time></trkpt><trkpt lat="39.544865" lon="8.46129"><ele>15.0</ele><time>2026-05-01T14:54:15.501Z</time></trkpt><trkpt lat="39.544875" lon="8.4613917"><ele>15.0</ele><time>2026-05-01T14:54:16.5Z</time></trkpt><trkpt lat="39.544875" lon="8.461495"><ele>13.833333333333334</ele><time>2026-05-01T14:54:17.502Z</time></trkpt><trkpt lat="39.5448717" lon="8.4615967"><ele>12.666666666666666</ele><time>2026-05-01T14:54:18.5Z</time></trkpt><trkpt lat="39.5448617" lon="8.4616967"><ele>11.5</ele><time>2026-05-01T14:54:19.499Z</time></trkpt><trkpt lat="39.5448467" lon="8.4617967"><ele>10.333333333333332</ele><time>2026-05-01T14:54:20.536Z</time></trkpt><trkpt lat="39.5448333" lon="8.4618967"><ele>9.166666666666666</ele><time>2026-05-01T14:54:21.503Z</time></trkpt><trkpt lat="39.544825" lon="8.4620033"><ele>8.0</ele><time>2026-05-01T14:54:22.499Z</time></trkpt><trkpt lat="39.5448167" lon="8.4621017"><ele>8.166666666666666</ele><time>2026-05-01T14:54:23.501Z</time></trkpt><trkpt lat="39.544815" lon="8.46219"><ele>8.333333333333332</ele><time>2026-05-01T14:54:24.5Z</time></trkpt><trkpt lat="39.5448367" lon="8.4623467"><ele>8.5</ele><time>2026-05-01T14:54:26.569Z</time></trkpt><trkpt lat="39.54486" lon="8.4624317"><ele>8.666666666666666</ele><time>2026-05-01T14:54:27.502Z</time></trkpt><trkpt lat="39.5448917" lon="8.4625267"><ele>8.833333333333334</ele><time>2026-05-01T14:54:28.501Z</time></trkpt><trkpt lat="39.54492" lon="8.4626267"><ele>9.0</ele><time>2026-05-01T14:54:29.498Z</time></trkpt><trkpt lat="39.5449383" lon="8.4627317"><ele>9.0</ele><time>2026-05-01T14:54:30.5Z</time></trkpt><trkpt lat="39.5449533" lon="8.4628267"><ele>9.0</ele><time>2026-05-01T14:54:31.501Z</time></trkpt><trkpt lat="39.54496" lon="8.4629233"><ele>9.0</ele><time>2026-05-01T14:54:32.558Z</time></trkpt><trkpt lat="39.5449583" lon="8.4630283"><ele>9.0</ele><time>2026-05-01T14:54:33.502Z</time></trkpt><trkpt lat="39.5449517" lon="8.46314"><ele>9.0</ele><time>2026-05-01T14:54:34.5Z</time></trkpt><trkpt lat="39.54494" lon="8.4632517"><ele>9.0</ele><time>2026-05-01T14:54:35.499Z</time></trkpt><trkpt lat="39.5449233" lon="8.46336"><ele>9.0</ele><time>2026-05-01T14:54:36.501Z</time></trkpt><trkpt lat="39.544905" lon="8.4634617"><ele>9.0</ele><time>2026-05-01T14:54:37.502Z</time></trkpt><trkpt lat="39.544895" lon="8.4635567"><ele>9.0</ele><time>2026-05-01T14:54:38.54Z</time></trkpt><trkpt lat="39.544895" lon="8.46365"><ele>9.0</ele><time>2026-05-01T14:54:39.502Z</time></trkpt><trkpt lat="39.544905" lon="8.463745"><ele>9.0</ele><time>2026-05-01T14:54:40.499Z</time></trkpt><trkpt lat="39.54493" lon="8.46384"><ele>9.0</ele><time>2026-05-01T14:54:41.505Z</time></trkpt><trkpt lat="39.544965" lon="8.4639367"><ele>9.0</ele><time>2026-05-01T14:54:42.502Z</time></trkpt><trkpt lat="39.5450117" lon="8.4640233"><ele>9.0</ele><time>2026-05-01T14:54:43.504Z</time></trkpt><trkpt lat="39.5450567" lon="8.46411"><ele>9.0</ele><time>2026-05-01T14:54:44.536Z</time></trkpt><trkpt lat="39.5451" lon="8.4641967"><ele>9.0</ele><time>2026-05-01T14:54:45.503Z</time></trkpt><trkpt lat="39.5451417" lon="8.4642933"><ele>9.0</ele><time>2026-05-01T14:54:46.503Z</time></trkpt><trkpt lat="39.545185" lon="8.4643967"><ele>9.0</ele><time>2026-05-01T14:54:47.497Z</time></trkpt><trkpt lat="39.54523" lon="8.4645083"><ele>9.166666666666666</ele><time>2026-05-01T14:54:48.505Z</time></trkpt><trkpt lat="39.545275" lon="8.4646183"><ele>9.333333333333334</ele><time>2026-05-01T14:54:49.501Z</time></trkpt><trkpt lat="39.54532" lon="8.4647233"><ele>9.5</ele><time>2026-05-01T14:54:50.538Z</time></trkpt><trkpt lat="39.545365" lon="8.46482"><ele>9.666666666666668</ele><time>2026-05-01T14:54:51.502Z</time></trkpt><trkpt lat="39.5454117" lon="8.4649067"><ele>9.833333333333334</ele><time>2026-05-01T14:54:52.501Z</time></trkpt><trkpt lat="39.5454567" lon="8.464985"><ele>10.0</ele><time>2026-05-01T14:54:53.503Z</time></trkpt><trkpt lat="39.5455033" lon="8.46505"><ele>10.0</ele><time>2026-05-01T14:54:54.503Z</time></trkpt><trkpt lat="39.5455583" lon="8.4651033"><ele>10.0</ele><time>2026-05-01T14:54:55.502Z</time></trkpt><trkpt lat="39.5456217" lon="8.4651433"><ele>10.0</ele><time>2026-05-01T14:54:56.566Z</time></trkpt><trkpt lat="39.5456917" lon="8.4651817"><ele>10.0</ele><time>2026-05-01T14:54:57.498Z</time></trkpt><trkpt lat="39.54576" lon="8.4652167"><ele>10.0</ele><time>2026-05-01T14:54:58.501Z</time></trkpt><trkpt lat="39.5458233" lon="8.4652417"><ele>10.0</ele><time>2026-05-01T14:54:59.5Z</time></trkpt><trkpt lat="39.54592" lon="8.4652817"><ele>10.0</ele><time>2026-05-01T14:55:01.504Z</time></trkpt><trkpt lat="39.5459933" lon="8.4653283"><ele>10.0</ele><time>2026-05-01T14:55:03.502Z</time></trkpt><trkpt lat="39.546015" lon="8.46545"><ele>10.0</ele><time>2026-05-01T14:55:06.5Z</time></trkpt><trkpt lat="39.5460083" lon="8.4655683"><ele>10.0</ele><time>2026-05-01T14:55:08.537Z</time></trkpt><trkpt lat="39.5460067" lon="8.4657117"><ele>10.0</ele><time>2026-05-01T14:55:10.5Z</time></trkpt><trkpt lat="39.5459917" lon="8.4658383"><ele>10.2</ele><time>2026-05-01T14:55:12.502Z</time></trkpt><trkpt lat="39.5459233" lon="8.4659517"><ele>10.4</ele><time>2026-05-01T14:55:14.538Z</time></trkpt><trkpt lat="39.5458233" lon="8.46602"><ele>10.600000000000001</ele><time>2026-05-01T14:55:16.505Z</time></trkpt><trkpt lat="39.5457033" lon="8.466025"><ele>10.8</ele><time>2026-05-01T14:55:18.502Z</time></trkpt><trkpt lat="39.5456333" lon="8.4659983"><ele>11.0</ele><time>2026-05-01T14:55:19.506Z</time></trkpt><trkpt lat="39.54556" lon="8.4659567"><ele>11.0</ele><time>2026-05-01T14:55:20.543Z</time></trkpt><trkpt lat="39.5454817" lon="8.4659017"><ele>11.0</ele><time>2026-05-01T14:55:21.5Z</time></trkpt><trkpt lat="39.5454" lon="8.4658417"><ele>11.0</ele><time>2026-05-01T14:55:22.5Z</time></trkpt><trkpt lat="39.5453233" lon="8.4657883"><ele>11.0</ele><time>2026-05-01T14:55:23.503Z</time></trkpt><trkpt lat="39.5452367" lon="8.4657167"><ele>11.0</ele><time>2026-05-01T14:55:24.501Z</time></trkpt><trkpt lat="39.54516" lon="8.46561"><ele>10.200000000000001</ele><time>2026-05-01T14:55:25.503Z</time></trkpt><trkpt lat="39.54506" lon="8.4655233"><ele>9.4</ele><time>2026-05-01T14:55:26.566Z</time></trkpt><trkpt lat="39.5449783" lon="8.4654283"><ele>8.6</ele><time>2026-05-01T14:55:27.503Z</time></trkpt><trkpt lat="39.54491" lon="8.465315"><ele>7.8</ele><time>2026-05-01T14:55:28.5Z</time></trkpt><trkpt lat="39.5448533" lon="8.4652117"><ele>7.0</ele><time>2026-05-01T14:55:29.501Z</time></trkpt><trkpt lat="39.5447783" lon="8.4650867"><ele>7.0</ele><time>2026-05-01T14:55:30.503Z</time></trkpt><trkpt lat="39.544715" lon="8.46496"><ele>7.0</ele><time>2026-05-01T14:55:31.5Z</time></trkpt><trkpt lat="39.5446717" lon="8.46481"><ele>7.0</ele><time>2026-05-01T14:55:32.552Z</time></trkpt><trkpt lat="39.5446083" lon="8.46469"><ele>7.0</ele><time>2026-05-01T14:55:33.501Z</time></trkpt><trkpt lat="39.5445333" lon="8.4645767"><ele>7.6</ele><time>2026-05-01T14:55:34.506Z</time></trkpt><trkpt lat="39.5444567" lon="8.464485"><ele>8.2</ele><time>2026-05-01T14:55:35.503Z</time></trkpt><trkpt lat="39.5443867" lon="8.4644083"><ele>8.8</ele><time>2026-05-01T14:55:36.503Z</time></trkpt><trkpt lat="39.5442817" lon="8.4643433"><ele>9.4</ele><time>2026-05-01T14:55:37.503Z</time></trkpt><trkpt lat="39.5441833" lon="8.4642667"><ele>10.0</ele><time>2026-05-01T14:55:38.538Z</time></trkpt><trkpt lat="39.5440733" lon="8.4642117"><ele>10.0</ele><time>2026-05-01T14:55:39.502Z</time></trkpt><trkpt lat="39.5439783" lon="8.4641433"><ele>10.0</ele><time>2026-05-01T14:55:40.5Z</time></trkpt><trkpt lat="39.5438917" lon="8.46408"><ele>10.0</ele><time>2026-05-01T14:55:41.501Z</time></trkpt><trkpt lat="39.5438083" lon="8.4640233"><ele>10.0</ele><time>2026-05-01T14:55:42.5Z</time></trkpt><trkpt lat="39.54372" lon="8.4639667"><ele>10.0</ele><time>2026-05-01T14:55:43.501Z</time></trkpt><trkpt lat="39.543625" lon="8.4639"><ele>10.8</ele><time>2026-05-01T14:55:44.534Z</time></trkpt><trkpt lat="39.5435317" lon="8.463845"><ele>11.6</ele><time>2026-05-01T14:55:45.5Z</time></trkpt><trkpt lat="39.543455" lon="8.4637983"><ele>12.399999999999999</ele><time>2026-05-01T14:55:46.501Z</time></trkpt><trkpt lat="39.5433767" lon="8.463755"><ele>13.2</ele><time>2026-05-01T14:55:47.5Z</time></trkpt><trkpt lat="39.5432917" lon="8.4637"><ele>14.0</ele><time>2026-05-01T14:55:48.499Z</time></trkpt><trkpt lat="39.5432167" lon="8.4636517"><ele>14.000000000000002</ele><time>2026-05-01T14:55:49.499Z</time></trkpt><trkpt lat="39.543155" lon="8.4635883"><ele>14.0</ele><time>2026-05-01T14:55:50.534Z</time></trkpt><trkpt lat="39.5430933" lon="8.463525"><ele>14.0</ele><time>2026-05-01T14:55:51.502Z</time></trkpt><trkpt lat="39.5430383" lon="8.4634467"><ele>14.0</ele><time>2026-05-01T14:55:52.499Z</time></trkpt><trkpt lat="39.5429867" lon="8.4633667"><ele>14.000000000000002</ele><time>2026-05-01T14:55:53.498Z</time></trkpt><trkpt lat="39.5429333" lon="8.4632833"><ele>14.0</ele><time>2026-05-01T14:55:54.502Z</time></trkpt><trkpt lat="39.5428833" lon="8.4631983"><ele>15.333333333333334</ele><time>2026-05-01T14:55:55.499Z</time></trkpt><trkpt lat="39.5428283" lon="8.463115"><ele>16.666666666666668</ele><time>2026-05-01T14:55:56.535Z</time></trkpt><trkpt lat="39.54277" lon="8.46303"><ele>18.0</ele><time>2026-05-01T14:55:57.499Z</time></trkpt><trkpt lat="39.5427083" lon="8.4629517"><ele>19.333333333333332</ele><time>2026-05-01T14:55:58.498Z</time></trkpt><trkpt lat="39.5426567" lon="8.4628733"><ele>20.666666666666664</ele><time>2026-05-01T14:55:59.499Z</time></trkpt><trkpt lat="39.5426167" lon="8.4627967"><ele>22.0</ele><time>2026-05-01T14:56:00.501Z</time></trkpt><trkpt lat="39.5425817" lon="8.4627233"><ele>22.0</ele><time>2026-05-01T14:56:01.506Z</time></trkpt><trkpt lat="39.542545" lon="8.4626517"><ele>22.0</ele><time>2026-05-01T14:56:02.554Z</time></trkpt><trkpt lat="39.5424667" lon="8.4625317"><ele>22.0</ele><time>2026-05-01T14:56:04.499Z</time></trkpt><trkpt lat="39.54238" lon="8.4624383"><ele>22.0</ele><time>2026-05-01T14:56:06.502Z</time></trkpt><trkpt lat="39.5422833" lon="8.4623817"><ele>22.0</ele><time>2026-05-01T14:56:08.537Z</time></trkpt><trkpt lat="39.5421617" lon="8.4623083"><ele>22.0</ele><time>2026-05-01T14:56:10.502Z</time></trkpt><trkpt lat="39.5420967" lon="8.4622533"><ele>22.0</ele><time>2026-05-01T14:56:11.501Z</time></trkpt><trkpt lat="39.5420267" lon="8.4621883"><ele>22.0</ele><time>2026-05-01T14:56:12.502Z</time></trkpt><trkpt lat="39.541955" lon="8.46213"><ele>22.0</ele><time>2026-05-01T14:56:13.5Z</time></trkpt><trkpt lat="39.5418733" lon="8.4620817"><ele>22.0</ele><time>2026-05-01T14:56:14.536Z</time></trkpt><trkpt lat="39.5417867" lon="8.4620433"><ele>22.0</ele><time>2026-05-01T14:56:15.499Z</time></trkpt><trkpt lat="39.54169" lon="8.4620183"><ele>23.8</ele><time>2026-05-01T14:56:16.5Z</time></trkpt><trkpt lat="39.5415867" lon="8.4620067"><ele>25.6</ele><time>2026-05-01T14:56:17.503Z</time></trkpt><trkpt lat="39.5414867" lon="8.462"><ele>27.400000000000002</ele><time>2026-05-01T14:56:18.502Z</time></trkpt><trkpt lat="39.5413833" lon="8.4619867"><ele>29.200000000000003</ele><time>2026-05-01T14:56:19.497Z</time></trkpt><trkpt lat="39.5412733" lon="8.46197"><ele>31.0</ele><time>2026-05-01T14:56:20.535Z</time></trkpt><trkpt lat="39.541165" lon="8.4619483"><ele>33.8</ele><time>2026-05-01T14:56:21.501Z</time></trkpt><trkpt lat="39.5410567" lon="8.46193"><ele>36.6</ele><time>2026-05-01T14:56:22.498Z</time></trkpt><trkpt lat="39.5409483" lon="8.46192"><ele>39.4</ele><time>2026-05-01T14:56:23.497Z</time></trkpt><trkpt lat="39.5408433" lon="8.4619133"><ele>42.2</ele><time>2026-05-01T14:56:24.499Z</time></trkpt><trkpt lat="39.540745" lon="8.4619133"><ele>45.0</ele><time>2026-05-01T14:56:25.499Z</time></trkpt><trkpt lat="39.540645" lon="8.4619033"><ele>45.0</ele><time>2026-05-01T14:56:26.565Z</time></trkpt><trkpt lat="39.5405583" lon="8.4618883"><ele>45.0</ele><time>2026-05-01T14:56:27.499Z</time></trkpt><trkpt lat="39.5404867" lon="8.461885"><ele>45.0</ele><time>2026-05-01T14:56:28.5Z</time></trkpt><trkpt lat="39.5403667" lon="8.4618783"><ele>45.0</ele><time>2026-05-01T14:56:30.498Z</time></trkpt><trkpt lat="39.5402517" lon="8.46191"><ele>45.0</ele><time>2026-05-01T14:56:32.552Z</time></trkpt><trkpt lat="39.54016" lon="8.46192"><ele>44.14285714285714</ele><time>2026-05-01T14:56:34.497Z</time></trkpt><trkpt lat="39.5400933" lon="8.4619167"><ele>43.28571428571429</ele><time>2026-05-01T14:56:36.499Z</time></trkpt><trkpt lat="39.5400283" lon="8.4619133"><ele>42.42857142857143</ele><time>2026-05-01T14:56:39.501Z</time></trkpt><trkpt lat="39.5399633" lon="8.4619017"><ele>41.57142857142857</ele><time>2026-05-01T14:56:44.535Z</time></trkpt><trkpt lat="39.5398967" lon="8.4619333"><ele>40.71428571428571</ele><time>2026-05-01T14:56:47.498Z</time></trkpt><trkpt lat="39.5398183" lon="8.461995"><ele>39.85714285714286</ele><time>2026-05-01T14:56:50.532Z</time></trkpt><trkpt lat="39.5397683" lon="8.462045"><ele>39.0</ele><time>2026-05-01T14:56:52.497Z</time></trkpt><trkpt lat="39.53972" lon="8.4621017"><ele>38.2</ele><time>2026-05-01T14:56:55.498Z</time></trkpt><trkpt lat="39.5396767" lon="8.4622117"><ele>37.4</ele><time>2026-05-01T14:57:06.5Z</time></trkpt><trkpt lat="39.5396417" lon="8.46232"><ele>36.6</ele><time>2026-05-01T14:57:08.537Z</time></trkpt><trkpt lat="39.5396067" lon="8.46245"><ele>35.8</ele><time>2026-05-01T14:57:10.5Z</time></trkpt><trkpt lat="39.539565" lon="8.4625667"><ele>35.0</ele><time>2026-05-01T14:57:12.498Z</time></trkpt><trkpt lat="39.5394933" lon="8.4626217"><ele>35.0</ele><time>2026-05-01T14:57:14.535Z</time></trkpt><trkpt lat="39.5394017" lon="8.4626333"><ele>35.0</ele><time>2026-05-01T14:57:16.499Z</time></trkpt><trkpt lat="39.5392967" lon="8.4625917"><ele>35.0</ele><time>2026-05-01T14:57:18.5Z</time></trkpt><trkpt lat="39.5392433" lon="8.4625483"><ele>35.0</ele><time>2026-05-01T14:57:19.497Z</time></trkpt><trkpt lat="39.539175" lon="8.46252"><ele>35.0</ele><time>2026-05-01T14:57:20.535Z</time></trkpt><trkpt lat="39.539105" lon="8.4625"><ele>35.0</ele><time>2026-05-01T14:57:21.498Z</time></trkpt><trkpt lat="39.5390367" lon="8.4624933"><ele>35.0</ele><time>2026-05-01T14:57:22.499Z</time></trkpt><trkpt lat="39.5389183" lon="8.46251"><ele>35.0</ele><time>2026-05-01T14:57:24.499Z</time></trkpt><trkpt lat="39.5388433" lon="8.4625517"><ele>35.0</ele><time>2026-05-01T14:57:26.562Z</time></trkpt><trkpt lat="39.5387783" lon="8.4626133"><ele>35.0</ele><time>2026-05-01T14:57:28.499Z</time></trkpt><trkpt lat="39.5387133" lon="8.4626967"><ele>35.0</ele><time>2026-05-01T14:57:30.499Z</time></trkpt><trkpt lat="39.53863" lon="8.462815"><ele>35.0</ele><time>2026-05-01T14:57:32.556Z</time></trkpt><trkpt lat="39.5385733" lon="8.4628817"><ele>35.0</ele><time>2026-05-01T14:57:33.496Z</time></trkpt><trkpt lat="39.5385167" lon="8.4629467"><ele>35.0</ele><time>2026-05-01T14:57:34.498Z</time></trkpt><trkpt lat="39.5384533" lon="8.463015"><ele>35.0</ele><time>2026-05-01T14:57:35.499Z</time></trkpt><trkpt lat="39.5383933" lon="8.463085"><ele>35.0</ele><time>2026-05-01T14:57:36.501Z</time></trkpt><trkpt lat="39.5383383" lon="8.46316"><ele>35.0</ele><time>2026-05-01T14:57:37.497Z</time></trkpt><trkpt lat="39.5382933" lon="8.4632417"><ele>35.0</ele><time>2026-05-01T14:57:38.535Z</time></trkpt><trkpt lat="39.538255" lon="8.4633233"><ele>35.0</ele><time>2026-05-01T14:57:39.499Z</time></trkpt><trkpt lat="39.5382217" lon="8.4633967"><ele>35.0</ele><time>2026-05-01T14:57:40.499Z</time></trkpt><trkpt lat="39.5381917" lon="8.46347"><ele>35.0</ele><time>2026-05-01T14:57:41.501Z</time></trkpt><trkpt lat="39.5381383" lon="8.4636"><ele>35.0</ele><time>2026-05-01T14:57:43.497Z</time></trkpt><trkpt lat="39.5380817" lon="8.463675"><ele>35.0</ele><time>2026-05-01T14:57:45.501Z</time></trkpt><trkpt lat="39.538005" lon="8.4636867"><ele>35.0</ele><time>2026-05-01T14:57:47.498Z</time></trkpt><trkpt lat="39.5379217" lon="8.4636467"><ele>35.0</ele><time>2026-05-01T14:57:49.498Z</time></trkpt><trkpt lat="39.537835" lon="8.4636483"><ele>35.0</ele><time>2026-05-01T14:57:51.5Z</time></trkpt><trkpt lat="39.53777" lon="8.4637167"><ele>35.0</ele><time>2026-05-01T14:57:53.496Z</time></trkpt><trkpt lat="39.5377233" lon="8.4638433"><ele>35.0</ele><time>2026-05-01T14:57:55.499Z</time></trkpt><trkpt lat="39.5377117" lon="8.463925"><ele>35.0</ele><time>2026-05-01T14:57:56.563Z</time></trkpt><trkpt lat="39.5377" lon="8.4640083"><ele>33.285714285714285</ele><time>2026-05-01T14:57:57.498Z</time></trkpt><trkpt lat="39.5376817" lon="8.4640883"><ele>31.57142857142857</ele><time>2026-05-01T14:57:58.498Z</time></trkpt><trkpt lat="39.5376583" lon="8.4641667"><ele>29.857142857142858</ele><time>2026-05-01T14:57:59.5Z</time></trkpt><trkpt lat="39.53763" lon="8.4642433"><ele>28.142857142857142</ele><time>2026-05-01T14:58:00.497Z</time></trkpt><trkpt lat="39.537595" lon="8.4643183"><ele>26.428571428571427</ele><time>2026-05-01T14:58:01.5Z</time></trkpt><trkpt lat="39.5375467" lon="8.4643867"><ele>24.714285714285715</ele><time>2026-05-01T14:58:02.552Z</time></trkpt><trkpt lat="39.5374917" lon="8.46445"><ele>23.0</ele><time>2026-05-01T14:58:03.498Z</time></trkpt><trkpt lat="39.5374233" lon="8.464515"><ele>23.0</ele><time>2026-05-01T14:58:04.497Z</time></trkpt><trkpt lat="39.5373417" lon="8.4645733"><ele>23.0</ele><time>2026-05-01T14:58:05.501Z</time></trkpt><trkpt lat="39.5372667" lon="8.464635"><ele>23.0</ele><time>2026-05-01T14:58:06.497Z</time></trkpt><trkpt lat="39.5371817" lon="8.464685"><ele>23.0</ele><time>2026-05-01T14:58:07.497Z</time></trkpt><trkpt lat="39.537105" lon="8.4647417"><ele>23.0</ele><time>2026-05-01T14:58:08.536Z</time></trkpt><trkpt lat="39.5370333" lon="8.4647717"><ele>23.0</ele><time>2026-05-01T14:58:09.5Z</time></trkpt><trkpt lat="39.536965" lon="8.4648133"><ele>22.714285714285715</ele><time>2026-05-01T14:58:10.497Z</time></trkpt><trkpt lat="39.53689" lon="8.4648567"><ele>22.428571428571427</ele><time>2026-05-01T14:58:11.499Z</time></trkpt><trkpt lat="39.5368283" lon="8.464905"><ele>22.142857142857142</ele><time>2026-05-01T14:58:12.5Z</time></trkpt><trkpt lat="39.536765" lon="8.464945"><ele>21.857142857142858</ele><time>2026-05-01T14:58:13.499Z</time></trkpt><trkpt lat="39.536705" lon="8.4649933"><ele>21.57142857142857</ele><time>2026-05-01T14:58:14.535Z</time></trkpt><trkpt lat="39.53664" lon="8.4650383"><ele>21.285714285714285</ele><time>2026-05-01T14:58:15.501Z</time></trkpt><trkpt lat="39.5365717" lon="8.4650767"><ele>21.0</ele><time>2026-05-01T14:58:16.498Z</time></trkpt><trkpt lat="39.53651" lon="8.4651217"><ele>21.0</ele><time>2026-05-01T14:58:17.497Z</time></trkpt><trkpt lat="39.536445" lon="8.46517"><ele>21.0</ele><time>2026-05-01T14:58:18.498Z</time></trkpt><trkpt lat="39.5363733" lon="8.4652217"><ele>21.0</ele><time>2026-05-01T14:58:19.501Z</time></trkpt><trkpt lat="39.5362967" lon="8.46528"><ele>21.0</ele><time>2026-05-01T14:58:20.535Z</time></trkpt><trkpt lat="39.53621" lon="8.465345"><ele>21.0</ele><time>2026-05-01T14:58:21.497Z</time></trkpt><trkpt lat="39.5361283" lon="8.4654017"><ele>21.0</ele><time>2026-05-01T14:58:22.498Z</time></trkpt><trkpt lat="39.5360483" lon="8.465475"><ele>22.4</ele><time>2026-05-01T14:58:23.5Z</time></trkpt><trkpt lat="39.5359717" lon="8.4655417"><ele>23.8</ele><time>2026-05-01T14:58:24.501Z</time></trkpt><trkpt lat="39.5358933" lon="8.4656033"><ele>25.199999999999996</ele><time>2026-05-01T14:58:25.499Z</time></trkpt><trkpt lat="39.5358183" lon="8.465665"><ele>26.599999999999998</ele><time>2026-05-01T14:58:26.566Z</time></trkpt><trkpt lat="39.535735" lon="8.4657217"><ele>28.0</ele><time>2026-05-01T14:58:27.503Z</time></trkpt><trkpt lat="39.5356333" lon="8.4657633"><ele>28.0</ele><time>2026-05-01T14:58:28.5Z</time></trkpt><trkpt lat="39.5355267" lon="8.465805"><ele>27.999999999999996</ele><time>2026-05-01T14:58:29.501Z</time></trkpt><trkpt lat="39.535425" lon="8.4658333"><ele>27.999999999999996</ele><time>2026-05-01T14:58:30.501Z</time></trkpt><trkpt lat="39.535325" lon="8.465865"><ele>28.0</ele><time>2026-05-01T14:58:31.499Z</time></trkpt><trkpt lat="39.5352333" lon="8.465885"><ele>28.0</ele><time>2026-05-01T14:58:32.551Z</time></trkpt><trkpt lat="39.5351267" lon="8.4659033"><ele>26.2</ele><time>2026-05-01T14:58:33.497Z</time></trkpt><trkpt lat="39.53502" lon="8.4659183"><ele>24.4</ele><time>2026-05-01T14:58:34.499Z</time></trkpt><trkpt lat="39.5349167" lon="8.46593"><ele>22.599999999999998</ele><time>2026-05-01T14:58:35.498Z</time></trkpt><trkpt lat="39.534815" lon="8.465935"><ele>20.799999999999997</ele><time>2026-05-01T14:58:36.499Z</time></trkpt><trkpt lat="39.5347267" lon="8.465935"><ele>19.0</ele><time>2026-05-01T14:58:37.5Z</time></trkpt><trkpt lat="39.5346383" lon="8.4659367"><ele>18.833333333333332</ele><time>2026-05-01T14:58:38.534Z</time></trkpt><trkpt lat="39.5345533" lon="8.4659283"><ele>18.666666666666664</ele><time>2026-05-01T14:58:39.499Z</time></trkpt><trkpt lat="39.5344717" lon="8.4659083"><ele>18.5</ele><time>2026-05-01T14:58:40.499Z</time></trkpt><trkpt lat="39.5344" lon="8.4658833"><ele>18.333333333333332</ele><time>2026-05-01T14:58:41.499Z</time></trkpt><trkpt lat="39.5343383" lon="8.4658533"><ele>18.166666666666668</ele><time>2026-05-01T14:58:42.499Z</time></trkpt><trkpt lat="39.53425" lon="8.4657883"><ele>18.0</ele><time>2026-05-01T14:58:44.533Z</time></trkpt><trkpt lat="39.5341833" lon="8.4657167"><ele>18.0</ele><time>2026-05-01T14:58:47.5Z</time></trkpt><trkpt lat="39.5341383" lon="8.4655983"><ele>18.0</ele><time>2026-05-01T14:58:50.539Z</time></trkpt><trkpt lat="39.5341133" lon="8.46549"><ele>18.0</ele><time>2026-05-01T14:58:52.502Z</time></trkpt><trkpt lat="39.5340917" lon="8.4653683"><ele>18.0</ele><time>2026-05-01T14:58:54.503Z</time></trkpt><trkpt lat="39.5340567" lon="8.4652933"><ele>18.0</ele><time>2026-05-01T14:58:56.571Z</time></trkpt><trkpt lat="39.533975" lon="8.4652767"><ele>18.0</ele><time>2026-05-01T14:58:59.503Z</time></trkpt><trkpt lat="39.53389" lon="8.4652567"><ele>17.833333333333332</ele><time>2026-05-01T15:00:18.499Z</time></trkpt><trkpt lat="39.5338183" lon="8.4652567"><ele>17.666666666666668</ele><time>2026-05-01T15:00:20.535Z</time></trkpt><trkpt lat="39.5337183" lon="8.4652233"><ele>17.5</ele><time>2026-05-01T15:00:22.497Z</time></trkpt><trkpt lat="39.5336133" lon="8.4651583"><ele>17.333333333333336</ele><time>2026-05-01T15:00:24.497Z</time></trkpt><trkpt lat="39.5335533" lon="8.4651217"><ele>17.166666666666668</ele><time>2026-05-01T15:00:25.499Z</time></trkpt><trkpt lat="39.5334883" lon="8.465085"><ele>17.0</ele><time>2026-05-01T15:00:26.549Z</time></trkpt><trkpt lat="39.533415" lon="8.4650517"><ele>17.833333333333336</ele><time>2026-05-01T15:00:27.496Z</time></trkpt><trkpt lat="39.533345" lon="8.4650233"><ele>18.666666666666668</ele><time>2026-05-01T15:00:28.502Z</time></trkpt><trkpt lat="39.5332717" lon="8.4650033"><ele>19.5</ele><time>2026-05-01T15:00:29.5Z</time></trkpt><trkpt lat="39.53319" lon="8.4649767"><ele>20.333333333333332</ele><time>2026-05-01T15:00:30.501Z</time></trkpt><trkpt lat="39.53312" lon="8.4649667"><ele>21.166666666666664</ele><time>2026-05-01T15:00:31.5Z</time></trkpt><trkpt lat="39.5330483" lon="8.4649583"><ele>22.0</ele><time>2026-05-01T15:00:32.553Z</time></trkpt><trkpt lat="39.5329733" lon="8.46496"><ele>22.0</ele><time>2026-05-01T15:00:33.497Z</time></trkpt><trkpt lat="39.5328967" lon="8.464975"><ele>22.0</ele><time>2026-05-01T15:00:34.497Z</time></trkpt><trkpt lat="39.5328233" lon="8.4649783"><ele>22.0</ele><time>2026-05-01T15:00:35.495Z</time></trkpt><trkpt lat="39.5327517" lon="8.4649867"><ele>22.0</ele><time>2026-05-01T15:00:36.502Z</time></trkpt><trkpt lat="39.532675" lon="8.4649917"><ele>22.0</ele><time>2026-05-01T15:00:37.498Z</time></trkpt><trkpt lat="39.5326" lon="8.465"><ele>22.0</ele><time>2026-05-01T15:00:38.538Z</time></trkpt><trkpt lat="39.5325267" lon="8.4650033"><ele>22.0</ele><time>2026-05-01T15:00:39.496Z</time></trkpt><trkpt lat="39.5323783" lon="8.4650383"><ele>22.6</ele><time>2026-05-01T15:00:41.499Z</time></trkpt><trkpt lat="39.5322983" lon="8.465065"><ele>23.200000000000003</ele><time>2026-05-01T15:00:42.497Z</time></trkpt><trkpt lat="39.53221" lon="8.4650983"><ele>23.8</ele><time>2026-05-01T15:00:43.498Z</time></trkpt><trkpt lat="39.5321017" lon="8.465155"><ele>24.4</ele><time>2026-05-01T15:00:44.533Z</time></trkpt><trkpt lat="39.53199" lon="8.465185"><ele>25.0</ele><time>2026-05-01T15:00:45.496Z</time></trkpt><trkpt lat="39.5318917" lon="8.4652267"><ele>26.75</ele><time>2026-05-01T15:00:46.498Z</time></trkpt><trkpt lat="39.53178" lon="8.4652617"><ele>28.5</ele><time>2026-05-01T15:00:47.494Z</time></trkpt><trkpt lat="39.5316683" lon="8.4652933"><ele>30.25</ele><time>2026-05-01T15:00:48.497Z</time></trkpt><trkpt lat="39.5315517" lon="8.4653217"><ele>32.0</ele><time>2026-05-01T15:00:49.497Z</time></trkpt><trkpt lat="39.5314483" lon="8.46535"><ele>32.0</ele><time>2026-05-01T15:00:50.534Z</time></trkpt><trkpt lat="39.5313383" lon="8.4653983"><ele>32.0</ele><time>2026-05-01T15:00:51.499Z</time></trkpt><trkpt lat="39.531235" lon="8.46541"><ele>32.0</ele><time>2026-05-01T15:00:52.5Z</time></trkpt><trkpt lat="39.5311283" lon="8.4654383"><ele>32.0</ele><time>2026-05-01T15:00:53.495Z</time></trkpt><trkpt lat="39.531025" lon="8.4654683"><ele>32.0</ele><time>2026-05-01T15:00:54.498Z</time></trkpt><trkpt lat="39.5309267" lon="8.465505"><ele>31.333333333333332</ele><time>2026-05-01T15:00:55.497Z</time></trkpt><trkpt lat="39.5308333" lon="8.4655283"><ele>30.666666666666664</ele><time>2026-05-01T15:00:56.552Z</time></trkpt><trkpt lat="39.53075" lon="8.4655433"><ele>30.0</ele><time>2026-05-01T15:00:57.495Z</time></trkpt><trkpt lat="39.530675" lon="8.4655783"><ele>29.333333333333336</ele><time>2026-05-01T15:00:58.494Z</time></trkpt><trkpt lat="39.5306117" lon="8.46562"><ele>28.666666666666668</ele><time>2026-05-01T15:00:59.497Z</time></trkpt><trkpt lat="39.530555" lon="8.465665"><ele>28.0</ele><time>2026-05-01T15:01:00.495Z</time></trkpt><trkpt lat="39.5304767" lon="8.4657567"><ele>28.000000000000004</ele><time>2026-05-01T15:01:02.55Z</time></trkpt><trkpt lat="39.5304233" lon="8.4658583"><ele>28.0</ele><time>2026-05-01T15:01:04.498Z</time></trkpt><trkpt lat="39.5304017" lon="8.4659417"><ele>28.0</ele><time>2026-05-01T15:01:06.5Z</time></trkpt><trkpt lat="39.5304717" lon="8.465905"><ele>28.0</ele><time>2026-05-01T15:01:13.494Z</time></trkpt><trkpt lat="39.530535" lon="8.4657817"><ele>28.000000000000004</ele><time>2026-05-01T15:01:15.496Z</time></trkpt><trkpt lat="39.5305917" lon="8.4657017"><ele>28.0</ele><time>2026-05-01T15:01:16.494Z</time></trkpt><trkpt lat="39.530665" lon="8.4656167"><ele>28.0</ele><time>2026-05-01T15:01:17.5Z</time></trkpt><trkpt lat="39.5307533" lon="8.46554"><ele>27.999999999999996</ele><time>2026-05-01T15:01:18.498Z</time></trkpt><trkpt lat="39.5308333" lon="8.4654783"><ele>27.999999999999996</ele><time>2026-05-01T15:01:19.497Z</time></trkpt><trkpt lat="39.5309283" lon="8.4654383"><ele>28.0</ele><time>2026-05-01T15:01:20.533Z</time></trkpt><trkpt lat="39.5310383" lon="8.465395"><ele>28.0</ele><time>2026-05-01T15:01:21.492Z</time></trkpt><trkpt lat="39.531175" lon="8.4653417"><ele>29.333333333333336</ele><time>2026-05-01T15:01:22.496Z</time></trkpt><trkpt lat="39.5313383" lon="8.4653"><ele>30.666666666666664</ele><time>2026-05-01T15:01:23.493Z</time></trkpt><trkpt lat="39.5314967" lon="8.4652767"><ele>32.0</ele><time>2026-05-01T15:01:24.497Z</time></trkpt><trkpt lat="39.53164" lon="8.4652433"><ele>32.0</ele><time>2026-05-01T15:01:25.497Z</time></trkpt><trkpt lat="39.5318333" lon="8.4652183"><ele>32.0</ele><time>2026-05-01T15:01:26.551Z</time></trkpt><trkpt lat="39.5319683" lon="8.4651817"><ele>32.0</ele><time>2026-05-01T15:01:27.496Z</time></trkpt><trkpt lat="39.5320983" lon="8.46514"><ele>30.25</ele><time>2026-05-01T15:01:28.496Z</time></trkpt><trkpt lat="39.5322233" lon="8.465095"><ele>28.5</ele><time>2026-05-01T15:01:29.494Z</time></trkpt><trkpt lat="39.5323383" lon="8.4650433"><ele>26.75</ele><time>2026-05-01T15:01:30.499Z</time></trkpt><trkpt lat="39.5324567" lon="8.464995"><ele>25.0</ele><time>2026-05-01T15:01:31.494Z</time></trkpt><trkpt lat="39.5325717" lon="8.4649433"><ele>25.0</ele><time>2026-05-01T15:01:32.551Z</time></trkpt><trkpt lat="39.532685" lon="8.4648867"><ele>25.0</ele><time>2026-05-01T15:01:33.492Z</time></trkpt><trkpt lat="39.5327967" lon="8.4648267"><ele>25.0</ele><time>2026-05-01T15:01:34.494Z</time></trkpt><trkpt lat="39.5329017" lon="8.4647667"><ele>25.0</ele><time>2026-05-01T15:01:35.497Z</time></trkpt><trkpt lat="39.5330033" lon="8.4647067"><ele>24.25</ele><time>2026-05-01T15:01:36.494Z</time></trkpt><trkpt lat="39.5330933" lon="8.464615"><ele>23.5</ele><time>2026-05-01T15:01:37.5Z</time></trkpt><trkpt lat="39.5331867" lon="8.464535"><ele>22.75</ele><time>2026-05-01T15:01:38.533Z</time></trkpt><trkpt lat="39.5332867" lon="8.464445"><ele>22.0</ele><time>2026-05-01T15:01:39.498Z</time></trkpt><trkpt lat="39.5333883" lon="8.46436"><ele>22.0</ele><time>2026-05-01T15:01:40.494Z</time></trkpt><trkpt lat="39.53348" lon="8.4642867"><ele>22.0</ele><time>2026-05-01T15:01:41.497Z</time></trkpt><trkpt lat="39.5335717" lon="8.464185"><ele>22.0</ele><time>2026-05-01T15:01:42.498Z</time></trkpt><trkpt lat="39.5336883" lon="8.4640967"><ele>22.0</ele><time>2026-05-01T15:01:43.498Z</time></trkpt><trkpt lat="39.533785" lon="8.4639933"><ele>22.0</ele><time>2026-05-01T15:01:44.531Z</time></trkpt><trkpt lat="39.5338767" lon="8.46392"><ele>22.0</ele><time>2026-05-01T15:01:45.496Z</time></trkpt><trkpt lat="39.53396" lon="8.4638617"><ele>22.0</ele><time>2026-05-01T15:01:46.499Z</time></trkpt><trkpt lat="39.534045" lon="8.463805"><ele>22.0</ele><time>2026-05-01T15:01:47.498Z</time></trkpt><trkpt lat="39.53414" lon="8.4637483"><ele>22.0</ele><time>2026-05-01T15:01:48.498Z</time></trkpt><trkpt lat="39.5342367" lon="8.4636917"><ele>21.8</ele><time>2026-05-01T15:01:49.499Z</time></trkpt><trkpt lat="39.5343317" lon="8.4636467"><ele>21.6</ele><time>2026-05-01T15:01:50.532Z</time></trkpt><trkpt lat="39.5344183" lon="8.4635833"><ele>21.400000000000002</ele><time>2026-05-01T15:01:51.497Z</time></trkpt><trkpt lat="39.534505" lon="8.4635317"><ele>21.200000000000003</ele><time>2026-05-01T15:01:52.497Z</time></trkpt><trkpt lat="39.5345717" lon="8.463475"><ele>21.0</ele><time>2026-05-01T15:01:53.497Z</time></trkpt><trkpt lat="39.5347033" lon="8.4632967"><ele>21.0</ele><time>2026-05-01T15:01:55.5Z</time></trkpt><trkpt lat="39.5347867" lon="8.4631833"><ele>21.0</ele><time>2026-05-01T15:01:56.547Z</time></trkpt><trkpt lat="39.5348617" lon="8.4630767"><ele>21.0</ele><time>2026-05-01T15:01:57.499Z</time></trkpt><trkpt lat="39.53494" lon="8.4629617"><ele>21.0</ele><time>2026-05-01T15:01:58.497Z</time></trkpt><trkpt lat="39.5350167" lon="8.4628483"><ele>22.5</ele><time>2026-05-01T15:01:59.497Z</time></trkpt><trkpt lat="39.5350917" lon="8.4627233"><ele>24.0</ele><time>2026-05-01T15:02:00.495Z</time></trkpt><trkpt lat="39.53516" lon="8.4625967"><ele>25.5</ele><time>2026-05-01T15:02:01.497Z</time></trkpt><trkpt lat="39.5352383" lon="8.4624667"><ele>27.0</ele><time>2026-05-01T15:02:02.544Z</time></trkpt><trkpt lat="39.5352983" lon="8.4623633"><ele>27.0</ele><time>2026-05-01T15:02:03.499Z</time></trkpt><trkpt lat="39.535355" lon="8.4622733"><ele>27.000000000000004</ele><time>2026-05-01T15:02:04.496Z</time></trkpt><trkpt lat="39.5353867" lon="8.4621717"><ele>27.000000000000004</ele><time>2026-05-01T15:02:05.494Z</time></trkpt><trkpt lat="39.53544" lon="8.4620683"><ele>27.0</ele><time>2026-05-01T15:02:06.499Z</time></trkpt><trkpt lat="39.535495" lon="8.4619633"><ele>27.0</ele><time>2026-05-01T15:02:07.497Z</time></trkpt><trkpt lat="39.5355533" lon="8.4618567"><ele>25.400000000000002</ele><time>2026-05-01T15:02:08.532Z</time></trkpt><trkpt lat="39.5356067" lon="8.4617483"><ele>23.800000000000004</ele><time>2026-05-01T15:02:09.497Z</time></trkpt><trkpt lat="39.5356567" lon="8.461645"><ele>22.2</ele><time>2026-05-01T15:02:10.496Z</time></trkpt><trkpt lat="39.5356983" lon="8.4615417"><ele>20.6</ele><time>2026-05-01T15:02:11.496Z</time></trkpt><trkpt lat="39.5357517" lon="8.4614367"><ele>19.0</ele><time>2026-05-01T15:02:12.499Z</time></trkpt><trkpt lat="39.535805" lon="8.4613283"><ele>19.4</ele><time>2026-05-01T15:02:13.497Z</time></trkpt><trkpt lat="39.5358467" lon="8.4612117"><ele>19.799999999999997</ele><time>2026-05-01T15:02:14.535Z</time></trkpt><trkpt lat="39.5358967" lon="8.4610667"><ele>20.200000000000003</ele><time>2026-05-01T15:02:15.496Z</time></trkpt><trkpt lat="39.5359467" lon="8.4609533"><ele>20.6</ele><time>2026-05-01T15:02:16.497Z</time></trkpt><trkpt lat="39.535975" lon="8.4608267"><ele>21.0</ele><time>2026-05-01T15:02:17.5Z</time></trkpt><trkpt lat="39.5359967" lon="8.4607067"><ele>21.0</ele><time>2026-05-01T15:02:18.499Z</time></trkpt><trkpt lat="39.5360317" lon="8.4605767"><ele>21.0</ele><time>2026-05-01T15:02:19.498Z</time></trkpt><trkpt lat="39.5360633" lon="8.4604433"><ele>21.0</ele><time>2026-05-01T15:02:20.533Z</time></trkpt><trkpt lat="39.5360933" lon="8.4603017"><ele>21.0</ele><time>2026-05-01T15:02:21.5Z</time></trkpt><trkpt lat="39.536115" lon="8.4601633"><ele>21.0</ele><time>2026-05-01T15:02:22.497Z</time></trkpt><trkpt lat="39.53613" lon="8.46003"><ele>21.8</ele><time>2026-05-01T15:02:23.496Z</time></trkpt><trkpt lat="39.5361433" lon="8.4599"><ele>22.6</ele><time>2026-05-01T15:02:24.501Z</time></trkpt><trkpt lat="39.5361533" lon="8.45977"><ele>23.4</ele><time>2026-05-01T15:02:25.497Z</time></trkpt><trkpt lat="39.536165" lon="8.4596367"><ele>24.2</ele><time>2026-05-01T15:02:26.564Z</time></trkpt><trkpt lat="39.5361833" lon="8.4595017"><ele>25.0</ele><time>2026-05-01T15:02:27.5Z</time></trkpt><trkpt lat="39.5362117" lon="8.4593717"><ele>23.0</ele><time>2026-05-01T15:02:28.5Z</time></trkpt><trkpt lat="39.5362583" lon="8.45924"><ele>21.0</ele><time>2026-05-01T15:02:29.5Z</time></trkpt><trkpt lat="39.5363133" lon="8.4591067"><ele>19.0</ele><time>2026-05-01T15:02:30.501Z</time></trkpt><trkpt lat="39.536365" lon="8.4589783"><ele>17.0</ele><time>2026-05-01T15:02:31.497Z</time></trkpt><trkpt lat="39.5364233" lon="8.45885"><ele>18.0</ele><time>2026-05-01T15:02:32.552Z</time></trkpt><trkpt lat="39.5364783" lon="8.4587317"><ele>19.0</ele><time>2026-05-01T15:02:33.499Z</time></trkpt><trkpt lat="39.5365317" lon="8.4586183"><ele>20.0</ele><time>2026-05-01T15:02:34.5Z</time></trkpt><trkpt lat="39.5365783" lon="8.4585183"><ele>21.0</ele><time>2026-05-01T15:02:35.503Z</time></trkpt><trkpt lat="39.5366233" lon="8.45843"><ele>22.0</ele><time>2026-05-01T15:02:36.495Z</time></trkpt><trkpt lat="39.5366667" lon="8.4583567"><ele>22.0</ele><time>2026-05-01T15:02:37.495Z</time></trkpt><trkpt lat="39.5367117" lon="8.4582933"><ele>22.0</ele><time>2026-05-01T15:02:38.536Z</time></trkpt><trkpt lat="39.5367633" lon="8.4582367"><ele>22.0</ele><time>2026-05-01T15:02:39.497Z</time></trkpt><trkpt lat="39.53682" lon="8.4581833"><ele>22.0</ele><time>2026-05-01T15:02:40.498Z</time></trkpt><trkpt lat="39.5368733" lon="8.4581317"><ele>22.0</ele><time>2026-05-01T15:02:41.503Z</time></trkpt><trkpt lat="39.53696" lon="8.4580783"><ele>22.0</ele><time>2026-05-01T15:02:43.496Z</time></trkpt><trkpt lat="39.5370317" lon="8.458035"><ele>22.0</ele><time>2026-05-01T15:02:47.5Z</time></trkpt><trkpt lat="39.5370983" lon="8.4580083"><ele>20.6</ele><time>2026-05-01T15:02:50.531Z</time></trkpt><trkpt lat="39.5371933" lon="8.4579783"><ele>19.200000000000003</ele><time>2026-05-01T15:02:52.497Z</time></trkpt><trkpt lat="39.537295" lon="8.4579867"><ele>17.8</ele><time>2026-05-01T15:02:54.497Z</time></trkpt><trkpt lat="39.537395" lon="8.45793"><ele>16.4</ele><time>2026-05-01T15:02:56.549Z</time></trkpt><trkpt lat="39.5374483" lon="8.4578683"><ele>15.0</ele><time>2026-05-01T15:02:57.495Z</time></trkpt><trkpt lat="39.5374867" lon="8.457785"><ele>14.833333333333334</ele><time>2026-05-01T15:02:58.497Z</time></trkpt><trkpt lat="39.5375233" lon="8.45769"><ele>14.666666666666668</ele><time>2026-05-01T15:02:59.493Z</time></trkpt><trkpt lat="39.53757" lon="8.4575867"><ele>14.5</ele><time>2026-05-01T15:03:00.496Z</time></trkpt><trkpt lat="39.53761" lon="8.457515"><ele>14.333333333333334</ele><time>2026-05-01T15:03:01.495Z</time></trkpt><trkpt lat="39.53767" lon="8.457415"><ele>14.166666666666668</ele><time>2026-05-01T15:03:02.551Z</time></trkpt><trkpt lat="39.5377283" lon="8.45732"><ele>14.0</ele><time>2026-05-01T15:03:03.495Z</time></trkpt><trkpt lat="39.5377933" lon="8.4572067"><ele>13.0</ele><time>2026-05-01T15:03:04.498Z</time></trkpt><trkpt lat="39.5378583" lon="8.4570817"><ele>12.0</ele><time>2026-05-01T15:03:05.493Z</time></trkpt><trkpt lat="39.5379283" lon="8.45696"><ele>11.0</ele><time>2026-05-01T15:03:06.495Z</time></trkpt><trkpt lat="39.5379867" lon="8.4568383"><ele>10.0</ele><time>2026-05-01T15:03:07.497Z</time></trkpt><trkpt lat="39.538055" lon="8.456725"><ele>10.0</ele><time>2026-05-01T15:03:08.53Z</time></trkpt><trkpt lat="39.538125" lon="8.4566"><ele>10.0</ele><time>2026-05-01T15:03:09.496Z</time></trkpt><trkpt lat="39.53819" lon="8.4564817"><ele>10.0</ele><time>2026-05-01T15:03:10.495Z</time></trkpt><trkpt lat="39.5382533" lon="8.4563633"><ele>10.0</ele><time>2026-05-01T15:03:11.498Z</time></trkpt><trkpt lat="39.5383" lon="8.456265"><ele>10.0</ele><time>2026-05-01T15:03:12.498Z</time></trkpt><trkpt lat="39.5383533" lon="8.4561817"><ele>11.2</ele><time>2026-05-01T15:03:13.498Z</time></trkpt><trkpt lat="39.5383983" lon="8.456115"><ele>12.4</ele><time>2026-05-01T15:03:14.531Z</time></trkpt><trkpt lat="39.5384817" lon="8.4560067"><ele>13.600000000000001</ele><time>2026-05-01T15:03:16.496Z</time></trkpt><trkpt lat="39.53855" lon="8.4559117"><ele>14.8</ele><time>2026-05-01T15:03:18.494Z</time></trkpt><trkpt lat="39.5386217" lon="8.45581"><ele>16.0</ele><time>2026-05-01T15:03:20.529Z</time></trkpt><trkpt lat="39.5386983" lon="8.4557033"><ele>15.499999999999998</ele><time>2026-05-01T15:03:22.496Z</time></trkpt><trkpt lat="39.538755" lon="8.4556017"><ele>15.0</ele><time>2026-05-01T15:03:24.498Z</time></trkpt><trkpt lat="39.538795" lon="8.4555233"><ele>14.5</ele><time>2026-05-01T15:03:26.55Z</time></trkpt><trkpt lat="39.5388167" lon="8.4554367"><ele>14.0</ele><time>2026-05-01T15:03:31.497Z</time></trkpt><trkpt lat="39.5387983" lon="8.4553567"><ele>13.499999999999998</ele><time>2026-05-01T15:03:33.498Z</time></trkpt><trkpt lat="39.53879" lon="8.45524"><ele>13.0</ele><time>2026-05-01T15:03:35.498Z</time></trkpt><trkpt lat="39.5388017" lon="8.4551267"><ele>13.166666666666666</ele><time>2026-05-01T15:03:37.495Z</time></trkpt><trkpt lat="39.538835" lon="8.4550383"><ele>13.333333333333332</ele><time>2026-05-01T15:03:39.495Z</time></trkpt><trkpt lat="39.5388767" lon="8.454915"><ele>13.5</ele><time>2026-05-01T15:03:41.501Z</time></trkpt><trkpt lat="39.5389017" lon="8.4548283"><ele>13.666666666666668</ele><time>2026-05-01T15:03:42.5Z</time></trkpt><trkpt lat="39.5389317" lon="8.4547333"><ele>13.833333333333334</ele><time>2026-05-01T15:03:43.494Z</time></trkpt><trkpt lat="39.5389717" lon="8.4546333"><ele>14.0</ele><time>2026-05-01T15:03:44.533Z</time></trkpt><trkpt lat="39.5390167" lon="8.4545333"><ele>14.000000000000002</ele><time>2026-05-01T15:03:45.496Z</time></trkpt><trkpt lat="39.53906" lon="8.45443"><ele>14.0</ele><time>2026-05-01T15:03:46.497Z</time></trkpt><trkpt lat="39.5391033" lon="8.4543267"><ele>14.0</ele><time>2026-05-01T15:03:47.499Z</time></trkpt><trkpt lat="39.5391483" lon="8.4542233"><ele>14.0</ele><time>2026-05-01T15:03:48.5Z</time></trkpt><trkpt lat="39.5391917" lon="8.45413"><ele>14.000000000000002</ele><time>2026-05-01T15:03:49.499Z</time></trkpt><trkpt lat="39.5392417" lon="8.454045"><ele>14.0</ele><time>2026-05-01T15:03:50.533Z</time></trkpt><trkpt lat="39.5392867" lon="8.4539617"><ele>14.0</ele><time>2026-05-01T15:03:51.501Z</time></trkpt><trkpt lat="39.53933" lon="8.4538817"><ele>14.0</ele><time>2026-05-01T15:03:52.494Z</time></trkpt><trkpt lat="39.53937" lon="8.453805"><ele>14.0</ele><time>2026-05-01T15:03:53.495Z</time></trkpt><trkpt lat="39.5394067" lon="8.453725"><ele>14.0</ele><time>2026-05-01T15:03:54.498Z</time></trkpt><trkpt lat="39.5394433" lon="8.4536467"><ele>14.0</ele><time>2026-05-01T15:03:55.498Z</time></trkpt><trkpt lat="39.5394867" lon="8.4535717"><ele>14.0</ele><time>2026-05-01T15:03:56.549Z</time></trkpt><trkpt lat="39.5395283" lon="8.4535067"><ele>14.0</ele><time>2026-05-01T15:03:57.499Z</time></trkpt><trkpt lat="39.53961" lon="8.453405"><ele>13.000000000000002</ele><time>2026-05-01T15:03:59.498Z</time></trkpt><trkpt lat="39.53968" lon="8.4533117"><ele>12.0</ele><time>2026-05-01T15:04:01.496Z</time></trkpt><trkpt lat="39.53978" lon="8.45322"><ele>11.0</ele><time>2026-05-01T15:04:03.494Z</time></trkpt><trkpt lat="39.5398333" lon="8.4531717"><ele>10.0</ele><time>2026-05-01T15:04:04.494Z</time></trkpt><trkpt lat="39.5398833" lon="8.4531133"><ele>9.0</ele><time>2026-05-01T15:04:05.495Z</time></trkpt><trkpt lat="39.5399317" lon="8.45304"><ele>8.0</ele><time>2026-05-01T15:04:06.496Z</time></trkpt><trkpt lat="39.5399667" lon="8.452955"><ele>7.999999999999999</ele><time>2026-05-01T15:04:07.499Z</time></trkpt><trkpt lat="39.5399983" lon="8.4528583"><ele>8.0</ele><time>2026-05-01T15:04:08.533Z</time></trkpt><trkpt lat="39.5400217" lon="8.4527617"><ele>8.0</ele><time>2026-05-01T15:04:09.5Z</time></trkpt><trkpt lat="39.54004" lon="8.4526633"><ele>8.0</ele><time>2026-05-01T15:04:10.497Z</time></trkpt><trkpt lat="39.5400533" lon="8.4525583"><ele>7.999999999999999</ele><time>2026-05-01T15:04:11.498Z</time></trkpt><trkpt lat="39.54007" lon="8.452445"><ele>8.0</ele><time>2026-05-01T15:04:12.501Z</time></trkpt><trkpt lat="39.5400833" lon="8.4523283"><ele>7.999999999999999</ele><time>2026-05-01T15:04:13.5Z</time></trkpt><trkpt lat="39.540095" lon="8.4522167"><ele>8.0</ele><time>2026-05-01T15:04:14.535Z</time></trkpt><trkpt lat="39.5401067" lon="8.4521067"><ele>8.0</ele><time>2026-05-01T15:04:15.493Z</time></trkpt><trkpt lat="39.5401217" lon="8.4520067"><ele>8.0</ele><time>2026-05-01T15:04:16.495Z</time></trkpt><trkpt lat="39.5401367" lon="8.45192"><ele>7.999999999999999</ele><time>2026-05-01T15:04:17.493Z</time></trkpt><trkpt lat="39.5401967" lon="8.4517767"><ele>8.0</ele><time>2026-05-01T15:04:19.498Z</time></trkpt><trkpt lat="39.54024" lon="8.4517017"><ele>7.666666666666666</ele><time>2026-05-01T15:04:20.524Z</time></trkpt><trkpt lat="39.5402717" lon="8.4516217"><ele>7.333333333333333</ele><time>2026-05-01T15:04:21.499Z</time></trkpt><trkpt lat="39.5403017" lon="8.4515367"><ele>7.0</ele><time>2026-05-01T15:04:22.497Z</time></trkpt><trkpt lat="39.5403233" lon="8.4514467"><ele>6.666666666666666</ele><time>2026-05-01T15:04:23.496Z</time></trkpt><trkpt lat="39.540345" lon="8.451365"><ele>6.333333333333333</ele><time>2026-05-01T15:04:24.499Z</time></trkpt><trkpt lat="39.540395" lon="8.451225"><ele>6.0</ele><time>2026-05-01T15:04:26.548Z</time></trkpt><trkpt lat="39.540465" lon="8.451135"><ele>5.8</ele><time>2026-05-01T15:04:28.499Z</time></trkpt><trkpt lat="39.540565" lon="8.4510667"><ele>5.6</ele><time>2026-05-01T15:04:30.5Z</time></trkpt><trkpt lat="39.540625" lon="8.4510383"><ele>5.4</ele><time>2026-05-01T15:04:31.497Z</time></trkpt><trkpt lat="39.5406867" lon="8.4510167"><ele>5.2</ele><time>2026-05-01T15:04:32.548Z</time></trkpt><trkpt lat="39.5407917" lon="8.4509733"><ele>5.0</ele><time>2026-05-01T15:04:34.498Z</time></trkpt><trkpt lat="39.5408917" lon="8.450935"><ele>5.0</ele><time>2026-05-01T15:04:36.499Z</time></trkpt><trkpt lat="39.5409883" lon="8.4509017"><ele>5.0</ele><time>2026-05-01T15:04:38.529Z</time></trkpt><trkpt lat="39.5410667" lon="8.4508867"><ele>5.0</ele><time>2026-05-01T15:04:40.498Z</time></trkpt><trkpt lat="39.5411517" lon="8.4508733"><ele>5.0</ele><time>2026-05-01T15:04:43.497Z</time></trkpt><trkpt lat="39.5412283" lon="8.450855"><ele>5.0</ele><time>2026-05-01T15:05:06.499Z</time></trkpt><trkpt lat="39.541315" lon="8.4507783"><ele>5.0</ele><time>2026-05-01T15:05:08.527Z</time></trkpt><trkpt lat="39.5413817" lon="8.450715"><ele>3.0</ele><time>2026-05-01T15:05:09.498Z</time></trkpt><trkpt lat="39.5414433" lon="8.4506667"><ele>3.0</ele><time>2026-05-01T15:05:10.498Z</time></trkpt><trkpt lat="39.5415033" lon="8.4506267"><ele>3.0</ele><time>2026-05-01T15:05:11.5Z</time></trkpt><trkpt lat="39.5416017" lon="8.4505717"><ele>3.0</ele><time>2026-05-01T15:05:13.498Z</time></trkpt><trkpt lat="39.5416667" lon="8.4505317"><ele>3.0</ele><time>2026-05-01T15:05:16.499Z</time></trkpt><trkpt lat="39.5416767" lon="8.4504067"><ele>3.0</ele><time>2026-05-01T15:07:16.494Z</time></trkpt></trkseg><trkseg><trkpt lat="39.5417917" lon="8.45038"><ele>3.0</ele><time>2026-05-01T16:19:54.491Z</time></trkpt><trkpt lat="39.54174" lon="8.4503317"><ele>3.0</ele><time>2026-05-01T16:20:06.493Z</time></trkpt><trkpt lat="39.54171" lon="8.450475"><ele>3.0</ele><time>2026-05-01T16:22:28.49Z</time></trkpt><trkpt lat="39.5416917" lon="8.4503967"><ele>3.0</ele><time>2026-05-01T16:22:36.491Z</time></trkpt><trkpt lat="39.54163" lon="8.450435"><ele>3.0</ele><time>2026-05-01T16:22:38.51Z</time></trkpt><trkpt lat="39.5415667" lon="8.4505167"><ele>3.0</ele><time>2026-05-01T16:22:40.494Z</time></trkpt><trkpt lat="39.5414817" lon="8.45061"><ele>3.0</ele><time>2026-05-01T16:22:42.491Z</time></trkpt><trkpt lat="39.5414017" lon="8.4507017"><ele>3.0</ele><time>2026-05-01T16:22:44.509Z</time></trkpt><trkpt lat="39.54133" lon="8.4507717"><ele>3.0</ele><time>2026-05-01T16:22:46.49Z</time></trkpt><trkpt lat="39.54127" lon="8.4508333"><ele>3.0</ele><time>2026-05-01T16:22:48.489Z</time></trkpt><trkpt lat="39.541225" lon="8.4508933"><ele>3.0</ele><time>2026-05-01T16:22:50.507Z</time></trkpt><trkpt lat="39.5411533" lon="8.450925"><ele>3.0</ele><time>2026-05-01T16:22:54.488Z</time></trkpt><trkpt lat="39.5410633" lon="8.4509567"><ele>3.4</ele><time>2026-05-01T16:22:56.492Z</time></trkpt><trkpt lat="39.5409567" lon="8.4510083"><ele>3.8</ele><time>2026-05-01T16:22:58.492Z</time></trkpt><trkpt lat="39.540895" lon="8.451035"><ele>4.2</ele><time>2026-05-01T16:22:59.494Z</time></trkpt><trkpt lat="39.5407733" lon="8.4510883"><ele>4.6</ele><time>2026-05-01T16:23:01.488Z</time></trkpt><trkpt lat="39.5407" lon="8.451115"><ele>5.0</ele><time>2026-05-01T16:23:02.493Z</time></trkpt><trkpt lat="39.5406317" lon="8.451145"><ele>5.0</ele><time>2026-05-01T16:23:03.488Z</time></trkpt><trkpt lat="39.5405667" lon="8.451165"><ele>5.0</ele><time>2026-05-01T16:23:04.493Z</time></trkpt><trkpt lat="39.5405067" lon="8.4512017"><ele>5.0</ele><time>2026-05-01T16:23:05.49Z</time></trkpt><trkpt lat="39.5404467" lon="8.4512567"><ele>5.0</ele><time>2026-05-01T16:23:06.488Z</time></trkpt><trkpt lat="39.5403817" lon="8.4513217"><ele>5.0</ele><time>2026-05-01T16:23:07.491Z</time></trkpt><trkpt lat="39.5403317" lon="8.4514"><ele>5.0</ele><time>2026-05-01T16:23:08.509Z</time></trkpt><trkpt lat="39.5402867" lon="8.4514867"><ele>5.0</ele><time>2026-05-01T16:23:09.491Z</time></trkpt><trkpt lat="39.5402583" lon="8.4515817"><ele>5.166666666666667</ele><time>2026-05-01T16:23:10.492Z</time></trkpt><trkpt lat="39.5402333" lon="8.4516717"><ele>5.333333333333334</ele><time>2026-05-01T16:23:11.489Z</time></trkpt><trkpt lat="39.540205" lon="8.451745"><ele>5.5</ele><time>2026-05-01T16:23:12.493Z</time></trkpt><trkpt lat="39.5401533" lon="8.4518917"><ele>5.666666666666667</ele><time>2026-05-01T16:23:14.509Z</time></trkpt><trkpt lat="39.5401367" lon="8.4519783"><ele>5.833333333333333</ele><time>2026-05-01T16:23:15.489Z</time></trkpt><trkpt lat="39.54012" lon="8.4520767"><ele>6.0</ele><time>2026-05-01T16:23:16.491Z</time></trkpt><trkpt lat="39.5401117" lon="8.4521617"><ele>6.4</ele><time>2026-05-01T16:23:17.492Z</time></trkpt><trkpt lat="39.5401" lon="8.452285"><ele>6.8</ele><time>2026-05-01T16:23:19.489Z</time></trkpt><trkpt lat="39.5400867" lon="8.45239"><ele>7.200000000000001</ele><time>2026-05-01T16:23:21.489Z</time></trkpt><trkpt lat="39.5400967" lon="8.45251"><ele>7.6000000000000005</ele><time>2026-05-01T16:23:23.491Z</time></trkpt><trkpt lat="39.5400967" lon="8.45268"><ele>8.0</ele><time>2026-05-01T16:23:25.488Z</time></trkpt><trkpt lat="39.5400867" lon="8.4527767"><ele>8.0</ele><time>2026-05-01T16:23:26.487Z</time></trkpt><trkpt lat="39.54007" lon="8.4528717"><ele>7.999999999999999</ele><time>2026-05-01T16:23:27.491Z</time></trkpt><trkpt lat="39.540055" lon="8.4529617"><ele>8.0</ele><time>2026-05-01T16:23:28.488Z</time></trkpt><trkpt lat="39.5400267" lon="8.453045"><ele>8.0</ele><time>2026-05-01T16:23:29.492Z</time></trkpt><trkpt lat="39.5399867" lon="8.4531167"><ele>7.999999999999999</ele><time>2026-05-01T16:23:30.492Z</time></trkpt><trkpt lat="39.539935" lon="8.4531767"><ele>8.0</ele><time>2026-05-01T16:23:31.491Z</time></trkpt><trkpt lat="39.53988" lon="8.4532217"><ele>8.0</ele><time>2026-05-01T16:23:32.49Z</time></trkpt><trkpt lat="39.5398133" lon="8.4532517"><ele>8.0</ele><time>2026-05-01T16:23:33.492Z</time></trkpt><trkpt lat="39.5397367" lon="8.4532817"><ele>7.999999999999999</ele><time>2026-05-01T16:23:34.49Z</time></trkpt><trkpt lat="39.53966" lon="8.4533167"><ele>8.0</ele><time>2026-05-01T16:23:35.493Z</time></trkpt><trkpt lat="39.53959" lon="8.4533483"><ele>8.0</ele><time>2026-05-01T16:23:36.49Z</time></trkpt><trkpt lat="39.539525" lon="8.453385"><ele>7.999999999999999</ele><time>2026-05-01T16:23:37.488Z</time></trkpt><trkpt lat="39.5394617" lon="8.4534267"><ele>8.0</ele><time>2026-05-01T16:23:38.505Z</time></trkpt><trkpt lat="39.5394033" lon="8.4534783"><ele>8.0</ele><time>2026-05-01T16:23:39.488Z</time></trkpt><trkpt lat="39.5393517" lon="8.45353"><ele>9.0</ele><time>2026-05-01T16:23:40.492Z</time></trkpt><trkpt lat="39.5392717" lon="8.45363"><ele>10.0</ele><time>2026-05-01T16:23:42.491Z</time></trkpt><trkpt lat="39.53923" lon="8.453725"><ele>11.0</ele><time>2026-05-01T16:23:44.509Z</time></trkpt><trkpt lat="39.5392083" lon="8.453805"><ele>12.0</ele><time>2026-05-01T16:23:46.489Z</time></trkpt><trkpt lat="39.5391983" lon="8.4538933"><ele>13.000000000000002</ele><time>2026-05-01T16:23:49.492Z</time></trkpt><trkpt lat="39.539165" lon="8.454015"><ele>14.0</ele><time>2026-05-01T16:23:55.491Z</time></trkpt><trkpt lat="39.5391483" lon="8.45416"><ele>14.000000000000002</ele><time>2026-05-01T16:23:57.487Z</time></trkpt><trkpt lat="39.5391283" lon="8.4542583"><ele>14.0</ele><time>2026-05-01T16:23:58.488Z</time></trkpt><trkpt lat="39.5391033" lon="8.45436"><ele>14.0</ele><time>2026-05-01T16:23:59.485Z</time></trkpt><trkpt lat="39.53908" lon="8.4544517"><ele>14.0</ele><time>2026-05-01T16:24:00.492Z</time></trkpt><trkpt lat="39.5390533" lon="8.4545367"><ele>14.000000000000002</ele><time>2026-05-01T16:24:01.491Z</time></trkpt><trkpt lat="39.539015" lon="8.4546317"><ele>14.0</ele><time>2026-05-01T16:24:02.49Z</time></trkpt><trkpt lat="39.538995" lon="8.4547183"><ele>13.399999999999999</ele><time>2026-05-01T16:24:03.49Z</time></trkpt><trkpt lat="39.53897" lon="8.4548717"><ele>12.799999999999999</ele><time>2026-05-01T16:24:05.491Z</time></trkpt><trkpt lat="39.5389283" lon="8.4550283"><ele>12.2</ele><time>2026-05-01T16:24:07.492Z</time></trkpt><trkpt lat="39.5389117" lon="8.4551133"><ele>11.600000000000001</ele><time>2026-05-01T16:24:08.508Z</time></trkpt><trkpt lat="39.5389017" lon="8.4552033"><ele>11.0</ele><time>2026-05-01T16:24:09.491Z</time></trkpt><trkpt lat="39.5388917" lon="8.455295"><ele>11.0</ele><time>2026-05-01T16:24:10.486Z</time></trkpt><trkpt lat="39.5388883" lon="8.4553833"><ele>11.0</ele><time>2026-05-01T16:24:11.493Z</time></trkpt><trkpt lat="39.538885" lon="8.455475"><ele>11.0</ele><time>2026-05-01T16:24:12.487Z</time></trkpt><trkpt lat="39.5388783" lon="8.4555617"><ele>11.0</ele><time>2026-05-01T16:24:13.485Z</time></trkpt><trkpt lat="39.5388633" lon="8.4556483"><ele>11.0</ele><time>2026-05-01T16:24:14.508Z</time></trkpt><trkpt lat="39.5388333" lon="8.4557267"><ele>11.0</ele><time>2026-05-01T16:24:15.489Z</time></trkpt><trkpt lat="39.5387917" lon="8.4558"><ele>11.0</ele><time>2026-05-01T16:24:16.491Z</time></trkpt><trkpt lat="39.53874" lon="8.4558717"><ele>10.833333333333332</ele><time>2026-05-01T16:24:17.49Z</time></trkpt><trkpt lat="39.53868" lon="8.455945"><ele>10.666666666666666</ele><time>2026-05-01T16:24:18.492Z</time></trkpt><trkpt lat="39.53862" lon="8.4560183"><ele>10.5</ele><time>2026-05-01T16:24:19.492Z</time></trkpt><trkpt lat="39.5385633" lon="8.456095"><ele>10.333333333333334</ele><time>2026-05-01T16:24:20.508Z</time></trkpt><trkpt lat="39.538505" lon="8.45618"><ele>10.166666666666668</ele><time>2026-05-01T16:24:21.49Z</time></trkpt><trkpt lat="39.5384467" lon="8.45627"><ele>10.0</ele><time>2026-05-01T16:24:22.49Z</time></trkpt><trkpt lat="39.53839" lon="8.4563667"><ele>10.0</ele><time>2026-05-01T16:24:23.493Z</time></trkpt><trkpt lat="39.5383367" lon="8.4564717"><ele>10.0</ele><time>2026-05-01T16:24:24.494Z</time></trkpt><trkpt lat="39.5382783" lon="8.4565733"><ele>10.0</ele><time>2026-05-01T16:24:25.487Z</time></trkpt><trkpt lat="39.5382183" lon="8.4566733"><ele>10.0</ele><time>2026-05-01T16:24:26.491Z</time></trkpt><trkpt lat="39.5381617" lon="8.45677"><ele>10.0</ele><time>2026-05-01T16:24:27.491Z</time></trkpt><trkpt lat="39.5381067" lon="8.456865"><ele>10.0</ele><time>2026-05-01T16:24:28.488Z</time></trkpt><trkpt lat="39.5380517" lon="8.4569517"><ele>10.0</ele><time>2026-05-01T16:24:29.486Z</time></trkpt><trkpt lat="39.5380067" lon="8.4570467"><ele>10.0</ele><time>2026-05-01T16:24:30.489Z</time></trkpt><trkpt lat="39.5379583" lon="8.4571367"><ele>10.0</ele><time>2026-05-01T16:24:31.492Z</time></trkpt><trkpt lat="39.5379117" lon="8.45723"><ele>10.0</ele><time>2026-05-01T16:24:32.491Z</time></trkpt><trkpt lat="39.5378567" lon="8.45732"><ele>10.0</ele><time>2026-05-01T16:24:33.487Z</time></trkpt><trkpt lat="39.5377983" lon="8.4574117"><ele>10.8</ele><time>2026-05-01T16:24:34.487Z</time></trkpt><trkpt lat="39.5377417" lon="8.4575067"><ele>11.6</ele><time>2026-05-01T16:24:35.494Z</time></trkpt><trkpt lat="39.537685" lon="8.4576033"><ele>12.399999999999999</ele><time>2026-05-01T16:24:36.491Z</time></trkpt><trkpt lat="39.53763" lon="8.4577033"><ele>13.2</ele><time>2026-05-01T16:24:37.491Z</time></trkpt><trkpt lat="39.5375867" lon="8.457805"><ele>14.0</ele><time>2026-05-01T16:24:38.505Z</time></trkpt><trkpt lat="39.5375517" lon="8.4579017"><ele>14.142857142857142</ele><time>2026-05-01T16:24:39.488Z</time></trkpt><trkpt lat="39.5375167" lon="8.4579933"><ele>14.285714285714285</ele><time>2026-05-01T16:24:40.489Z</time></trkpt><trkpt lat="39.5374767" lon="8.4580767"><ele>14.428571428571429</ele><time>2026-05-01T16:24:41.487Z</time></trkpt><trkpt lat="39.537435" lon="8.4581483"><ele>14.571428571428571</ele><time>2026-05-01T16:24:42.491Z</time></trkpt><trkpt lat="39.5373867" lon="8.4582133"><ele>14.714285714285714</ele><time>2026-05-01T16:24:43.49Z</time></trkpt><trkpt lat="39.53733" lon="8.4582683"><ele>14.857142857142858</ele><time>2026-05-01T16:24:44.509Z</time></trkpt><trkpt lat="39.537265" lon="8.45831"><ele>15.0</ele><time>2026-05-01T16:24:45.493Z</time></trkpt><trkpt lat="39.5371883" lon="8.458335"><ele>15.0</ele><time>2026-05-01T16:24:46.49Z</time></trkpt><trkpt lat="39.5370983" lon="8.4583567"><ele>15.0</ele><time>2026-05-01T16:24:47.491Z</time></trkpt><trkpt lat="39.5370017" lon="8.45838"><ele>15.0</ele><time>2026-05-01T16:24:48.487Z</time></trkpt><trkpt lat="39.536905" lon="8.4584"><ele>15.0</ele><time>2026-05-01T16:24:49.493Z</time></trkpt><trkpt lat="39.5368283" lon="8.4584267"><ele>15.0</ele><time>2026-05-01T16:24:50.505Z</time></trkpt><trkpt lat="39.5367633" lon="8.4584733"><ele>15.0</ele><time>2026-05-01T16:24:51.487Z</time></trkpt><trkpt lat="39.5367" lon="8.4585283"><ele>15.333333333333334</ele><time>2026-05-01T16:24:52.491Z</time></trkpt><trkpt lat="39.5366433" lon="8.4585933"><ele>15.666666666666668</ele><time>2026-05-01T16:24:53.491Z</time></trkpt><trkpt lat="39.536595" lon="8.4586683"><ele>16.0</ele><time>2026-05-01T16:24:54.492Z</time></trkpt><trkpt lat="39.5365567" lon="8.45875"><ele>16.333333333333336</ele><time>2026-05-01T16:24:55.492Z</time></trkpt><trkpt lat="39.53652" lon="8.458835"><ele>16.666666666666668</ele><time>2026-05-01T16:24:56.553Z</time></trkpt><trkpt lat="39.536485" lon="8.4589267"><ele>17.0</ele><time>2026-05-01T16:24:57.488Z</time></trkpt><trkpt lat="39.53645" lon="8.4590233"><ele>17.0</ele><time>2026-05-01T16:24:58.485Z</time></trkpt><trkpt lat="39.53641" lon="8.4591267"><ele>17.0</ele><time>2026-05-01T16:24:59.487Z</time></trkpt><trkpt lat="39.5363683" lon="8.4592283"><ele>17.0</ele><time>2026-05-01T16:25:00.491Z</time></trkpt><trkpt lat="39.5363233" lon="8.4593317"><ele>17.0</ele><time>2026-05-01T16:25:01.492Z</time></trkpt><trkpt lat="39.5362833" lon="8.4594467"><ele>17.0</ele><time>2026-05-01T16:25:02.492Z</time></trkpt><trkpt lat="39.5362517" lon="8.459575"><ele>17.0</ele><time>2026-05-01T16:25:03.487Z</time></trkpt><trkpt lat="39.5362367" lon="8.4597067"><ele>17.0</ele><time>2026-05-01T16:25:04.49Z</time></trkpt><trkpt lat="39.5362217" lon="8.4598517"><ele>17.0</ele><time>2026-05-01T16:25:05.487Z</time></trkpt><trkpt lat="39.5362133" lon="8.4600033"><ele>17.0</ele><time>2026-05-01T16:25:06.488Z</time></trkpt><trkpt lat="39.536205" lon="8.46017"><ele>18.0</ele><time>2026-05-01T16:25:07.493Z</time></trkpt><trkpt lat="39.5361817" lon="8.4603217"><ele>19.0</ele><time>2026-05-01T16:25:08.51Z</time></trkpt><trkpt lat="39.5361533" lon="8.4604733"><ele>20.0</ele><time>2026-05-01T16:25:09.49Z</time></trkpt><trkpt lat="39.536125" lon="8.4606133"><ele>21.0</ele><time>2026-05-01T16:25:10.489Z</time></trkpt><trkpt lat="39.5360967" lon="8.4607517"><ele>21.0</ele><time>2026-05-01T16:25:11.492Z</time></trkpt><trkpt lat="39.536065" lon="8.4608917"><ele>21.0</ele><time>2026-05-01T16:25:12.495Z</time></trkpt><trkpt lat="39.5360283" lon="8.46103"><ele>21.0</ele><time>2026-05-01T16:25:13.487Z</time></trkpt><trkpt lat="39.535985" lon="8.46116"><ele>21.0</ele><time>2026-05-01T16:25:14.506Z</time></trkpt><trkpt lat="39.5359383" lon="8.46128"><ele>21.0</ele><time>2026-05-01T16:25:15.489Z</time></trkpt><trkpt lat="39.5358883" lon="8.4613967"><ele>20.666666666666668</ele><time>2026-05-01T16:25:16.489Z</time></trkpt><trkpt lat="39.5358417" lon="8.4615017"><ele>20.333333333333332</ele><time>2026-05-01T16:25:17.491Z</time></trkpt><trkpt lat="39.5357983" lon="8.461595"><ele>20.0</ele><time>2026-05-01T16:25:18.491Z</time></trkpt><trkpt lat="39.535755" lon="8.4616817"><ele>19.666666666666664</ele><time>2026-05-01T16:25:19.489Z</time></trkpt><trkpt lat="39.5357167" lon="8.4617583"><ele>19.333333333333332</ele><time>2026-05-01T16:25:20.51Z</time></trkpt><trkpt lat="39.5356767" lon="8.4618283"><ele>19.0</ele><time>2026-05-01T16:25:21.487Z</time></trkpt><trkpt lat="39.5356367" lon="8.4619017"><ele>19.0</ele><time>2026-05-01T16:25:22.493Z</time></trkpt><trkpt lat="39.5355933" lon="8.4619883"><ele>19.0</ele><time>2026-05-01T16:25:23.493Z</time></trkpt><trkpt lat="39.5355467" lon="8.4620883"><ele>19.0</ele><time>2026-05-01T16:25:24.493Z</time></trkpt><trkpt lat="39.5354917" lon="8.4622067"><ele>19.0</ele><time>2026-05-01T16:25:25.49Z</time></trkpt><trkpt lat="39.5354317" lon="8.4623317"><ele>19.0</ele><time>2026-05-01T16:25:26.493Z</time></trkpt><trkpt lat="39.53537" lon="8.462445"><ele>20.333333333333332</ele><time>2026-05-01T16:25:27.494Z</time></trkpt><trkpt lat="39.5353117" lon="8.4625417"><ele>21.666666666666664</ele><time>2026-05-01T16:25:28.489Z</time></trkpt><trkpt lat="39.535255" lon="8.462635"><ele>23.0</ele><time>2026-05-01T16:25:29.491Z</time></trkpt><trkpt lat="39.5352017" lon="8.4627183"><ele>24.333333333333332</ele><time>2026-05-01T16:25:30.487Z</time></trkpt><trkpt lat="39.5351533" lon="8.462785"><ele>25.666666666666668</ele><time>2026-05-01T16:25:31.488Z</time></trkpt><trkpt lat="39.535105" lon="8.4628533"><ele>27.0</ele><time>2026-05-01T16:25:32.493Z</time></trkpt><trkpt lat="39.53506" lon="8.4629267"><ele>25.8</ele><time>2026-05-01T16:25:33.492Z</time></trkpt><trkpt lat="39.53501" lon="8.4630083"><ele>24.6</ele><time>2026-05-01T16:25:34.494Z</time></trkpt><trkpt lat="39.534955" lon="8.4630967"><ele>23.400000000000002</ele><time>2026-05-01T16:25:35.492Z</time></trkpt><trkpt lat="39.5348933" lon="8.4631867"><ele>22.200000000000003</ele><time>2026-05-01T16:25:36.491Z</time></trkpt><trkpt lat="39.534825" lon="8.4632783"><ele>21.0</ele><time>2026-05-01T16:25:37.489Z</time></trkpt><trkpt lat="39.5347567" lon="8.463365"><ele>21.0</ele><time>2026-05-01T16:25:38.511Z</time></trkpt><trkpt lat="39.534685" lon="8.4634483"><ele>21.0</ele><time>2026-05-01T16:25:39.489Z</time></trkpt><trkpt lat="39.53461" lon="8.46353"><ele>21.0</ele><time>2026-05-01T16:25:40.49Z</time></trkpt><trkpt lat="39.53453" lon="8.4636117"><ele>21.0</ele><time>2026-05-01T16:25:41.486Z</time></trkpt><trkpt lat="39.5344467" lon="8.4636883"><ele>21.0</ele><time>2026-05-01T16:25:42.492Z</time></trkpt><trkpt lat="39.534355" lon="8.4637583"><ele>21.25</ele><time>2026-05-01T16:25:43.49Z</time></trkpt><trkpt lat="39.534255" lon="8.46382"><ele>21.5</ele><time>2026-05-01T16:25:44.51Z</time></trkpt><trkpt lat="39.5341517" lon="8.46389"><ele>21.75</ele><time>2026-05-01T16:25:45.492Z</time></trkpt><trkpt lat="39.5340433" lon="8.4639633"><ele>22.0</ele><time>2026-05-01T16:25:46.486Z</time></trkpt><trkpt lat="39.5339383" lon="8.46404"><ele>22.0</ele><time>2026-05-01T16:25:47.489Z</time></trkpt><trkpt lat="39.533835" lon="8.4641217"><ele>22.0</ele><time>2026-05-01T16:25:48.489Z</time></trkpt><trkpt lat="39.5337333" lon="8.4642083"><ele>22.0</ele><time>2026-05-01T16:25:49.492Z</time></trkpt><trkpt lat="39.53363" lon="8.4642983"><ele>22.0</ele><time>2026-05-01T16:25:50.509Z</time></trkpt><trkpt lat="39.53353" lon="8.464385"><ele>22.0</ele><time>2026-05-01T16:25:51.491Z</time></trkpt><trkpt lat="39.5334383" lon="8.4644667"><ele>22.0</ele><time>2026-05-01T16:25:52.491Z</time></trkpt><trkpt lat="39.5333533" lon="8.464545"><ele>22.0</ele><time>2026-05-01T16:25:53.491Z</time></trkpt><trkpt lat="39.5332667" lon="8.464615"><ele>22.0</ele><time>2026-05-01T16:25:54.488Z</time></trkpt><trkpt lat="39.53318" lon="8.4646783"><ele>22.0</ele><time>2026-05-01T16:25:55.486Z</time></trkpt><trkpt lat="39.5330933" lon="8.4647333"><ele>22.0</ele><time>2026-05-01T16:25:56.493Z</time></trkpt><trkpt lat="39.533005" lon="8.4647883"><ele>22.0</ele><time>2026-05-01T16:25:57.494Z</time></trkpt><trkpt lat="39.5329133" lon="8.4648417"><ele>22.0</ele><time>2026-05-01T16:25:58.488Z</time></trkpt><trkpt lat="39.5328117" lon="8.4648967"><ele>22.0</ele><time>2026-05-01T16:25:59.497Z</time></trkpt><trkpt lat="39.5327033" lon="8.4649517"><ele>22.0</ele><time>2026-05-01T16:26:00.492Z</time></trkpt><trkpt lat="39.53259" lon="8.4650067"><ele>22.75</ele><time>2026-05-01T16:26:01.491Z</time></trkpt><trkpt lat="39.5324683" lon="8.4650583"><ele>23.5</ele><time>2026-05-01T16:26:02.493Z</time></trkpt><trkpt lat="39.5323433" lon="8.4651083"><ele>24.25</ele><time>2026-05-01T16:26:03.49Z</time></trkpt><trkpt lat="39.53222" lon="8.4651583"><ele>25.0</ele><time>2026-05-01T16:26:04.487Z</time></trkpt><trkpt lat="39.5320967" lon="8.4652033"><ele>26.75</ele><time>2026-05-01T16:26:05.488Z</time></trkpt><trkpt lat="39.5319783" lon="8.4652467"><ele>28.5</ele><time>2026-05-01T16:26:06.49Z</time></trkpt><trkpt lat="39.5318633" lon="8.465285"><ele>30.25</ele><time>2026-05-01T16:26:07.49Z</time></trkpt><trkpt lat="39.53175" lon="8.4653167"><ele>32.0</ele><time>2026-05-01T16:26:08.51Z</time></trkpt><trkpt lat="39.5316417" lon="8.4653483"><ele>32.0</ele><time>2026-05-01T16:26:09.489Z</time></trkpt><trkpt lat="39.5315383" lon="8.4653783"><ele>32.0</ele><time>2026-05-01T16:26:10.49Z</time></trkpt><trkpt lat="39.5314433" lon="8.4654017"><ele>32.0</ele><time>2026-05-01T16:26:11.49Z</time></trkpt><trkpt lat="39.5313567" lon="8.46542"><ele>32.0</ele><time>2026-05-01T16:26:12.493Z</time></trkpt><trkpt lat="39.53127" lon="8.465445"><ele>32.0</ele><time>2026-05-01T16:26:13.492Z</time></trkpt><trkpt lat="39.5311783" lon="8.4654733"><ele>31.200000000000003</ele><time>2026-05-01T16:26:14.525Z</time></trkpt><trkpt lat="39.5310833" lon="8.465495"><ele>30.400000000000002</ele><time>2026-05-01T16:26:15.487Z</time></trkpt><trkpt lat="39.5309833" lon="8.4655133"><ele>29.599999999999998</ele><time>2026-05-01T16:26:16.487Z</time></trkpt><trkpt lat="39.5308817" lon="8.46554"><ele>28.799999999999997</ele><time>2026-05-01T16:26:17.49Z</time></trkpt><trkpt lat="39.5307833" lon="8.4655817"><ele>28.0</ele><time>2026-05-01T16:26:18.491Z</time></trkpt><trkpt lat="39.5306883" lon="8.465635"><ele>28.0</ele><time>2026-05-01T16:26:19.492Z</time></trkpt><trkpt lat="39.5305967" lon="8.4657067"><ele>27.999999999999996</ele><time>2026-05-01T16:26:20.508Z</time></trkpt><trkpt lat="39.5305217" lon="8.4658033"><ele>27.999999999999996</ele><time>2026-05-01T16:26:21.488Z</time></trkpt><trkpt lat="39.530455" lon="8.4659067"><ele>28.0</ele><time>2026-05-01T16:26:22.491Z</time></trkpt><trkpt lat="39.5304033" lon="8.4660167"><ele>28.0</ele><time>2026-05-01T16:26:23.489Z</time></trkpt><trkpt lat="39.5303617" lon="8.46613"><ele>28.666666666666668</ele><time>2026-05-01T16:26:24.495Z</time></trkpt><trkpt lat="39.530325" lon="8.466235"><ele>29.333333333333336</ele><time>2026-05-01T16:26:25.489Z</time></trkpt><trkpt lat="39.5302933" lon="8.4663317"><ele>30.0</ele><time>2026-05-01T16:26:26.548Z</time></trkpt><trkpt lat="39.53026" lon="8.4664183"><ele>30.666666666666664</ele><time>2026-05-01T16:26:27.491Z</time></trkpt><trkpt lat="39.530225" lon="8.4665"><ele>31.333333333333332</ele><time>2026-05-01T16:26:28.487Z</time></trkpt><trkpt lat="39.530195" lon="8.4665817"><ele>32.0</ele><time>2026-05-01T16:26:29.49Z</time></trkpt><trkpt lat="39.53016" lon="8.4666667"><ele>31.999999999999996</ele><time>2026-05-01T16:26:30.491Z</time></trkpt><trkpt lat="39.530125" lon="8.4667583"><ele>32.0</ele><time>2026-05-01T16:26:31.492Z</time></trkpt><trkpt lat="39.5300867" lon="8.4668433"><ele>32.0</ele><time>2026-05-01T16:26:32.489Z</time></trkpt><trkpt lat="39.53004" lon="8.4669367"><ele>32.0</ele><time>2026-05-01T16:26:33.489Z</time></trkpt><trkpt lat="39.5299933" lon="8.4670383"><ele>31.999999999999996</ele><time>2026-05-01T16:26:34.491Z</time></trkpt><trkpt lat="39.5299367" lon="8.467135"><ele>32.0</ele><time>2026-05-01T16:26:35.486Z</time></trkpt><trkpt lat="39.5298783" lon="8.4672233"><ele>31.833333333333332</ele><time>2026-05-01T16:26:36.492Z</time></trkpt><trkpt lat="39.529815" lon="8.467305"><ele>31.666666666666664</ele><time>2026-05-01T16:26:37.49Z</time></trkpt><trkpt lat="39.529745" lon="8.4673817"><ele>31.5</ele><time>2026-05-01T16:26:38.509Z</time></trkpt><trkpt lat="39.52967" lon="8.4674417"><ele>31.333333333333336</ele><time>2026-05-01T16:26:39.489Z</time></trkpt><trkpt lat="39.529595" lon="8.46749"><ele>31.166666666666668</ele><time>2026-05-01T16:26:40.49Z</time></trkpt><trkpt lat="39.5295033" lon="8.4675283"><ele>31.0</ele><time>2026-05-01T16:26:41.49Z</time></trkpt><trkpt lat="39.529415" lon="8.4675633"><ele>31.0</ele><time>2026-05-01T16:26:42.49Z</time></trkpt><trkpt lat="39.52932" lon="8.4675967"><ele>31.0</ele><time>2026-05-01T16:26:43.492Z</time></trkpt><trkpt lat="39.529205" lon="8.4676717"><ele>31.0</ele><time>2026-05-01T16:26:44.51Z</time></trkpt><trkpt lat="39.529125" lon="8.4677333"><ele>31.0</ele><time>2026-05-01T16:26:45.486Z</time></trkpt><trkpt lat="39.5290417" lon="8.46781"><ele>31.0</ele><time>2026-05-01T16:26:46.489Z</time></trkpt><trkpt lat="39.5289633" lon="8.4678817"><ele>31.200000000000003</ele><time>2026-05-01T16:26:47.493Z</time></trkpt><trkpt lat="39.528895" lon="8.467965"><ele>31.400000000000002</ele><time>2026-05-01T16:26:48.492Z</time></trkpt><trkpt lat="39.52883" lon="8.4680583"><ele>31.6</ele><time>2026-05-01T16:26:49.489Z</time></trkpt><trkpt lat="39.528775" lon="8.46816"><ele>31.8</ele><time>2026-05-01T16:26:50.509Z</time></trkpt><trkpt lat="39.52872" lon="8.4682717"><ele>32.0</ele><time>2026-05-01T16:26:51.487Z</time></trkpt><trkpt lat="39.52867" lon="8.468395"><ele>32.5</ele><time>2026-05-01T16:26:52.489Z</time></trkpt><trkpt lat="39.5286167" lon="8.46852"><ele>33.0</ele><time>2026-05-01T16:26:53.492Z</time></trkpt><trkpt lat="39.528565" lon="8.4686517"><ele>33.5</ele><time>2026-05-01T16:26:54.491Z</time></trkpt><trkpt lat="39.52852" lon="8.4687833"><ele>34.0</ele><time>2026-05-01T16:26:55.489Z</time></trkpt><trkpt lat="39.52847" lon="8.4689167"><ele>34.0</ele><time>2026-05-01T16:26:56.49Z</time></trkpt><trkpt lat="39.5284183" lon="8.46905"><ele>34.0</ele><time>2026-05-01T16:26:57.486Z</time></trkpt><trkpt lat="39.5283633" lon="8.4691867"><ele>34.0</ele><time>2026-05-01T16:26:58.493Z</time></trkpt><trkpt lat="39.5283067" lon="8.469325"><ele>34.0</ele><time>2026-05-01T16:26:59.488Z</time></trkpt><trkpt lat="39.5282417" lon="8.4694567"><ele>34.0</ele><time>2026-05-01T16:27:00.492Z</time></trkpt><trkpt lat="39.5281733" lon="8.4695783"><ele>34.0</ele><time>2026-05-01T16:27:01.49Z</time></trkpt><trkpt lat="39.5281033" lon="8.4696917"><ele>34.0</ele><time>2026-05-01T16:27:02.491Z</time></trkpt><trkpt lat="39.5280217" lon="8.469795"><ele>34.0</ele><time>2026-05-01T16:27:03.491Z</time></trkpt><trkpt lat="39.5279417" lon="8.4699067"><ele>34.6</ele><time>2026-05-01T16:27:04.49Z</time></trkpt><trkpt lat="39.5278667" lon="8.4700217"><ele>35.2</ele><time>2026-05-01T16:27:05.49Z</time></trkpt><trkpt lat="39.52779" lon="8.4701283"><ele>35.800000000000004</ele><time>2026-05-01T16:27:06.493Z</time></trkpt><trkpt lat="39.5277267" lon="8.4702317"><ele>36.4</ele><time>2026-05-01T16:27:07.489Z</time></trkpt><trkpt lat="39.5276683" lon="8.47033"><ele>37.0</ele><time>2026-05-01T16:27:08.507Z</time></trkpt><trkpt lat="39.5276183" lon="8.4704117"><ele>36.66666666666667</ele><time>2026-05-01T16:27:09.488Z</time></trkpt><trkpt lat="39.52757" lon="8.4704667"><ele>36.333333333333336</ele><time>2026-05-01T16:27:10.486Z</time></trkpt><trkpt lat="39.5274983" lon="8.47055"><ele>36.0</ele><time>2026-05-01T16:27:12.49Z</time></trkpt><trkpt lat="39.52745" lon="8.4706617"><ele>35.666666666666664</ele><time>2026-05-01T16:27:14.506Z</time></trkpt><trkpt lat="39.5274367" lon="8.4707467"><ele>35.33333333333333</ele><time>2026-05-01T16:27:15.49Z</time></trkpt><trkpt lat="39.527445" lon="8.4708633"><ele>35.0</ele><time>2026-05-01T16:27:16.491Z</time></trkpt><trkpt lat="39.5274383" lon="8.47097"><ele>35.0</ele><time>2026-05-01T16:27:17.486Z</time></trkpt><trkpt lat="39.5274367" lon="8.4710817"><ele>35.0</ele><time>2026-05-01T16:27:18.488Z</time></trkpt><trkpt lat="39.5274433" lon="8.4711983"><ele>35.0</ele><time>2026-05-01T16:27:19.49Z</time></trkpt><trkpt lat="39.5274617" lon="8.4713233"><ele>35.0</ele><time>2026-05-01T16:27:20.506Z</time></trkpt><trkpt lat="39.527475" lon="8.4714383"><ele>35.0</ele><time>2026-05-01T16:27:21.488Z</time></trkpt><trkpt lat="39.52748" lon="8.47154"><ele>35.0</ele><time>2026-05-01T16:27:22.489Z</time></trkpt><trkpt lat="39.5274717" lon="8.4716433"><ele>35.0</ele><time>2026-05-01T16:27:23.49Z</time></trkpt><trkpt lat="39.5274633" lon="8.4717517"><ele>35.0</ele><time>2026-05-01T16:27:24.494Z</time></trkpt><trkpt lat="39.5274283" lon="8.4718433"><ele>35.0</ele><time>2026-05-01T16:27:25.49Z</time></trkpt><trkpt lat="39.5273733" lon="8.4719267"><ele>35.0</ele><time>2026-05-01T16:27:26.549Z</time></trkpt><trkpt lat="39.527295" lon="8.471995"><ele>35.0</ele><time>2026-05-01T16:27:27.487Z</time></trkpt><trkpt lat="39.527205" lon="8.472055"><ele>35.0</ele><time>2026-05-01T16:27:28.493Z</time></trkpt><trkpt lat="39.5271167" lon="8.4721083"><ele>35.6</ele><time>2026-05-01T16:27:29.487Z</time></trkpt><trkpt lat="39.5270217" lon="8.47215"><ele>36.2</ele><time>2026-05-01T16:27:30.486Z</time></trkpt><trkpt lat="39.5269217" lon="8.472185"><ele>36.8</ele><time>2026-05-01T16:27:31.49Z</time></trkpt><trkpt lat="39.52682" lon="8.47221"><ele>37.4</ele><time>2026-05-01T16:27:32.492Z</time></trkpt><trkpt lat="39.5267133" lon="8.4722233"><ele>38.0</ele><time>2026-05-01T16:27:33.485Z</time></trkpt><trkpt lat="39.52661" lon="8.47224"><ele>38.0</ele><time>2026-05-01T16:27:34.489Z</time></trkpt><trkpt lat="39.52651" lon="8.4722667"><ele>38.0</ele><time>2026-05-01T16:27:35.488Z</time></trkpt><trkpt lat="39.5264117" lon="8.4722983"><ele>38.0</ele><time>2026-05-01T16:27:36.493Z</time></trkpt><trkpt lat="39.52632" lon="8.4723333"><ele>38.0</ele><time>2026-05-01T16:27:37.491Z</time></trkpt><trkpt lat="39.526225" lon="8.472375"><ele>38.0</ele><time>2026-05-01T16:27:38.51Z</time></trkpt><trkpt lat="39.5261333" lon="8.47243"><ele>40.0</ele><time>2026-05-01T16:27:39.491Z</time></trkpt><trkpt lat="39.5260433" lon="8.4724933"><ele>42.0</ele><time>2026-05-01T16:27:40.491Z</time></trkpt><trkpt lat="39.5259533" lon="8.4725667"><ele>44.0</ele><time>2026-05-01T16:27:41.49Z</time></trkpt><trkpt lat="39.5258667" lon="8.472645"><ele>46.0</ele><time>2026-05-01T16:27:42.491Z</time></trkpt><trkpt lat="39.5257767" lon="8.4727233"><ele>48.0</ele><time>2026-05-01T16:27:43.492Z</time></trkpt><trkpt lat="39.5256917" lon="8.4727983"><ele>48.0</ele><time>2026-05-01T16:27:44.504Z</time></trkpt><trkpt lat="39.525605" lon="8.47287"><ele>48.0</ele><time>2026-05-01T16:27:45.492Z</time></trkpt><trkpt lat="39.5255167" lon="8.472945"><ele>48.0</ele><time>2026-05-01T16:27:46.487Z</time></trkpt><trkpt lat="39.525425" lon="8.47302"><ele>48.0</ele><time>2026-05-01T16:27:47.492Z</time></trkpt><trkpt lat="39.5253317" lon="8.473095"><ele>48.0</ele><time>2026-05-01T16:27:48.492Z</time></trkpt><trkpt lat="39.5252483" lon="8.4731733"><ele>48.2</ele><time>2026-05-01T16:27:49.492Z</time></trkpt><trkpt lat="39.525165" lon="8.473245"><ele>48.4</ele><time>2026-05-01T16:27:50.507Z</time></trkpt><trkpt lat="39.5250917" lon="8.4733283"><ele>48.6</ele><time>2026-05-01T16:27:51.487Z</time></trkpt><trkpt lat="39.5250283" lon="8.4734217"><ele>48.800000000000004</ele><time>2026-05-01T16:27:52.49Z</time></trkpt><trkpt lat="39.524975" lon="8.4735267"><ele>49.0</ele><time>2026-05-01T16:27:53.489Z</time></trkpt><trkpt lat="39.52493" lon="8.47364"><ele>49.0</ele><time>2026-05-01T16:27:54.49Z</time></trkpt><trkpt lat="39.52489" lon="8.4737567"><ele>49.0</ele><time>2026-05-01T16:27:55.492Z</time></trkpt><trkpt lat="39.5248617" lon="8.4738817"><ele>49.0</ele><time>2026-05-01T16:27:56.49Z</time></trkpt><trkpt lat="39.524835" lon="8.4740133"><ele>49.0</ele><time>2026-05-01T16:27:57.491Z</time></trkpt><trkpt lat="39.5248133" lon="8.4741467"><ele>49.0</ele><time>2026-05-01T16:27:58.49Z</time></trkpt><trkpt lat="39.5247867" lon="8.4742783"><ele>47.800000000000004</ele><time>2026-05-01T16:27:59.488Z</time></trkpt><trkpt lat="39.52476" lon="8.47442"><ele>46.6</ele><time>2026-05-01T16:28:00.492Z</time></trkpt><trkpt lat="39.5247283" lon="8.4745517"><ele>45.4</ele><time>2026-05-01T16:28:01.492Z</time></trkpt><trkpt lat="39.5246933" lon="8.474675"><ele>44.2</ele><time>2026-05-01T16:28:02.492Z</time></trkpt><trkpt lat="39.5246517" lon="8.4747867"><ele>43.0</ele><time>2026-05-01T16:28:03.489Z</time></trkpt><trkpt lat="39.5245883" lon="8.47489"><ele>44.0</ele><time>2026-05-01T16:28:04.487Z</time></trkpt><trkpt lat="39.52452" lon="8.4749817"><ele>45.0</ele><time>2026-05-01T16:28:05.487Z</time></trkpt><trkpt lat="39.5244383" lon="8.4750683"><ele>46.0</ele><time>2026-05-01T16:28:06.492Z</time></trkpt><trkpt lat="39.52434" lon="8.4751333"><ele>47.0</ele><time>2026-05-01T16:28:07.491Z</time></trkpt><trkpt lat="39.524225" lon="8.4751917"><ele>48.0</ele><time>2026-05-01T16:28:08.509Z</time></trkpt><trkpt lat="39.52411" lon="8.4752483"><ele>48.0</ele><time>2026-05-01T16:28:09.489Z</time></trkpt><trkpt lat="39.5239817" lon="8.475295"><ele>48.0</ele><time>2026-05-01T16:28:10.49Z</time></trkpt><trkpt lat="39.523845" lon="8.4753267"><ele>48.0</ele><time>2026-05-01T16:28:11.49Z</time></trkpt><trkpt lat="39.5237067" lon="8.4753517"><ele>48.0</ele><time>2026-05-01T16:28:12.491Z</time></trkpt><trkpt lat="39.5235783" lon="8.47537"><ele>50.5</ele><time>2026-05-01T16:28:13.491Z</time></trkpt><trkpt lat="39.52345" lon="8.4753767"><ele>53.0</ele><time>2026-05-01T16:28:14.506Z</time></trkpt><trkpt lat="39.5233267" lon="8.4753817"><ele>55.5</ele><time>2026-05-01T16:28:15.49Z</time></trkpt><trkpt lat="39.5231917" lon="8.4753783"><ele>58.0</ele><time>2026-05-01T16:28:16.489Z</time></trkpt><trkpt lat="39.5230567" lon="8.47538"><ele>58.0</ele><time>2026-05-01T16:28:17.491Z</time></trkpt><trkpt lat="39.52292" lon="8.4753933"><ele>58.0</ele><time>2026-05-01T16:28:18.491Z</time></trkpt><trkpt lat="39.5227867" lon="8.4754117"><ele>58.0</ele><time>2026-05-01T16:28:19.487Z</time></trkpt><trkpt lat="39.5226483" lon="8.47544"><ele>58.0</ele><time>2026-05-01T16:28:20.505Z</time></trkpt><trkpt lat="39.5225183" lon="8.4754783"><ele>56.25</ele><time>2026-05-01T16:28:21.49Z</time></trkpt><trkpt lat="39.52239" lon="8.47552"><ele>54.5</ele><time>2026-05-01T16:28:22.49Z</time></trkpt><trkpt lat="39.52228" lon="8.4755617"><ele>52.75</ele><time>2026-05-01T16:28:23.488Z</time></trkpt><trkpt lat="39.52218" lon="8.4756033"><ele>51.0</ele><time>2026-05-01T16:28:24.487Z</time></trkpt><trkpt lat="39.5220883" lon="8.475655"><ele>52.4</ele><time>2026-05-01T16:28:25.492Z</time></trkpt><trkpt lat="39.5220083" lon="8.4757033"><ele>53.8</ele><time>2026-05-01T16:28:26.491Z</time></trkpt><trkpt lat="39.5219333" lon="8.4757583"><ele>55.199999999999996</ele><time>2026-05-01T16:28:27.492Z</time></trkpt><trkpt lat="39.5218633" lon="8.4758267"><ele>56.599999999999994</ele><time>2026-05-01T16:28:28.489Z</time></trkpt><trkpt lat="39.521795" lon="8.4759167"><ele>58.0</ele><time>2026-05-01T16:28:29.487Z</time></trkpt><trkpt lat="39.52173" lon="8.4760083"><ele>58.0</ele><time>2026-05-01T16:28:30.487Z</time></trkpt><trkpt lat="39.52168" lon="8.4761117"><ele>58.0</ele><time>2026-05-01T16:28:31.486Z</time></trkpt><trkpt lat="39.5216433" lon="8.4762283"><ele>58.0</ele><time>2026-05-01T16:28:32.489Z</time></trkpt><trkpt lat="39.5215967" lon="8.4763367"><ele>58.0</ele><time>2026-05-01T16:28:33.486Z</time></trkpt><trkpt lat="39.521535" lon="8.476445"><ele>58.0</ele><time>2026-05-01T16:28:34.485Z</time></trkpt><trkpt lat="39.521465" lon="8.4765517"><ele>56.75</ele><time>2026-05-01T16:28:35.488Z</time></trkpt><trkpt lat="39.521385" lon="8.4766583"><ele>55.5</ele><time>2026-05-01T16:28:36.488Z</time></trkpt><trkpt lat="39.5212967" lon="8.47677"><ele>54.25</ele><time>2026-05-01T16:28:37.491Z</time></trkpt><trkpt lat="39.5212117" lon="8.4768967"><ele>53.0</ele><time>2026-05-01T16:28:38.508Z</time></trkpt><trkpt lat="39.521125" lon="8.477025"><ele>56.75</ele><time>2026-05-01T16:28:39.485Z</time></trkpt><trkpt lat="39.5210467" lon="8.4771667"><ele>60.5</ele><time>2026-05-01T16:28:40.486Z</time></trkpt><trkpt lat="39.52097" lon="8.477315"><ele>64.25</ele><time>2026-05-01T16:28:41.49Z</time></trkpt><trkpt lat="39.5209" lon="8.4774833"><ele>68.0</ele><time>2026-05-01T16:28:42.49Z</time></trkpt><trkpt lat="39.5208283" lon="8.4776533"><ele>68.0</ele><time>2026-05-01T16:28:43.485Z</time></trkpt><trkpt lat="39.520755" lon="8.4778017"><ele>68.0</ele><time>2026-05-01T16:28:44.507Z</time></trkpt><trkpt lat="39.520675" lon="8.4779433"><ele>68.0</ele><time>2026-05-01T16:28:45.485Z</time></trkpt><trkpt lat="39.5205983" lon="8.47809"><ele>68.0</ele><time>2026-05-01T16:28:46.491Z</time></trkpt><trkpt lat="39.5205267" lon="8.4782367"><ele>66.75</ele><time>2026-05-01T16:28:47.485Z</time></trkpt><trkpt lat="39.52046" lon="8.4783767"><ele>65.5</ele><time>2026-05-01T16:28:48.491Z</time></trkpt><trkpt lat="39.5204" lon="8.4785183"><ele>64.25</ele><time>2026-05-01T16:28:49.486Z</time></trkpt><trkpt lat="39.520355" lon="8.4786667"><ele>63.0</ele><time>2026-05-01T16:28:50.511Z</time></trkpt><trkpt lat="39.520315" lon="8.4788133"><ele>63.25</ele><time>2026-05-01T16:28:51.485Z</time></trkpt><trkpt lat="39.52031" lon="8.4789733"><ele>63.5</ele><time>2026-05-01T16:28:52.485Z</time></trkpt><trkpt lat="39.5203317" lon="8.4791333"><ele>63.75</ele><time>2026-05-01T16:28:53.488Z</time></trkpt><trkpt lat="39.5203717" lon="8.47929"><ele>64.0</ele><time>2026-05-01T16:28:54.491Z</time></trkpt><trkpt lat="39.52041" lon="8.4794433"><ele>64.0</ele><time>2026-05-01T16:28:55.491Z</time></trkpt><trkpt lat="39.5204483" lon="8.4795917"><ele>64.0</ele><time>2026-05-01T16:28:56.491Z</time></trkpt><trkpt lat="39.5204833" lon="8.4797283"><ele>64.0</ele><time>2026-05-01T16:28:57.489Z</time></trkpt><trkpt lat="39.5205167" lon="8.479865"><ele>64.0</ele><time>2026-05-01T16:28:58.491Z</time></trkpt><trkpt lat="39.5205367" lon="8.4800033"><ele>65.0</ele><time>2026-05-01T16:28:59.487Z</time></trkpt><trkpt lat="39.520565" lon="8.4801317"><ele>66.0</ele><time>2026-05-01T16:29:00.49Z</time></trkpt><trkpt lat="39.5205817" lon="8.48026"><ele>67.0</ele><time>2026-05-01T16:29:01.487Z</time></trkpt><trkpt lat="39.5205833" lon="8.4804067"><ele>68.0</ele><time>2026-05-01T16:29:02.487Z</time></trkpt><trkpt lat="39.520585" lon="8.48054"><ele>69.0</ele><time>2026-05-01T16:29:03.487Z</time></trkpt><trkpt lat="39.52059" lon="8.480655"><ele>69.0</ele><time>2026-05-01T16:29:04.486Z</time></trkpt><trkpt lat="39.520545" lon="8.4807617"><ele>69.0</ele><time>2026-05-01T16:29:05.486Z</time></trkpt><trkpt lat="39.5204733" lon="8.480865"><ele>69.0</ele><time>2026-05-01T16:29:06.489Z</time></trkpt><trkpt lat="39.5204" lon="8.4809567"><ele>69.0</ele><time>2026-05-01T16:29:07.489Z</time></trkpt><trkpt lat="39.520325" lon="8.481045"><ele>69.0</ele><time>2026-05-01T16:29:08.505Z</time></trkpt><trkpt lat="39.5202467" lon="8.48112"><ele>69.2</ele><time>2026-05-01T16:29:09.49Z</time></trkpt><trkpt lat="39.520175" lon="8.481185"><ele>69.4</ele><time>2026-05-01T16:29:10.49Z</time></trkpt><trkpt lat="39.5200917" lon="8.4812383"><ele>69.6</ele><time>2026-05-01T16:29:11.491Z</time></trkpt><trkpt lat="39.5200133" lon="8.4813"><ele>69.8</ele><time>2026-05-01T16:29:12.488Z</time></trkpt><trkpt lat="39.5199417" lon="8.48138"><ele>70.0</ele><time>2026-05-01T16:29:13.485Z</time></trkpt><trkpt lat="39.5198833" lon="8.4814867"><ele>70.0</ele><time>2026-05-01T16:29:14.508Z</time></trkpt><trkpt lat="39.51985" lon="8.4816017"><ele>70.0</ele><time>2026-05-01T16:29:15.487Z</time></trkpt><trkpt lat="39.5198267" lon="8.4817267"><ele>70.0</ele><time>2026-05-01T16:29:16.486Z</time></trkpt><trkpt lat="39.5198233" lon="8.4818417"><ele>70.0</ele><time>2026-05-01T16:29:17.489Z</time></trkpt><trkpt lat="39.519835" lon="8.4819567"><ele>70.0</ele><time>2026-05-01T16:29:18.486Z</time></trkpt><trkpt lat="39.519865" lon="8.4820717"><ele>70.0</ele><time>2026-05-01T16:29:19.487Z</time></trkpt><trkpt lat="39.5199017" lon="8.48218"><ele>70.0</ele><time>2026-05-01T16:29:20.505Z</time></trkpt><trkpt lat="39.5199267" lon="8.48228"><ele>70.0</ele><time>2026-05-01T16:29:21.487Z</time></trkpt><trkpt lat="39.5199383" lon="8.4823733"><ele>70.0</ele><time>2026-05-01T16:29:22.486Z</time></trkpt><trkpt lat="39.519955" lon="8.4824583"><ele>70.0</ele><time>2026-05-01T16:29:23.485Z</time></trkpt><trkpt lat="39.5199583" lon="8.48254"><ele>70.0</ele><time>2026-05-01T16:29:24.489Z</time></trkpt><trkpt lat="39.5198667" lon="8.4825917"><ele>70.0</ele><time>2026-05-01T16:29:26.49Z</time></trkpt><trkpt lat="39.5197333" lon="8.4826217"><ele>70.0</ele><time>2026-05-01T16:29:28.49Z</time></trkpt><trkpt lat="39.5196317" lon="8.482635"><ele>70.0</ele><time>2026-05-01T16:29:29.49Z</time></trkpt><trkpt lat="39.5195317" lon="8.4826633"><ele>70.0</ele><time>2026-05-01T16:29:30.487Z</time></trkpt><trkpt lat="39.5194317" lon="8.4827033"><ele>70.0</ele><time>2026-05-01T16:29:31.489Z</time></trkpt><trkpt lat="39.5193317" lon="8.4827433"><ele>70.4</ele><time>2026-05-01T16:29:32.488Z</time></trkpt><trkpt lat="39.5192417" lon="8.4828033"><ele>70.8</ele><time>2026-05-01T16:29:33.487Z</time></trkpt><trkpt lat="39.51916" lon="8.4828917"><ele>71.2</ele><time>2026-05-01T16:29:34.487Z</time></trkpt><trkpt lat="39.51909" lon="8.482975"><ele>71.6</ele><time>2026-05-01T16:29:35.489Z</time></trkpt><trkpt lat="39.5190267" lon="8.4830633"><ele>72.0</ele><time>2026-05-01T16:29:36.487Z</time></trkpt><trkpt lat="39.5189683" lon="8.4831633"><ele>72.0</ele><time>2026-05-01T16:29:37.484Z</time></trkpt><trkpt lat="39.51895" lon="8.483325"><ele>72.0</ele><time>2026-05-01T16:29:38.507Z</time></trkpt><trkpt lat="39.5189283" lon="8.4834733"><ele>72.0</ele><time>2026-05-01T16:29:39.489Z</time></trkpt><trkpt lat="39.518895" lon="8.4836133"><ele>72.0</ele><time>2026-05-01T16:29:40.489Z</time></trkpt><trkpt lat="39.51886" lon="8.4837633"><ele>72.6</ele><time>2026-05-01T16:29:41.489Z</time></trkpt><trkpt lat="39.5188267" lon="8.4839067"><ele>73.2</ele><time>2026-05-01T16:29:42.491Z</time></trkpt><trkpt lat="39.5188117" lon="8.4840367"><ele>73.8</ele><time>2026-05-01T16:29:43.488Z</time></trkpt><trkpt lat="39.518805" lon="8.4841633"><ele>74.4</ele><time>2026-05-01T16:29:44.507Z</time></trkpt><trkpt lat="39.5188317" lon="8.4843117"><ele>75.0</ele><time>2026-05-01T16:29:45.49Z</time></trkpt><trkpt lat="39.5188583" lon="8.4844767"><ele>76.0</ele><time>2026-05-01T16:29:46.49Z</time></trkpt><trkpt lat="39.51889" lon="8.4846417"><ele>77.0</ele><time>2026-05-01T16:29:47.489Z</time></trkpt><trkpt lat="39.5189283" lon="8.4848217"><ele>78.0</ele><time>2026-05-01T16:29:48.487Z</time></trkpt><trkpt lat="39.5189617" lon="8.4849867"><ele>79.0</ele><time>2026-05-01T16:29:49.485Z</time></trkpt><trkpt lat="39.5189833" lon="8.48513"><ele>79.0</ele><time>2026-05-01T16:29:50.506Z</time></trkpt><trkpt lat="39.5189833" lon="8.4852683"><ele>79.0</ele><time>2026-05-01T16:29:51.488Z</time></trkpt><trkpt lat="39.5189733" lon="8.485395"><ele>79.0</ele><time>2026-05-01T16:29:52.49Z</time></trkpt><trkpt lat="39.5189583" lon="8.4855183"><ele>79.0</ele><time>2026-05-01T16:29:53.492Z</time></trkpt><trkpt lat="39.5189333" lon="8.4856317"><ele>79.0</ele><time>2026-05-01T16:29:54.491Z</time></trkpt><trkpt lat="39.5188917" lon="8.4857317"><ele>79.66666666666666</ele><time>2026-05-01T16:29:55.49Z</time></trkpt><trkpt lat="39.5188383" lon="8.4858233"><ele>80.33333333333333</ele><time>2026-05-01T16:29:56.55Z</time></trkpt><trkpt lat="39.5187783" lon="8.4859067"><ele>81.0</ele><time>2026-05-01T16:29:57.488Z</time></trkpt><trkpt lat="39.51872" lon="8.485995"><ele>81.66666666666667</ele><time>2026-05-01T16:29:58.488Z</time></trkpt><trkpt lat="39.5186683" lon="8.486085"><ele>82.33333333333334</ele><time>2026-05-01T16:29:59.492Z</time></trkpt><trkpt lat="39.518615" lon="8.4861733"><ele>83.0</ele><time>2026-05-01T16:30:00.489Z</time></trkpt><trkpt lat="39.5185617" lon="8.4862667"><ele>85.2</ele><time>2026-05-01T16:30:01.485Z</time></trkpt><trkpt lat="39.5185333" lon="8.4863783"><ele>87.4</ele><time>2026-05-01T16:30:02.49Z</time></trkpt><trkpt lat="39.5185" lon="8.4864867"><ele>89.60000000000001</ele><time>2026-05-01T16:30:03.488Z</time></trkpt><trkpt lat="39.518465" lon="8.4866117"><ele>91.80000000000001</ele><time>2026-05-01T16:30:04.485Z</time></trkpt><trkpt lat="39.5184333" lon="8.48674"><ele>94.0</ele><time>2026-05-01T16:30:05.488Z</time></trkpt><trkpt lat="39.5184133" lon="8.4868883"><ele>94.0</ele><time>2026-05-01T16:30:06.49Z</time></trkpt><trkpt lat="39.5183983" lon="8.4870433"><ele>94.0</ele><time>2026-05-01T16:30:07.491Z</time></trkpt><trkpt lat="39.5184067" lon="8.487215"><ele>94.0</ele><time>2026-05-01T16:30:08.508Z</time></trkpt><trkpt lat="39.5184333" lon="8.4873817"><ele>94.0</ele><time>2026-05-01T16:30:09.491Z</time></trkpt><trkpt lat="39.5184533" lon="8.4875267"><ele>94.16666666666666</ele><time>2026-05-01T16:30:10.485Z</time></trkpt><trkpt lat="39.518475" lon="8.487655"><ele>94.33333333333333</ele><time>2026-05-01T16:30:11.492Z</time></trkpt><trkpt lat="39.5184883" lon="8.4877717"><ele>94.5</ele><time>2026-05-01T16:30:12.486Z</time></trkpt><trkpt lat="39.5184867" lon="8.4878883"><ele>94.66666666666667</ele><time>2026-05-01T16:30:13.488Z</time></trkpt><trkpt lat="39.51848" lon="8.4879967"><ele>94.83333333333334</ele><time>2026-05-01T16:30:14.508Z</time></trkpt><trkpt lat="39.5184733" lon="8.488095"><ele>95.0</ele><time>2026-05-01T16:30:15.488Z</time></trkpt><trkpt lat="39.51841" lon="8.48821"><ele>93.2</ele><time>2026-05-01T16:30:17.49Z</time></trkpt><trkpt lat="39.5183067" lon="8.4882567"><ele>91.4</ele><time>2026-05-01T16:30:19.49Z</time></trkpt><trkpt lat="39.5182333" lon="8.488255"><ele>89.6</ele><time>2026-05-01T16:30:20.509Z</time></trkpt><trkpt lat="39.5181433" lon="8.488245"><ele>87.8</ele><time>2026-05-01T16:30:21.487Z</time></trkpt><trkpt lat="39.5180517" lon="8.488255"><ele>86.0</ele><time>2026-05-01T16:30:22.488Z</time></trkpt><trkpt lat="39.5179483" lon="8.4882767"><ele>92.5</ele><time>2026-05-01T16:30:23.489Z</time></trkpt><trkpt lat="39.51785" lon="8.4883183"><ele>99.0</ele><time>2026-05-01T16:30:24.486Z</time></trkpt><trkpt lat="39.5177533" lon="8.4883783"><ele>105.5</ele><time>2026-05-01T16:30:25.49Z</time></trkpt><trkpt lat="39.5176483" lon="8.4884383"><ele>112.0</ele><time>2026-05-01T16:30:26.486Z</time></trkpt><trkpt lat="39.5175433" lon="8.4885333"><ele>112.0</ele><time>2026-05-01T16:30:27.485Z</time></trkpt><trkpt lat="39.5174617" lon="8.48863"><ele>111.99999999999999</ele><time>2026-05-01T16:30:28.485Z</time></trkpt><trkpt lat="39.51739" lon="8.4887217"><ele>111.99999999999999</ele><time>2026-05-01T16:30:29.49Z</time></trkpt><trkpt lat="39.5173083" lon="8.4888267"><ele>112.0</ele><time>2026-05-01T16:30:30.489Z</time></trkpt><trkpt lat="39.51725" lon="8.4889217"><ele>112.0</ele><time>2026-05-01T16:30:31.49Z</time></trkpt><trkpt lat="39.5172017" lon="8.489015"><ele>113.6</ele><time>2026-05-01T16:30:32.488Z</time></trkpt><trkpt lat="39.5171617" lon="8.4891067"><ele>115.19999999999999</ele><time>2026-05-01T16:30:33.485Z</time></trkpt><trkpt lat="39.5171217" lon="8.48919"><ele>116.8</ele><time>2026-05-01T16:30:34.491Z</time></trkpt><trkpt lat="39.517085" lon="8.4892683"><ele>118.4</ele><time>2026-05-01T16:30:35.486Z</time></trkpt><trkpt lat="39.5170233" lon="8.4894017"><ele>120.0</ele><time>2026-05-01T16:30:37.492Z</time></trkpt><trkpt lat="39.51694" lon="8.4895233"><ele>120.0</ele><time>2026-05-01T16:30:39.489Z</time></trkpt><trkpt lat="39.5168717" lon="8.4895767"><ele>120.0</ele><time>2026-05-01T16:30:40.489Z</time></trkpt><trkpt lat="39.5168067" lon="8.48963"><ele>120.0</ele><time>2026-05-01T16:30:41.486Z</time></trkpt><trkpt lat="39.5167417" lon="8.489675"><ele>120.0</ele><time>2026-05-01T16:30:42.489Z</time></trkpt><trkpt lat="39.5166667" lon="8.4897183"><ele>120.0</ele><time>2026-05-01T16:30:43.49Z</time></trkpt><trkpt lat="39.51659" lon="8.4897717"><ele>120.0</ele><time>2026-05-01T16:30:44.506Z</time></trkpt><trkpt lat="39.5164967" lon="8.48983"><ele>119.0</ele><time>2026-05-01T16:30:45.489Z</time></trkpt><trkpt lat="39.5163933" lon="8.4899"><ele>118.0</ele><time>2026-05-01T16:30:46.49Z</time></trkpt><trkpt lat="39.5162817" lon="8.4899617"><ele>117.0</ele><time>2026-05-01T16:30:47.489Z</time></trkpt><trkpt lat="39.5161817" lon="8.49002"><ele>116.0</ele><time>2026-05-01T16:30:48.491Z</time></trkpt><trkpt lat="39.51609" lon="8.4900833"><ele>116.0</ele><time>2026-05-01T16:30:49.489Z</time></trkpt><trkpt lat="39.5160033" lon="8.4901533"><ele>116.0</ele><time>2026-05-01T16:30:50.507Z</time></trkpt><trkpt lat="39.515925" lon="8.490235"><ele>116.0</ele><time>2026-05-01T16:30:51.492Z</time></trkpt><trkpt lat="39.5158567" lon="8.490325"><ele>116.0</ele><time>2026-05-01T16:30:52.49Z</time></trkpt><trkpt lat="39.5158233" lon="8.49044"><ele>116.0</ele><time>2026-05-01T16:30:53.49Z</time></trkpt><trkpt lat="39.51579" lon="8.4905717"><ele>113.8</ele><time>2026-05-01T16:30:54.491Z</time></trkpt><trkpt lat="39.51577" lon="8.49069"><ele>111.6</ele><time>2026-05-01T16:30:55.488Z</time></trkpt><trkpt lat="39.5157417" lon="8.4908167"><ele>109.4</ele><time>2026-05-01T16:30:56.49Z</time></trkpt><trkpt lat="39.5157033" lon="8.4909283"><ele>107.2</ele><time>2026-05-01T16:30:57.489Z</time></trkpt><trkpt lat="39.5156567" lon="8.49103"><ele>105.0</ele><time>2026-05-01T16:30:58.488Z</time></trkpt><trkpt lat="39.5156" lon="8.49113"><ele>105.0</ele><time>2026-05-01T16:30:59.489Z</time></trkpt><trkpt lat="39.5155267" lon="8.4912283"><ele>105.0</ele><time>2026-05-01T16:31:00.487Z</time></trkpt><trkpt lat="39.5154367" lon="8.4913167"><ele>105.0</ele><time>2026-05-01T16:31:01.489Z</time></trkpt><trkpt lat="39.5153333" lon="8.4914183"><ele>105.0</ele><time>2026-05-01T16:31:02.488Z</time></trkpt><trkpt lat="39.515225" lon="8.4915067"><ele>107.4</ele><time>2026-05-01T16:31:03.485Z</time></trkpt><trkpt lat="39.5151283" lon="8.49159"><ele>109.8</ele><time>2026-05-01T16:31:04.488Z</time></trkpt><trkpt lat="39.51504" lon="8.491665"><ele>112.19999999999999</ele><time>2026-05-01T16:31:05.49Z</time></trkpt><trkpt lat="39.514965" lon="8.49174"><ele>114.6</ele><time>2026-05-01T16:31:06.492Z</time></trkpt><trkpt lat="39.5148933" lon="8.4918283"><ele>117.0</ele><time>2026-05-01T16:31:07.49Z</time></trkpt><trkpt lat="39.5148333" lon="8.491915"><ele>117.0</ele><time>2026-05-01T16:31:08.506Z</time></trkpt><trkpt lat="39.5147717" lon="8.4920033"><ele>116.99999999999999</ele><time>2026-05-01T16:31:09.487Z</time></trkpt><trkpt lat="39.5147267" lon="8.492105"><ele>116.99999999999999</ele><time>2026-05-01T16:31:10.491Z</time></trkpt><trkpt lat="39.51469" lon="8.492205"><ele>117.0</ele><time>2026-05-01T16:31:11.489Z</time></trkpt><trkpt lat="39.5146533" lon="8.4923533"><ele>117.0</ele><time>2026-05-01T16:31:13.488Z</time></trkpt><trkpt lat="39.5146333" lon="8.4925117"><ele>116.6</ele><time>2026-05-01T16:31:15.488Z</time></trkpt><trkpt lat="39.5146033" lon="8.49266"><ele>116.19999999999999</ele><time>2026-05-01T16:31:17.486Z</time></trkpt><trkpt lat="39.5145917" lon="8.4927733"><ele>115.8</ele><time>2026-05-01T16:31:19.491Z</time></trkpt><trkpt lat="39.514535" lon="8.4929367"><ele>115.4</ele><time>2026-05-01T16:31:28.487Z</time></trkpt><trkpt lat="39.5144967" lon="8.493005"><ele>115.0</ele><time>2026-05-01T16:31:29.487Z</time></trkpt><trkpt lat="39.5144633" lon="8.4930817"><ele>115.00000000000001</ele><time>2026-05-01T16:31:30.491Z</time></trkpt><trkpt lat="39.5144433" lon="8.49316"><ele>115.0</ele><time>2026-05-01T16:31:31.487Z</time></trkpt><trkpt lat="39.5144333" lon="8.4932467"><ele>115.0</ele><time>2026-05-01T16:31:32.491Z</time></trkpt><trkpt lat="39.5144383" lon="8.4933417"><ele>115.0</ele><time>2026-05-01T16:31:33.487Z</time></trkpt><trkpt lat="39.51445" lon="8.4934233"><ele>115.00000000000001</ele><time>2026-05-01T16:31:34.49Z</time></trkpt><trkpt lat="39.5145" lon="8.4935483"><ele>115.0</ele><time>2026-05-01T16:31:36.492Z</time></trkpt><trkpt lat="39.5146067" lon="8.49361"><ele>113.83333333333334</ele><time>2026-05-01T16:31:38.51Z</time></trkpt><trkpt lat="39.5146917" lon="8.49363"><ele>112.66666666666667</ele><time>2026-05-01T16:31:40.488Z</time></trkpt><trkpt lat="39.5147817" lon="8.4936183"><ele>111.5</ele><time>2026-05-01T16:31:42.491Z</time></trkpt><trkpt lat="39.5148617" lon="8.4936133"><ele>110.33333333333334</ele><time>2026-05-01T16:31:44.504Z</time></trkpt><trkpt lat="39.514935" lon="8.493635"><ele>109.16666666666667</ele><time>2026-05-01T16:31:47.489Z</time></trkpt><trkpt lat="39.515025" lon="8.4936533"><ele>108.0</ele><time>2026-05-01T16:33:08.523Z</time></trkpt><trkpt lat="39.515015" lon="8.49377"><ele>108.0</ele><time>2026-05-01T16:33:10.49Z</time></trkpt><trkpt lat="39.5149917" lon="8.493865"><ele>108.0</ele><time>2026-05-01T16:33:11.485Z</time></trkpt><trkpt lat="39.5149683" lon="8.49397"><ele>108.0</ele><time>2026-05-01T16:33:12.493Z</time></trkpt><trkpt lat="39.5149467" lon="8.4940833"><ele>108.0</ele><time>2026-05-01T16:33:13.484Z</time></trkpt><trkpt lat="39.51494" lon="8.49419"><ele>108.0</ele><time>2026-05-01T16:33:14.515Z</time></trkpt><trkpt lat="39.5149517" lon="8.4943"><ele>108.0</ele><time>2026-05-01T16:33:15.487Z</time></trkpt><trkpt lat="39.5149783" lon="8.4944083"><ele>108.0</ele><time>2026-05-01T16:33:16.488Z</time></trkpt><trkpt lat="39.515015" lon="8.4945167"><ele>108.00000000000001</ele><time>2026-05-01T16:33:17.49Z</time></trkpt><trkpt lat="39.5150583" lon="8.49463"><ele>108.00000000000001</ele><time>2026-05-01T16:33:18.487Z</time></trkpt><trkpt lat="39.5151067" lon="8.49475"><ele>108.0</ele><time>2026-05-01T16:33:19.49Z</time></trkpt><trkpt lat="39.5151567" lon="8.494875"><ele>108.0</ele><time>2026-05-01T16:33:20.519Z</time></trkpt><trkpt lat="39.5152017" lon="8.4950083"><ele>108.5</ele><time>2026-05-01T16:33:21.49Z</time></trkpt><trkpt lat="39.5152467" lon="8.4951383"><ele>109.0</ele><time>2026-05-01T16:33:22.488Z</time></trkpt><trkpt lat="39.5152917" lon="8.49527"><ele>109.5</ele><time>2026-05-01T16:33:23.489Z</time></trkpt><trkpt lat="39.5153433" lon="8.495405"><ele>110.0</ele><time>2026-05-01T16:33:24.492Z</time></trkpt><trkpt lat="39.5153917" lon="8.49554"><ele>113.75</ele><time>2026-05-01T16:33:25.492Z</time></trkpt><trkpt lat="39.515445" lon="8.4956833"><ele>117.5</ele><time>2026-05-01T16:33:26.504Z</time></trkpt><trkpt lat="39.5155017" lon="8.4958383"><ele>121.25</ele><time>2026-05-01T16:33:27.489Z</time></trkpt><trkpt lat="39.5155567" lon="8.4960017"><ele>125.0</ele><time>2026-05-01T16:33:28.489Z</time></trkpt><trkpt lat="39.5156117" lon="8.4961717"><ele>123.75</ele><time>2026-05-01T16:33:29.488Z</time></trkpt><trkpt lat="39.5156633" lon="8.4963483"><ele>122.5</ele><time>2026-05-01T16:33:30.487Z</time></trkpt><trkpt lat="39.5157067" lon="8.4965217"><ele>121.25</ele><time>2026-05-01T16:33:31.487Z</time></trkpt><trkpt lat="39.5157467" lon="8.49669"><ele>120.0</ele><time>2026-05-01T16:33:32.532Z</time></trkpt><trkpt lat="39.5157833" lon="8.496855"><ele>120.0</ele><time>2026-05-01T16:33:33.492Z</time></trkpt><trkpt lat="39.515805" lon="8.4970183"><ele>120.0</ele><time>2026-05-01T16:33:34.488Z</time></trkpt><trkpt lat="39.5158183" lon="8.4971817"><ele>120.0</ele><time>2026-05-01T16:33:35.492Z</time></trkpt><trkpt lat="39.515825" lon="8.4973383"><ele>120.0</ele><time>2026-05-01T16:33:36.492Z</time></trkpt><trkpt lat="39.51583" lon="8.4974883"><ele>119.8</ele><time>2026-05-01T16:33:37.485Z</time></trkpt><trkpt lat="39.5158317" lon="8.497625"><ele>119.6</ele><time>2026-05-01T16:33:38.516Z</time></trkpt><trkpt lat="39.51583" lon="8.49775"><ele>119.4</ele><time>2026-05-01T16:33:39.486Z</time></trkpt><trkpt lat="39.51584" lon="8.49786"><ele>119.2</ele><time>2026-05-01T16:33:40.49Z</time></trkpt><trkpt lat="39.5158633" lon="8.49796"><ele>119.0</ele><time>2026-05-01T16:33:41.486Z</time></trkpt><trkpt lat="39.5158983" lon="8.4980583"><ele>119.80000000000001</ele><time>2026-05-01T16:33:42.489Z</time></trkpt><trkpt lat="39.51595" lon="8.49815"><ele>120.60000000000001</ele><time>2026-05-01T16:33:43.491Z</time></trkpt><trkpt lat="39.5160167" lon="8.4982433"><ele>121.4</ele><time>2026-05-01T16:33:44.52Z</time></trkpt><trkpt lat="39.5160983" lon="8.49834"><ele>122.2</ele><time>2026-05-01T16:33:45.486Z</time></trkpt><trkpt lat="39.516195" lon="8.49843"><ele>123.0</ele><time>2026-05-01T16:33:46.49Z</time></trkpt><trkpt lat="39.5162917" lon="8.4985067"><ele>123.80000000000001</ele><time>2026-05-01T16:33:47.488Z</time></trkpt><trkpt lat="39.516385" lon="8.4985767"><ele>124.60000000000001</ele><time>2026-05-01T16:33:48.492Z</time></trkpt><trkpt lat="39.5164767" lon="8.4986467"><ele>125.39999999999999</ele><time>2026-05-01T16:33:49.49Z</time></trkpt><trkpt lat="39.5165617" lon="8.4987183"><ele>126.19999999999999</ele><time>2026-05-01T16:33:50.52Z</time></trkpt><trkpt lat="39.5166383" lon="8.4987933"><ele>127.0</ele><time>2026-05-01T16:33:51.485Z</time></trkpt><trkpt lat="39.5167033" lon="8.4988883"><ele>127.39999999999999</ele><time>2026-05-01T16:33:52.491Z</time></trkpt><trkpt lat="39.5167517" lon="8.4989933"><ele>127.79999999999998</ele><time>2026-05-01T16:33:53.489Z</time></trkpt><trkpt lat="39.5168033" lon="8.4990933"><ele>128.2</ele><time>2026-05-01T16:33:54.488Z</time></trkpt><trkpt lat="39.516855" lon="8.4991867"><ele>128.6</ele><time>2026-05-01T16:33:55.488Z</time></trkpt><trkpt lat="39.5169183" lon="8.4992783"><ele>129.0</ele><time>2026-05-01T16:33:56.548Z</time></trkpt><trkpt lat="39.516995" lon="8.4993533"><ele>129.75</ele><time>2026-05-01T16:33:57.486Z</time></trkpt><trkpt lat="39.5171083" lon="8.499385"><ele>130.5</ele><time>2026-05-01T16:33:58.486Z</time></trkpt><trkpt lat="39.5172167" lon="8.4994233"><ele>131.25</ele><time>2026-05-01T16:33:59.487Z</time></trkpt><trkpt lat="39.5173283" lon="8.499455"><ele>132.0</ele><time>2026-05-01T16:34:00.491Z</time></trkpt><trkpt lat="39.5174333" lon="8.4995083"><ele>132.0</ele><time>2026-05-01T16:34:01.486Z</time></trkpt><trkpt lat="39.517535" lon="8.4995767"><ele>132.0</ele><time>2026-05-01T16:34:02.532Z</time></trkpt><trkpt lat="39.5176317" lon="8.4996583"><ele>132.0</ele><time>2026-05-01T16:34:03.485Z</time></trkpt><trkpt lat="39.5177233" lon="8.4997533"><ele>132.0</ele><time>2026-05-01T16:34:04.49Z</time></trkpt><trkpt lat="39.51782" lon="8.4998617"><ele>132.75</ele><time>2026-05-01T16:34:05.487Z</time></trkpt><trkpt lat="39.5179083" lon="8.499985"><ele>133.5</ele><time>2026-05-01T16:34:06.488Z</time></trkpt><trkpt lat="39.5179867" lon="8.5001133"><ele>134.25</ele><time>2026-05-01T16:34:07.488Z</time></trkpt><trkpt lat="39.5180567" lon="8.5002383"><ele>135.0</ele><time>2026-05-01T16:34:08.519Z</time></trkpt><trkpt lat="39.5181183" lon="8.50035"><ele>137.0</ele><time>2026-05-01T16:34:09.485Z</time></trkpt><trkpt lat="39.518185" lon="8.5004533"><ele>139.0</ele><time>2026-05-01T16:34:10.49Z</time></trkpt><trkpt lat="39.5182567" lon="8.50055"><ele>141.0</ele><time>2026-05-01T16:34:11.489Z</time></trkpt><trkpt lat="39.5183433" lon="8.5006317"><ele>143.0</ele><time>2026-05-01T16:34:12.491Z</time></trkpt><trkpt lat="39.5184467" lon="8.5006833"><ele>145.0</ele><time>2026-05-01T16:34:13.486Z</time></trkpt><trkpt lat="39.5185967" lon="8.500655"><ele>145.0</ele><time>2026-05-01T16:34:14.515Z</time></trkpt><trkpt lat="39.5187033" lon="8.5006583"><ele>145.0</ele><time>2026-05-01T16:34:15.489Z</time></trkpt><trkpt lat="39.518805" lon="8.5006483"><ele>145.0</ele><time>2026-05-01T16:34:16.49Z</time></trkpt><trkpt lat="39.5189" lon="8.5006467"><ele>145.0</ele><time>2026-05-01T16:34:17.491Z</time></trkpt><trkpt lat="39.5190017" lon="8.5006583"><ele>145.0</ele><time>2026-05-01T16:34:18.488Z</time></trkpt><trkpt lat="39.5190933" lon="8.5006867"><ele>144.8</ele><time>2026-05-01T16:34:19.488Z</time></trkpt><trkpt lat="39.5191967" lon="8.50072"><ele>144.6</ele><time>2026-05-01T16:34:20.516Z</time></trkpt><trkpt lat="39.5192883" lon="8.5007733"><ele>144.4</ele><time>2026-05-01T16:34:21.487Z</time></trkpt><trkpt lat="39.5193683" lon="8.5008433"><ele>144.2</ele><time>2026-05-01T16:34:22.488Z</time></trkpt><trkpt lat="39.5194017" lon="8.5009533"><ele>144.0</ele><time>2026-05-01T16:34:23.487Z</time></trkpt><trkpt lat="39.51943" lon="8.5010717"><ele>144.0</ele><time>2026-05-01T16:34:24.491Z</time></trkpt><trkpt lat="39.51945" lon="8.5011967"><ele>144.0</ele><time>2026-05-01T16:34:25.488Z</time></trkpt><trkpt lat="39.5195083" lon="8.5013117"><ele>144.0</ele><time>2026-05-01T16:34:26.55Z</time></trkpt><trkpt lat="39.51957" lon="8.5014267"><ele>144.0</ele><time>2026-05-01T16:34:27.493Z</time></trkpt><trkpt lat="39.5196333" lon="8.501535"><ele>144.0</ele><time>2026-05-01T16:34:28.49Z</time></trkpt><trkpt lat="39.5196833" lon="8.5016467"><ele>146.5</ele><time>2026-05-01T16:34:29.487Z</time></trkpt><trkpt lat="39.5197117" lon="8.5017667"><ele>149.0</ele><time>2026-05-01T16:34:30.486Z</time></trkpt><trkpt lat="39.5197217" lon="8.5018867"><ele>151.5</ele><time>2026-05-01T16:34:31.484Z</time></trkpt><trkpt lat="39.5197067" lon="8.501995"><ele>154.0</ele><time>2026-05-01T16:34:32.528Z</time></trkpt><trkpt lat="39.519685" lon="8.5020883"><ele>156.5</ele><time>2026-05-01T16:34:33.486Z</time></trkpt><trkpt lat="39.519655" lon="8.5021717"><ele>159.0</ele><time>2026-05-01T16:34:34.489Z</time></trkpt><trkpt lat="39.5196317" lon="8.50226"><ele>159.0</ele><time>2026-05-01T16:34:35.489Z</time></trkpt><trkpt lat="39.5195933" lon="8.5023383"><ele>159.0</ele><time>2026-05-01T16:34:36.489Z</time></trkpt><trkpt lat="39.5195983" lon="8.5024217"><ele>159.0</ele><time>2026-05-01T16:34:37.491Z</time></trkpt><trkpt lat="39.5196767" lon="8.5025633"><ele>159.0</ele><time>2026-05-01T16:34:39.493Z</time></trkpt><trkpt lat="39.5197467" lon="8.502665"><ele>159.0</ele><time>2026-05-01T16:34:41.487Z</time></trkpt><trkpt lat="39.5197767" lon="8.5027383"><ele>159.0</ele><time>2026-05-01T16:34:42.49Z</time></trkpt><trkpt lat="39.5198033" lon="8.5028233"><ele>159.4</ele><time>2026-05-01T16:34:43.489Z</time></trkpt><trkpt lat="39.5198283" lon="8.5029217"><ele>159.8</ele><time>2026-05-01T16:34:44.517Z</time></trkpt><trkpt lat="39.5198583" lon="8.5030267"><ele>160.20000000000002</ele><time>2026-05-01T16:34:45.485Z</time></trkpt><trkpt lat="39.5198933" lon="8.503145"><ele>160.60000000000002</ele><time>2026-05-01T16:34:46.488Z</time></trkpt><trkpt lat="39.5199233" lon="8.5032767"><ele>161.0</ele><time>2026-05-01T16:34:47.487Z</time></trkpt><trkpt lat="39.519955" lon="8.503415"><ele>161.0</ele><time>2026-05-01T16:34:48.486Z</time></trkpt><trkpt lat="39.5199833" lon="8.5035633"><ele>161.0</ele><time>2026-05-01T16:34:49.489Z</time></trkpt><trkpt lat="39.520015" lon="8.5037083"><ele>161.0</ele><time>2026-05-01T16:34:50.515Z</time></trkpt><trkpt lat="39.5200433" lon="8.5038417"><ele>161.0</ele><time>2026-05-01T16:34:51.491Z</time></trkpt><trkpt lat="39.5200667" lon="8.5039633"><ele>161.0</ele><time>2026-05-01T16:34:52.488Z</time></trkpt><trkpt lat="39.5200983" lon="8.5040767"><ele>161.83333333333331</ele><time>2026-05-01T16:34:53.489Z</time></trkpt><trkpt lat="39.520125" lon="8.5041667"><ele>162.66666666666666</ele><time>2026-05-01T16:34:54.486Z</time></trkpt><trkpt lat="39.5201533" lon="8.50424"><ele>163.5</ele><time>2026-05-01T16:34:55.488Z</time></trkpt><trkpt lat="39.5202517" lon="8.50428"><ele>164.33333333333334</ele><time>2026-05-01T16:34:57.489Z</time></trkpt><trkpt lat="39.5203567" lon="8.5042517"><ele>165.16666666666669</ele><time>2026-05-01T16:34:59.488Z</time></trkpt><trkpt lat="39.52042" lon="8.5042267"><ele>166.0</ele><time>2026-05-01T16:35:00.489Z</time></trkpt><trkpt lat="39.5204867" lon="8.5041917"><ele>166.16666666666669</ele><time>2026-05-01T16:35:01.489Z</time></trkpt><trkpt lat="39.520545" lon="8.5041583"><ele>166.33333333333334</ele><time>2026-05-01T16:35:02.498Z</time></trkpt><trkpt lat="39.5206217" lon="8.50415"><ele>166.5</ele><time>2026-05-01T16:35:03.486Z</time></trkpt><trkpt lat="39.5207083" lon="8.50414"><ele>166.66666666666666</ele><time>2026-05-01T16:35:04.485Z</time></trkpt><trkpt lat="39.52078" lon="8.50417"><ele>166.83333333333331</ele><time>2026-05-01T16:35:05.484Z</time></trkpt><trkpt lat="39.5208467" lon="8.504215"><ele>167.0</ele><time>2026-05-01T16:35:06.488Z</time></trkpt><trkpt lat="39.5209083" lon="8.50428"><ele>167.0</ele><time>2026-05-01T16:35:07.486Z</time></trkpt><trkpt lat="39.5209683" lon="8.5043567"><ele>167.0</ele><time>2026-05-01T16:35:08.519Z</time></trkpt><trkpt lat="39.5210217" lon="8.5044383"><ele>167.0</ele><time>2026-05-01T16:35:09.49Z</time></trkpt><trkpt lat="39.521075" lon="8.5045283"><ele>167.0</ele><time>2026-05-01T16:35:10.488Z</time></trkpt><trkpt lat="39.5211217" lon="8.504625"><ele>167.0</ele><time>2026-05-01T16:35:11.488Z</time></trkpt><trkpt lat="39.5211733" lon="8.5047117"><ele>167.0</ele><time>2026-05-01T16:35:12.487Z</time></trkpt><trkpt lat="39.5212267" lon="8.5048083"><ele>170.2</ele><time>2026-05-01T16:35:13.488Z</time></trkpt><trkpt lat="39.5212717" lon="8.5049183"><ele>173.39999999999998</ele><time>2026-05-01T16:35:14.519Z</time></trkpt><trkpt lat="39.521315" lon="8.50503"><ele>176.60000000000002</ele><time>2026-05-01T16:35:15.493Z</time></trkpt><trkpt lat="39.5213567" lon="8.5051417"><ele>179.8</ele><time>2026-05-01T16:35:16.491Z</time></trkpt><trkpt lat="39.5213917" lon="8.5052617"><ele>183.0</ele><time>2026-05-01T16:35:17.488Z</time></trkpt><trkpt lat="39.5214267" lon="8.5053733"><ele>182.2</ele><time>2026-05-01T16:35:18.49Z</time></trkpt><trkpt lat="39.5214517" lon="8.5054867"><ele>181.4</ele><time>2026-05-01T16:35:19.487Z</time></trkpt><trkpt lat="39.52146" lon="8.505595"><ele>180.6</ele><time>2026-05-01T16:35:20.518Z</time></trkpt><trkpt lat="39.5214633" lon="8.5057"><ele>179.79999999999998</ele><time>2026-05-01T16:35:21.489Z</time></trkpt><trkpt lat="39.52146" lon="8.5057933"><ele>179.0</ele><time>2026-05-01T16:35:22.487Z</time></trkpt><trkpt lat="39.5214517" lon="8.5059517"><ele>179.0</ele><time>2026-05-01T16:35:24.487Z</time></trkpt><trkpt lat="39.5214783" lon="8.506095"><ele>179.0</ele><time>2026-05-01T16:35:26.49Z</time></trkpt><trkpt lat="39.5215267" lon="8.5062133"><ele>179.0</ele><time>2026-05-01T16:35:28.493Z</time></trkpt><trkpt lat="39.521585" lon="8.5063333"><ele>179.0</ele><time>2026-05-01T16:35:30.486Z</time></trkpt><trkpt lat="39.5216233" lon="8.5065033"><ele>178.25</ele><time>2026-05-01T16:35:32.486Z</time></trkpt><trkpt lat="39.5216217" lon="8.506645"><ele>177.5</ele><time>2026-05-01T16:35:33.488Z</time></trkpt><trkpt lat="39.5216217" lon="8.506805"><ele>176.75</ele><time>2026-05-01T16:35:34.489Z</time></trkpt><trkpt lat="39.521635" lon="8.5069667"><ele>176.0</ele><time>2026-05-01T16:35:35.492Z</time></trkpt><trkpt lat="39.521655" lon="8.5071283"><ele>177.4</ele><time>2026-05-01T16:35:36.489Z</time></trkpt><trkpt lat="39.52168" lon="8.5072817"><ele>178.8</ele><time>2026-05-01T16:35:37.489Z</time></trkpt><trkpt lat="39.5217083" lon="8.5074183"><ele>180.20000000000002</ele><time>2026-05-01T16:35:38.515Z</time></trkpt><trkpt lat="39.52174" lon="8.5075383"><ele>181.60000000000002</ele><time>2026-05-01T16:35:39.488Z</time></trkpt><trkpt lat="39.5217667" lon="8.507655"><ele>183.0</ele><time>2026-05-01T16:35:40.489Z</time></trkpt><trkpt lat="39.5217983" lon="8.5077633"><ele>183.0</ele><time>2026-05-01T16:35:41.49Z</time></trkpt><trkpt lat="39.52184" lon="8.507875"><ele>183.0</ele><time>2026-05-01T16:35:42.488Z</time></trkpt><trkpt lat="39.5218917" lon="8.5079967"><ele>183.0</ele><time>2026-05-01T16:35:43.484Z</time></trkpt><trkpt lat="39.5219533" lon="8.50813"><ele>183.0</ele><time>2026-05-01T16:35:44.52Z</time></trkpt><trkpt lat="39.5220267" lon="8.5082817"><ele>187.75</ele><time>2026-05-01T16:35:45.485Z</time></trkpt><trkpt lat="39.5221067" lon="8.50845"><ele>192.5</ele><time>2026-05-01T16:35:46.486Z</time></trkpt><trkpt lat="39.52218" lon="8.508605"><ele>197.25</ele><time>2026-05-01T16:35:47.492Z</time></trkpt><trkpt lat="39.5222517" lon="8.5087733"><ele>202.0</ele><time>2026-05-01T16:35:48.489Z</time></trkpt><trkpt lat="39.5223183" lon="8.5089367"><ele>202.0</ele><time>2026-05-01T16:35:49.486Z</time></trkpt><trkpt lat="39.5223767" lon="8.509095"><ele>202.0</ele><time>2026-05-01T16:35:50.519Z</time></trkpt><trkpt lat="39.5224383" lon="8.5092417"><ele>202.0</ele><time>2026-05-01T16:35:51.484Z</time></trkpt><trkpt lat="39.5224983" lon="8.5093767"><ele>202.0</ele><time>2026-05-01T16:35:52.485Z</time></trkpt><trkpt lat="39.5225617" lon="8.509505"><ele>203.0</ele><time>2026-05-01T16:35:53.488Z</time></trkpt><trkpt lat="39.5226383" lon="8.5096133"><ele>204.0</ele><time>2026-05-01T16:35:54.486Z</time></trkpt><trkpt lat="39.5227267" lon="8.5097067"><ele>205.0</ele><time>2026-05-01T16:35:55.487Z</time></trkpt><trkpt lat="39.5228283" lon="8.5097917"><ele>206.0</ele><time>2026-05-01T16:35:56.487Z</time></trkpt><trkpt lat="39.522935" lon="8.5098633"><ele>206.20000000000002</ele><time>2026-05-01T16:35:57.485Z</time></trkpt><trkpt lat="39.523035" lon="8.509925"><ele>206.4</ele><time>2026-05-01T16:35:58.489Z</time></trkpt><trkpt lat="39.5231283" lon="8.5099783"><ele>206.6</ele><time>2026-05-01T16:35:59.491Z</time></trkpt><trkpt lat="39.523215" lon="8.5100467"><ele>206.8</ele><time>2026-05-01T16:36:00.489Z</time></trkpt><trkpt lat="39.5232967" lon="8.5101083"><ele>207.0</ele><time>2026-05-01T16:36:01.489Z</time></trkpt><trkpt lat="39.5233567" lon="8.5101867"><ele>207.0</ele><time>2026-05-01T16:36:02.5Z</time></trkpt><trkpt lat="39.5234267" lon="8.510245"><ele>207.0</ele><time>2026-05-01T16:36:03.49Z</time></trkpt><trkpt lat="39.523495" lon="8.510305"><ele>207.0</ele><time>2026-05-01T16:36:04.486Z</time></trkpt><trkpt lat="39.5234517" lon="8.5103817"><ele>207.0</ele><time>2026-05-01T16:36:05.488Z</time></trkpt><trkpt lat="39.5232067" lon="8.5103767"><ele>207.0</ele><time>2026-05-01T16:36:07.488Z</time></trkpt><trkpt lat="39.52306" lon="8.5103533"><ele>207.0</ele><time>2026-05-01T16:36:08.517Z</time></trkpt><trkpt lat="39.5229083" lon="8.5103133"><ele>207.0</ele><time>2026-05-01T16:36:09.489Z</time></trkpt><trkpt lat="39.52278" lon="8.51027"><ele>207.0</ele><time>2026-05-01T16:36:10.487Z</time></trkpt><trkpt lat="39.5226483" lon="8.5102167"><ele>206.75</ele><time>2026-05-01T16:36:11.49Z</time></trkpt><trkpt lat="39.5225183" lon="8.5101683"><ele>206.5</ele><time>2026-05-01T16:36:12.487Z</time></trkpt><trkpt lat="39.5223733" lon="8.5100917"><ele>206.25</ele><time>2026-05-01T16:36:13.49Z</time></trkpt><trkpt lat="39.52224" lon="8.5099983"><ele>206.0</ele><time>2026-05-01T16:36:14.518Z</time></trkpt><trkpt lat="39.5221017" lon="8.509885"><ele>206.66666666666669</ele><time>2026-05-01T16:36:15.487Z</time></trkpt><trkpt lat="39.521985" lon="8.5097433"><ele>207.33333333333331</ele><time>2026-05-01T16:36:16.484Z</time></trkpt><trkpt lat="39.5218767" lon="8.5095717"><ele>208.0</ele><time>2026-05-01T16:36:17.483Z</time></trkpt><trkpt lat="39.5217867" lon="8.509375"><ele>208.0</ele><time>2026-05-01T16:36:18.491Z</time></trkpt><trkpt lat="39.5217083" lon="8.509185"><ele>208.0</ele><time>2026-05-01T16:36:19.491Z</time></trkpt><trkpt lat="39.52162" lon="8.5090283"><ele>208.0</ele><time>2026-05-01T16:36:20.517Z</time></trkpt><trkpt lat="39.52154" lon="8.508895"><ele>208.0</ele><time>2026-05-01T16:36:21.487Z</time></trkpt><trkpt lat="39.521455" lon="8.5088283"><ele>208.0</ele><time>2026-05-01T16:36:22.487Z</time></trkpt><trkpt lat="39.5213767" lon="8.5088083"><ele>208.0</ele><time>2026-05-01T16:36:23.487Z</time></trkpt><trkpt lat="39.52129" lon="8.5088167"><ele>208.0</ele><time>2026-05-01T16:36:24.491Z</time></trkpt><trkpt lat="39.5211567" lon="8.5089267"><ele>208.0</ele><time>2026-05-01T16:36:25.489Z</time></trkpt><trkpt lat="39.5210567" lon="8.5090167"><ele>208.0</ele><time>2026-05-01T16:36:26.489Z</time></trkpt><trkpt lat="39.5209667" lon="8.50912"><ele>210.0</ele><time>2026-05-01T16:36:27.49Z</time></trkpt><trkpt lat="39.5208883" lon="8.509235"><ele>212.0</ele><time>2026-05-01T16:36:28.489Z</time></trkpt><trkpt lat="39.5208117" lon="8.5093633"><ele>214.0</ele><time>2026-05-01T16:36:29.49Z</time></trkpt><trkpt lat="39.5207317" lon="8.5095067"><ele>216.0</ele><time>2026-05-01T16:36:30.485Z</time></trkpt><trkpt lat="39.52065" lon="8.5096383"><ele>219.4</ele><time>2026-05-01T16:36:31.49Z</time></trkpt><trkpt lat="39.5205767" lon="8.5097583"><ele>222.8</ele><time>2026-05-01T16:36:32.49Z</time></trkpt><trkpt lat="39.5205" lon="8.5098583"><ele>226.20000000000002</ele><time>2026-05-01T16:36:33.484Z</time></trkpt><trkpt lat="39.52042" lon="8.5099383"><ele>229.60000000000002</ele><time>2026-05-01T16:36:34.488Z</time></trkpt><trkpt lat="39.5203317" lon="8.5100067"><ele>233.0</ele><time>2026-05-01T16:36:35.488Z</time></trkpt><trkpt lat="39.5202433" lon="8.5100583"><ele>233.00000000000003</ele><time>2026-05-01T16:36:36.49Z</time></trkpt><trkpt lat="39.5201533" lon="8.5100917"><ele>233.0</ele><time>2026-05-01T16:36:37.487Z</time></trkpt><trkpt lat="39.5200533" lon="8.5100433"><ele>233.0</ele><time>2026-05-01T16:36:38.518Z</time></trkpt><trkpt lat="39.5199883" lon="8.5100183"><ele>233.0</ele><time>2026-05-01T16:36:39.483Z</time></trkpt><trkpt lat="39.51992" lon="8.510005"><ele>233.00000000000003</ele><time>2026-05-01T16:36:40.488Z</time></trkpt><trkpt lat="39.519855" lon="8.5100067"><ele>233.0</ele><time>2026-05-01T16:36:41.491Z</time></trkpt><trkpt lat="39.5197967" lon="8.5101267"><ele>233.0</ele><time>2026-05-01T16:36:43.487Z</time></trkpt><trkpt lat="39.5198483" lon="8.510255"><ele>233.0</ele><time>2026-05-01T16:36:46.487Z</time></trkpt><trkpt lat="39.5198633" lon="8.5104033"><ele>233.0</ele><time>2026-05-01T16:36:48.486Z</time></trkpt><trkpt lat="39.5198617" lon="8.5104867"><ele>233.0</ele><time>2026-05-01T16:36:49.488Z</time></trkpt><trkpt lat="39.5198783" lon="8.5106217"><ele>233.0</ele><time>2026-05-01T16:36:51.489Z</time></trkpt><trkpt lat="39.5199367" lon="8.510705"><ele>235.83333333333334</ele><time>2026-05-01T16:36:53.491Z</time></trkpt><trkpt lat="39.52" lon="8.5106717"><ele>238.66666666666669</ele><time>2026-05-01T16:36:54.492Z</time></trkpt><trkpt lat="39.5201217" lon="8.5105783"><ele>241.5</ele><time>2026-05-01T16:36:56.489Z</time></trkpt><trkpt lat="39.5202017" lon="8.510525"><ele>244.33333333333331</ele><time>2026-05-01T16:36:57.485Z</time></trkpt><trkpt lat="39.5202683" lon="8.5105"><ele>247.16666666666666</ele><time>2026-05-01T16:36:58.486Z</time></trkpt><trkpt lat="39.520335" lon="8.5104767"><ele>250.0</ele><time>2026-05-01T16:36:59.485Z</time></trkpt><trkpt lat="39.5204217" lon="8.5104783"><ele>251.83333333333331</ele><time>2026-05-01T16:37:00.488Z</time></trkpt><trkpt lat="39.5205017" lon="8.5104817"><ele>253.66666666666666</ele><time>2026-05-01T16:37:01.488Z</time></trkpt><trkpt lat="39.5205783" lon="8.5104583"><ele>255.5</ele><time>2026-05-01T16:37:02.485Z</time></trkpt><trkpt lat="39.5206633" lon="8.5104117"><ele>257.3333333333333</ele><time>2026-05-01T16:37:03.488Z</time></trkpt><trkpt lat="39.520745" lon="8.51036"><ele>259.1666666666667</ele><time>2026-05-01T16:37:04.486Z</time></trkpt><trkpt lat="39.52081" lon="8.5103017"><ele>261.0</ele><time>2026-05-01T16:37:05.489Z</time></trkpt><trkpt lat="39.5208633" lon="8.5102233"><ele>257.0</ele><time>2026-05-01T16:37:06.49Z</time></trkpt><trkpt lat="39.5209267" lon="8.5101467"><ele>253.0</ele><time>2026-05-01T16:37:07.487Z</time></trkpt><trkpt lat="39.52099" lon="8.5100683"><ele>249.0</ele><time>2026-05-01T16:37:08.519Z</time></trkpt><trkpt lat="39.52106" lon="8.5100017"><ele>245.0</ele><time>2026-05-01T16:37:09.488Z</time></trkpt><trkpt lat="39.521135" lon="8.5099517"><ele>241.0</ele><time>2026-05-01T16:37:10.488Z</time></trkpt><trkpt lat="39.5212083" lon="8.509925"><ele>237.0</ele><time>2026-05-01T16:37:11.487Z</time></trkpt><trkpt lat="39.52128" lon="8.50991"><ele>236.57142857142856</ele><time>2026-05-01T16:37:12.491Z</time></trkpt><trkpt lat="39.52136" lon="8.50992"><ele>236.14285714285714</ele><time>2026-05-01T16:37:13.488Z</time></trkpt><trkpt lat="39.5214283" lon="8.5099367"><ele>235.71428571428572</ele><time>2026-05-01T16:37:14.515Z</time></trkpt><trkpt lat="39.5214933" lon="8.5099667"><ele>235.28571428571428</ele><time>2026-05-01T16:37:15.488Z</time></trkpt><trkpt lat="39.52151" lon="8.5100517"><ele>234.8571428571429</ele><time>2026-05-01T16:37:16.484Z</time></trkpt><trkpt lat="39.5215383" lon="8.510135"><ele>234.42857142857144</ele><time>2026-05-01T16:37:17.487Z</time></trkpt><trkpt lat="39.5215667" lon="8.5102183"><ele>234.0</ele><time>2026-05-01T16:37:18.489Z</time></trkpt><trkpt lat="39.5215983" lon="8.5103017"><ele>234.0</ele><time>2026-05-01T16:37:19.489Z</time></trkpt><trkpt lat="39.52162" lon="8.510405"><ele>234.0</ele><time>2026-05-01T16:37:20.516Z</time></trkpt><trkpt lat="39.521635" lon="8.5105033"><ele>234.0</ele><time>2026-05-01T16:37:21.49Z</time></trkpt><trkpt lat="39.5216433" lon="8.5106"><ele>234.0</ele><time>2026-05-01T16:37:22.488Z</time></trkpt><trkpt lat="39.521645" lon="8.5107483"><ele>234.0</ele><time>2026-05-01T16:37:24.488Z</time></trkpt><trkpt lat="39.521635" lon="8.5108767"><ele>234.0</ele><time>2026-05-01T16:37:26.549Z</time></trkpt><trkpt lat="39.5215917" lon="8.51095"><ele>234.0</ele><time>2026-05-01T16:37:29.49Z</time></trkpt><trkpt lat="39.5215483" lon="8.51088"><ele>234.0</ele><time>2026-05-01T16:37:32.514Z</time></trkpt><trkpt lat="39.5215633" lon="8.5107533"><ele>234.0</ele><time>2026-05-01T16:37:34.489Z</time></trkpt><trkpt lat="39.52155" lon="8.5105917"><ele>234.0</ele><time>2026-05-01T16:37:36.491Z</time></trkpt><trkpt lat="39.5215217" lon="8.5105067"><ele>234.0</ele><time>2026-05-01T16:37:37.49Z</time></trkpt><trkpt lat="39.52148" lon="8.51043"><ele>234.0</ele><time>2026-05-01T16:37:38.518Z</time></trkpt><trkpt lat="39.52142" lon="8.510365"><ele>234.0</ele><time>2026-05-01T16:37:39.49Z</time></trkpt><trkpt lat="39.521355" lon="8.5103183"><ele>234.0</ele><time>2026-05-01T16:37:40.489Z</time></trkpt><trkpt lat="39.5212867" lon="8.5102967"><ele>234.0</ele><time>2026-05-01T16:37:41.487Z</time></trkpt><trkpt lat="39.52121" lon="8.51031"><ele>234.0</ele><time>2026-05-01T16:37:42.488Z</time></trkpt><trkpt lat="39.5211233" lon="8.510355"><ele>234.0</ele><time>2026-05-01T16:37:43.488Z</time></trkpt><trkpt lat="39.5210583" lon="8.5104117"><ele>234.0</ele><time>2026-05-01T16:37:44.519Z</time></trkpt><trkpt lat="39.5210017" lon="8.5104817"><ele>238.5</ele><time>2026-05-01T16:37:45.485Z</time></trkpt><trkpt lat="39.5209533" lon="8.510575"><ele>243.0</ele><time>2026-05-01T16:37:46.488Z</time></trkpt><trkpt lat="39.52091" lon="8.5106617"><ele>247.5</ele><time>2026-05-01T16:37:47.49Z</time></trkpt><trkpt lat="39.5208633" lon="8.51074"><ele>252.0</ele><time>2026-05-01T16:37:48.491Z</time></trkpt><trkpt lat="39.52081" lon="8.5108117"><ele>256.5</ele><time>2026-05-01T16:37:49.491Z</time></trkpt><trkpt lat="39.520755" lon="8.51087"><ele>261.0</ele><time>2026-05-01T16:37:50.517Z</time></trkpt><trkpt lat="39.520655" lon="8.51095"><ele>261.0</ele><time>2026-05-01T16:37:52.487Z</time></trkpt><trkpt lat="39.5205633" lon="8.5109967"><ele>261.0</ele><time>2026-05-01T16:37:54.489Z</time></trkpt><trkpt lat="39.5204967" lon="8.5110267"><ele>261.0</ele><time>2026-05-01T16:37:56.49Z</time></trkpt><trkpt lat="39.5204283" lon="8.5110733"><ele>261.0</ele><time>2026-05-01T16:37:58.488Z</time></trkpt><trkpt lat="39.52034" lon="8.51119"><ele>261.0</ele><time>2026-05-01T16:38:00.489Z</time></trkpt><trkpt lat="39.5203133" lon="8.5112717"><ele>261.0</ele><time>2026-05-01T16:38:01.484Z</time></trkpt><trkpt lat="39.5202717" lon="8.511395"><ele>262.40000000000003</ele><time>2026-05-01T16:38:02.52Z</time></trkpt><trkpt lat="39.52023" lon="8.5115217"><ele>263.8</ele><time>2026-05-01T16:38:03.491Z</time></trkpt><trkpt lat="39.5201833" lon="8.5116467"><ele>265.20000000000005</ele><time>2026-05-01T16:38:04.489Z</time></trkpt><trkpt lat="39.5201167" lon="8.5117567"><ele>266.6</ele><time>2026-05-01T16:38:05.488Z</time></trkpt><trkpt lat="39.5200433" lon="8.511855"><ele>268.0</ele><time>2026-05-01T16:38:06.488Z</time></trkpt><trkpt lat="39.5199617" lon="8.5119433"><ele>268.0</ele><time>2026-05-01T16:38:07.488Z</time></trkpt><trkpt lat="39.5198817" lon="8.5120217"><ele>268.0</ele><time>2026-05-01T16:38:08.515Z</time></trkpt><trkpt lat="39.5197667" lon="8.5120133"><ele>268.0</ele><time>2026-05-01T16:38:09.493Z</time></trkpt><trkpt lat="39.5197083" lon="8.5120567"><ele>268.0</ele><time>2026-05-01T16:38:10.484Z</time></trkpt><trkpt lat="39.519615" lon="8.51199"><ele>268.0</ele><time>2026-05-01T16:38:11.483Z</time></trkpt><trkpt lat="39.5195217" lon="8.5119233"><ele>272.25</ele><time>2026-05-01T16:38:12.483Z</time></trkpt><trkpt lat="39.5194217" lon="8.511875"><ele>276.5</ele><time>2026-05-01T16:38:13.491Z</time></trkpt><trkpt lat="39.5193083" lon="8.5118367"><ele>280.75</ele><time>2026-05-01T16:38:14.516Z</time></trkpt><trkpt lat="39.5191783" lon="8.5118083"><ele>285.0</ele><time>2026-05-01T16:38:15.486Z</time></trkpt><trkpt lat="39.5190617" lon="8.511755"><ele>285.0</ele><time>2026-05-01T16:38:16.488Z</time></trkpt><trkpt lat="39.5189467" lon="8.5116833"><ele>285.0</ele><time>2026-05-01T16:38:17.484Z</time></trkpt><trkpt lat="39.518845" lon="8.5116217"><ele>285.0</ele><time>2026-05-01T16:38:18.485Z</time></trkpt><trkpt lat="39.51874" lon="8.5115567"><ele>285.0</ele><time>2026-05-01T16:38:19.488Z</time></trkpt><trkpt lat="39.5186567" lon="8.511435"><ele>286.0</ele><time>2026-05-01T16:38:20.518Z</time></trkpt><trkpt lat="39.5185867" lon="8.5113133"><ele>287.0</ele><time>2026-05-01T16:38:21.488Z</time></trkpt><trkpt lat="39.5185883" lon="8.51111"><ele>288.0</ele><time>2026-05-01T16:38:22.487Z</time></trkpt><trkpt lat="39.5185633" lon="8.5109233"><ele>289.0</ele><time>2026-05-01T16:38:23.487Z</time></trkpt><trkpt lat="39.5185517" lon="8.51075"><ele>289.0</ele><time>2026-05-01T16:38:24.487Z</time></trkpt><trkpt lat="39.51854" lon="8.5105817"><ele>289.0</ele><time>2026-05-01T16:38:25.483Z</time></trkpt><trkpt lat="39.5185367" lon="8.5104317"><ele>289.0</ele><time>2026-05-01T16:38:26.546Z</time></trkpt><trkpt lat="39.5185367" lon="8.5102967"><ele>289.0</ele><time>2026-05-01T16:38:27.486Z</time></trkpt><trkpt lat="39.5185517" lon="8.510185"><ele>289.0</ele><time>2026-05-01T16:38:28.487Z</time></trkpt><trkpt lat="39.518545" lon="8.5100917"><ele>283.5</ele><time>2026-05-01T16:38:29.489Z</time></trkpt><trkpt lat="39.5185017" lon="8.50998"><ele>278.0</ele><time>2026-05-01T16:38:31.487Z</time></trkpt><trkpt lat="39.5184283" lon="8.5100033"><ele>272.5</ele><time>2026-05-01T16:38:34.487Z</time></trkpt><trkpt lat="39.5183483" lon="8.5101283"><ele>267.0</ele><time>2026-05-01T16:38:35.488Z</time></trkpt><trkpt lat="39.518245" lon="8.5102967"><ele>274.3333333333333</ele><time>2026-05-01T16:38:36.489Z</time></trkpt><trkpt lat="39.518105" lon="8.5105217"><ele>281.66666666666663</ele><time>2026-05-01T16:38:37.485Z</time></trkpt><trkpt lat="39.5179783" lon="8.510735"><ele>289.0</ele><time>2026-05-01T16:38:38.516Z</time></trkpt><trkpt lat="39.5179417" lon="8.510945"><ele>289.0</ele><time>2026-05-01T16:38:39.483Z</time></trkpt><trkpt lat="39.5179233" lon="8.5111283"><ele>289.0</ele><time>2026-05-01T16:38:40.488Z</time></trkpt><trkpt lat="39.5178983" lon="8.5113033"><ele>289.0</ele><time>2026-05-01T16:38:41.487Z</time></trkpt><trkpt lat="39.5178733" lon="8.5115017"><ele>289.0</ele><time>2026-05-01T16:38:42.488Z</time></trkpt><trkpt lat="39.51783" lon="8.5116867"><ele>287.0</ele><time>2026-05-01T16:38:43.489Z</time></trkpt><trkpt lat="39.5177767" lon="8.5118683"><ele>285.0</ele><time>2026-05-01T16:38:44.519Z</time></trkpt><trkpt lat="39.51772" lon="8.5120333"><ele>283.0</ele><time>2026-05-01T16:38:45.486Z</time></trkpt><trkpt lat="39.5176583" lon="8.5121867"><ele>281.0</ele><time>2026-05-01T16:38:46.483Z</time></trkpt><trkpt lat="39.5175983" lon="8.5123317"><ele>286.8</ele><time>2026-05-01T16:38:47.488Z</time></trkpt><trkpt lat="39.5175333" lon="8.512455"><ele>292.6</ele><time>2026-05-01T16:38:48.488Z</time></trkpt><trkpt lat="39.517465" lon="8.5125617"><ele>298.4</ele><time>2026-05-01T16:38:49.487Z</time></trkpt><trkpt lat="39.5173883" lon="8.5126633"><ele>304.2</ele><time>2026-05-01T16:38:50.516Z</time></trkpt><trkpt lat="39.5172783" lon="8.512635"><ele>310.0</ele><time>2026-05-01T16:38:51.488Z</time></trkpt><trkpt lat="39.5171833" lon="8.5126367"><ele>312.5</ele><time>2026-05-01T16:38:52.491Z</time></trkpt><trkpt lat="39.517065" lon="8.5125667"><ele>315.0</ele><time>2026-05-01T16:38:53.492Z</time></trkpt><trkpt lat="39.516925" lon="8.5124883"><ele>317.5</ele><time>2026-05-01T16:38:54.491Z</time></trkpt><trkpt lat="39.516795" lon="8.5124083"><ele>320.0</ele><time>2026-05-01T16:38:55.488Z</time></trkpt><trkpt lat="39.51667" lon="8.51234"><ele>320.0</ele><time>2026-05-01T16:38:56.549Z</time></trkpt><trkpt lat="39.516545" lon="8.5122717"><ele>320.0</ele><time>2026-05-01T16:38:57.487Z</time></trkpt><trkpt lat="39.5164217" lon="8.5122"><ele>320.0</ele><time>2026-05-01T16:38:58.488Z</time></trkpt><trkpt lat="39.516305" lon="8.5121317"><ele>320.0</ele><time>2026-05-01T16:38:59.487Z</time></trkpt><trkpt lat="39.5162017" lon="8.512055"><ele>320.6</ele><time>2026-05-01T16:39:00.489Z</time></trkpt><trkpt lat="39.5161117" lon="8.5119717"><ele>321.2</ele><time>2026-05-01T16:39:01.49Z</time></trkpt><trkpt lat="39.516045" lon="8.5118517"><ele>321.79999999999995</ele><time>2026-05-01T16:39:02.489Z</time></trkpt><trkpt lat="39.5159967" lon="8.511755"><ele>322.4</ele><time>2026-05-01T16:39:03.488Z</time></trkpt><trkpt lat="39.51597" lon="8.5116317"><ele>323.0</ele><time>2026-05-01T16:39:04.488Z</time></trkpt><trkpt lat="39.5159633" lon="8.5114917"><ele>323.0</ele><time>2026-05-01T16:39:05.487Z</time></trkpt><trkpt lat="39.5159533" lon="8.5113517"><ele>323.0</ele><time>2026-05-01T16:39:06.492Z</time></trkpt><trkpt lat="39.515935" lon="8.5112267"><ele>323.0</ele><time>2026-05-01T16:39:07.488Z</time></trkpt><trkpt lat="39.5158883" lon="8.5111183"><ele>323.0</ele><time>2026-05-01T16:39:08.52Z</time></trkpt><trkpt lat="39.5158017" lon="8.5110617"><ele>323.0</ele><time>2026-05-01T16:39:09.487Z</time></trkpt><trkpt lat="39.5156967" lon="8.5110467"><ele>323.0</ele><time>2026-05-01T16:39:10.484Z</time></trkpt><trkpt lat="39.5156083" lon="8.5110333"><ele>323.0</ele><time>2026-05-01T16:39:11.494Z</time></trkpt><trkpt lat="39.5154967" lon="8.511085"><ele>323.0</ele><time>2026-05-01T16:39:12.487Z</time></trkpt><trkpt lat="39.515385" lon="8.51117"><ele>323.0</ele><time>2026-05-01T16:39:13.487Z</time></trkpt><trkpt lat="39.5152733" lon="8.511275"><ele>323.0</ele><time>2026-05-01T16:39:14.519Z</time></trkpt><trkpt lat="39.515175" lon="8.5113883"><ele>323.0</ele><time>2026-05-01T16:39:15.485Z</time></trkpt><trkpt lat="39.5150967" lon="8.511505"><ele>323.0</ele><time>2026-05-01T16:39:16.488Z</time></trkpt><trkpt lat="39.5150483" lon="8.511635"><ele>323.0</ele><time>2026-05-01T16:39:17.49Z</time></trkpt><trkpt lat="39.515065" lon="8.511795"><ele>323.0</ele><time>2026-05-01T16:39:18.489Z</time></trkpt><trkpt lat="39.5151067" lon="8.5119533"><ele>323.0</ele><time>2026-05-01T16:39:19.493Z</time></trkpt><trkpt lat="39.51516" lon="8.51212"><ele>323.0</ele><time>2026-05-01T16:39:20.519Z</time></trkpt><trkpt lat="39.5152117" lon="8.5123"><ele>323.0</ele><time>2026-05-01T16:39:21.489Z</time></trkpt><trkpt lat="39.5152467" lon="8.512475"><ele>325.33333333333337</ele><time>2026-05-01T16:39:22.486Z</time></trkpt><trkpt lat="39.51527" lon="8.5126667"><ele>327.6666666666667</ele><time>2026-05-01T16:39:23.485Z</time></trkpt><trkpt lat="39.515285" lon="8.5128633"><ele>330.0</ele><time>2026-05-01T16:39:24.486Z</time></trkpt><trkpt lat="39.5153017" lon="8.5130583"><ele>332.75</ele><time>2026-05-01T16:39:25.491Z</time></trkpt><trkpt lat="39.5153167" lon="8.51325"><ele>335.5</ele><time>2026-05-01T16:39:26.486Z</time></trkpt><trkpt lat="39.515325" lon="8.5134267"><ele>338.25</ele><time>2026-05-01T16:39:27.487Z</time></trkpt><trkpt lat="39.5153267" lon="8.51359"><ele>341.0</ele><time>2026-05-01T16:39:28.488Z</time></trkpt><trkpt lat="39.5153133" lon="8.5137417"><ele>344.0</ele><time>2026-05-01T16:39:29.487Z</time></trkpt><trkpt lat="39.5152883" lon="8.5138883"><ele>347.0</ele><time>2026-05-01T16:39:30.489Z</time></trkpt><trkpt lat="39.5152317" lon="8.5140183"><ele>350.0</ele><time>2026-05-01T16:39:31.488Z</time></trkpt><trkpt lat="39.515125" lon="8.5141033"><ele>353.0</ele><time>2026-05-01T16:39:32.484Z</time></trkpt><trkpt lat="39.51504" lon="8.5141817"><ele>353.0</ele><time>2026-05-01T16:39:33.487Z</time></trkpt><trkpt lat="39.5149333" lon="8.5142167"><ele>353.0</ele><time>2026-05-01T16:39:34.486Z</time></trkpt><trkpt lat="39.514805" lon="8.5142283"><ele>353.0</ele><time>2026-05-01T16:39:35.488Z</time></trkpt><trkpt lat="39.51465" lon="8.5141483"><ele>353.0</ele><time>2026-05-01T16:39:36.485Z</time></trkpt><trkpt lat="39.51454" lon="8.5140933"><ele>355.0</ele><time>2026-05-01T16:39:37.488Z</time></trkpt><trkpt lat="39.5144417" lon="8.5140467"><ele>357.0</ele><time>2026-05-01T16:39:38.519Z</time></trkpt><trkpt lat="39.5143417" lon="8.5140083"><ele>359.0</ele><time>2026-05-01T16:39:39.486Z</time></trkpt><trkpt lat="39.5142833" lon="8.5140467"><ele>361.0</ele><time>2026-05-01T16:39:40.488Z</time></trkpt><trkpt lat="39.514245" lon="8.5141733"><ele>363.0</ele><time>2026-05-01T16:39:42.488Z</time></trkpt><trkpt lat="39.5142567" lon="8.514285"><ele>363.0</ele><time>2026-05-01T16:39:43.489Z</time></trkpt><trkpt lat="39.5142817" lon="8.5144"><ele>363.0</ele><time>2026-05-01T16:39:44.52Z</time></trkpt><trkpt lat="39.514345" lon="8.5145567"><ele>363.0</ele><time>2026-05-01T16:39:45.487Z</time></trkpt><trkpt lat="39.5144167" lon="8.5147183"><ele>363.0</ele><time>2026-05-01T16:39:46.49Z</time></trkpt><trkpt lat="39.51449" lon="8.514875"><ele>363.0</ele><time>2026-05-01T16:39:47.488Z</time></trkpt><trkpt lat="39.5145683" lon="8.515045"><ele>363.0</ele><time>2026-05-01T16:39:48.494Z</time></trkpt><trkpt lat="39.514665" lon="8.5151917"><ele>363.0</ele><time>2026-05-01T16:39:49.486Z</time></trkpt><trkpt lat="39.5147683" lon="8.51533"><ele>364.5</ele><time>2026-05-01T16:39:50.517Z</time></trkpt><trkpt lat="39.5148467" lon="8.5154567"><ele>366.0</ele><time>2026-05-01T16:39:51.487Z</time></trkpt><trkpt lat="39.5149317" lon="8.5155767"><ele>367.5</ele><time>2026-05-01T16:39:52.489Z</time></trkpt><trkpt lat="39.5150133" lon="8.5156933"><ele>369.0</ele><time>2026-05-01T16:39:53.488Z</time></trkpt><trkpt lat="39.5150917" lon="8.5158167"><ele>369.0</ele><time>2026-05-01T16:39:54.492Z</time></trkpt><trkpt lat="39.5150867" lon="8.51598"><ele>369.0</ele><time>2026-05-01T16:39:55.488Z</time></trkpt><trkpt lat="39.5150883" lon="8.5161367"><ele>369.0</ele><time>2026-05-01T16:39:56.547Z</time></trkpt><trkpt lat="39.51507" lon="8.5162933"><ele>369.0</ele><time>2026-05-01T16:39:57.493Z</time></trkpt><trkpt lat="39.5150233" lon="8.516455"><ele>369.3333333333333</ele><time>2026-05-01T16:39:58.485Z</time></trkpt><trkpt lat="39.5149517" lon="8.5166217"><ele>369.66666666666663</ele><time>2026-05-01T16:39:59.486Z</time></trkpt><trkpt lat="39.5148633" lon="8.516785"><ele>370.0</ele><time>2026-05-01T16:40:00.487Z</time></trkpt><trkpt lat="39.51473" lon="8.5169717"><ele>372.0</ele><time>2026-05-01T16:40:01.486Z</time></trkpt><trkpt lat="39.5146" lon="8.5171533"><ele>374.0</ele><time>2026-05-01T16:40:02.487Z</time></trkpt><trkpt lat="39.5144917" lon="8.5173283"><ele>376.0</ele><time>2026-05-01T16:40:03.489Z</time></trkpt><trkpt lat="39.5143967" lon="8.5175"><ele>378.0</ele><time>2026-05-01T16:40:04.488Z</time></trkpt><trkpt lat="39.514335" lon="8.5176817"><ele>380.0</ele><time>2026-05-01T16:40:05.489Z</time></trkpt><trkpt lat="39.5142867" lon="8.5178583"><ele>382.0</ele><time>2026-05-01T16:40:06.49Z</time></trkpt><trkpt lat="39.5142533" lon="8.5180217"><ele>384.0</ele><time>2026-05-01T16:40:07.489Z</time></trkpt><trkpt lat="39.5142167" lon="8.5181733"><ele>384.0</ele><time>2026-05-01T16:40:08.518Z</time></trkpt><trkpt lat="39.5141817" lon="8.518315"><ele>384.0</ele><time>2026-05-01T16:40:09.484Z</time></trkpt><trkpt lat="39.5140933" lon="8.5183883"><ele>384.0</ele><time>2026-05-01T16:40:10.49Z</time></trkpt><trkpt lat="39.513975" lon="8.5184333"><ele>384.0</ele><time>2026-05-01T16:40:11.485Z</time></trkpt><trkpt lat="39.5138533" lon="8.5184717"><ele>386.25</ele><time>2026-05-01T16:40:12.485Z</time></trkpt><trkpt lat="39.5137183" lon="8.5185083"><ele>388.5</ele><time>2026-05-01T16:40:13.486Z</time></trkpt><trkpt lat="39.51357" lon="8.5185483"><ele>390.75</ele><time>2026-05-01T16:40:14.518Z</time></trkpt><trkpt lat="39.5134233" lon="8.5185783"><ele>393.0</ele><time>2026-05-01T16:40:15.488Z</time></trkpt><trkpt lat="39.51327" lon="8.5186117"><ele>393.0</ele><time>2026-05-01T16:40:16.489Z</time></trkpt><trkpt lat="39.5131217" lon="8.5186467"><ele>393.0</ele><time>2026-05-01T16:40:17.488Z</time></trkpt><trkpt lat="39.512975" lon="8.5186833"><ele>393.0</ele><time>2026-05-01T16:40:18.49Z</time></trkpt><trkpt lat="39.512815" lon="8.5187183"><ele>393.33333333333337</ele><time>2026-05-01T16:40:19.488Z</time></trkpt><trkpt lat="39.5126483" lon="8.518755"><ele>393.6666666666667</ele><time>2026-05-01T16:40:20.518Z</time></trkpt><trkpt lat="39.5124567" lon="8.51881"><ele>394.0</ele><time>2026-05-01T16:40:21.49Z</time></trkpt><trkpt lat="39.5122817" lon="8.5188367"><ele>394.0</ele><time>2026-05-01T16:40:22.487Z</time></trkpt><trkpt lat="39.5120967" lon="8.5188417"><ele>394.0</ele><time>2026-05-01T16:40:23.491Z</time></trkpt><trkpt lat="39.5119167" lon="8.5188433"><ele>394.0</ele><time>2026-05-01T16:40:24.487Z</time></trkpt><trkpt lat="39.5117383" lon="8.5188517"><ele>396.0</ele><time>2026-05-01T16:40:25.49Z</time></trkpt><trkpt lat="39.511565" lon="8.518865"><ele>398.0</ele><time>2026-05-01T16:40:26.486Z</time></trkpt><trkpt lat="39.5113917" lon="8.5188717"><ele>400.0</ele><time>2026-05-01T16:40:27.488Z</time></trkpt><trkpt lat="39.51123" lon="8.5188833"><ele>401.0</ele><time>2026-05-01T16:40:28.489Z</time></trkpt><trkpt lat="39.5110833" lon="8.5188933"><ele>402.0</ele><time>2026-05-01T16:40:29.487Z</time></trkpt><trkpt lat="39.5109567" lon="8.518905"><ele>403.0</ele><time>2026-05-01T16:40:30.488Z</time></trkpt><trkpt lat="39.5108833" lon="8.5189"><ele>404.0</ele><time>2026-05-01T16:40:31.483Z</time></trkpt><trkpt lat="39.5107783" lon="8.5188883"><ele>404.0</ele><time>2026-05-01T16:40:32.488Z</time></trkpt><trkpt lat="39.5106833" lon="8.5188767"><ele>404.0</ele><time>2026-05-01T16:40:33.485Z</time></trkpt><trkpt lat="39.51062" lon="8.5188383"><ele>404.0</ele><time>2026-05-01T16:40:34.487Z</time></trkpt><trkpt lat="39.5106633" lon="8.51891"><ele>404.0</ele><time>2026-05-01T16:40:39.487Z</time></trkpt><trkpt lat="39.510725" lon="8.519055"><ele>404.0</ele><time>2026-05-01T16:40:41.487Z</time></trkpt><trkpt lat="39.5107817" lon="8.5191467"><ele>404.0</ele><time>2026-05-01T16:40:42.488Z</time></trkpt><trkpt lat="39.51083" lon="8.5192333"><ele>404.0</ele><time>2026-05-01T16:40:43.483Z</time></trkpt><trkpt lat="39.5108983" lon="8.51933"><ele>404.0</ele><time>2026-05-01T16:40:44.517Z</time></trkpt><trkpt lat="39.5109817" lon="8.519455"><ele>404.0</ele><time>2026-05-01T16:40:45.486Z</time></trkpt><trkpt lat="39.5110767" lon="8.519585"><ele>404.0</ele><time>2026-05-01T16:40:46.484Z</time></trkpt><trkpt lat="39.5112133" lon="8.5197617"><ele>405.3333333333333</ele><time>2026-05-01T16:40:47.489Z</time></trkpt><trkpt lat="39.5113367" lon="8.51989"><ele>406.66666666666663</ele><time>2026-05-01T16:40:48.487Z</time></trkpt><trkpt lat="39.511465" lon="8.51998"><ele>408.0</ele><time>2026-05-01T16:40:49.487Z</time></trkpt><trkpt lat="39.5116067" lon="8.5200617"><ele>408.0</ele><time>2026-05-01T16:40:50.517Z</time></trkpt><trkpt lat="39.5117367" lon="8.5201283"><ele>408.0</ele><time>2026-05-01T16:40:51.486Z</time></trkpt><trkpt lat="39.5118617" lon="8.520185"><ele>408.0</ele><time>2026-05-01T16:40:52.487Z</time></trkpt><trkpt lat="39.5119917" lon="8.520215"><ele>408.0</ele><time>2026-05-01T16:40:53.487Z</time></trkpt><trkpt lat="39.5121283" lon="8.52023"><ele>407.5</ele><time>2026-05-01T16:40:54.484Z</time></trkpt><trkpt lat="39.51227" lon="8.5202333"><ele>407.0</ele><time>2026-05-01T16:40:55.487Z</time></trkpt><trkpt lat="39.5124133" lon="8.52024"><ele>406.5</ele><time>2026-05-01T16:40:56.487Z</time></trkpt><trkpt lat="39.5125683" lon="8.52025"><ele>406.0</ele><time>2026-05-01T16:40:57.488Z</time></trkpt><trkpt lat="39.5127183" lon="8.5202867"><ele>406.0</ele><time>2026-05-01T16:40:58.487Z</time></trkpt><trkpt lat="39.5128633" lon="8.5203467"><ele>406.0</ele><time>2026-05-01T16:40:59.485Z</time></trkpt><trkpt lat="39.5129983" lon="8.5204217"><ele>406.0</ele><time>2026-05-01T16:41:00.49Z</time></trkpt><trkpt lat="39.5131133" lon="8.5205117"><ele>406.0</ele><time>2026-05-01T16:41:01.486Z</time></trkpt><trkpt lat="39.5132067" lon="8.5206167"><ele>408.25</ele><time>2026-05-01T16:41:02.518Z</time></trkpt><trkpt lat="39.513285" lon="8.520735"><ele>410.5</ele><time>2026-05-01T16:41:03.486Z</time></trkpt><trkpt lat="39.513345" lon="8.5208667"><ele>412.75</ele><time>2026-05-01T16:41:04.488Z</time></trkpt><trkpt lat="39.5133633" lon="8.5210167"><ele>415.0</ele><time>2026-05-01T16:41:05.487Z</time></trkpt><trkpt lat="39.5133717" lon="8.5211617"><ele>416.5</ele><time>2026-05-01T16:41:06.487Z</time></trkpt><trkpt lat="39.5133517" lon="8.52132"><ele>418.0</ele><time>2026-05-01T16:41:07.488Z</time></trkpt><trkpt lat="39.5133067" lon="8.521485"><ele>419.5</ele><time>2026-05-01T16:41:08.515Z</time></trkpt><trkpt lat="39.5132417" lon="8.5216617"><ele>421.0</ele><time>2026-05-01T16:41:09.483Z</time></trkpt><trkpt lat="39.5131683" lon="8.5218433"><ele>421.0</ele><time>2026-05-01T16:41:10.487Z</time></trkpt><trkpt lat="39.5130967" lon="8.5220283"><ele>421.0</ele><time>2026-05-01T16:41:11.488Z</time></trkpt><trkpt lat="39.5130217" lon="8.5222267"><ele>421.0</ele><time>2026-05-01T16:41:12.485Z</time></trkpt><trkpt lat="39.5129483" lon="8.522425"><ele>426.6666666666667</ele><time>2026-05-01T16:41:13.487Z</time></trkpt><trkpt lat="39.5128767" lon="8.52262"><ele>432.33333333333337</ele><time>2026-05-01T16:41:14.519Z</time></trkpt><trkpt lat="39.5128183" lon="8.522805"><ele>438.0</ele><time>2026-05-01T16:41:15.488Z</time></trkpt><trkpt lat="39.5127683" lon="8.5229817"><ele>439.25</ele><time>2026-05-01T16:41:16.489Z</time></trkpt><trkpt lat="39.5127467" lon="8.5231567"><ele>440.5</ele><time>2026-05-01T16:41:17.487Z</time></trkpt><trkpt lat="39.5127383" lon="8.5233267"><ele>441.75</ele><time>2026-05-01T16:41:18.49Z</time></trkpt><trkpt lat="39.51275" lon="8.5234983"><ele>443.0</ele><time>2026-05-01T16:41:19.487Z</time></trkpt><trkpt lat="39.5128367" lon="8.52368"><ele>440.3333333333333</ele><time>2026-05-01T16:41:20.516Z</time></trkpt><trkpt lat="39.512915" lon="8.5238733"><ele>437.66666666666663</ele><time>2026-05-01T16:41:21.484Z</time></trkpt><trkpt lat="39.5129817" lon="8.5240683"><ele>435.0</ele><time>2026-05-01T16:41:22.488Z</time></trkpt><trkpt lat="39.5130283" lon="8.5242683"><ele>435.0</ele><time>2026-05-01T16:41:23.485Z</time></trkpt><trkpt lat="39.5130517" lon="8.5244667"><ele>435.0</ele><time>2026-05-01T16:41:24.488Z</time></trkpt><trkpt lat="39.513075" lon="8.5246483"><ele>435.0</ele><time>2026-05-01T16:41:25.488Z</time></trkpt><trkpt lat="39.5131067" lon="8.524825"><ele>435.0</ele><time>2026-05-01T16:41:26.489Z</time></trkpt><trkpt lat="39.5131667" lon="8.5249983"><ele>436.75</ele><time>2026-05-01T16:41:27.488Z</time></trkpt><trkpt lat="39.51325" lon="8.525155"><ele>438.5</ele><time>2026-05-01T16:41:28.483Z</time></trkpt><trkpt lat="39.51335" lon="8.5252883"><ele>440.25</ele><time>2026-05-01T16:41:29.487Z</time></trkpt><trkpt lat="39.51344" lon="8.5254217"><ele>442.0</ele><time>2026-05-01T16:41:30.483Z</time></trkpt><trkpt lat="39.5135267" lon="8.5255517"><ele>445.0</ele><time>2026-05-01T16:41:31.483Z</time></trkpt><trkpt lat="39.513595" lon="8.5256933"><ele>448.0</ele><time>2026-05-01T16:41:32.486Z</time></trkpt><trkpt lat="39.51363" lon="8.5258667"><ele>451.0</ele><time>2026-05-01T16:41:33.486Z</time></trkpt><trkpt lat="39.5136383" lon="8.5260533"><ele>454.0</ele><time>2026-05-01T16:41:34.487Z</time></trkpt><trkpt lat="39.5136367" lon="8.5262533"><ele>454.75</ele><time>2026-05-01T16:41:35.488Z</time></trkpt><trkpt lat="39.5136333" lon="8.52645"><ele>455.5</ele><time>2026-05-01T16:41:36.485Z</time></trkpt><trkpt lat="39.5136317" lon="8.526635"><ele>456.25</ele><time>2026-05-01T16:41:37.489Z</time></trkpt><trkpt lat="39.51363" lon="8.5268067"><ele>457.0</ele><time>2026-05-01T16:41:38.514Z</time></trkpt><trkpt lat="39.5136267" lon="8.526965"><ele>457.6666666666667</ele><time>2026-05-01T16:41:39.488Z</time></trkpt><trkpt lat="39.5136267" lon="8.527105"><ele>458.33333333333337</ele><time>2026-05-01T16:41:40.487Z</time></trkpt><trkpt lat="39.5136267" lon="8.5272283"><ele>459.0</ele><time>2026-05-01T16:41:41.488Z</time></trkpt><trkpt lat="39.5136283" lon="8.5273417"><ele>459.66666666666663</ele><time>2026-05-01T16:41:42.488Z</time></trkpt><trkpt lat="39.5136283" lon="8.5274367"><ele>460.3333333333333</ele><time>2026-05-01T16:41:43.488Z</time></trkpt><trkpt lat="39.51363" lon="8.52752"><ele>461.0</ele><time>2026-05-01T16:41:44.515Z</time></trkpt><trkpt lat="39.51363" lon="8.5276467"><ele>461.0</ele><time>2026-05-01T16:41:46.484Z</time></trkpt><trkpt lat="39.5136217" lon="8.5277417"><ele>461.0</ele><time>2026-05-01T16:41:48.485Z</time></trkpt><trkpt lat="39.5135983" lon="8.527865"><ele>461.0</ele><time>2026-05-01T16:41:51.485Z</time></trkpt><trkpt lat="39.5135683" lon="8.527975"><ele>461.0</ele><time>2026-05-01T16:41:53.487Z</time></trkpt><trkpt lat="39.513525" lon="8.5281017"><ele>461.0</ele><time>2026-05-01T16:41:55.486Z</time></trkpt><trkpt lat="39.513475" lon="8.52823"><ele>461.4</ele><time>2026-05-01T16:41:57.485Z</time></trkpt><trkpt lat="39.5134117" lon="8.5283383"><ele>461.8</ele><time>2026-05-01T16:41:59.486Z</time></trkpt><trkpt lat="39.5133417" lon="8.5284383"><ele>462.19999999999993</ele><time>2026-05-01T16:42:01.489Z</time></trkpt><trkpt lat="39.513265" lon="8.52853"><ele>462.59999999999997</ele><time>2026-05-01T16:42:03.489Z</time></trkpt><trkpt lat="39.51319" lon="8.5286133"><ele>463.0</ele><time>2026-05-01T16:42:05.483Z</time></trkpt><trkpt lat="39.5131183" lon="8.528695"><ele>463.4</ele><time>2026-05-01T16:42:07.485Z</time></trkpt><trkpt lat="39.513045" lon="8.5287833"><ele>463.79999999999995</ele><time>2026-05-01T16:42:09.486Z</time></trkpt><trkpt lat="39.5129817" lon="8.5288817"><ele>464.2</ele><time>2026-05-01T16:42:11.486Z</time></trkpt><trkpt lat="39.5129267" lon="8.528985"><ele>464.6</ele><time>2026-05-01T16:42:13.487Z</time></trkpt><trkpt lat="39.512875" lon="8.5290983"><ele>465.0</ele><time>2026-05-01T16:42:15.486Z</time></trkpt><trkpt lat="39.51282" lon="8.5292333"><ele>464.1666666666667</ele><time>2026-05-01T16:42:17.485Z</time></trkpt><trkpt lat="39.5128" lon="8.5293183"><ele>463.33333333333337</ele><time>2026-05-01T16:42:18.485Z</time></trkpt><trkpt lat="39.512785" lon="8.5294183"><ele>462.5</ele><time>2026-05-01T16:42:19.486Z</time></trkpt><trkpt lat="39.5127767" lon="8.52953"><ele>461.6666666666667</ele><time>2026-05-01T16:42:20.51Z</time></trkpt><trkpt lat="39.512775" lon="8.5296533"><ele>460.83333333333337</ele><time>2026-05-01T16:42:21.486Z</time></trkpt><trkpt lat="39.5127833" lon="8.5297933"><ele>460.0</ele><time>2026-05-01T16:42:22.483Z</time></trkpt><trkpt lat="39.5127967" lon="8.5299417"><ele>459.25</ele><time>2026-05-01T16:42:23.489Z</time></trkpt><trkpt lat="39.51281" lon="8.53007"><ele>458.5</ele><time>2026-05-01T16:42:24.485Z</time></trkpt><trkpt lat="39.5128217" lon="8.5302083"><ele>457.75</ele><time>2026-05-01T16:42:25.49Z</time></trkpt><trkpt lat="39.5128133" lon="8.53036"><ele>457.0</ele><time>2026-05-01T16:42:26.545Z</time></trkpt><trkpt lat="39.5128083" lon="8.5305283"><ele>456.5</ele><time>2026-05-01T16:42:27.486Z</time></trkpt><trkpt lat="39.5127883" lon="8.5306933"><ele>456.0</ele><time>2026-05-01T16:42:28.489Z</time></trkpt><trkpt lat="39.5127383" lon="8.5308283"><ele>455.5</ele><time>2026-05-01T16:42:29.485Z</time></trkpt><trkpt lat="39.5126867" lon="8.5309717"><ele>455.0</ele><time>2026-05-01T16:42:30.483Z</time></trkpt><trkpt lat="39.5126383" lon="8.531125"><ele>454.25</ele><time>2026-05-01T16:42:31.483Z</time></trkpt><trkpt lat="39.51258" lon="8.5312667"><ele>453.5</ele><time>2026-05-01T16:42:32.485Z</time></trkpt><trkpt lat="39.5125083" lon="8.5314067"><ele>452.75</ele><time>2026-05-01T16:42:33.485Z</time></trkpt><trkpt lat="39.5124383" lon="8.5315533"><ele>452.0</ele><time>2026-05-01T16:42:34.488Z</time></trkpt><trkpt lat="39.51237" lon="8.5316933"><ele>452.0</ele><time>2026-05-01T16:42:35.488Z</time></trkpt><trkpt lat="39.5123017" lon="8.53183"><ele>452.0</ele><time>2026-05-01T16:42:36.49Z</time></trkpt><trkpt lat="39.51223" lon="8.5319767"><ele>452.0</ele><time>2026-05-01T16:42:37.486Z</time></trkpt><trkpt lat="39.512165" lon="8.5321167"><ele>452.0</ele><time>2026-05-01T16:42:38.511Z</time></trkpt><trkpt lat="39.5120983" lon="8.532265"><ele>450.75</ele><time>2026-05-01T16:42:39.485Z</time></trkpt><trkpt lat="39.5120283" lon="8.5324117"><ele>449.5</ele><time>2026-05-01T16:42:40.487Z</time></trkpt><trkpt lat="39.511955" lon="8.5325433"><ele>448.25</ele><time>2026-05-01T16:42:41.489Z</time></trkpt><trkpt lat="39.5118717" lon="8.53268"><ele>447.0</ele><time>2026-05-01T16:42:42.49Z</time></trkpt><trkpt lat="39.511765" lon="8.532795"><ele>448.0</ele><time>2026-05-01T16:42:43.489Z</time></trkpt><trkpt lat="39.5116633" lon="8.5329017"><ele>449.0</ele><time>2026-05-01T16:42:44.51Z</time></trkpt><trkpt lat="39.511535" lon="8.532975"><ele>450.0</ele><time>2026-05-01T16:42:45.483Z</time></trkpt><trkpt lat="39.5113867" lon="8.53301"><ele>451.0</ele><time>2026-05-01T16:42:46.487Z</time></trkpt><trkpt lat="39.5112617" lon="8.5330767"><ele>448.25</ele><time>2026-05-01T16:42:47.487Z</time></trkpt><trkpt lat="39.5111483" lon="8.5331583"><ele>445.5</ele><time>2026-05-01T16:42:48.485Z</time></trkpt><trkpt lat="39.51104" lon="8.53326"><ele>442.75</ele><time>2026-05-01T16:42:49.489Z</time></trkpt><trkpt lat="39.5109467" lon="8.533385"><ele>440.0</ele><time>2026-05-01T16:42:50.51Z</time></trkpt><trkpt lat="39.510865" lon="8.5335233"><ele>440.0</ele><time>2026-05-01T16:42:51.488Z</time></trkpt><trkpt lat="39.5107667" lon="8.53369"><ele>440.0</ele><time>2026-05-01T16:42:52.489Z</time></trkpt><trkpt lat="39.5106883" lon="8.533855"><ele>440.0</ele><time>2026-05-01T16:42:53.489Z</time></trkpt><trkpt lat="39.5106433" lon="8.5340433"><ele>439.66666666666663</ele><time>2026-05-01T16:42:54.488Z</time></trkpt><trkpt lat="39.5106117" lon="8.5342467"><ele>439.33333333333337</ele><time>2026-05-01T16:42:55.487Z</time></trkpt><trkpt lat="39.5105683" lon="8.53444"><ele>439.0</ele><time>2026-05-01T16:42:56.485Z</time></trkpt><trkpt lat="39.510505" lon="8.534605"><ele>439.6666666666667</ele><time>2026-05-01T16:42:57.485Z</time></trkpt><trkpt lat="39.510425" lon="8.534775"><ele>440.33333333333337</ele><time>2026-05-01T16:42:58.487Z</time></trkpt><trkpt lat="39.5103467" lon="8.5349433"><ele>441.0</ele><time>2026-05-01T16:42:59.489Z</time></trkpt><trkpt lat="39.5102533" lon="8.535105"><ele>438.0</ele><time>2026-05-01T16:43:00.489Z</time></trkpt><trkpt lat="39.5101583" lon="8.5352667"><ele>435.0</ele><time>2026-05-01T16:43:01.489Z</time></trkpt><trkpt lat="39.5100417" lon="8.5354083"><ele>432.0</ele><time>2026-05-01T16:43:02.485Z</time></trkpt><trkpt lat="39.509905" lon="8.5355433"><ele>432.0</ele><time>2026-05-01T16:43:03.487Z</time></trkpt><trkpt lat="39.5097767" lon="8.5356633"><ele>432.0</ele><time>2026-05-01T16:43:04.491Z</time></trkpt><trkpt lat="39.5096783" lon="8.5357983"><ele>432.0</ele><time>2026-05-01T16:43:05.485Z</time></trkpt><trkpt lat="39.5095833" lon="8.53595"><ele>428.33333333333337</ele><time>2026-05-01T16:43:06.488Z</time></trkpt><trkpt lat="39.5094967" lon="8.5361083"><ele>424.6666666666667</ele><time>2026-05-01T16:43:07.483Z</time></trkpt><trkpt lat="39.50941" lon="8.53629"><ele>421.0</ele><time>2026-05-01T16:43:08.514Z</time></trkpt><trkpt lat="39.5093283" lon="8.5364833"><ele>421.0</ele><time>2026-05-01T16:43:09.484Z</time></trkpt><trkpt lat="39.5092467" lon="8.5366833"><ele>421.0</ele><time>2026-05-01T16:43:10.487Z</time></trkpt><trkpt lat="39.50916" lon="8.5368767"><ele>421.0</ele><time>2026-05-01T16:43:11.487Z</time></trkpt><trkpt lat="39.509065" lon="8.53707"><ele>420.0</ele><time>2026-05-01T16:43:12.487Z</time></trkpt><trkpt lat="39.5089917" lon="8.5372767"><ele>419.0</ele><time>2026-05-01T16:43:13.488Z</time></trkpt><trkpt lat="39.50891" lon="8.537485"><ele>418.0</ele><time>2026-05-01T16:43:14.511Z</time></trkpt><trkpt lat="39.5088333" lon="8.5377083"><ele>417.33333333333337</ele><time>2026-05-01T16:43:15.487Z</time></trkpt><trkpt lat="39.50876" lon="8.53793"><ele>416.66666666666663</ele><time>2026-05-01T16:43:16.486Z</time></trkpt><trkpt lat="39.508695" lon="8.5381567"><ele>416.0</ele><time>2026-05-01T16:43:17.484Z</time></trkpt><trkpt lat="39.508625" lon="8.5383867"><ele>414.66666666666663</ele><time>2026-05-01T16:43:18.489Z</time></trkpt><trkpt lat="39.5085567" lon="8.5386133"><ele>413.33333333333337</ele><time>2026-05-01T16:43:19.488Z</time></trkpt><trkpt lat="39.5085067" lon="8.5388517"><ele>412.0</ele><time>2026-05-01T16:43:20.51Z</time></trkpt><trkpt lat="39.50845" lon="8.5390833"><ele>412.0</ele><time>2026-05-01T16:43:21.483Z</time></trkpt><trkpt lat="39.5083867" lon="8.53931"><ele>412.0</ele><time>2026-05-01T16:43:22.486Z</time></trkpt><trkpt lat="39.5083283" lon="8.539525"><ele>412.0</ele><time>2026-05-01T16:43:23.49Z</time></trkpt><trkpt lat="39.5082617" lon="8.53974"><ele>413.0</ele><time>2026-05-01T16:43:24.49Z</time></trkpt><trkpt lat="39.50818" lon="8.5399383"><ele>414.0</ele><time>2026-05-01T16:43:25.486Z</time></trkpt><trkpt lat="39.5081033" lon="8.54014"><ele>415.0</ele><time>2026-05-01T16:43:26.488Z</time></trkpt><trkpt lat="39.5080283" lon="8.5403467"><ele>414.0</ele><time>2026-05-01T16:43:27.487Z</time></trkpt><trkpt lat="39.5079517" lon="8.540545"><ele>413.0</ele><time>2026-05-01T16:43:28.487Z</time></trkpt><trkpt lat="39.5078783" lon="8.5407317"><ele>412.0</ele><time>2026-05-01T16:43:29.488Z</time></trkpt><trkpt lat="39.5078" lon="8.5409083"><ele>409.33333333333337</ele><time>2026-05-01T16:43:30.488Z</time></trkpt><trkpt lat="39.5077183" lon="8.5410983"><ele>406.66666666666663</ele><time>2026-05-01T16:43:31.489Z</time></trkpt><trkpt lat="39.507635" lon="8.5412667"><ele>404.0</ele><time>2026-05-01T16:43:32.489Z</time></trkpt><trkpt lat="39.50755" lon="8.541425"><ele>404.0</ele><time>2026-05-01T16:43:33.488Z</time></trkpt><trkpt lat="39.507475" lon="8.5415817"><ele>404.0</ele><time>2026-05-01T16:43:34.49Z</time></trkpt><trkpt lat="39.5073833" lon="8.54169"><ele>404.0</ele><time>2026-05-01T16:43:35.488Z</time></trkpt><trkpt lat="39.5072967" lon="8.5418017"><ele>404.0</ele><time>2026-05-01T16:43:36.489Z</time></trkpt><trkpt lat="39.5071933" lon="8.5418983"><ele>404.0</ele><time>2026-05-01T16:43:37.487Z</time></trkpt><trkpt lat="39.5070983" lon="8.5419933"><ele>404.0</ele><time>2026-05-01T16:43:38.512Z</time></trkpt><trkpt lat="39.5070067" lon="8.5421017"><ele>404.0</ele><time>2026-05-01T16:43:39.486Z</time></trkpt><trkpt lat="39.5068967" lon="8.5421833"><ele>404.0</ele><time>2026-05-01T16:43:40.486Z</time></trkpt><trkpt lat="39.506805" lon="8.5422833"><ele>403.6</ele><time>2026-05-01T16:43:41.487Z</time></trkpt><trkpt lat="39.5067" lon="8.5423417"><ele>403.2</ele><time>2026-05-01T16:43:42.488Z</time></trkpt><trkpt lat="39.5065967" lon="8.5423967"><ele>402.8</ele><time>2026-05-01T16:43:43.486Z</time></trkpt><trkpt lat="39.5064967" lon="8.5424383"><ele>402.40000000000003</ele><time>2026-05-01T16:43:44.513Z</time></trkpt><trkpt lat="39.506385" lon="8.5424683"><ele>402.0</ele><time>2026-05-01T16:43:45.486Z</time></trkpt><trkpt lat="39.5062883" lon="8.5424817"><ele>401.0</ele><time>2026-05-01T16:43:46.487Z</time></trkpt><trkpt lat="39.5062167" lon="8.5424917"><ele>400.0</ele><time>2026-05-01T16:43:47.49Z</time></trkpt><trkpt lat="39.5061067" lon="8.54253"><ele>399.0</ele><time>2026-05-01T16:43:49.487Z</time></trkpt><trkpt lat="39.50603" lon="8.5426417"><ele>398.0</ele><time>2026-05-01T16:43:51.49Z</time></trkpt><trkpt lat="39.5059883" lon="8.54271"><ele>397.0</ele><time>2026-05-01T16:43:52.488Z</time></trkpt><trkpt lat="39.5059517" lon="8.5428167"><ele>396.75</ele><time>2026-05-01T16:43:53.488Z</time></trkpt><trkpt lat="39.5059133" lon="8.5429517"><ele>396.5</ele><time>2026-05-01T16:43:54.489Z</time></trkpt><trkpt lat="39.5058733" lon="8.5431133"><ele>396.25</ele><time>2026-05-01T16:43:55.488Z</time></trkpt><trkpt lat="39.505845" lon="8.5432917"><ele>396.0</ele><time>2026-05-01T16:43:56.488Z</time></trkpt><trkpt lat="39.5058283" lon="8.5434833"><ele>396.0</ele><time>2026-05-01T16:43:57.489Z</time></trkpt><trkpt lat="39.5058183" lon="8.5436733"><ele>396.0</ele><time>2026-05-01T16:43:58.489Z</time></trkpt><trkpt lat="39.5058433" lon="8.543895"><ele>396.0</ele><time>2026-05-01T16:43:59.498Z</time></trkpt><trkpt lat="39.5058783" lon="8.5441583"><ele>395.66666666666663</ele><time>2026-05-01T16:44:00.484Z</time></trkpt><trkpt lat="39.505935" lon="8.5444117"><ele>395.3333333333333</ele><time>2026-05-01T16:44:01.486Z</time></trkpt><trkpt lat="39.506" lon="8.5446467"><ele>395.0</ele><time>2026-05-01T16:44:02.489Z</time></trkpt><trkpt lat="39.5060867" lon="8.5448733"><ele>395.0</ele><time>2026-05-01T16:44:03.488Z</time></trkpt><trkpt lat="39.50613" lon="8.5450867"><ele>395.0</ele><time>2026-05-01T16:44:04.487Z</time></trkpt><trkpt lat="39.5062067" lon="8.5453083"><ele>395.0</ele><time>2026-05-01T16:44:05.487Z</time></trkpt><trkpt lat="39.5062883" lon="8.5455083"><ele>395.66666666666663</ele><time>2026-05-01T16:44:06.489Z</time></trkpt><trkpt lat="39.50638" lon="8.5457033"><ele>396.33333333333337</ele><time>2026-05-01T16:44:07.488Z</time></trkpt><trkpt lat="39.506475" lon="8.5458867"><ele>397.0</ele><time>2026-05-01T16:44:08.513Z</time></trkpt><trkpt lat="39.5065783" lon="8.5460717"><ele>395.33333333333337</ele><time>2026-05-01T16:44:09.488Z</time></trkpt><trkpt lat="39.5066883" lon="8.5462483"><ele>393.66666666666663</ele><time>2026-05-01T16:44:10.487Z</time></trkpt><trkpt lat="39.5067883" lon="8.54643"><ele>392.0</ele><time>2026-05-01T16:44:11.487Z</time></trkpt><trkpt lat="39.5068717" lon="8.5466017"><ele>392.0</ele><time>2026-05-01T16:44:12.488Z</time></trkpt><trkpt lat="39.5069567" lon="8.546775"><ele>392.0</ele><time>2026-05-01T16:44:13.487Z</time></trkpt><trkpt lat="39.5070017" lon="8.54698"><ele>392.0</ele><time>2026-05-01T16:44:14.515Z</time></trkpt><trkpt lat="39.5070183" lon="8.5471983"><ele>392.0</ele><time>2026-05-01T16:44:15.486Z</time></trkpt><trkpt lat="39.5070417" lon="8.547395"><ele>392.0</ele><time>2026-05-01T16:44:16.487Z</time></trkpt><trkpt lat="39.5070617" lon="8.5475917"><ele>392.0</ele><time>2026-05-01T16:44:17.487Z</time></trkpt><trkpt lat="39.5070967" lon="8.5477867"><ele>390.75</ele><time>2026-05-01T16:44:18.49Z</time></trkpt><trkpt lat="39.5071217" lon="8.547965"><ele>389.5</ele><time>2026-05-01T16:44:19.489Z</time></trkpt><trkpt lat="39.5071317" lon="8.5481133"><ele>388.25</ele><time>2026-05-01T16:44:20.512Z</time></trkpt><trkpt lat="39.5071867" lon="8.5482567"><ele>387.0</ele><time>2026-05-01T16:44:21.484Z</time></trkpt><trkpt lat="39.50725" lon="8.5483817"><ele>387.0</ele><time>2026-05-01T16:44:22.488Z</time></trkpt><trkpt lat="39.5073433" lon="8.5484667"><ele>387.0</ele><time>2026-05-01T16:44:23.488Z</time></trkpt><trkpt lat="39.5074333" lon="8.548515"><ele>387.0</ele><time>2026-05-01T16:44:24.49Z</time></trkpt><trkpt lat="39.5075283" lon="8.5485867"><ele>387.0</ele><time>2026-05-01T16:44:25.488Z</time></trkpt><trkpt lat="39.5076717" lon="8.5485967"><ele>387.0</ele><time>2026-05-01T16:44:26.537Z</time></trkpt><trkpt lat="39.5078367" lon="8.5486283"><ele>387.0</ele><time>2026-05-01T16:44:27.491Z</time></trkpt><trkpt lat="39.50798" lon="8.5486783"><ele>387.0</ele><time>2026-05-01T16:44:28.483Z</time></trkpt><trkpt lat="39.5081283" lon="8.54875"><ele>385.6666666666667</ele><time>2026-05-01T16:44:29.484Z</time></trkpt><trkpt lat="39.5082433" lon="8.5488767"><ele>384.33333333333337</ele><time>2026-05-01T16:44:30.484Z</time></trkpt><trkpt lat="39.5083167" lon="8.5490533"><ele>383.0</ele><time>2026-05-01T16:44:31.487Z</time></trkpt><trkpt lat="39.508385" lon="8.54922"><ele>383.0</ele><time>2026-05-01T16:44:32.537Z</time></trkpt><trkpt lat="39.508415" lon="8.5493983"><ele>383.0</ele><time>2026-05-01T16:44:33.486Z</time></trkpt><trkpt lat="39.5084717" lon="8.5495783"><ele>383.0</ele><time>2026-05-01T16:44:34.487Z</time></trkpt><trkpt lat="39.5085317" lon="8.5497117"><ele>383.0</ele><time>2026-05-01T16:44:35.487Z</time></trkpt><trkpt lat="39.5086067" lon="8.5498283"><ele>381.59999999999997</ele><time>2026-05-01T16:44:36.487Z</time></trkpt><trkpt lat="39.5086783" lon="8.5499283"><ele>380.2</ele><time>2026-05-01T16:44:37.485Z</time></trkpt><trkpt lat="39.50874" lon="8.5500217"><ele>378.8</ele><time>2026-05-01T16:44:38.51Z</time></trkpt><trkpt lat="39.5088183" lon="8.5500917"><ele>377.4</ele><time>2026-05-01T16:44:39.484Z</time></trkpt><trkpt lat="39.5089483" lon="8.550085"><ele>376.0</ele><time>2026-05-01T16:44:40.486Z</time></trkpt><trkpt lat="39.5090583" lon="8.55009"><ele>375.75</ele><time>2026-05-01T16:44:41.484Z</time></trkpt><trkpt lat="39.5092033" lon="8.55006"><ele>375.5</ele><time>2026-05-01T16:44:42.488Z</time></trkpt><trkpt lat="39.509345" lon="8.55003"><ele>375.25</ele><time>2026-05-01T16:44:43.485Z</time></trkpt><trkpt lat="39.5094883" lon="8.5500383"><ele>375.0</ele><time>2026-05-01T16:44:44.51Z</time></trkpt><trkpt lat="39.5096067" lon="8.55004"><ele>374.75</ele><time>2026-05-01T16:44:45.487Z</time></trkpt><trkpt lat="39.5096817" lon="8.5501417"><ele>374.5</ele><time>2026-05-01T16:44:46.487Z</time></trkpt><trkpt lat="39.5097767" lon="8.5502217"><ele>374.25</ele><time>2026-05-01T16:44:47.488Z</time></trkpt><trkpt lat="39.5098217" lon="8.5503667"><ele>374.0</ele><time>2026-05-01T16:44:48.489Z</time></trkpt><trkpt lat="39.5098683" lon="8.5505267"><ele>373.6666666666667</ele><time>2026-05-01T16:44:49.488Z</time></trkpt><trkpt lat="39.509915" lon="8.5507067"><ele>373.3333333333333</ele><time>2026-05-01T16:44:50.512Z</time></trkpt><trkpt lat="39.50996" lon="8.5508917"><ele>373.0</ele><time>2026-05-01T16:44:51.488Z</time></trkpt><trkpt lat="39.50999" lon="8.5510883"><ele>374.66666666666663</ele><time>2026-05-01T16:44:52.482Z</time></trkpt><trkpt lat="39.5099833" lon="8.551285"><ele>376.3333333333333</ele><time>2026-05-01T16:44:53.489Z</time></trkpt><trkpt lat="39.5099533" lon="8.55151"><ele>378.0</ele><time>2026-05-01T16:44:54.489Z</time></trkpt><trkpt lat="39.5099033" lon="8.551725"><ele>378.0</ele><time>2026-05-01T16:44:55.483Z</time></trkpt><trkpt lat="39.50984" lon="8.5519633"><ele>378.0</ele><time>2026-05-01T16:44:56.547Z</time></trkpt><trkpt lat="39.50979" lon="8.5522333"><ele>378.0</ele><time>2026-05-01T16:44:57.484Z</time></trkpt><trkpt lat="39.509725" lon="8.5524817"><ele>379.6666666666667</ele><time>2026-05-01T16:44:58.485Z</time></trkpt><trkpt lat="39.50965" lon="8.55271"><ele>381.33333333333337</ele><time>2026-05-01T16:44:59.488Z</time></trkpt><trkpt lat="39.50958" lon="8.552935"><ele>383.0</ele><time>2026-05-01T16:45:00.488Z</time></trkpt><trkpt lat="39.5094933" lon="8.5531467"><ele>383.0</ele><time>2026-05-01T16:45:01.487Z</time></trkpt><trkpt lat="39.509385" lon="8.5533183"><ele>383.0</ele><time>2026-05-01T16:45:02.535Z</time></trkpt><trkpt lat="39.5092483" lon="8.5534833"><ele>383.0</ele><time>2026-05-01T16:45:03.487Z</time></trkpt><trkpt lat="39.50916" lon="8.553655"><ele>384.0</ele><time>2026-05-01T16:45:04.488Z</time></trkpt><trkpt lat="39.5091033" lon="8.55383"><ele>385.0</ele><time>2026-05-01T16:45:05.489Z</time></trkpt><trkpt lat="39.5090783" lon="8.55404"><ele>386.0</ele><time>2026-05-01T16:45:06.49Z</time></trkpt><trkpt lat="39.5090767" lon="8.5542683"><ele>386.0</ele><time>2026-05-01T16:45:07.49Z</time></trkpt><trkpt lat="39.5090767" lon="8.5545117"><ele>386.0</ele><time>2026-05-01T16:45:08.512Z</time></trkpt><trkpt lat="39.5090883" lon="8.5547517"><ele>386.0</ele><time>2026-05-01T16:45:09.487Z</time></trkpt><trkpt lat="39.5090933" lon="8.5550033"><ele>387.66666666666663</ele><time>2026-05-01T16:45:10.485Z</time></trkpt><trkpt lat="39.5090967" lon="8.5552533"><ele>389.33333333333337</ele><time>2026-05-01T16:45:11.489Z</time></trkpt><trkpt lat="39.5091017" lon="8.55551"><ele>391.0</ele><time>2026-05-01T16:45:12.488Z</time></trkpt><trkpt lat="39.509115" lon="8.55575"><ele>391.6666666666667</ele><time>2026-05-01T16:45:13.485Z</time></trkpt><trkpt lat="39.50913" lon="8.5559683"><ele>392.33333333333337</ele><time>2026-05-01T16:45:14.512Z</time></trkpt><trkpt lat="39.5091417" lon="8.55617"><ele>393.0</ele><time>2026-05-01T16:45:15.486Z</time></trkpt><trkpt lat="39.5091517" lon="8.5563533"><ele>393.25</ele><time>2026-05-01T16:45:16.486Z</time></trkpt><trkpt lat="39.5091683" lon="8.55649"><ele>393.5</ele><time>2026-05-01T16:45:17.485Z</time></trkpt><trkpt lat="39.5092383" lon="8.55664"><ele>393.75</ele><time>2026-05-01T16:45:18.49Z</time></trkpt><trkpt lat="39.5093117" lon="8.556745"><ele>394.0</ele><time>2026-05-01T16:45:19.485Z</time></trkpt><trkpt lat="39.509395" lon="8.5568433"><ele>394.0</ele><time>2026-05-01T16:45:20.511Z</time></trkpt><trkpt lat="39.509515" lon="8.5569733"><ele>394.0</ele><time>2026-05-01T16:45:21.486Z</time></trkpt><trkpt lat="39.5096483" lon="8.5571367"><ele>394.0</ele><time>2026-05-01T16:45:22.483Z</time></trkpt><trkpt lat="39.5097817" lon="8.5572967"><ele>392.33333333333337</ele><time>2026-05-01T16:45:23.483Z</time></trkpt><trkpt lat="39.5099167" lon="8.5574533"><ele>390.66666666666663</ele><time>2026-05-01T16:45:24.486Z</time></trkpt><trkpt lat="39.5100567" lon="8.5576183"><ele>389.0</ele><time>2026-05-01T16:45:25.486Z</time></trkpt><trkpt lat="39.5101883" lon="8.5577683"><ele>387.0</ele><time>2026-05-01T16:45:26.546Z</time></trkpt><trkpt lat="39.5103" lon="8.5579133"><ele>385.0</ele><time>2026-05-01T16:45:27.488Z</time></trkpt><trkpt lat="39.5104183" lon="8.5580483"><ele>383.0</ele><time>2026-05-01T16:45:28.489Z</time></trkpt><trkpt lat="39.51056" lon="8.5581917"><ele>382.25</ele><time>2026-05-01T16:45:29.486Z</time></trkpt><trkpt lat="39.5106733" lon="8.5583167"><ele>381.5</ele><time>2026-05-01T16:45:30.488Z</time></trkpt><trkpt lat="39.51079" lon="8.5583967"><ele>380.75</ele><time>2026-05-01T16:45:31.495Z</time></trkpt><trkpt lat="39.5109217" lon="8.5584467"><ele>380.0</ele><time>2026-05-01T16:45:32.536Z</time></trkpt><trkpt lat="39.5110383" lon="8.5585067"><ele>380.0</ele><time>2026-05-01T16:45:33.488Z</time></trkpt><trkpt lat="39.5111517" lon="8.5585767"><ele>380.0</ele><time>2026-05-01T16:45:34.489Z</time></trkpt><trkpt lat="39.5112667" lon="8.5586483"><ele>380.0</ele><time>2026-05-01T16:45:35.489Z</time></trkpt><trkpt lat="39.51134" lon="8.55878"><ele>380.0</ele><time>2026-05-01T16:45:36.488Z</time></trkpt><trkpt lat="39.5114083" lon="8.5589267"><ele>377.5</ele><time>2026-05-01T16:45:37.487Z</time></trkpt><trkpt lat="39.5114417" lon="8.5591117"><ele>375.0</ele><time>2026-05-01T16:45:38.511Z</time></trkpt><trkpt lat="39.51148" lon="8.5592617"><ele>372.5</ele><time>2026-05-01T16:45:39.484Z</time></trkpt><trkpt lat="39.5115567" lon="8.5594017"><ele>370.0</ele><time>2026-05-01T16:45:40.487Z</time></trkpt><trkpt lat="39.5116533" lon="8.5595217"><ele>367.25</ele><time>2026-05-01T16:45:41.489Z</time></trkpt><trkpt lat="39.511755" lon="8.5596083"><ele>364.5</ele><time>2026-05-01T16:45:42.487Z</time></trkpt><trkpt lat="39.5118733" lon="8.559665"><ele>361.75</ele><time>2026-05-01T16:45:43.486Z</time></trkpt><trkpt lat="39.5120233" lon="8.5596383"><ele>359.0</ele><time>2026-05-01T16:45:44.513Z</time></trkpt><trkpt lat="39.5121533" lon="8.5595833"><ele>359.6666666666667</ele><time>2026-05-01T16:45:45.484Z</time></trkpt><trkpt lat="39.5122817" lon="8.5595083"><ele>360.3333333333333</ele><time>2026-05-01T16:45:46.486Z</time></trkpt><trkpt lat="39.5124083" lon="8.55939"><ele>361.0</ele><time>2026-05-01T16:45:47.486Z</time></trkpt><trkpt lat="39.5125317" lon="8.5592417"><ele>361.0</ele><time>2026-05-01T16:45:48.486Z</time></trkpt><trkpt lat="39.5126533" lon="8.5590833"><ele>361.0</ele><time>2026-05-01T16:45:49.486Z</time></trkpt><trkpt lat="39.5127383" lon="8.5589317"><ele>361.0</ele><time>2026-05-01T16:45:50.511Z</time></trkpt><trkpt lat="39.5128233" lon="8.5588017"><ele>361.0</ele><time>2026-05-01T16:45:51.491Z</time></trkpt><trkpt lat="39.5129083" lon="8.5586833"><ele>360.25</ele><time>2026-05-01T16:45:52.491Z</time></trkpt><trkpt lat="39.5130067" lon="8.558605"><ele>359.5</ele><time>2026-05-01T16:45:53.488Z</time></trkpt><trkpt lat="39.51311" lon="8.5585633"><ele>358.75</ele><time>2026-05-01T16:45:54.485Z</time></trkpt><trkpt lat="39.5132333" lon="8.5585333"><ele>358.0</ele><time>2026-05-01T16:45:55.488Z</time></trkpt><trkpt lat="39.5133583" lon="8.5584967"><ele>358.0</ele><time>2026-05-01T16:45:56.509Z</time></trkpt><trkpt lat="39.5134883" lon="8.5584417"><ele>358.0</ele><time>2026-05-01T16:45:57.491Z</time></trkpt><trkpt lat="39.51362" lon="8.5583783"><ele>358.0</ele><time>2026-05-01T16:45:58.483Z</time></trkpt><trkpt lat="39.5137633" lon="8.558325"><ele>358.0</ele><time>2026-05-01T16:45:59.483Z</time></trkpt><trkpt lat="39.5139267" lon="8.5583067"><ele>354.0</ele><time>2026-05-01T16:46:00.484Z</time></trkpt><trkpt lat="39.5140917" lon="8.5583183"><ele>350.0</ele><time>2026-05-01T16:46:01.483Z</time></trkpt><trkpt lat="39.5142417" lon="8.5583267"><ele>346.0</ele><time>2026-05-01T16:46:02.533Z</time></trkpt><trkpt lat="39.5143933" lon="8.5583267"><ele>346.0</ele><time>2026-05-01T16:46:03.491Z</time></trkpt><trkpt lat="39.5145333" lon="8.55831"><ele>346.0</ele><time>2026-05-01T16:46:04.487Z</time></trkpt><trkpt lat="39.51466" lon="8.5582867"><ele>346.0</ele><time>2026-05-01T16:46:05.489Z</time></trkpt><trkpt lat="39.5147817" lon="8.5582733"><ele>346.0</ele><time>2026-05-01T16:46:06.489Z</time></trkpt><trkpt lat="39.514875" lon="8.5582067"><ele>345.5</ele><time>2026-05-01T16:46:07.488Z</time></trkpt><trkpt lat="39.51497" lon="8.55808"><ele>345.0</ele><time>2026-05-01T16:46:08.508Z</time></trkpt><trkpt lat="39.51506" lon="8.55797"><ele>344.5</ele><time>2026-05-01T16:46:09.485Z</time></trkpt><trkpt lat="39.51516" lon="8.5578733"><ele>344.0</ele><time>2026-05-01T16:46:10.485Z</time></trkpt><trkpt lat="39.5152483" lon="8.5577767"><ele>344.0</ele><time>2026-05-01T16:46:11.487Z</time></trkpt><trkpt lat="39.5153083" lon="8.55767"><ele>344.0</ele><time>2026-05-01T16:46:12.485Z</time></trkpt><trkpt lat="39.5153633" lon="8.5575667"><ele>344.0</ele><time>2026-05-01T16:46:13.486Z</time></trkpt><trkpt lat="39.51543" lon="8.557485"><ele>344.0</ele><time>2026-05-01T16:46:14.507Z</time></trkpt><trkpt lat="39.5155233" lon="8.557435"><ele>344.0</ele><time>2026-05-01T16:46:15.486Z</time></trkpt><trkpt lat="39.5156033" lon="8.557395"><ele>344.6</ele><time>2026-05-01T16:46:16.486Z</time></trkpt><trkpt lat="39.5157267" lon="8.5573867"><ele>345.2</ele><time>2026-05-01T16:46:17.488Z</time></trkpt><trkpt lat="39.5158" lon="8.557415"><ele>345.8</ele><time>2026-05-01T16:46:18.489Z</time></trkpt><trkpt lat="39.515915" lon="8.5574467"><ele>346.40000000000003</ele><time>2026-05-01T16:46:19.488Z</time></trkpt><trkpt lat="39.516025" lon="8.5574567"><ele>347.0</ele><time>2026-05-01T16:46:20.514Z</time></trkpt><trkpt lat="39.516145" lon="8.55745"><ele>343.6666666666667</ele><time>2026-05-01T16:46:21.486Z</time></trkpt><trkpt lat="39.51628" lon="8.55742"><ele>340.3333333333333</ele><time>2026-05-01T16:46:22.488Z</time></trkpt><trkpt lat="39.516455" lon="8.5573433"><ele>337.0</ele><time>2026-05-01T16:46:23.489Z</time></trkpt><trkpt lat="39.516625" lon="8.557295"><ele>337.0</ele><time>2026-05-01T16:46:24.488Z</time></trkpt><trkpt lat="39.5167933" lon="8.5572533"><ele>337.0</ele><time>2026-05-01T16:46:25.487Z</time></trkpt><trkpt lat="39.5169467" lon="8.5571867"><ele>337.0</ele><time>2026-05-01T16:46:26.547Z</time></trkpt><trkpt lat="39.5170983" lon="8.5571067"><ele>337.0</ele><time>2026-05-01T16:46:27.488Z</time></trkpt><trkpt lat="39.51724" lon="8.5570217"><ele>337.0</ele><time>2026-05-01T16:46:28.489Z</time></trkpt><trkpt lat="39.5173967" lon="8.5569567"><ele>337.0</ele><time>2026-05-01T16:46:29.488Z</time></trkpt><trkpt lat="39.5175217" lon="8.5569133"><ele>337.0</ele><time>2026-05-01T16:46:30.488Z</time></trkpt><trkpt lat="39.51766" lon="8.556885"><ele>337.0</ele><time>2026-05-01T16:46:31.485Z</time></trkpt><trkpt lat="39.5177833" lon="8.55686"><ele>337.0</ele><time>2026-05-01T16:46:32.534Z</time></trkpt><trkpt lat="39.5179033" lon="8.5568317"><ele>337.0</ele><time>2026-05-01T16:46:33.488Z</time></trkpt><trkpt lat="39.518025" lon="8.5568533"><ele>335.40000000000003</ele><time>2026-05-01T16:46:34.488Z</time></trkpt><trkpt lat="39.5181067" lon="8.55692"><ele>333.8</ele><time>2026-05-01T16:46:35.482Z</time></trkpt><trkpt lat="39.5181717" lon="8.557025"><ele>332.2</ele><time>2026-05-01T16:46:36.488Z</time></trkpt><trkpt lat="39.51824" lon="8.5571233"><ele>330.6</ele><time>2026-05-01T16:46:37.489Z</time></trkpt><trkpt lat="39.51829" lon="8.5572433"><ele>329.0</ele><time>2026-05-01T16:46:38.51Z</time></trkpt><trkpt lat="39.5183133" lon="8.5574017"><ele>330.0</ele><time>2026-05-01T16:46:39.49Z</time></trkpt><trkpt lat="39.518345" lon="8.5575417"><ele>331.0</ele><time>2026-05-01T16:46:40.486Z</time></trkpt><trkpt lat="39.5183417" lon="8.5577283"><ele>332.0</ele><time>2026-05-01T16:46:41.488Z</time></trkpt><trkpt lat="39.5181717" lon="8.5579733"><ele>332.0</ele><time>2026-05-01T16:46:42.486Z</time></trkpt><trkpt lat="39.518075" lon="8.55819"><ele>332.0</ele><time>2026-05-01T16:46:43.487Z</time></trkpt><trkpt lat="39.51793" lon="8.55836"><ele>332.0</ele><time>2026-05-01T16:46:44.506Z</time></trkpt><trkpt lat="39.5178017" lon="8.558555"><ele>332.33333333333337</ele><time>2026-05-01T16:46:45.485Z</time></trkpt><trkpt lat="39.5176583" lon="8.55874"><ele>332.6666666666667</ele><time>2026-05-01T16:46:46.485Z</time></trkpt><trkpt lat="39.51753" lon="8.5588967"><ele>333.0</ele><time>2026-05-01T16:46:47.489Z</time></trkpt><trkpt lat="39.5173917" lon="8.5590683"><ele>333.0</ele><time>2026-05-01T16:46:48.488Z</time></trkpt><trkpt lat="39.5172433" lon="8.5592517"><ele>333.0</ele><time>2026-05-01T16:46:49.488Z</time></trkpt><trkpt lat="39.5170833" lon="8.5594633"><ele>333.0</ele><time>2026-05-01T16:46:50.51Z</time></trkpt><trkpt lat="39.5169333" lon="8.55969"><ele>329.6666666666667</ele><time>2026-05-01T16:46:51.486Z</time></trkpt><trkpt lat="39.51681" lon="8.559905"><ele>326.33333333333337</ele><time>2026-05-01T16:46:52.487Z</time></trkpt><trkpt lat="39.516685" lon="8.56011"><ele>323.0</ele><time>2026-05-01T16:46:53.488Z</time></trkpt><trkpt lat="39.5165383" lon="8.560335"><ele>323.6666666666667</ele><time>2026-05-01T16:46:54.487Z</time></trkpt><trkpt lat="39.5164417" lon="8.5605033"><ele>324.3333333333333</ele><time>2026-05-01T16:46:55.489Z</time></trkpt><trkpt lat="39.5163633" lon="8.5606683"><ele>325.0</ele><time>2026-05-01T16:46:56.546Z</time></trkpt><trkpt lat="39.5162917" lon="8.560825"><ele>325.0</ele><time>2026-05-01T16:46:57.484Z</time></trkpt><trkpt lat="39.51624" lon="8.56099"><ele>325.0</ele><time>2026-05-01T16:46:58.482Z</time></trkpt><trkpt lat="39.51626" lon="8.5612017"><ele>325.0</ele><time>2026-05-01T16:46:59.486Z</time></trkpt><trkpt lat="39.5162767" lon="8.561395"><ele>324.25</ele><time>2026-05-01T16:47:00.488Z</time></trkpt><trkpt lat="39.5163017" lon="8.5615783"><ele>323.5</ele><time>2026-05-01T16:47:01.487Z</time></trkpt><trkpt lat="39.516335" lon="8.5617667"><ele>322.75</ele><time>2026-05-01T16:47:02.536Z</time></trkpt><trkpt lat="39.5163867" lon="8.5619567"><ele>322.0</ele><time>2026-05-01T16:47:03.484Z</time></trkpt><trkpt lat="39.5164567" lon="8.5621283"><ele>319.66666666666663</ele><time>2026-05-01T16:47:04.485Z</time></trkpt><trkpt lat="39.5165717" lon="8.5622733"><ele>317.3333333333333</ele><time>2026-05-01T16:47:05.487Z</time></trkpt><trkpt lat="39.5167133" lon="8.5624"><ele>315.0</ele><time>2026-05-01T16:47:06.487Z</time></trkpt><trkpt lat="39.5168133" lon="8.56256"><ele>315.0</ele><time>2026-05-01T16:47:07.486Z</time></trkpt><trkpt lat="39.5168833" lon="8.562715"><ele>315.0</ele><time>2026-05-01T16:47:08.51Z</time></trkpt><trkpt lat="39.516935" lon="8.56289"><ele>315.0</ele><time>2026-05-01T16:47:09.485Z</time></trkpt><trkpt lat="39.5169933" lon="8.56308"><ele>315.0</ele><time>2026-05-01T16:47:10.488Z</time></trkpt><trkpt lat="39.51703" lon="8.56328"><ele>314.0</ele><time>2026-05-01T16:47:11.484Z</time></trkpt><trkpt lat="39.5170833" lon="8.563485"><ele>313.0</ele><time>2026-05-01T16:47:12.485Z</time></trkpt><trkpt lat="39.5171433" lon="8.56369"><ele>312.0</ele><time>2026-05-01T16:47:13.485Z</time></trkpt><trkpt lat="39.517215" lon="8.563895"><ele>312.0</ele><time>2026-05-01T16:47:14.513Z</time></trkpt><trkpt lat="39.5172933" lon="8.5640833"><ele>312.0</ele><time>2026-05-01T16:47:15.483Z</time></trkpt><trkpt lat="39.5173783" lon="8.5642517"><ele>312.0</ele><time>2026-05-01T16:47:16.487Z</time></trkpt><trkpt lat="39.5174683" lon="8.564395"><ele>312.0</ele><time>2026-05-01T16:47:17.486Z</time></trkpt><trkpt lat="39.5175767" lon="8.5645183"><ele>312.0</ele><time>2026-05-01T16:47:18.485Z</time></trkpt><trkpt lat="39.517725" lon="8.5646033"><ele>312.0</ele><time>2026-05-01T16:47:19.489Z</time></trkpt><trkpt lat="39.51785" lon="8.5646883"><ele>312.0</ele><time>2026-05-01T16:47:20.512Z</time></trkpt><trkpt lat="39.5180017" lon="8.564765"><ele>310.5</ele><time>2026-05-01T16:47:21.486Z</time></trkpt><trkpt lat="39.518145" lon="8.5648333"><ele>309.0</ele><time>2026-05-01T16:47:22.484Z</time></trkpt><trkpt lat="39.51828" lon="8.5648983"><ele>307.5</ele><time>2026-05-01T16:47:23.488Z</time></trkpt><trkpt lat="39.518405" lon="8.5649583"><ele>306.0</ele><time>2026-05-01T16:47:24.486Z</time></trkpt><trkpt lat="39.5185133" lon="8.5650167"><ele>306.0</ele><time>2026-05-01T16:47:25.489Z</time></trkpt><trkpt lat="39.5186067" lon="8.5650783"><ele>306.0</ele><time>2026-05-01T16:47:26.558Z</time></trkpt><trkpt lat="39.51869" lon="8.5651433"><ele>306.0</ele><time>2026-05-01T16:47:27.488Z</time></trkpt><trkpt lat="39.5186983" lon="8.56526"><ele>306.0</ele><time>2026-05-01T16:47:28.486Z</time></trkpt><trkpt lat="39.51871" lon="8.565365"><ele>306.0</ele><time>2026-05-01T16:47:29.485Z</time></trkpt><trkpt lat="39.5186817" lon="8.5655117"><ele>305.25</ele><time>2026-05-01T16:47:30.488Z</time></trkpt><trkpt lat="39.5186733" lon="8.5656483"><ele>304.5</ele><time>2026-05-01T16:47:31.488Z</time></trkpt><trkpt lat="39.5186733" lon="8.5658467"><ele>303.75</ele><time>2026-05-01T16:47:32.498Z</time></trkpt><trkpt lat="39.5186783" lon="8.566035"><ele>303.0</ele><time>2026-05-01T16:47:33.486Z</time></trkpt><trkpt lat="39.5187017" lon="8.5661983"><ele>302.6666666666667</ele><time>2026-05-01T16:47:34.485Z</time></trkpt><trkpt lat="39.5186617" lon="8.5664483"><ele>302.33333333333337</ele><time>2026-05-01T16:47:35.487Z</time></trkpt><trkpt lat="39.518645" lon="8.5666217"><ele>302.0</ele><time>2026-05-01T16:47:36.488Z</time></trkpt><trkpt lat="39.518635" lon="8.5668283"><ele>302.0</ele><time>2026-05-01T16:47:37.485Z</time></trkpt><trkpt lat="39.518625" lon="8.5670133"><ele>302.0</ele><time>2026-05-01T16:47:38.511Z</time></trkpt><trkpt lat="39.518585" lon="8.56718"><ele>302.0</ele><time>2026-05-01T16:47:39.484Z</time></trkpt><trkpt lat="39.51854" lon="8.5673433"><ele>302.0</ele><time>2026-05-01T16:47:40.487Z</time></trkpt><trkpt lat="39.5184817" lon="8.5675017"><ele>303.0</ele><time>2026-05-01T16:47:41.485Z</time></trkpt><trkpt lat="39.5184117" lon="8.567655"><ele>304.0</ele><time>2026-05-01T16:47:42.482Z</time></trkpt><trkpt lat="39.518335" lon="8.5677967"><ele>305.0</ele><time>2026-05-01T16:47:43.484Z</time></trkpt><trkpt lat="39.5182433" lon="8.567915"><ele>306.0</ele><time>2026-05-01T16:47:44.507Z</time></trkpt><trkpt lat="39.5182217" lon="8.5681117"><ele>306.75</ele><time>2026-05-01T16:47:45.485Z</time></trkpt><trkpt lat="39.5181633" lon="8.5682683"><ele>307.5</ele><time>2026-05-01T16:47:46.486Z</time></trkpt><trkpt lat="39.5181133" lon="8.568435"><ele>308.25</ele><time>2026-05-01T16:47:47.484Z</time></trkpt><trkpt lat="39.5180667" lon="8.5686133"><ele>309.0</ele><time>2026-05-01T16:47:48.487Z</time></trkpt><trkpt lat="39.5180433" lon="8.568805"><ele>309.0</ele><time>2026-05-01T16:47:49.488Z</time></trkpt><trkpt lat="39.5180367" lon="8.5690033"><ele>309.0</ele><time>2026-05-01T16:47:50.511Z</time></trkpt><trkpt lat="39.5180633" lon="8.5692367"><ele>309.0</ele><time>2026-05-01T16:47:51.488Z</time></trkpt><trkpt lat="39.5180717" lon="8.5694567"><ele>309.6666666666667</ele><time>2026-05-01T16:47:52.487Z</time></trkpt><trkpt lat="39.5180767" lon="8.569685"><ele>310.33333333333337</ele><time>2026-05-01T16:47:53.486Z</time></trkpt><trkpt lat="39.5181183" lon="8.569905"><ele>311.0</ele><time>2026-05-01T16:47:54.489Z</time></trkpt><trkpt lat="39.518155" lon="8.5701333"><ele>311.0</ele><time>2026-05-01T16:47:55.485Z</time></trkpt><trkpt lat="39.5181967" lon="8.57034"><ele>311.0</ele><time>2026-05-01T16:47:56.485Z</time></trkpt><trkpt lat="39.5182333" lon="8.5705117"><ele>311.0</ele><time>2026-05-01T16:47:57.487Z</time></trkpt><trkpt lat="39.5182683" lon="8.57067"><ele>311.0</ele><time>2026-05-01T16:47:58.482Z</time></trkpt><trkpt lat="39.5182883" lon="8.570805"><ele>311.0</ele><time>2026-05-01T16:47:59.484Z</time></trkpt><trkpt lat="39.518285" lon="8.5709033"><ele>311.0</ele><time>2026-05-01T16:48:00.487Z</time></trkpt><trkpt lat="39.5183" lon="8.571"><ele>311.0</ele><time>2026-05-01T16:48:01.489Z</time></trkpt><trkpt lat="39.5183217" lon="8.5711017"><ele>311.0</ele><time>2026-05-01T16:48:02.483Z</time></trkpt><trkpt lat="39.5183483" lon="8.5711983"><ele>311.0</ele><time>2026-05-01T16:48:03.487Z</time></trkpt><trkpt lat="39.5183867" lon="8.57128"><ele>311.0</ele><time>2026-05-01T16:48:04.486Z</time></trkpt><trkpt lat="39.5184433" lon="8.571345"><ele>310.5</ele><time>2026-05-01T16:48:05.489Z</time></trkpt><trkpt lat="39.5185117" lon="8.5713867"><ele>310.0</ele><time>2026-05-01T16:48:06.488Z</time></trkpt><trkpt lat="39.5185983" lon="8.5714217"><ele>309.5</ele><time>2026-05-01T16:48:07.489Z</time></trkpt><trkpt lat="39.51868" lon="8.5714633"><ele>309.0</ele><time>2026-05-01T16:48:08.511Z</time></trkpt><trkpt lat="39.51875" lon="8.5715167"><ele>308.5</ele><time>2026-05-01T16:48:09.486Z</time></trkpt><trkpt lat="39.5188117" lon="8.5715817"><ele>308.0</ele><time>2026-05-01T16:48:10.483Z</time></trkpt><trkpt lat="39.5188517" lon="8.5716567"><ele>308.0</ele><time>2026-05-01T16:48:11.488Z</time></trkpt><trkpt lat="39.5188717" lon="8.5717467"><ele>308.0</ele><time>2026-05-01T16:48:12.487Z</time></trkpt><trkpt lat="39.5188867" lon="8.57184"><ele>308.0</ele><time>2026-05-01T16:48:13.485Z</time></trkpt><trkpt lat="39.51891" lon="8.57192"><ele>308.0</ele><time>2026-05-01T16:48:14.508Z</time></trkpt><trkpt lat="39.5189433" lon="8.5719917"><ele>308.0</ele><time>2026-05-01T16:48:15.485Z</time></trkpt><trkpt lat="39.5190283" lon="8.5720867"><ele>308.0</ele><time>2026-05-01T16:48:17.486Z</time></trkpt><trkpt lat="39.519175" lon="8.5721033"><ele>304.0</ele><time>2026-05-01T16:48:19.487Z</time></trkpt><trkpt lat="39.5192733" lon="8.5720967"><ele>300.0</ele><time>2026-05-01T16:48:20.508Z</time></trkpt><trkpt lat="39.5193767" lon="8.572095"><ele>296.0</ele><time>2026-05-01T16:48:21.487Z</time></trkpt><trkpt lat="39.51948" lon="8.5721017"><ele>292.0</ele><time>2026-05-01T16:48:22.487Z</time></trkpt><trkpt lat="39.5195817" lon="8.57211"><ele>288.0</ele><time>2026-05-01T16:48:23.483Z</time></trkpt><trkpt lat="39.519685" lon="8.5721117"><ele>287.6</ele><time>2026-05-01T16:48:24.489Z</time></trkpt><trkpt lat="39.5197883" lon="8.57211"><ele>287.20000000000005</ele><time>2026-05-01T16:48:25.49Z</time></trkpt><trkpt lat="39.5198883" lon="8.5721017"><ele>286.8</ele><time>2026-05-01T16:48:26.488Z</time></trkpt><trkpt lat="39.5199867" lon="8.57208"><ele>286.40000000000003</ele><time>2026-05-01T16:48:27.485Z</time></trkpt><trkpt lat="39.5200817" lon="8.57205"><ele>286.0</ele><time>2026-05-01T16:48:28.487Z</time></trkpt><trkpt lat="39.520175" lon="8.5720033"><ele>288.0</ele><time>2026-05-01T16:48:29.487Z</time></trkpt><trkpt lat="39.52026" lon="8.57195"><ele>290.0</ele><time>2026-05-01T16:48:30.486Z</time></trkpt><trkpt lat="39.5203417" lon="8.571895"><ele>292.0</ele><time>2026-05-01T16:48:31.485Z</time></trkpt><trkpt lat="39.52042" lon="8.57184"><ele>294.0</ele><time>2026-05-01T16:48:32.496Z</time></trkpt><trkpt lat="39.520495" lon="8.5717883"><ele>296.0</ele><time>2026-05-01T16:48:33.483Z</time></trkpt><trkpt lat="39.52057" lon="8.5717417"><ele>298.0</ele><time>2026-05-01T16:48:34.486Z</time></trkpt><trkpt lat="39.52065" lon="8.5716983"><ele>298.0</ele><time>2026-05-01T16:48:35.487Z</time></trkpt><trkpt lat="39.5207267" lon="8.5716667"><ele>298.0</ele><time>2026-05-01T16:48:36.483Z</time></trkpt><trkpt lat="39.52081" lon="8.5716483"><ele>298.0</ele><time>2026-05-01T16:48:37.488Z</time></trkpt><trkpt lat="39.52089" lon="8.5716483"><ele>298.0</ele><time>2026-05-01T16:48:38.51Z</time></trkpt><trkpt lat="39.52095" lon="8.5716783"><ele>298.0</ele><time>2026-05-01T16:48:39.482Z</time></trkpt><trkpt lat="39.5209533" lon="8.57177"><ele>298.0</ele><time>2026-05-01T16:48:40.485Z</time></trkpt><trkpt lat="39.5209183" lon="8.57188"><ele>298.0</ele><time>2026-05-01T16:48:41.489Z</time></trkpt><trkpt lat="39.5208817" lon="8.571975"><ele>298.0</ele><time>2026-05-01T16:48:42.483Z</time></trkpt><trkpt lat="39.520835" lon="8.5720767"><ele>298.0</ele><time>2026-05-01T16:48:43.482Z</time></trkpt><trkpt lat="39.5207767" lon="8.5721883"><ele>298.0</ele><time>2026-05-01T16:48:44.512Z</time></trkpt><trkpt lat="39.5207183" lon="8.572305"><ele>298.0</ele><time>2026-05-01T16:48:45.488Z</time></trkpt><trkpt lat="39.5206433" lon="8.5724333"><ele>298.0</ele><time>2026-05-01T16:48:46.486Z</time></trkpt><trkpt lat="39.5205633" lon="8.5725717"><ele>298.0</ele><time>2026-05-01T16:48:47.485Z</time></trkpt><trkpt lat="39.5204733" lon="8.57272"><ele>298.0</ele><time>2026-05-01T16:48:48.487Z</time></trkpt><trkpt lat="39.5203783" lon="8.5728733"><ele>298.0</ele><time>2026-05-01T16:48:49.484Z</time></trkpt><trkpt lat="39.520295" lon="8.57302"><ele>295.5</ele><time>2026-05-01T16:48:50.51Z</time></trkpt><trkpt lat="39.5202067" lon="8.573185"><ele>293.0</ele><time>2026-05-01T16:48:51.487Z</time></trkpt><trkpt lat="39.5201433" lon="8.573335"><ele>290.5</ele><time>2026-05-01T16:48:52.488Z</time></trkpt><trkpt lat="39.5200983" lon="8.5734667"><ele>288.0</ele><time>2026-05-01T16:48:53.484Z</time></trkpt><trkpt lat="39.5200617" lon="8.573585"><ele>289.8</ele><time>2026-05-01T16:48:54.488Z</time></trkpt><trkpt lat="39.5200283" lon="8.5737017"><ele>291.6</ele><time>2026-05-01T16:48:55.486Z</time></trkpt><trkpt lat="39.5200133" lon="8.5738267"><ele>293.4</ele><time>2026-05-01T16:48:56.488Z</time></trkpt><trkpt lat="39.520015" lon="8.5739483"><ele>295.2</ele><time>2026-05-01T16:48:57.484Z</time></trkpt><trkpt lat="39.5200083" lon="8.5740617"><ele>297.0</ele><time>2026-05-01T16:48:58.483Z</time></trkpt><trkpt lat="39.5199917" lon="8.57417"><ele>297.0</ele><time>2026-05-01T16:48:59.487Z</time></trkpt><trkpt lat="39.5199583" lon="8.5742733"><ele>297.0</ele><time>2026-05-01T16:49:00.489Z</time></trkpt><trkpt lat="39.5199" lon="8.5743617"><ele>297.0</ele><time>2026-05-01T16:49:01.484Z</time></trkpt><trkpt lat="39.51982" lon="8.5744483"><ele>297.0</ele><time>2026-05-01T16:49:02.487Z</time></trkpt><trkpt lat="39.51973" lon="8.5745467"><ele>297.0</ele><time>2026-05-01T16:49:03.484Z</time></trkpt><trkpt lat="39.5196433" lon="8.5747083"><ele>298.25</ele><time>2026-05-01T16:49:04.484Z</time></trkpt><trkpt lat="39.51967" lon="8.5748267"><ele>299.5</ele><time>2026-05-01T16:49:05.489Z</time></trkpt><trkpt lat="39.5197067" lon="8.5749533"><ele>300.75</ele><time>2026-05-01T16:49:06.487Z</time></trkpt><trkpt lat="39.5197683" lon="8.57509"><ele>302.0</ele><time>2026-05-01T16:49:07.486Z</time></trkpt><trkpt lat="39.5198483" lon="8.5752283"><ele>299.25</ele><time>2026-05-01T16:49:08.508Z</time></trkpt><trkpt lat="39.5199417" lon="8.5753883"><ele>296.5</ele><time>2026-05-01T16:49:09.482Z</time></trkpt><trkpt lat="39.52003" lon="8.5755417"><ele>293.75</ele><time>2026-05-01T16:49:10.485Z</time></trkpt><trkpt lat="39.5201167" lon="8.5756833"><ele>291.0</ele><time>2026-05-01T16:49:11.489Z</time></trkpt><trkpt lat="39.5201983" lon="8.5758083"><ele>291.0</ele><time>2026-05-01T16:49:12.484Z</time></trkpt><trkpt lat="39.5202667" lon="8.57592"><ele>291.0</ele><time>2026-05-01T16:49:13.486Z</time></trkpt><trkpt lat="39.5203283" lon="8.576025"><ele>291.0</ele><time>2026-05-01T16:49:14.511Z</time></trkpt><trkpt lat="39.52037" lon="8.5761383"><ele>291.0</ele><time>2026-05-01T16:49:15.49Z</time></trkpt><trkpt lat="39.5203983" lon="8.5762533"><ele>291.0</ele><time>2026-05-01T16:49:16.488Z</time></trkpt><trkpt lat="39.5204083" lon="8.5763767"><ele>290.5</ele><time>2026-05-01T16:49:17.484Z</time></trkpt><trkpt lat="39.5204083" lon="8.57651"><ele>290.0</ele><time>2026-05-01T16:49:18.486Z</time></trkpt><trkpt lat="39.5204017" lon="8.576665"><ele>289.5</ele><time>2026-05-01T16:49:19.485Z</time></trkpt><trkpt lat="39.5203767" lon="8.5768417"><ele>289.0</ele><time>2026-05-01T16:49:20.507Z</time></trkpt><trkpt lat="39.5203333" lon="8.5770317"><ele>290.5</ele><time>2026-05-01T16:49:21.485Z</time></trkpt><trkpt lat="39.5203" lon="8.5772233"><ele>292.0</ele><time>2026-05-01T16:49:22.486Z</time></trkpt><trkpt lat="39.52028" lon="8.5774067"><ele>293.5</ele><time>2026-05-01T16:49:23.489Z</time></trkpt><trkpt lat="39.5202567" lon="8.5775767"><ele>295.0</ele><time>2026-05-01T16:49:24.488Z</time></trkpt><trkpt lat="39.5202267" lon="8.577735"><ele>297.4</ele><time>2026-05-01T16:49:25.482Z</time></trkpt><trkpt lat="39.5201833" lon="8.5778617"><ele>299.8</ele><time>2026-05-01T16:49:26.484Z</time></trkpt><trkpt lat="39.5201417" lon="8.5779817"><ele>302.2</ele><time>2026-05-01T16:49:27.49Z</time></trkpt><trkpt lat="39.5200733" lon="8.5780967"><ele>304.6</ele><time>2026-05-01T16:49:28.487Z</time></trkpt><trkpt lat="39.5200117" lon="8.5781917"><ele>307.0</ele><time>2026-05-01T16:49:29.489Z</time></trkpt><trkpt lat="39.5199783" lon="8.5782817"><ele>307.0</ele><time>2026-05-01T16:49:30.488Z</time></trkpt><trkpt lat="39.5199667" lon="8.5783833"><ele>307.0</ele><time>2026-05-01T16:49:31.484Z</time></trkpt><trkpt lat="39.5199567" lon="8.578495"><ele>307.0</ele><time>2026-05-01T16:49:32.49Z</time></trkpt><trkpt lat="39.519975" lon="8.5786333"><ele>307.0</ele><time>2026-05-01T16:49:33.488Z</time></trkpt><trkpt lat="39.5200133" lon="8.5787917"><ele>307.0</ele><time>2026-05-01T16:49:34.485Z</time></trkpt><trkpt lat="39.5200567" lon="8.57898"><ele>307.0</ele><time>2026-05-01T16:49:35.486Z</time></trkpt><trkpt lat="39.5200833" lon="8.57915"><ele>307.0</ele><time>2026-05-01T16:49:36.484Z</time></trkpt><trkpt lat="39.5200933" lon="8.5793067"><ele>307.0</ele><time>2026-05-01T16:49:37.486Z</time></trkpt><trkpt lat="39.5200933" lon="8.57944"><ele>307.0</ele><time>2026-05-01T16:49:38.513Z</time></trkpt><trkpt lat="39.5201" lon="8.579565"><ele>307.16666666666663</ele><time>2026-05-01T16:49:39.486Z</time></trkpt><trkpt lat="39.5200983" lon="8.5796717"><ele>307.3333333333333</ele><time>2026-05-01T16:49:40.486Z</time></trkpt><trkpt lat="39.5200967" lon="8.5797817"><ele>307.5</ele><time>2026-05-01T16:49:41.485Z</time></trkpt><trkpt lat="39.5201017" lon="8.5798933"><ele>307.6666666666667</ele><time>2026-05-01T16:49:42.483Z</time></trkpt><trkpt lat="39.5201017" lon="8.5799933"><ele>307.83333333333337</ele><time>2026-05-01T16:49:43.486Z</time></trkpt><trkpt lat="39.5201083" lon="8.5801117"><ele>308.0</ele><time>2026-05-01T16:49:44.509Z</time></trkpt><trkpt lat="39.5201217" lon="8.5802333"><ele>306.4</ele><time>2026-05-01T16:49:45.487Z</time></trkpt><trkpt lat="39.5201433" lon="8.5803633"><ele>304.8</ele><time>2026-05-01T16:49:46.488Z</time></trkpt><trkpt lat="39.5201783" lon="8.5804883"><ele>303.2</ele><time>2026-05-01T16:49:47.487Z</time></trkpt><trkpt lat="39.5202133" lon="8.5806083"><ele>301.6</ele><time>2026-05-01T16:49:48.489Z</time></trkpt><trkpt lat="39.5202417" lon="8.5807317"><ele>300.0</ele><time>2026-05-01T16:49:49.483Z</time></trkpt><trkpt lat="39.52027" lon="8.580855"><ele>300.0</ele><time>2026-05-01T16:49:50.511Z</time></trkpt><trkpt lat="39.5203083" lon="8.580995"><ele>300.0</ele><time>2026-05-01T16:49:51.483Z</time></trkpt><trkpt lat="39.52033" lon="8.5811317"><ele>300.0</ele><time>2026-05-01T16:49:52.483Z</time></trkpt><trkpt lat="39.52033" lon="8.58126"><ele>300.0</ele><time>2026-05-01T16:49:53.486Z</time></trkpt><trkpt lat="39.5203233" lon="8.5814033"><ele>300.0</ele><time>2026-05-01T16:49:54.486Z</time></trkpt><trkpt lat="39.5203083" lon="8.581545"><ele>298.5</ele><time>2026-05-01T16:49:55.488Z</time></trkpt><trkpt lat="39.5202817" lon="8.5816817"><ele>297.0</ele><time>2026-05-01T16:49:56.55Z</time></trkpt><trkpt lat="39.5202667" lon="8.5818167"><ele>295.5</ele><time>2026-05-01T16:49:57.485Z</time></trkpt><trkpt lat="39.5202583" lon="8.581915"><ele>294.0</ele><time>2026-05-01T16:49:58.489Z</time></trkpt><trkpt lat="39.5202633" lon="8.5820133"><ele>292.5</ele><time>2026-05-01T16:49:59.484Z</time></trkpt><trkpt lat="39.5202917" lon="8.58211"><ele>291.0</ele><time>2026-05-01T16:50:00.485Z</time></trkpt><trkpt lat="39.520345" lon="8.582205"><ele>289.75</ele><time>2026-05-01T16:50:01.486Z</time></trkpt><trkpt lat="39.5204317" lon="8.5822833"><ele>288.5</ele><time>2026-05-01T16:50:02.52Z</time></trkpt><trkpt lat="39.5205417" lon="8.5823483"><ele>287.25</ele><time>2026-05-01T16:50:03.487Z</time></trkpt><trkpt lat="39.5206517" lon="8.5824433"><ele>286.0</ele><time>2026-05-01T16:50:04.482Z</time></trkpt><trkpt lat="39.5207417" lon="8.582555"><ele>286.0</ele><time>2026-05-01T16:50:05.49Z</time></trkpt><trkpt lat="39.520815" lon="8.58265"><ele>286.0</ele><time>2026-05-01T16:50:06.489Z</time></trkpt><trkpt lat="39.5208867" lon="8.582735"><ele>286.0</ele><time>2026-05-01T16:50:07.488Z</time></trkpt><trkpt lat="39.5209567" lon="8.58281"><ele>286.0</ele><time>2026-05-01T16:50:08.507Z</time></trkpt><trkpt lat="39.52103" lon="8.5828767"><ele>286.0</ele><time>2026-05-01T16:50:09.482Z</time></trkpt><trkpt lat="39.5211117" lon="8.5829717"><ele>285.75</ele><time>2026-05-01T16:50:10.488Z</time></trkpt><trkpt lat="39.5211917" lon="8.5830733"><ele>285.5</ele><time>2026-05-01T16:50:11.488Z</time></trkpt><trkpt lat="39.52127" lon="8.583195"><ele>285.25</ele><time>2026-05-01T16:50:12.49Z</time></trkpt><trkpt lat="39.52136" lon="8.58332"><ele>285.0</ele><time>2026-05-01T16:50:13.485Z</time></trkpt><trkpt lat="39.5214583" lon="8.58346"><ele>285.0</ele><time>2026-05-01T16:50:14.508Z</time></trkpt><trkpt lat="39.52157" lon="8.5836067"><ele>285.0</ele><time>2026-05-01T16:50:15.49Z</time></trkpt><trkpt lat="39.521675" lon="8.5837583"><ele>285.0</ele><time>2026-05-01T16:50:16.487Z</time></trkpt><trkpt lat="39.5218017" lon="8.5839267"><ele>284.6666666666667</ele><time>2026-05-01T16:50:17.485Z</time></trkpt><trkpt lat="39.52194" lon="8.584085"><ele>284.33333333333337</ele><time>2026-05-01T16:50:18.488Z</time></trkpt><trkpt lat="39.52206" lon="8.5842167"><ele>284.0</ele><time>2026-05-01T16:50:19.488Z</time></trkpt><trkpt lat="39.5221617" lon="8.5843417"><ele>284.0</ele><time>2026-05-01T16:50:20.511Z</time></trkpt><trkpt lat="39.52223" lon="8.5844383"><ele>284.0</ele><time>2026-05-01T16:50:21.487Z</time></trkpt><trkpt lat="39.5222817" lon="8.5845567"><ele>284.0</ele><time>2026-05-01T16:50:22.489Z</time></trkpt><trkpt lat="39.5223067" lon="8.584685"><ele>284.0</ele><time>2026-05-01T16:50:23.489Z</time></trkpt><trkpt lat="39.5223067" lon="8.5847983"><ele>284.0</ele><time>2026-05-01T16:50:24.487Z</time></trkpt><trkpt lat="39.5223067" lon="8.584935"><ele>282.0</ele><time>2026-05-01T16:50:25.489Z</time></trkpt><trkpt lat="39.5222767" lon="8.58509"><ele>280.0</ele><time>2026-05-01T16:50:26.483Z</time></trkpt><trkpt lat="39.5222017" lon="8.58529"><ele>278.0</ele><time>2026-05-01T16:50:27.484Z</time></trkpt><trkpt lat="39.522115" lon="8.585505"><ele>273.33333333333337</ele><time>2026-05-01T16:50:28.488Z</time></trkpt><trkpt lat="39.5220233" lon="8.585705"><ele>268.6666666666667</ele><time>2026-05-01T16:50:29.488Z</time></trkpt><trkpt lat="39.521955" lon="8.5858733"><ele>264.0</ele><time>2026-05-01T16:50:30.485Z</time></trkpt><trkpt lat="39.5218983" lon="8.5860217"><ele>264.0</ele><time>2026-05-01T16:50:31.484Z</time></trkpt><trkpt lat="39.5218517" lon="8.5861083"><ele>264.0</ele><time>2026-05-01T16:50:32.521Z</time></trkpt><trkpt lat="39.521835" lon="8.586225"><ele>264.0</ele><time>2026-05-01T16:50:33.487Z</time></trkpt><trkpt lat="39.5218767" lon="8.5863433"><ele>264.0</ele><time>2026-05-01T16:50:34.484Z</time></trkpt><trkpt lat="39.5219167" lon="8.586435"><ele>264.0</ele><time>2026-05-01T16:50:35.482Z</time></trkpt><trkpt lat="39.52198" lon="8.5865183"><ele>264.0</ele><time>2026-05-01T16:50:36.485Z</time></trkpt><trkpt lat="39.5220867" lon="8.586575"><ele>262.8333333333333</ele><time>2026-05-01T16:50:37.484Z</time></trkpt><trkpt lat="39.5221917" lon="8.586595"><ele>261.6666666666667</ele><time>2026-05-01T16:50:38.511Z</time></trkpt><trkpt lat="39.5222817" lon="8.5866067"><ele>260.5</ele><time>2026-05-01T16:50:39.485Z</time></trkpt><trkpt lat="39.52236" lon="8.5865933"><ele>259.33333333333337</ele><time>2026-05-01T16:50:40.487Z</time></trkpt><trkpt lat="39.5224417" lon="8.58657"><ele>258.1666666666667</ele><time>2026-05-01T16:50:41.487Z</time></trkpt><trkpt lat="39.5225283" lon="8.58654"><ele>257.0</ele><time>2026-05-01T16:50:42.485Z</time></trkpt><trkpt lat="39.5226117" lon="8.5865067"><ele>257.0</ele><time>2026-05-01T16:50:43.487Z</time></trkpt><trkpt lat="39.5226967" lon="8.586485"><ele>257.0</ele><time>2026-05-01T16:50:44.508Z</time></trkpt><trkpt lat="39.522775" lon="8.5864867"><ele>257.0</ele><time>2026-05-01T16:50:45.488Z</time></trkpt><trkpt lat="39.5228383" lon="8.5865133"><ele>257.0</ele><time>2026-05-01T16:50:46.489Z</time></trkpt><trkpt lat="39.522875" lon="8.58658"><ele>257.0</ele><time>2026-05-01T16:50:47.487Z</time></trkpt><trkpt lat="39.5228883" lon="8.5866667"><ele>257.0</ele><time>2026-05-01T16:50:48.49Z</time></trkpt><trkpt lat="39.5228917" lon="8.5867633"><ele>257.0</ele><time>2026-05-01T16:50:49.487Z</time></trkpt><trkpt lat="39.5228867" lon="8.5868733"><ele>257.0</ele><time>2026-05-01T16:50:50.513Z</time></trkpt><trkpt lat="39.5228683" lon="8.5870033"><ele>257.0</ele><time>2026-05-01T16:50:51.491Z</time></trkpt><trkpt lat="39.52286" lon="8.5871283"><ele>257.0</ele><time>2026-05-01T16:50:52.486Z</time></trkpt><trkpt lat="39.522865" lon="8.5872767"><ele>257.0</ele><time>2026-05-01T16:50:53.484Z</time></trkpt><trkpt lat="39.52289" lon="8.5874233"><ele>257.0</ele><time>2026-05-01T16:50:54.483Z</time></trkpt><trkpt lat="39.52293" lon="8.5875517"><ele>256.4</ele><time>2026-05-01T16:50:55.487Z</time></trkpt><trkpt lat="39.522955" lon="8.5876883"><ele>255.79999999999998</ele><time>2026-05-01T16:50:56.548Z</time></trkpt><trkpt lat="39.522985" lon="8.58781"><ele>255.2</ele><time>2026-05-01T16:50:57.486Z</time></trkpt><trkpt lat="39.5230267" lon="8.58792"><ele>254.6</ele><time>2026-05-01T16:50:58.486Z</time></trkpt><trkpt lat="39.5230767" lon="8.58801"><ele>254.0</ele><time>2026-05-01T16:50:59.489Z</time></trkpt><trkpt lat="39.5231433" lon="8.5880917"><ele>252.66666666666669</ele><time>2026-05-01T16:51:00.487Z</time></trkpt><trkpt lat="39.5232133" lon="8.5881633"><ele>251.33333333333334</ele><time>2026-05-01T16:51:01.484Z</time></trkpt><trkpt lat="39.523265" lon="8.5882167"><ele>250.0</ele><time>2026-05-01T16:51:02.522Z</time></trkpt><trkpt lat="39.5233533" lon="8.588245"><ele>248.66666666666669</ele><time>2026-05-01T16:51:03.482Z</time></trkpt><trkpt lat="39.5234467" lon="8.58827"><ele>247.33333333333334</ele><time>2026-05-01T16:51:04.487Z</time></trkpt><trkpt lat="39.52355" lon="8.5882867"><ele>246.0</ele><time>2026-05-01T16:51:05.487Z</time></trkpt><trkpt lat="39.523655" lon="8.5882883"><ele>244.25</ele><time>2026-05-01T16:51:06.488Z</time></trkpt><trkpt lat="39.52375" lon="8.5882833"><ele>242.5</ele><time>2026-05-01T16:51:07.488Z</time></trkpt><trkpt lat="39.5238783" lon="8.5882733"><ele>240.75</ele><time>2026-05-01T16:51:08.507Z</time></trkpt><trkpt lat="39.5239883" lon="8.5882317"><ele>239.0</ele><time>2026-05-01T16:51:09.484Z</time></trkpt><trkpt lat="39.524085" lon="8.5881567"><ele>239.00000000000003</ele><time>2026-05-01T16:51:10.485Z</time></trkpt><trkpt lat="39.5241517" lon="8.5880783"><ele>239.0</ele><time>2026-05-01T16:51:11.486Z</time></trkpt><trkpt lat="39.52422" lon="8.588005"><ele>239.0</ele><time>2026-05-01T16:51:12.485Z</time></trkpt><trkpt lat="39.5242817" lon="8.5879417"><ele>239.0</ele><time>2026-05-01T16:51:13.489Z</time></trkpt><trkpt lat="39.524355" lon="8.5878817"><ele>239.00000000000003</ele><time>2026-05-01T16:51:14.512Z</time></trkpt><trkpt lat="39.524425" lon="8.5878433"><ele>239.0</ele><time>2026-05-01T16:51:15.483Z</time></trkpt><trkpt lat="39.52451" lon="8.5878317"><ele>241.00000000000003</ele><time>2026-05-01T16:51:16.482Z</time></trkpt><trkpt lat="39.52459" lon="8.587865"><ele>243.0</ele><time>2026-05-01T16:51:17.49Z</time></trkpt><trkpt lat="39.5246733" lon="8.58792"><ele>245.0</ele><time>2026-05-01T16:51:18.488Z</time></trkpt><trkpt lat="39.5247283" lon="8.5880067"><ele>247.0</ele><time>2026-05-01T16:51:19.488Z</time></trkpt><trkpt lat="39.5247717" lon="8.5881"><ele>249.00000000000003</ele><time>2026-05-01T16:51:20.507Z</time></trkpt><trkpt lat="39.52479" lon="8.5882067"><ele>251.0</ele><time>2026-05-01T16:51:21.487Z</time></trkpt><trkpt lat="39.5247783" lon="8.5883167"><ele>251.0</ele><time>2026-05-01T16:51:22.487Z</time></trkpt><trkpt lat="39.5247583" lon="8.58844"><ele>251.00000000000003</ele><time>2026-05-01T16:51:23.486Z</time></trkpt><trkpt lat="39.5247317" lon="8.5885633"><ele>251.00000000000003</ele><time>2026-05-01T16:51:24.489Z</time></trkpt><trkpt lat="39.5247" lon="8.5886967"><ele>251.0</ele><time>2026-05-01T16:51:25.487Z</time></trkpt><trkpt lat="39.5246867" lon="8.5888283"><ele>251.0</ele><time>2026-05-01T16:51:26.545Z</time></trkpt><trkpt lat="39.5246717" lon="8.5889767"><ele>251.00000000000003</ele><time>2026-05-01T16:51:27.483Z</time></trkpt><trkpt lat="39.5246667" lon="8.58909"><ele>251.0</ele><time>2026-05-01T16:51:28.487Z</time></trkpt><trkpt lat="39.5246983" lon="8.5892"><ele>251.0</ele><time>2026-05-01T16:51:29.486Z</time></trkpt><trkpt lat="39.524735" lon="8.589305"><ele>251.0</ele><time>2026-05-01T16:51:30.487Z</time></trkpt><trkpt lat="39.524785" lon="8.5894033"><ele>251.00000000000003</ele><time>2026-05-01T16:51:31.489Z</time></trkpt><trkpt lat="39.524845" lon="8.58949"><ele>251.0</ele><time>2026-05-01T16:51:32.487Z</time></trkpt><trkpt lat="39.5249083" lon="8.5895667"><ele>251.00000000000003</ele><time>2026-05-01T16:51:33.487Z</time></trkpt><trkpt lat="39.5249817" lon="8.58964"><ele>251.0</ele><time>2026-05-01T16:51:34.487Z</time></trkpt><trkpt lat="39.5250433" lon="8.5897183"><ele>251.0</ele><time>2026-05-01T16:51:35.487Z</time></trkpt><trkpt lat="39.5250967" lon="8.5897983"><ele>251.0</ele><time>2026-05-01T16:51:36.487Z</time></trkpt><trkpt lat="39.5251417" lon="8.5898767"><ele>251.00000000000003</ele><time>2026-05-01T16:51:37.486Z</time></trkpt><trkpt lat="39.5251717" lon="8.58996"><ele>251.0</ele><time>2026-05-01T16:51:38.509Z</time></trkpt><trkpt lat="39.52518" lon="8.59006"><ele>251.0</ele><time>2026-05-01T16:51:39.488Z</time></trkpt><trkpt lat="39.5251733" lon="8.59017"><ele>251.00000000000003</ele><time>2026-05-01T16:51:40.486Z</time></trkpt><trkpt lat="39.5251583" lon="8.590285"><ele>251.00000000000003</ele><time>2026-05-01T16:51:41.489Z</time></trkpt><trkpt lat="39.52514" lon="8.5904017"><ele>251.0</ele><time>2026-05-01T16:51:42.484Z</time></trkpt><trkpt lat="39.5251167" lon="8.5905267"><ele>251.0</ele><time>2026-05-01T16:51:43.489Z</time></trkpt><trkpt lat="39.525095" lon="8.590645"><ele>251.60000000000002</ele><time>2026-05-01T16:51:44.51Z</time></trkpt><trkpt lat="39.525075" lon="8.590775"><ele>252.20000000000002</ele><time>2026-05-01T16:51:45.486Z</time></trkpt><trkpt lat="39.5250883" lon="8.5909"><ele>252.79999999999998</ele><time>2026-05-01T16:51:46.487Z</time></trkpt><trkpt lat="39.52512" lon="8.5910183"><ele>253.39999999999998</ele><time>2026-05-01T16:51:47.488Z</time></trkpt><trkpt lat="39.5251717" lon="8.59113"><ele>254.0</ele><time>2026-05-01T16:51:48.488Z</time></trkpt><trkpt lat="39.52523" lon="8.591235"><ele>254.66666666666669</ele><time>2026-05-01T16:51:49.488Z</time></trkpt><trkpt lat="39.5253017" lon="8.5913317"><ele>255.33333333333334</ele><time>2026-05-01T16:51:50.51Z</time></trkpt><trkpt lat="39.5253667" lon="8.5913967"><ele>256.0</ele><time>2026-05-01T16:51:51.486Z</time></trkpt><trkpt lat="39.52542" lon="8.59148"><ele>256.6666666666667</ele><time>2026-05-01T16:51:52.486Z</time></trkpt><trkpt lat="39.52547" lon="8.5915567"><ele>257.3333333333333</ele><time>2026-05-01T16:51:53.487Z</time></trkpt><trkpt lat="39.525515" lon="8.5916217"><ele>258.0</ele><time>2026-05-01T16:51:54.489Z</time></trkpt><trkpt lat="39.52559" lon="8.5917417"><ele>263.0</ele><time>2026-05-01T16:51:56.487Z</time></trkpt><trkpt lat="39.5256533" lon="8.591835"><ele>263.0</ele><time>2026-05-01T16:51:58.487Z</time></trkpt></trkseg></trk></gpx>